<?xml version="1.0" encoding="UTF-8" standalone="no" ?>
<gpx xmlns="http://www.topografix.com/GPX/1/1" xmlns:xsi="http://www.w3.org/2001/XMLSchema-instance" xsi:schemaLocation="http://www.topografix.com/GPX/1/1 http://www.topografix.com/GPX/1/1/gpx.xsd" version="1.1" creator="VisuGPX - https://www.visugpx.com">
  <metadata>
    <name>Tournon d'Agenais 10.1 km</name>
  </metadata>
  <trk>
    <name><![CDATA[2025 07 17 Tournon d'Agenais 10 km Pierre]]></name>
    <extensions>
      <line xmlns="http://www.topografix.com/GPX/gpx_style/0/2">
        <color>0000FF</color>
        <width>4</width>
      </line>
    </extensions>
    <trkseg>
      <trkpt lat="44.40158" lon="0.9976">
        <ele>204</ele>
        <time>2025-07-17T07:09:32.072Z</time>
      </trkpt>
      <trkpt lat="44.40169" lon="0.99777">
        <ele>200</ele>
        <time>2025-07-17T07:09:33.072Z</time>
      </trkpt>
      <trkpt lat="44.40165" lon="0.99775">
        <ele>197</ele>
        <time>2025-07-17T07:09:34.071Z</time>
      </trkpt>
      <trkpt lat="44.40162" lon="0.99775">
        <ele>195</ele>
        <time>2025-07-17T07:09:35.071Z</time>
      </trkpt>
      <trkpt lat="44.40159" lon="0.99773">
        <ele>193</ele>
        <time>2025-07-17T07:09:36.071Z</time>
      </trkpt>
      <trkpt lat="44.40158" lon="0.99775">
        <ele>191</ele>
        <time>2025-07-17T07:09:37.072Z</time>
      </trkpt>
      <trkpt lat="44.40157" lon="0.99773">
        <ele>189</ele>
        <time>2025-07-17T07:09:38.071Z</time>
      </trkpt>
      <trkpt lat="44.40155" lon="0.99773">
        <ele>187</ele>
        <time>2025-07-17T07:09:39.072Z</time>
      </trkpt>
      <trkpt lat="44.40154" lon="0.99774">
        <ele>186</ele>
        <time>2025-07-17T07:09:40.072Z</time>
      </trkpt>
      <trkpt lat="44.40155" lon="0.99773">
        <ele>184</ele>
        <time>2025-07-17T07:09:41.071Z</time>
      </trkpt>
      <trkpt lat="44.40155" lon="0.99774">
        <ele>183</ele>
        <time>2025-07-17T07:09:42.072Z</time>
      </trkpt>
      <trkpt lat="44.40155" lon="0.99775">
        <ele>181</ele>
        <time>2025-07-17T07:09:43.072Z</time>
      </trkpt>
      <trkpt lat="44.40155" lon="0.99776">
        <ele>179</ele>
        <time>2025-07-17T07:09:44.071Z</time>
      </trkpt>
      <trkpt lat="44.40154" lon="0.99776">
        <ele>178</ele>
        <time>2025-07-17T07:09:45.072Z</time>
      </trkpt>
      <trkpt lat="44.40153" lon="0.99777">
        <ele>176</ele>
        <time>2025-07-17T07:09:46.071Z</time>
      </trkpt>
      <trkpt lat="44.40152" lon="0.99777">
        <ele>175</ele>
        <time>2025-07-17T07:09:47.071Z</time>
      </trkpt>
      <trkpt lat="44.40151" lon="0.99778">
        <ele>173</ele>
        <time>2025-07-17T07:09:48.072Z</time>
      </trkpt>
      <trkpt lat="44.40151" lon="0.99779">
        <ele>172</ele>
        <time>2025-07-17T07:09:49.071Z</time>
      </trkpt>
      <trkpt lat="44.40151" lon="0.9978">
        <ele>170</ele>
        <time>2025-07-17T07:09:50.071Z</time>
      </trkpt>
      <trkpt lat="44.40151" lon="0.99781">
        <ele>170</ele>
        <time>2025-07-17T07:09:51.072Z</time>
      </trkpt>
      <trkpt lat="44.40151" lon="0.99781">
        <ele>169</ele>
        <time>2025-07-17T07:09:52.072Z</time>
      </trkpt>
      <trkpt lat="44.4015" lon="0.99781">
        <ele>168</ele>
        <time>2025-07-17T07:09:53.071Z</time>
      </trkpt>
      <trkpt lat="44.4015" lon="0.99782">
        <ele>167</ele>
        <time>2025-07-17T07:09:54.071Z</time>
      </trkpt>
      <trkpt lat="44.40149" lon="0.99783">
        <ele>166</ele>
        <time>2025-07-17T07:09:55.071Z</time>
      </trkpt>
      <trkpt lat="44.40149" lon="0.99783">
        <ele>165</ele>
        <time>2025-07-17T07:09:56.071Z</time>
      </trkpt>
      <trkpt lat="44.40149" lon="0.99784">
        <ele>164</ele>
        <time>2025-07-17T07:09:57.071Z</time>
      </trkpt>
      <trkpt lat="44.40149" lon="0.99784">
        <ele>163</ele>
        <time>2025-07-17T07:09:58.071Z</time>
      </trkpt>
      <trkpt lat="44.40149" lon="0.99784">
        <ele>163</ele>
        <time>2025-07-17T07:09:59.071Z</time>
      </trkpt>
      <trkpt lat="44.40149" lon="0.99784">
        <ele>162</ele>
        <time>2025-07-17T07:10:00.071Z</time>
      </trkpt>
      <trkpt lat="44.40149" lon="0.99784">
        <ele>162</ele>
        <time>2025-07-17T07:10:01.071Z</time>
      </trkpt>
      <trkpt lat="44.40149" lon="0.99784">
        <ele>162</ele>
        <time>2025-07-17T07:10:02.072Z</time>
      </trkpt>
      <trkpt lat="44.40149" lon="0.99784">
        <ele>162</ele>
        <time>2025-07-17T07:10:03.071Z</time>
      </trkpt>
      <trkpt lat="44.40149" lon="0.99785">
        <ele>161</ele>
        <time>2025-07-17T07:10:04.072Z</time>
      </trkpt>
      <trkpt lat="44.40149" lon="0.99785">
        <ele>161</ele>
        <time>2025-07-17T07:10:05.071Z</time>
      </trkpt>
      <trkpt lat="44.40149" lon="0.99786">
        <ele>161</ele>
        <time>2025-07-17T07:10:06.071Z</time>
      </trkpt>
      <trkpt lat="44.40149" lon="0.99787">
        <ele>160</ele>
        <time>2025-07-17T07:10:07.072Z</time>
      </trkpt>
      <trkpt lat="44.40149" lon="0.99789">
        <ele>160</ele>
        <time>2025-07-17T07:10:08.071Z</time>
      </trkpt>
      <trkpt lat="44.4015" lon="0.9979">
        <ele>159</ele>
        <time>2025-07-17T07:10:09.072Z</time>
      </trkpt>
      <trkpt lat="44.4015" lon="0.99792">
        <ele>159</ele>
        <time>2025-07-17T07:10:10.071Z</time>
      </trkpt>
      <trkpt lat="44.4015" lon="0.99793">
        <ele>158</ele>
        <time>2025-07-17T07:10:11.071Z</time>
      </trkpt>
      <trkpt lat="44.4015" lon="0.99794">
        <ele>158</ele>
        <time>2025-07-17T07:10:12.071Z</time>
      </trkpt>
      <trkpt lat="44.40151" lon="0.99796">
        <ele>157</ele>
        <time>2025-07-17T07:10:13.071Z</time>
      </trkpt>
      <trkpt lat="44.40151" lon="0.99797">
        <ele>157</ele>
        <time>2025-07-17T07:10:14.071Z</time>
      </trkpt>
      <trkpt lat="44.40151" lon="0.99798">
        <ele>157</ele>
        <time>2025-07-17T07:10:15.072Z</time>
      </trkpt>
      <trkpt lat="44.40151" lon="0.998">
        <ele>157</ele>
        <time>2025-07-17T07:10:16.072Z</time>
      </trkpt>
      <trkpt lat="44.40152" lon="0.99801">
        <ele>157</ele>
        <time>2025-07-17T07:10:17.071Z</time>
      </trkpt>
      <trkpt lat="44.40152" lon="0.99802">
        <ele>156</ele>
        <time>2025-07-17T07:10:18.072Z</time>
      </trkpt>
      <trkpt lat="44.40153" lon="0.99804">
        <ele>156</ele>
        <time>2025-07-17T07:10:19.071Z</time>
      </trkpt>
      <trkpt lat="44.40153" lon="0.99805">
        <ele>156</ele>
        <time>2025-07-17T07:10:20.071Z</time>
      </trkpt>
      <trkpt lat="44.40154" lon="0.99806">
        <ele>155</ele>
        <time>2025-07-17T07:10:21.072Z</time>
      </trkpt>
      <trkpt lat="44.40154" lon="0.99808">
        <ele>155</ele>
        <time>2025-07-17T07:10:22.071Z</time>
      </trkpt>
      <trkpt lat="44.40155" lon="0.99809">
        <ele>155</ele>
        <time>2025-07-17T07:10:23.071Z</time>
      </trkpt>
      <trkpt lat="44.40155" lon="0.99811">
        <ele>154</ele>
        <time>2025-07-17T07:10:24.071Z</time>
      </trkpt>
      <trkpt lat="44.40155" lon="0.99812">
        <ele>154</ele>
        <time>2025-07-17T07:10:25.071Z</time>
      </trkpt>
      <trkpt lat="44.40155" lon="0.99813">
        <ele>154</ele>
        <time>2025-07-17T07:10:26.071Z</time>
      </trkpt>
      <trkpt lat="44.40155" lon="0.99815">
        <ele>153</ele>
        <time>2025-07-17T07:10:27.071Z</time>
      </trkpt>
      <trkpt lat="44.40155" lon="0.99816">
        <ele>153</ele>
        <time>2025-07-17T07:10:28.072Z</time>
      </trkpt>
      <trkpt lat="44.40155" lon="0.99817">
        <ele>152</ele>
        <time>2025-07-17T07:10:29.071Z</time>
      </trkpt>
      <trkpt lat="44.40156" lon="0.99818">
        <ele>152</ele>
        <time>2025-07-17T07:10:30.071Z</time>
      </trkpt>
      <trkpt lat="44.40156" lon="0.99819">
        <ele>152</ele>
        <time>2025-07-17T07:10:31.072Z</time>
      </trkpt>
      <trkpt lat="44.40156" lon="0.99821">
        <ele>151</ele>
        <time>2025-07-17T07:10:32.071Z</time>
      </trkpt>
      <trkpt lat="44.40157" lon="0.99822">
        <ele>151</ele>
        <time>2025-07-17T07:10:33.072Z</time>
      </trkpt>
      <trkpt lat="44.40157" lon="0.99824">
        <ele>151</ele>
        <time>2025-07-17T07:10:34.071Z</time>
      </trkpt>
      <trkpt lat="44.40157" lon="0.99826">
        <ele>151</ele>
        <time>2025-07-17T07:10:35.071Z</time>
      </trkpt>
      <trkpt lat="44.40157" lon="0.99828">
        <ele>151</ele>
        <time>2025-07-17T07:10:36.072Z</time>
      </trkpt>
      <trkpt lat="44.40158" lon="0.99829">
        <ele>151</ele>
        <time>2025-07-17T07:10:37.072Z</time>
      </trkpt>
      <trkpt lat="44.40158" lon="0.99831">
        <ele>151</ele>
        <time>2025-07-17T07:10:38.071Z</time>
      </trkpt>
      <trkpt lat="44.40158" lon="0.99833">
        <ele>151</ele>
        <time>2025-07-17T07:10:39.071Z</time>
      </trkpt>
      <trkpt lat="44.40158" lon="0.99834">
        <ele>152</ele>
        <time>2025-07-17T07:10:40.072Z</time>
      </trkpt>
      <trkpt lat="44.40159" lon="0.99835">
        <ele>152</ele>
        <time>2025-07-17T07:10:41.071Z</time>
      </trkpt>
      <trkpt lat="44.40159" lon="0.99837">
        <ele>152</ele>
        <time>2025-07-17T07:10:42.072Z</time>
      </trkpt>
      <trkpt lat="44.4016" lon="0.99838">
        <ele>152</ele>
        <time>2025-07-17T07:10:43.071Z</time>
      </trkpt>
      <trkpt lat="44.4016" lon="0.9984">
        <ele>152</ele>
        <time>2025-07-17T07:10:44.071Z</time>
      </trkpt>
      <trkpt lat="44.40161" lon="0.99842">
        <ele>152</ele>
        <time>2025-07-17T07:10:45.071Z</time>
      </trkpt>
      <trkpt lat="44.40161" lon="0.99844">
        <ele>152</ele>
        <time>2025-07-17T07:10:46.071Z</time>
      </trkpt>
      <trkpt lat="44.40162" lon="0.99845">
        <ele>153</ele>
        <time>2025-07-17T07:10:47.071Z</time>
      </trkpt>
      <trkpt lat="44.40162" lon="0.99847">
        <ele>153</ele>
        <time>2025-07-17T07:10:48.071Z</time>
      </trkpt>
      <trkpt lat="44.40163" lon="0.99849">
        <ele>153</ele>
        <time>2025-07-17T07:10:49.071Z</time>
      </trkpt>
      <trkpt lat="44.40163" lon="0.9985">
        <ele>153</ele>
        <time>2025-07-17T07:10:50.071Z</time>
      </trkpt>
      <trkpt lat="44.40163" lon="0.99852">
        <ele>154</ele>
        <time>2025-07-17T07:10:51.072Z</time>
      </trkpt>
      <trkpt lat="44.40163" lon="0.99853">
        <ele>154</ele>
        <time>2025-07-17T07:10:52.072Z</time>
      </trkpt>
      <trkpt lat="44.40163" lon="0.99854">
        <ele>154</ele>
        <time>2025-07-17T07:10:53.071Z</time>
      </trkpt>
      <trkpt lat="44.40164" lon="0.99856">
        <ele>154</ele>
        <time>2025-07-17T07:10:54.071Z</time>
      </trkpt>
      <trkpt lat="44.40164" lon="0.99857">
        <ele>154</ele>
        <time>2025-07-17T07:10:55.071Z</time>
      </trkpt>
      <trkpt lat="44.40165" lon="0.99858">
        <ele>155</ele>
        <time>2025-07-17T07:10:56.071Z</time>
      </trkpt>
      <trkpt lat="44.40166" lon="0.9986">
        <ele>155</ele>
        <time>2025-07-17T07:10:57.072Z</time>
      </trkpt>
      <trkpt lat="44.40167" lon="0.99861">
        <ele>155</ele>
        <time>2025-07-17T07:10:58.071Z</time>
      </trkpt>
      <trkpt lat="44.40169" lon="0.99863">
        <ele>155</ele>
        <time>2025-07-17T07:10:59.072Z</time>
      </trkpt>
      <trkpt lat="44.40169" lon="0.99865">
        <ele>155</ele>
        <time>2025-07-17T07:11:00.072Z</time>
      </trkpt>
      <trkpt lat="44.40169" lon="0.99867">
        <ele>155</ele>
        <time>2025-07-17T07:11:01.071Z</time>
      </trkpt>
      <trkpt lat="44.4017" lon="0.99869">
        <ele>155</ele>
        <time>2025-07-17T07:11:02.071Z</time>
      </trkpt>
      <trkpt lat="44.4017" lon="0.99871">
        <ele>155</ele>
        <time>2025-07-17T07:11:03.071Z</time>
      </trkpt>
      <trkpt lat="44.4017" lon="0.99873">
        <ele>155</ele>
        <time>2025-07-17T07:11:04.072Z</time>
      </trkpt>
      <trkpt lat="44.40171" lon="0.99874">
        <ele>155</ele>
        <time>2025-07-17T07:11:05.071Z</time>
      </trkpt>
      <trkpt lat="44.40171" lon="0.99877">
        <ele>155</ele>
        <time>2025-07-17T07:11:06.071Z</time>
      </trkpt>
      <trkpt lat="44.40172" lon="0.99878">
        <ele>155</ele>
        <time>2025-07-17T07:11:07.071Z</time>
      </trkpt>
      <trkpt lat="44.40172" lon="0.99879">
        <ele>156</ele>
        <time>2025-07-17T07:11:08.071Z</time>
      </trkpt>
      <trkpt lat="44.40172" lon="0.9988">
        <ele>156</ele>
        <time>2025-07-17T07:11:09.072Z</time>
      </trkpt>
      <trkpt lat="44.40172" lon="0.99881">
        <ele>156</ele>
        <time>2025-07-17T07:11:10.071Z</time>
      </trkpt>
      <trkpt lat="44.40172" lon="0.99883">
        <ele>156</ele>
        <time>2025-07-17T07:11:11.071Z</time>
      </trkpt>
      <trkpt lat="44.40172" lon="0.99884">
        <ele>156</ele>
        <time>2025-07-17T07:11:12.071Z</time>
      </trkpt>
      <trkpt lat="44.40172" lon="0.99886">
        <ele>156</ele>
        <time>2025-07-17T07:11:13.072Z</time>
      </trkpt>
      <trkpt lat="44.40173" lon="0.99887">
        <ele>156</ele>
        <time>2025-07-17T07:11:14.071Z</time>
      </trkpt>
      <trkpt lat="44.40173" lon="0.99888">
        <ele>156</ele>
        <time>2025-07-17T07:11:15.072Z</time>
      </trkpt>
      <trkpt lat="44.40174" lon="0.9989">
        <ele>156</ele>
        <time>2025-07-17T07:11:16.072Z</time>
      </trkpt>
      <trkpt lat="44.40175" lon="0.99891">
        <ele>156</ele>
        <time>2025-07-17T07:11:17.072Z</time>
      </trkpt>
      <trkpt lat="44.40175" lon="0.99893">
        <ele>156</ele>
        <time>2025-07-17T07:11:18.071Z</time>
      </trkpt>
      <trkpt lat="44.40175" lon="0.99894">
        <ele>156</ele>
        <time>2025-07-17T07:11:19.072Z</time>
      </trkpt>
      <trkpt lat="44.40176" lon="0.99896">
        <ele>156</ele>
        <time>2025-07-17T07:11:20.072Z</time>
      </trkpt>
      <trkpt lat="44.40177" lon="0.99897">
        <ele>156</ele>
        <time>2025-07-17T07:11:21.072Z</time>
      </trkpt>
      <trkpt lat="44.40178" lon="0.99898">
        <ele>155</ele>
        <time>2025-07-17T07:11:22.071Z</time>
      </trkpt>
      <trkpt lat="44.40178" lon="0.999">
        <ele>155</ele>
        <time>2025-07-17T07:11:23.072Z</time>
      </trkpt>
      <trkpt lat="44.40179" lon="0.99901">
        <ele>155</ele>
        <time>2025-07-17T07:11:24.072Z</time>
      </trkpt>
      <trkpt lat="44.4018" lon="0.99902">
        <ele>155</ele>
        <time>2025-07-17T07:11:25.071Z</time>
      </trkpt>
      <trkpt lat="44.40181" lon="0.99903">
        <ele>154</ele>
        <time>2025-07-17T07:11:26.071Z</time>
      </trkpt>
      <trkpt lat="44.40181" lon="0.99904">
        <ele>154</ele>
        <time>2025-07-17T07:11:27.072Z</time>
      </trkpt>
      <trkpt lat="44.40182" lon="0.99906">
        <ele>154</ele>
        <time>2025-07-17T07:11:28.072Z</time>
      </trkpt>
      <trkpt lat="44.40182" lon="0.99907">
        <ele>153</ele>
        <time>2025-07-17T07:11:29.071Z</time>
      </trkpt>
      <trkpt lat="44.40183" lon="0.99908">
        <ele>153</ele>
        <time>2025-07-17T07:11:30.072Z</time>
      </trkpt>
      <trkpt lat="44.40183" lon="0.99909">
        <ele>153</ele>
        <time>2025-07-17T07:11:31.071Z</time>
      </trkpt>
      <trkpt lat="44.40183" lon="0.9991">
        <ele>153</ele>
        <time>2025-07-17T07:11:32.071Z</time>
      </trkpt>
      <trkpt lat="44.40183" lon="0.99912">
        <ele>152</ele>
        <time>2025-07-17T07:11:33.071Z</time>
      </trkpt>
      <trkpt lat="44.40184" lon="0.99913">
        <ele>152</ele>
        <time>2025-07-17T07:11:34.071Z</time>
      </trkpt>
      <trkpt lat="44.40184" lon="0.99914">
        <ele>152</ele>
        <time>2025-07-17T07:11:35.071Z</time>
      </trkpt>
      <trkpt lat="44.40185" lon="0.99916">
        <ele>152</ele>
        <time>2025-07-17T07:11:36.071Z</time>
      </trkpt>
      <trkpt lat="44.40186" lon="0.99917">
        <ele>152</ele>
        <time>2025-07-17T07:11:37.072Z</time>
      </trkpt>
      <trkpt lat="44.40186" lon="0.99918">
        <ele>152</ele>
        <time>2025-07-17T07:11:38.071Z</time>
      </trkpt>
      <trkpt lat="44.40187" lon="0.99919">
        <ele>152</ele>
        <time>2025-07-17T07:11:39.072Z</time>
      </trkpt>
      <trkpt lat="44.40188" lon="0.99921">
        <ele>152</ele>
        <time>2025-07-17T07:11:40.071Z</time>
      </trkpt>
      <trkpt lat="44.40188" lon="0.99922">
        <ele>151</ele>
        <time>2025-07-17T07:11:41.071Z</time>
      </trkpt>
      <trkpt lat="44.40189" lon="0.99923">
        <ele>151</ele>
        <time>2025-07-17T07:11:42.071Z</time>
      </trkpt>
      <trkpt lat="44.4019" lon="0.99924">
        <ele>151</ele>
        <time>2025-07-17T07:11:43.072Z</time>
      </trkpt>
      <trkpt lat="44.4019" lon="0.99926">
        <ele>151</ele>
        <time>2025-07-17T07:11:44.071Z</time>
      </trkpt>
      <trkpt lat="44.40191" lon="0.99927">
        <ele>151</ele>
        <time>2025-07-17T07:11:45.072Z</time>
      </trkpt>
      <trkpt lat="44.40191" lon="0.99928">
        <ele>151</ele>
        <time>2025-07-17T07:11:46.072Z</time>
      </trkpt>
      <trkpt lat="44.4019" lon="0.9993">
        <ele>150</ele>
        <time>2025-07-17T07:11:47.072Z</time>
      </trkpt>
      <trkpt lat="44.40191" lon="0.99931">
        <ele>150</ele>
        <time>2025-07-17T07:11:48.072Z</time>
      </trkpt>
      <trkpt lat="44.4019" lon="0.99932">
        <ele>150</ele>
        <time>2025-07-17T07:11:49.071Z</time>
      </trkpt>
      <trkpt lat="44.40191" lon="0.99934">
        <ele>150</ele>
        <time>2025-07-17T07:11:50.072Z</time>
      </trkpt>
      <trkpt lat="44.40192" lon="0.99934">
        <ele>150</ele>
        <time>2025-07-17T07:11:51.072Z</time>
      </trkpt>
      <trkpt lat="44.40193" lon="0.99935">
        <ele>150</ele>
        <time>2025-07-17T07:11:52.072Z</time>
      </trkpt>
      <trkpt lat="44.40194" lon="0.99936">
        <ele>151</ele>
        <time>2025-07-17T07:11:53.072Z</time>
      </trkpt>
      <trkpt lat="44.40195" lon="0.99937">
        <ele>151</ele>
        <time>2025-07-17T07:11:54.072Z</time>
      </trkpt>
      <trkpt lat="44.40195" lon="0.99938">
        <ele>151</ele>
        <time>2025-07-17T07:11:55.072Z</time>
      </trkpt>
      <trkpt lat="44.40196" lon="0.99939">
        <ele>151</ele>
        <time>2025-07-17T07:11:56.071Z</time>
      </trkpt>
      <trkpt lat="44.40196" lon="0.99941">
        <ele>151</ele>
        <time>2025-07-17T07:11:57.072Z</time>
      </trkpt>
      <trkpt lat="44.40197" lon="0.99942">
        <ele>151</ele>
        <time>2025-07-17T07:11:58.072Z</time>
      </trkpt>
      <trkpt lat="44.40197" lon="0.99944">
        <ele>152</ele>
        <time>2025-07-17T07:11:59.071Z</time>
      </trkpt>
      <trkpt lat="44.40198" lon="0.99945">
        <ele>152</ele>
        <time>2025-07-17T07:12:00.071Z</time>
      </trkpt>
      <trkpt lat="44.40199" lon="0.99946">
        <ele>152</ele>
        <time>2025-07-17T07:12:01.071Z</time>
      </trkpt>
      <trkpt lat="44.40199" lon="0.99947">
        <ele>153</ele>
        <time>2025-07-17T07:12:02.071Z</time>
      </trkpt>
      <trkpt lat="44.402" lon="0.99948">
        <ele>154</ele>
        <time>2025-07-17T07:12:03.072Z</time>
      </trkpt>
      <trkpt lat="44.40201" lon="0.99948">
        <ele>154</ele>
        <time>2025-07-17T07:12:04.072Z</time>
      </trkpt>
      <trkpt lat="44.40202" lon="0.99949">
        <ele>155</ele>
        <time>2025-07-17T07:12:05.072Z</time>
      </trkpt>
      <trkpt lat="44.40204" lon="0.99949">
        <ele>155</ele>
        <time>2025-07-17T07:12:06.072Z</time>
      </trkpt>
      <trkpt lat="44.40205" lon="0.99949">
        <ele>156</ele>
        <time>2025-07-17T07:12:07.072Z</time>
      </trkpt>
      <trkpt lat="44.40206" lon="0.99949">
        <ele>157</ele>
        <time>2025-07-17T07:12:08.071Z</time>
      </trkpt>
      <trkpt lat="44.40207" lon="0.9995">
        <ele>157</ele>
        <time>2025-07-17T07:12:09.072Z</time>
      </trkpt>
      <trkpt lat="44.40208" lon="0.9995">
        <ele>158</ele>
        <time>2025-07-17T07:12:10.072Z</time>
      </trkpt>
      <trkpt lat="44.40209" lon="0.99951">
        <ele>159</ele>
        <time>2025-07-17T07:12:11.072Z</time>
      </trkpt>
      <trkpt lat="44.4021" lon="0.99952">
        <ele>159</ele>
        <time>2025-07-17T07:12:12.072Z</time>
      </trkpt>
      <trkpt lat="44.40211" lon="0.99953">
        <ele>159</ele>
        <time>2025-07-17T07:12:13.071Z</time>
      </trkpt>
      <trkpt lat="44.40212" lon="0.99955">
        <ele>160</ele>
        <time>2025-07-17T07:12:14.072Z</time>
      </trkpt>
      <trkpt lat="44.40213" lon="0.99956">
        <ele>160</ele>
        <time>2025-07-17T07:12:15.072Z</time>
      </trkpt>
      <trkpt lat="44.40214" lon="0.99957">
        <ele>160</ele>
        <time>2025-07-17T07:12:16.071Z</time>
      </trkpt>
      <trkpt lat="44.40215" lon="0.99959">
        <ele>161</ele>
        <time>2025-07-17T07:12:17.071Z</time>
      </trkpt>
      <trkpt lat="44.40216" lon="0.9996">
        <ele>161</ele>
        <time>2025-07-17T07:12:18.072Z</time>
      </trkpt>
      <trkpt lat="44.40217" lon="0.99961">
        <ele>161</ele>
        <time>2025-07-17T07:12:19.071Z</time>
      </trkpt>
      <trkpt lat="44.40219" lon="0.99962">
        <ele>161</ele>
        <time>2025-07-17T07:12:20.071Z</time>
      </trkpt>
      <trkpt lat="44.4022" lon="0.99963">
        <ele>161</ele>
        <time>2025-07-17T07:12:21.072Z</time>
      </trkpt>
      <trkpt lat="44.40221" lon="0.99964">
        <ele>162</ele>
        <time>2025-07-17T07:12:22.071Z</time>
      </trkpt>
      <trkpt lat="44.40221" lon="0.99965">
        <ele>162</ele>
        <time>2025-07-17T07:12:23.071Z</time>
      </trkpt>
      <trkpt lat="44.40222" lon="0.99966">
        <ele>162</ele>
        <time>2025-07-17T07:12:24.071Z</time>
      </trkpt>
      <trkpt lat="44.40223" lon="0.99967">
        <ele>163</ele>
        <time>2025-07-17T07:12:25.072Z</time>
      </trkpt>
      <trkpt lat="44.40225" lon="0.99968">
        <ele>163</ele>
        <time>2025-07-17T07:12:26.071Z</time>
      </trkpt>
      <trkpt lat="44.40226" lon="0.99969">
        <ele>164</ele>
        <time>2025-07-17T07:12:27.072Z</time>
      </trkpt>
      <trkpt lat="44.40227" lon="0.9997">
        <ele>164</ele>
        <time>2025-07-17T07:12:28.072Z</time>
      </trkpt>
      <trkpt lat="44.40228" lon="0.99972">
        <ele>164</ele>
        <time>2025-07-17T07:12:29.072Z</time>
      </trkpt>
      <trkpt lat="44.40229" lon="0.99972">
        <ele>164</ele>
        <time>2025-07-17T07:12:30.071Z</time>
      </trkpt>
      <trkpt lat="44.4023" lon="0.99973">
        <ele>164</ele>
        <time>2025-07-17T07:12:31.071Z</time>
      </trkpt>
      <trkpt lat="44.40231" lon="0.99974">
        <ele>164</ele>
        <time>2025-07-17T07:12:32.071Z</time>
      </trkpt>
      <trkpt lat="44.40232" lon="0.99975">
        <ele>165</ele>
        <time>2025-07-17T07:12:33.072Z</time>
      </trkpt>
      <trkpt lat="44.40233" lon="0.99976">
        <ele>166</ele>
        <time>2025-07-17T07:12:34.072Z</time>
      </trkpt>
      <trkpt lat="44.40234" lon="0.99977">
        <ele>166</ele>
        <time>2025-07-17T07:12:35.071Z</time>
      </trkpt>
      <trkpt lat="44.40235" lon="0.99978">
        <ele>167</ele>
        <time>2025-07-17T07:12:36.071Z</time>
      </trkpt>
      <trkpt lat="44.40236" lon="0.99979">
        <ele>168</ele>
        <time>2025-07-17T07:12:37.072Z</time>
      </trkpt>
      <trkpt lat="44.40237" lon="0.99979">
        <ele>168</ele>
        <time>2025-07-17T07:12:38.072Z</time>
      </trkpt>
      <trkpt lat="44.40238" lon="0.9998">
        <ele>169</ele>
        <time>2025-07-17T07:12:39.071Z</time>
      </trkpt>
      <trkpt lat="44.4024" lon="0.99981">
        <ele>169</ele>
        <time>2025-07-17T07:12:40.071Z</time>
      </trkpt>
      <trkpt lat="44.4024" lon="0.99982">
        <ele>169</ele>
        <time>2025-07-17T07:12:41.071Z</time>
      </trkpt>
      <trkpt lat="44.40241" lon="0.99983">
        <ele>170</ele>
        <time>2025-07-17T07:12:42.071Z</time>
      </trkpt>
      <trkpt lat="44.40243" lon="0.99983">
        <ele>170</ele>
        <time>2025-07-17T07:12:43.072Z</time>
      </trkpt>
      <trkpt lat="44.40244" lon="0.99984">
        <ele>170</ele>
        <time>2025-07-17T07:12:44.071Z</time>
      </trkpt>
      <trkpt lat="44.40245" lon="0.99985">
        <ele>170</ele>
        <time>2025-07-17T07:12:45.071Z</time>
      </trkpt>
      <trkpt lat="44.40247" lon="0.99986">
        <ele>170</ele>
        <time>2025-07-17T07:12:46.072Z</time>
      </trkpt>
      <trkpt lat="44.40247" lon="0.99987">
        <ele>170</ele>
        <time>2025-07-17T07:12:47.071Z</time>
      </trkpt>
      <trkpt lat="44.40248" lon="0.99988">
        <ele>170</ele>
        <time>2025-07-17T07:12:48.072Z</time>
      </trkpt>
      <trkpt lat="44.4025" lon="0.99989">
        <ele>170</ele>
        <time>2025-07-17T07:12:49.072Z</time>
      </trkpt>
      <trkpt lat="44.40251" lon="0.9999">
        <ele>170</ele>
        <time>2025-07-17T07:12:50.071Z</time>
      </trkpt>
      <trkpt lat="44.40252" lon="0.99991">
        <ele>169</ele>
        <time>2025-07-17T07:12:51.072Z</time>
      </trkpt>
      <trkpt lat="44.40253" lon="0.99992">
        <ele>169</ele>
        <time>2025-07-17T07:12:52.071Z</time>
      </trkpt>
      <trkpt lat="44.40255" lon="0.99993">
        <ele>169</ele>
        <time>2025-07-17T07:12:53.071Z</time>
      </trkpt>
      <trkpt lat="44.40256" lon="0.99995">
        <ele>168</ele>
        <time>2025-07-17T07:12:54.072Z</time>
      </trkpt>
      <trkpt lat="44.40257" lon="0.99996">
        <ele>168</ele>
        <time>2025-07-17T07:12:55.072Z</time>
      </trkpt>
      <trkpt lat="44.40258" lon="0.99997">
        <ele>168</ele>
        <time>2025-07-17T07:12:56.071Z</time>
      </trkpt>
      <trkpt lat="44.40259" lon="0.99998">
        <ele>167</ele>
        <time>2025-07-17T07:12:57.072Z</time>
      </trkpt>
      <trkpt lat="44.40259" lon="1">
        <ele>167</ele>
        <time>2025-07-17T07:12:58.072Z</time>
      </trkpt>
      <trkpt lat="44.4026" lon="1.00001">
        <ele>168</ele>
        <time>2025-07-17T07:12:59.071Z</time>
      </trkpt>
      <trkpt lat="44.40261" lon="1.00002">
        <ele>168</ele>
        <time>2025-07-17T07:13:00.071Z</time>
      </trkpt>
      <trkpt lat="44.40262" lon="1.00003">
        <ele>168</ele>
        <time>2025-07-17T07:13:01.072Z</time>
      </trkpt>
      <trkpt lat="44.40263" lon="1.00004">
        <ele>167</ele>
        <time>2025-07-17T07:13:02.071Z</time>
      </trkpt>
      <trkpt lat="44.40264" lon="1.00005">
        <ele>167</ele>
        <time>2025-07-17T07:13:03.072Z</time>
      </trkpt>
      <trkpt lat="44.40265" lon="1.00006">
        <ele>167</ele>
        <time>2025-07-17T07:13:04.072Z</time>
      </trkpt>
      <trkpt lat="44.40266" lon="1.00007">
        <ele>166</ele>
        <time>2025-07-17T07:13:05.072Z</time>
      </trkpt>
      <trkpt lat="44.40266" lon="1.00008">
        <ele>166</ele>
        <time>2025-07-17T07:13:06.071Z</time>
      </trkpt>
      <trkpt lat="44.40267" lon="1.0001">
        <ele>166</ele>
        <time>2025-07-17T07:13:07.071Z</time>
      </trkpt>
      <trkpt lat="44.40268" lon="1.00011">
        <ele>166</ele>
        <time>2025-07-17T07:13:08.071Z</time>
      </trkpt>
      <trkpt lat="44.40269" lon="1.00012">
        <ele>166</ele>
        <time>2025-07-17T07:13:09.072Z</time>
      </trkpt>
      <trkpt lat="44.4027" lon="1.00013">
        <ele>167</ele>
        <time>2025-07-17T07:13:10.072Z</time>
      </trkpt>
      <trkpt lat="44.40271" lon="1.00014">
        <ele>167</ele>
        <time>2025-07-17T07:13:11.072Z</time>
      </trkpt>
      <trkpt lat="44.40272" lon="1.00015">
        <ele>166</ele>
        <time>2025-07-17T07:13:12.072Z</time>
      </trkpt>
      <trkpt lat="44.40273" lon="1.00015">
        <ele>166</ele>
        <time>2025-07-17T07:13:13.071Z</time>
      </trkpt>
      <trkpt lat="44.40274" lon="1.00016">
        <ele>166</ele>
        <time>2025-07-17T07:13:14.071Z</time>
      </trkpt>
      <trkpt lat="44.40275" lon="1.00017">
        <ele>166</ele>
        <time>2025-07-17T07:13:15.072Z</time>
      </trkpt>
      <trkpt lat="44.40276" lon="1.00018">
        <ele>165</ele>
        <time>2025-07-17T07:13:16.072Z</time>
      </trkpt>
      <trkpt lat="44.40277" lon="1.00019">
        <ele>165</ele>
        <time>2025-07-17T07:13:17.071Z</time>
      </trkpt>
      <trkpt lat="44.40278" lon="1.00019">
        <ele>165</ele>
        <time>2025-07-17T07:13:18.072Z</time>
      </trkpt>
      <trkpt lat="44.40279" lon="1.0002">
        <ele>165</ele>
        <time>2025-07-17T07:13:19.071Z</time>
      </trkpt>
      <trkpt lat="44.4028" lon="1.0002">
        <ele>165</ele>
        <time>2025-07-17T07:13:20.071Z</time>
      </trkpt>
      <trkpt lat="44.40281" lon="1.00021">
        <ele>165</ele>
        <time>2025-07-17T07:13:21.072Z</time>
      </trkpt>
      <trkpt lat="44.40281" lon="1.00022">
        <ele>164</ele>
        <time>2025-07-17T07:13:22.072Z</time>
      </trkpt>
      <trkpt lat="44.40282" lon="1.00023">
        <ele>164</ele>
        <time>2025-07-17T07:13:23.071Z</time>
      </trkpt>
      <trkpt lat="44.40283" lon="1.00024">
        <ele>164</ele>
        <time>2025-07-17T07:13:24.071Z</time>
      </trkpt>
      <trkpt lat="44.40284" lon="1.00024">
        <ele>164</ele>
        <time>2025-07-17T07:13:25.071Z</time>
      </trkpt>
      <trkpt lat="44.40285" lon="1.00025">
        <ele>164</ele>
        <time>2025-07-17T07:13:26.071Z</time>
      </trkpt>
      <trkpt lat="44.40286" lon="1.00025">
        <ele>164</ele>
        <time>2025-07-17T07:13:27.072Z</time>
      </trkpt>
      <trkpt lat="44.40287" lon="1.00026">
        <ele>164</ele>
        <time>2025-07-17T07:13:28.071Z</time>
      </trkpt>
      <trkpt lat="44.40288" lon="1.00027">
        <ele>164</ele>
        <time>2025-07-17T07:13:29.071Z</time>
      </trkpt>
      <trkpt lat="44.40289" lon="1.00028">
        <ele>164</ele>
        <time>2025-07-17T07:13:30.072Z</time>
      </trkpt>
      <trkpt lat="44.4029" lon="1.00029">
        <ele>164</ele>
        <time>2025-07-17T07:13:31.071Z</time>
      </trkpt>
      <trkpt lat="44.40291" lon="1.0003">
        <ele>164</ele>
        <time>2025-07-17T07:13:32.071Z</time>
      </trkpt>
      <trkpt lat="44.40292" lon="1.00031">
        <ele>164</ele>
        <time>2025-07-17T07:13:33.071Z</time>
      </trkpt>
      <trkpt lat="44.40293" lon="1.00032">
        <ele>164</ele>
        <time>2025-07-17T07:13:34.072Z</time>
      </trkpt>
      <trkpt lat="44.40294" lon="1.00033">
        <ele>164</ele>
        <time>2025-07-17T07:13:35.071Z</time>
      </trkpt>
      <trkpt lat="44.40295" lon="1.00033">
        <ele>164</ele>
        <time>2025-07-17T07:13:36.072Z</time>
      </trkpt>
      <trkpt lat="44.40296" lon="1.00034">
        <ele>164</ele>
        <time>2025-07-17T07:13:37.072Z</time>
      </trkpt>
      <trkpt lat="44.40297" lon="1.00035">
        <ele>164</ele>
        <time>2025-07-17T07:13:38.071Z</time>
      </trkpt>
      <trkpt lat="44.40298" lon="1.00036">
        <ele>164</ele>
        <time>2025-07-17T07:13:39.072Z</time>
      </trkpt>
      <trkpt lat="44.40299" lon="1.00037">
        <ele>164</ele>
        <time>2025-07-17T07:13:40.072Z</time>
      </trkpt>
      <trkpt lat="44.403" lon="1.00037">
        <ele>164</ele>
        <time>2025-07-17T07:13:41.071Z</time>
      </trkpt>
      <trkpt lat="44.40301" lon="1.00038">
        <ele>163</ele>
        <time>2025-07-17T07:13:42.072Z</time>
      </trkpt>
      <trkpt lat="44.40302" lon="1.00039">
        <ele>163</ele>
        <time>2025-07-17T07:13:43.072Z</time>
      </trkpt>
      <trkpt lat="44.40303" lon="1.00039">
        <ele>163</ele>
        <time>2025-07-17T07:13:44.072Z</time>
      </trkpt>
      <trkpt lat="44.40304" lon="1.0004">
        <ele>164</ele>
        <time>2025-07-17T07:13:45.072Z</time>
      </trkpt>
      <trkpt lat="44.40305" lon="1.00041">
        <ele>164</ele>
        <time>2025-07-17T07:13:46.072Z</time>
      </trkpt>
      <trkpt lat="44.40306" lon="1.00042">
        <ele>164</ele>
        <time>2025-07-17T07:13:47.071Z</time>
      </trkpt>
      <trkpt lat="44.40307" lon="1.00043">
        <ele>164</ele>
        <time>2025-07-17T07:13:48.071Z</time>
      </trkpt>
      <trkpt lat="44.40308" lon="1.00044">
        <ele>165</ele>
        <time>2025-07-17T07:13:49.072Z</time>
      </trkpt>
      <trkpt lat="44.40309" lon="1.00044">
        <ele>165</ele>
        <time>2025-07-17T07:13:50.072Z</time>
      </trkpt>
      <trkpt lat="44.4031" lon="1.00045">
        <ele>165</ele>
        <time>2025-07-17T07:13:51.072Z</time>
      </trkpt>
      <trkpt lat="44.40311" lon="1.00046">
        <ele>165</ele>
        <time>2025-07-17T07:13:52.072Z</time>
      </trkpt>
      <trkpt lat="44.40312" lon="1.00046">
        <ele>165</ele>
        <time>2025-07-17T07:13:53.072Z</time>
      </trkpt>
      <trkpt lat="44.40313" lon="1.00047">
        <ele>166</ele>
        <time>2025-07-17T07:13:54.072Z</time>
      </trkpt>
      <trkpt lat="44.40314" lon="1.00048">
        <ele>166</ele>
        <time>2025-07-17T07:13:55.071Z</time>
      </trkpt>
      <trkpt lat="44.40315" lon="1.00049">
        <ele>166</ele>
        <time>2025-07-17T07:13:56.071Z</time>
      </trkpt>
      <trkpt lat="44.40316" lon="1.0005">
        <ele>166</ele>
        <time>2025-07-17T07:13:57.072Z</time>
      </trkpt>
      <trkpt lat="44.40317" lon="1.0005">
        <ele>166</ele>
        <time>2025-07-17T07:13:58.071Z</time>
      </trkpt>
      <trkpt lat="44.40318" lon="1.0005">
        <ele>167</ele>
        <time>2025-07-17T07:13:59.071Z</time>
      </trkpt>
      <trkpt lat="44.40319" lon="1.00051">
        <ele>167</ele>
        <time>2025-07-17T07:14:00.072Z</time>
      </trkpt>
      <trkpt lat="44.4032" lon="1.00051">
        <ele>168</ele>
        <time>2025-07-17T07:14:01.072Z</time>
      </trkpt>
      <trkpt lat="44.40321" lon="1.00052">
        <ele>168</ele>
        <time>2025-07-17T07:14:02.072Z</time>
      </trkpt>
      <trkpt lat="44.40322" lon="1.00052">
        <ele>168</ele>
        <time>2025-07-17T07:14:03.072Z</time>
      </trkpt>
      <trkpt lat="44.40323" lon="1.00053">
        <ele>168</ele>
        <time>2025-07-17T07:14:04.072Z</time>
      </trkpt>
      <trkpt lat="44.40324" lon="1.00054">
        <ele>169</ele>
        <time>2025-07-17T07:14:05.071Z</time>
      </trkpt>
      <trkpt lat="44.40326" lon="1.00055">
        <ele>168</ele>
        <time>2025-07-17T07:14:06.071Z</time>
      </trkpt>
      <trkpt lat="44.40326" lon="1.00056">
        <ele>168</ele>
        <time>2025-07-17T07:14:07.072Z</time>
      </trkpt>
      <trkpt lat="44.40327" lon="1.00057">
        <ele>168</ele>
        <time>2025-07-17T07:14:08.071Z</time>
      </trkpt>
      <trkpt lat="44.40329" lon="1.00058">
        <ele>168</ele>
        <time>2025-07-17T07:14:09.072Z</time>
      </trkpt>
      <trkpt lat="44.40329" lon="1.00058">
        <ele>169</ele>
        <time>2025-07-17T07:14:10.071Z</time>
      </trkpt>
      <trkpt lat="44.4033" lon="1.00059">
        <ele>169</ele>
        <time>2025-07-17T07:14:11.072Z</time>
      </trkpt>
      <trkpt lat="44.40331" lon="1.00059">
        <ele>169</ele>
        <time>2025-07-17T07:14:12.072Z</time>
      </trkpt>
      <trkpt lat="44.40332" lon="1.00059">
        <ele>169</ele>
        <time>2025-07-17T07:14:13.071Z</time>
      </trkpt>
      <trkpt lat="44.40333" lon="1.0006">
        <ele>169</ele>
        <time>2025-07-17T07:14:14.071Z</time>
      </trkpt>
      <trkpt lat="44.40334" lon="1.00061">
        <ele>169</ele>
        <time>2025-07-17T07:14:15.072Z</time>
      </trkpt>
      <trkpt lat="44.40335" lon="1.00063">
        <ele>168</ele>
        <time>2025-07-17T07:14:16.072Z</time>
      </trkpt>
      <trkpt lat="44.40336" lon="1.00064">
        <ele>168</ele>
        <time>2025-07-17T07:14:17.071Z</time>
      </trkpt>
      <trkpt lat="44.40337" lon="1.00065">
        <ele>168</ele>
        <time>2025-07-17T07:14:18.071Z</time>
      </trkpt>
      <trkpt lat="44.40338" lon="1.00066">
        <ele>167</ele>
        <time>2025-07-17T07:14:19.072Z</time>
      </trkpt>
      <trkpt lat="44.40338" lon="1.00067">
        <ele>167</ele>
        <time>2025-07-17T07:14:20.071Z</time>
      </trkpt>
      <trkpt lat="44.4034" lon="1.00068">
        <ele>166</ele>
        <time>2025-07-17T07:14:21.071Z</time>
      </trkpt>
      <trkpt lat="44.4034" lon="1.00069">
        <ele>166</ele>
        <time>2025-07-17T07:14:22.071Z</time>
      </trkpt>
      <trkpt lat="44.40341" lon="1.00071">
        <ele>166</ele>
        <time>2025-07-17T07:14:23.071Z</time>
      </trkpt>
      <trkpt lat="44.40342" lon="1.00072">
        <ele>166</ele>
        <time>2025-07-17T07:14:24.071Z</time>
      </trkpt>
      <trkpt lat="44.40343" lon="1.00073">
        <ele>166</ele>
        <time>2025-07-17T07:14:25.072Z</time>
      </trkpt>
      <trkpt lat="44.40344" lon="1.00074">
        <ele>166</ele>
        <time>2025-07-17T07:14:26.071Z</time>
      </trkpt>
      <trkpt lat="44.40346" lon="1.00076">
        <ele>166</ele>
        <time>2025-07-17T07:14:27.072Z</time>
      </trkpt>
      <trkpt lat="44.40347" lon="1.00077">
        <ele>166</ele>
        <time>2025-07-17T07:14:28.072Z</time>
      </trkpt>
      <trkpt lat="44.40348" lon="1.00077">
        <ele>165</ele>
        <time>2025-07-17T07:14:29.071Z</time>
      </trkpt>
      <trkpt lat="44.40349" lon="1.00078">
        <ele>165</ele>
        <time>2025-07-17T07:14:30.071Z</time>
      </trkpt>
      <trkpt lat="44.4035" lon="1.00079">
        <ele>165</ele>
        <time>2025-07-17T07:14:31.072Z</time>
      </trkpt>
      <trkpt lat="44.40351" lon="1.00079">
        <ele>165</ele>
        <time>2025-07-17T07:14:32.071Z</time>
      </trkpt>
      <trkpt lat="44.40352" lon="1.0008">
        <ele>165</ele>
        <time>2025-07-17T07:14:33.072Z</time>
      </trkpt>
      <trkpt lat="44.40353" lon="1.00081">
        <ele>164</ele>
        <time>2025-07-17T07:14:34.072Z</time>
      </trkpt>
      <trkpt lat="44.40354" lon="1.00082">
        <ele>165</ele>
        <time>2025-07-17T07:14:35.071Z</time>
      </trkpt>
      <trkpt lat="44.40355" lon="1.00083">
        <ele>165</ele>
        <time>2025-07-17T07:14:36.071Z</time>
      </trkpt>
      <trkpt lat="44.40355" lon="1.00085">
        <ele>165</ele>
        <time>2025-07-17T07:14:37.071Z</time>
      </trkpt>
      <trkpt lat="44.40357" lon="1.00085">
        <ele>165</ele>
        <time>2025-07-17T07:14:38.072Z</time>
      </trkpt>
      <trkpt lat="44.40357" lon="1.00086">
        <ele>165</ele>
        <time>2025-07-17T07:14:39.072Z</time>
      </trkpt>
      <trkpt lat="44.40358" lon="1.00087">
        <ele>166</ele>
        <time>2025-07-17T07:14:40.071Z</time>
      </trkpt>
      <trkpt lat="44.40359" lon="1.00088">
        <ele>166</ele>
        <time>2025-07-17T07:14:41.071Z</time>
      </trkpt>
      <trkpt lat="44.4036" lon="1.00088">
        <ele>166</ele>
        <time>2025-07-17T07:14:42.072Z</time>
      </trkpt>
      <trkpt lat="44.40361" lon="1.00089">
        <ele>166</ele>
        <time>2025-07-17T07:14:43.072Z</time>
      </trkpt>
      <trkpt lat="44.40362" lon="1.00089">
        <ele>166</ele>
        <time>2025-07-17T07:14:44.071Z</time>
      </trkpt>
      <trkpt lat="44.40363" lon="1.0009">
        <ele>166</ele>
        <time>2025-07-17T07:14:45.072Z</time>
      </trkpt>
      <trkpt lat="44.40364" lon="1.00091">
        <ele>166</ele>
        <time>2025-07-17T07:14:46.071Z</time>
      </trkpt>
      <trkpt lat="44.40365" lon="1.00092">
        <ele>166</ele>
        <time>2025-07-17T07:14:47.072Z</time>
      </trkpt>
      <trkpt lat="44.40366" lon="1.00092">
        <ele>166</ele>
        <time>2025-07-17T07:14:48.071Z</time>
      </trkpt>
      <trkpt lat="44.40367" lon="1.00093">
        <ele>166</ele>
        <time>2025-07-17T07:14:49.072Z</time>
      </trkpt>
      <trkpt lat="44.40369" lon="1.00094">
        <ele>166</ele>
        <time>2025-07-17T07:14:50.071Z</time>
      </trkpt>
      <trkpt lat="44.4037" lon="1.00095">
        <ele>166</ele>
        <time>2025-07-17T07:14:51.071Z</time>
      </trkpt>
      <trkpt lat="44.40371" lon="1.00096">
        <ele>166</ele>
        <time>2025-07-17T07:14:52.072Z</time>
      </trkpt>
      <trkpt lat="44.40372" lon="1.00097">
        <ele>166</ele>
        <time>2025-07-17T07:14:53.071Z</time>
      </trkpt>
      <trkpt lat="44.40372" lon="1.00097">
        <ele>166</ele>
        <time>2025-07-17T07:14:54.072Z</time>
      </trkpt>
      <trkpt lat="44.40373" lon="1.00098">
        <ele>166</ele>
        <time>2025-07-17T07:14:55.072Z</time>
      </trkpt>
      <trkpt lat="44.40374" lon="1.00099">
        <ele>166</ele>
        <time>2025-07-17T07:14:56.072Z</time>
      </trkpt>
      <trkpt lat="44.40375" lon="1.001">
        <ele>166</ele>
        <time>2025-07-17T07:14:57.072Z</time>
      </trkpt>
      <trkpt lat="44.40377" lon="1.001">
        <ele>166</ele>
        <time>2025-07-17T07:14:58.071Z</time>
      </trkpt>
      <trkpt lat="44.40378" lon="1.00101">
        <ele>165</ele>
        <time>2025-07-17T07:14:59.071Z</time>
      </trkpt>
      <trkpt lat="44.40379" lon="1.00102">
        <ele>166</ele>
        <time>2025-07-17T07:15:00.072Z</time>
      </trkpt>
      <trkpt lat="44.4038" lon="1.00103">
        <ele>165</ele>
        <time>2025-07-17T07:15:01.072Z</time>
      </trkpt>
      <trkpt lat="44.40382" lon="1.00104">
        <ele>165</ele>
        <time>2025-07-17T07:15:02.071Z</time>
      </trkpt>
      <trkpt lat="44.40383" lon="1.00104">
        <ele>165</ele>
        <time>2025-07-17T07:15:03.072Z</time>
      </trkpt>
      <trkpt lat="44.40384" lon="1.00105">
        <ele>165</ele>
        <time>2025-07-17T07:15:04.072Z</time>
      </trkpt>
      <trkpt lat="44.40385" lon="1.00105">
        <ele>165</ele>
        <time>2025-07-17T07:15:05.072Z</time>
      </trkpt>
      <trkpt lat="44.40386" lon="1.00106">
        <ele>165</ele>
        <time>2025-07-17T07:15:06.072Z</time>
      </trkpt>
      <trkpt lat="44.40388" lon="1.00106">
        <ele>165</ele>
        <time>2025-07-17T07:15:07.072Z</time>
      </trkpt>
      <trkpt lat="44.40389" lon="1.00107">
        <ele>165</ele>
        <time>2025-07-17T07:15:08.071Z</time>
      </trkpt>
      <trkpt lat="44.4039" lon="1.00108">
        <ele>164</ele>
        <time>2025-07-17T07:15:09.071Z</time>
      </trkpt>
      <trkpt lat="44.40391" lon="1.00109">
        <ele>164</ele>
        <time>2025-07-17T07:15:10.071Z</time>
      </trkpt>
      <trkpt lat="44.40392" lon="1.00109">
        <ele>164</ele>
        <time>2025-07-17T07:15:11.071Z</time>
      </trkpt>
      <trkpt lat="44.40393" lon="1.0011">
        <ele>164</ele>
        <time>2025-07-17T07:15:12.071Z</time>
      </trkpt>
      <trkpt lat="44.40394" lon="1.00111">
        <ele>164</ele>
        <time>2025-07-17T07:15:13.071Z</time>
      </trkpt>
      <trkpt lat="44.40395" lon="1.00112">
        <ele>163</ele>
        <time>2025-07-17T07:15:14.071Z</time>
      </trkpt>
      <trkpt lat="44.40396" lon="1.00113">
        <ele>163</ele>
        <time>2025-07-17T07:15:15.071Z</time>
      </trkpt>
      <trkpt lat="44.40397" lon="1.00113">
        <ele>163</ele>
        <time>2025-07-17T07:15:16.071Z</time>
      </trkpt>
      <trkpt lat="44.40398" lon="1.00114">
        <ele>163</ele>
        <time>2025-07-17T07:15:17.071Z</time>
      </trkpt>
      <trkpt lat="44.40399" lon="1.00114">
        <ele>163</ele>
        <time>2025-07-17T07:15:18.071Z</time>
      </trkpt>
      <trkpt lat="44.404" lon="1.00115">
        <ele>163</ele>
        <time>2025-07-17T07:15:19.072Z</time>
      </trkpt>
      <trkpt lat="44.40401" lon="1.00116">
        <ele>163</ele>
        <time>2025-07-17T07:15:20.071Z</time>
      </trkpt>
      <trkpt lat="44.40402" lon="1.00117">
        <ele>163</ele>
        <time>2025-07-17T07:15:21.072Z</time>
      </trkpt>
      <trkpt lat="44.40404" lon="1.00117">
        <ele>163</ele>
        <time>2025-07-17T07:15:22.072Z</time>
      </trkpt>
      <trkpt lat="44.40405" lon="1.00118">
        <ele>163</ele>
        <time>2025-07-17T07:15:23.071Z</time>
      </trkpt>
      <trkpt lat="44.40406" lon="1.00119">
        <ele>163</ele>
        <time>2025-07-17T07:15:24.072Z</time>
      </trkpt>
      <trkpt lat="44.40408" lon="1.0012">
        <ele>163</ele>
        <time>2025-07-17T07:15:25.072Z</time>
      </trkpt>
      <trkpt lat="44.40409" lon="1.0012">
        <ele>163</ele>
        <time>2025-07-17T07:15:26.071Z</time>
      </trkpt>
      <trkpt lat="44.4041" lon="1.00121">
        <ele>163</ele>
        <time>2025-07-17T07:15:27.072Z</time>
      </trkpt>
      <trkpt lat="44.40411" lon="1.00122">
        <ele>162</ele>
        <time>2025-07-17T07:15:28.072Z</time>
      </trkpt>
      <trkpt lat="44.40412" lon="1.00123">
        <ele>162</ele>
        <time>2025-07-17T07:15:29.071Z</time>
      </trkpt>
      <trkpt lat="44.40413" lon="1.00124">
        <ele>162</ele>
        <time>2025-07-17T07:15:30.072Z</time>
      </trkpt>
      <trkpt lat="44.40414" lon="1.00125">
        <ele>162</ele>
        <time>2025-07-17T07:15:31.071Z</time>
      </trkpt>
      <trkpt lat="44.40415" lon="1.00125">
        <ele>162</ele>
        <time>2025-07-17T07:15:32.071Z</time>
      </trkpt>
      <trkpt lat="44.40416" lon="1.00126">
        <ele>162</ele>
        <time>2025-07-17T07:15:33.071Z</time>
      </trkpt>
      <trkpt lat="44.40417" lon="1.00126">
        <ele>163</ele>
        <time>2025-07-17T07:15:34.071Z</time>
      </trkpt>
      <trkpt lat="44.40418" lon="1.00127">
        <ele>163</ele>
        <time>2025-07-17T07:15:35.071Z</time>
      </trkpt>
      <trkpt lat="44.40419" lon="1.00128">
        <ele>162</ele>
        <time>2025-07-17T07:15:36.071Z</time>
      </trkpt>
      <trkpt lat="44.4042" lon="1.00129">
        <ele>162</ele>
        <time>2025-07-17T07:15:37.072Z</time>
      </trkpt>
      <trkpt lat="44.40422" lon="1.00129">
        <ele>162</ele>
        <time>2025-07-17T07:15:38.071Z</time>
      </trkpt>
      <trkpt lat="44.40423" lon="1.0013">
        <ele>162</ele>
        <time>2025-07-17T07:15:39.072Z</time>
      </trkpt>
      <trkpt lat="44.40424" lon="1.0013">
        <ele>161</ele>
        <time>2025-07-17T07:15:40.071Z</time>
      </trkpt>
      <trkpt lat="44.40425" lon="1.00131">
        <ele>161</ele>
        <time>2025-07-17T07:15:41.072Z</time>
      </trkpt>
      <trkpt lat="44.40426" lon="1.00132">
        <ele>161</ele>
        <time>2025-07-17T07:15:42.071Z</time>
      </trkpt>
      <trkpt lat="44.40427" lon="1.00132">
        <ele>161</ele>
        <time>2025-07-17T07:15:43.071Z</time>
      </trkpt>
      <trkpt lat="44.40429" lon="1.00133">
        <ele>160</ele>
        <time>2025-07-17T07:15:44.071Z</time>
      </trkpt>
      <trkpt lat="44.4043" lon="1.00134">
        <ele>160</ele>
        <time>2025-07-17T07:15:45.071Z</time>
      </trkpt>
      <trkpt lat="44.40431" lon="1.00135">
        <ele>160</ele>
        <time>2025-07-17T07:15:46.072Z</time>
      </trkpt>
      <trkpt lat="44.40432" lon="1.00135">
        <ele>160</ele>
        <time>2025-07-17T07:15:47.072Z</time>
      </trkpt>
      <trkpt lat="44.40433" lon="1.00136">
        <ele>160</ele>
        <time>2025-07-17T07:15:48.072Z</time>
      </trkpt>
      <trkpt lat="44.40434" lon="1.00136">
        <ele>160</ele>
        <time>2025-07-17T07:15:49.071Z</time>
      </trkpt>
      <trkpt lat="44.40435" lon="1.00136">
        <ele>160</ele>
        <time>2025-07-17T07:15:50.072Z</time>
      </trkpt>
      <trkpt lat="44.40436" lon="1.00137">
        <ele>160</ele>
        <time>2025-07-17T07:15:51.072Z</time>
      </trkpt>
      <trkpt lat="44.40437" lon="1.00137">
        <ele>160</ele>
        <time>2025-07-17T07:15:52.071Z</time>
      </trkpt>
      <trkpt lat="44.40438" lon="1.00137">
        <ele>160</ele>
        <time>2025-07-17T07:15:53.071Z</time>
      </trkpt>
      <trkpt lat="44.40439" lon="1.00138">
        <ele>160</ele>
        <time>2025-07-17T07:15:54.072Z</time>
      </trkpt>
      <trkpt lat="44.4044" lon="1.00138">
        <ele>160</ele>
        <time>2025-07-17T07:15:55.071Z</time>
      </trkpt>
      <trkpt lat="44.40442" lon="1.00138">
        <ele>159</ele>
        <time>2025-07-17T07:15:56.071Z</time>
      </trkpt>
      <trkpt lat="44.40443" lon="1.00139">
        <ele>159</ele>
        <time>2025-07-17T07:15:57.072Z</time>
      </trkpt>
      <trkpt lat="44.40444" lon="1.00139">
        <ele>158</ele>
        <time>2025-07-17T07:15:58.071Z</time>
      </trkpt>
      <trkpt lat="44.40445" lon="1.0014">
        <ele>158</ele>
        <time>2025-07-17T07:15:59.071Z</time>
      </trkpt>
      <trkpt lat="44.40446" lon="1.0014">
        <ele>157</ele>
        <time>2025-07-17T07:16:00.071Z</time>
      </trkpt>
      <trkpt lat="44.40447" lon="1.00141">
        <ele>157</ele>
        <time>2025-07-17T07:16:01.072Z</time>
      </trkpt>
      <trkpt lat="44.40449" lon="1.00141">
        <ele>156</ele>
        <time>2025-07-17T07:16:02.071Z</time>
      </trkpt>
      <trkpt lat="44.4045" lon="1.00142">
        <ele>156</ele>
        <time>2025-07-17T07:16:03.072Z</time>
      </trkpt>
      <trkpt lat="44.40451" lon="1.00142">
        <ele>156</ele>
        <time>2025-07-17T07:16:04.071Z</time>
      </trkpt>
      <trkpt lat="44.40452" lon="1.00142">
        <ele>155</ele>
        <time>2025-07-17T07:16:05.072Z</time>
      </trkpt>
      <trkpt lat="44.40453" lon="1.00143">
        <ele>155</ele>
        <time>2025-07-17T07:16:06.072Z</time>
      </trkpt>
      <trkpt lat="44.40454" lon="1.00144">
        <ele>156</ele>
        <time>2025-07-17T07:16:07.072Z</time>
      </trkpt>
      <trkpt lat="44.40456" lon="1.00144">
        <ele>156</ele>
        <time>2025-07-17T07:16:08.072Z</time>
      </trkpt>
      <trkpt lat="44.40457" lon="1.00145">
        <ele>156</ele>
        <time>2025-07-17T07:16:09.072Z</time>
      </trkpt>
      <trkpt lat="44.40458" lon="1.00145">
        <ele>156</ele>
        <time>2025-07-17T07:16:10.072Z</time>
      </trkpt>
      <trkpt lat="44.4046" lon="1.00146">
        <ele>156</ele>
        <time>2025-07-17T07:16:11.071Z</time>
      </trkpt>
      <trkpt lat="44.40461" lon="1.00146">
        <ele>156</ele>
        <time>2025-07-17T07:16:12.071Z</time>
      </trkpt>
      <trkpt lat="44.40462" lon="1.00146">
        <ele>156</ele>
        <time>2025-07-17T07:16:13.071Z</time>
      </trkpt>
      <trkpt lat="44.40463" lon="1.00147">
        <ele>156</ele>
        <time>2025-07-17T07:16:14.071Z</time>
      </trkpt>
      <trkpt lat="44.40464" lon="1.00147">
        <ele>156</ele>
        <time>2025-07-17T07:16:15.071Z</time>
      </trkpt>
      <trkpt lat="44.40465" lon="1.00148">
        <ele>156</ele>
        <time>2025-07-17T07:16:16.071Z</time>
      </trkpt>
      <trkpt lat="44.40466" lon="1.00149">
        <ele>156</ele>
        <time>2025-07-17T07:16:17.071Z</time>
      </trkpt>
      <trkpt lat="44.40467" lon="1.00149">
        <ele>156</ele>
        <time>2025-07-17T07:16:18.072Z</time>
      </trkpt>
      <trkpt lat="44.40468" lon="1.0015">
        <ele>156</ele>
        <time>2025-07-17T07:16:19.072Z</time>
      </trkpt>
      <trkpt lat="44.40469" lon="1.0015">
        <ele>155</ele>
        <time>2025-07-17T07:16:20.071Z</time>
      </trkpt>
      <trkpt lat="44.4047" lon="1.00151">
        <ele>155</ele>
        <time>2025-07-17T07:16:21.071Z</time>
      </trkpt>
      <trkpt lat="44.40471" lon="1.00152">
        <ele>155</ele>
        <time>2025-07-17T07:16:22.071Z</time>
      </trkpt>
      <trkpt lat="44.40473" lon="1.00152">
        <ele>155</ele>
        <time>2025-07-17T07:16:23.071Z</time>
      </trkpt>
      <trkpt lat="44.40474" lon="1.00153">
        <ele>155</ele>
        <time>2025-07-17T07:16:24.071Z</time>
      </trkpt>
      <trkpt lat="44.40476" lon="1.00153">
        <ele>155</ele>
        <time>2025-07-17T07:16:25.072Z</time>
      </trkpt>
      <trkpt lat="44.40477" lon="1.00154">
        <ele>155</ele>
        <time>2025-07-17T07:16:26.071Z</time>
      </trkpt>
      <trkpt lat="44.40478" lon="1.00154">
        <ele>155</ele>
        <time>2025-07-17T07:16:27.072Z</time>
      </trkpt>
      <trkpt lat="44.40479" lon="1.00155">
        <ele>155</ele>
        <time>2025-07-17T07:16:28.071Z</time>
      </trkpt>
      <trkpt lat="44.4048" lon="1.00156">
        <ele>155</ele>
        <time>2025-07-17T07:16:29.071Z</time>
      </trkpt>
      <trkpt lat="44.40481" lon="1.00156">
        <ele>155</ele>
        <time>2025-07-17T07:16:30.071Z</time>
      </trkpt>
      <trkpt lat="44.40482" lon="1.00157">
        <ele>154</ele>
        <time>2025-07-17T07:16:31.071Z</time>
      </trkpt>
      <trkpt lat="44.40484" lon="1.00158">
        <ele>154</ele>
        <time>2025-07-17T07:16:32.071Z</time>
      </trkpt>
      <trkpt lat="44.40485" lon="1.00159">
        <ele>154</ele>
        <time>2025-07-17T07:16:33.071Z</time>
      </trkpt>
      <trkpt lat="44.40487" lon="1.00159">
        <ele>154</ele>
        <time>2025-07-17T07:16:34.071Z</time>
      </trkpt>
      <trkpt lat="44.40488" lon="1.0016">
        <ele>154</ele>
        <time>2025-07-17T07:16:35.071Z</time>
      </trkpt>
      <trkpt lat="44.40489" lon="1.0016">
        <ele>153</ele>
        <time>2025-07-17T07:16:36.071Z</time>
      </trkpt>
      <trkpt lat="44.4049" lon="1.00161">
        <ele>153</ele>
        <time>2025-07-17T07:16:37.071Z</time>
      </trkpt>
      <trkpt lat="44.40491" lon="1.00162">
        <ele>153</ele>
        <time>2025-07-17T07:16:38.071Z</time>
      </trkpt>
      <trkpt lat="44.40492" lon="1.00163">
        <ele>153</ele>
        <time>2025-07-17T07:16:39.071Z</time>
      </trkpt>
      <trkpt lat="44.40494" lon="1.00163">
        <ele>153</ele>
        <time>2025-07-17T07:16:40.071Z</time>
      </trkpt>
      <trkpt lat="44.40495" lon="1.00164">
        <ele>153</ele>
        <time>2025-07-17T07:16:41.071Z</time>
      </trkpt>
      <trkpt lat="44.40496" lon="1.00164">
        <ele>152</ele>
        <time>2025-07-17T07:16:42.071Z</time>
      </trkpt>
      <trkpt lat="44.40497" lon="1.00165">
        <ele>152</ele>
        <time>2025-07-17T07:16:43.071Z</time>
      </trkpt>
      <trkpt lat="44.40499" lon="1.00166">
        <ele>152</ele>
        <time>2025-07-17T07:16:44.071Z</time>
      </trkpt>
      <trkpt lat="44.405" lon="1.00167">
        <ele>152</ele>
        <time>2025-07-17T07:16:45.071Z</time>
      </trkpt>
      <trkpt lat="44.40501" lon="1.00168">
        <ele>152</ele>
        <time>2025-07-17T07:16:46.072Z</time>
      </trkpt>
      <trkpt lat="44.40502" lon="1.00169">
        <ele>152</ele>
        <time>2025-07-17T07:16:47.071Z</time>
      </trkpt>
      <trkpt lat="44.40504" lon="1.0017">
        <ele>152</ele>
        <time>2025-07-17T07:16:48.071Z</time>
      </trkpt>
      <trkpt lat="44.40505" lon="1.00171">
        <ele>152</ele>
        <time>2025-07-17T07:16:49.071Z</time>
      </trkpt>
      <trkpt lat="44.40506" lon="1.00172">
        <ele>151</ele>
        <time>2025-07-17T07:16:50.071Z</time>
      </trkpt>
      <trkpt lat="44.40507" lon="1.00172">
        <ele>151</ele>
        <time>2025-07-17T07:16:51.072Z</time>
      </trkpt>
      <trkpt lat="44.40508" lon="1.00173">
        <ele>152</ele>
        <time>2025-07-17T07:16:52.072Z</time>
      </trkpt>
      <trkpt lat="44.40509" lon="1.00174">
        <ele>152</ele>
        <time>2025-07-17T07:16:53.071Z</time>
      </trkpt>
      <trkpt lat="44.40509" lon="1.00174">
        <ele>152</ele>
        <time>2025-07-17T07:16:54.072Z</time>
      </trkpt>
      <trkpt lat="44.40509" lon="1.00175">
        <ele>152</ele>
        <time>2025-07-17T07:16:55.072Z</time>
      </trkpt>
      <trkpt lat="44.4051" lon="1.00175">
        <ele>152</ele>
        <time>2025-07-17T07:16:56.071Z</time>
      </trkpt>
      <trkpt lat="44.40511" lon="1.00176">
        <ele>152</ele>
        <time>2025-07-17T07:16:57.072Z</time>
      </trkpt>
      <trkpt lat="44.40512" lon="1.00176">
        <ele>152</ele>
        <time>2025-07-17T07:16:58.072Z</time>
      </trkpt>
      <trkpt lat="44.40513" lon="1.00177">
        <ele>152</ele>
        <time>2025-07-17T07:16:59.071Z</time>
      </trkpt>
      <trkpt lat="44.40514" lon="1.00178">
        <ele>152</ele>
        <time>2025-07-17T07:17:00.072Z</time>
      </trkpt>
      <trkpt lat="44.40515" lon="1.00178">
        <ele>152</ele>
        <time>2025-07-17T07:17:01.071Z</time>
      </trkpt>
      <trkpt lat="44.40516" lon="1.00179">
        <ele>153</ele>
        <time>2025-07-17T07:17:02.071Z</time>
      </trkpt>
      <trkpt lat="44.40517" lon="1.0018">
        <ele>153</ele>
        <time>2025-07-17T07:17:03.071Z</time>
      </trkpt>
      <trkpt lat="44.40519" lon="1.00181">
        <ele>152</ele>
        <time>2025-07-17T07:17:04.071Z</time>
      </trkpt>
      <trkpt lat="44.4052" lon="1.00182">
        <ele>152</ele>
        <time>2025-07-17T07:17:05.071Z</time>
      </trkpt>
      <trkpt lat="44.40522" lon="1.00183">
        <ele>153</ele>
        <time>2025-07-17T07:17:06.072Z</time>
      </trkpt>
      <trkpt lat="44.40523" lon="1.00184">
        <ele>153</ele>
        <time>2025-07-17T07:17:07.072Z</time>
      </trkpt>
      <trkpt lat="44.40524" lon="1.00185">
        <ele>153</ele>
        <time>2025-07-17T07:17:08.071Z</time>
      </trkpt>
      <trkpt lat="44.40526" lon="1.00185">
        <ele>153</ele>
        <time>2025-07-17T07:17:09.071Z</time>
      </trkpt>
      <trkpt lat="44.40527" lon="1.00186">
        <ele>153</ele>
        <time>2025-07-17T07:17:10.072Z</time>
      </trkpt>
      <trkpt lat="44.40528" lon="1.00187">
        <ele>153</ele>
        <time>2025-07-17T07:17:11.071Z</time>
      </trkpt>
      <trkpt lat="44.40529" lon="1.00188">
        <ele>153</ele>
        <time>2025-07-17T07:17:12.071Z</time>
      </trkpt>
      <trkpt lat="44.40531" lon="1.00189">
        <ele>153</ele>
        <time>2025-07-17T07:17:13.071Z</time>
      </trkpt>
      <trkpt lat="44.40532" lon="1.0019">
        <ele>153</ele>
        <time>2025-07-17T07:17:14.071Z</time>
      </trkpt>
      <trkpt lat="44.40533" lon="1.0019">
        <ele>153</ele>
        <time>2025-07-17T07:17:15.072Z</time>
      </trkpt>
      <trkpt lat="44.40534" lon="1.00191">
        <ele>153</ele>
        <time>2025-07-17T07:17:16.072Z</time>
      </trkpt>
      <trkpt lat="44.40535" lon="1.00192">
        <ele>153</ele>
        <time>2025-07-17T07:17:17.071Z</time>
      </trkpt>
      <trkpt lat="44.40536" lon="1.00193">
        <ele>152</ele>
        <time>2025-07-17T07:17:18.071Z</time>
      </trkpt>
      <trkpt lat="44.40537" lon="1.00194">
        <ele>152</ele>
        <time>2025-07-17T07:17:19.072Z</time>
      </trkpt>
      <trkpt lat="44.40539" lon="1.00193">
        <ele>153</ele>
        <time>2025-07-17T07:17:20.071Z</time>
      </trkpt>
      <trkpt lat="44.40541" lon="1.00193">
        <ele>153</ele>
        <time>2025-07-17T07:17:21.072Z</time>
      </trkpt>
      <trkpt lat="44.40542" lon="1.00193">
        <ele>152</ele>
        <time>2025-07-17T07:17:22.071Z</time>
      </trkpt>
      <trkpt lat="44.40543" lon="1.00194">
        <ele>152</ele>
        <time>2025-07-17T07:17:23.072Z</time>
      </trkpt>
      <trkpt lat="44.40543" lon="1.00195">
        <ele>152</ele>
        <time>2025-07-17T07:17:24.071Z</time>
      </trkpt>
      <trkpt lat="44.40543" lon="1.00196">
        <ele>152</ele>
        <time>2025-07-17T07:17:25.071Z</time>
      </trkpt>
      <trkpt lat="44.40544" lon="1.00197">
        <ele>151</ele>
        <time>2025-07-17T07:17:26.071Z</time>
      </trkpt>
      <trkpt lat="44.40545" lon="1.00198">
        <ele>151</ele>
        <time>2025-07-17T07:17:27.071Z</time>
      </trkpt>
      <trkpt lat="44.40545" lon="1.00199">
        <ele>152</ele>
        <time>2025-07-17T07:17:28.071Z</time>
      </trkpt>
      <trkpt lat="44.40546" lon="1.00201">
        <ele>152</ele>
        <time>2025-07-17T07:17:29.072Z</time>
      </trkpt>
      <trkpt lat="44.40546" lon="1.00202">
        <ele>152</ele>
        <time>2025-07-17T07:17:30.071Z</time>
      </trkpt>
      <trkpt lat="44.40546" lon="1.00203">
        <ele>152</ele>
        <time>2025-07-17T07:17:31.072Z</time>
      </trkpt>
      <trkpt lat="44.40547" lon="1.00204">
        <ele>151</ele>
        <time>2025-07-17T07:17:32.071Z</time>
      </trkpt>
      <trkpt lat="44.40548" lon="1.00205">
        <ele>151</ele>
        <time>2025-07-17T07:17:33.072Z</time>
      </trkpt>
      <trkpt lat="44.40548" lon="1.00207">
        <ele>151</ele>
        <time>2025-07-17T07:17:34.071Z</time>
      </trkpt>
      <trkpt lat="44.40549" lon="1.00208">
        <ele>151</ele>
        <time>2025-07-17T07:17:35.072Z</time>
      </trkpt>
      <trkpt lat="44.4055" lon="1.00209">
        <ele>151</ele>
        <time>2025-07-17T07:17:36.072Z</time>
      </trkpt>
      <trkpt lat="44.40551" lon="1.00211">
        <ele>151</ele>
        <time>2025-07-17T07:17:37.072Z</time>
      </trkpt>
      <trkpt lat="44.40552" lon="1.00213">
        <ele>151</ele>
        <time>2025-07-17T07:17:38.071Z</time>
      </trkpt>
      <trkpt lat="44.40553" lon="1.00214">
        <ele>151</ele>
        <time>2025-07-17T07:17:39.072Z</time>
      </trkpt>
      <trkpt lat="44.40553" lon="1.00216">
        <ele>151</ele>
        <time>2025-07-17T07:17:40.072Z</time>
      </trkpt>
      <trkpt lat="44.40554" lon="1.00217">
        <ele>151</ele>
        <time>2025-07-17T07:17:41.071Z</time>
      </trkpt>
      <trkpt lat="44.40555" lon="1.00218">
        <ele>152</ele>
        <time>2025-07-17T07:17:42.072Z</time>
      </trkpt>
      <trkpt lat="44.40556" lon="1.00219">
        <ele>152</ele>
        <time>2025-07-17T07:17:43.072Z</time>
      </trkpt>
      <trkpt lat="44.40556" lon="1.0022">
        <ele>152</ele>
        <time>2025-07-17T07:17:44.071Z</time>
      </trkpt>
      <trkpt lat="44.40557" lon="1.00221">
        <ele>152</ele>
        <time>2025-07-17T07:17:45.071Z</time>
      </trkpt>
      <trkpt lat="44.40557" lon="1.00223">
        <ele>152</ele>
        <time>2025-07-17T07:17:46.072Z</time>
      </trkpt>
      <trkpt lat="44.40558" lon="1.00225">
        <ele>153</ele>
        <time>2025-07-17T07:17:47.071Z</time>
      </trkpt>
      <trkpt lat="44.40559" lon="1.00226">
        <ele>153</ele>
        <time>2025-07-17T07:17:48.071Z</time>
      </trkpt>
      <trkpt lat="44.4056" lon="1.00227">
        <ele>153</ele>
        <time>2025-07-17T07:17:49.071Z</time>
      </trkpt>
      <trkpt lat="44.4056" lon="1.00228">
        <ele>154</ele>
        <time>2025-07-17T07:17:50.071Z</time>
      </trkpt>
      <trkpt lat="44.40561" lon="1.00229">
        <ele>154</ele>
        <time>2025-07-17T07:17:51.072Z</time>
      </trkpt>
      <trkpt lat="44.40562" lon="1.0023">
        <ele>154</ele>
        <time>2025-07-17T07:17:52.072Z</time>
      </trkpt>
      <trkpt lat="44.40563" lon="1.00231">
        <ele>154</ele>
        <time>2025-07-17T07:17:53.071Z</time>
      </trkpt>
      <trkpt lat="44.40564" lon="1.00233">
        <ele>155</ele>
        <time>2025-07-17T07:17:54.071Z</time>
      </trkpt>
      <trkpt lat="44.40565" lon="1.00234">
        <ele>155</ele>
        <time>2025-07-17T07:17:55.072Z</time>
      </trkpt>
      <trkpt lat="44.40565" lon="1.00236">
        <ele>155</ele>
        <time>2025-07-17T07:17:56.072Z</time>
      </trkpt>
      <trkpt lat="44.40566" lon="1.00237">
        <ele>155</ele>
        <time>2025-07-17T07:17:57.071Z</time>
      </trkpt>
      <trkpt lat="44.40566" lon="1.00238">
        <ele>156</ele>
        <time>2025-07-17T07:17:58.072Z</time>
      </trkpt>
      <trkpt lat="44.40567" lon="1.00239">
        <ele>156</ele>
        <time>2025-07-17T07:17:59.072Z</time>
      </trkpt>
      <trkpt lat="44.40568" lon="1.0024">
        <ele>156</ele>
        <time>2025-07-17T07:18:00.071Z</time>
      </trkpt>
      <trkpt lat="44.40569" lon="1.00241">
        <ele>156</ele>
        <time>2025-07-17T07:18:01.072Z</time>
      </trkpt>
      <trkpt lat="44.40569" lon="1.00242">
        <ele>156</ele>
        <time>2025-07-17T07:18:02.071Z</time>
      </trkpt>
      <trkpt lat="44.4057" lon="1.00244">
        <ele>156</ele>
        <time>2025-07-17T07:18:03.072Z</time>
      </trkpt>
      <trkpt lat="44.40571" lon="1.00245">
        <ele>156</ele>
        <time>2025-07-17T07:18:04.071Z</time>
      </trkpt>
      <trkpt lat="44.40572" lon="1.00247">
        <ele>156</ele>
        <time>2025-07-17T07:18:05.071Z</time>
      </trkpt>
      <trkpt lat="44.40573" lon="1.00248">
        <ele>156</ele>
        <time>2025-07-17T07:18:06.071Z</time>
      </trkpt>
      <trkpt lat="44.40574" lon="1.00249">
        <ele>156</ele>
        <time>2025-07-17T07:18:07.072Z</time>
      </trkpt>
      <trkpt lat="44.40575" lon="1.0025">
        <ele>156</ele>
        <time>2025-07-17T07:18:08.072Z</time>
      </trkpt>
      <trkpt lat="44.40575" lon="1.00251">
        <ele>156</ele>
        <time>2025-07-17T07:18:09.072Z</time>
      </trkpt>
      <trkpt lat="44.40576" lon="1.00253">
        <ele>156</ele>
        <time>2025-07-17T07:18:10.072Z</time>
      </trkpt>
      <trkpt lat="44.40577" lon="1.00254">
        <ele>156</ele>
        <time>2025-07-17T07:18:11.071Z</time>
      </trkpt>
      <trkpt lat="44.40577" lon="1.00255">
        <ele>156</ele>
        <time>2025-07-17T07:18:12.072Z</time>
      </trkpt>
      <trkpt lat="44.40578" lon="1.00257">
        <ele>156</ele>
        <time>2025-07-17T07:18:13.071Z</time>
      </trkpt>
      <trkpt lat="44.40579" lon="1.00258">
        <ele>156</ele>
        <time>2025-07-17T07:18:14.071Z</time>
      </trkpt>
      <trkpt lat="44.40581" lon="1.00258">
        <ele>156</ele>
        <time>2025-07-17T07:18:15.071Z</time>
      </trkpt>
      <trkpt lat="44.40581" lon="1.0026">
        <ele>156</ele>
        <time>2025-07-17T07:18:16.071Z</time>
      </trkpt>
      <trkpt lat="44.40582" lon="1.00261">
        <ele>155</ele>
        <time>2025-07-17T07:18:17.071Z</time>
      </trkpt>
      <trkpt lat="44.40583" lon="1.00262">
        <ele>155</ele>
        <time>2025-07-17T07:18:18.071Z</time>
      </trkpt>
      <trkpt lat="44.40584" lon="1.00262">
        <ele>154</ele>
        <time>2025-07-17T07:18:19.071Z</time>
      </trkpt>
      <trkpt lat="44.40585" lon="1.00263">
        <ele>154</ele>
        <time>2025-07-17T07:18:20.071Z</time>
      </trkpt>
      <trkpt lat="44.40586" lon="1.00265">
        <ele>154</ele>
        <time>2025-07-17T07:18:21.072Z</time>
      </trkpt>
      <trkpt lat="44.40587" lon="1.00266">
        <ele>153</ele>
        <time>2025-07-17T07:18:22.072Z</time>
      </trkpt>
      <trkpt lat="44.40588" lon="1.00267">
        <ele>153</ele>
        <time>2025-07-17T07:18:23.072Z</time>
      </trkpt>
      <trkpt lat="44.40589" lon="1.00268">
        <ele>153</ele>
        <time>2025-07-17T07:18:24.072Z</time>
      </trkpt>
      <trkpt lat="44.4059" lon="1.00269">
        <ele>153</ele>
        <time>2025-07-17T07:18:25.071Z</time>
      </trkpt>
      <trkpt lat="44.40591" lon="1.0027">
        <ele>153</ele>
        <time>2025-07-17T07:18:26.071Z</time>
      </trkpt>
      <trkpt lat="44.40592" lon="1.00271">
        <ele>153</ele>
        <time>2025-07-17T07:18:27.072Z</time>
      </trkpt>
      <trkpt lat="44.40593" lon="1.00272">
        <ele>154</ele>
        <time>2025-07-17T07:18:28.072Z</time>
      </trkpt>
      <trkpt lat="44.40593" lon="1.00274">
        <ele>154</ele>
        <time>2025-07-17T07:18:29.072Z</time>
      </trkpt>
      <trkpt lat="44.40594" lon="1.00275">
        <ele>155</ele>
        <time>2025-07-17T07:18:30.072Z</time>
      </trkpt>
      <trkpt lat="44.40595" lon="1.00276">
        <ele>155</ele>
        <time>2025-07-17T07:18:31.072Z</time>
      </trkpt>
      <trkpt lat="44.40595" lon="1.00277">
        <ele>156</ele>
        <time>2025-07-17T07:18:32.071Z</time>
      </trkpt>
      <trkpt lat="44.40596" lon="1.00279">
        <ele>156</ele>
        <time>2025-07-17T07:18:33.072Z</time>
      </trkpt>
      <trkpt lat="44.40596" lon="1.00281">
        <ele>156</ele>
        <time>2025-07-17T07:18:34.072Z</time>
      </trkpt>
      <trkpt lat="44.40597" lon="1.00282">
        <ele>157</ele>
        <time>2025-07-17T07:18:35.072Z</time>
      </trkpt>
      <trkpt lat="44.40598" lon="1.00283">
        <ele>157</ele>
        <time>2025-07-17T07:18:36.072Z</time>
      </trkpt>
      <trkpt lat="44.40599" lon="1.00284">
        <ele>157</ele>
        <time>2025-07-17T07:18:37.071Z</time>
      </trkpt>
      <trkpt lat="44.40599" lon="1.00285">
        <ele>157</ele>
        <time>2025-07-17T07:18:38.071Z</time>
      </trkpt>
      <trkpt lat="44.406" lon="1.00286">
        <ele>156</ele>
        <time>2025-07-17T07:18:39.072Z</time>
      </trkpt>
      <trkpt lat="44.40601" lon="1.00287">
        <ele>156</ele>
        <time>2025-07-17T07:18:40.072Z</time>
      </trkpt>
      <trkpt lat="44.40601" lon="1.00288">
        <ele>156</ele>
        <time>2025-07-17T07:18:41.072Z</time>
      </trkpt>
      <trkpt lat="44.40602" lon="1.0029">
        <ele>156</ele>
        <time>2025-07-17T07:18:42.071Z</time>
      </trkpt>
      <trkpt lat="44.40603" lon="1.00291">
        <ele>157</ele>
        <time>2025-07-17T07:18:43.071Z</time>
      </trkpt>
      <trkpt lat="44.40604" lon="1.00293">
        <ele>157</ele>
        <time>2025-07-17T07:18:44.072Z</time>
      </trkpt>
      <trkpt lat="44.40604" lon="1.00294">
        <ele>157</ele>
        <time>2025-07-17T07:18:45.072Z</time>
      </trkpt>
      <trkpt lat="44.40605" lon="1.00296">
        <ele>157</ele>
        <time>2025-07-17T07:18:46.072Z</time>
      </trkpt>
      <trkpt lat="44.40606" lon="1.00297">
        <ele>158</ele>
        <time>2025-07-17T07:18:47.071Z</time>
      </trkpt>
      <trkpt lat="44.40606" lon="1.00299">
        <ele>158</ele>
        <time>2025-07-17T07:18:48.071Z</time>
      </trkpt>
      <trkpt lat="44.40607" lon="1.003">
        <ele>158</ele>
        <time>2025-07-17T07:18:49.072Z</time>
      </trkpt>
      <trkpt lat="44.40607" lon="1.00301">
        <ele>159</ele>
        <time>2025-07-17T07:18:50.071Z</time>
      </trkpt>
      <trkpt lat="44.40608" lon="1.00303">
        <ele>159</ele>
        <time>2025-07-17T07:18:51.072Z</time>
      </trkpt>
      <trkpt lat="44.40609" lon="1.00304">
        <ele>159</ele>
        <time>2025-07-17T07:18:52.072Z</time>
      </trkpt>
      <trkpt lat="44.40609" lon="1.00306">
        <ele>159</ele>
        <time>2025-07-17T07:18:53.072Z</time>
      </trkpt>
      <trkpt lat="44.4061" lon="1.00307">
        <ele>159</ele>
        <time>2025-07-17T07:18:54.072Z</time>
      </trkpt>
      <trkpt lat="44.4061" lon="1.00309">
        <ele>159</ele>
        <time>2025-07-17T07:18:55.072Z</time>
      </trkpt>
      <trkpt lat="44.40611" lon="1.0031">
        <ele>158</ele>
        <time>2025-07-17T07:18:56.072Z</time>
      </trkpt>
      <trkpt lat="44.40612" lon="1.00312">
        <ele>158</ele>
        <time>2025-07-17T07:18:57.072Z</time>
      </trkpt>
      <trkpt lat="44.40612" lon="1.00313">
        <ele>158</ele>
        <time>2025-07-17T07:18:58.072Z</time>
      </trkpt>
      <trkpt lat="44.40613" lon="1.00314">
        <ele>157</ele>
        <time>2025-07-17T07:18:59.072Z</time>
      </trkpt>
      <trkpt lat="44.40614" lon="1.00315">
        <ele>157</ele>
        <time>2025-07-17T07:19:00.072Z</time>
      </trkpt>
      <trkpt lat="44.40615" lon="1.00316">
        <ele>157</ele>
        <time>2025-07-17T07:19:01.072Z</time>
      </trkpt>
      <trkpt lat="44.40616" lon="1.00318">
        <ele>157</ele>
        <time>2025-07-17T07:19:02.072Z</time>
      </trkpt>
      <trkpt lat="44.40617" lon="1.00319">
        <ele>157</ele>
        <time>2025-07-17T07:19:03.072Z</time>
      </trkpt>
      <trkpt lat="44.40618" lon="1.00321">
        <ele>157</ele>
        <time>2025-07-17T07:19:04.071Z</time>
      </trkpt>
      <trkpt lat="44.40619" lon="1.00322">
        <ele>157</ele>
        <time>2025-07-17T07:19:05.071Z</time>
      </trkpt>
      <trkpt lat="44.4062" lon="1.00324">
        <ele>158</ele>
        <time>2025-07-17T07:19:06.071Z</time>
      </trkpt>
      <trkpt lat="44.40621" lon="1.00325">
        <ele>158</ele>
        <time>2025-07-17T07:19:07.071Z</time>
      </trkpt>
      <trkpt lat="44.40621" lon="1.00327">
        <ele>158</ele>
        <time>2025-07-17T07:19:08.071Z</time>
      </trkpt>
      <trkpt lat="44.40622" lon="1.00328">
        <ele>158</ele>
        <time>2025-07-17T07:19:09.072Z</time>
      </trkpt>
      <trkpt lat="44.40623" lon="1.0033">
        <ele>158</ele>
        <time>2025-07-17T07:19:10.072Z</time>
      </trkpt>
      <trkpt lat="44.40624" lon="1.00331">
        <ele>158</ele>
        <time>2025-07-17T07:19:11.072Z</time>
      </trkpt>
      <trkpt lat="44.40625" lon="1.00332">
        <ele>158</ele>
        <time>2025-07-17T07:19:12.072Z</time>
      </trkpt>
      <trkpt lat="44.40626" lon="1.00333">
        <ele>157</ele>
        <time>2025-07-17T07:19:13.072Z</time>
      </trkpt>
      <trkpt lat="44.40626" lon="1.00335">
        <ele>157</ele>
        <time>2025-07-17T07:19:14.071Z</time>
      </trkpt>
      <trkpt lat="44.40627" lon="1.00336">
        <ele>157</ele>
        <time>2025-07-17T07:19:15.072Z</time>
      </trkpt>
      <trkpt lat="44.40627" lon="1.00338">
        <ele>157</ele>
        <time>2025-07-17T07:19:16.072Z</time>
      </trkpt>
      <trkpt lat="44.40628" lon="1.00339">
        <ele>156</ele>
        <time>2025-07-17T07:19:17.072Z</time>
      </trkpt>
      <trkpt lat="44.40629" lon="1.00341">
        <ele>156</ele>
        <time>2025-07-17T07:19:18.072Z</time>
      </trkpt>
      <trkpt lat="44.40629" lon="1.00342">
        <ele>156</ele>
        <time>2025-07-17T07:19:19.072Z</time>
      </trkpt>
      <trkpt lat="44.40629" lon="1.00344">
        <ele>156</ele>
        <time>2025-07-17T07:19:20.071Z</time>
      </trkpt>
      <trkpt lat="44.40629" lon="1.00346">
        <ele>156</ele>
        <time>2025-07-17T07:19:21.072Z</time>
      </trkpt>
      <trkpt lat="44.40629" lon="1.00347">
        <ele>155</ele>
        <time>2025-07-17T07:19:22.072Z</time>
      </trkpt>
      <trkpt lat="44.4063" lon="1.00349">
        <ele>155</ele>
        <time>2025-07-17T07:19:23.072Z</time>
      </trkpt>
      <trkpt lat="44.4063" lon="1.0035">
        <ele>155</ele>
        <time>2025-07-17T07:19:24.071Z</time>
      </trkpt>
      <trkpt lat="44.40631" lon="1.00352">
        <ele>155</ele>
        <time>2025-07-17T07:19:25.072Z</time>
      </trkpt>
      <trkpt lat="44.40632" lon="1.00353">
        <ele>155</ele>
        <time>2025-07-17T07:19:26.071Z</time>
      </trkpt>
      <trkpt lat="44.40633" lon="1.00355">
        <ele>155</ele>
        <time>2025-07-17T07:19:27.072Z</time>
      </trkpt>
      <trkpt lat="44.40633" lon="1.00357">
        <ele>155</ele>
        <time>2025-07-17T07:19:28.072Z</time>
      </trkpt>
      <trkpt lat="44.40633" lon="1.00358">
        <ele>155</ele>
        <time>2025-07-17T07:19:29.071Z</time>
      </trkpt>
      <trkpt lat="44.40634" lon="1.0036">
        <ele>154</ele>
        <time>2025-07-17T07:19:30.072Z</time>
      </trkpt>
      <trkpt lat="44.40634" lon="1.00362">
        <ele>154</ele>
        <time>2025-07-17T07:19:31.071Z</time>
      </trkpt>
      <trkpt lat="44.40635" lon="1.00363">
        <ele>154</ele>
        <time>2025-07-17T07:19:32.072Z</time>
      </trkpt>
      <trkpt lat="44.40635" lon="1.00364">
        <ele>154</ele>
        <time>2025-07-17T07:19:33.072Z</time>
      </trkpt>
      <trkpt lat="44.40635" lon="1.00365">
        <ele>155</ele>
        <time>2025-07-17T07:19:34.072Z</time>
      </trkpt>
      <trkpt lat="44.40636" lon="1.00367">
        <ele>155</ele>
        <time>2025-07-17T07:19:35.071Z</time>
      </trkpt>
      <trkpt lat="44.40636" lon="1.00368">
        <ele>154</ele>
        <time>2025-07-17T07:19:36.072Z</time>
      </trkpt>
      <trkpt lat="44.40637" lon="1.0037">
        <ele>154</ele>
        <time>2025-07-17T07:19:37.071Z</time>
      </trkpt>
      <trkpt lat="44.40637" lon="1.00372">
        <ele>154</ele>
        <time>2025-07-17T07:19:38.071Z</time>
      </trkpt>
      <trkpt lat="44.40637" lon="1.00373">
        <ele>154</ele>
        <time>2025-07-17T07:19:39.071Z</time>
      </trkpt>
      <trkpt lat="44.40637" lon="1.00375">
        <ele>154</ele>
        <time>2025-07-17T07:19:40.071Z</time>
      </trkpt>
      <trkpt lat="44.40638" lon="1.00376">
        <ele>154</ele>
        <time>2025-07-17T07:19:41.071Z</time>
      </trkpt>
      <trkpt lat="44.40638" lon="1.00377">
        <ele>154</ele>
        <time>2025-07-17T07:19:42.071Z</time>
      </trkpt>
      <trkpt lat="44.40638" lon="1.00379">
        <ele>153</ele>
        <time>2025-07-17T07:19:43.071Z</time>
      </trkpt>
      <trkpt lat="44.40638" lon="1.0038">
        <ele>154</ele>
        <time>2025-07-17T07:19:44.071Z</time>
      </trkpt>
      <trkpt lat="44.40638" lon="1.00381">
        <ele>154</ele>
        <time>2025-07-17T07:19:45.072Z</time>
      </trkpt>
      <trkpt lat="44.40638" lon="1.00382">
        <ele>154</ele>
        <time>2025-07-17T07:19:46.072Z</time>
      </trkpt>
      <trkpt lat="44.40638" lon="1.00384">
        <ele>154</ele>
        <time>2025-07-17T07:19:47.071Z</time>
      </trkpt>
      <trkpt lat="44.40639" lon="1.00385">
        <ele>155</ele>
        <time>2025-07-17T07:19:48.071Z</time>
      </trkpt>
      <trkpt lat="44.40639" lon="1.00386">
        <ele>155</ele>
        <time>2025-07-17T07:19:49.072Z</time>
      </trkpt>
      <trkpt lat="44.4064" lon="1.00388">
        <ele>155</ele>
        <time>2025-07-17T07:19:50.071Z</time>
      </trkpt>
      <trkpt lat="44.40641" lon="1.00389">
        <ele>155</ele>
        <time>2025-07-17T07:19:51.072Z</time>
      </trkpt>
      <trkpt lat="44.40642" lon="1.00391">
        <ele>154</ele>
        <time>2025-07-17T07:19:52.072Z</time>
      </trkpt>
      <trkpt lat="44.40643" lon="1.00392">
        <ele>154</ele>
        <time>2025-07-17T07:19:53.071Z</time>
      </trkpt>
      <trkpt lat="44.40644" lon="1.00394">
        <ele>154</ele>
        <time>2025-07-17T07:19:54.071Z</time>
      </trkpt>
      <trkpt lat="44.40645" lon="1.00395">
        <ele>154</ele>
        <time>2025-07-17T07:19:55.071Z</time>
      </trkpt>
      <trkpt lat="44.40645" lon="1.00397">
        <ele>154</ele>
        <time>2025-07-17T07:19:56.071Z</time>
      </trkpt>
      <trkpt lat="44.40646" lon="1.00399">
        <ele>154</ele>
        <time>2025-07-17T07:19:57.072Z</time>
      </trkpt>
      <trkpt lat="44.40647" lon="1.00401">
        <ele>154</ele>
        <time>2025-07-17T07:19:58.071Z</time>
      </trkpt>
      <trkpt lat="44.40649" lon="1.00403">
        <ele>154</ele>
        <time>2025-07-17T07:19:59.071Z</time>
      </trkpt>
      <trkpt lat="44.4065" lon="1.00404">
        <ele>154</ele>
        <time>2025-07-17T07:20:00.071Z</time>
      </trkpt>
      <trkpt lat="44.40651" lon="1.00405">
        <ele>154</ele>
        <time>2025-07-17T07:20:01.072Z</time>
      </trkpt>
      <trkpt lat="44.40652" lon="1.00407">
        <ele>154</ele>
        <time>2025-07-17T07:20:02.072Z</time>
      </trkpt>
      <trkpt lat="44.40653" lon="1.00408">
        <ele>154</ele>
        <time>2025-07-17T07:20:03.072Z</time>
      </trkpt>
      <trkpt lat="44.40654" lon="1.00409">
        <ele>154</ele>
        <time>2025-07-17T07:20:04.072Z</time>
      </trkpt>
      <trkpt lat="44.40654" lon="1.00411">
        <ele>153</ele>
        <time>2025-07-17T07:20:05.071Z</time>
      </trkpt>
      <trkpt lat="44.40655" lon="1.00412">
        <ele>153</ele>
        <time>2025-07-17T07:20:06.071Z</time>
      </trkpt>
      <trkpt lat="44.40656" lon="1.00414">
        <ele>153</ele>
        <time>2025-07-17T07:20:07.072Z</time>
      </trkpt>
      <trkpt lat="44.40657" lon="1.00415">
        <ele>153</ele>
        <time>2025-07-17T07:20:08.071Z</time>
      </trkpt>
      <trkpt lat="44.40658" lon="1.00417">
        <ele>153</ele>
        <time>2025-07-17T07:20:09.071Z</time>
      </trkpt>
      <trkpt lat="44.40658" lon="1.00418">
        <ele>153</ele>
        <time>2025-07-17T07:20:10.071Z</time>
      </trkpt>
      <trkpt lat="44.40659" lon="1.00419">
        <ele>153</ele>
        <time>2025-07-17T07:20:11.071Z</time>
      </trkpt>
      <trkpt lat="44.4066" lon="1.0042">
        <ele>153</ele>
        <time>2025-07-17T07:20:12.071Z</time>
      </trkpt>
      <trkpt lat="44.40661" lon="1.00422">
        <ele>152</ele>
        <time>2025-07-17T07:20:13.072Z</time>
      </trkpt>
      <trkpt lat="44.40662" lon="1.00424">
        <ele>152</ele>
        <time>2025-07-17T07:20:14.071Z</time>
      </trkpt>
      <trkpt lat="44.40662" lon="1.00426">
        <ele>152</ele>
        <time>2025-07-17T07:20:15.072Z</time>
      </trkpt>
      <trkpt lat="44.40663" lon="1.00427">
        <ele>152</ele>
        <time>2025-07-17T07:20:16.072Z</time>
      </trkpt>
      <trkpt lat="44.40664" lon="1.00429">
        <ele>152</ele>
        <time>2025-07-17T07:20:17.072Z</time>
      </trkpt>
      <trkpt lat="44.40664" lon="1.0043">
        <ele>152</ele>
        <time>2025-07-17T07:20:18.072Z</time>
      </trkpt>
      <trkpt lat="44.40665" lon="1.00432">
        <ele>152</ele>
        <time>2025-07-17T07:20:19.072Z</time>
      </trkpt>
      <trkpt lat="44.40666" lon="1.00433">
        <ele>153</ele>
        <time>2025-07-17T07:20:20.071Z</time>
      </trkpt>
      <trkpt lat="44.40667" lon="1.00434">
        <ele>153</ele>
        <time>2025-07-17T07:20:21.071Z</time>
      </trkpt>
      <trkpt lat="44.40667" lon="1.00435">
        <ele>153</ele>
        <time>2025-07-17T07:20:22.071Z</time>
      </trkpt>
      <trkpt lat="44.40668" lon="1.00437">
        <ele>153</ele>
        <time>2025-07-17T07:20:23.071Z</time>
      </trkpt>
      <trkpt lat="44.40668" lon="1.00438">
        <ele>154</ele>
        <time>2025-07-17T07:20:24.072Z</time>
      </trkpt>
      <trkpt lat="44.40669" lon="1.0044">
        <ele>154</ele>
        <time>2025-07-17T07:20:25.072Z</time>
      </trkpt>
      <trkpt lat="44.40669" lon="1.00442">
        <ele>154</ele>
        <time>2025-07-17T07:20:26.072Z</time>
      </trkpt>
      <trkpt lat="44.4067" lon="1.00443">
        <ele>154</ele>
        <time>2025-07-17T07:20:27.072Z</time>
      </trkpt>
      <trkpt lat="44.4067" lon="1.00445">
        <ele>154</ele>
        <time>2025-07-17T07:20:28.072Z</time>
      </trkpt>
      <trkpt lat="44.40671" lon="1.00446">
        <ele>154</ele>
        <time>2025-07-17T07:20:29.072Z</time>
      </trkpt>
      <trkpt lat="44.40672" lon="1.00447">
        <ele>154</ele>
        <time>2025-07-17T07:20:30.071Z</time>
      </trkpt>
      <trkpt lat="44.40672" lon="1.00449">
        <ele>154</ele>
        <time>2025-07-17T07:20:31.072Z</time>
      </trkpt>
      <trkpt lat="44.40672" lon="1.00451">
        <ele>154</ele>
        <time>2025-07-17T07:20:32.072Z</time>
      </trkpt>
      <trkpt lat="44.40672" lon="1.00452">
        <ele>155</ele>
        <time>2025-07-17T07:20:33.071Z</time>
      </trkpt>
      <trkpt lat="44.40673" lon="1.00453">
        <ele>155</ele>
        <time>2025-07-17T07:20:34.071Z</time>
      </trkpt>
      <trkpt lat="44.40673" lon="1.00455">
        <ele>155</ele>
        <time>2025-07-17T07:20:35.071Z</time>
      </trkpt>
      <trkpt lat="44.40674" lon="1.00457">
        <ele>155</ele>
        <time>2025-07-17T07:20:36.071Z</time>
      </trkpt>
      <trkpt lat="44.40674" lon="1.00459">
        <ele>155</ele>
        <time>2025-07-17T07:20:37.071Z</time>
      </trkpt>
      <trkpt lat="44.40674" lon="1.0046">
        <ele>156</ele>
        <time>2025-07-17T07:20:38.071Z</time>
      </trkpt>
      <trkpt lat="44.40675" lon="1.00462">
        <ele>156</ele>
        <time>2025-07-17T07:20:39.072Z</time>
      </trkpt>
      <trkpt lat="44.40675" lon="1.00463">
        <ele>156</ele>
        <time>2025-07-17T07:20:40.072Z</time>
      </trkpt>
      <trkpt lat="44.40674" lon="1.00464">
        <ele>156</ele>
        <time>2025-07-17T07:20:41.072Z</time>
      </trkpt>
      <trkpt lat="44.40673" lon="1.00466">
        <ele>156</ele>
        <time>2025-07-17T07:20:42.071Z</time>
      </trkpt>
      <trkpt lat="44.40672" lon="1.00468">
        <ele>155</ele>
        <time>2025-07-17T07:20:43.072Z</time>
      </trkpt>
      <trkpt lat="44.40672" lon="1.00469">
        <ele>155</ele>
        <time>2025-07-17T07:20:44.072Z</time>
      </trkpt>
      <trkpt lat="44.40671" lon="1.00471">
        <ele>155</ele>
        <time>2025-07-17T07:20:45.072Z</time>
      </trkpt>
      <trkpt lat="44.40671" lon="1.00472">
        <ele>155</ele>
        <time>2025-07-17T07:20:46.072Z</time>
      </trkpt>
      <trkpt lat="44.40671" lon="1.00474">
        <ele>155</ele>
        <time>2025-07-17T07:20:47.072Z</time>
      </trkpt>
      <trkpt lat="44.40671" lon="1.00476">
        <ele>155</ele>
        <time>2025-07-17T07:20:48.072Z</time>
      </trkpt>
      <trkpt lat="44.40671" lon="1.00478">
        <ele>155</ele>
        <time>2025-07-17T07:20:49.071Z</time>
      </trkpt>
      <trkpt lat="44.40671" lon="1.0048">
        <ele>155</ele>
        <time>2025-07-17T07:20:50.071Z</time>
      </trkpt>
      <trkpt lat="44.40672" lon="1.00481">
        <ele>155</ele>
        <time>2025-07-17T07:20:51.072Z</time>
      </trkpt>
      <trkpt lat="44.40672" lon="1.00483">
        <ele>155</ele>
        <time>2025-07-17T07:20:52.071Z</time>
      </trkpt>
      <trkpt lat="44.40672" lon="1.00485">
        <ele>155</ele>
        <time>2025-07-17T07:20:53.072Z</time>
      </trkpt>
      <trkpt lat="44.40673" lon="1.00487">
        <ele>155</ele>
        <time>2025-07-17T07:20:54.071Z</time>
      </trkpt>
      <trkpt lat="44.40673" lon="1.00489">
        <ele>155</ele>
        <time>2025-07-17T07:20:55.072Z</time>
      </trkpt>
      <trkpt lat="44.40673" lon="1.00491">
        <ele>155</ele>
        <time>2025-07-17T07:20:56.071Z</time>
      </trkpt>
      <trkpt lat="44.40672" lon="1.00492">
        <ele>155</ele>
        <time>2025-07-17T07:20:57.072Z</time>
      </trkpt>
      <trkpt lat="44.40673" lon="1.00494">
        <ele>156</ele>
        <time>2025-07-17T07:20:58.072Z</time>
      </trkpt>
      <trkpt lat="44.40673" lon="1.00496">
        <ele>156</ele>
        <time>2025-07-17T07:20:59.071Z</time>
      </trkpt>
      <trkpt lat="44.40672" lon="1.00498">
        <ele>156</ele>
        <time>2025-07-17T07:21:00.072Z</time>
      </trkpt>
      <trkpt lat="44.40673" lon="1.00499">
        <ele>157</ele>
        <time>2025-07-17T07:21:01.072Z</time>
      </trkpt>
      <trkpt lat="44.40672" lon="1.00501">
        <ele>157</ele>
        <time>2025-07-17T07:21:02.071Z</time>
      </trkpt>
      <trkpt lat="44.40672" lon="1.00503">
        <ele>157</ele>
        <time>2025-07-17T07:21:03.071Z</time>
      </trkpt>
      <trkpt lat="44.40672" lon="1.00505">
        <ele>158</ele>
        <time>2025-07-17T07:21:04.072Z</time>
      </trkpt>
      <trkpt lat="44.40673" lon="1.00506">
        <ele>158</ele>
        <time>2025-07-17T07:21:05.071Z</time>
      </trkpt>
      <trkpt lat="44.40673" lon="1.00508">
        <ele>158</ele>
        <time>2025-07-17T07:21:06.071Z</time>
      </trkpt>
      <trkpt lat="44.40673" lon="1.00509">
        <ele>158</ele>
        <time>2025-07-17T07:21:07.071Z</time>
      </trkpt>
      <trkpt lat="44.40673" lon="1.00511">
        <ele>158</ele>
        <time>2025-07-17T07:21:08.071Z</time>
      </trkpt>
      <trkpt lat="44.40673" lon="1.00512">
        <ele>158</ele>
        <time>2025-07-17T07:21:09.072Z</time>
      </trkpt>
      <trkpt lat="44.40673" lon="1.00513">
        <ele>158</ele>
        <time>2025-07-17T07:21:10.071Z</time>
      </trkpt>
      <trkpt lat="44.40673" lon="1.00515">
        <ele>158</ele>
        <time>2025-07-17T07:21:11.071Z</time>
      </trkpt>
      <trkpt lat="44.40673" lon="1.00517">
        <ele>158</ele>
        <time>2025-07-17T07:21:12.071Z</time>
      </trkpt>
      <trkpt lat="44.40673" lon="1.00518">
        <ele>158</ele>
        <time>2025-07-17T07:21:13.072Z</time>
      </trkpt>
      <trkpt lat="44.40673" lon="1.0052">
        <ele>158</ele>
        <time>2025-07-17T07:21:14.071Z</time>
      </trkpt>
      <trkpt lat="44.40673" lon="1.00522">
        <ele>159</ele>
        <time>2025-07-17T07:21:15.071Z</time>
      </trkpt>
      <trkpt lat="44.40673" lon="1.00523">
        <ele>158</ele>
        <time>2025-07-17T07:21:16.071Z</time>
      </trkpt>
      <trkpt lat="44.40673" lon="1.00525">
        <ele>158</ele>
        <time>2025-07-17T07:21:17.071Z</time>
      </trkpt>
      <trkpt lat="44.40673" lon="1.00527">
        <ele>158</ele>
        <time>2025-07-17T07:21:18.071Z</time>
      </trkpt>
      <trkpt lat="44.40673" lon="1.00528">
        <ele>158</ele>
        <time>2025-07-17T07:21:19.072Z</time>
      </trkpt>
      <trkpt lat="44.40674" lon="1.0053">
        <ele>158</ele>
        <time>2025-07-17T07:21:20.072Z</time>
      </trkpt>
      <trkpt lat="44.40674" lon="1.00532">
        <ele>158</ele>
        <time>2025-07-17T07:21:21.072Z</time>
      </trkpt>
      <trkpt lat="44.40674" lon="1.00533">
        <ele>158</ele>
        <time>2025-07-17T07:21:22.072Z</time>
      </trkpt>
      <trkpt lat="44.40674" lon="1.00534">
        <ele>157</ele>
        <time>2025-07-17T07:21:23.072Z</time>
      </trkpt>
      <trkpt lat="44.40674" lon="1.00535">
        <ele>156</ele>
        <time>2025-07-17T07:21:24.071Z</time>
      </trkpt>
      <trkpt lat="44.40674" lon="1.00537">
        <ele>156</ele>
        <time>2025-07-17T07:21:25.072Z</time>
      </trkpt>
      <trkpt lat="44.40674" lon="1.00538">
        <ele>156</ele>
        <time>2025-07-17T07:21:26.071Z</time>
      </trkpt>
      <trkpt lat="44.40675" lon="1.00539">
        <ele>156</ele>
        <time>2025-07-17T07:21:27.072Z</time>
      </trkpt>
      <trkpt lat="44.40675" lon="1.0054">
        <ele>156</ele>
        <time>2025-07-17T07:21:28.072Z</time>
      </trkpt>
      <trkpt lat="44.40675" lon="1.00541">
        <ele>156</ele>
        <time>2025-07-17T07:21:29.072Z</time>
      </trkpt>
      <trkpt lat="44.40675" lon="1.00541">
        <ele>156</ele>
        <time>2025-07-17T07:21:30.072Z</time>
      </trkpt>
      <trkpt lat="44.40675" lon="1.00541">
        <ele>156</ele>
        <time>2025-07-17T07:21:31.071Z</time>
      </trkpt>
      <trkpt lat="44.40674" lon="1.00541">
        <ele>156</ele>
        <time>2025-07-17T07:21:32.071Z</time>
      </trkpt>
      <trkpt lat="44.40674" lon="1.00541">
        <ele>156</ele>
        <time>2025-07-17T07:21:33.071Z</time>
      </trkpt>
      <trkpt lat="44.40674" lon="1.00542">
        <ele>156</ele>
        <time>2025-07-17T07:21:34.071Z</time>
      </trkpt>
      <trkpt lat="44.40674" lon="1.00542">
        <ele>156</ele>
        <time>2025-07-17T07:21:35.071Z</time>
      </trkpt>
      <trkpt lat="44.40674" lon="1.00543">
        <ele>156</ele>
        <time>2025-07-17T07:21:36.071Z</time>
      </trkpt>
      <trkpt lat="44.40674" lon="1.00545">
        <ele>156</ele>
        <time>2025-07-17T07:21:37.071Z</time>
      </trkpt>
      <trkpt lat="44.40674" lon="1.00546">
        <ele>157</ele>
        <time>2025-07-17T07:21:38.071Z</time>
      </trkpt>
      <trkpt lat="44.40674" lon="1.00548">
        <ele>157</ele>
        <time>2025-07-17T07:21:39.072Z</time>
      </trkpt>
      <trkpt lat="44.40675" lon="1.0055">
        <ele>157</ele>
        <time>2025-07-17T07:21:40.072Z</time>
      </trkpt>
      <trkpt lat="44.40675" lon="1.00552">
        <ele>157</ele>
        <time>2025-07-17T07:21:41.071Z</time>
      </trkpt>
      <trkpt lat="44.40675" lon="1.00553">
        <ele>157</ele>
        <time>2025-07-17T07:21:42.072Z</time>
      </trkpt>
      <trkpt lat="44.40675" lon="1.00555">
        <ele>157</ele>
        <time>2025-07-17T07:21:43.072Z</time>
      </trkpt>
      <trkpt lat="44.40675" lon="1.00557">
        <ele>157</ele>
        <time>2025-07-17T07:21:44.072Z</time>
      </trkpt>
      <trkpt lat="44.40676" lon="1.00559">
        <ele>157</ele>
        <time>2025-07-17T07:21:45.072Z</time>
      </trkpt>
      <trkpt lat="44.40676" lon="1.00561">
        <ele>156</ele>
        <time>2025-07-17T07:21:46.071Z</time>
      </trkpt>
      <trkpt lat="44.40676" lon="1.00563">
        <ele>156</ele>
        <time>2025-07-17T07:21:47.071Z</time>
      </trkpt>
      <trkpt lat="44.40676" lon="1.00565">
        <ele>155</ele>
        <time>2025-07-17T07:21:48.071Z</time>
      </trkpt>
      <trkpt lat="44.40676" lon="1.00567">
        <ele>155</ele>
        <time>2025-07-17T07:21:49.072Z</time>
      </trkpt>
      <trkpt lat="44.40676" lon="1.00569">
        <ele>155</ele>
        <time>2025-07-17T07:21:50.071Z</time>
      </trkpt>
      <trkpt lat="44.40676" lon="1.00571">
        <ele>155</ele>
        <time>2025-07-17T07:21:51.072Z</time>
      </trkpt>
      <trkpt lat="44.40676" lon="1.00573">
        <ele>155</ele>
        <time>2025-07-17T07:21:52.071Z</time>
      </trkpt>
      <trkpt lat="44.40676" lon="1.00575">
        <ele>155</ele>
        <time>2025-07-17T07:21:53.071Z</time>
      </trkpt>
      <trkpt lat="44.40676" lon="1.00576">
        <ele>154</ele>
        <time>2025-07-17T07:21:54.072Z</time>
      </trkpt>
      <trkpt lat="44.40676" lon="1.00578">
        <ele>154</ele>
        <time>2025-07-17T07:21:55.072Z</time>
      </trkpt>
      <trkpt lat="44.40676" lon="1.0058">
        <ele>154</ele>
        <time>2025-07-17T07:21:56.071Z</time>
      </trkpt>
      <trkpt lat="44.40676" lon="1.00583">
        <ele>154</ele>
        <time>2025-07-17T07:21:57.072Z</time>
      </trkpt>
      <trkpt lat="44.40676" lon="1.00585">
        <ele>154</ele>
        <time>2025-07-17T07:21:58.072Z</time>
      </trkpt>
      <trkpt lat="44.40676" lon="1.00587">
        <ele>154</ele>
        <time>2025-07-17T07:21:59.071Z</time>
      </trkpt>
      <trkpt lat="44.40676" lon="1.00589">
        <ele>154</ele>
        <time>2025-07-17T07:22:00.072Z</time>
      </trkpt>
      <trkpt lat="44.40676" lon="1.00591">
        <ele>154</ele>
        <time>2025-07-17T07:22:01.071Z</time>
      </trkpt>
      <trkpt lat="44.40676" lon="1.00593">
        <ele>154</ele>
        <time>2025-07-17T07:22:02.072Z</time>
      </trkpt>
      <trkpt lat="44.40676" lon="1.00595">
        <ele>153</ele>
        <time>2025-07-17T07:22:03.072Z</time>
      </trkpt>
      <trkpt lat="44.40676" lon="1.00598">
        <ele>153</ele>
        <time>2025-07-17T07:22:04.071Z</time>
      </trkpt>
      <trkpt lat="44.40676" lon="1.00599">
        <ele>153</ele>
        <time>2025-07-17T07:22:05.071Z</time>
      </trkpt>
      <trkpt lat="44.40676" lon="1.00601">
        <ele>153</ele>
        <time>2025-07-17T07:22:06.071Z</time>
      </trkpt>
      <trkpt lat="44.40676" lon="1.00603">
        <ele>152</ele>
        <time>2025-07-17T07:22:07.071Z</time>
      </trkpt>
      <trkpt lat="44.40675" lon="1.00605">
        <ele>152</ele>
        <time>2025-07-17T07:22:08.071Z</time>
      </trkpt>
      <trkpt lat="44.40675" lon="1.00606">
        <ele>151</ele>
        <time>2025-07-17T07:22:09.071Z</time>
      </trkpt>
      <trkpt lat="44.40676" lon="1.00608">
        <ele>151</ele>
        <time>2025-07-17T07:22:10.071Z</time>
      </trkpt>
      <trkpt lat="44.40676" lon="1.0061">
        <ele>151</ele>
        <time>2025-07-17T07:22:11.071Z</time>
      </trkpt>
      <trkpt lat="44.40675" lon="1.00612">
        <ele>150</ele>
        <time>2025-07-17T07:22:12.071Z</time>
      </trkpt>
      <trkpt lat="44.40675" lon="1.00614">
        <ele>150</ele>
        <time>2025-07-17T07:22:13.071Z</time>
      </trkpt>
      <trkpt lat="44.40675" lon="1.00616">
        <ele>150</ele>
        <time>2025-07-17T07:22:14.071Z</time>
      </trkpt>
      <trkpt lat="44.40675" lon="1.00618">
        <ele>150</ele>
        <time>2025-07-17T07:22:15.071Z</time>
      </trkpt>
      <trkpt lat="44.40675" lon="1.0062">
        <ele>149</ele>
        <time>2025-07-17T07:22:16.072Z</time>
      </trkpt>
      <trkpt lat="44.40675" lon="1.00622">
        <ele>149</ele>
        <time>2025-07-17T07:22:17.071Z</time>
      </trkpt>
      <trkpt lat="44.40675" lon="1.00624">
        <ele>149</ele>
        <time>2025-07-17T07:22:18.072Z</time>
      </trkpt>
      <trkpt lat="44.40675" lon="1.00626">
        <ele>149</ele>
        <time>2025-07-17T07:22:19.072Z</time>
      </trkpt>
      <trkpt lat="44.40675" lon="1.00628">
        <ele>149</ele>
        <time>2025-07-17T07:22:20.071Z</time>
      </trkpt>
      <trkpt lat="44.40675" lon="1.0063">
        <ele>149</ele>
        <time>2025-07-17T07:22:21.071Z</time>
      </trkpt>
      <trkpt lat="44.40676" lon="1.00632">
        <ele>149</ele>
        <time>2025-07-17T07:22:22.072Z</time>
      </trkpt>
      <trkpt lat="44.40676" lon="1.00634">
        <ele>149</ele>
        <time>2025-07-17T07:22:23.071Z</time>
      </trkpt>
      <trkpt lat="44.40676" lon="1.00635">
        <ele>149</ele>
        <time>2025-07-17T07:22:24.071Z</time>
      </trkpt>
      <trkpt lat="44.40677" lon="1.00637">
        <ele>148</ele>
        <time>2025-07-17T07:22:25.071Z</time>
      </trkpt>
      <trkpt lat="44.40677" lon="1.00638">
        <ele>149</ele>
        <time>2025-07-17T07:22:26.071Z</time>
      </trkpt>
      <trkpt lat="44.40677" lon="1.0064">
        <ele>149</ele>
        <time>2025-07-17T07:22:27.072Z</time>
      </trkpt>
      <trkpt lat="44.40676" lon="1.00641">
        <ele>149</ele>
        <time>2025-07-17T07:22:28.072Z</time>
      </trkpt>
      <trkpt lat="44.40676" lon="1.00643">
        <ele>149</ele>
        <time>2025-07-17T07:22:29.071Z</time>
      </trkpt>
      <trkpt lat="44.40676" lon="1.00646">
        <ele>150</ele>
        <time>2025-07-17T07:22:30.072Z</time>
      </trkpt>
      <trkpt lat="44.40676" lon="1.00648">
        <ele>150</ele>
        <time>2025-07-17T07:22:31.072Z</time>
      </trkpt>
      <trkpt lat="44.40677" lon="1.00651">
        <ele>151</ele>
        <time>2025-07-17T07:22:32.071Z</time>
      </trkpt>
      <trkpt lat="44.40678" lon="1.00653">
        <ele>151</ele>
        <time>2025-07-17T07:22:33.072Z</time>
      </trkpt>
      <trkpt lat="44.40678" lon="1.00655">
        <ele>151</ele>
        <time>2025-07-17T07:22:34.072Z</time>
      </trkpt>
      <trkpt lat="44.40678" lon="1.00657">
        <ele>151</ele>
        <time>2025-07-17T07:22:35.071Z</time>
      </trkpt>
      <trkpt lat="44.40679" lon="1.00659">
        <ele>151</ele>
        <time>2025-07-17T07:22:36.072Z</time>
      </trkpt>
      <trkpt lat="44.40679" lon="1.00662">
        <ele>151</ele>
        <time>2025-07-17T07:22:37.072Z</time>
      </trkpt>
      <trkpt lat="44.4068" lon="1.00664">
        <ele>151</ele>
        <time>2025-07-17T07:22:38.071Z</time>
      </trkpt>
      <trkpt lat="44.4068" lon="1.00666">
        <ele>152</ele>
        <time>2025-07-17T07:22:39.072Z</time>
      </trkpt>
      <trkpt lat="44.4068" lon="1.00668">
        <ele>152</ele>
        <time>2025-07-17T07:22:40.071Z</time>
      </trkpt>
      <trkpt lat="44.40681" lon="1.0067">
        <ele>152</ele>
        <time>2025-07-17T07:22:41.071Z</time>
      </trkpt>
      <trkpt lat="44.40681" lon="1.00672">
        <ele>152</ele>
        <time>2025-07-17T07:22:42.071Z</time>
      </trkpt>
      <trkpt lat="44.40682" lon="1.00674">
        <ele>152</ele>
        <time>2025-07-17T07:22:43.071Z</time>
      </trkpt>
      <trkpt lat="44.40682" lon="1.00676">
        <ele>152</ele>
        <time>2025-07-17T07:22:44.071Z</time>
      </trkpt>
      <trkpt lat="44.40683" lon="1.00678">
        <ele>152</ele>
        <time>2025-07-17T07:22:45.072Z</time>
      </trkpt>
      <trkpt lat="44.40684" lon="1.00679">
        <ele>152</ele>
        <time>2025-07-17T07:22:46.072Z</time>
      </trkpt>
      <trkpt lat="44.40684" lon="1.00681">
        <ele>151</ele>
        <time>2025-07-17T07:22:47.071Z</time>
      </trkpt>
      <trkpt lat="44.40685" lon="1.00683">
        <ele>151</ele>
        <time>2025-07-17T07:22:48.071Z</time>
      </trkpt>
      <trkpt lat="44.40685" lon="1.00684">
        <ele>151</ele>
        <time>2025-07-17T07:22:49.071Z</time>
      </trkpt>
      <trkpt lat="44.40686" lon="1.00685">
        <ele>150</ele>
        <time>2025-07-17T07:22:50.071Z</time>
      </trkpt>
      <trkpt lat="44.40687" lon="1.00687">
        <ele>150</ele>
        <time>2025-07-17T07:22:51.071Z</time>
      </trkpt>
      <trkpt lat="44.40687" lon="1.00689">
        <ele>149</ele>
        <time>2025-07-17T07:22:52.071Z</time>
      </trkpt>
      <trkpt lat="44.40688" lon="1.0069">
        <ele>149</ele>
        <time>2025-07-17T07:22:53.071Z</time>
      </trkpt>
      <trkpt lat="44.40689" lon="1.00692">
        <ele>148</ele>
        <time>2025-07-17T07:22:54.071Z</time>
      </trkpt>
      <trkpt lat="44.40689" lon="1.00693">
        <ele>148</ele>
        <time>2025-07-17T07:22:55.071Z</time>
      </trkpt>
      <trkpt lat="44.4069" lon="1.00695">
        <ele>148</ele>
        <time>2025-07-17T07:22:56.071Z</time>
      </trkpt>
      <trkpt lat="44.40691" lon="1.00696">
        <ele>147</ele>
        <time>2025-07-17T07:22:57.072Z</time>
      </trkpt>
      <trkpt lat="44.40691" lon="1.00698">
        <ele>147</ele>
        <time>2025-07-17T07:22:58.072Z</time>
      </trkpt>
      <trkpt lat="44.40692" lon="1.007">
        <ele>147</ele>
        <time>2025-07-17T07:22:59.071Z</time>
      </trkpt>
      <trkpt lat="44.40693" lon="1.00701">
        <ele>147</ele>
        <time>2025-07-17T07:23:00.072Z</time>
      </trkpt>
      <trkpt lat="44.40693" lon="1.00702">
        <ele>147</ele>
        <time>2025-07-17T07:23:01.071Z</time>
      </trkpt>
      <trkpt lat="44.40694" lon="1.00704">
        <ele>147</ele>
        <time>2025-07-17T07:23:02.071Z</time>
      </trkpt>
      <trkpt lat="44.40695" lon="1.00705">
        <ele>146</ele>
        <time>2025-07-17T07:23:03.072Z</time>
      </trkpt>
      <trkpt lat="44.40696" lon="1.00706">
        <ele>146</ele>
        <time>2025-07-17T07:23:04.071Z</time>
      </trkpt>
      <trkpt lat="44.40696" lon="1.00707">
        <ele>146</ele>
        <time>2025-07-17T07:23:05.071Z</time>
      </trkpt>
      <trkpt lat="44.40697" lon="1.00708">
        <ele>146</ele>
        <time>2025-07-17T07:23:06.072Z</time>
      </trkpt>
      <trkpt lat="44.40698" lon="1.00709">
        <ele>146</ele>
        <time>2025-07-17T07:23:07.072Z</time>
      </trkpt>
      <trkpt lat="44.40699" lon="1.0071">
        <ele>146</ele>
        <time>2025-07-17T07:23:08.071Z</time>
      </trkpt>
      <trkpt lat="44.40699" lon="1.00711">
        <ele>146</ele>
        <time>2025-07-17T07:23:09.072Z</time>
      </trkpt>
      <trkpt lat="44.407" lon="1.00712">
        <ele>146</ele>
        <time>2025-07-17T07:23:10.071Z</time>
      </trkpt>
      <trkpt lat="44.40701" lon="1.00713">
        <ele>146</ele>
        <time>2025-07-17T07:23:11.071Z</time>
      </trkpt>
      <trkpt lat="44.40702" lon="1.00713">
        <ele>146</ele>
        <time>2025-07-17T07:23:12.072Z</time>
      </trkpt>
      <trkpt lat="44.40703" lon="1.00715">
        <ele>146</ele>
        <time>2025-07-17T07:23:13.071Z</time>
      </trkpt>
      <trkpt lat="44.40704" lon="1.00715">
        <ele>146</ele>
        <time>2025-07-17T07:23:14.071Z</time>
      </trkpt>
      <trkpt lat="44.40704" lon="1.00717">
        <ele>146</ele>
        <time>2025-07-17T07:23:15.072Z</time>
      </trkpt>
      <trkpt lat="44.40705" lon="1.00718">
        <ele>146</ele>
        <time>2025-07-17T07:23:16.071Z</time>
      </trkpt>
      <trkpt lat="44.40706" lon="1.0072">
        <ele>146</ele>
        <time>2025-07-17T07:23:17.071Z</time>
      </trkpt>
      <trkpt lat="44.40706" lon="1.00722">
        <ele>146</ele>
        <time>2025-07-17T07:23:18.072Z</time>
      </trkpt>
      <trkpt lat="44.40706" lon="1.00725">
        <ele>146</ele>
        <time>2025-07-17T07:23:19.072Z</time>
      </trkpt>
      <trkpt lat="44.40705" lon="1.00726">
        <ele>146</ele>
        <time>2025-07-17T07:23:20.071Z</time>
      </trkpt>
      <trkpt lat="44.40705" lon="1.00728">
        <ele>146</ele>
        <time>2025-07-17T07:23:21.071Z</time>
      </trkpt>
      <trkpt lat="44.40704" lon="1.0073">
        <ele>146</ele>
        <time>2025-07-17T07:23:22.071Z</time>
      </trkpt>
      <trkpt lat="44.40704" lon="1.00732">
        <ele>147</ele>
        <time>2025-07-17T07:23:23.071Z</time>
      </trkpt>
      <trkpt lat="44.40704" lon="1.00734">
        <ele>147</ele>
        <time>2025-07-17T07:23:24.072Z</time>
      </trkpt>
      <trkpt lat="44.40704" lon="1.00736">
        <ele>148</ele>
        <time>2025-07-17T07:23:25.072Z</time>
      </trkpt>
      <trkpt lat="44.40703" lon="1.00738">
        <ele>149</ele>
        <time>2025-07-17T07:23:26.071Z</time>
      </trkpt>
      <trkpt lat="44.40702" lon="1.00739">
        <ele>150</ele>
        <time>2025-07-17T07:23:27.072Z</time>
      </trkpt>
      <trkpt lat="44.40701" lon="1.00741">
        <ele>150</ele>
        <time>2025-07-17T07:23:28.072Z</time>
      </trkpt>
      <trkpt lat="44.407" lon="1.00741">
        <ele>150</ele>
        <time>2025-07-17T07:23:29.072Z</time>
      </trkpt>
      <trkpt lat="44.40699" lon="1.00742">
        <ele>150</ele>
        <time>2025-07-17T07:23:30.072Z</time>
      </trkpt>
      <trkpt lat="44.40699" lon="1.00743">
        <ele>150</ele>
        <time>2025-07-17T07:23:31.072Z</time>
      </trkpt>
      <trkpt lat="44.40698" lon="1.00744">
        <ele>150</ele>
        <time>2025-07-17T07:23:32.071Z</time>
      </trkpt>
      <trkpt lat="44.40698" lon="1.00745">
        <ele>150</ele>
        <time>2025-07-17T07:23:33.071Z</time>
      </trkpt>
      <trkpt lat="44.40697" lon="1.00746">
        <ele>151</ele>
        <time>2025-07-17T07:23:34.072Z</time>
      </trkpt>
      <trkpt lat="44.40696" lon="1.00748">
        <ele>151</ele>
        <time>2025-07-17T07:23:35.071Z</time>
      </trkpt>
      <trkpt lat="44.40696" lon="1.00749">
        <ele>151</ele>
        <time>2025-07-17T07:23:36.072Z</time>
      </trkpt>
      <trkpt lat="44.40695" lon="1.00751">
        <ele>151</ele>
        <time>2025-07-17T07:23:37.072Z</time>
      </trkpt>
      <trkpt lat="44.40694" lon="1.00752">
        <ele>151</ele>
        <time>2025-07-17T07:23:38.072Z</time>
      </trkpt>
      <trkpt lat="44.40694" lon="1.00754">
        <ele>151</ele>
        <time>2025-07-17T07:23:39.072Z</time>
      </trkpt>
      <trkpt lat="44.40693" lon="1.00756">
        <ele>151</ele>
        <time>2025-07-17T07:23:40.071Z</time>
      </trkpt>
      <trkpt lat="44.40692" lon="1.00757">
        <ele>151</ele>
        <time>2025-07-17T07:23:41.071Z</time>
      </trkpt>
      <trkpt lat="44.40691" lon="1.00758">
        <ele>151</ele>
        <time>2025-07-17T07:23:42.072Z</time>
      </trkpt>
      <trkpt lat="44.4069" lon="1.0076">
        <ele>151</ele>
        <time>2025-07-17T07:23:43.072Z</time>
      </trkpt>
      <trkpt lat="44.4069" lon="1.00761">
        <ele>151</ele>
        <time>2025-07-17T07:23:44.072Z</time>
      </trkpt>
      <trkpt lat="44.40689" lon="1.00762">
        <ele>150</ele>
        <time>2025-07-17T07:23:45.072Z</time>
      </trkpt>
      <trkpt lat="44.40688" lon="1.00763">
        <ele>150</ele>
        <time>2025-07-17T07:23:46.072Z</time>
      </trkpt>
      <trkpt lat="44.40687" lon="1.00765">
        <ele>150</ele>
        <time>2025-07-17T07:23:47.071Z</time>
      </trkpt>
      <trkpt lat="44.40687" lon="1.00766">
        <ele>150</ele>
        <time>2025-07-17T07:23:48.072Z</time>
      </trkpt>
      <trkpt lat="44.40686" lon="1.00767">
        <ele>150</ele>
        <time>2025-07-17T07:23:49.071Z</time>
      </trkpt>
      <trkpt lat="44.40686" lon="1.00769">
        <ele>150</ele>
        <time>2025-07-17T07:23:50.072Z</time>
      </trkpt>
      <trkpt lat="44.40686" lon="1.0077">
        <ele>150</ele>
        <time>2025-07-17T07:23:51.072Z</time>
      </trkpt>
      <trkpt lat="44.40685" lon="1.00771">
        <ele>150</ele>
        <time>2025-07-17T07:23:52.071Z</time>
      </trkpt>
      <trkpt lat="44.40684" lon="1.00772">
        <ele>150</ele>
        <time>2025-07-17T07:23:53.072Z</time>
      </trkpt>
      <trkpt lat="44.40684" lon="1.00772">
        <ele>150</ele>
        <time>2025-07-17T07:23:54.072Z</time>
      </trkpt>
      <trkpt lat="44.40684" lon="1.00773">
        <ele>150</ele>
        <time>2025-07-17T07:23:55.072Z</time>
      </trkpt>
      <trkpt lat="44.40683" lon="1.00773">
        <ele>149</ele>
        <time>2025-07-17T07:23:56.072Z</time>
      </trkpt>
      <trkpt lat="44.40683" lon="1.00774">
        <ele>149</ele>
        <time>2025-07-17T07:23:57.072Z</time>
      </trkpt>
      <trkpt lat="44.40683" lon="1.00774">
        <ele>149</ele>
        <time>2025-07-17T07:23:58.071Z</time>
      </trkpt>
      <trkpt lat="44.40683" lon="1.00775">
        <ele>149</ele>
        <time>2025-07-17T07:23:59.072Z</time>
      </trkpt>
      <trkpt lat="44.40683" lon="1.00775">
        <ele>149</ele>
        <time>2025-07-17T07:24:00.072Z</time>
      </trkpt>
      <trkpt lat="44.40683" lon="1.00775">
        <ele>149</ele>
        <time>2025-07-17T07:24:01.072Z</time>
      </trkpt>
      <trkpt lat="44.40683" lon="1.00775">
        <ele>149</ele>
        <time>2025-07-17T07:24:02.071Z</time>
      </trkpt>
      <trkpt lat="44.40683" lon="1.00776">
        <ele>149</ele>
        <time>2025-07-17T07:24:03.072Z</time>
      </trkpt>
      <trkpt lat="44.40683" lon="1.00776">
        <ele>150</ele>
        <time>2025-07-17T07:24:04.071Z</time>
      </trkpt>
      <trkpt lat="44.40683" lon="1.00777">
        <ele>150</ele>
        <time>2025-07-17T07:24:05.071Z</time>
      </trkpt>
      <trkpt lat="44.40682" lon="1.00778">
        <ele>150</ele>
        <time>2025-07-17T07:24:06.071Z</time>
      </trkpt>
      <trkpt lat="44.40682" lon="1.00778">
        <ele>150</ele>
        <time>2025-07-17T07:24:07.072Z</time>
      </trkpt>
      <trkpt lat="44.40682" lon="1.00779">
        <ele>151</ele>
        <time>2025-07-17T07:24:08.071Z</time>
      </trkpt>
      <trkpt lat="44.40681" lon="1.0078">
        <ele>151</ele>
        <time>2025-07-17T07:24:09.071Z</time>
      </trkpt>
      <trkpt lat="44.40681" lon="1.00781">
        <ele>151</ele>
        <time>2025-07-17T07:24:10.072Z</time>
      </trkpt>
      <trkpt lat="44.4068" lon="1.00783">
        <ele>151</ele>
        <time>2025-07-17T07:24:11.071Z</time>
      </trkpt>
      <trkpt lat="44.4068" lon="1.00784">
        <ele>151</ele>
        <time>2025-07-17T07:24:12.072Z</time>
      </trkpt>
      <trkpt lat="44.40678" lon="1.00784">
        <ele>151</ele>
        <time>2025-07-17T07:24:13.072Z</time>
      </trkpt>
      <trkpt lat="44.40678" lon="1.00786">
        <ele>151</ele>
        <time>2025-07-17T07:24:14.072Z</time>
      </trkpt>
      <trkpt lat="44.40677" lon="1.00787">
        <ele>151</ele>
        <time>2025-07-17T07:24:15.072Z</time>
      </trkpt>
      <trkpt lat="44.40677" lon="1.00788">
        <ele>151</ele>
        <time>2025-07-17T07:24:16.071Z</time>
      </trkpt>
      <trkpt lat="44.40676" lon="1.00789">
        <ele>152</ele>
        <time>2025-07-17T07:24:17.072Z</time>
      </trkpt>
      <trkpt lat="44.40675" lon="1.00791">
        <ele>152</ele>
        <time>2025-07-17T07:24:18.071Z</time>
      </trkpt>
      <trkpt lat="44.40674" lon="1.00793">
        <ele>152</ele>
        <time>2025-07-17T07:24:19.071Z</time>
      </trkpt>
      <trkpt lat="44.40674" lon="1.00795">
        <ele>152</ele>
        <time>2025-07-17T07:24:20.071Z</time>
      </trkpt>
      <trkpt lat="44.40674" lon="1.00797">
        <ele>153</ele>
        <time>2025-07-17T07:24:21.072Z</time>
      </trkpt>
      <trkpt lat="44.40674" lon="1.00799">
        <ele>153</ele>
        <time>2025-07-17T07:24:22.071Z</time>
      </trkpt>
      <trkpt lat="44.40674" lon="1.008">
        <ele>153</ele>
        <time>2025-07-17T07:24:23.071Z</time>
      </trkpt>
      <trkpt lat="44.40674" lon="1.00801">
        <ele>153</ele>
        <time>2025-07-17T07:24:24.071Z</time>
      </trkpt>
      <trkpt lat="44.40674" lon="1.00803">
        <ele>153</ele>
        <time>2025-07-17T07:24:25.072Z</time>
      </trkpt>
      <trkpt lat="44.40674" lon="1.00805">
        <ele>153</ele>
        <time>2025-07-17T07:24:26.071Z</time>
      </trkpt>
      <trkpt lat="44.40673" lon="1.00806">
        <ele>153</ele>
        <time>2025-07-17T07:24:27.072Z</time>
      </trkpt>
      <trkpt lat="44.40673" lon="1.00808">
        <ele>153</ele>
        <time>2025-07-17T07:24:28.071Z</time>
      </trkpt>
      <trkpt lat="44.40673" lon="1.0081">
        <ele>153</ele>
        <time>2025-07-17T07:24:29.072Z</time>
      </trkpt>
      <trkpt lat="44.40673" lon="1.00811">
        <ele>153</ele>
        <time>2025-07-17T07:24:30.072Z</time>
      </trkpt>
      <trkpt lat="44.40673" lon="1.00812">
        <ele>153</ele>
        <time>2025-07-17T07:24:31.072Z</time>
      </trkpt>
      <trkpt lat="44.40673" lon="1.00813">
        <ele>153</ele>
        <time>2025-07-17T07:24:32.071Z</time>
      </trkpt>
      <trkpt lat="44.40673" lon="1.00814">
        <ele>152</ele>
        <time>2025-07-17T07:24:33.071Z</time>
      </trkpt>
      <trkpt lat="44.40672" lon="1.00815">
        <ele>152</ele>
        <time>2025-07-17T07:24:34.072Z</time>
      </trkpt>
      <trkpt lat="44.40672" lon="1.00816">
        <ele>152</ele>
        <time>2025-07-17T07:24:35.071Z</time>
      </trkpt>
      <trkpt lat="44.40671" lon="1.00816">
        <ele>152</ele>
        <time>2025-07-17T07:24:36.071Z</time>
      </trkpt>
      <trkpt lat="44.40671" lon="1.00817">
        <ele>152</ele>
        <time>2025-07-17T07:24:37.072Z</time>
      </trkpt>
      <trkpt lat="44.40672" lon="1.00818">
        <ele>152</ele>
        <time>2025-07-17T07:24:38.071Z</time>
      </trkpt>
      <trkpt lat="44.40673" lon="1.00819">
        <ele>152</ele>
        <time>2025-07-17T07:24:39.072Z</time>
      </trkpt>
      <trkpt lat="44.40673" lon="1.0082">
        <ele>152</ele>
        <time>2025-07-17T07:24:40.072Z</time>
      </trkpt>
      <trkpt lat="44.40674" lon="1.00822">
        <ele>153</ele>
        <time>2025-07-17T07:24:41.071Z</time>
      </trkpt>
      <trkpt lat="44.40675" lon="1.00823">
        <ele>153</ele>
        <time>2025-07-17T07:24:42.072Z</time>
      </trkpt>
      <trkpt lat="44.40675" lon="1.00825">
        <ele>153</ele>
        <time>2025-07-17T07:24:43.071Z</time>
      </trkpt>
      <trkpt lat="44.40676" lon="1.00826">
        <ele>153</ele>
        <time>2025-07-17T07:24:44.071Z</time>
      </trkpt>
      <trkpt lat="44.40676" lon="1.00828">
        <ele>153</ele>
        <time>2025-07-17T07:24:45.071Z</time>
      </trkpt>
      <trkpt lat="44.40676" lon="1.00829">
        <ele>153</ele>
        <time>2025-07-17T07:24:46.071Z</time>
      </trkpt>
      <trkpt lat="44.40677" lon="1.0083">
        <ele>153</ele>
        <time>2025-07-17T07:24:47.071Z</time>
      </trkpt>
      <trkpt lat="44.40677" lon="1.00831">
        <ele>153</ele>
        <time>2025-07-17T07:24:48.072Z</time>
      </trkpt>
      <trkpt lat="44.40678" lon="1.00832">
        <ele>153</ele>
        <time>2025-07-17T07:24:49.072Z</time>
      </trkpt>
      <trkpt lat="44.40678" lon="1.00832">
        <ele>153</ele>
        <time>2025-07-17T07:24:50.071Z</time>
      </trkpt>
      <trkpt lat="44.40678" lon="1.00833">
        <ele>154</ele>
        <time>2025-07-17T07:24:51.072Z</time>
      </trkpt>
      <trkpt lat="44.40678" lon="1.00833">
        <ele>154</ele>
        <time>2025-07-17T07:24:52.072Z</time>
      </trkpt>
      <trkpt lat="44.40678" lon="1.00833">
        <ele>154</ele>
        <time>2025-07-17T07:24:53.072Z</time>
      </trkpt>
      <trkpt lat="44.40678" lon="1.00833">
        <ele>154</ele>
        <time>2025-07-17T07:24:54.071Z</time>
      </trkpt>
      <trkpt lat="44.40678" lon="1.00833">
        <ele>154</ele>
        <time>2025-07-17T07:24:55.071Z</time>
      </trkpt>
      <trkpt lat="44.40678" lon="1.00833">
        <ele>154</ele>
        <time>2025-07-17T07:24:56.072Z</time>
      </trkpt>
      <trkpt lat="44.40678" lon="1.00833">
        <ele>154</ele>
        <time>2025-07-17T07:24:57.071Z</time>
      </trkpt>
      <trkpt lat="44.40678" lon="1.00833">
        <ele>154</ele>
        <time>2025-07-17T07:24:58.071Z</time>
      </trkpt>
      <trkpt lat="44.40679" lon="1.00834">
        <ele>155</ele>
        <time>2025-07-17T07:24:59.071Z</time>
      </trkpt>
      <trkpt lat="44.4068" lon="1.00835">
        <ele>155</ele>
        <time>2025-07-17T07:25:00.071Z</time>
      </trkpt>
      <trkpt lat="44.40681" lon="1.00836">
        <ele>155</ele>
        <time>2025-07-17T07:25:01.071Z</time>
      </trkpt>
      <trkpt lat="44.40681" lon="1.00838">
        <ele>155</ele>
        <time>2025-07-17T07:25:02.071Z</time>
      </trkpt>
      <trkpt lat="44.40681" lon="1.00839">
        <ele>156</ele>
        <time>2025-07-17T07:25:03.071Z</time>
      </trkpt>
      <trkpt lat="44.40681" lon="1.00841">
        <ele>156</ele>
        <time>2025-07-17T07:25:04.071Z</time>
      </trkpt>
      <trkpt lat="44.40681" lon="1.00841">
        <ele>155</ele>
        <time>2025-07-17T07:25:05.071Z</time>
      </trkpt>
      <trkpt lat="44.40681" lon="1.00842">
        <ele>155</ele>
        <time>2025-07-17T07:25:06.072Z</time>
      </trkpt>
      <trkpt lat="44.40682" lon="1.00843">
        <ele>155</ele>
        <time>2025-07-17T07:25:07.072Z</time>
      </trkpt>
      <trkpt lat="44.40682" lon="1.00845">
        <ele>155</ele>
        <time>2025-07-17T07:25:08.071Z</time>
      </trkpt>
      <trkpt lat="44.40683" lon="1.00846">
        <ele>155</ele>
        <time>2025-07-17T07:25:09.071Z</time>
      </trkpt>
      <trkpt lat="44.40683" lon="1.00848">
        <ele>156</ele>
        <time>2025-07-17T07:25:10.071Z</time>
      </trkpt>
      <trkpt lat="44.40683" lon="1.00849">
        <ele>156</ele>
        <time>2025-07-17T07:25:11.071Z</time>
      </trkpt>
      <trkpt lat="44.40683" lon="1.00851">
        <ele>156</ele>
        <time>2025-07-17T07:25:12.071Z</time>
      </trkpt>
      <trkpt lat="44.40683" lon="1.00852">
        <ele>156</ele>
        <time>2025-07-17T07:25:13.071Z</time>
      </trkpt>
      <trkpt lat="44.40684" lon="1.00853">
        <ele>156</ele>
        <time>2025-07-17T07:25:14.071Z</time>
      </trkpt>
      <trkpt lat="44.40685" lon="1.00855">
        <ele>156</ele>
        <time>2025-07-17T07:25:15.072Z</time>
      </trkpt>
      <trkpt lat="44.40685" lon="1.00856">
        <ele>156</ele>
        <time>2025-07-17T07:25:16.072Z</time>
      </trkpt>
      <trkpt lat="44.40686" lon="1.00857">
        <ele>156</ele>
        <time>2025-07-17T07:25:17.071Z</time>
      </trkpt>
      <trkpt lat="44.40686" lon="1.00858">
        <ele>155</ele>
        <time>2025-07-17T07:25:18.072Z</time>
      </trkpt>
      <trkpt lat="44.40687" lon="1.00859">
        <ele>155</ele>
        <time>2025-07-17T07:25:19.072Z</time>
      </trkpt>
      <trkpt lat="44.40687" lon="1.0086">
        <ele>156</ele>
        <time>2025-07-17T07:25:20.071Z</time>
      </trkpt>
      <trkpt lat="44.40686" lon="1.00861">
        <ele>156</ele>
        <time>2025-07-17T07:25:21.071Z</time>
      </trkpt>
      <trkpt lat="44.40686" lon="1.00863">
        <ele>157</ele>
        <time>2025-07-17T07:25:22.071Z</time>
      </trkpt>
      <trkpt lat="44.40686" lon="1.00865">
        <ele>158</ele>
        <time>2025-07-17T07:25:23.071Z</time>
      </trkpt>
      <trkpt lat="44.40685" lon="1.00866">
        <ele>158</ele>
        <time>2025-07-17T07:25:24.072Z</time>
      </trkpt>
      <trkpt lat="44.40685" lon="1.00868">
        <ele>159</ele>
        <time>2025-07-17T07:25:25.072Z</time>
      </trkpt>
      <trkpt lat="44.40685" lon="1.0087">
        <ele>159</ele>
        <time>2025-07-17T07:25:26.071Z</time>
      </trkpt>
      <trkpt lat="44.40685" lon="1.00871">
        <ele>159</ele>
        <time>2025-07-17T07:25:27.072Z</time>
      </trkpt>
      <trkpt lat="44.40685" lon="1.00873">
        <ele>159</ele>
        <time>2025-07-17T07:25:28.071Z</time>
      </trkpt>
      <trkpt lat="44.40685" lon="1.00874">
        <ele>159</ele>
        <time>2025-07-17T07:25:29.071Z</time>
      </trkpt>
      <trkpt lat="44.40685" lon="1.00876">
        <ele>159</ele>
        <time>2025-07-17T07:25:30.071Z</time>
      </trkpt>
      <trkpt lat="44.40685" lon="1.00877">
        <ele>158</ele>
        <time>2025-07-17T07:25:31.071Z</time>
      </trkpt>
      <trkpt lat="44.40684" lon="1.00878">
        <ele>158</ele>
        <time>2025-07-17T07:25:32.071Z</time>
      </trkpt>
      <trkpt lat="44.40684" lon="1.0088">
        <ele>157</ele>
        <time>2025-07-17T07:25:33.072Z</time>
      </trkpt>
      <trkpt lat="44.40685" lon="1.00882">
        <ele>157</ele>
        <time>2025-07-17T07:25:34.072Z</time>
      </trkpt>
      <trkpt lat="44.40685" lon="1.00883">
        <ele>157</ele>
        <time>2025-07-17T07:25:35.071Z</time>
      </trkpt>
      <trkpt lat="44.40686" lon="1.00884">
        <ele>157</ele>
        <time>2025-07-17T07:25:36.072Z</time>
      </trkpt>
      <trkpt lat="44.40686" lon="1.00886">
        <ele>157</ele>
        <time>2025-07-17T07:25:37.072Z</time>
      </trkpt>
      <trkpt lat="44.40686" lon="1.00888">
        <ele>157</ele>
        <time>2025-07-17T07:25:38.071Z</time>
      </trkpt>
      <trkpt lat="44.40686" lon="1.0089">
        <ele>157</ele>
        <time>2025-07-17T07:25:39.072Z</time>
      </trkpt>
      <trkpt lat="44.40686" lon="1.00891">
        <ele>157</ele>
        <time>2025-07-17T07:25:40.072Z</time>
      </trkpt>
      <trkpt lat="44.40687" lon="1.00893">
        <ele>157</ele>
        <time>2025-07-17T07:25:41.071Z</time>
      </trkpt>
      <trkpt lat="44.40686" lon="1.00895">
        <ele>157</ele>
        <time>2025-07-17T07:25:42.071Z</time>
      </trkpt>
      <trkpt lat="44.40686" lon="1.00897">
        <ele>157</ele>
        <time>2025-07-17T07:25:43.071Z</time>
      </trkpt>
      <trkpt lat="44.40687" lon="1.00898">
        <ele>156</ele>
        <time>2025-07-17T07:25:44.071Z</time>
      </trkpt>
      <trkpt lat="44.40688" lon="1.00899">
        <ele>156</ele>
        <time>2025-07-17T07:25:45.071Z</time>
      </trkpt>
      <trkpt lat="44.40688" lon="1.00901">
        <ele>157</ele>
        <time>2025-07-17T07:25:46.071Z</time>
      </trkpt>
      <trkpt lat="44.40689" lon="1.00902">
        <ele>157</ele>
        <time>2025-07-17T07:25:47.071Z</time>
      </trkpt>
      <trkpt lat="44.40689" lon="1.00904">
        <ele>157</ele>
        <time>2025-07-17T07:25:48.072Z</time>
      </trkpt>
      <trkpt lat="44.40689" lon="1.00905">
        <ele>157</ele>
        <time>2025-07-17T07:25:49.071Z</time>
      </trkpt>
      <trkpt lat="44.40689" lon="1.00907">
        <ele>157</ele>
        <time>2025-07-17T07:25:50.071Z</time>
      </trkpt>
      <trkpt lat="44.40689" lon="1.00909">
        <ele>157</ele>
        <time>2025-07-17T07:25:51.071Z</time>
      </trkpt>
      <trkpt lat="44.40688" lon="1.00911">
        <ele>157</ele>
        <time>2025-07-17T07:25:52.072Z</time>
      </trkpt>
      <trkpt lat="44.40688" lon="1.00912">
        <ele>156</ele>
        <time>2025-07-17T07:25:53.071Z</time>
      </trkpt>
      <trkpt lat="44.40688" lon="1.00913">
        <ele>156</ele>
        <time>2025-07-17T07:25:54.072Z</time>
      </trkpt>
      <trkpt lat="44.40688" lon="1.00915">
        <ele>156</ele>
        <time>2025-07-17T07:25:55.072Z</time>
      </trkpt>
      <trkpt lat="44.40687" lon="1.00916">
        <ele>156</ele>
        <time>2025-07-17T07:25:56.071Z</time>
      </trkpt>
      <trkpt lat="44.40687" lon="1.00917">
        <ele>157</ele>
        <time>2025-07-17T07:25:57.071Z</time>
      </trkpt>
      <trkpt lat="44.40687" lon="1.00919">
        <ele>157</ele>
        <time>2025-07-17T07:25:58.071Z</time>
      </trkpt>
      <trkpt lat="44.40687" lon="1.00921">
        <ele>157</ele>
        <time>2025-07-17T07:25:59.071Z</time>
      </trkpt>
      <trkpt lat="44.40687" lon="1.00921">
        <ele>157</ele>
        <time>2025-07-17T07:26:00.071Z</time>
      </trkpt>
      <trkpt lat="44.40687" lon="1.00922">
        <ele>158</ele>
        <time>2025-07-17T07:26:01.072Z</time>
      </trkpt>
      <trkpt lat="44.40687" lon="1.00922">
        <ele>158</ele>
        <time>2025-07-17T07:26:02.071Z</time>
      </trkpt>
      <trkpt lat="44.40687" lon="1.00923">
        <ele>158</ele>
        <time>2025-07-17T07:26:03.072Z</time>
      </trkpt>
      <trkpt lat="44.40687" lon="1.00924">
        <ele>158</ele>
        <time>2025-07-17T07:26:04.071Z</time>
      </trkpt>
      <trkpt lat="44.40687" lon="1.00926">
        <ele>158</ele>
        <time>2025-07-17T07:26:05.071Z</time>
      </trkpt>
      <trkpt lat="44.40687" lon="1.00927">
        <ele>158</ele>
        <time>2025-07-17T07:26:06.072Z</time>
      </trkpt>
      <trkpt lat="44.40687" lon="1.00929">
        <ele>158</ele>
        <time>2025-07-17T07:26:07.072Z</time>
      </trkpt>
      <trkpt lat="44.40687" lon="1.00931">
        <ele>158</ele>
        <time>2025-07-17T07:26:08.071Z</time>
      </trkpt>
      <trkpt lat="44.40687" lon="1.00933">
        <ele>158</ele>
        <time>2025-07-17T07:26:09.071Z</time>
      </trkpt>
      <trkpt lat="44.40686" lon="1.00935">
        <ele>157</ele>
        <time>2025-07-17T07:26:10.072Z</time>
      </trkpt>
      <trkpt lat="44.40686" lon="1.00936">
        <ele>157</ele>
        <time>2025-07-17T07:26:11.071Z</time>
      </trkpt>
      <trkpt lat="44.40686" lon="1.00937">
        <ele>157</ele>
        <time>2025-07-17T07:26:12.072Z</time>
      </trkpt>
      <trkpt lat="44.40686" lon="1.00938">
        <ele>157</ele>
        <time>2025-07-17T07:26:13.072Z</time>
      </trkpt>
      <trkpt lat="44.40686" lon="1.0094">
        <ele>157</ele>
        <time>2025-07-17T07:26:14.071Z</time>
      </trkpt>
      <trkpt lat="44.40686" lon="1.00941">
        <ele>157</ele>
        <time>2025-07-17T07:26:15.072Z</time>
      </trkpt>
      <trkpt lat="44.40686" lon="1.00943">
        <ele>157</ele>
        <time>2025-07-17T07:26:16.071Z</time>
      </trkpt>
      <trkpt lat="44.40685" lon="1.00945">
        <ele>157</ele>
        <time>2025-07-17T07:26:17.071Z</time>
      </trkpt>
      <trkpt lat="44.40685" lon="1.00947">
        <ele>157</ele>
        <time>2025-07-17T07:26:18.072Z</time>
      </trkpt>
      <trkpt lat="44.40684" lon="1.00948">
        <ele>157</ele>
        <time>2025-07-17T07:26:19.071Z</time>
      </trkpt>
      <trkpt lat="44.40684" lon="1.0095">
        <ele>156</ele>
        <time>2025-07-17T07:26:20.071Z</time>
      </trkpt>
      <trkpt lat="44.40684" lon="1.00951">
        <ele>156</ele>
        <time>2025-07-17T07:26:21.072Z</time>
      </trkpt>
      <trkpt lat="44.40683" lon="1.00953">
        <ele>156</ele>
        <time>2025-07-17T07:26:22.072Z</time>
      </trkpt>
      <trkpt lat="44.40683" lon="1.00955">
        <ele>156</ele>
        <time>2025-07-17T07:26:23.072Z</time>
      </trkpt>
      <trkpt lat="44.40683" lon="1.00957">
        <ele>156</ele>
        <time>2025-07-17T07:26:24.071Z</time>
      </trkpt>
      <trkpt lat="44.40683" lon="1.00958">
        <ele>156</ele>
        <time>2025-07-17T07:26:25.072Z</time>
      </trkpt>
      <trkpt lat="44.40683" lon="1.0096">
        <ele>156</ele>
        <time>2025-07-17T07:26:26.071Z</time>
      </trkpt>
      <trkpt lat="44.40682" lon="1.00961">
        <ele>156</ele>
        <time>2025-07-17T07:26:27.072Z</time>
      </trkpt>
      <trkpt lat="44.40682" lon="1.00963">
        <ele>156</ele>
        <time>2025-07-17T07:26:28.072Z</time>
      </trkpt>
      <trkpt lat="44.40682" lon="1.00963">
        <ele>156</ele>
        <time>2025-07-17T07:26:29.071Z</time>
      </trkpt>
      <trkpt lat="44.40682" lon="1.00965">
        <ele>156</ele>
        <time>2025-07-17T07:26:30.072Z</time>
      </trkpt>
      <trkpt lat="44.40682" lon="1.00966">
        <ele>157</ele>
        <time>2025-07-17T07:26:31.072Z</time>
      </trkpt>
      <trkpt lat="44.40682" lon="1.00967">
        <ele>157</ele>
        <time>2025-07-17T07:26:32.071Z</time>
      </trkpt>
      <trkpt lat="44.40682" lon="1.00969">
        <ele>157</ele>
        <time>2025-07-17T07:26:33.072Z</time>
      </trkpt>
      <trkpt lat="44.40682" lon="1.0097">
        <ele>157</ele>
        <time>2025-07-17T07:26:34.071Z</time>
      </trkpt>
      <trkpt lat="44.40682" lon="1.00972">
        <ele>157</ele>
        <time>2025-07-17T07:26:35.072Z</time>
      </trkpt>
      <trkpt lat="44.40681" lon="1.00973">
        <ele>157</ele>
        <time>2025-07-17T07:26:36.071Z</time>
      </trkpt>
      <trkpt lat="44.40681" lon="1.00975">
        <ele>157</ele>
        <time>2025-07-17T07:26:37.071Z</time>
      </trkpt>
      <trkpt lat="44.40681" lon="1.00977">
        <ele>157</ele>
        <time>2025-07-17T07:26:38.071Z</time>
      </trkpt>
      <trkpt lat="44.40681" lon="1.00979">
        <ele>157</ele>
        <time>2025-07-17T07:26:39.072Z</time>
      </trkpt>
      <trkpt lat="44.4068" lon="1.0098">
        <ele>157</ele>
        <time>2025-07-17T07:26:40.071Z</time>
      </trkpt>
      <trkpt lat="44.4068" lon="1.00981">
        <ele>157</ele>
        <time>2025-07-17T07:26:41.071Z</time>
      </trkpt>
      <trkpt lat="44.4068" lon="1.00983">
        <ele>157</ele>
        <time>2025-07-17T07:26:42.072Z</time>
      </trkpt>
      <trkpt lat="44.40681" lon="1.00984">
        <ele>157</ele>
        <time>2025-07-17T07:26:43.072Z</time>
      </trkpt>
      <trkpt lat="44.4068" lon="1.00987">
        <ele>157</ele>
        <time>2025-07-17T07:26:44.071Z</time>
      </trkpt>
      <trkpt lat="44.4068" lon="1.00988">
        <ele>157</ele>
        <time>2025-07-17T07:26:45.072Z</time>
      </trkpt>
      <trkpt lat="44.40679" lon="1.00989">
        <ele>157</ele>
        <time>2025-07-17T07:26:46.072Z</time>
      </trkpt>
      <trkpt lat="44.40679" lon="1.00991">
        <ele>157</ele>
        <time>2025-07-17T07:26:47.071Z</time>
      </trkpt>
      <trkpt lat="44.40679" lon="1.00992">
        <ele>157</ele>
        <time>2025-07-17T07:26:48.072Z</time>
      </trkpt>
      <trkpt lat="44.40679" lon="1.00994">
        <ele>156</ele>
        <time>2025-07-17T07:26:49.071Z</time>
      </trkpt>
      <trkpt lat="44.40679" lon="1.00995">
        <ele>156</ele>
        <time>2025-07-17T07:26:50.071Z</time>
      </trkpt>
      <trkpt lat="44.40679" lon="1.00996">
        <ele>156</ele>
        <time>2025-07-17T07:26:51.072Z</time>
      </trkpt>
      <trkpt lat="44.40678" lon="1.00998">
        <ele>156</ele>
        <time>2025-07-17T07:26:52.072Z</time>
      </trkpt>
      <trkpt lat="44.40678" lon="1.00999">
        <ele>156</ele>
        <time>2025-07-17T07:26:53.072Z</time>
      </trkpt>
      <trkpt lat="44.40678" lon="1.01001">
        <ele>155</ele>
        <time>2025-07-17T07:26:54.072Z</time>
      </trkpt>
      <trkpt lat="44.40678" lon="1.01003">
        <ele>155</ele>
        <time>2025-07-17T07:26:55.072Z</time>
      </trkpt>
      <trkpt lat="44.40679" lon="1.01005">
        <ele>155</ele>
        <time>2025-07-17T07:26:56.071Z</time>
      </trkpt>
      <trkpt lat="44.40679" lon="1.01006">
        <ele>155</ele>
        <time>2025-07-17T07:26:57.072Z</time>
      </trkpt>
      <trkpt lat="44.40679" lon="1.01007">
        <ele>155</ele>
        <time>2025-07-17T07:26:58.072Z</time>
      </trkpt>
      <trkpt lat="44.40679" lon="1.01009">
        <ele>154</ele>
        <time>2025-07-17T07:26:59.071Z</time>
      </trkpt>
      <trkpt lat="44.40679" lon="1.0101">
        <ele>154</ele>
        <time>2025-07-17T07:27:00.072Z</time>
      </trkpt>
      <trkpt lat="44.40679" lon="1.01013">
        <ele>154</ele>
        <time>2025-07-17T07:27:01.072Z</time>
      </trkpt>
      <trkpt lat="44.40679" lon="1.01015">
        <ele>154</ele>
        <time>2025-07-17T07:27:02.072Z</time>
      </trkpt>
      <trkpt lat="44.40679" lon="1.01016">
        <ele>155</ele>
        <time>2025-07-17T07:27:03.072Z</time>
      </trkpt>
      <trkpt lat="44.4068" lon="1.01018">
        <ele>155</ele>
        <time>2025-07-17T07:27:04.072Z</time>
      </trkpt>
      <trkpt lat="44.4068" lon="1.01019">
        <ele>155</ele>
        <time>2025-07-17T07:27:05.071Z</time>
      </trkpt>
      <trkpt lat="44.4068" lon="1.01021">
        <ele>155</ele>
        <time>2025-07-17T07:27:06.071Z</time>
      </trkpt>
      <trkpt lat="44.40681" lon="1.01023">
        <ele>155</ele>
        <time>2025-07-17T07:27:07.072Z</time>
      </trkpt>
      <trkpt lat="44.40681" lon="1.01025">
        <ele>156</ele>
        <time>2025-07-17T07:27:08.071Z</time>
      </trkpt>
      <trkpt lat="44.40682" lon="1.01026">
        <ele>156</ele>
        <time>2025-07-17T07:27:09.072Z</time>
      </trkpt>
      <trkpt lat="44.40682" lon="1.01028">
        <ele>156</ele>
        <time>2025-07-17T07:27:10.072Z</time>
      </trkpt>
      <trkpt lat="44.40682" lon="1.01029">
        <ele>156</ele>
        <time>2025-07-17T07:27:11.071Z</time>
      </trkpt>
      <trkpt lat="44.40682" lon="1.01031">
        <ele>156</ele>
        <time>2025-07-17T07:27:12.071Z</time>
      </trkpt>
      <trkpt lat="44.40683" lon="1.01032">
        <ele>156</ele>
        <time>2025-07-17T07:27:13.071Z</time>
      </trkpt>
      <trkpt lat="44.40683" lon="1.01034">
        <ele>156</ele>
        <time>2025-07-17T07:27:14.071Z</time>
      </trkpt>
      <trkpt lat="44.40683" lon="1.01035">
        <ele>157</ele>
        <time>2025-07-17T07:27:15.071Z</time>
      </trkpt>
      <trkpt lat="44.40683" lon="1.01037">
        <ele>157</ele>
        <time>2025-07-17T07:27:16.071Z</time>
      </trkpt>
      <trkpt lat="44.40683" lon="1.01038">
        <ele>157</ele>
        <time>2025-07-17T07:27:17.071Z</time>
      </trkpt>
      <trkpt lat="44.40683" lon="1.0104">
        <ele>157</ele>
        <time>2025-07-17T07:27:18.072Z</time>
      </trkpt>
      <trkpt lat="44.40684" lon="1.01041">
        <ele>157</ele>
        <time>2025-07-17T07:27:19.072Z</time>
      </trkpt>
      <trkpt lat="44.40684" lon="1.01043">
        <ele>157</ele>
        <time>2025-07-17T07:27:20.071Z</time>
      </trkpt>
      <trkpt lat="44.40684" lon="1.01044">
        <ele>157</ele>
        <time>2025-07-17T07:27:21.072Z</time>
      </trkpt>
      <trkpt lat="44.40684" lon="1.01045">
        <ele>157</ele>
        <time>2025-07-17T07:27:22.071Z</time>
      </trkpt>
      <trkpt lat="44.40685" lon="1.01046">
        <ele>157</ele>
        <time>2025-07-17T07:27:23.072Z</time>
      </trkpt>
      <trkpt lat="44.40685" lon="1.01048">
        <ele>158</ele>
        <time>2025-07-17T07:27:24.071Z</time>
      </trkpt>
      <trkpt lat="44.40685" lon="1.01049">
        <ele>158</ele>
        <time>2025-07-17T07:27:25.071Z</time>
      </trkpt>
      <trkpt lat="44.40686" lon="1.01051">
        <ele>157</ele>
        <time>2025-07-17T07:27:26.071Z</time>
      </trkpt>
      <trkpt lat="44.40687" lon="1.01052">
        <ele>157</ele>
        <time>2025-07-17T07:27:27.071Z</time>
      </trkpt>
      <trkpt lat="44.40687" lon="1.01053">
        <ele>157</ele>
        <time>2025-07-17T07:27:28.072Z</time>
      </trkpt>
      <trkpt lat="44.40688" lon="1.01055">
        <ele>157</ele>
        <time>2025-07-17T07:27:29.071Z</time>
      </trkpt>
      <trkpt lat="44.40688" lon="1.01056">
        <ele>158</ele>
        <time>2025-07-17T07:27:30.072Z</time>
      </trkpt>
      <trkpt lat="44.40689" lon="1.01058">
        <ele>158</ele>
        <time>2025-07-17T07:27:31.072Z</time>
      </trkpt>
      <trkpt lat="44.40689" lon="1.01059">
        <ele>158</ele>
        <time>2025-07-17T07:27:32.071Z</time>
      </trkpt>
      <trkpt lat="44.4069" lon="1.0106">
        <ele>158</ele>
        <time>2025-07-17T07:27:33.071Z</time>
      </trkpt>
      <trkpt lat="44.40691" lon="1.01061">
        <ele>158</ele>
        <time>2025-07-17T07:27:34.072Z</time>
      </trkpt>
      <trkpt lat="44.40692" lon="1.01062">
        <ele>158</ele>
        <time>2025-07-17T07:27:35.071Z</time>
      </trkpt>
      <trkpt lat="44.40692" lon="1.01063">
        <ele>158</ele>
        <time>2025-07-17T07:27:36.072Z</time>
      </trkpt>
      <trkpt lat="44.40692" lon="1.01064">
        <ele>158</ele>
        <time>2025-07-17T07:27:37.072Z</time>
      </trkpt>
      <trkpt lat="44.40692" lon="1.01065">
        <ele>158</ele>
        <time>2025-07-17T07:27:38.071Z</time>
      </trkpt>
      <trkpt lat="44.40693" lon="1.01067">
        <ele>158</ele>
        <time>2025-07-17T07:27:39.071Z</time>
      </trkpt>
      <trkpt lat="44.40693" lon="1.01068">
        <ele>158</ele>
        <time>2025-07-17T07:27:40.072Z</time>
      </trkpt>
      <trkpt lat="44.40694" lon="1.0107">
        <ele>158</ele>
        <time>2025-07-17T07:27:41.072Z</time>
      </trkpt>
      <trkpt lat="44.40695" lon="1.01071">
        <ele>158</ele>
        <time>2025-07-17T07:27:42.071Z</time>
      </trkpt>
      <trkpt lat="44.40696" lon="1.01073">
        <ele>158</ele>
        <time>2025-07-17T07:27:43.072Z</time>
      </trkpt>
      <trkpt lat="44.40697" lon="1.01075">
        <ele>158</ele>
        <time>2025-07-17T07:27:44.071Z</time>
      </trkpt>
      <trkpt lat="44.40697" lon="1.01076">
        <ele>158</ele>
        <time>2025-07-17T07:27:45.071Z</time>
      </trkpt>
      <trkpt lat="44.40698" lon="1.01077">
        <ele>158</ele>
        <time>2025-07-17T07:27:46.071Z</time>
      </trkpt>
      <trkpt lat="44.40698" lon="1.01078">
        <ele>158</ele>
        <time>2025-07-17T07:27:47.072Z</time>
      </trkpt>
      <trkpt lat="44.40699" lon="1.01079">
        <ele>158</ele>
        <time>2025-07-17T07:27:48.072Z</time>
      </trkpt>
      <trkpt lat="44.407" lon="1.0108">
        <ele>158</ele>
        <time>2025-07-17T07:27:49.072Z</time>
      </trkpt>
      <trkpt lat="44.407" lon="1.01081">
        <ele>158</ele>
        <time>2025-07-17T07:27:50.071Z</time>
      </trkpt>
      <trkpt lat="44.40701" lon="1.01082">
        <ele>158</ele>
        <time>2025-07-17T07:27:51.072Z</time>
      </trkpt>
      <trkpt lat="44.40702" lon="1.01084">
        <ele>158</ele>
        <time>2025-07-17T07:27:52.071Z</time>
      </trkpt>
      <trkpt lat="44.40703" lon="1.01085">
        <ele>158</ele>
        <time>2025-07-17T07:27:53.071Z</time>
      </trkpt>
      <trkpt lat="44.40704" lon="1.01086">
        <ele>157</ele>
        <time>2025-07-17T07:27:54.071Z</time>
      </trkpt>
      <trkpt lat="44.40705" lon="1.01088">
        <ele>157</ele>
        <time>2025-07-17T07:27:55.071Z</time>
      </trkpt>
      <trkpt lat="44.40705" lon="1.01089">
        <ele>157</ele>
        <time>2025-07-17T07:27:56.071Z</time>
      </trkpt>
      <trkpt lat="44.40706" lon="1.0109">
        <ele>157</ele>
        <time>2025-07-17T07:27:57.071Z</time>
      </trkpt>
      <trkpt lat="44.40706" lon="1.01091">
        <ele>157</ele>
        <time>2025-07-17T07:27:58.072Z</time>
      </trkpt>
      <trkpt lat="44.40707" lon="1.01093">
        <ele>156</ele>
        <time>2025-07-17T07:27:59.071Z</time>
      </trkpt>
      <trkpt lat="44.40708" lon="1.01094">
        <ele>156</ele>
        <time>2025-07-17T07:28:00.072Z</time>
      </trkpt>
      <trkpt lat="44.40708" lon="1.01095">
        <ele>156</ele>
        <time>2025-07-17T07:28:01.072Z</time>
      </trkpt>
      <trkpt lat="44.40709" lon="1.01096">
        <ele>156</ele>
        <time>2025-07-17T07:28:02.071Z</time>
      </trkpt>
      <trkpt lat="44.40709" lon="1.01098">
        <ele>156</ele>
        <time>2025-07-17T07:28:03.071Z</time>
      </trkpt>
      <trkpt lat="44.40709" lon="1.01099">
        <ele>156</ele>
        <time>2025-07-17T07:28:04.072Z</time>
      </trkpt>
      <trkpt lat="44.4071" lon="1.01101">
        <ele>157</ele>
        <time>2025-07-17T07:28:05.071Z</time>
      </trkpt>
      <trkpt lat="44.40711" lon="1.01102">
        <ele>157</ele>
        <time>2025-07-17T07:28:06.072Z</time>
      </trkpt>
      <trkpt lat="44.40711" lon="1.01103">
        <ele>157</ele>
        <time>2025-07-17T07:28:07.072Z</time>
      </trkpt>
      <trkpt lat="44.40711" lon="1.01103">
        <ele>157</ele>
        <time>2025-07-17T07:28:08.072Z</time>
      </trkpt>
      <trkpt lat="44.40711" lon="1.01105">
        <ele>157</ele>
        <time>2025-07-17T07:28:09.072Z</time>
      </trkpt>
      <trkpt lat="44.40711" lon="1.01106">
        <ele>157</ele>
        <time>2025-07-17T07:28:10.072Z</time>
      </trkpt>
      <trkpt lat="44.40712" lon="1.01108">
        <ele>157</ele>
        <time>2025-07-17T07:28:11.071Z</time>
      </trkpt>
      <trkpt lat="44.40712" lon="1.0111">
        <ele>157</ele>
        <time>2025-07-17T07:28:12.071Z</time>
      </trkpt>
      <trkpt lat="44.40712" lon="1.01111">
        <ele>157</ele>
        <time>2025-07-17T07:28:13.071Z</time>
      </trkpt>
      <trkpt lat="44.40712" lon="1.01111">
        <ele>157</ele>
        <time>2025-07-17T07:28:14.071Z</time>
      </trkpt>
      <trkpt lat="44.40712" lon="1.01112">
        <ele>157</ele>
        <time>2025-07-17T07:28:15.071Z</time>
      </trkpt>
      <trkpt lat="44.40713" lon="1.01113">
        <ele>157</ele>
        <time>2025-07-17T07:28:16.072Z</time>
      </trkpt>
      <trkpt lat="44.40714" lon="1.01114">
        <ele>157</ele>
        <time>2025-07-17T07:28:17.071Z</time>
      </trkpt>
      <trkpt lat="44.40715" lon="1.01116">
        <ele>156</ele>
        <time>2025-07-17T07:28:18.072Z</time>
      </trkpt>
      <trkpt lat="44.40716" lon="1.01118">
        <ele>156</ele>
        <time>2025-07-17T07:28:19.072Z</time>
      </trkpt>
      <trkpt lat="44.40716" lon="1.0112">
        <ele>156</ele>
        <time>2025-07-17T07:28:20.071Z</time>
      </trkpt>
      <trkpt lat="44.40717" lon="1.01121">
        <ele>157</ele>
        <time>2025-07-17T07:28:21.072Z</time>
      </trkpt>
      <trkpt lat="44.40716" lon="1.01123">
        <ele>156</ele>
        <time>2025-07-17T07:28:22.072Z</time>
      </trkpt>
      <trkpt lat="44.40716" lon="1.01125">
        <ele>156</ele>
        <time>2025-07-17T07:28:23.071Z</time>
      </trkpt>
      <trkpt lat="44.40716" lon="1.01126">
        <ele>156</ele>
        <time>2025-07-17T07:28:24.072Z</time>
      </trkpt>
      <trkpt lat="44.40717" lon="1.01128">
        <ele>156</ele>
        <time>2025-07-17T07:28:25.072Z</time>
      </trkpt>
      <trkpt lat="44.40718" lon="1.01129">
        <ele>156</ele>
        <time>2025-07-17T07:28:26.071Z</time>
      </trkpt>
      <trkpt lat="44.40718" lon="1.01131">
        <ele>156</ele>
        <time>2025-07-17T07:28:27.071Z</time>
      </trkpt>
      <trkpt lat="44.40719" lon="1.01133">
        <ele>156</ele>
        <time>2025-07-17T07:28:28.071Z</time>
      </trkpt>
      <trkpt lat="44.40719" lon="1.01134">
        <ele>156</ele>
        <time>2025-07-17T07:28:29.071Z</time>
      </trkpt>
      <trkpt lat="44.4072" lon="1.01136">
        <ele>156</ele>
        <time>2025-07-17T07:28:30.072Z</time>
      </trkpt>
      <trkpt lat="44.4072" lon="1.01137">
        <ele>156</ele>
        <time>2025-07-17T07:28:31.071Z</time>
      </trkpt>
      <trkpt lat="44.40721" lon="1.01138">
        <ele>156</ele>
        <time>2025-07-17T07:28:32.071Z</time>
      </trkpt>
      <trkpt lat="44.40721" lon="1.01139">
        <ele>156</ele>
        <time>2025-07-17T07:28:33.071Z</time>
      </trkpt>
      <trkpt lat="44.40722" lon="1.01141">
        <ele>156</ele>
        <time>2025-07-17T07:28:34.071Z</time>
      </trkpt>
      <trkpt lat="44.40722" lon="1.01142">
        <ele>156</ele>
        <time>2025-07-17T07:28:35.071Z</time>
      </trkpt>
      <trkpt lat="44.40723" lon="1.01144">
        <ele>156</ele>
        <time>2025-07-17T07:28:36.072Z</time>
      </trkpt>
      <trkpt lat="44.40723" lon="1.01145">
        <ele>156</ele>
        <time>2025-07-17T07:28:37.072Z</time>
      </trkpt>
      <trkpt lat="44.40724" lon="1.01147">
        <ele>156</ele>
        <time>2025-07-17T07:28:38.072Z</time>
      </trkpt>
      <trkpt lat="44.40725" lon="1.01148">
        <ele>156</ele>
        <time>2025-07-17T07:28:39.072Z</time>
      </trkpt>
      <trkpt lat="44.40725" lon="1.01149">
        <ele>156</ele>
        <time>2025-07-17T07:28:40.072Z</time>
      </trkpt>
      <trkpt lat="44.40725" lon="1.01151">
        <ele>156</ele>
        <time>2025-07-17T07:28:41.071Z</time>
      </trkpt>
      <trkpt lat="44.40726" lon="1.01152">
        <ele>156</ele>
        <time>2025-07-17T07:28:42.072Z</time>
      </trkpt>
      <trkpt lat="44.40726" lon="1.01153">
        <ele>156</ele>
        <time>2025-07-17T07:28:43.072Z</time>
      </trkpt>
      <trkpt lat="44.40726" lon="1.01154">
        <ele>156</ele>
        <time>2025-07-17T07:28:44.071Z</time>
      </trkpt>
      <trkpt lat="44.40727" lon="1.01156">
        <ele>157</ele>
        <time>2025-07-17T07:28:45.072Z</time>
      </trkpt>
      <trkpt lat="44.40727" lon="1.01157">
        <ele>157</ele>
        <time>2025-07-17T07:28:46.071Z</time>
      </trkpt>
      <trkpt lat="44.40728" lon="1.01159">
        <ele>157</ele>
        <time>2025-07-17T07:28:47.071Z</time>
      </trkpt>
      <trkpt lat="44.40728" lon="1.0116">
        <ele>157</ele>
        <time>2025-07-17T07:28:48.071Z</time>
      </trkpt>
      <trkpt lat="44.40729" lon="1.01161">
        <ele>157</ele>
        <time>2025-07-17T07:28:49.072Z</time>
      </trkpt>
      <trkpt lat="44.40729" lon="1.01162">
        <ele>157</ele>
        <time>2025-07-17T07:28:50.071Z</time>
      </trkpt>
      <trkpt lat="44.40729" lon="1.01164">
        <ele>157</ele>
        <time>2025-07-17T07:28:51.071Z</time>
      </trkpt>
      <trkpt lat="44.4073" lon="1.01165">
        <ele>157</ele>
        <time>2025-07-17T07:28:52.072Z</time>
      </trkpt>
      <trkpt lat="44.4073" lon="1.01167">
        <ele>157</ele>
        <time>2025-07-17T07:28:53.071Z</time>
      </trkpt>
      <trkpt lat="44.40731" lon="1.01169">
        <ele>157</ele>
        <time>2025-07-17T07:28:54.072Z</time>
      </trkpt>
      <trkpt lat="44.40731" lon="1.0117">
        <ele>157</ele>
        <time>2025-07-17T07:28:55.072Z</time>
      </trkpt>
      <trkpt lat="44.40732" lon="1.01171">
        <ele>156</ele>
        <time>2025-07-17T07:28:56.071Z</time>
      </trkpt>
      <trkpt lat="44.40732" lon="1.01172">
        <ele>156</ele>
        <time>2025-07-17T07:28:57.072Z</time>
      </trkpt>
      <trkpt lat="44.40733" lon="1.01174">
        <ele>156</ele>
        <time>2025-07-17T07:28:58.072Z</time>
      </trkpt>
      <trkpt lat="44.40734" lon="1.01175">
        <ele>156</ele>
        <time>2025-07-17T07:28:59.071Z</time>
      </trkpt>
      <trkpt lat="44.40734" lon="1.01177">
        <ele>156</ele>
        <time>2025-07-17T07:29:00.072Z</time>
      </trkpt>
      <trkpt lat="44.40735" lon="1.01179">
        <ele>156</ele>
        <time>2025-07-17T07:29:01.071Z</time>
      </trkpt>
      <trkpt lat="44.40735" lon="1.01181">
        <ele>156</ele>
        <time>2025-07-17T07:29:02.071Z</time>
      </trkpt>
      <trkpt lat="44.40735" lon="1.01182">
        <ele>156</ele>
        <time>2025-07-17T07:29:03.071Z</time>
      </trkpt>
      <trkpt lat="44.40736" lon="1.01184">
        <ele>155</ele>
        <time>2025-07-17T07:29:04.072Z</time>
      </trkpt>
      <trkpt lat="44.40736" lon="1.01185">
        <ele>155</ele>
        <time>2025-07-17T07:29:05.071Z</time>
      </trkpt>
      <trkpt lat="44.40736" lon="1.01187">
        <ele>154</ele>
        <time>2025-07-17T07:29:06.072Z</time>
      </trkpt>
      <trkpt lat="44.40737" lon="1.01188">
        <ele>154</ele>
        <time>2025-07-17T07:29:07.071Z</time>
      </trkpt>
      <trkpt lat="44.40737" lon="1.0119">
        <ele>153</ele>
        <time>2025-07-17T07:29:08.071Z</time>
      </trkpt>
      <trkpt lat="44.40737" lon="1.01192">
        <ele>153</ele>
        <time>2025-07-17T07:29:09.072Z</time>
      </trkpt>
      <trkpt lat="44.40737" lon="1.01193">
        <ele>153</ele>
        <time>2025-07-17T07:29:10.072Z</time>
      </trkpt>
      <trkpt lat="44.40738" lon="1.01194">
        <ele>152</ele>
        <time>2025-07-17T07:29:11.071Z</time>
      </trkpt>
      <trkpt lat="44.40738" lon="1.01196">
        <ele>152</ele>
        <time>2025-07-17T07:29:12.071Z</time>
      </trkpt>
      <trkpt lat="44.40738" lon="1.01197">
        <ele>152</ele>
        <time>2025-07-17T07:29:13.071Z</time>
      </trkpt>
      <trkpt lat="44.40738" lon="1.01198">
        <ele>152</ele>
        <time>2025-07-17T07:29:14.072Z</time>
      </trkpt>
      <trkpt lat="44.40738" lon="1.012">
        <ele>152</ele>
        <time>2025-07-17T07:29:15.071Z</time>
      </trkpt>
      <trkpt lat="44.40738" lon="1.01201">
        <ele>152</ele>
        <time>2025-07-17T07:29:16.072Z</time>
      </trkpt>
      <trkpt lat="44.40738" lon="1.01203">
        <ele>152</ele>
        <time>2025-07-17T07:29:17.071Z</time>
      </trkpt>
      <trkpt lat="44.40738" lon="1.01204">
        <ele>152</ele>
        <time>2025-07-17T07:29:18.072Z</time>
      </trkpt>
      <trkpt lat="44.40739" lon="1.01206">
        <ele>152</ele>
        <time>2025-07-17T07:29:19.072Z</time>
      </trkpt>
      <trkpt lat="44.40739" lon="1.01207">
        <ele>152</ele>
        <time>2025-07-17T07:29:20.071Z</time>
      </trkpt>
      <trkpt lat="44.4074" lon="1.01209">
        <ele>152</ele>
        <time>2025-07-17T07:29:21.072Z</time>
      </trkpt>
      <trkpt lat="44.40741" lon="1.0121">
        <ele>153</ele>
        <time>2025-07-17T07:29:22.072Z</time>
      </trkpt>
      <trkpt lat="44.40741" lon="1.01211">
        <ele>153</ele>
        <time>2025-07-17T07:29:23.071Z</time>
      </trkpt>
      <trkpt lat="44.40742" lon="1.01212">
        <ele>153</ele>
        <time>2025-07-17T07:29:24.072Z</time>
      </trkpt>
      <trkpt lat="44.40743" lon="1.01214">
        <ele>153</ele>
        <time>2025-07-17T07:29:25.071Z</time>
      </trkpt>
      <trkpt lat="44.40743" lon="1.01215">
        <ele>153</ele>
        <time>2025-07-17T07:29:26.072Z</time>
      </trkpt>
      <trkpt lat="44.40744" lon="1.01217">
        <ele>153</ele>
        <time>2025-07-17T07:29:27.072Z</time>
      </trkpt>
      <trkpt lat="44.40745" lon="1.01218">
        <ele>153</ele>
        <time>2025-07-17T07:29:28.072Z</time>
      </trkpt>
      <trkpt lat="44.40745" lon="1.01219">
        <ele>153</ele>
        <time>2025-07-17T07:29:29.072Z</time>
      </trkpt>
      <trkpt lat="44.40746" lon="1.01221">
        <ele>153</ele>
        <time>2025-07-17T07:29:30.072Z</time>
      </trkpt>
      <trkpt lat="44.40746" lon="1.01221">
        <ele>153</ele>
        <time>2025-07-17T07:29:31.072Z</time>
      </trkpt>
      <trkpt lat="44.40746" lon="1.01223">
        <ele>153</ele>
        <time>2025-07-17T07:29:32.071Z</time>
      </trkpt>
      <trkpt lat="44.40746" lon="1.01224">
        <ele>153</ele>
        <time>2025-07-17T07:29:33.072Z</time>
      </trkpt>
      <trkpt lat="44.40747" lon="1.01225">
        <ele>153</ele>
        <time>2025-07-17T07:29:34.071Z</time>
      </trkpt>
      <trkpt lat="44.40747" lon="1.01227">
        <ele>153</ele>
        <time>2025-07-17T07:29:35.071Z</time>
      </trkpt>
      <trkpt lat="44.40748" lon="1.01228">
        <ele>152</ele>
        <time>2025-07-17T07:29:36.072Z</time>
      </trkpt>
      <trkpt lat="44.40749" lon="1.01229">
        <ele>152</ele>
        <time>2025-07-17T07:29:37.072Z</time>
      </trkpt>
      <trkpt lat="44.40749" lon="1.01231">
        <ele>152</ele>
        <time>2025-07-17T07:29:38.071Z</time>
      </trkpt>
      <trkpt lat="44.4075" lon="1.01232">
        <ele>152</ele>
        <time>2025-07-17T07:29:39.071Z</time>
      </trkpt>
      <trkpt lat="44.4075" lon="1.01233">
        <ele>151</ele>
        <time>2025-07-17T07:29:40.071Z</time>
      </trkpt>
      <trkpt lat="44.40751" lon="1.01234">
        <ele>151</ele>
        <time>2025-07-17T07:29:41.071Z</time>
      </trkpt>
      <trkpt lat="44.40752" lon="1.01235">
        <ele>151</ele>
        <time>2025-07-17T07:29:42.071Z</time>
      </trkpt>
      <trkpt lat="44.40752" lon="1.01236">
        <ele>150</ele>
        <time>2025-07-17T07:29:43.071Z</time>
      </trkpt>
      <trkpt lat="44.40753" lon="1.01236">
        <ele>150</ele>
        <time>2025-07-17T07:29:44.071Z</time>
      </trkpt>
      <trkpt lat="44.40752" lon="1.01237">
        <ele>149</ele>
        <time>2025-07-17T07:29:45.071Z</time>
      </trkpt>
      <trkpt lat="44.40753" lon="1.01239">
        <ele>149</ele>
        <time>2025-07-17T07:29:46.071Z</time>
      </trkpt>
      <trkpt lat="44.40753" lon="1.0124">
        <ele>148</ele>
        <time>2025-07-17T07:29:47.071Z</time>
      </trkpt>
      <trkpt lat="44.40754" lon="1.01241">
        <ele>148</ele>
        <time>2025-07-17T07:29:48.071Z</time>
      </trkpt>
      <trkpt lat="44.40754" lon="1.01242">
        <ele>148</ele>
        <time>2025-07-17T07:29:49.071Z</time>
      </trkpt>
      <trkpt lat="44.40754" lon="1.01244">
        <ele>148</ele>
        <time>2025-07-17T07:29:50.071Z</time>
      </trkpt>
      <trkpt lat="44.40755" lon="1.01246">
        <ele>148</ele>
        <time>2025-07-17T07:29:51.071Z</time>
      </trkpt>
      <trkpt lat="44.40755" lon="1.01248">
        <ele>148</ele>
        <time>2025-07-17T07:29:52.071Z</time>
      </trkpt>
      <trkpt lat="44.40755" lon="1.01249">
        <ele>149</ele>
        <time>2025-07-17T07:29:53.071Z</time>
      </trkpt>
      <trkpt lat="44.40755" lon="1.01251">
        <ele>149</ele>
        <time>2025-07-17T07:29:54.071Z</time>
      </trkpt>
      <trkpt lat="44.40755" lon="1.01253">
        <ele>149</ele>
        <time>2025-07-17T07:29:55.072Z</time>
      </trkpt>
      <trkpt lat="44.40755" lon="1.01255">
        <ele>149</ele>
        <time>2025-07-17T07:29:56.071Z</time>
      </trkpt>
      <trkpt lat="44.40755" lon="1.01256">
        <ele>149</ele>
        <time>2025-07-17T07:29:57.071Z</time>
      </trkpt>
      <trkpt lat="44.40755" lon="1.01258">
        <ele>150</ele>
        <time>2025-07-17T07:29:58.071Z</time>
      </trkpt>
      <trkpt lat="44.40756" lon="1.0126">
        <ele>150</ele>
        <time>2025-07-17T07:29:59.071Z</time>
      </trkpt>
      <trkpt lat="44.40756" lon="1.01262">
        <ele>150</ele>
        <time>2025-07-17T07:30:00.071Z</time>
      </trkpt>
      <trkpt lat="44.40756" lon="1.01264">
        <ele>150</ele>
        <time>2025-07-17T07:30:01.071Z</time>
      </trkpt>
      <trkpt lat="44.40757" lon="1.01265">
        <ele>151</ele>
        <time>2025-07-17T07:30:02.071Z</time>
      </trkpt>
      <trkpt lat="44.40757" lon="1.01267">
        <ele>151</ele>
        <time>2025-07-17T07:30:03.071Z</time>
      </trkpt>
      <trkpt lat="44.40757" lon="1.01269">
        <ele>151</ele>
        <time>2025-07-17T07:30:04.072Z</time>
      </trkpt>
      <trkpt lat="44.40757" lon="1.0127">
        <ele>151</ele>
        <time>2025-07-17T07:30:05.071Z</time>
      </trkpt>
      <trkpt lat="44.40758" lon="1.01272">
        <ele>151</ele>
        <time>2025-07-17T07:30:06.071Z</time>
      </trkpt>
      <trkpt lat="44.40758" lon="1.01273">
        <ele>151</ele>
        <time>2025-07-17T07:30:07.072Z</time>
      </trkpt>
      <trkpt lat="44.40758" lon="1.01275">
        <ele>151</ele>
        <time>2025-07-17T07:30:08.071Z</time>
      </trkpt>
      <trkpt lat="44.40759" lon="1.01276">
        <ele>151</ele>
        <time>2025-07-17T07:30:09.071Z</time>
      </trkpt>
      <trkpt lat="44.40759" lon="1.01278">
        <ele>151</ele>
        <time>2025-07-17T07:30:10.072Z</time>
      </trkpt>
      <trkpt lat="44.40759" lon="1.0128">
        <ele>151</ele>
        <time>2025-07-17T07:30:11.071Z</time>
      </trkpt>
      <trkpt lat="44.4076" lon="1.01282">
        <ele>151</ele>
        <time>2025-07-17T07:30:12.072Z</time>
      </trkpt>
      <trkpt lat="44.4076" lon="1.01284">
        <ele>151</ele>
        <time>2025-07-17T07:30:13.071Z</time>
      </trkpt>
      <trkpt lat="44.4076" lon="1.01285">
        <ele>151</ele>
        <time>2025-07-17T07:30:14.071Z</time>
      </trkpt>
      <trkpt lat="44.40761" lon="1.01287">
        <ele>151</ele>
        <time>2025-07-17T07:30:15.071Z</time>
      </trkpt>
      <trkpt lat="44.40761" lon="1.01288">
        <ele>151</ele>
        <time>2025-07-17T07:30:16.072Z</time>
      </trkpt>
      <trkpt lat="44.40761" lon="1.0129">
        <ele>152</ele>
        <time>2025-07-17T07:30:17.071Z</time>
      </trkpt>
      <trkpt lat="44.40762" lon="1.01291">
        <ele>152</ele>
        <time>2025-07-17T07:30:18.072Z</time>
      </trkpt>
      <trkpt lat="44.40762" lon="1.01293">
        <ele>152</ele>
        <time>2025-07-17T07:30:19.072Z</time>
      </trkpt>
      <trkpt lat="44.40762" lon="1.01295">
        <ele>152</ele>
        <time>2025-07-17T07:30:20.071Z</time>
      </trkpt>
      <trkpt lat="44.40762" lon="1.01297">
        <ele>152</ele>
        <time>2025-07-17T07:30:21.071Z</time>
      </trkpt>
      <trkpt lat="44.40762" lon="1.01299">
        <ele>152</ele>
        <time>2025-07-17T07:30:22.071Z</time>
      </trkpt>
      <trkpt lat="44.40763" lon="1.013">
        <ele>152</ele>
        <time>2025-07-17T07:30:23.071Z</time>
      </trkpt>
      <trkpt lat="44.40763" lon="1.01302">
        <ele>152</ele>
        <time>2025-07-17T07:30:24.071Z</time>
      </trkpt>
      <trkpt lat="44.40763" lon="1.01303">
        <ele>152</ele>
        <time>2025-07-17T07:30:25.071Z</time>
      </trkpt>
      <trkpt lat="44.40764" lon="1.01304">
        <ele>152</ele>
        <time>2025-07-17T07:30:26.071Z</time>
      </trkpt>
      <trkpt lat="44.40764" lon="1.01306">
        <ele>152</ele>
        <time>2025-07-17T07:30:27.071Z</time>
      </trkpt>
      <trkpt lat="44.40764" lon="1.01307">
        <ele>151</ele>
        <time>2025-07-17T07:30:28.071Z</time>
      </trkpt>
      <trkpt lat="44.40765" lon="1.01309">
        <ele>151</ele>
        <time>2025-07-17T07:30:29.071Z</time>
      </trkpt>
      <trkpt lat="44.40765" lon="1.01311">
        <ele>151</ele>
        <time>2025-07-17T07:30:30.071Z</time>
      </trkpt>
      <trkpt lat="44.40765" lon="1.01312">
        <ele>150</ele>
        <time>2025-07-17T07:30:31.072Z</time>
      </trkpt>
      <trkpt lat="44.40765" lon="1.01314">
        <ele>150</ele>
        <time>2025-07-17T07:30:32.071Z</time>
      </trkpt>
      <trkpt lat="44.40766" lon="1.01315">
        <ele>150</ele>
        <time>2025-07-17T07:30:33.072Z</time>
      </trkpt>
      <trkpt lat="44.40766" lon="1.01316">
        <ele>150</ele>
        <time>2025-07-17T07:30:34.072Z</time>
      </trkpt>
      <trkpt lat="44.40766" lon="1.01319">
        <ele>149</ele>
        <time>2025-07-17T07:30:35.072Z</time>
      </trkpt>
      <trkpt lat="44.40767" lon="1.0132">
        <ele>149</ele>
        <time>2025-07-17T07:30:36.072Z</time>
      </trkpt>
      <trkpt lat="44.40767" lon="1.01322">
        <ele>149</ele>
        <time>2025-07-17T07:30:37.071Z</time>
      </trkpt>
      <trkpt lat="44.40767" lon="1.01324">
        <ele>150</ele>
        <time>2025-07-17T07:30:38.071Z</time>
      </trkpt>
      <trkpt lat="44.40768" lon="1.01326">
        <ele>150</ele>
        <time>2025-07-17T07:30:39.072Z</time>
      </trkpt>
      <trkpt lat="44.40768" lon="1.01327">
        <ele>150</ele>
        <time>2025-07-17T07:30:40.072Z</time>
      </trkpt>
      <trkpt lat="44.40768" lon="1.01329">
        <ele>150</ele>
        <time>2025-07-17T07:30:41.071Z</time>
      </trkpt>
      <trkpt lat="44.40768" lon="1.0133">
        <ele>150</ele>
        <time>2025-07-17T07:30:42.072Z</time>
      </trkpt>
      <trkpt lat="44.40769" lon="1.01332">
        <ele>150</ele>
        <time>2025-07-17T07:30:43.072Z</time>
      </trkpt>
      <trkpt lat="44.40769" lon="1.01333">
        <ele>150</ele>
        <time>2025-07-17T07:30:44.072Z</time>
      </trkpt>
      <trkpt lat="44.40769" lon="1.01335">
        <ele>150</ele>
        <time>2025-07-17T07:30:45.071Z</time>
      </trkpt>
      <trkpt lat="44.40769" lon="1.01336">
        <ele>151</ele>
        <time>2025-07-17T07:30:46.072Z</time>
      </trkpt>
      <trkpt lat="44.40769" lon="1.01338">
        <ele>151</ele>
        <time>2025-07-17T07:30:47.071Z</time>
      </trkpt>
      <trkpt lat="44.4077" lon="1.01339">
        <ele>151</ele>
        <time>2025-07-17T07:30:48.072Z</time>
      </trkpt>
      <trkpt lat="44.4077" lon="1.0134">
        <ele>151</ele>
        <time>2025-07-17T07:30:49.071Z</time>
      </trkpt>
      <trkpt lat="44.4077" lon="1.01342">
        <ele>152</ele>
        <time>2025-07-17T07:30:50.071Z</time>
      </trkpt>
      <trkpt lat="44.40771" lon="1.01344">
        <ele>152</ele>
        <time>2025-07-17T07:30:51.072Z</time>
      </trkpt>
      <trkpt lat="44.40771" lon="1.01345">
        <ele>152</ele>
        <time>2025-07-17T07:30:52.072Z</time>
      </trkpt>
      <trkpt lat="44.40771" lon="1.01347">
        <ele>152</ele>
        <time>2025-07-17T07:30:53.071Z</time>
      </trkpt>
      <trkpt lat="44.40772" lon="1.01348">
        <ele>152</ele>
        <time>2025-07-17T07:30:54.072Z</time>
      </trkpt>
      <trkpt lat="44.40772" lon="1.0135">
        <ele>152</ele>
        <time>2025-07-17T07:30:55.072Z</time>
      </trkpt>
      <trkpt lat="44.40772" lon="1.01351">
        <ele>153</ele>
        <time>2025-07-17T07:30:56.071Z</time>
      </trkpt>
      <trkpt lat="44.40772" lon="1.01353">
        <ele>153</ele>
        <time>2025-07-17T07:30:57.072Z</time>
      </trkpt>
      <trkpt lat="44.40772" lon="1.01354">
        <ele>153</ele>
        <time>2025-07-17T07:30:58.071Z</time>
      </trkpt>
      <trkpt lat="44.40772" lon="1.01356">
        <ele>153</ele>
        <time>2025-07-17T07:30:59.071Z</time>
      </trkpt>
      <trkpt lat="44.40772" lon="1.01357">
        <ele>153</ele>
        <time>2025-07-17T07:31:00.071Z</time>
      </trkpt>
      <trkpt lat="44.40772" lon="1.01358">
        <ele>154</ele>
        <time>2025-07-17T07:31:01.071Z</time>
      </trkpt>
      <trkpt lat="44.40773" lon="1.01359">
        <ele>154</ele>
        <time>2025-07-17T07:31:02.071Z</time>
      </trkpt>
      <trkpt lat="44.40773" lon="1.0136">
        <ele>154</ele>
        <time>2025-07-17T07:31:03.071Z</time>
      </trkpt>
      <trkpt lat="44.40773" lon="1.01361">
        <ele>154</ele>
        <time>2025-07-17T07:31:04.071Z</time>
      </trkpt>
      <trkpt lat="44.40773" lon="1.01363">
        <ele>154</ele>
        <time>2025-07-17T07:31:05.071Z</time>
      </trkpt>
      <trkpt lat="44.40773" lon="1.01363">
        <ele>154</ele>
        <time>2025-07-17T07:31:06.071Z</time>
      </trkpt>
      <trkpt lat="44.40773" lon="1.01365">
        <ele>153</ele>
        <time>2025-07-17T07:31:07.071Z</time>
      </trkpt>
      <trkpt lat="44.40774" lon="1.01366">
        <ele>153</ele>
        <time>2025-07-17T07:31:08.071Z</time>
      </trkpt>
      <trkpt lat="44.40774" lon="1.01368">
        <ele>153</ele>
        <time>2025-07-17T07:31:09.071Z</time>
      </trkpt>
      <trkpt lat="44.40774" lon="1.01369">
        <ele>153</ele>
        <time>2025-07-17T07:31:10.072Z</time>
      </trkpt>
      <trkpt lat="44.40774" lon="1.01371">
        <ele>153</ele>
        <time>2025-07-17T07:31:11.071Z</time>
      </trkpt>
      <trkpt lat="44.40774" lon="1.01372">
        <ele>153</ele>
        <time>2025-07-17T07:31:12.072Z</time>
      </trkpt>
      <trkpt lat="44.40774" lon="1.01374">
        <ele>153</ele>
        <time>2025-07-17T07:31:13.072Z</time>
      </trkpt>
      <trkpt lat="44.40775" lon="1.01376">
        <ele>153</ele>
        <time>2025-07-17T07:31:14.071Z</time>
      </trkpt>
      <trkpt lat="44.40776" lon="1.01378">
        <ele>153</ele>
        <time>2025-07-17T07:31:15.071Z</time>
      </trkpt>
      <trkpt lat="44.40777" lon="1.01379">
        <ele>153</ele>
        <time>2025-07-17T07:31:16.072Z</time>
      </trkpt>
      <trkpt lat="44.40777" lon="1.01381">
        <ele>153</ele>
        <time>2025-07-17T07:31:17.071Z</time>
      </trkpt>
      <trkpt lat="44.40777" lon="1.01382">
        <ele>153</ele>
        <time>2025-07-17T07:31:18.072Z</time>
      </trkpt>
      <trkpt lat="44.40777" lon="1.01384">
        <ele>153</ele>
        <time>2025-07-17T07:31:19.071Z</time>
      </trkpt>
      <trkpt lat="44.40777" lon="1.01385">
        <ele>153</ele>
        <time>2025-07-17T07:31:20.071Z</time>
      </trkpt>
      <trkpt lat="44.40778" lon="1.01387">
        <ele>153</ele>
        <time>2025-07-17T07:31:21.071Z</time>
      </trkpt>
      <trkpt lat="44.40778" lon="1.01389">
        <ele>153</ele>
        <time>2025-07-17T07:31:22.072Z</time>
      </trkpt>
      <trkpt lat="44.40778" lon="1.0139">
        <ele>153</ele>
        <time>2025-07-17T07:31:23.071Z</time>
      </trkpt>
      <trkpt lat="44.40778" lon="1.01392">
        <ele>153</ele>
        <time>2025-07-17T07:31:24.072Z</time>
      </trkpt>
      <trkpt lat="44.40778" lon="1.01394">
        <ele>153</ele>
        <time>2025-07-17T07:31:25.072Z</time>
      </trkpt>
      <trkpt lat="44.40779" lon="1.01395">
        <ele>153</ele>
        <time>2025-07-17T07:31:26.071Z</time>
      </trkpt>
      <trkpt lat="44.40779" lon="1.01397">
        <ele>154</ele>
        <time>2025-07-17T07:31:27.071Z</time>
      </trkpt>
      <trkpt lat="44.40779" lon="1.01398">
        <ele>154</ele>
        <time>2025-07-17T07:31:28.072Z</time>
      </trkpt>
      <trkpt lat="44.4078" lon="1.014">
        <ele>154</ele>
        <time>2025-07-17T07:31:29.071Z</time>
      </trkpt>
      <trkpt lat="44.4078" lon="1.01402">
        <ele>154</ele>
        <time>2025-07-17T07:31:30.072Z</time>
      </trkpt>
      <trkpt lat="44.4078" lon="1.01404">
        <ele>154</ele>
        <time>2025-07-17T07:31:31.072Z</time>
      </trkpt>
      <trkpt lat="44.4078" lon="1.01405">
        <ele>154</ele>
        <time>2025-07-17T07:31:32.071Z</time>
      </trkpt>
      <trkpt lat="44.40779" lon="1.01407">
        <ele>154</ele>
        <time>2025-07-17T07:31:33.072Z</time>
      </trkpt>
      <trkpt lat="44.40779" lon="1.01408">
        <ele>154</ele>
        <time>2025-07-17T07:31:34.071Z</time>
      </trkpt>
      <trkpt lat="44.40779" lon="1.01409">
        <ele>153</ele>
        <time>2025-07-17T07:31:35.071Z</time>
      </trkpt>
      <trkpt lat="44.40779" lon="1.0141">
        <ele>153</ele>
        <time>2025-07-17T07:31:36.072Z</time>
      </trkpt>
      <trkpt lat="44.40778" lon="1.01411">
        <ele>153</ele>
        <time>2025-07-17T07:31:37.072Z</time>
      </trkpt>
      <trkpt lat="44.40778" lon="1.01412">
        <ele>152</ele>
        <time>2025-07-17T07:31:38.071Z</time>
      </trkpt>
      <trkpt lat="44.40779" lon="1.01414">
        <ele>152</ele>
        <time>2025-07-17T07:31:39.072Z</time>
      </trkpt>
      <trkpt lat="44.4078" lon="1.01415">
        <ele>152</ele>
        <time>2025-07-17T07:31:40.072Z</time>
      </trkpt>
      <trkpt lat="44.40779" lon="1.01417">
        <ele>152</ele>
        <time>2025-07-17T07:31:41.071Z</time>
      </trkpt>
      <trkpt lat="44.4078" lon="1.01419">
        <ele>152</ele>
        <time>2025-07-17T07:31:42.071Z</time>
      </trkpt>
      <trkpt lat="44.4078" lon="1.0142">
        <ele>152</ele>
        <time>2025-07-17T07:31:43.071Z</time>
      </trkpt>
      <trkpt lat="44.4078" lon="1.01421">
        <ele>151</ele>
        <time>2025-07-17T07:31:44.071Z</time>
      </trkpt>
      <trkpt lat="44.40779" lon="1.01422">
        <ele>151</ele>
        <time>2025-07-17T07:31:45.071Z</time>
      </trkpt>
      <trkpt lat="44.40779" lon="1.01423">
        <ele>151</ele>
        <time>2025-07-17T07:31:46.072Z</time>
      </trkpt>
      <trkpt lat="44.4078" lon="1.01424">
        <ele>151</ele>
        <time>2025-07-17T07:31:47.071Z</time>
      </trkpt>
      <trkpt lat="44.4078" lon="1.01425">
        <ele>151</ele>
        <time>2025-07-17T07:31:48.071Z</time>
      </trkpt>
      <trkpt lat="44.4078" lon="1.01426">
        <ele>151</ele>
        <time>2025-07-17T07:31:49.071Z</time>
      </trkpt>
      <trkpt lat="44.4078" lon="1.01427">
        <ele>151</ele>
        <time>2025-07-17T07:31:50.072Z</time>
      </trkpt>
      <trkpt lat="44.40781" lon="1.01428">
        <ele>151</ele>
        <time>2025-07-17T07:31:51.071Z</time>
      </trkpt>
      <trkpt lat="44.40781" lon="1.01429">
        <ele>152</ele>
        <time>2025-07-17T07:31:52.071Z</time>
      </trkpt>
      <trkpt lat="44.40781" lon="1.01431">
        <ele>152</ele>
        <time>2025-07-17T07:31:53.071Z</time>
      </trkpt>
      <trkpt lat="44.40782" lon="1.01431">
        <ele>152</ele>
        <time>2025-07-17T07:31:54.072Z</time>
      </trkpt>
      <trkpt lat="44.40782" lon="1.01432">
        <ele>152</ele>
        <time>2025-07-17T07:31:55.072Z</time>
      </trkpt>
      <trkpt lat="44.40783" lon="1.01433">
        <ele>152</ele>
        <time>2025-07-17T07:31:56.071Z</time>
      </trkpt>
      <trkpt lat="44.40783" lon="1.01434">
        <ele>152</ele>
        <time>2025-07-17T07:31:57.071Z</time>
      </trkpt>
      <trkpt lat="44.40783" lon="1.01434">
        <ele>153</ele>
        <time>2025-07-17T07:31:58.072Z</time>
      </trkpt>
      <trkpt lat="44.40783" lon="1.01435">
        <ele>153</ele>
        <time>2025-07-17T07:31:59.072Z</time>
      </trkpt>
      <trkpt lat="44.40783" lon="1.01435">
        <ele>153</ele>
        <time>2025-07-17T07:32:00.071Z</time>
      </trkpt>
      <trkpt lat="44.40783" lon="1.01435">
        <ele>153</ele>
        <time>2025-07-17T07:32:01.071Z</time>
      </trkpt>
      <trkpt lat="44.40783" lon="1.01435">
        <ele>153</ele>
        <time>2025-07-17T07:32:02.071Z</time>
      </trkpt>
      <trkpt lat="44.40783" lon="1.01436">
        <ele>153</ele>
        <time>2025-07-17T07:32:03.072Z</time>
      </trkpt>
      <trkpt lat="44.40783" lon="1.01436">
        <ele>153</ele>
        <time>2025-07-17T07:32:04.071Z</time>
      </trkpt>
      <trkpt lat="44.40783" lon="1.01436">
        <ele>153</ele>
        <time>2025-07-17T07:32:05.072Z</time>
      </trkpt>
      <trkpt lat="44.40783" lon="1.01436">
        <ele>152</ele>
        <time>2025-07-17T07:32:06.071Z</time>
      </trkpt>
      <trkpt lat="44.40783" lon="1.01436">
        <ele>152</ele>
        <time>2025-07-17T07:32:07.072Z</time>
      </trkpt>
      <trkpt lat="44.40783" lon="1.01437">
        <ele>151</ele>
        <time>2025-07-17T07:32:08.071Z</time>
      </trkpt>
      <trkpt lat="44.40783" lon="1.01437">
        <ele>151</ele>
        <time>2025-07-17T07:32:09.071Z</time>
      </trkpt>
      <trkpt lat="44.40784" lon="1.01438">
        <ele>150</ele>
        <time>2025-07-17T07:32:10.071Z</time>
      </trkpt>
      <trkpt lat="44.40784" lon="1.01439">
        <ele>149</ele>
        <time>2025-07-17T07:32:11.071Z</time>
      </trkpt>
      <trkpt lat="44.40784" lon="1.0144">
        <ele>149</ele>
        <time>2025-07-17T07:32:12.071Z</time>
      </trkpt>
      <trkpt lat="44.40784" lon="1.01441">
        <ele>149</ele>
        <time>2025-07-17T07:32:13.071Z</time>
      </trkpt>
      <trkpt lat="44.40784" lon="1.01443">
        <ele>148</ele>
        <time>2025-07-17T07:32:14.071Z</time>
      </trkpt>
      <trkpt lat="44.40784" lon="1.01444">
        <ele>148</ele>
        <time>2025-07-17T07:32:15.072Z</time>
      </trkpt>
      <trkpt lat="44.40784" lon="1.01445">
        <ele>148</ele>
        <time>2025-07-17T07:32:16.071Z</time>
      </trkpt>
      <trkpt lat="44.40784" lon="1.01446">
        <ele>148</ele>
        <time>2025-07-17T07:32:17.071Z</time>
      </trkpt>
      <trkpt lat="44.40784" lon="1.01448">
        <ele>148</ele>
        <time>2025-07-17T07:32:18.071Z</time>
      </trkpt>
      <trkpt lat="44.40784" lon="1.01449">
        <ele>149</ele>
        <time>2025-07-17T07:32:19.071Z</time>
      </trkpt>
      <trkpt lat="44.40784" lon="1.0145">
        <ele>149</ele>
        <time>2025-07-17T07:32:20.071Z</time>
      </trkpt>
      <trkpt lat="44.40784" lon="1.01452">
        <ele>150</ele>
        <time>2025-07-17T07:32:21.071Z</time>
      </trkpt>
      <trkpt lat="44.40784" lon="1.01453">
        <ele>151</ele>
        <time>2025-07-17T07:32:22.071Z</time>
      </trkpt>
      <trkpt lat="44.40784" lon="1.01454">
        <ele>151</ele>
        <time>2025-07-17T07:32:23.072Z</time>
      </trkpt>
      <trkpt lat="44.40784" lon="1.01454">
        <ele>152</ele>
        <time>2025-07-17T07:32:24.071Z</time>
      </trkpt>
      <trkpt lat="44.40784" lon="1.01456">
        <ele>152</ele>
        <time>2025-07-17T07:32:25.071Z</time>
      </trkpt>
      <trkpt lat="44.40784" lon="1.01457">
        <ele>153</ele>
        <time>2025-07-17T07:32:26.071Z</time>
      </trkpt>
      <trkpt lat="44.40785" lon="1.01458">
        <ele>153</ele>
        <time>2025-07-17T07:32:27.072Z</time>
      </trkpt>
      <trkpt lat="44.40785" lon="1.0146">
        <ele>153</ele>
        <time>2025-07-17T07:32:28.071Z</time>
      </trkpt>
      <trkpt lat="44.40786" lon="1.01461">
        <ele>154</ele>
        <time>2025-07-17T07:32:29.071Z</time>
      </trkpt>
      <trkpt lat="44.40786" lon="1.01462">
        <ele>154</ele>
        <time>2025-07-17T07:32:30.071Z</time>
      </trkpt>
      <trkpt lat="44.40787" lon="1.01464">
        <ele>154</ele>
        <time>2025-07-17T07:32:31.071Z</time>
      </trkpt>
      <trkpt lat="44.40787" lon="1.01465">
        <ele>155</ele>
        <time>2025-07-17T07:32:32.071Z</time>
      </trkpt>
      <trkpt lat="44.40787" lon="1.01467">
        <ele>155</ele>
        <time>2025-07-17T07:32:33.071Z</time>
      </trkpt>
      <trkpt lat="44.40788" lon="1.01468">
        <ele>155</ele>
        <time>2025-07-17T07:32:34.071Z</time>
      </trkpt>
      <trkpt lat="44.40788" lon="1.0147">
        <ele>156</ele>
        <time>2025-07-17T07:32:35.071Z</time>
      </trkpt>
      <trkpt lat="44.40789" lon="1.01471">
        <ele>156</ele>
        <time>2025-07-17T07:32:36.071Z</time>
      </trkpt>
      <trkpt lat="44.40789" lon="1.01473">
        <ele>156</ele>
        <time>2025-07-17T07:32:37.071Z</time>
      </trkpt>
      <trkpt lat="44.40789" lon="1.01474">
        <ele>156</ele>
        <time>2025-07-17T07:32:38.071Z</time>
      </trkpt>
      <trkpt lat="44.40789" lon="1.01475">
        <ele>156</ele>
        <time>2025-07-17T07:32:39.072Z</time>
      </trkpt>
      <trkpt lat="44.4079" lon="1.01476">
        <ele>156</ele>
        <time>2025-07-17T07:32:40.072Z</time>
      </trkpt>
      <trkpt lat="44.4079" lon="1.01477">
        <ele>156</ele>
        <time>2025-07-17T07:32:41.071Z</time>
      </trkpt>
      <trkpt lat="44.40791" lon="1.01478">
        <ele>156</ele>
        <time>2025-07-17T07:32:42.071Z</time>
      </trkpt>
      <trkpt lat="44.40792" lon="1.01478">
        <ele>156</ele>
        <time>2025-07-17T07:32:43.071Z</time>
      </trkpt>
      <trkpt lat="44.40793" lon="1.01479">
        <ele>156</ele>
        <time>2025-07-17T07:32:44.071Z</time>
      </trkpt>
      <trkpt lat="44.40793" lon="1.0148">
        <ele>156</ele>
        <time>2025-07-17T07:32:45.072Z</time>
      </trkpt>
      <trkpt lat="44.40793" lon="1.01481">
        <ele>156</ele>
        <time>2025-07-17T07:32:46.072Z</time>
      </trkpt>
      <trkpt lat="44.40793" lon="1.01482">
        <ele>157</ele>
        <time>2025-07-17T07:32:47.071Z</time>
      </trkpt>
      <trkpt lat="44.40793" lon="1.01483">
        <ele>157</ele>
        <time>2025-07-17T07:32:48.071Z</time>
      </trkpt>
      <trkpt lat="44.40793" lon="1.01483">
        <ele>157</ele>
        <time>2025-07-17T07:32:49.072Z</time>
      </trkpt>
      <trkpt lat="44.40793" lon="1.01483">
        <ele>157</ele>
        <time>2025-07-17T07:32:50.072Z</time>
      </trkpt>
      <trkpt lat="44.40793" lon="1.01483">
        <ele>158</ele>
        <time>2025-07-17T07:32:51.072Z</time>
      </trkpt>
      <trkpt lat="44.40793" lon="1.01483">
        <ele>158</ele>
        <time>2025-07-17T07:32:52.072Z</time>
      </trkpt>
      <trkpt lat="44.40793" lon="1.01483">
        <ele>158</ele>
        <time>2025-07-17T07:32:53.071Z</time>
      </trkpt>
      <trkpt lat="44.40793" lon="1.01483">
        <ele>158</ele>
        <time>2025-07-17T07:32:54.071Z</time>
      </trkpt>
      <trkpt lat="44.40793" lon="1.01484">
        <ele>158</ele>
        <time>2025-07-17T07:32:55.071Z</time>
      </trkpt>
      <trkpt lat="44.40793" lon="1.01484">
        <ele>158</ele>
        <time>2025-07-17T07:32:56.071Z</time>
      </trkpt>
      <trkpt lat="44.40793" lon="1.01485">
        <ele>158</ele>
        <time>2025-07-17T07:32:57.072Z</time>
      </trkpt>
      <trkpt lat="44.40793" lon="1.01485">
        <ele>158</ele>
        <time>2025-07-17T07:32:58.071Z</time>
      </trkpt>
      <trkpt lat="44.40794" lon="1.01486">
        <ele>158</ele>
        <time>2025-07-17T07:32:59.071Z</time>
      </trkpt>
      <trkpt lat="44.40794" lon="1.01487">
        <ele>158</ele>
        <time>2025-07-17T07:33:00.071Z</time>
      </trkpt>
      <trkpt lat="44.40794" lon="1.01488">
        <ele>158</ele>
        <time>2025-07-17T07:33:01.071Z</time>
      </trkpt>
      <trkpt lat="44.40795" lon="1.01489">
        <ele>158</ele>
        <time>2025-07-17T07:33:02.071Z</time>
      </trkpt>
      <trkpt lat="44.40795" lon="1.0149">
        <ele>158</ele>
        <time>2025-07-17T07:33:03.071Z</time>
      </trkpt>
      <trkpt lat="44.40795" lon="1.01491">
        <ele>158</ele>
        <time>2025-07-17T07:33:04.071Z</time>
      </trkpt>
      <trkpt lat="44.40796" lon="1.01492">
        <ele>158</ele>
        <time>2025-07-17T07:33:05.071Z</time>
      </trkpt>
      <trkpt lat="44.40796" lon="1.01493">
        <ele>158</ele>
        <time>2025-07-17T07:33:06.071Z</time>
      </trkpt>
      <trkpt lat="44.40797" lon="1.01494">
        <ele>158</ele>
        <time>2025-07-17T07:33:07.072Z</time>
      </trkpt>
      <trkpt lat="44.40798" lon="1.01495">
        <ele>158</ele>
        <time>2025-07-17T07:33:08.071Z</time>
      </trkpt>
      <trkpt lat="44.40798" lon="1.01496">
        <ele>158</ele>
        <time>2025-07-17T07:33:09.071Z</time>
      </trkpt>
      <trkpt lat="44.40798" lon="1.01497">
        <ele>158</ele>
        <time>2025-07-17T07:33:10.071Z</time>
      </trkpt>
      <trkpt lat="44.40799" lon="1.01498">
        <ele>158</ele>
        <time>2025-07-17T07:33:11.071Z</time>
      </trkpt>
      <trkpt lat="44.40799" lon="1.01499">
        <ele>157</ele>
        <time>2025-07-17T07:33:12.071Z</time>
      </trkpt>
      <trkpt lat="44.408" lon="1.015">
        <ele>157</ele>
        <time>2025-07-17T07:33:13.072Z</time>
      </trkpt>
      <trkpt lat="44.40801" lon="1.01501">
        <ele>157</ele>
        <time>2025-07-17T07:33:14.071Z</time>
      </trkpt>
      <trkpt lat="44.40801" lon="1.01502">
        <ele>157</ele>
        <time>2025-07-17T07:33:15.072Z</time>
      </trkpt>
      <trkpt lat="44.40801" lon="1.01502">
        <ele>157</ele>
        <time>2025-07-17T07:33:16.071Z</time>
      </trkpt>
      <trkpt lat="44.40802" lon="1.01503">
        <ele>157</ele>
        <time>2025-07-17T07:33:17.072Z</time>
      </trkpt>
      <trkpt lat="44.40802" lon="1.01504">
        <ele>157</ele>
        <time>2025-07-17T07:33:18.071Z</time>
      </trkpt>
      <trkpt lat="44.40802" lon="1.01506">
        <ele>157</ele>
        <time>2025-07-17T07:33:19.071Z</time>
      </trkpt>
      <trkpt lat="44.40802" lon="1.01507">
        <ele>157</ele>
        <time>2025-07-17T07:33:20.072Z</time>
      </trkpt>
      <trkpt lat="44.40803" lon="1.01509">
        <ele>157</ele>
        <time>2025-07-17T07:33:21.072Z</time>
      </trkpt>
      <trkpt lat="44.40803" lon="1.0151">
        <ele>157</ele>
        <time>2025-07-17T07:33:22.072Z</time>
      </trkpt>
      <trkpt lat="44.40804" lon="1.01511">
        <ele>157</ele>
        <time>2025-07-17T07:33:23.071Z</time>
      </trkpt>
      <trkpt lat="44.40805" lon="1.01512">
        <ele>157</ele>
        <time>2025-07-17T07:33:24.071Z</time>
      </trkpt>
      <trkpt lat="44.40806" lon="1.01513">
        <ele>157</ele>
        <time>2025-07-17T07:33:25.072Z</time>
      </trkpt>
      <trkpt lat="44.40806" lon="1.01514">
        <ele>157</ele>
        <time>2025-07-17T07:33:26.071Z</time>
      </trkpt>
      <trkpt lat="44.40807" lon="1.01515">
        <ele>157</ele>
        <time>2025-07-17T07:33:27.071Z</time>
      </trkpt>
      <trkpt lat="44.40807" lon="1.01516">
        <ele>157</ele>
        <time>2025-07-17T07:33:28.072Z</time>
      </trkpt>
      <trkpt lat="44.40808" lon="1.01517">
        <ele>157</ele>
        <time>2025-07-17T07:33:29.071Z</time>
      </trkpt>
      <trkpt lat="44.40809" lon="1.01517">
        <ele>157</ele>
        <time>2025-07-17T07:33:30.072Z</time>
      </trkpt>
      <trkpt lat="44.4081" lon="1.01518">
        <ele>158</ele>
        <time>2025-07-17T07:33:31.072Z</time>
      </trkpt>
      <trkpt lat="44.40811" lon="1.01519">
        <ele>158</ele>
        <time>2025-07-17T07:33:32.071Z</time>
      </trkpt>
      <trkpt lat="44.40811" lon="1.0152">
        <ele>158</ele>
        <time>2025-07-17T07:33:33.072Z</time>
      </trkpt>
      <trkpt lat="44.40812" lon="1.01521">
        <ele>158</ele>
        <time>2025-07-17T07:33:34.071Z</time>
      </trkpt>
      <trkpt lat="44.40813" lon="1.01522">
        <ele>158</ele>
        <time>2025-07-17T07:33:35.071Z</time>
      </trkpt>
      <trkpt lat="44.40814" lon="1.01524">
        <ele>158</ele>
        <time>2025-07-17T07:33:36.071Z</time>
      </trkpt>
      <trkpt lat="44.40815" lon="1.01525">
        <ele>158</ele>
        <time>2025-07-17T07:33:37.071Z</time>
      </trkpt>
      <trkpt lat="44.40817" lon="1.01525">
        <ele>158</ele>
        <time>2025-07-17T07:33:38.071Z</time>
      </trkpt>
      <trkpt lat="44.40817" lon="1.01527">
        <ele>159</ele>
        <time>2025-07-17T07:33:39.071Z</time>
      </trkpt>
      <trkpt lat="44.40817" lon="1.01528">
        <ele>159</ele>
        <time>2025-07-17T07:33:40.071Z</time>
      </trkpt>
      <trkpt lat="44.40818" lon="1.01529">
        <ele>159</ele>
        <time>2025-07-17T07:33:41.071Z</time>
      </trkpt>
      <trkpt lat="44.40818" lon="1.0153">
        <ele>160</ele>
        <time>2025-07-17T07:33:42.071Z</time>
      </trkpt>
      <trkpt lat="44.40819" lon="1.01531">
        <ele>160</ele>
        <time>2025-07-17T07:33:43.071Z</time>
      </trkpt>
      <trkpt lat="44.40819" lon="1.01532">
        <ele>161</ele>
        <time>2025-07-17T07:33:44.071Z</time>
      </trkpt>
      <trkpt lat="44.4082" lon="1.01533">
        <ele>161</ele>
        <time>2025-07-17T07:33:45.072Z</time>
      </trkpt>
      <trkpt lat="44.4082" lon="1.01535">
        <ele>161</ele>
        <time>2025-07-17T07:33:46.071Z</time>
      </trkpt>
      <trkpt lat="44.40819" lon="1.01536">
        <ele>161</ele>
        <time>2025-07-17T07:33:47.071Z</time>
      </trkpt>
      <trkpt lat="44.40819" lon="1.01537">
        <ele>161</ele>
        <time>2025-07-17T07:33:48.071Z</time>
      </trkpt>
      <trkpt lat="44.40818" lon="1.01538">
        <ele>162</ele>
        <time>2025-07-17T07:33:49.072Z</time>
      </trkpt>
      <trkpt lat="44.40818" lon="1.01539">
        <ele>162</ele>
        <time>2025-07-17T07:33:50.072Z</time>
      </trkpt>
      <trkpt lat="44.40818" lon="1.0154">
        <ele>162</ele>
        <time>2025-07-17T07:33:51.071Z</time>
      </trkpt>
      <trkpt lat="44.40818" lon="1.01541">
        <ele>162</ele>
        <time>2025-07-17T07:33:52.072Z</time>
      </trkpt>
      <trkpt lat="44.40819" lon="1.01542">
        <ele>162</ele>
        <time>2025-07-17T07:33:53.072Z</time>
      </trkpt>
      <trkpt lat="44.40819" lon="1.01542">
        <ele>163</ele>
        <time>2025-07-17T07:33:54.072Z</time>
      </trkpt>
      <trkpt lat="44.4082" lon="1.01543">
        <ele>163</ele>
        <time>2025-07-17T07:33:55.072Z</time>
      </trkpt>
      <trkpt lat="44.40821" lon="1.01543">
        <ele>163</ele>
        <time>2025-07-17T07:33:56.071Z</time>
      </trkpt>
      <trkpt lat="44.40821" lon="1.01544">
        <ele>163</ele>
        <time>2025-07-17T07:33:57.072Z</time>
      </trkpt>
      <trkpt lat="44.40821" lon="1.01545">
        <ele>163</ele>
        <time>2025-07-17T07:33:58.072Z</time>
      </trkpt>
      <trkpt lat="44.40822" lon="1.01547">
        <ele>163</ele>
        <time>2025-07-17T07:33:59.071Z</time>
      </trkpt>
      <trkpt lat="44.40824" lon="1.01549">
        <ele>163</ele>
        <time>2025-07-17T07:34:00.071Z</time>
      </trkpt>
      <trkpt lat="44.40824" lon="1.0155">
        <ele>163</ele>
        <time>2025-07-17T07:34:01.071Z</time>
      </trkpt>
      <trkpt lat="44.40824" lon="1.01551">
        <ele>163</ele>
        <time>2025-07-17T07:34:02.071Z</time>
      </trkpt>
      <trkpt lat="44.40824" lon="1.01553">
        <ele>164</ele>
        <time>2025-07-17T07:34:03.071Z</time>
      </trkpt>
      <trkpt lat="44.40823" lon="1.01554">
        <ele>164</ele>
        <time>2025-07-17T07:34:04.071Z</time>
      </trkpt>
      <trkpt lat="44.40823" lon="1.01556">
        <ele>165</ele>
        <time>2025-07-17T07:34:05.071Z</time>
      </trkpt>
      <trkpt lat="44.40823" lon="1.01557">
        <ele>165</ele>
        <time>2025-07-17T07:34:06.071Z</time>
      </trkpt>
      <trkpt lat="44.40824" lon="1.01559">
        <ele>166</ele>
        <time>2025-07-17T07:34:07.072Z</time>
      </trkpt>
      <trkpt lat="44.40824" lon="1.01561">
        <ele>166</ele>
        <time>2025-07-17T07:34:08.071Z</time>
      </trkpt>
      <trkpt lat="44.40824" lon="1.01562">
        <ele>166</ele>
        <time>2025-07-17T07:34:09.072Z</time>
      </trkpt>
      <trkpt lat="44.40826" lon="1.01563">
        <ele>167</ele>
        <time>2025-07-17T07:34:10.071Z</time>
      </trkpt>
      <trkpt lat="44.40827" lon="1.01564">
        <ele>167</ele>
        <time>2025-07-17T07:34:11.071Z</time>
      </trkpt>
      <trkpt lat="44.40828" lon="1.01565">
        <ele>167</ele>
        <time>2025-07-17T07:34:12.071Z</time>
      </trkpt>
      <trkpt lat="44.40829" lon="1.01567">
        <ele>167</ele>
        <time>2025-07-17T07:34:13.072Z</time>
      </trkpt>
      <trkpt lat="44.40829" lon="1.01567">
        <ele>167</ele>
        <time>2025-07-17T07:34:14.071Z</time>
      </trkpt>
      <trkpt lat="44.4083" lon="1.01568">
        <ele>167</ele>
        <time>2025-07-17T07:34:15.072Z</time>
      </trkpt>
      <trkpt lat="44.40831" lon="1.01571">
        <ele>166</ele>
        <time>2025-07-17T07:34:16.071Z</time>
      </trkpt>
      <trkpt lat="44.40833" lon="1.01573">
        <ele>166</ele>
        <time>2025-07-17T07:34:17.071Z</time>
      </trkpt>
      <trkpt lat="44.40835" lon="1.01575">
        <ele>166</ele>
        <time>2025-07-17T07:34:18.071Z</time>
      </trkpt>
      <trkpt lat="44.40836" lon="1.01577">
        <ele>166</ele>
        <time>2025-07-17T07:34:19.071Z</time>
      </trkpt>
      <trkpt lat="44.40836" lon="1.01578">
        <ele>166</ele>
        <time>2025-07-17T07:34:20.071Z</time>
      </trkpt>
      <trkpt lat="44.40836" lon="1.01579">
        <ele>166</ele>
        <time>2025-07-17T07:34:21.071Z</time>
      </trkpt>
      <trkpt lat="44.40836" lon="1.01581">
        <ele>167</ele>
        <time>2025-07-17T07:34:22.072Z</time>
      </trkpt>
      <trkpt lat="44.40835" lon="1.01584">
        <ele>167</ele>
        <time>2025-07-17T07:34:23.071Z</time>
      </trkpt>
      <trkpt lat="44.40836" lon="1.01588">
        <ele>167</ele>
        <time>2025-07-17T07:34:24.072Z</time>
      </trkpt>
      <trkpt lat="44.40836" lon="1.01589">
        <ele>167</ele>
        <time>2025-07-17T07:34:25.071Z</time>
      </trkpt>
      <trkpt lat="44.40836" lon="1.0159">
        <ele>167</ele>
        <time>2025-07-17T07:34:26.071Z</time>
      </trkpt>
      <trkpt lat="44.40837" lon="1.01589">
        <ele>167</ele>
        <time>2025-07-17T07:34:27.072Z</time>
      </trkpt>
      <trkpt lat="44.40838" lon="1.0159">
        <ele>167</ele>
        <time>2025-07-17T07:34:28.071Z</time>
      </trkpt>
      <trkpt lat="44.40838" lon="1.01592">
        <ele>167</ele>
        <time>2025-07-17T07:34:29.071Z</time>
      </trkpt>
      <trkpt lat="44.40838" lon="1.01594">
        <ele>167</ele>
        <time>2025-07-17T07:34:30.072Z</time>
      </trkpt>
      <trkpt lat="44.40838" lon="1.01594">
        <ele>167</ele>
        <time>2025-07-17T07:34:31.071Z</time>
      </trkpt>
      <trkpt lat="44.40839" lon="1.01594">
        <ele>167</ele>
        <time>2025-07-17T07:34:32.072Z</time>
      </trkpt>
      <trkpt lat="44.4084" lon="1.01594">
        <ele>167</ele>
        <time>2025-07-17T07:34:33.071Z</time>
      </trkpt>
      <trkpt lat="44.40841" lon="1.01595">
        <ele>167</ele>
        <time>2025-07-17T07:34:34.072Z</time>
      </trkpt>
      <trkpt lat="44.40842" lon="1.01596">
        <ele>167</ele>
        <time>2025-07-17T07:34:35.071Z</time>
      </trkpt>
      <trkpt lat="44.40844" lon="1.01596">
        <ele>167</ele>
        <time>2025-07-17T07:34:36.071Z</time>
      </trkpt>
      <trkpt lat="44.40845" lon="1.01596">
        <ele>167</ele>
        <time>2025-07-17T07:34:37.071Z</time>
      </trkpt>
      <trkpt lat="44.40847" lon="1.01596">
        <ele>167</ele>
        <time>2025-07-17T07:34:38.071Z</time>
      </trkpt>
      <trkpt lat="44.40849" lon="1.01596">
        <ele>167</ele>
        <time>2025-07-17T07:34:39.071Z</time>
      </trkpt>
      <trkpt lat="44.4085" lon="1.01597">
        <ele>167</ele>
        <time>2025-07-17T07:34:40.072Z</time>
      </trkpt>
      <trkpt lat="44.40851" lon="1.01598">
        <ele>167</ele>
        <time>2025-07-17T07:34:41.071Z</time>
      </trkpt>
      <trkpt lat="44.40852" lon="1.016">
        <ele>167</ele>
        <time>2025-07-17T07:34:42.071Z</time>
      </trkpt>
      <trkpt lat="44.40853" lon="1.01601">
        <ele>167</ele>
        <time>2025-07-17T07:34:43.072Z</time>
      </trkpt>
      <trkpt lat="44.40853" lon="1.01604">
        <ele>166</ele>
        <time>2025-07-17T07:34:44.071Z</time>
      </trkpt>
      <trkpt lat="44.40854" lon="1.01606">
        <ele>166</ele>
        <time>2025-07-17T07:34:45.072Z</time>
      </trkpt>
      <trkpt lat="44.40855" lon="1.01607">
        <ele>166</ele>
        <time>2025-07-17T07:34:46.071Z</time>
      </trkpt>
      <trkpt lat="44.40856" lon="1.01607">
        <ele>166</ele>
        <time>2025-07-17T07:34:47.071Z</time>
      </trkpt>
      <trkpt lat="44.40857" lon="1.01607">
        <ele>166</ele>
        <time>2025-07-17T07:34:48.071Z</time>
      </trkpt>
      <trkpt lat="44.40858" lon="1.01607">
        <ele>166</ele>
        <time>2025-07-17T07:34:49.072Z</time>
      </trkpt>
      <trkpt lat="44.40859" lon="1.01609">
        <ele>166</ele>
        <time>2025-07-17T07:34:50.071Z</time>
      </trkpt>
      <trkpt lat="44.40861" lon="1.01609">
        <ele>166</ele>
        <time>2025-07-17T07:34:51.072Z</time>
      </trkpt>
      <trkpt lat="44.40862" lon="1.0161">
        <ele>166</ele>
        <time>2025-07-17T07:34:52.072Z</time>
      </trkpt>
      <trkpt lat="44.40864" lon="1.01611">
        <ele>166</ele>
        <time>2025-07-17T07:34:53.071Z</time>
      </trkpt>
      <trkpt lat="44.40865" lon="1.01612">
        <ele>166</ele>
        <time>2025-07-17T07:34:54.071Z</time>
      </trkpt>
      <trkpt lat="44.40866" lon="1.01613">
        <ele>166</ele>
        <time>2025-07-17T07:34:55.071Z</time>
      </trkpt>
      <trkpt lat="44.40867" lon="1.01614">
        <ele>166</ele>
        <time>2025-07-17T07:34:56.071Z</time>
      </trkpt>
      <trkpt lat="44.40866" lon="1.01615">
        <ele>166</ele>
        <time>2025-07-17T07:34:57.071Z</time>
      </trkpt>
      <trkpt lat="44.40866" lon="1.01617">
        <ele>166</ele>
        <time>2025-07-17T07:34:58.071Z</time>
      </trkpt>
      <trkpt lat="44.40868" lon="1.01618">
        <ele>166</ele>
        <time>2025-07-17T07:34:59.071Z</time>
      </trkpt>
      <trkpt lat="44.40869" lon="1.0162">
        <ele>166</ele>
        <time>2025-07-17T07:35:00.072Z</time>
      </trkpt>
      <trkpt lat="44.4087" lon="1.0162">
        <ele>166</ele>
        <time>2025-07-17T07:35:01.071Z</time>
      </trkpt>
      <trkpt lat="44.4087" lon="1.01621">
        <ele>166</ele>
        <time>2025-07-17T07:35:02.072Z</time>
      </trkpt>
      <trkpt lat="44.40871" lon="1.01621">
        <ele>166</ele>
        <time>2025-07-17T07:35:03.071Z</time>
      </trkpt>
      <trkpt lat="44.40871" lon="1.01622">
        <ele>165</ele>
        <time>2025-07-17T07:35:04.072Z</time>
      </trkpt>
      <trkpt lat="44.40872" lon="1.01622">
        <ele>165</ele>
        <time>2025-07-17T07:35:05.071Z</time>
      </trkpt>
      <trkpt lat="44.40872" lon="1.01623">
        <ele>165</ele>
        <time>2025-07-17T07:35:06.071Z</time>
      </trkpt>
      <trkpt lat="44.40873" lon="1.01624">
        <ele>165</ele>
        <time>2025-07-17T07:35:07.071Z</time>
      </trkpt>
      <trkpt lat="44.40874" lon="1.01626">
        <ele>165</ele>
        <time>2025-07-17T07:35:08.071Z</time>
      </trkpt>
      <trkpt lat="44.40876" lon="1.01627">
        <ele>166</ele>
        <time>2025-07-17T07:35:09.072Z</time>
      </trkpt>
      <trkpt lat="44.40877" lon="1.01628">
        <ele>166</ele>
        <time>2025-07-17T07:35:10.071Z</time>
      </trkpt>
      <trkpt lat="44.40878" lon="1.0163">
        <ele>166</ele>
        <time>2025-07-17T07:35:11.071Z</time>
      </trkpt>
      <trkpt lat="44.40879" lon="1.01632">
        <ele>166</ele>
        <time>2025-07-17T07:35:12.071Z</time>
      </trkpt>
      <trkpt lat="44.4088" lon="1.01635">
        <ele>166</ele>
        <time>2025-07-17T07:35:13.072Z</time>
      </trkpt>
      <trkpt lat="44.40881" lon="1.01637">
        <ele>166</ele>
        <time>2025-07-17T07:35:14.071Z</time>
      </trkpt>
      <trkpt lat="44.40882" lon="1.01638">
        <ele>166</ele>
        <time>2025-07-17T07:35:15.071Z</time>
      </trkpt>
      <trkpt lat="44.40883" lon="1.01638">
        <ele>167</ele>
        <time>2025-07-17T07:35:16.072Z</time>
      </trkpt>
      <trkpt lat="44.40884" lon="1.01639">
        <ele>167</ele>
        <time>2025-07-17T07:35:17.071Z</time>
      </trkpt>
      <trkpt lat="44.40884" lon="1.0164">
        <ele>167</ele>
        <time>2025-07-17T07:35:18.071Z</time>
      </trkpt>
      <trkpt lat="44.40884" lon="1.0164">
        <ele>167</ele>
        <time>2025-07-17T07:35:19.071Z</time>
      </trkpt>
      <trkpt lat="44.40885" lon="1.01641">
        <ele>167</ele>
        <time>2025-07-17T07:35:20.071Z</time>
      </trkpt>
      <trkpt lat="44.40886" lon="1.01641">
        <ele>167</ele>
        <time>2025-07-17T07:35:21.072Z</time>
      </trkpt>
      <trkpt lat="44.40887" lon="1.01641">
        <ele>167</ele>
        <time>2025-07-17T07:35:22.071Z</time>
      </trkpt>
      <trkpt lat="44.40888" lon="1.01642">
        <ele>167</ele>
        <time>2025-07-17T07:35:23.071Z</time>
      </trkpt>
      <trkpt lat="44.40889" lon="1.01643">
        <ele>168</ele>
        <time>2025-07-17T07:35:24.071Z</time>
      </trkpt>
      <trkpt lat="44.40891" lon="1.01644">
        <ele>168</ele>
        <time>2025-07-17T07:35:25.071Z</time>
      </trkpt>
      <trkpt lat="44.40891" lon="1.01645">
        <ele>168</ele>
        <time>2025-07-17T07:35:26.071Z</time>
      </trkpt>
      <trkpt lat="44.40892" lon="1.01647">
        <ele>168</ele>
        <time>2025-07-17T07:35:27.071Z</time>
      </trkpt>
      <trkpt lat="44.40892" lon="1.01648">
        <ele>168</ele>
        <time>2025-07-17T07:35:28.071Z</time>
      </trkpt>
      <trkpt lat="44.40893" lon="1.01649">
        <ele>168</ele>
        <time>2025-07-17T07:35:29.071Z</time>
      </trkpt>
      <trkpt lat="44.40893" lon="1.01649">
        <ele>168</ele>
        <time>2025-07-17T07:35:30.072Z</time>
      </trkpt>
      <trkpt lat="44.40894" lon="1.0165">
        <ele>168</ele>
        <time>2025-07-17T07:35:31.072Z</time>
      </trkpt>
      <trkpt lat="44.40894" lon="1.01651">
        <ele>167</ele>
        <time>2025-07-17T07:35:32.071Z</time>
      </trkpt>
      <trkpt lat="44.40895" lon="1.01651">
        <ele>167</ele>
        <time>2025-07-17T07:35:33.071Z</time>
      </trkpt>
      <trkpt lat="44.40896" lon="1.01652">
        <ele>167</ele>
        <time>2025-07-17T07:35:34.071Z</time>
      </trkpt>
      <trkpt lat="44.40898" lon="1.01653">
        <ele>167</ele>
        <time>2025-07-17T07:35:35.071Z</time>
      </trkpt>
      <trkpt lat="44.40899" lon="1.01653">
        <ele>167</ele>
        <time>2025-07-17T07:35:36.072Z</time>
      </trkpt>
      <trkpt lat="44.40899" lon="1.01653">
        <ele>167</ele>
        <time>2025-07-17T07:35:37.072Z</time>
      </trkpt>
      <trkpt lat="44.409" lon="1.01653">
        <ele>167</ele>
        <time>2025-07-17T07:35:38.071Z</time>
      </trkpt>
      <trkpt lat="44.409" lon="1.01654">
        <ele>167</ele>
        <time>2025-07-17T07:35:39.072Z</time>
      </trkpt>
      <trkpt lat="44.409" lon="1.01656">
        <ele>167</ele>
        <time>2025-07-17T07:35:40.071Z</time>
      </trkpt>
      <trkpt lat="44.40901" lon="1.01657">
        <ele>167</ele>
        <time>2025-07-17T07:35:41.071Z</time>
      </trkpt>
      <trkpt lat="44.40903" lon="1.01656">
        <ele>167</ele>
        <time>2025-07-17T07:35:42.071Z</time>
      </trkpt>
      <trkpt lat="44.40905" lon="1.01656">
        <ele>167</ele>
        <time>2025-07-17T07:35:43.071Z</time>
      </trkpt>
      <trkpt lat="44.40907" lon="1.01657">
        <ele>167</ele>
        <time>2025-07-17T07:35:44.071Z</time>
      </trkpt>
      <trkpt lat="44.40909" lon="1.01657">
        <ele>167</ele>
        <time>2025-07-17T07:35:45.072Z</time>
      </trkpt>
      <trkpt lat="44.4091" lon="1.01657">
        <ele>168</ele>
        <time>2025-07-17T07:35:46.071Z</time>
      </trkpt>
      <trkpt lat="44.40911" lon="1.01657">
        <ele>168</ele>
        <time>2025-07-17T07:35:47.072Z</time>
      </trkpt>
      <trkpt lat="44.40912" lon="1.01657">
        <ele>168</ele>
        <time>2025-07-17T07:35:48.072Z</time>
      </trkpt>
      <trkpt lat="44.40912" lon="1.01658">
        <ele>168</ele>
        <time>2025-07-17T07:35:49.071Z</time>
      </trkpt>
      <trkpt lat="44.40913" lon="1.01659">
        <ele>168</ele>
        <time>2025-07-17T07:35:50.071Z</time>
      </trkpt>
      <trkpt lat="44.40914" lon="1.01659">
        <ele>168</ele>
        <time>2025-07-17T07:35:51.072Z</time>
      </trkpt>
      <trkpt lat="44.40914" lon="1.0166">
        <ele>168</ele>
        <time>2025-07-17T07:35:52.072Z</time>
      </trkpt>
      <trkpt lat="44.40915" lon="1.0166">
        <ele>169</ele>
        <time>2025-07-17T07:35:53.071Z</time>
      </trkpt>
      <trkpt lat="44.40915" lon="1.01661">
        <ele>169</ele>
        <time>2025-07-17T07:35:54.072Z</time>
      </trkpt>
      <trkpt lat="44.40915" lon="1.01662">
        <ele>169</ele>
        <time>2025-07-17T07:35:55.071Z</time>
      </trkpt>
      <trkpt lat="44.40915" lon="1.01663">
        <ele>170</ele>
        <time>2025-07-17T07:35:56.072Z</time>
      </trkpt>
      <trkpt lat="44.40915" lon="1.01664">
        <ele>170</ele>
        <time>2025-07-17T07:35:57.071Z</time>
      </trkpt>
      <trkpt lat="44.40916" lon="1.01665">
        <ele>170</ele>
        <time>2025-07-17T07:35:58.071Z</time>
      </trkpt>
      <trkpt lat="44.40917" lon="1.01665">
        <ele>171</ele>
        <time>2025-07-17T07:35:59.072Z</time>
      </trkpt>
      <trkpt lat="44.40918" lon="1.01665">
        <ele>171</ele>
        <time>2025-07-17T07:36:00.071Z</time>
      </trkpt>
      <trkpt lat="44.40919" lon="1.01664">
        <ele>171</ele>
        <time>2025-07-17T07:36:01.072Z</time>
      </trkpt>
      <trkpt lat="44.40919" lon="1.01664">
        <ele>172</ele>
        <time>2025-07-17T07:36:02.071Z</time>
      </trkpt>
      <trkpt lat="44.4092" lon="1.01665">
        <ele>172</ele>
        <time>2025-07-17T07:36:03.072Z</time>
      </trkpt>
      <trkpt lat="44.4092" lon="1.01665">
        <ele>172</ele>
        <time>2025-07-17T07:36:04.072Z</time>
      </trkpt>
      <trkpt lat="44.40921" lon="1.01666">
        <ele>172</ele>
        <time>2025-07-17T07:36:05.072Z</time>
      </trkpt>
      <trkpt lat="44.40921" lon="1.01666">
        <ele>172</ele>
        <time>2025-07-17T07:36:06.071Z</time>
      </trkpt>
      <trkpt lat="44.40922" lon="1.01667">
        <ele>173</ele>
        <time>2025-07-17T07:36:07.071Z</time>
      </trkpt>
      <trkpt lat="44.40922" lon="1.01667">
        <ele>173</ele>
        <time>2025-07-17T07:36:08.071Z</time>
      </trkpt>
      <trkpt lat="44.40922" lon="1.01668">
        <ele>174</ele>
        <time>2025-07-17T07:36:09.071Z</time>
      </trkpt>
      <trkpt lat="44.40923" lon="1.01668">
        <ele>174</ele>
        <time>2025-07-17T07:36:10.072Z</time>
      </trkpt>
      <trkpt lat="44.40923" lon="1.01668">
        <ele>174</ele>
        <time>2025-07-17T07:36:11.071Z</time>
      </trkpt>
      <trkpt lat="44.40924" lon="1.01669">
        <ele>175</ele>
        <time>2025-07-17T07:36:12.071Z</time>
      </trkpt>
      <trkpt lat="44.40925" lon="1.0167">
        <ele>175</ele>
        <time>2025-07-17T07:36:13.071Z</time>
      </trkpt>
      <trkpt lat="44.40927" lon="1.01671">
        <ele>175</ele>
        <time>2025-07-17T07:36:14.071Z</time>
      </trkpt>
      <trkpt lat="44.40929" lon="1.01672">
        <ele>175</ele>
        <time>2025-07-17T07:36:15.071Z</time>
      </trkpt>
      <trkpt lat="44.40929" lon="1.01672">
        <ele>175</ele>
        <time>2025-07-17T07:36:16.072Z</time>
      </trkpt>
      <trkpt lat="44.40929" lon="1.01672">
        <ele>175</ele>
        <time>2025-07-17T07:36:17.071Z</time>
      </trkpt>
      <trkpt lat="44.4093" lon="1.01673">
        <ele>175</ele>
        <time>2025-07-17T07:36:18.071Z</time>
      </trkpt>
      <trkpt lat="44.40931" lon="1.01674">
        <ele>175</ele>
        <time>2025-07-17T07:36:19.071Z</time>
      </trkpt>
      <trkpt lat="44.40931" lon="1.01674">
        <ele>175</ele>
        <time>2025-07-17T07:36:20.071Z</time>
      </trkpt>
      <trkpt lat="44.40932" lon="1.01675">
        <ele>174</ele>
        <time>2025-07-17T07:36:21.071Z</time>
      </trkpt>
      <trkpt lat="44.40932" lon="1.01676">
        <ele>174</ele>
        <time>2025-07-17T07:36:22.072Z</time>
      </trkpt>
      <trkpt lat="44.40933" lon="1.01677">
        <ele>174</ele>
        <time>2025-07-17T07:36:23.071Z</time>
      </trkpt>
      <trkpt lat="44.40933" lon="1.01678">
        <ele>173</ele>
        <time>2025-07-17T07:36:24.072Z</time>
      </trkpt>
      <trkpt lat="44.40933" lon="1.01678">
        <ele>173</ele>
        <time>2025-07-17T07:36:25.071Z</time>
      </trkpt>
      <trkpt lat="44.40934" lon="1.0168">
        <ele>173</ele>
        <time>2025-07-17T07:36:26.071Z</time>
      </trkpt>
      <trkpt lat="44.40934" lon="1.01682">
        <ele>173</ele>
        <time>2025-07-17T07:36:27.072Z</time>
      </trkpt>
      <trkpt lat="44.40934" lon="1.01683">
        <ele>173</ele>
        <time>2025-07-17T07:36:28.071Z</time>
      </trkpt>
      <trkpt lat="44.40934" lon="1.01685">
        <ele>173</ele>
        <time>2025-07-17T07:36:29.071Z</time>
      </trkpt>
      <trkpt lat="44.40934" lon="1.01687">
        <ele>173</ele>
        <time>2025-07-17T07:36:30.071Z</time>
      </trkpt>
      <trkpt lat="44.40934" lon="1.01688">
        <ele>173</ele>
        <time>2025-07-17T07:36:31.071Z</time>
      </trkpt>
      <trkpt lat="44.40933" lon="1.0169">
        <ele>173</ele>
        <time>2025-07-17T07:36:32.071Z</time>
      </trkpt>
      <trkpt lat="44.40933" lon="1.01693">
        <ele>174</ele>
        <time>2025-07-17T07:36:33.072Z</time>
      </trkpt>
      <trkpt lat="44.40932" lon="1.01694">
        <ele>174</ele>
        <time>2025-07-17T07:36:34.072Z</time>
      </trkpt>
      <trkpt lat="44.40932" lon="1.01695">
        <ele>174</ele>
        <time>2025-07-17T07:36:35.071Z</time>
      </trkpt>
      <trkpt lat="44.40932" lon="1.01696">
        <ele>174</ele>
        <time>2025-07-17T07:36:36.071Z</time>
      </trkpt>
      <trkpt lat="44.40932" lon="1.01696">
        <ele>174</ele>
        <time>2025-07-17T07:36:37.072Z</time>
      </trkpt>
      <trkpt lat="44.40932" lon="1.01696">
        <ele>174</ele>
        <time>2025-07-17T07:36:38.071Z</time>
      </trkpt>
      <trkpt lat="44.40931" lon="1.01699">
        <ele>175</ele>
        <time>2025-07-17T07:36:39.071Z</time>
      </trkpt>
      <trkpt lat="44.40931" lon="1.01699">
        <ele>175</ele>
        <time>2025-07-17T07:36:40.072Z</time>
      </trkpt>
      <trkpt lat="44.40931" lon="1.01699">
        <ele>175</ele>
        <time>2025-07-17T07:36:41.072Z</time>
      </trkpt>
      <trkpt lat="44.4093" lon="1.01698">
        <ele>175</ele>
        <time>2025-07-17T07:36:42.072Z</time>
      </trkpt>
      <trkpt lat="44.4093" lon="1.01698">
        <ele>175</ele>
        <time>2025-07-17T07:36:43.072Z</time>
      </trkpt>
      <trkpt lat="44.4093" lon="1.01698">
        <ele>175</ele>
        <time>2025-07-17T07:36:44.071Z</time>
      </trkpt>
      <trkpt lat="44.4093" lon="1.01698">
        <ele>175</ele>
        <time>2025-07-17T07:36:45.071Z</time>
      </trkpt>
      <trkpt lat="44.4093" lon="1.01698">
        <ele>175</ele>
        <time>2025-07-17T07:36:46.072Z</time>
      </trkpt>
      <trkpt lat="44.4093" lon="1.01698">
        <ele>175</ele>
        <time>2025-07-17T07:36:47.071Z</time>
      </trkpt>
      <trkpt lat="44.4093" lon="1.01698">
        <ele>175</ele>
        <time>2025-07-17T07:36:48.071Z</time>
      </trkpt>
      <trkpt lat="44.4093" lon="1.01697">
        <ele>175</ele>
        <time>2025-07-17T07:36:49.071Z</time>
      </trkpt>
      <trkpt lat="44.4093" lon="1.01698">
        <ele>175</ele>
        <time>2025-07-17T07:36:50.072Z</time>
      </trkpt>
      <trkpt lat="44.4093" lon="1.01697">
        <ele>175</ele>
        <time>2025-07-17T07:36:51.072Z</time>
      </trkpt>
      <trkpt lat="44.4093" lon="1.01697">
        <ele>175</ele>
        <time>2025-07-17T07:36:52.071Z</time>
      </trkpt>
      <trkpt lat="44.40931" lon="1.01696">
        <ele>175</ele>
        <time>2025-07-17T07:36:53.071Z</time>
      </trkpt>
      <trkpt lat="44.40931" lon="1.01696">
        <ele>175</ele>
        <time>2025-07-17T07:36:54.071Z</time>
      </trkpt>
      <trkpt lat="44.40931" lon="1.01696">
        <ele>175</ele>
        <time>2025-07-17T07:36:55.072Z</time>
      </trkpt>
      <trkpt lat="44.40931" lon="1.01696">
        <ele>175</ele>
        <time>2025-07-17T07:36:56.071Z</time>
      </trkpt>
      <trkpt lat="44.40931" lon="1.01696">
        <ele>175</ele>
        <time>2025-07-17T07:36:57.071Z</time>
      </trkpt>
      <trkpt lat="44.40931" lon="1.01696">
        <ele>175</ele>
        <time>2025-07-17T07:36:58.071Z</time>
      </trkpt>
      <trkpt lat="44.40931" lon="1.01696">
        <ele>175</ele>
        <time>2025-07-17T07:36:59.071Z</time>
      </trkpt>
      <trkpt lat="44.40931" lon="1.01697">
        <ele>175</ele>
        <time>2025-07-17T07:37:00.072Z</time>
      </trkpt>
      <trkpt lat="44.4093" lon="1.01697">
        <ele>175</ele>
        <time>2025-07-17T07:37:01.071Z</time>
      </trkpt>
      <trkpt lat="44.4093" lon="1.01697">
        <ele>175</ele>
        <time>2025-07-17T07:37:02.071Z</time>
      </trkpt>
      <trkpt lat="44.4093" lon="1.01697">
        <ele>175</ele>
        <time>2025-07-17T07:37:03.072Z</time>
      </trkpt>
      <trkpt lat="44.4093" lon="1.01697">
        <ele>175</ele>
        <time>2025-07-17T07:37:04.071Z</time>
      </trkpt>
      <trkpt lat="44.4093" lon="1.01697">
        <ele>176</ele>
        <time>2025-07-17T07:37:05.071Z</time>
      </trkpt>
      <trkpt lat="44.4093" lon="1.01697">
        <ele>176</ele>
        <time>2025-07-17T07:37:06.071Z</time>
      </trkpt>
      <trkpt lat="44.4093" lon="1.01697">
        <ele>176</ele>
        <time>2025-07-17T07:37:07.072Z</time>
      </trkpt>
      <trkpt lat="44.4093" lon="1.01697">
        <ele>176</ele>
        <time>2025-07-17T07:37:08.071Z</time>
      </trkpt>
      <trkpt lat="44.4093" lon="1.01697">
        <ele>176</ele>
        <time>2025-07-17T07:37:09.071Z</time>
      </trkpt>
      <trkpt lat="44.4093" lon="1.01697">
        <ele>176</ele>
        <time>2025-07-17T07:37:10.072Z</time>
      </trkpt>
      <trkpt lat="44.4093" lon="1.01697">
        <ele>176</ele>
        <time>2025-07-17T07:37:11.071Z</time>
      </trkpt>
      <trkpt lat="44.4093" lon="1.01697">
        <ele>177</ele>
        <time>2025-07-17T07:37:12.072Z</time>
      </trkpt>
      <trkpt lat="44.4093" lon="1.01697">
        <ele>177</ele>
        <time>2025-07-17T07:37:13.071Z</time>
      </trkpt>
      <trkpt lat="44.4093" lon="1.01697">
        <ele>177</ele>
        <time>2025-07-17T07:37:14.072Z</time>
      </trkpt>
      <trkpt lat="44.4093" lon="1.01697">
        <ele>178</ele>
        <time>2025-07-17T07:37:15.072Z</time>
      </trkpt>
      <trkpt lat="44.4093" lon="1.01697">
        <ele>178</ele>
        <time>2025-07-17T07:37:16.072Z</time>
      </trkpt>
      <trkpt lat="44.4093" lon="1.01697">
        <ele>178</ele>
        <time>2025-07-17T07:37:17.072Z</time>
      </trkpt>
      <trkpt lat="44.4093" lon="1.01697">
        <ele>178</ele>
        <time>2025-07-17T07:37:18.072Z</time>
      </trkpt>
      <trkpt lat="44.4093" lon="1.01697">
        <ele>178</ele>
        <time>2025-07-17T07:37:19.072Z</time>
      </trkpt>
      <trkpt lat="44.4093" lon="1.01697">
        <ele>178</ele>
        <time>2025-07-17T07:37:20.072Z</time>
      </trkpt>
      <trkpt lat="44.4093" lon="1.01697">
        <ele>179</ele>
        <time>2025-07-17T07:37:21.072Z</time>
      </trkpt>
      <trkpt lat="44.4093" lon="1.01697">
        <ele>178</ele>
        <time>2025-07-17T07:37:22.072Z</time>
      </trkpt>
      <trkpt lat="44.4093" lon="1.01697">
        <ele>178</ele>
        <time>2025-07-17T07:37:23.072Z</time>
      </trkpt>
      <trkpt lat="44.4093" lon="1.01697">
        <ele>178</ele>
        <time>2025-07-17T07:37:24.072Z</time>
      </trkpt>
      <trkpt lat="44.4093" lon="1.01697">
        <ele>178</ele>
        <time>2025-07-17T07:37:25.072Z</time>
      </trkpt>
      <trkpt lat="44.4093" lon="1.01697">
        <ele>177</ele>
        <time>2025-07-17T07:37:26.071Z</time>
      </trkpt>
      <trkpt lat="44.4093" lon="1.01697">
        <ele>177</ele>
        <time>2025-07-17T07:37:27.071Z</time>
      </trkpt>
      <trkpt lat="44.4093" lon="1.01697">
        <ele>177</ele>
        <time>2025-07-17T07:37:28.071Z</time>
      </trkpt>
      <trkpt lat="44.4093" lon="1.01697">
        <ele>176</ele>
        <time>2025-07-17T07:37:29.072Z</time>
      </trkpt>
      <trkpt lat="44.4093" lon="1.01697">
        <ele>176</ele>
        <time>2025-07-17T07:37:30.071Z</time>
      </trkpt>
      <trkpt lat="44.4093" lon="1.01697">
        <ele>175</ele>
        <time>2025-07-17T07:37:31.071Z</time>
      </trkpt>
      <trkpt lat="44.4093" lon="1.01697">
        <ele>175</ele>
        <time>2025-07-17T07:37:32.071Z</time>
      </trkpt>
      <trkpt lat="44.4093" lon="1.01697">
        <ele>175</ele>
        <time>2025-07-17T07:37:33.071Z</time>
      </trkpt>
      <trkpt lat="44.4093" lon="1.01697">
        <ele>175</ele>
        <time>2025-07-17T07:37:34.072Z</time>
      </trkpt>
      <trkpt lat="44.4093" lon="1.01697">
        <ele>174</ele>
        <time>2025-07-17T07:37:35.071Z</time>
      </trkpt>
      <trkpt lat="44.4093" lon="1.01697">
        <ele>174</ele>
        <time>2025-07-17T07:37:36.072Z</time>
      </trkpt>
      <trkpt lat="44.4093" lon="1.01697">
        <ele>174</ele>
        <time>2025-07-17T07:37:37.072Z</time>
      </trkpt>
      <trkpt lat="44.4093" lon="1.01697">
        <ele>174</ele>
        <time>2025-07-17T07:37:38.072Z</time>
      </trkpt>
      <trkpt lat="44.4093" lon="1.01697">
        <ele>174</ele>
        <time>2025-07-17T07:37:39.071Z</time>
      </trkpt>
      <trkpt lat="44.4093" lon="1.01697">
        <ele>174</ele>
        <time>2025-07-17T07:37:40.071Z</time>
      </trkpt>
      <trkpt lat="44.4093" lon="1.01697">
        <ele>174</ele>
        <time>2025-07-17T07:37:41.071Z</time>
      </trkpt>
      <trkpt lat="44.4093" lon="1.01697">
        <ele>174</ele>
        <time>2025-07-17T07:37:42.071Z</time>
      </trkpt>
      <trkpt lat="44.4093" lon="1.01697">
        <ele>174</ele>
        <time>2025-07-17T07:37:43.072Z</time>
      </trkpt>
      <trkpt lat="44.40931" lon="1.01697">
        <ele>174</ele>
        <time>2025-07-17T07:37:44.071Z</time>
      </trkpt>
      <trkpt lat="44.40931" lon="1.01697">
        <ele>173</ele>
        <time>2025-07-17T07:37:45.071Z</time>
      </trkpt>
      <trkpt lat="44.40931" lon="1.01697">
        <ele>173</ele>
        <time>2025-07-17T07:37:46.071Z</time>
      </trkpt>
      <trkpt lat="44.40931" lon="1.01697">
        <ele>173</ele>
        <time>2025-07-17T07:37:47.071Z</time>
      </trkpt>
      <trkpt lat="44.40931" lon="1.01697">
        <ele>173</ele>
        <time>2025-07-17T07:37:48.072Z</time>
      </trkpt>
      <trkpt lat="44.40931" lon="1.01697">
        <ele>173</ele>
        <time>2025-07-17T07:37:49.071Z</time>
      </trkpt>
      <trkpt lat="44.40931" lon="1.01697">
        <ele>173</ele>
        <time>2025-07-17T07:37:50.071Z</time>
      </trkpt>
      <trkpt lat="44.40931" lon="1.01697">
        <ele>174</ele>
        <time>2025-07-17T07:37:51.072Z</time>
      </trkpt>
      <trkpt lat="44.40931" lon="1.01697">
        <ele>174</ele>
        <time>2025-07-17T07:37:52.071Z</time>
      </trkpt>
      <trkpt lat="44.40931" lon="1.01697">
        <ele>174</ele>
        <time>2025-07-17T07:37:53.071Z</time>
      </trkpt>
      <trkpt lat="44.40931" lon="1.01697">
        <ele>175</ele>
        <time>2025-07-17T07:37:54.071Z</time>
      </trkpt>
      <trkpt lat="44.40931" lon="1.01697">
        <ele>176</ele>
        <time>2025-07-17T07:37:55.071Z</time>
      </trkpt>
      <trkpt lat="44.40931" lon="1.01697">
        <ele>176</ele>
        <time>2025-07-17T07:37:56.072Z</time>
      </trkpt>
      <trkpt lat="44.40931" lon="1.01697">
        <ele>177</ele>
        <time>2025-07-17T07:37:57.071Z</time>
      </trkpt>
      <trkpt lat="44.40931" lon="1.01697">
        <ele>177</ele>
        <time>2025-07-17T07:37:58.071Z</time>
      </trkpt>
      <trkpt lat="44.40931" lon="1.01697">
        <ele>177</ele>
        <time>2025-07-17T07:37:59.071Z</time>
      </trkpt>
      <trkpt lat="44.40931" lon="1.01697">
        <ele>178</ele>
        <time>2025-07-17T07:38:00.071Z</time>
      </trkpt>
      <trkpt lat="44.40931" lon="1.01697">
        <ele>178</ele>
        <time>2025-07-17T07:38:01.072Z</time>
      </trkpt>
      <trkpt lat="44.40931" lon="1.01698">
        <ele>178</ele>
        <time>2025-07-17T07:38:02.071Z</time>
      </trkpt>
      <trkpt lat="44.40931" lon="1.01698">
        <ele>178</ele>
        <time>2025-07-17T07:38:03.071Z</time>
      </trkpt>
      <trkpt lat="44.40931" lon="1.01698">
        <ele>177</ele>
        <time>2025-07-17T07:38:04.071Z</time>
      </trkpt>
      <trkpt lat="44.40931" lon="1.01698">
        <ele>177</ele>
        <time>2025-07-17T07:38:05.071Z</time>
      </trkpt>
      <trkpt lat="44.40931" lon="1.01698">
        <ele>177</ele>
        <time>2025-07-17T07:38:06.071Z</time>
      </trkpt>
      <trkpt lat="44.40931" lon="1.01698">
        <ele>177</ele>
        <time>2025-07-17T07:38:07.071Z</time>
      </trkpt>
      <trkpt lat="44.40931" lon="1.01698">
        <ele>177</ele>
        <time>2025-07-17T07:38:08.072Z</time>
      </trkpt>
      <trkpt lat="44.40931" lon="1.01698">
        <ele>178</ele>
        <time>2025-07-17T07:38:09.072Z</time>
      </trkpt>
      <trkpt lat="44.40931" lon="1.01698">
        <ele>178</ele>
        <time>2025-07-17T07:38:10.072Z</time>
      </trkpt>
      <trkpt lat="44.40931" lon="1.01698">
        <ele>178</ele>
        <time>2025-07-17T07:38:11.072Z</time>
      </trkpt>
      <trkpt lat="44.40931" lon="1.01699">
        <ele>178</ele>
        <time>2025-07-17T07:38:12.072Z</time>
      </trkpt>
      <trkpt lat="44.40931" lon="1.01699">
        <ele>179</ele>
        <time>2025-07-17T07:38:13.071Z</time>
      </trkpt>
      <trkpt lat="44.40931" lon="1.01699">
        <ele>179</ele>
        <time>2025-07-17T07:38:14.071Z</time>
      </trkpt>
      <trkpt lat="44.40931" lon="1.01699">
        <ele>179</ele>
        <time>2025-07-17T07:38:15.071Z</time>
      </trkpt>
      <trkpt lat="44.40931" lon="1.01699">
        <ele>178</ele>
        <time>2025-07-17T07:38:16.072Z</time>
      </trkpt>
      <trkpt lat="44.40931" lon="1.01699">
        <ele>178</ele>
        <time>2025-07-17T07:38:17.072Z</time>
      </trkpt>
      <trkpt lat="44.40931" lon="1.01699">
        <ele>178</ele>
        <time>2025-07-17T07:38:18.072Z</time>
      </trkpt>
      <trkpt lat="44.40932" lon="1.01699">
        <ele>178</ele>
        <time>2025-07-17T07:38:19.071Z</time>
      </trkpt>
      <trkpt lat="44.40932" lon="1.01699">
        <ele>177</ele>
        <time>2025-07-17T07:38:20.071Z</time>
      </trkpt>
      <trkpt lat="44.40931" lon="1.01699">
        <ele>177</ele>
        <time>2025-07-17T07:38:21.071Z</time>
      </trkpt>
      <trkpt lat="44.40931" lon="1.017">
        <ele>177</ele>
        <time>2025-07-17T07:38:22.071Z</time>
      </trkpt>
      <trkpt lat="44.40931" lon="1.017">
        <ele>177</ele>
        <time>2025-07-17T07:38:23.071Z</time>
      </trkpt>
      <trkpt lat="44.40931" lon="1.017">
        <ele>177</ele>
        <time>2025-07-17T07:38:24.071Z</time>
      </trkpt>
      <trkpt lat="44.40931" lon="1.017">
        <ele>178</ele>
        <time>2025-07-17T07:38:25.071Z</time>
      </trkpt>
      <trkpt lat="44.40931" lon="1.017">
        <ele>178</ele>
        <time>2025-07-17T07:38:26.072Z</time>
      </trkpt>
      <trkpt lat="44.40932" lon="1.01701">
        <ele>178</ele>
        <time>2025-07-17T07:38:27.071Z</time>
      </trkpt>
      <trkpt lat="44.40932" lon="1.01701">
        <ele>177</ele>
        <time>2025-07-17T07:38:28.071Z</time>
      </trkpt>
      <trkpt lat="44.40933" lon="1.01701">
        <ele>177</ele>
        <time>2025-07-17T07:38:29.071Z</time>
      </trkpt>
      <trkpt lat="44.40933" lon="1.01701">
        <ele>177</ele>
        <time>2025-07-17T07:38:30.071Z</time>
      </trkpt>
      <trkpt lat="44.40933" lon="1.01701">
        <ele>177</ele>
        <time>2025-07-17T07:38:31.071Z</time>
      </trkpt>
      <trkpt lat="44.40933" lon="1.01701">
        <ele>177</ele>
        <time>2025-07-17T07:38:32.071Z</time>
      </trkpt>
      <trkpt lat="44.40933" lon="1.01701">
        <ele>176</ele>
        <time>2025-07-17T07:38:33.072Z</time>
      </trkpt>
      <trkpt lat="44.40933" lon="1.01702">
        <ele>176</ele>
        <time>2025-07-17T07:38:34.071Z</time>
      </trkpt>
      <trkpt lat="44.40933" lon="1.01703">
        <ele>176</ele>
        <time>2025-07-17T07:38:35.071Z</time>
      </trkpt>
      <trkpt lat="44.40933" lon="1.01704">
        <ele>175</ele>
        <time>2025-07-17T07:38:36.071Z</time>
      </trkpt>
      <trkpt lat="44.40933" lon="1.01705">
        <ele>175</ele>
        <time>2025-07-17T07:38:37.072Z</time>
      </trkpt>
      <trkpt lat="44.40933" lon="1.01706">
        <ele>175</ele>
        <time>2025-07-17T07:38:38.071Z</time>
      </trkpt>
      <trkpt lat="44.40933" lon="1.01706">
        <ele>175</ele>
        <time>2025-07-17T07:38:39.071Z</time>
      </trkpt>
      <trkpt lat="44.40933" lon="1.01706">
        <ele>174</ele>
        <time>2025-07-17T07:38:40.072Z</time>
      </trkpt>
      <trkpt lat="44.40932" lon="1.01708">
        <ele>174</ele>
        <time>2025-07-17T07:38:41.071Z</time>
      </trkpt>
      <trkpt lat="44.40932" lon="1.01709">
        <ele>174</ele>
        <time>2025-07-17T07:38:42.071Z</time>
      </trkpt>
      <trkpt lat="44.40931" lon="1.0171">
        <ele>173</ele>
        <time>2025-07-17T07:38:43.072Z</time>
      </trkpt>
      <trkpt lat="44.40931" lon="1.01711">
        <ele>173</ele>
        <time>2025-07-17T07:38:44.071Z</time>
      </trkpt>
      <trkpt lat="44.40931" lon="1.01711">
        <ele>173</ele>
        <time>2025-07-17T07:38:45.072Z</time>
      </trkpt>
      <trkpt lat="44.40931" lon="1.01711">
        <ele>173</ele>
        <time>2025-07-17T07:38:46.071Z</time>
      </trkpt>
      <trkpt lat="44.40931" lon="1.01711">
        <ele>173</ele>
        <time>2025-07-17T07:38:47.071Z</time>
      </trkpt>
      <trkpt lat="44.40931" lon="1.01712">
        <ele>173</ele>
        <time>2025-07-17T07:38:48.071Z</time>
      </trkpt>
      <trkpt lat="44.40931" lon="1.01713">
        <ele>173</ele>
        <time>2025-07-17T07:38:49.072Z</time>
      </trkpt>
      <trkpt lat="44.40931" lon="1.01714">
        <ele>173</ele>
        <time>2025-07-17T07:38:50.071Z</time>
      </trkpt>
      <trkpt lat="44.40931" lon="1.01715">
        <ele>173</ele>
        <time>2025-07-17T07:38:51.071Z</time>
      </trkpt>
      <trkpt lat="44.40931" lon="1.01716">
        <ele>173</ele>
        <time>2025-07-17T07:38:52.071Z</time>
      </trkpt>
      <trkpt lat="44.4093" lon="1.01718">
        <ele>173</ele>
        <time>2025-07-17T07:38:53.071Z</time>
      </trkpt>
      <trkpt lat="44.4093" lon="1.01719">
        <ele>173</ele>
        <time>2025-07-17T07:38:54.071Z</time>
      </trkpt>
      <trkpt lat="44.4093" lon="1.01721">
        <ele>173</ele>
        <time>2025-07-17T07:38:55.071Z</time>
      </trkpt>
      <trkpt lat="44.4093" lon="1.01722">
        <ele>173</ele>
        <time>2025-07-17T07:38:56.072Z</time>
      </trkpt>
      <trkpt lat="44.4093" lon="1.01723">
        <ele>173</ele>
        <time>2025-07-17T07:38:57.071Z</time>
      </trkpt>
      <trkpt lat="44.4093" lon="1.01724">
        <ele>173</ele>
        <time>2025-07-17T07:38:58.071Z</time>
      </trkpt>
      <trkpt lat="44.4093" lon="1.01725">
        <ele>173</ele>
        <time>2025-07-17T07:38:59.071Z</time>
      </trkpt>
      <trkpt lat="44.4093" lon="1.01726">
        <ele>173</ele>
        <time>2025-07-17T07:39:00.071Z</time>
      </trkpt>
      <trkpt lat="44.4093" lon="1.01727">
        <ele>173</ele>
        <time>2025-07-17T07:39:01.071Z</time>
      </trkpt>
      <trkpt lat="44.4093" lon="1.01729">
        <ele>174</ele>
        <time>2025-07-17T07:39:02.071Z</time>
      </trkpt>
      <trkpt lat="44.4093" lon="1.01731">
        <ele>174</ele>
        <time>2025-07-17T07:39:03.072Z</time>
      </trkpt>
      <trkpt lat="44.40929" lon="1.01732">
        <ele>175</ele>
        <time>2025-07-17T07:39:04.072Z</time>
      </trkpt>
      <trkpt lat="44.40928" lon="1.01734">
        <ele>175</ele>
        <time>2025-07-17T07:39:05.071Z</time>
      </trkpt>
      <trkpt lat="44.40926" lon="1.01736">
        <ele>175</ele>
        <time>2025-07-17T07:39:06.071Z</time>
      </trkpt>
      <trkpt lat="44.40926" lon="1.01737">
        <ele>176</ele>
        <time>2025-07-17T07:39:07.071Z</time>
      </trkpt>
      <trkpt lat="44.40925" lon="1.01739">
        <ele>176</ele>
        <time>2025-07-17T07:39:08.071Z</time>
      </trkpt>
      <trkpt lat="44.40925" lon="1.0174">
        <ele>177</ele>
        <time>2025-07-17T07:39:09.072Z</time>
      </trkpt>
      <trkpt lat="44.40925" lon="1.01741">
        <ele>177</ele>
        <time>2025-07-17T07:39:10.071Z</time>
      </trkpt>
      <trkpt lat="44.40926" lon="1.01742">
        <ele>178</ele>
        <time>2025-07-17T07:39:11.072Z</time>
      </trkpt>
      <trkpt lat="44.40926" lon="1.01742">
        <ele>178</ele>
        <time>2025-07-17T07:39:12.071Z</time>
      </trkpt>
      <trkpt lat="44.40925" lon="1.01743">
        <ele>179</ele>
        <time>2025-07-17T07:39:13.071Z</time>
      </trkpt>
      <trkpt lat="44.40925" lon="1.01745">
        <ele>179</ele>
        <time>2025-07-17T07:39:14.071Z</time>
      </trkpt>
      <trkpt lat="44.40924" lon="1.01747">
        <ele>179</ele>
        <time>2025-07-17T07:39:15.071Z</time>
      </trkpt>
      <trkpt lat="44.40923" lon="1.01748">
        <ele>179</ele>
        <time>2025-07-17T07:39:16.071Z</time>
      </trkpt>
      <trkpt lat="44.40923" lon="1.0175">
        <ele>179</ele>
        <time>2025-07-17T07:39:17.071Z</time>
      </trkpt>
      <trkpt lat="44.40922" lon="1.01752">
        <ele>179</ele>
        <time>2025-07-17T07:39:18.071Z</time>
      </trkpt>
      <trkpt lat="44.40922" lon="1.01753">
        <ele>178</ele>
        <time>2025-07-17T07:39:19.071Z</time>
      </trkpt>
      <trkpt lat="44.40922" lon="1.01754">
        <ele>178</ele>
        <time>2025-07-17T07:39:20.071Z</time>
      </trkpt>
      <trkpt lat="44.40921" lon="1.01755">
        <ele>179</ele>
        <time>2025-07-17T07:39:21.071Z</time>
      </trkpt>
      <trkpt lat="44.40921" lon="1.01756">
        <ele>179</ele>
        <time>2025-07-17T07:39:22.071Z</time>
      </trkpt>
      <trkpt lat="44.40921" lon="1.01758">
        <ele>179</ele>
        <time>2025-07-17T07:39:23.071Z</time>
      </trkpt>
      <trkpt lat="44.4092" lon="1.0176">
        <ele>179</ele>
        <time>2025-07-17T07:39:24.072Z</time>
      </trkpt>
      <trkpt lat="44.4092" lon="1.0176">
        <ele>179</ele>
        <time>2025-07-17T07:39:25.071Z</time>
      </trkpt>
      <trkpt lat="44.40919" lon="1.01762">
        <ele>179</ele>
        <time>2025-07-17T07:39:26.071Z</time>
      </trkpt>
      <trkpt lat="44.40919" lon="1.01763">
        <ele>179</ele>
        <time>2025-07-17T07:39:27.072Z</time>
      </trkpt>
      <trkpt lat="44.40919" lon="1.01763">
        <ele>179</ele>
        <time>2025-07-17T07:39:28.072Z</time>
      </trkpt>
      <trkpt lat="44.40919" lon="1.01764">
        <ele>179</ele>
        <time>2025-07-17T07:39:29.071Z</time>
      </trkpt>
      <trkpt lat="44.40919" lon="1.01766">
        <ele>179</ele>
        <time>2025-07-17T07:39:30.071Z</time>
      </trkpt>
      <trkpt lat="44.40919" lon="1.01768">
        <ele>178</ele>
        <time>2025-07-17T07:39:31.071Z</time>
      </trkpt>
      <trkpt lat="44.40918" lon="1.0177">
        <ele>178</ele>
        <time>2025-07-17T07:39:32.071Z</time>
      </trkpt>
      <trkpt lat="44.40917" lon="1.01773">
        <ele>178</ele>
        <time>2025-07-17T07:39:33.071Z</time>
      </trkpt>
      <trkpt lat="44.40916" lon="1.01776">
        <ele>178</ele>
        <time>2025-07-17T07:39:34.071Z</time>
      </trkpt>
      <trkpt lat="44.40913" lon="1.01779">
        <ele>178</ele>
        <time>2025-07-17T07:39:35.071Z</time>
      </trkpt>
      <trkpt lat="44.40911" lon="1.01781">
        <ele>178</ele>
        <time>2025-07-17T07:39:36.071Z</time>
      </trkpt>
      <trkpt lat="44.4091" lon="1.01782">
        <ele>178</ele>
        <time>2025-07-17T07:39:37.071Z</time>
      </trkpt>
      <trkpt lat="44.40909" lon="1.01783">
        <ele>178</ele>
        <time>2025-07-17T07:39:38.071Z</time>
      </trkpt>
      <trkpt lat="44.40909" lon="1.01784">
        <ele>178</ele>
        <time>2025-07-17T07:39:39.072Z</time>
      </trkpt>
      <trkpt lat="44.40909" lon="1.01786">
        <ele>178</ele>
        <time>2025-07-17T07:39:40.071Z</time>
      </trkpt>
      <trkpt lat="44.40908" lon="1.01787">
        <ele>178</ele>
        <time>2025-07-17T07:39:41.071Z</time>
      </trkpt>
      <trkpt lat="44.40907" lon="1.01789">
        <ele>178</ele>
        <time>2025-07-17T07:39:42.071Z</time>
      </trkpt>
      <trkpt lat="44.40906" lon="1.01791">
        <ele>178</ele>
        <time>2025-07-17T07:39:43.071Z</time>
      </trkpt>
      <trkpt lat="44.40905" lon="1.01792">
        <ele>179</ele>
        <time>2025-07-17T07:39:44.071Z</time>
      </trkpt>
      <trkpt lat="44.40904" lon="1.01793">
        <ele>179</ele>
        <time>2025-07-17T07:39:45.071Z</time>
      </trkpt>
      <trkpt lat="44.40903" lon="1.01794">
        <ele>179</ele>
        <time>2025-07-17T07:39:46.071Z</time>
      </trkpt>
      <trkpt lat="44.40901" lon="1.01796">
        <ele>179</ele>
        <time>2025-07-17T07:39:47.071Z</time>
      </trkpt>
      <trkpt lat="44.40901" lon="1.01797">
        <ele>179</ele>
        <time>2025-07-17T07:39:48.071Z</time>
      </trkpt>
      <trkpt lat="44.409" lon="1.01798">
        <ele>179</ele>
        <time>2025-07-17T07:39:49.072Z</time>
      </trkpt>
      <trkpt lat="44.409" lon="1.01799">
        <ele>179</ele>
        <time>2025-07-17T07:39:50.071Z</time>
      </trkpt>
      <trkpt lat="44.409" lon="1.018">
        <ele>179</ele>
        <time>2025-07-17T07:39:51.071Z</time>
      </trkpt>
      <trkpt lat="44.409" lon="1.01802">
        <ele>179</ele>
        <time>2025-07-17T07:39:52.071Z</time>
      </trkpt>
      <trkpt lat="44.409" lon="1.01803">
        <ele>180</ele>
        <time>2025-07-17T07:39:53.071Z</time>
      </trkpt>
      <trkpt lat="44.409" lon="1.01805">
        <ele>180</ele>
        <time>2025-07-17T07:39:54.071Z</time>
      </trkpt>
      <trkpt lat="44.40901" lon="1.01806">
        <ele>180</ele>
        <time>2025-07-17T07:39:55.071Z</time>
      </trkpt>
      <trkpt lat="44.409" lon="1.01807">
        <ele>181</ele>
        <time>2025-07-17T07:39:56.071Z</time>
      </trkpt>
      <trkpt lat="44.409" lon="1.01808">
        <ele>181</ele>
        <time>2025-07-17T07:39:57.071Z</time>
      </trkpt>
      <trkpt lat="44.40898" lon="1.0181">
        <ele>182</ele>
        <time>2025-07-17T07:39:58.071Z</time>
      </trkpt>
      <trkpt lat="44.40896" lon="1.01812">
        <ele>182</ele>
        <time>2025-07-17T07:39:59.071Z</time>
      </trkpt>
      <trkpt lat="44.40895" lon="1.01813">
        <ele>182</ele>
        <time>2025-07-17T07:40:00.071Z</time>
      </trkpt>
      <trkpt lat="44.40894" lon="1.01814">
        <ele>181</ele>
        <time>2025-07-17T07:40:01.071Z</time>
      </trkpt>
      <trkpt lat="44.40893" lon="1.01814">
        <ele>181</ele>
        <time>2025-07-17T07:40:02.071Z</time>
      </trkpt>
      <trkpt lat="44.40891" lon="1.01815">
        <ele>181</ele>
        <time>2025-07-17T07:40:03.072Z</time>
      </trkpt>
      <trkpt lat="44.40891" lon="1.01815">
        <ele>181</ele>
        <time>2025-07-17T07:40:04.072Z</time>
      </trkpt>
      <trkpt lat="44.4089" lon="1.01815">
        <ele>181</ele>
        <time>2025-07-17T07:40:05.071Z</time>
      </trkpt>
      <trkpt lat="44.40889" lon="1.01816">
        <ele>180</ele>
        <time>2025-07-17T07:40:06.072Z</time>
      </trkpt>
      <trkpt lat="44.40887" lon="1.01817">
        <ele>180</ele>
        <time>2025-07-17T07:40:07.071Z</time>
      </trkpt>
      <trkpt lat="44.40887" lon="1.01817">
        <ele>180</ele>
        <time>2025-07-17T07:40:08.071Z</time>
      </trkpt>
      <trkpt lat="44.40887" lon="1.01816">
        <ele>180</ele>
        <time>2025-07-17T07:40:09.071Z</time>
      </trkpt>
      <trkpt lat="44.40886" lon="1.01818">
        <ele>180</ele>
        <time>2025-07-17T07:40:10.071Z</time>
      </trkpt>
      <trkpt lat="44.40885" lon="1.01819">
        <ele>179</ele>
        <time>2025-07-17T07:40:11.071Z</time>
      </trkpt>
      <trkpt lat="44.40884" lon="1.0182">
        <ele>179</ele>
        <time>2025-07-17T07:40:12.071Z</time>
      </trkpt>
      <trkpt lat="44.40883" lon="1.01821">
        <ele>179</ele>
        <time>2025-07-17T07:40:13.071Z</time>
      </trkpt>
      <trkpt lat="44.40882" lon="1.01822">
        <ele>179</ele>
        <time>2025-07-17T07:40:14.071Z</time>
      </trkpt>
      <trkpt lat="44.40882" lon="1.01822">
        <ele>178</ele>
        <time>2025-07-17T07:40:15.072Z</time>
      </trkpt>
      <trkpt lat="44.40881" lon="1.01823">
        <ele>178</ele>
        <time>2025-07-17T07:40:16.071Z</time>
      </trkpt>
      <trkpt lat="44.4088" lon="1.01825">
        <ele>178</ele>
        <time>2025-07-17T07:40:17.072Z</time>
      </trkpt>
      <trkpt lat="44.40879" lon="1.01826">
        <ele>178</ele>
        <time>2025-07-17T07:40:18.071Z</time>
      </trkpt>
      <trkpt lat="44.40878" lon="1.01827">
        <ele>178</ele>
        <time>2025-07-17T07:40:19.071Z</time>
      </trkpt>
      <trkpt lat="44.40878" lon="1.01828">
        <ele>178</ele>
        <time>2025-07-17T07:40:20.071Z</time>
      </trkpt>
      <trkpt lat="44.40878" lon="1.01829">
        <ele>178</ele>
        <time>2025-07-17T07:40:21.072Z</time>
      </trkpt>
      <trkpt lat="44.40877" lon="1.01831">
        <ele>178</ele>
        <time>2025-07-17T07:40:22.072Z</time>
      </trkpt>
      <trkpt lat="44.40875" lon="1.01832">
        <ele>178</ele>
        <time>2025-07-17T07:40:23.072Z</time>
      </trkpt>
      <trkpt lat="44.40875" lon="1.01832">
        <ele>178</ele>
        <time>2025-07-17T07:40:24.072Z</time>
      </trkpt>
      <trkpt lat="44.40874" lon="1.01834">
        <ele>178</ele>
        <time>2025-07-17T07:40:25.071Z</time>
      </trkpt>
      <trkpt lat="44.40873" lon="1.01834">
        <ele>179</ele>
        <time>2025-07-17T07:40:26.071Z</time>
      </trkpt>
      <trkpt lat="44.40873" lon="1.01835">
        <ele>179</ele>
        <time>2025-07-17T07:40:27.071Z</time>
      </trkpt>
      <trkpt lat="44.40872" lon="1.01835">
        <ele>180</ele>
        <time>2025-07-17T07:40:28.072Z</time>
      </trkpt>
      <trkpt lat="44.4087" lon="1.01835">
        <ele>181</ele>
        <time>2025-07-17T07:40:29.071Z</time>
      </trkpt>
      <trkpt lat="44.40869" lon="1.01835">
        <ele>181</ele>
        <time>2025-07-17T07:40:30.072Z</time>
      </trkpt>
      <trkpt lat="44.40868" lon="1.01836">
        <ele>182</ele>
        <time>2025-07-17T07:40:31.071Z</time>
      </trkpt>
      <trkpt lat="44.40868" lon="1.01836">
        <ele>182</ele>
        <time>2025-07-17T07:40:32.072Z</time>
      </trkpt>
      <trkpt lat="44.40867" lon="1.01839">
        <ele>183</ele>
        <time>2025-07-17T07:40:33.071Z</time>
      </trkpt>
      <trkpt lat="44.40866" lon="1.0184">
        <ele>184</ele>
        <time>2025-07-17T07:40:34.072Z</time>
      </trkpt>
      <trkpt lat="44.40866" lon="1.01843">
        <ele>185</ele>
        <time>2025-07-17T07:40:35.071Z</time>
      </trkpt>
      <trkpt lat="44.40865" lon="1.01844">
        <ele>185</ele>
        <time>2025-07-17T07:40:36.071Z</time>
      </trkpt>
      <trkpt lat="44.40863" lon="1.01845">
        <ele>186</ele>
        <time>2025-07-17T07:40:37.072Z</time>
      </trkpt>
      <trkpt lat="44.40862" lon="1.01846">
        <ele>186</ele>
        <time>2025-07-17T07:40:38.071Z</time>
      </trkpt>
      <trkpt lat="44.40861" lon="1.01847">
        <ele>186</ele>
        <time>2025-07-17T07:40:39.071Z</time>
      </trkpt>
      <trkpt lat="44.4086" lon="1.01849">
        <ele>187</ele>
        <time>2025-07-17T07:40:40.071Z</time>
      </trkpt>
      <trkpt lat="44.4086" lon="1.0185">
        <ele>187</ele>
        <time>2025-07-17T07:40:41.071Z</time>
      </trkpt>
      <trkpt lat="44.40858" lon="1.01851">
        <ele>188</ele>
        <time>2025-07-17T07:40:42.071Z</time>
      </trkpt>
      <trkpt lat="44.40857" lon="1.01852">
        <ele>188</ele>
        <time>2025-07-17T07:40:43.072Z</time>
      </trkpt>
      <trkpt lat="44.40857" lon="1.01853">
        <ele>189</ele>
        <time>2025-07-17T07:40:44.071Z</time>
      </trkpt>
      <trkpt lat="44.40856" lon="1.01854">
        <ele>189</ele>
        <time>2025-07-17T07:40:45.071Z</time>
      </trkpt>
      <trkpt lat="44.40856" lon="1.01854">
        <ele>189</ele>
        <time>2025-07-17T07:40:46.072Z</time>
      </trkpt>
      <trkpt lat="44.40855" lon="1.01855">
        <ele>189</ele>
        <time>2025-07-17T07:40:47.071Z</time>
      </trkpt>
      <trkpt lat="44.40854" lon="1.01856">
        <ele>190</ele>
        <time>2025-07-17T07:40:48.071Z</time>
      </trkpt>
      <trkpt lat="44.40854" lon="1.01856">
        <ele>190</ele>
        <time>2025-07-17T07:40:49.072Z</time>
      </trkpt>
      <trkpt lat="44.40853" lon="1.01857">
        <ele>190</ele>
        <time>2025-07-17T07:40:50.071Z</time>
      </trkpt>
      <trkpt lat="44.40852" lon="1.01858">
        <ele>190</ele>
        <time>2025-07-17T07:40:51.072Z</time>
      </trkpt>
      <trkpt lat="44.40851" lon="1.01858">
        <ele>190</ele>
        <time>2025-07-17T07:40:52.072Z</time>
      </trkpt>
      <trkpt lat="44.40851" lon="1.01859">
        <ele>190</ele>
        <time>2025-07-17T07:40:53.071Z</time>
      </trkpt>
      <trkpt lat="44.4085" lon="1.0186">
        <ele>190</ele>
        <time>2025-07-17T07:40:54.071Z</time>
      </trkpt>
      <trkpt lat="44.40849" lon="1.01861">
        <ele>190</ele>
        <time>2025-07-17T07:40:55.072Z</time>
      </trkpt>
      <trkpt lat="44.40848" lon="1.01862">
        <ele>190</ele>
        <time>2025-07-17T07:40:56.071Z</time>
      </trkpt>
      <trkpt lat="44.40848" lon="1.01863">
        <ele>190</ele>
        <time>2025-07-17T07:40:57.072Z</time>
      </trkpt>
      <trkpt lat="44.40847" lon="1.01865">
        <ele>190</ele>
        <time>2025-07-17T07:40:58.071Z</time>
      </trkpt>
      <trkpt lat="44.40847" lon="1.01866">
        <ele>190</ele>
        <time>2025-07-17T07:40:59.071Z</time>
      </trkpt>
      <trkpt lat="44.40846" lon="1.01867">
        <ele>190</ele>
        <time>2025-07-17T07:41:00.071Z</time>
      </trkpt>
      <trkpt lat="44.40846" lon="1.01868">
        <ele>190</ele>
        <time>2025-07-17T07:41:01.072Z</time>
      </trkpt>
      <trkpt lat="44.40844" lon="1.01871">
        <ele>190</ele>
        <time>2025-07-17T07:41:02.071Z</time>
      </trkpt>
      <trkpt lat="44.40843" lon="1.01872">
        <ele>190</ele>
        <time>2025-07-17T07:41:03.071Z</time>
      </trkpt>
      <trkpt lat="44.40842" lon="1.01872">
        <ele>191</ele>
        <time>2025-07-17T07:41:04.072Z</time>
      </trkpt>
      <trkpt lat="44.40841" lon="1.01873">
        <ele>191</ele>
        <time>2025-07-17T07:41:05.071Z</time>
      </trkpt>
      <trkpt lat="44.4084" lon="1.01874">
        <ele>191</ele>
        <time>2025-07-17T07:41:06.071Z</time>
      </trkpt>
      <trkpt lat="44.4084" lon="1.01876">
        <ele>191</ele>
        <time>2025-07-17T07:41:07.072Z</time>
      </trkpt>
      <trkpt lat="44.4084" lon="1.01878">
        <ele>191</ele>
        <time>2025-07-17T07:41:08.071Z</time>
      </trkpt>
      <trkpt lat="44.4084" lon="1.01879">
        <ele>191</ele>
        <time>2025-07-17T07:41:09.072Z</time>
      </trkpt>
      <trkpt lat="44.40839" lon="1.01879">
        <ele>191</ele>
        <time>2025-07-17T07:41:10.072Z</time>
      </trkpt>
      <trkpt lat="44.40839" lon="1.0188">
        <ele>191</ele>
        <time>2025-07-17T07:41:11.071Z</time>
      </trkpt>
      <trkpt lat="44.40839" lon="1.01881">
        <ele>191</ele>
        <time>2025-07-17T07:41:12.072Z</time>
      </trkpt>
      <trkpt lat="44.40838" lon="1.01882">
        <ele>191</ele>
        <time>2025-07-17T07:41:13.072Z</time>
      </trkpt>
      <trkpt lat="44.40838" lon="1.01883">
        <ele>191</ele>
        <time>2025-07-17T07:41:14.071Z</time>
      </trkpt>
      <trkpt lat="44.40837" lon="1.01885">
        <ele>192</ele>
        <time>2025-07-17T07:41:15.071Z</time>
      </trkpt>
      <trkpt lat="44.40836" lon="1.01887">
        <ele>192</ele>
        <time>2025-07-17T07:41:16.071Z</time>
      </trkpt>
      <trkpt lat="44.40836" lon="1.01888">
        <ele>192</ele>
        <time>2025-07-17T07:41:17.071Z</time>
      </trkpt>
      <trkpt lat="44.40835" lon="1.01889">
        <ele>192</ele>
        <time>2025-07-17T07:41:18.072Z</time>
      </trkpt>
      <trkpt lat="44.40835" lon="1.0189">
        <ele>191</ele>
        <time>2025-07-17T07:41:19.071Z</time>
      </trkpt>
      <trkpt lat="44.40834" lon="1.01891">
        <ele>191</ele>
        <time>2025-07-17T07:41:20.071Z</time>
      </trkpt>
      <trkpt lat="44.40834" lon="1.01892">
        <ele>191</ele>
        <time>2025-07-17T07:41:21.072Z</time>
      </trkpt>
      <trkpt lat="44.40833" lon="1.01893">
        <ele>191</ele>
        <time>2025-07-17T07:41:22.071Z</time>
      </trkpt>
      <trkpt lat="44.40833" lon="1.01894">
        <ele>191</ele>
        <time>2025-07-17T07:41:23.071Z</time>
      </trkpt>
      <trkpt lat="44.40833" lon="1.01895">
        <ele>191</ele>
        <time>2025-07-17T07:41:24.071Z</time>
      </trkpt>
      <trkpt lat="44.40832" lon="1.01896">
        <ele>191</ele>
        <time>2025-07-17T07:41:25.071Z</time>
      </trkpt>
      <trkpt lat="44.40831" lon="1.01897">
        <ele>191</ele>
        <time>2025-07-17T07:41:26.071Z</time>
      </trkpt>
      <trkpt lat="44.40831" lon="1.01899">
        <ele>191</ele>
        <time>2025-07-17T07:41:27.072Z</time>
      </trkpt>
      <trkpt lat="44.40831" lon="1.019">
        <ele>191</ele>
        <time>2025-07-17T07:41:28.071Z</time>
      </trkpt>
      <trkpt lat="44.40831" lon="1.01901">
        <ele>192</ele>
        <time>2025-07-17T07:41:29.071Z</time>
      </trkpt>
      <trkpt lat="44.4083" lon="1.01901">
        <ele>192</ele>
        <time>2025-07-17T07:41:30.071Z</time>
      </trkpt>
      <trkpt lat="44.4083" lon="1.01903">
        <ele>192</ele>
        <time>2025-07-17T07:41:31.071Z</time>
      </trkpt>
      <trkpt lat="44.4083" lon="1.01904">
        <ele>192</ele>
        <time>2025-07-17T07:41:32.071Z</time>
      </trkpt>
      <trkpt lat="44.4083" lon="1.01905">
        <ele>192</ele>
        <time>2025-07-17T07:41:33.072Z</time>
      </trkpt>
      <trkpt lat="44.40829" lon="1.01906">
        <ele>192</ele>
        <time>2025-07-17T07:41:34.071Z</time>
      </trkpt>
      <trkpt lat="44.40829" lon="1.01906">
        <ele>192</ele>
        <time>2025-07-17T07:41:35.072Z</time>
      </trkpt>
      <trkpt lat="44.40829" lon="1.01907">
        <ele>191</ele>
        <time>2025-07-17T07:41:36.071Z</time>
      </trkpt>
      <trkpt lat="44.40828" lon="1.01908">
        <ele>191</ele>
        <time>2025-07-17T07:41:37.071Z</time>
      </trkpt>
      <trkpt lat="44.40827" lon="1.01909">
        <ele>191</ele>
        <time>2025-07-17T07:41:38.072Z</time>
      </trkpt>
      <trkpt lat="44.40827" lon="1.0191">
        <ele>191</ele>
        <time>2025-07-17T07:41:39.071Z</time>
      </trkpt>
      <trkpt lat="44.40827" lon="1.01911">
        <ele>190</ele>
        <time>2025-07-17T07:41:40.072Z</time>
      </trkpt>
      <trkpt lat="44.40826" lon="1.01913">
        <ele>190</ele>
        <time>2025-07-17T07:41:41.071Z</time>
      </trkpt>
      <trkpt lat="44.40826" lon="1.01913">
        <ele>190</ele>
        <time>2025-07-17T07:41:42.072Z</time>
      </trkpt>
      <trkpt lat="44.40825" lon="1.01914">
        <ele>190</ele>
        <time>2025-07-17T07:41:43.071Z</time>
      </trkpt>
      <trkpt lat="44.40824" lon="1.01915">
        <ele>190</ele>
        <time>2025-07-17T07:41:44.071Z</time>
      </trkpt>
      <trkpt lat="44.40824" lon="1.01916">
        <ele>190</ele>
        <time>2025-07-17T07:41:45.072Z</time>
      </trkpt>
      <trkpt lat="44.40823" lon="1.01917">
        <ele>190</ele>
        <time>2025-07-17T07:41:46.071Z</time>
      </trkpt>
      <trkpt lat="44.40823" lon="1.01918">
        <ele>190</ele>
        <time>2025-07-17T07:41:47.071Z</time>
      </trkpt>
      <trkpt lat="44.40822" lon="1.0192">
        <ele>189</ele>
        <time>2025-07-17T07:41:48.071Z</time>
      </trkpt>
      <trkpt lat="44.40821" lon="1.01921">
        <ele>189</ele>
        <time>2025-07-17T07:41:49.072Z</time>
      </trkpt>
      <trkpt lat="44.40821" lon="1.01923">
        <ele>189</ele>
        <time>2025-07-17T07:41:50.071Z</time>
      </trkpt>
      <trkpt lat="44.4082" lon="1.01924">
        <ele>189</ele>
        <time>2025-07-17T07:41:51.071Z</time>
      </trkpt>
      <trkpt lat="44.4082" lon="1.01926">
        <ele>190</ele>
        <time>2025-07-17T07:41:52.071Z</time>
      </trkpt>
      <trkpt lat="44.4082" lon="1.01927">
        <ele>190</ele>
        <time>2025-07-17T07:41:53.071Z</time>
      </trkpt>
      <trkpt lat="44.40819" lon="1.01929">
        <ele>190</ele>
        <time>2025-07-17T07:41:54.071Z</time>
      </trkpt>
      <trkpt lat="44.40819" lon="1.0193">
        <ele>191</ele>
        <time>2025-07-17T07:41:55.071Z</time>
      </trkpt>
      <trkpt lat="44.40818" lon="1.01931">
        <ele>191</ele>
        <time>2025-07-17T07:41:56.072Z</time>
      </trkpt>
      <trkpt lat="44.40817" lon="1.01932">
        <ele>191</ele>
        <time>2025-07-17T07:41:57.071Z</time>
      </trkpt>
      <trkpt lat="44.40817" lon="1.01934">
        <ele>191</ele>
        <time>2025-07-17T07:41:58.071Z</time>
      </trkpt>
      <trkpt lat="44.40815" lon="1.01937">
        <ele>191</ele>
        <time>2025-07-17T07:41:59.071Z</time>
      </trkpt>
      <trkpt lat="44.40815" lon="1.01939">
        <ele>190</ele>
        <time>2025-07-17T07:42:00.071Z</time>
      </trkpt>
      <trkpt lat="44.40814" lon="1.01942">
        <ele>190</ele>
        <time>2025-07-17T07:42:01.071Z</time>
      </trkpt>
      <trkpt lat="44.40813" lon="1.01944">
        <ele>190</ele>
        <time>2025-07-17T07:42:02.071Z</time>
      </trkpt>
      <trkpt lat="44.40812" lon="1.01946">
        <ele>189</ele>
        <time>2025-07-17T07:42:03.071Z</time>
      </trkpt>
      <trkpt lat="44.40812" lon="1.01946">
        <ele>189</ele>
        <time>2025-07-17T07:42:04.071Z</time>
      </trkpt>
      <trkpt lat="44.40811" lon="1.01948">
        <ele>188</ele>
        <time>2025-07-17T07:42:05.071Z</time>
      </trkpt>
      <trkpt lat="44.4081" lon="1.0195">
        <ele>188</ele>
        <time>2025-07-17T07:42:06.071Z</time>
      </trkpt>
      <trkpt lat="44.4081" lon="1.01951">
        <ele>188</ele>
        <time>2025-07-17T07:42:07.071Z</time>
      </trkpt>
      <trkpt lat="44.4081" lon="1.01952">
        <ele>187</ele>
        <time>2025-07-17T07:42:08.071Z</time>
      </trkpt>
      <trkpt lat="44.40809" lon="1.01953">
        <ele>187</ele>
        <time>2025-07-17T07:42:09.071Z</time>
      </trkpt>
      <trkpt lat="44.40809" lon="1.01955">
        <ele>188</ele>
        <time>2025-07-17T07:42:10.072Z</time>
      </trkpt>
      <trkpt lat="44.40809" lon="1.01956">
        <ele>188</ele>
        <time>2025-07-17T07:42:11.071Z</time>
      </trkpt>
      <trkpt lat="44.40809" lon="1.01957">
        <ele>188</ele>
        <time>2025-07-17T07:42:12.071Z</time>
      </trkpt>
      <trkpt lat="44.40807" lon="1.01959">
        <ele>188</ele>
        <time>2025-07-17T07:42:13.072Z</time>
      </trkpt>
      <trkpt lat="44.40807" lon="1.01959">
        <ele>188</ele>
        <time>2025-07-17T07:42:14.071Z</time>
      </trkpt>
      <trkpt lat="44.40806" lon="1.01961">
        <ele>187</ele>
        <time>2025-07-17T07:42:15.071Z</time>
      </trkpt>
      <trkpt lat="44.40805" lon="1.01963">
        <ele>187</ele>
        <time>2025-07-17T07:42:16.071Z</time>
      </trkpt>
      <trkpt lat="44.40805" lon="1.01964">
        <ele>187</ele>
        <time>2025-07-17T07:42:17.071Z</time>
      </trkpt>
      <trkpt lat="44.40805" lon="1.01965">
        <ele>187</ele>
        <time>2025-07-17T07:42:18.071Z</time>
      </trkpt>
      <trkpt lat="44.40805" lon="1.01967">
        <ele>187</ele>
        <time>2025-07-17T07:42:19.071Z</time>
      </trkpt>
      <trkpt lat="44.40804" lon="1.01969">
        <ele>187</ele>
        <time>2025-07-17T07:42:20.071Z</time>
      </trkpt>
      <trkpt lat="44.40804" lon="1.01971">
        <ele>187</ele>
        <time>2025-07-17T07:42:21.071Z</time>
      </trkpt>
      <trkpt lat="44.40804" lon="1.01972">
        <ele>187</ele>
        <time>2025-07-17T07:42:22.071Z</time>
      </trkpt>
      <trkpt lat="44.40803" lon="1.01974">
        <ele>187</ele>
        <time>2025-07-17T07:42:23.071Z</time>
      </trkpt>
      <trkpt lat="44.40802" lon="1.01976">
        <ele>187</ele>
        <time>2025-07-17T07:42:24.071Z</time>
      </trkpt>
      <trkpt lat="44.40802" lon="1.01977">
        <ele>187</ele>
        <time>2025-07-17T07:42:25.071Z</time>
      </trkpt>
      <trkpt lat="44.40802" lon="1.01978">
        <ele>187</ele>
        <time>2025-07-17T07:42:26.071Z</time>
      </trkpt>
      <trkpt lat="44.40801" lon="1.01979">
        <ele>187</ele>
        <time>2025-07-17T07:42:27.071Z</time>
      </trkpt>
      <trkpt lat="44.40801" lon="1.0198">
        <ele>187</ele>
        <time>2025-07-17T07:42:28.071Z</time>
      </trkpt>
      <trkpt lat="44.40801" lon="1.01982">
        <ele>187</ele>
        <time>2025-07-17T07:42:29.071Z</time>
      </trkpt>
      <trkpt lat="44.408" lon="1.01983">
        <ele>187</ele>
        <time>2025-07-17T07:42:30.071Z</time>
      </trkpt>
      <trkpt lat="44.40799" lon="1.01985">
        <ele>186</ele>
        <time>2025-07-17T07:42:31.071Z</time>
      </trkpt>
      <trkpt lat="44.40799" lon="1.01986">
        <ele>186</ele>
        <time>2025-07-17T07:42:32.071Z</time>
      </trkpt>
      <trkpt lat="44.40799" lon="1.01987">
        <ele>186</ele>
        <time>2025-07-17T07:42:33.072Z</time>
      </trkpt>
      <trkpt lat="44.40798" lon="1.01989">
        <ele>186</ele>
        <time>2025-07-17T07:42:34.072Z</time>
      </trkpt>
      <trkpt lat="44.40798" lon="1.0199">
        <ele>186</ele>
        <time>2025-07-17T07:42:35.071Z</time>
      </trkpt>
      <trkpt lat="44.40797" lon="1.01992">
        <ele>186</ele>
        <time>2025-07-17T07:42:36.071Z</time>
      </trkpt>
      <trkpt lat="44.40797" lon="1.01994">
        <ele>186</ele>
        <time>2025-07-17T07:42:37.071Z</time>
      </trkpt>
      <trkpt lat="44.40796" lon="1.01995">
        <ele>186</ele>
        <time>2025-07-17T07:42:38.071Z</time>
      </trkpt>
      <trkpt lat="44.40796" lon="1.01996">
        <ele>185</ele>
        <time>2025-07-17T07:42:39.071Z</time>
      </trkpt>
      <trkpt lat="44.40796" lon="1.01998">
        <ele>185</ele>
        <time>2025-07-17T07:42:40.072Z</time>
      </trkpt>
      <trkpt lat="44.40796" lon="1.01998">
        <ele>185</ele>
        <time>2025-07-17T07:42:41.071Z</time>
      </trkpt>
      <trkpt lat="44.40795" lon="1.02">
        <ele>185</ele>
        <time>2025-07-17T07:42:42.071Z</time>
      </trkpt>
      <trkpt lat="44.40795" lon="1.02001">
        <ele>186</ele>
        <time>2025-07-17T07:42:43.071Z</time>
      </trkpt>
      <trkpt lat="44.40794" lon="1.02002">
        <ele>186</ele>
        <time>2025-07-17T07:42:44.071Z</time>
      </trkpt>
      <trkpt lat="44.40794" lon="1.02002">
        <ele>186</ele>
        <time>2025-07-17T07:42:45.072Z</time>
      </trkpt>
      <trkpt lat="44.40794" lon="1.02002">
        <ele>186</ele>
        <time>2025-07-17T07:42:46.071Z</time>
      </trkpt>
      <trkpt lat="44.40794" lon="1.02002">
        <ele>186</ele>
        <time>2025-07-17T07:42:47.071Z</time>
      </trkpt>
      <trkpt lat="44.40793" lon="1.02003">
        <ele>186</ele>
        <time>2025-07-17T07:42:48.071Z</time>
      </trkpt>
      <trkpt lat="44.40792" lon="1.02003">
        <ele>186</ele>
        <time>2025-07-17T07:42:49.071Z</time>
      </trkpt>
      <trkpt lat="44.40791" lon="1.02004">
        <ele>186</ele>
        <time>2025-07-17T07:42:50.071Z</time>
      </trkpt>
      <trkpt lat="44.40791" lon="1.02004">
        <ele>186</ele>
        <time>2025-07-17T07:42:51.071Z</time>
      </trkpt>
      <trkpt lat="44.40791" lon="1.02003">
        <ele>186</ele>
        <time>2025-07-17T07:42:52.072Z</time>
      </trkpt>
      <trkpt lat="44.4079" lon="1.02003">
        <ele>186</ele>
        <time>2025-07-17T07:42:53.071Z</time>
      </trkpt>
      <trkpt lat="44.4079" lon="1.02003">
        <ele>186</ele>
        <time>2025-07-17T07:42:54.072Z</time>
      </trkpt>
      <trkpt lat="44.4079" lon="1.02003">
        <ele>185</ele>
        <time>2025-07-17T07:42:55.071Z</time>
      </trkpt>
      <trkpt lat="44.4079" lon="1.02003">
        <ele>185</ele>
        <time>2025-07-17T07:42:56.072Z</time>
      </trkpt>
      <trkpt lat="44.4079" lon="1.02003">
        <ele>185</ele>
        <time>2025-07-17T07:42:57.071Z</time>
      </trkpt>
      <trkpt lat="44.4079" lon="1.02004">
        <ele>185</ele>
        <time>2025-07-17T07:42:58.072Z</time>
      </trkpt>
      <trkpt lat="44.4079" lon="1.02005">
        <ele>185</ele>
        <time>2025-07-17T07:42:59.071Z</time>
      </trkpt>
      <trkpt lat="44.40789" lon="1.02005">
        <ele>185</ele>
        <time>2025-07-17T07:43:00.071Z</time>
      </trkpt>
      <trkpt lat="44.40787" lon="1.02005">
        <ele>185</ele>
        <time>2025-07-17T07:43:01.072Z</time>
      </trkpt>
      <trkpt lat="44.40787" lon="1.02005">
        <ele>185</ele>
        <time>2025-07-17T07:43:02.071Z</time>
      </trkpt>
      <trkpt lat="44.40787" lon="1.02005">
        <ele>185</ele>
        <time>2025-07-17T07:43:03.072Z</time>
      </trkpt>
      <trkpt lat="44.40787" lon="1.02006">
        <ele>185</ele>
        <time>2025-07-17T07:43:04.072Z</time>
      </trkpt>
      <trkpt lat="44.40787" lon="1.02006">
        <ele>185</ele>
        <time>2025-07-17T07:43:05.071Z</time>
      </trkpt>
      <trkpt lat="44.40787" lon="1.02006">
        <ele>185</ele>
        <time>2025-07-17T07:43:06.071Z</time>
      </trkpt>
      <trkpt lat="44.40787" lon="1.02006">
        <ele>184</ele>
        <time>2025-07-17T07:43:07.072Z</time>
      </trkpt>
      <trkpt lat="44.40787" lon="1.02007">
        <ele>184</ele>
        <time>2025-07-17T07:43:08.071Z</time>
      </trkpt>
      <trkpt lat="44.40787" lon="1.02007">
        <ele>184</ele>
        <time>2025-07-17T07:43:09.072Z</time>
      </trkpt>
      <trkpt lat="44.40787" lon="1.02007">
        <ele>184</ele>
        <time>2025-07-17T07:43:10.071Z</time>
      </trkpt>
      <trkpt lat="44.40787" lon="1.02007">
        <ele>184</ele>
        <time>2025-07-17T07:43:11.072Z</time>
      </trkpt>
      <trkpt lat="44.40787" lon="1.02007">
        <ele>183</ele>
        <time>2025-07-17T07:43:12.072Z</time>
      </trkpt>
      <trkpt lat="44.40787" lon="1.02007">
        <ele>183</ele>
        <time>2025-07-17T07:43:13.072Z</time>
      </trkpt>
      <trkpt lat="44.40787" lon="1.02007">
        <ele>183</ele>
        <time>2025-07-17T07:43:14.072Z</time>
      </trkpt>
      <trkpt lat="44.40787" lon="1.02007">
        <ele>183</ele>
        <time>2025-07-17T07:43:15.072Z</time>
      </trkpt>
      <trkpt lat="44.40787" lon="1.02007">
        <ele>183</ele>
        <time>2025-07-17T07:43:16.072Z</time>
      </trkpt>
      <trkpt lat="44.40787" lon="1.02006">
        <ele>183</ele>
        <time>2025-07-17T07:43:17.072Z</time>
      </trkpt>
      <trkpt lat="44.40787" lon="1.02006">
        <ele>183</ele>
        <time>2025-07-17T07:43:18.072Z</time>
      </trkpt>
      <trkpt lat="44.40787" lon="1.02006">
        <ele>183</ele>
        <time>2025-07-17T07:43:19.072Z</time>
      </trkpt>
      <trkpt lat="44.40787" lon="1.02007">
        <ele>183</ele>
        <time>2025-07-17T07:43:20.071Z</time>
      </trkpt>
      <trkpt lat="44.40787" lon="1.02006">
        <ele>183</ele>
        <time>2025-07-17T07:43:21.072Z</time>
      </trkpt>
      <trkpt lat="44.40787" lon="1.02006">
        <ele>183</ele>
        <time>2025-07-17T07:43:22.071Z</time>
      </trkpt>
      <trkpt lat="44.40787" lon="1.02005">
        <ele>183</ele>
        <time>2025-07-17T07:43:23.071Z</time>
      </trkpt>
      <trkpt lat="44.40787" lon="1.02004">
        <ele>182</ele>
        <time>2025-07-17T07:43:24.071Z</time>
      </trkpt>
      <trkpt lat="44.40787" lon="1.02003">
        <ele>182</ele>
        <time>2025-07-17T07:43:25.071Z</time>
      </trkpt>
      <trkpt lat="44.40787" lon="1.02002">
        <ele>182</ele>
        <time>2025-07-17T07:43:26.071Z</time>
      </trkpt>
      <trkpt lat="44.40787" lon="1.02001">
        <ele>182</ele>
        <time>2025-07-17T07:43:27.071Z</time>
      </trkpt>
      <trkpt lat="44.40787" lon="1.02">
        <ele>182</ele>
        <time>2025-07-17T07:43:28.071Z</time>
      </trkpt>
      <trkpt lat="44.40788" lon="1.01999">
        <ele>182</ele>
        <time>2025-07-17T07:43:29.071Z</time>
      </trkpt>
      <trkpt lat="44.40788" lon="1.01998">
        <ele>182</ele>
        <time>2025-07-17T07:43:30.071Z</time>
      </trkpt>
      <trkpt lat="44.40788" lon="1.01996">
        <ele>182</ele>
        <time>2025-07-17T07:43:31.071Z</time>
      </trkpt>
      <trkpt lat="44.40788" lon="1.01995">
        <ele>183</ele>
        <time>2025-07-17T07:43:32.071Z</time>
      </trkpt>
      <trkpt lat="44.40788" lon="1.01994">
        <ele>183</ele>
        <time>2025-07-17T07:43:33.071Z</time>
      </trkpt>
      <trkpt lat="44.40788" lon="1.01992">
        <ele>183</ele>
        <time>2025-07-17T07:43:34.071Z</time>
      </trkpt>
      <trkpt lat="44.40789" lon="1.01991">
        <ele>183</ele>
        <time>2025-07-17T07:43:35.071Z</time>
      </trkpt>
      <trkpt lat="44.40789" lon="1.0199">
        <ele>182</ele>
        <time>2025-07-17T07:43:36.071Z</time>
      </trkpt>
      <trkpt lat="44.40788" lon="1.01989">
        <ele>182</ele>
        <time>2025-07-17T07:43:37.071Z</time>
      </trkpt>
      <trkpt lat="44.40788" lon="1.01988">
        <ele>182</ele>
        <time>2025-07-17T07:43:38.071Z</time>
      </trkpt>
      <trkpt lat="44.40788" lon="1.01988">
        <ele>182</ele>
        <time>2025-07-17T07:43:39.071Z</time>
      </trkpt>
      <trkpt lat="44.40788" lon="1.01988">
        <ele>182</ele>
        <time>2025-07-17T07:43:40.071Z</time>
      </trkpt>
      <trkpt lat="44.40788" lon="1.01988">
        <ele>182</ele>
        <time>2025-07-17T07:43:41.071Z</time>
      </trkpt>
      <trkpt lat="44.40788" lon="1.01988">
        <ele>182</ele>
        <time>2025-07-17T07:43:42.071Z</time>
      </trkpt>
      <trkpt lat="44.40787" lon="1.01988">
        <ele>182</ele>
        <time>2025-07-17T07:43:43.071Z</time>
      </trkpt>
      <trkpt lat="44.40787" lon="1.01988">
        <ele>182</ele>
        <time>2025-07-17T07:43:44.071Z</time>
      </trkpt>
      <trkpt lat="44.40787" lon="1.01988">
        <ele>182</ele>
        <time>2025-07-17T07:43:45.071Z</time>
      </trkpt>
      <trkpt lat="44.40787" lon="1.01988">
        <ele>182</ele>
        <time>2025-07-17T07:43:46.072Z</time>
      </trkpt>
      <trkpt lat="44.40787" lon="1.01988">
        <ele>182</ele>
        <time>2025-07-17T07:43:47.072Z</time>
      </trkpt>
      <trkpt lat="44.40787" lon="1.01988">
        <ele>181</ele>
        <time>2025-07-17T07:43:48.072Z</time>
      </trkpt>
      <trkpt lat="44.40787" lon="1.01988">
        <ele>181</ele>
        <time>2025-07-17T07:43:49.072Z</time>
      </trkpt>
      <trkpt lat="44.40787" lon="1.01988">
        <ele>180</ele>
        <time>2025-07-17T07:43:50.072Z</time>
      </trkpt>
      <trkpt lat="44.40787" lon="1.01988">
        <ele>180</ele>
        <time>2025-07-17T07:43:51.071Z</time>
      </trkpt>
      <trkpt lat="44.40787" lon="1.01988">
        <ele>180</ele>
        <time>2025-07-17T07:43:52.072Z</time>
      </trkpt>
      <trkpt lat="44.40787" lon="1.01988">
        <ele>180</ele>
        <time>2025-07-17T07:43:53.072Z</time>
      </trkpt>
      <trkpt lat="44.40787" lon="1.01988">
        <ele>180</ele>
        <time>2025-07-17T07:43:54.072Z</time>
      </trkpt>
      <trkpt lat="44.40787" lon="1.01988">
        <ele>180</ele>
        <time>2025-07-17T07:43:55.072Z</time>
      </trkpt>
      <trkpt lat="44.40787" lon="1.01988">
        <ele>180</ele>
        <time>2025-07-17T07:43:56.072Z</time>
      </trkpt>
      <trkpt lat="44.40787" lon="1.01988">
        <ele>180</ele>
        <time>2025-07-17T07:43:57.072Z</time>
      </trkpt>
      <trkpt lat="44.40787" lon="1.01988">
        <ele>180</ele>
        <time>2025-07-17T07:43:58.072Z</time>
      </trkpt>
      <trkpt lat="44.40787" lon="1.01988">
        <ele>180</ele>
        <time>2025-07-17T07:43:59.071Z</time>
      </trkpt>
      <trkpt lat="44.40787" lon="1.01988">
        <ele>180</ele>
        <time>2025-07-17T07:44:00.072Z</time>
      </trkpt>
      <trkpt lat="44.40787" lon="1.01988">
        <ele>181</ele>
        <time>2025-07-17T07:44:01.072Z</time>
      </trkpt>
      <trkpt lat="44.40787" lon="1.01988">
        <ele>181</ele>
        <time>2025-07-17T07:44:02.072Z</time>
      </trkpt>
      <trkpt lat="44.40787" lon="1.01988">
        <ele>181</ele>
        <time>2025-07-17T07:44:03.072Z</time>
      </trkpt>
      <trkpt lat="44.40787" lon="1.01988">
        <ele>181</ele>
        <time>2025-07-17T07:44:04.072Z</time>
      </trkpt>
      <trkpt lat="44.40787" lon="1.01988">
        <ele>181</ele>
        <time>2025-07-17T07:44:05.072Z</time>
      </trkpt>
      <trkpt lat="44.40787" lon="1.01988">
        <ele>182</ele>
        <time>2025-07-17T07:44:06.071Z</time>
      </trkpt>
      <trkpt lat="44.40787" lon="1.01988">
        <ele>182</ele>
        <time>2025-07-17T07:44:07.071Z</time>
      </trkpt>
      <trkpt lat="44.40787" lon="1.01988">
        <ele>183</ele>
        <time>2025-07-17T07:44:08.071Z</time>
      </trkpt>
      <trkpt lat="44.40787" lon="1.01988">
        <ele>183</ele>
        <time>2025-07-17T07:44:09.072Z</time>
      </trkpt>
      <trkpt lat="44.40787" lon="1.01988">
        <ele>183</ele>
        <time>2025-07-17T07:44:10.072Z</time>
      </trkpt>
      <trkpt lat="44.40787" lon="1.01988">
        <ele>184</ele>
        <time>2025-07-17T07:44:11.071Z</time>
      </trkpt>
      <trkpt lat="44.40787" lon="1.01988">
        <ele>184</ele>
        <time>2025-07-17T07:44:12.071Z</time>
      </trkpt>
      <trkpt lat="44.40787" lon="1.01988">
        <ele>184</ele>
        <time>2025-07-17T07:44:13.071Z</time>
      </trkpt>
      <trkpt lat="44.40787" lon="1.01988">
        <ele>184</ele>
        <time>2025-07-17T07:44:14.071Z</time>
      </trkpt>
      <trkpt lat="44.40787" lon="1.01988">
        <ele>185</ele>
        <time>2025-07-17T07:44:15.071Z</time>
      </trkpt>
      <trkpt lat="44.40787" lon="1.01988">
        <ele>185</ele>
        <time>2025-07-17T07:44:16.072Z</time>
      </trkpt>
      <trkpt lat="44.40787" lon="1.01988">
        <ele>185</ele>
        <time>2025-07-17T07:44:17.071Z</time>
      </trkpt>
      <trkpt lat="44.40787" lon="1.01988">
        <ele>185</ele>
        <time>2025-07-17T07:44:18.071Z</time>
      </trkpt>
      <trkpt lat="44.40787" lon="1.01988">
        <ele>185</ele>
        <time>2025-07-17T07:44:19.071Z</time>
      </trkpt>
      <trkpt lat="44.40787" lon="1.01988">
        <ele>185</ele>
        <time>2025-07-17T07:44:20.071Z</time>
      </trkpt>
      <trkpt lat="44.40787" lon="1.01988">
        <ele>185</ele>
        <time>2025-07-17T07:44:21.072Z</time>
      </trkpt>
      <trkpt lat="44.40787" lon="1.01988">
        <ele>185</ele>
        <time>2025-07-17T07:44:22.072Z</time>
      </trkpt>
      <trkpt lat="44.40787" lon="1.01988">
        <ele>185</ele>
        <time>2025-07-17T07:44:23.072Z</time>
      </trkpt>
      <trkpt lat="44.40787" lon="1.01988">
        <ele>185</ele>
        <time>2025-07-17T07:44:24.072Z</time>
      </trkpt>
      <trkpt lat="44.40787" lon="1.01988">
        <ele>185</ele>
        <time>2025-07-17T07:44:25.072Z</time>
      </trkpt>
      <trkpt lat="44.40787" lon="1.01988">
        <ele>185</ele>
        <time>2025-07-17T07:44:26.071Z</time>
      </trkpt>
      <trkpt lat="44.40787" lon="1.01988">
        <ele>186</ele>
        <time>2025-07-17T07:44:27.071Z</time>
      </trkpt>
      <trkpt lat="44.40787" lon="1.01988">
        <ele>186</ele>
        <time>2025-07-17T07:44:28.072Z</time>
      </trkpt>
      <trkpt lat="44.40787" lon="1.01988">
        <ele>186</ele>
        <time>2025-07-17T07:44:29.071Z</time>
      </trkpt>
      <trkpt lat="44.40788" lon="1.01988">
        <ele>187</ele>
        <time>2025-07-17T07:44:30.071Z</time>
      </trkpt>
      <trkpt lat="44.40789" lon="1.01989">
        <ele>187</ele>
        <time>2025-07-17T07:44:31.071Z</time>
      </trkpt>
      <trkpt lat="44.40789" lon="1.0199">
        <ele>187</ele>
        <time>2025-07-17T07:44:32.071Z</time>
      </trkpt>
      <trkpt lat="44.40789" lon="1.01992">
        <ele>187</ele>
        <time>2025-07-17T07:44:33.071Z</time>
      </trkpt>
      <trkpt lat="44.40789" lon="1.01994">
        <ele>187</ele>
        <time>2025-07-17T07:44:34.071Z</time>
      </trkpt>
      <trkpt lat="44.40789" lon="1.01994">
        <ele>187</ele>
        <time>2025-07-17T07:44:35.071Z</time>
      </trkpt>
      <trkpt lat="44.40789" lon="1.01997">
        <ele>187</ele>
        <time>2025-07-17T07:44:36.071Z</time>
      </trkpt>
      <trkpt lat="44.40789" lon="1.01997">
        <ele>187</ele>
        <time>2025-07-17T07:44:37.071Z</time>
      </trkpt>
      <trkpt lat="44.40789" lon="1.01998">
        <ele>187</ele>
        <time>2025-07-17T07:44:38.071Z</time>
      </trkpt>
      <trkpt lat="44.40789" lon="1.02001">
        <ele>187</ele>
        <time>2025-07-17T07:44:39.071Z</time>
      </trkpt>
      <trkpt lat="44.40789" lon="1.02003">
        <ele>187</ele>
        <time>2025-07-17T07:44:40.071Z</time>
      </trkpt>
      <trkpt lat="44.40789" lon="1.02004">
        <ele>187</ele>
        <time>2025-07-17T07:44:41.071Z</time>
      </trkpt>
      <trkpt lat="44.40788" lon="1.02005">
        <ele>187</ele>
        <time>2025-07-17T07:44:42.072Z</time>
      </trkpt>
      <trkpt lat="44.40788" lon="1.02007">
        <ele>187</ele>
        <time>2025-07-17T07:44:43.071Z</time>
      </trkpt>
      <trkpt lat="44.40788" lon="1.02008">
        <ele>187</ele>
        <time>2025-07-17T07:44:44.071Z</time>
      </trkpt>
      <trkpt lat="44.40788" lon="1.0201">
        <ele>187</ele>
        <time>2025-07-17T07:44:45.071Z</time>
      </trkpt>
      <trkpt lat="44.40788" lon="1.02012">
        <ele>187</ele>
        <time>2025-07-17T07:44:46.071Z</time>
      </trkpt>
      <trkpt lat="44.40788" lon="1.02013">
        <ele>187</ele>
        <time>2025-07-17T07:44:47.071Z</time>
      </trkpt>
      <trkpt lat="44.40787" lon="1.02014">
        <ele>187</ele>
        <time>2025-07-17T07:44:48.071Z</time>
      </trkpt>
      <trkpt lat="44.40787" lon="1.02014">
        <ele>187</ele>
        <time>2025-07-17T07:44:49.072Z</time>
      </trkpt>
      <trkpt lat="44.40787" lon="1.02014">
        <ele>187</ele>
        <time>2025-07-17T07:44:50.071Z</time>
      </trkpt>
      <trkpt lat="44.40787" lon="1.02014">
        <ele>187</ele>
        <time>2025-07-17T07:44:51.071Z</time>
      </trkpt>
      <trkpt lat="44.40787" lon="1.02015">
        <ele>187</ele>
        <time>2025-07-17T07:44:52.071Z</time>
      </trkpt>
      <trkpt lat="44.40787" lon="1.02015">
        <ele>187</ele>
        <time>2025-07-17T07:44:53.071Z</time>
      </trkpt>
      <trkpt lat="44.40786" lon="1.02016">
        <ele>187</ele>
        <time>2025-07-17T07:44:54.071Z</time>
      </trkpt>
      <trkpt lat="44.40786" lon="1.02017">
        <ele>186</ele>
        <time>2025-07-17T07:44:55.072Z</time>
      </trkpt>
      <trkpt lat="44.40786" lon="1.02019">
        <ele>186</ele>
        <time>2025-07-17T07:44:56.071Z</time>
      </trkpt>
      <trkpt lat="44.40785" lon="1.0202">
        <ele>186</ele>
        <time>2025-07-17T07:44:57.071Z</time>
      </trkpt>
      <trkpt lat="44.40785" lon="1.02022">
        <ele>185</ele>
        <time>2025-07-17T07:44:58.071Z</time>
      </trkpt>
      <trkpt lat="44.40785" lon="1.02023">
        <ele>185</ele>
        <time>2025-07-17T07:44:59.071Z</time>
      </trkpt>
      <trkpt lat="44.40784" lon="1.02025">
        <ele>185</ele>
        <time>2025-07-17T07:45:00.071Z</time>
      </trkpt>
      <trkpt lat="44.40784" lon="1.02027">
        <ele>185</ele>
        <time>2025-07-17T07:45:01.071Z</time>
      </trkpt>
      <trkpt lat="44.40783" lon="1.02028">
        <ele>184</ele>
        <time>2025-07-17T07:45:02.071Z</time>
      </trkpt>
      <trkpt lat="44.40782" lon="1.0203">
        <ele>184</ele>
        <time>2025-07-17T07:45:03.072Z</time>
      </trkpt>
      <trkpt lat="44.40782" lon="1.0203">
        <ele>184</ele>
        <time>2025-07-17T07:45:04.071Z</time>
      </trkpt>
      <trkpt lat="44.40781" lon="1.02034">
        <ele>184</ele>
        <time>2025-07-17T07:45:05.071Z</time>
      </trkpt>
      <trkpt lat="44.40781" lon="1.02035">
        <ele>184</ele>
        <time>2025-07-17T07:45:06.071Z</time>
      </trkpt>
      <trkpt lat="44.40781" lon="1.02037">
        <ele>184</ele>
        <time>2025-07-17T07:45:07.071Z</time>
      </trkpt>
      <trkpt lat="44.40781" lon="1.02038">
        <ele>184</ele>
        <time>2025-07-17T07:45:08.071Z</time>
      </trkpt>
      <trkpt lat="44.4078" lon="1.0204">
        <ele>184</ele>
        <time>2025-07-17T07:45:09.071Z</time>
      </trkpt>
      <trkpt lat="44.4078" lon="1.02041">
        <ele>184</ele>
        <time>2025-07-17T07:45:10.071Z</time>
      </trkpt>
      <trkpt lat="44.40779" lon="1.02043">
        <ele>184</ele>
        <time>2025-07-17T07:45:11.071Z</time>
      </trkpt>
      <trkpt lat="44.40779" lon="1.02045">
        <ele>184</ele>
        <time>2025-07-17T07:45:12.071Z</time>
      </trkpt>
      <trkpt lat="44.40779" lon="1.02045">
        <ele>184</ele>
        <time>2025-07-17T07:45:13.071Z</time>
      </trkpt>
      <trkpt lat="44.40778" lon="1.02046">
        <ele>183</ele>
        <time>2025-07-17T07:45:14.071Z</time>
      </trkpt>
      <trkpt lat="44.40777" lon="1.02048">
        <ele>183</ele>
        <time>2025-07-17T07:45:15.071Z</time>
      </trkpt>
      <trkpt lat="44.40776" lon="1.0205">
        <ele>183</ele>
        <time>2025-07-17T07:45:16.071Z</time>
      </trkpt>
      <trkpt lat="44.40775" lon="1.02052">
        <ele>183</ele>
        <time>2025-07-17T07:45:17.071Z</time>
      </trkpt>
      <trkpt lat="44.40775" lon="1.02054">
        <ele>183</ele>
        <time>2025-07-17T07:45:18.071Z</time>
      </trkpt>
      <trkpt lat="44.40774" lon="1.02055">
        <ele>183</ele>
        <time>2025-07-17T07:45:19.071Z</time>
      </trkpt>
      <trkpt lat="44.40774" lon="1.02057">
        <ele>183</ele>
        <time>2025-07-17T07:45:20.071Z</time>
      </trkpt>
      <trkpt lat="44.40773" lon="1.02059">
        <ele>183</ele>
        <time>2025-07-17T07:45:21.071Z</time>
      </trkpt>
      <trkpt lat="44.40773" lon="1.02061">
        <ele>183</ele>
        <time>2025-07-17T07:45:22.071Z</time>
      </trkpt>
      <trkpt lat="44.40772" lon="1.02062">
        <ele>182</ele>
        <time>2025-07-17T07:45:23.071Z</time>
      </trkpt>
      <trkpt lat="44.40772" lon="1.02063">
        <ele>182</ele>
        <time>2025-07-17T07:45:24.071Z</time>
      </trkpt>
      <trkpt lat="44.40771" lon="1.02064">
        <ele>181</ele>
        <time>2025-07-17T07:45:25.071Z</time>
      </trkpt>
      <trkpt lat="44.40771" lon="1.02066">
        <ele>181</ele>
        <time>2025-07-17T07:45:26.071Z</time>
      </trkpt>
      <trkpt lat="44.4077" lon="1.02068">
        <ele>181</ele>
        <time>2025-07-17T07:45:27.071Z</time>
      </trkpt>
      <trkpt lat="44.4077" lon="1.0207">
        <ele>181</ele>
        <time>2025-07-17T07:45:28.071Z</time>
      </trkpt>
      <trkpt lat="44.4077" lon="1.0207">
        <ele>181</ele>
        <time>2025-07-17T07:45:29.071Z</time>
      </trkpt>
      <trkpt lat="44.40769" lon="1.02073">
        <ele>182</ele>
        <time>2025-07-17T07:45:30.071Z</time>
      </trkpt>
      <trkpt lat="44.40769" lon="1.02075">
        <ele>182</ele>
        <time>2025-07-17T07:45:31.071Z</time>
      </trkpt>
      <trkpt lat="44.40769" lon="1.02076">
        <ele>182</ele>
        <time>2025-07-17T07:45:32.071Z</time>
      </trkpt>
      <trkpt lat="44.40769" lon="1.02077">
        <ele>182</ele>
        <time>2025-07-17T07:45:33.071Z</time>
      </trkpt>
      <trkpt lat="44.40769" lon="1.02077">
        <ele>182</ele>
        <time>2025-07-17T07:45:34.071Z</time>
      </trkpt>
      <trkpt lat="44.40769" lon="1.0208">
        <ele>181</ele>
        <time>2025-07-17T07:45:35.071Z</time>
      </trkpt>
      <trkpt lat="44.40768" lon="1.02081">
        <ele>181</ele>
        <time>2025-07-17T07:45:36.071Z</time>
      </trkpt>
      <trkpt lat="44.40768" lon="1.02083">
        <ele>181</ele>
        <time>2025-07-17T07:45:37.072Z</time>
      </trkpt>
      <trkpt lat="44.40767" lon="1.02085">
        <ele>181</ele>
        <time>2025-07-17T07:45:38.071Z</time>
      </trkpt>
      <trkpt lat="44.40767" lon="1.02085">
        <ele>181</ele>
        <time>2025-07-17T07:45:39.071Z</time>
      </trkpt>
      <trkpt lat="44.40766" lon="1.02089">
        <ele>181</ele>
        <time>2025-07-17T07:45:40.071Z</time>
      </trkpt>
      <trkpt lat="44.40766" lon="1.0209">
        <ele>182</ele>
        <time>2025-07-17T07:45:41.071Z</time>
      </trkpt>
      <trkpt lat="44.40766" lon="1.02092">
        <ele>182</ele>
        <time>2025-07-17T07:45:42.071Z</time>
      </trkpt>
      <trkpt lat="44.40766" lon="1.02094">
        <ele>182</ele>
        <time>2025-07-17T07:45:43.071Z</time>
      </trkpt>
      <trkpt lat="44.40765" lon="1.02095">
        <ele>182</ele>
        <time>2025-07-17T07:45:44.071Z</time>
      </trkpt>
      <trkpt lat="44.40765" lon="1.02097">
        <ele>182</ele>
        <time>2025-07-17T07:45:45.071Z</time>
      </trkpt>
      <trkpt lat="44.40765" lon="1.02099">
        <ele>182</ele>
        <time>2025-07-17T07:45:46.071Z</time>
      </trkpt>
      <trkpt lat="44.40765" lon="1.021">
        <ele>183</ele>
        <time>2025-07-17T07:45:47.071Z</time>
      </trkpt>
      <trkpt lat="44.40764" lon="1.02102">
        <ele>183</ele>
        <time>2025-07-17T07:45:48.071Z</time>
      </trkpt>
      <trkpt lat="44.40764" lon="1.02103">
        <ele>183</ele>
        <time>2025-07-17T07:45:49.071Z</time>
      </trkpt>
      <trkpt lat="44.40763" lon="1.02105">
        <ele>183</ele>
        <time>2025-07-17T07:45:50.071Z</time>
      </trkpt>
      <trkpt lat="44.40763" lon="1.02107">
        <ele>183</ele>
        <time>2025-07-17T07:45:51.071Z</time>
      </trkpt>
      <trkpt lat="44.40762" lon="1.02108">
        <ele>183</ele>
        <time>2025-07-17T07:45:52.071Z</time>
      </trkpt>
      <trkpt lat="44.40762" lon="1.02111">
        <ele>183</ele>
        <time>2025-07-17T07:45:53.071Z</time>
      </trkpt>
      <trkpt lat="44.40761" lon="1.02113">
        <ele>183</ele>
        <time>2025-07-17T07:45:54.071Z</time>
      </trkpt>
      <trkpt lat="44.40761" lon="1.02114">
        <ele>183</ele>
        <time>2025-07-17T07:45:55.071Z</time>
      </trkpt>
      <trkpt lat="44.40761" lon="1.02115">
        <ele>183</ele>
        <time>2025-07-17T07:45:56.072Z</time>
      </trkpt>
      <trkpt lat="44.4076" lon="1.02118">
        <ele>183</ele>
        <time>2025-07-17T07:45:57.071Z</time>
      </trkpt>
      <trkpt lat="44.40759" lon="1.02119">
        <ele>182</ele>
        <time>2025-07-17T07:45:58.071Z</time>
      </trkpt>
      <trkpt lat="44.40759" lon="1.02119">
        <ele>182</ele>
        <time>2025-07-17T07:45:59.071Z</time>
      </trkpt>
      <trkpt lat="44.40758" lon="1.02122">
        <ele>182</ele>
        <time>2025-07-17T07:46:00.071Z</time>
      </trkpt>
      <trkpt lat="44.40758" lon="1.02123">
        <ele>182</ele>
        <time>2025-07-17T07:46:01.071Z</time>
      </trkpt>
      <trkpt lat="44.40757" lon="1.02124">
        <ele>181</ele>
        <time>2025-07-17T07:46:02.071Z</time>
      </trkpt>
      <trkpt lat="44.40756" lon="1.02126">
        <ele>181</ele>
        <time>2025-07-17T07:46:03.071Z</time>
      </trkpt>
      <trkpt lat="44.40756" lon="1.02128">
        <ele>181</ele>
        <time>2025-07-17T07:46:04.071Z</time>
      </trkpt>
      <trkpt lat="44.40755" lon="1.0213">
        <ele>181</ele>
        <time>2025-07-17T07:46:05.071Z</time>
      </trkpt>
      <trkpt lat="44.40755" lon="1.02132">
        <ele>181</ele>
        <time>2025-07-17T07:46:06.071Z</time>
      </trkpt>
      <trkpt lat="44.40754" lon="1.02134">
        <ele>181</ele>
        <time>2025-07-17T07:46:07.071Z</time>
      </trkpt>
      <trkpt lat="44.40754" lon="1.02134">
        <ele>181</ele>
        <time>2025-07-17T07:46:08.071Z</time>
      </trkpt>
      <trkpt lat="44.40754" lon="1.02137">
        <ele>182</ele>
        <time>2025-07-17T07:46:09.071Z</time>
      </trkpt>
      <trkpt lat="44.40753" lon="1.02139">
        <ele>181</ele>
        <time>2025-07-17T07:46:10.071Z</time>
      </trkpt>
      <trkpt lat="44.40753" lon="1.0214">
        <ele>181</ele>
        <time>2025-07-17T07:46:11.071Z</time>
      </trkpt>
      <trkpt lat="44.40752" lon="1.02141">
        <ele>181</ele>
        <time>2025-07-17T07:46:12.071Z</time>
      </trkpt>
      <trkpt lat="44.40752" lon="1.02143">
        <ele>181</ele>
        <time>2025-07-17T07:46:13.071Z</time>
      </trkpt>
      <trkpt lat="44.40751" lon="1.02144">
        <ele>181</ele>
        <time>2025-07-17T07:46:14.071Z</time>
      </trkpt>
      <trkpt lat="44.4075" lon="1.02146">
        <ele>181</ele>
        <time>2025-07-17T07:46:15.071Z</time>
      </trkpt>
      <trkpt lat="44.4075" lon="1.02147">
        <ele>181</ele>
        <time>2025-07-17T07:46:16.072Z</time>
      </trkpt>
      <trkpt lat="44.40749" lon="1.02149">
        <ele>181</ele>
        <time>2025-07-17T07:46:17.071Z</time>
      </trkpt>
      <trkpt lat="44.40749" lon="1.02149">
        <ele>181</ele>
        <time>2025-07-17T07:46:18.071Z</time>
      </trkpt>
      <trkpt lat="44.40748" lon="1.02152">
        <ele>180</ele>
        <time>2025-07-17T07:46:19.072Z</time>
      </trkpt>
      <trkpt lat="44.40747" lon="1.02154">
        <ele>180</ele>
        <time>2025-07-17T07:46:20.071Z</time>
      </trkpt>
      <trkpt lat="44.40746" lon="1.02156">
        <ele>180</ele>
        <time>2025-07-17T07:46:21.071Z</time>
      </trkpt>
      <trkpt lat="44.40745" lon="1.02157">
        <ele>180</ele>
        <time>2025-07-17T07:46:22.071Z</time>
      </trkpt>
      <trkpt lat="44.40745" lon="1.02159">
        <ele>180</ele>
        <time>2025-07-17T07:46:23.071Z</time>
      </trkpt>
      <trkpt lat="44.40744" lon="1.02161">
        <ele>179</ele>
        <time>2025-07-17T07:46:24.071Z</time>
      </trkpt>
      <trkpt lat="44.40744" lon="1.02162">
        <ele>180</ele>
        <time>2025-07-17T07:46:25.072Z</time>
      </trkpt>
      <trkpt lat="44.40743" lon="1.02163">
        <ele>179</ele>
        <time>2025-07-17T07:46:26.071Z</time>
      </trkpt>
      <trkpt lat="44.40742" lon="1.02165">
        <ele>179</ele>
        <time>2025-07-17T07:46:27.071Z</time>
      </trkpt>
      <trkpt lat="44.40742" lon="1.02166">
        <ele>179</ele>
        <time>2025-07-17T07:46:28.071Z</time>
      </trkpt>
      <trkpt lat="44.40741" lon="1.02168">
        <ele>180</ele>
        <time>2025-07-17T07:46:29.071Z</time>
      </trkpt>
      <trkpt lat="44.40741" lon="1.0217">
        <ele>180</ele>
        <time>2025-07-17T07:46:30.071Z</time>
      </trkpt>
      <trkpt lat="44.4074" lon="1.02171">
        <ele>180</ele>
        <time>2025-07-17T07:46:31.071Z</time>
      </trkpt>
      <trkpt lat="44.40739" lon="1.02173">
        <ele>180</ele>
        <time>2025-07-17T07:46:32.071Z</time>
      </trkpt>
      <trkpt lat="44.40739" lon="1.02173">
        <ele>180</ele>
        <time>2025-07-17T07:46:33.071Z</time>
      </trkpt>
      <trkpt lat="44.40739" lon="1.02175">
        <ele>180</ele>
        <time>2025-07-17T07:46:34.071Z</time>
      </trkpt>
      <trkpt lat="44.40738" lon="1.02178">
        <ele>181</ele>
        <time>2025-07-17T07:46:35.071Z</time>
      </trkpt>
      <trkpt lat="44.40737" lon="1.02179">
        <ele>181</ele>
        <time>2025-07-17T07:46:36.071Z</time>
      </trkpt>
      <trkpt lat="44.40737" lon="1.0218">
        <ele>181</ele>
        <time>2025-07-17T07:46:37.071Z</time>
      </trkpt>
      <trkpt lat="44.40736" lon="1.02181">
        <ele>181</ele>
        <time>2025-07-17T07:46:38.071Z</time>
      </trkpt>
      <trkpt lat="44.40735" lon="1.02183">
        <ele>181</ele>
        <time>2025-07-17T07:46:39.071Z</time>
      </trkpt>
      <trkpt lat="44.40735" lon="1.02184">
        <ele>181</ele>
        <time>2025-07-17T07:46:40.071Z</time>
      </trkpt>
      <trkpt lat="44.40734" lon="1.02186">
        <ele>181</ele>
        <time>2025-07-17T07:46:41.071Z</time>
      </trkpt>
      <trkpt lat="44.40734" lon="1.02187">
        <ele>181</ele>
        <time>2025-07-17T07:46:42.071Z</time>
      </trkpt>
      <trkpt lat="44.40733" lon="1.02188">
        <ele>181</ele>
        <time>2025-07-17T07:46:43.071Z</time>
      </trkpt>
      <trkpt lat="44.40732" lon="1.0219">
        <ele>181</ele>
        <time>2025-07-17T07:46:44.071Z</time>
      </trkpt>
      <trkpt lat="44.40732" lon="1.02192">
        <ele>181</ele>
        <time>2025-07-17T07:46:45.071Z</time>
      </trkpt>
      <trkpt lat="44.40731" lon="1.02193">
        <ele>181</ele>
        <time>2025-07-17T07:46:46.071Z</time>
      </trkpt>
      <trkpt lat="44.40731" lon="1.02194">
        <ele>181</ele>
        <time>2025-07-17T07:46:47.071Z</time>
      </trkpt>
      <trkpt lat="44.4073" lon="1.02196">
        <ele>181</ele>
        <time>2025-07-17T07:46:48.072Z</time>
      </trkpt>
      <trkpt lat="44.4073" lon="1.02197">
        <ele>181</ele>
        <time>2025-07-17T07:46:49.071Z</time>
      </trkpt>
      <trkpt lat="44.40729" lon="1.02199">
        <ele>181</ele>
        <time>2025-07-17T07:46:50.071Z</time>
      </trkpt>
      <trkpt lat="44.40728" lon="1.022">
        <ele>181</ele>
        <time>2025-07-17T07:46:51.072Z</time>
      </trkpt>
      <trkpt lat="44.40727" lon="1.02202">
        <ele>181</ele>
        <time>2025-07-17T07:46:52.071Z</time>
      </trkpt>
      <trkpt lat="44.40727" lon="1.02204">
        <ele>181</ele>
        <time>2025-07-17T07:46:53.071Z</time>
      </trkpt>
      <trkpt lat="44.40726" lon="1.02205">
        <ele>181</ele>
        <time>2025-07-17T07:46:54.072Z</time>
      </trkpt>
      <trkpt lat="44.40725" lon="1.02207">
        <ele>181</ele>
        <time>2025-07-17T07:46:55.071Z</time>
      </trkpt>
      <trkpt lat="44.40724" lon="1.0221">
        <ele>181</ele>
        <time>2025-07-17T07:46:56.071Z</time>
      </trkpt>
      <trkpt lat="44.40723" lon="1.02211">
        <ele>180</ele>
        <time>2025-07-17T07:46:57.071Z</time>
      </trkpt>
      <trkpt lat="44.40723" lon="1.02212">
        <ele>180</ele>
        <time>2025-07-17T07:46:58.071Z</time>
      </trkpt>
      <trkpt lat="44.40722" lon="1.02214">
        <ele>180</ele>
        <time>2025-07-17T07:46:59.071Z</time>
      </trkpt>
      <trkpt lat="44.40721" lon="1.02215">
        <ele>180</ele>
        <time>2025-07-17T07:47:00.072Z</time>
      </trkpt>
      <trkpt lat="44.40721" lon="1.02216">
        <ele>180</ele>
        <time>2025-07-17T07:47:01.071Z</time>
      </trkpt>
      <trkpt lat="44.4072" lon="1.02218">
        <ele>180</ele>
        <time>2025-07-17T07:47:02.071Z</time>
      </trkpt>
      <trkpt lat="44.40719" lon="1.02219">
        <ele>180</ele>
        <time>2025-07-17T07:47:03.071Z</time>
      </trkpt>
      <trkpt lat="44.40718" lon="1.02221">
        <ele>180</ele>
        <time>2025-07-17T07:47:04.071Z</time>
      </trkpt>
      <trkpt lat="44.40717" lon="1.02223">
        <ele>180</ele>
        <time>2025-07-17T07:47:05.071Z</time>
      </trkpt>
      <trkpt lat="44.40717" lon="1.02225">
        <ele>181</ele>
        <time>2025-07-17T07:47:06.071Z</time>
      </trkpt>
      <trkpt lat="44.40717" lon="1.02226">
        <ele>181</ele>
        <time>2025-07-17T07:47:07.071Z</time>
      </trkpt>
      <trkpt lat="44.40716" lon="1.02227">
        <ele>182</ele>
        <time>2025-07-17T07:47:08.071Z</time>
      </trkpt>
      <trkpt lat="44.40716" lon="1.02229">
        <ele>182</ele>
        <time>2025-07-17T07:47:09.071Z</time>
      </trkpt>
      <trkpt lat="44.40716" lon="1.02229">
        <ele>182</ele>
        <time>2025-07-17T07:47:10.071Z</time>
      </trkpt>
      <trkpt lat="44.40715" lon="1.02231">
        <ele>183</ele>
        <time>2025-07-17T07:47:11.071Z</time>
      </trkpt>
      <trkpt lat="44.40714" lon="1.02233">
        <ele>183</ele>
        <time>2025-07-17T07:47:12.071Z</time>
      </trkpt>
      <trkpt lat="44.40714" lon="1.02234">
        <ele>183</ele>
        <time>2025-07-17T07:47:13.071Z</time>
      </trkpt>
      <trkpt lat="44.40713" lon="1.02236">
        <ele>182</ele>
        <time>2025-07-17T07:47:14.071Z</time>
      </trkpt>
      <trkpt lat="44.40712" lon="1.02238">
        <ele>182</ele>
        <time>2025-07-17T07:47:15.071Z</time>
      </trkpt>
      <trkpt lat="44.40711" lon="1.02239">
        <ele>182</ele>
        <time>2025-07-17T07:47:16.071Z</time>
      </trkpt>
      <trkpt lat="44.4071" lon="1.02241">
        <ele>182</ele>
        <time>2025-07-17T07:47:17.071Z</time>
      </trkpt>
      <trkpt lat="44.40709" lon="1.02242">
        <ele>182</ele>
        <time>2025-07-17T07:47:18.071Z</time>
      </trkpt>
      <trkpt lat="44.40708" lon="1.02244">
        <ele>182</ele>
        <time>2025-07-17T07:47:19.071Z</time>
      </trkpt>
      <trkpt lat="44.40708" lon="1.02245">
        <ele>181</ele>
        <time>2025-07-17T07:47:20.071Z</time>
      </trkpt>
      <trkpt lat="44.40707" lon="1.02247">
        <ele>182</ele>
        <time>2025-07-17T07:47:21.072Z</time>
      </trkpt>
      <trkpt lat="44.40707" lon="1.02248">
        <ele>182</ele>
        <time>2025-07-17T07:47:22.071Z</time>
      </trkpt>
      <trkpt lat="44.40706" lon="1.02249">
        <ele>182</ele>
        <time>2025-07-17T07:47:23.071Z</time>
      </trkpt>
      <trkpt lat="44.40705" lon="1.0225">
        <ele>181</ele>
        <time>2025-07-17T07:47:24.072Z</time>
      </trkpt>
      <trkpt lat="44.40704" lon="1.02252">
        <ele>182</ele>
        <time>2025-07-17T07:47:25.071Z</time>
      </trkpt>
      <trkpt lat="44.40704" lon="1.02252">
        <ele>182</ele>
        <time>2025-07-17T07:47:26.071Z</time>
      </trkpt>
      <trkpt lat="44.40704" lon="1.02254">
        <ele>182</ele>
        <time>2025-07-17T07:47:27.072Z</time>
      </trkpt>
      <trkpt lat="44.40702" lon="1.02257">
        <ele>182</ele>
        <time>2025-07-17T07:47:28.071Z</time>
      </trkpt>
      <trkpt lat="44.40702" lon="1.02258">
        <ele>182</ele>
        <time>2025-07-17T07:47:29.071Z</time>
      </trkpt>
      <trkpt lat="44.40702" lon="1.02258">
        <ele>182</ele>
        <time>2025-07-17T07:47:30.071Z</time>
      </trkpt>
      <trkpt lat="44.40701" lon="1.0226">
        <ele>182</ele>
        <time>2025-07-17T07:47:31.072Z</time>
      </trkpt>
      <trkpt lat="44.407" lon="1.02263">
        <ele>182</ele>
        <time>2025-07-17T07:47:32.071Z</time>
      </trkpt>
      <trkpt lat="44.40699" lon="1.02264">
        <ele>182</ele>
        <time>2025-07-17T07:47:33.071Z</time>
      </trkpt>
      <trkpt lat="44.40698" lon="1.02265">
        <ele>182</ele>
        <time>2025-07-17T07:47:34.072Z</time>
      </trkpt>
      <trkpt lat="44.40697" lon="1.02267">
        <ele>182</ele>
        <time>2025-07-17T07:47:35.071Z</time>
      </trkpt>
      <trkpt lat="44.40697" lon="1.02268">
        <ele>182</ele>
        <time>2025-07-17T07:47:36.071Z</time>
      </trkpt>
      <trkpt lat="44.40696" lon="1.0227">
        <ele>183</ele>
        <time>2025-07-17T07:47:37.071Z</time>
      </trkpt>
      <trkpt lat="44.40695" lon="1.02272">
        <ele>183</ele>
        <time>2025-07-17T07:47:38.071Z</time>
      </trkpt>
      <trkpt lat="44.40695" lon="1.02274">
        <ele>183</ele>
        <time>2025-07-17T07:47:39.071Z</time>
      </trkpt>
      <trkpt lat="44.40695" lon="1.02274">
        <ele>183</ele>
        <time>2025-07-17T07:47:40.071Z</time>
      </trkpt>
      <trkpt lat="44.40693" lon="1.02276">
        <ele>183</ele>
        <time>2025-07-17T07:47:41.071Z</time>
      </trkpt>
      <trkpt lat="44.40693" lon="1.02278">
        <ele>183</ele>
        <time>2025-07-17T07:47:42.071Z</time>
      </trkpt>
      <trkpt lat="44.40692" lon="1.02279">
        <ele>183</ele>
        <time>2025-07-17T07:47:43.071Z</time>
      </trkpt>
      <trkpt lat="44.40692" lon="1.0228">
        <ele>183</ele>
        <time>2025-07-17T07:47:44.071Z</time>
      </trkpt>
      <trkpt lat="44.40691" lon="1.02281">
        <ele>183</ele>
        <time>2025-07-17T07:47:45.071Z</time>
      </trkpt>
      <trkpt lat="44.4069" lon="1.02283">
        <ele>183</ele>
        <time>2025-07-17T07:47:46.071Z</time>
      </trkpt>
      <trkpt lat="44.4069" lon="1.02283">
        <ele>183</ele>
        <time>2025-07-17T07:47:47.071Z</time>
      </trkpt>
      <trkpt lat="44.40688" lon="1.02286">
        <ele>183</ele>
        <time>2025-07-17T07:47:48.071Z</time>
      </trkpt>
      <trkpt lat="44.40688" lon="1.02287">
        <ele>183</ele>
        <time>2025-07-17T07:47:49.071Z</time>
      </trkpt>
      <trkpt lat="44.40688" lon="1.02287">
        <ele>183</ele>
        <time>2025-07-17T07:47:50.071Z</time>
      </trkpt>
      <trkpt lat="44.40688" lon="1.02288">
        <ele>183</ele>
        <time>2025-07-17T07:47:51.071Z</time>
      </trkpt>
      <trkpt lat="44.40687" lon="1.0229">
        <ele>183</ele>
        <time>2025-07-17T07:47:52.072Z</time>
      </trkpt>
      <trkpt lat="44.40686" lon="1.02292">
        <ele>183</ele>
        <time>2025-07-17T07:47:53.071Z</time>
      </trkpt>
      <trkpt lat="44.40685" lon="1.02293">
        <ele>183</ele>
        <time>2025-07-17T07:47:54.072Z</time>
      </trkpt>
      <trkpt lat="44.40685" lon="1.02295">
        <ele>184</ele>
        <time>2025-07-17T07:47:55.071Z</time>
      </trkpt>
      <trkpt lat="44.40684" lon="1.02296">
        <ele>184</ele>
        <time>2025-07-17T07:47:56.071Z</time>
      </trkpt>
      <trkpt lat="44.40683" lon="1.02297">
        <ele>184</ele>
        <time>2025-07-17T07:47:57.071Z</time>
      </trkpt>
      <trkpt lat="44.40682" lon="1.02298">
        <ele>183</ele>
        <time>2025-07-17T07:47:58.071Z</time>
      </trkpt>
      <trkpt lat="44.40681" lon="1.02301">
        <ele>183</ele>
        <time>2025-07-17T07:47:59.071Z</time>
      </trkpt>
      <trkpt lat="44.40681" lon="1.02301">
        <ele>183</ele>
        <time>2025-07-17T07:48:00.071Z</time>
      </trkpt>
      <trkpt lat="44.40681" lon="1.02302">
        <ele>183</ele>
        <time>2025-07-17T07:48:01.071Z</time>
      </trkpt>
      <trkpt lat="44.4068" lon="1.02305">
        <ele>183</ele>
        <time>2025-07-17T07:48:02.071Z</time>
      </trkpt>
      <trkpt lat="44.4068" lon="1.02306">
        <ele>183</ele>
        <time>2025-07-17T07:48:03.071Z</time>
      </trkpt>
      <trkpt lat="44.40679" lon="1.02307">
        <ele>184</ele>
        <time>2025-07-17T07:48:04.071Z</time>
      </trkpt>
      <trkpt lat="44.40678" lon="1.02309">
        <ele>184</ele>
        <time>2025-07-17T07:48:05.071Z</time>
      </trkpt>
      <trkpt lat="44.40678" lon="1.0231">
        <ele>183</ele>
        <time>2025-07-17T07:48:06.071Z</time>
      </trkpt>
      <trkpt lat="44.40677" lon="1.02312">
        <ele>183</ele>
        <time>2025-07-17T07:48:07.071Z</time>
      </trkpt>
      <trkpt lat="44.40676" lon="1.02314">
        <ele>183</ele>
        <time>2025-07-17T07:48:08.071Z</time>
      </trkpt>
      <trkpt lat="44.40675" lon="1.02316">
        <ele>183</ele>
        <time>2025-07-17T07:48:09.071Z</time>
      </trkpt>
      <trkpt lat="44.40675" lon="1.02317">
        <ele>183</ele>
        <time>2025-07-17T07:48:10.071Z</time>
      </trkpt>
      <trkpt lat="44.40674" lon="1.02318">
        <ele>184</ele>
        <time>2025-07-17T07:48:11.071Z</time>
      </trkpt>
      <trkpt lat="44.40673" lon="1.02319">
        <ele>184</ele>
        <time>2025-07-17T07:48:12.071Z</time>
      </trkpt>
      <trkpt lat="44.40673" lon="1.0232">
        <ele>184</ele>
        <time>2025-07-17T07:48:13.071Z</time>
      </trkpt>
      <trkpt lat="44.40673" lon="1.0232">
        <ele>184</ele>
        <time>2025-07-17T07:48:14.071Z</time>
      </trkpt>
      <trkpt lat="44.40671" lon="1.02323">
        <ele>184</ele>
        <time>2025-07-17T07:48:15.072Z</time>
      </trkpt>
      <trkpt lat="44.4067" lon="1.02324">
        <ele>184</ele>
        <time>2025-07-17T07:48:16.072Z</time>
      </trkpt>
      <trkpt lat="44.4067" lon="1.02326">
        <ele>183</ele>
        <time>2025-07-17T07:48:17.071Z</time>
      </trkpt>
      <trkpt lat="44.40669" lon="1.02327">
        <ele>183</ele>
        <time>2025-07-17T07:48:18.071Z</time>
      </trkpt>
      <trkpt lat="44.40669" lon="1.02328">
        <ele>183</ele>
        <time>2025-07-17T07:48:19.071Z</time>
      </trkpt>
      <trkpt lat="44.40668" lon="1.02329">
        <ele>183</ele>
        <time>2025-07-17T07:48:20.071Z</time>
      </trkpt>
      <trkpt lat="44.40668" lon="1.0233">
        <ele>183</ele>
        <time>2025-07-17T07:48:21.071Z</time>
      </trkpt>
      <trkpt lat="44.40667" lon="1.02332">
        <ele>183</ele>
        <time>2025-07-17T07:48:22.071Z</time>
      </trkpt>
      <trkpt lat="44.40666" lon="1.02334">
        <ele>183</ele>
        <time>2025-07-17T07:48:23.071Z</time>
      </trkpt>
      <trkpt lat="44.40666" lon="1.02335">
        <ele>183</ele>
        <time>2025-07-17T07:48:24.071Z</time>
      </trkpt>
      <trkpt lat="44.40665" lon="1.02337">
        <ele>183</ele>
        <time>2025-07-17T07:48:25.071Z</time>
      </trkpt>
      <trkpt lat="44.40664" lon="1.02339">
        <ele>183</ele>
        <time>2025-07-17T07:48:26.071Z</time>
      </trkpt>
      <trkpt lat="44.40663" lon="1.0234">
        <ele>183</ele>
        <time>2025-07-17T07:48:27.071Z</time>
      </trkpt>
      <trkpt lat="44.40662" lon="1.02342">
        <ele>183</ele>
        <time>2025-07-17T07:48:28.071Z</time>
      </trkpt>
      <trkpt lat="44.40662" lon="1.02343">
        <ele>183</ele>
        <time>2025-07-17T07:48:29.071Z</time>
      </trkpt>
      <trkpt lat="44.40661" lon="1.02344">
        <ele>183</ele>
        <time>2025-07-17T07:48:30.071Z</time>
      </trkpt>
      <trkpt lat="44.40661" lon="1.02346">
        <ele>183</ele>
        <time>2025-07-17T07:48:31.071Z</time>
      </trkpt>
      <trkpt lat="44.4066" lon="1.02347">
        <ele>183</ele>
        <time>2025-07-17T07:48:32.071Z</time>
      </trkpt>
      <trkpt lat="44.40659" lon="1.02349">
        <ele>183</ele>
        <time>2025-07-17T07:48:33.071Z</time>
      </trkpt>
      <trkpt lat="44.40658" lon="1.0235">
        <ele>183</ele>
        <time>2025-07-17T07:48:34.071Z</time>
      </trkpt>
      <trkpt lat="44.40657" lon="1.02352">
        <ele>183</ele>
        <time>2025-07-17T07:48:35.071Z</time>
      </trkpt>
      <trkpt lat="44.40657" lon="1.02353">
        <ele>183</ele>
        <time>2025-07-17T07:48:36.071Z</time>
      </trkpt>
      <trkpt lat="44.40656" lon="1.02354">
        <ele>183</ele>
        <time>2025-07-17T07:48:37.071Z</time>
      </trkpt>
      <trkpt lat="44.40655" lon="1.02356">
        <ele>182</ele>
        <time>2025-07-17T07:48:38.071Z</time>
      </trkpt>
      <trkpt lat="44.40655" lon="1.02357">
        <ele>182</ele>
        <time>2025-07-17T07:48:39.071Z</time>
      </trkpt>
      <trkpt lat="44.40654" lon="1.02359">
        <ele>183</ele>
        <time>2025-07-17T07:48:40.071Z</time>
      </trkpt>
      <trkpt lat="44.40653" lon="1.0236">
        <ele>183</ele>
        <time>2025-07-17T07:48:41.071Z</time>
      </trkpt>
      <trkpt lat="44.40653" lon="1.02361">
        <ele>183</ele>
        <time>2025-07-17T07:48:42.072Z</time>
      </trkpt>
      <trkpt lat="44.40653" lon="1.02363">
        <ele>183</ele>
        <time>2025-07-17T07:48:43.072Z</time>
      </trkpt>
      <trkpt lat="44.40652" lon="1.02364">
        <ele>183</ele>
        <time>2025-07-17T07:48:44.072Z</time>
      </trkpt>
      <trkpt lat="44.40651" lon="1.02366">
        <ele>184</ele>
        <time>2025-07-17T07:48:45.072Z</time>
      </trkpt>
      <trkpt lat="44.4065" lon="1.02368">
        <ele>184</ele>
        <time>2025-07-17T07:48:46.071Z</time>
      </trkpt>
      <trkpt lat="44.40649" lon="1.02369">
        <ele>183</ele>
        <time>2025-07-17T07:48:47.071Z</time>
      </trkpt>
      <trkpt lat="44.40649" lon="1.0237">
        <ele>183</ele>
        <time>2025-07-17T07:48:48.071Z</time>
      </trkpt>
      <trkpt lat="44.40648" lon="1.02372">
        <ele>183</ele>
        <time>2025-07-17T07:48:49.071Z</time>
      </trkpt>
      <trkpt lat="44.40647" lon="1.02373">
        <ele>183</ele>
        <time>2025-07-17T07:48:50.071Z</time>
      </trkpt>
      <trkpt lat="44.40647" lon="1.02375">
        <ele>184</ele>
        <time>2025-07-17T07:48:51.071Z</time>
      </trkpt>
      <trkpt lat="44.40646" lon="1.02376">
        <ele>184</ele>
        <time>2025-07-17T07:48:52.071Z</time>
      </trkpt>
      <trkpt lat="44.40645" lon="1.02378">
        <ele>184</ele>
        <time>2025-07-17T07:48:53.071Z</time>
      </trkpt>
      <trkpt lat="44.40645" lon="1.02379">
        <ele>185</ele>
        <time>2025-07-17T07:48:54.071Z</time>
      </trkpt>
      <trkpt lat="44.40644" lon="1.02381">
        <ele>185</ele>
        <time>2025-07-17T07:48:55.072Z</time>
      </trkpt>
      <trkpt lat="44.40643" lon="1.02383">
        <ele>185</ele>
        <time>2025-07-17T07:48:56.071Z</time>
      </trkpt>
      <trkpt lat="44.40643" lon="1.02384">
        <ele>185</ele>
        <time>2025-07-17T07:48:57.072Z</time>
      </trkpt>
      <trkpt lat="44.40642" lon="1.02385">
        <ele>185</ele>
        <time>2025-07-17T07:48:58.071Z</time>
      </trkpt>
      <trkpt lat="44.40642" lon="1.02386">
        <ele>185</ele>
        <time>2025-07-17T07:48:59.071Z</time>
      </trkpt>
      <trkpt lat="44.40641" lon="1.02388">
        <ele>185</ele>
        <time>2025-07-17T07:49:00.071Z</time>
      </trkpt>
      <trkpt lat="44.4064" lon="1.02389">
        <ele>185</ele>
        <time>2025-07-17T07:49:01.071Z</time>
      </trkpt>
      <trkpt lat="44.40639" lon="1.02391">
        <ele>184</ele>
        <time>2025-07-17T07:49:02.071Z</time>
      </trkpt>
      <trkpt lat="44.40639" lon="1.02392">
        <ele>184</ele>
        <time>2025-07-17T07:49:03.071Z</time>
      </trkpt>
      <trkpt lat="44.40638" lon="1.02393">
        <ele>185</ele>
        <time>2025-07-17T07:49:04.071Z</time>
      </trkpt>
      <trkpt lat="44.40638" lon="1.02395">
        <ele>185</ele>
        <time>2025-07-17T07:49:05.071Z</time>
      </trkpt>
      <trkpt lat="44.40637" lon="1.02396">
        <ele>185</ele>
        <time>2025-07-17T07:49:06.071Z</time>
      </trkpt>
      <trkpt lat="44.40637" lon="1.02398">
        <ele>185</ele>
        <time>2025-07-17T07:49:07.071Z</time>
      </trkpt>
      <trkpt lat="44.40636" lon="1.02399">
        <ele>185</ele>
        <time>2025-07-17T07:49:08.071Z</time>
      </trkpt>
      <trkpt lat="44.40635" lon="1.024">
        <ele>185</ele>
        <time>2025-07-17T07:49:09.072Z</time>
      </trkpt>
      <trkpt lat="44.40635" lon="1.02401">
        <ele>185</ele>
        <time>2025-07-17T07:49:10.071Z</time>
      </trkpt>
      <trkpt lat="44.40634" lon="1.02403">
        <ele>185</ele>
        <time>2025-07-17T07:49:11.071Z</time>
      </trkpt>
      <trkpt lat="44.40633" lon="1.02404">
        <ele>185</ele>
        <time>2025-07-17T07:49:12.071Z</time>
      </trkpt>
      <trkpt lat="44.40632" lon="1.02406">
        <ele>185</ele>
        <time>2025-07-17T07:49:13.071Z</time>
      </trkpt>
      <trkpt lat="44.40632" lon="1.02407">
        <ele>185</ele>
        <time>2025-07-17T07:49:14.071Z</time>
      </trkpt>
      <trkpt lat="44.40631" lon="1.02409">
        <ele>185</ele>
        <time>2025-07-17T07:49:15.071Z</time>
      </trkpt>
      <trkpt lat="44.4063" lon="1.02411">
        <ele>185</ele>
        <time>2025-07-17T07:49:16.071Z</time>
      </trkpt>
      <trkpt lat="44.4063" lon="1.02412">
        <ele>185</ele>
        <time>2025-07-17T07:49:17.071Z</time>
      </trkpt>
      <trkpt lat="44.40629" lon="1.02413">
        <ele>185</ele>
        <time>2025-07-17T07:49:18.071Z</time>
      </trkpt>
      <trkpt lat="44.40628" lon="1.02414">
        <ele>185</ele>
        <time>2025-07-17T07:49:19.071Z</time>
      </trkpt>
      <trkpt lat="44.40628" lon="1.02416">
        <ele>185</ele>
        <time>2025-07-17T07:49:20.071Z</time>
      </trkpt>
      <trkpt lat="44.40628" lon="1.02417">
        <ele>185</ele>
        <time>2025-07-17T07:49:21.072Z</time>
      </trkpt>
      <trkpt lat="44.40627" lon="1.02418">
        <ele>186</ele>
        <time>2025-07-17T07:49:22.071Z</time>
      </trkpt>
      <trkpt lat="44.40626" lon="1.02418">
        <ele>186</ele>
        <time>2025-07-17T07:49:23.071Z</time>
      </trkpt>
      <trkpt lat="44.40625" lon="1.02419">
        <ele>186</ele>
        <time>2025-07-17T07:49:24.071Z</time>
      </trkpt>
      <trkpt lat="44.40624" lon="1.02419">
        <ele>187</ele>
        <time>2025-07-17T07:49:25.072Z</time>
      </trkpt>
      <trkpt lat="44.40624" lon="1.0242">
        <ele>187</ele>
        <time>2025-07-17T07:49:26.071Z</time>
      </trkpt>
      <trkpt lat="44.40624" lon="1.0242">
        <ele>188</ele>
        <time>2025-07-17T07:49:27.072Z</time>
      </trkpt>
      <trkpt lat="44.40624" lon="1.0242">
        <ele>188</ele>
        <time>2025-07-17T07:49:28.071Z</time>
      </trkpt>
      <trkpt lat="44.40624" lon="1.0242">
        <ele>188</ele>
        <time>2025-07-17T07:49:29.071Z</time>
      </trkpt>
      <trkpt lat="44.40624" lon="1.0242">
        <ele>188</ele>
        <time>2025-07-17T07:49:30.071Z</time>
      </trkpt>
      <trkpt lat="44.40623" lon="1.0242">
        <ele>188</ele>
        <time>2025-07-17T07:49:31.072Z</time>
      </trkpt>
      <trkpt lat="44.40623" lon="1.0242">
        <ele>188</ele>
        <time>2025-07-17T07:49:32.072Z</time>
      </trkpt>
      <trkpt lat="44.40623" lon="1.0242">
        <ele>187</ele>
        <time>2025-07-17T07:49:33.071Z</time>
      </trkpt>
      <trkpt lat="44.40623" lon="1.0242">
        <ele>187</ele>
        <time>2025-07-17T07:49:34.071Z</time>
      </trkpt>
      <trkpt lat="44.40623" lon="1.02421">
        <ele>187</ele>
        <time>2025-07-17T07:49:35.071Z</time>
      </trkpt>
      <trkpt lat="44.40623" lon="1.02422">
        <ele>187</ele>
        <time>2025-07-17T07:49:36.071Z</time>
      </trkpt>
      <trkpt lat="44.40623" lon="1.02424">
        <ele>187</ele>
        <time>2025-07-17T07:49:37.071Z</time>
      </trkpt>
      <trkpt lat="44.40623" lon="1.02425">
        <ele>187</ele>
        <time>2025-07-17T07:49:38.071Z</time>
      </trkpt>
      <trkpt lat="44.40623" lon="1.02426">
        <ele>187</ele>
        <time>2025-07-17T07:49:39.072Z</time>
      </trkpt>
      <trkpt lat="44.40622" lon="1.02428">
        <ele>187</ele>
        <time>2025-07-17T07:49:40.071Z</time>
      </trkpt>
      <trkpt lat="44.40621" lon="1.02429">
        <ele>186</ele>
        <time>2025-07-17T07:49:41.071Z</time>
      </trkpt>
      <trkpt lat="44.40621" lon="1.0243">
        <ele>186</ele>
        <time>2025-07-17T07:49:42.071Z</time>
      </trkpt>
      <trkpt lat="44.4062" lon="1.02431">
        <ele>186</ele>
        <time>2025-07-17T07:49:43.071Z</time>
      </trkpt>
      <trkpt lat="44.4062" lon="1.02432">
        <ele>186</ele>
        <time>2025-07-17T07:49:44.071Z</time>
      </trkpt>
      <trkpt lat="44.4062" lon="1.02434">
        <ele>186</ele>
        <time>2025-07-17T07:49:45.071Z</time>
      </trkpt>
      <trkpt lat="44.40619" lon="1.02435">
        <ele>186</ele>
        <time>2025-07-17T07:49:46.071Z</time>
      </trkpt>
      <trkpt lat="44.40619" lon="1.02436">
        <ele>186</ele>
        <time>2025-07-17T07:49:47.071Z</time>
      </trkpt>
      <trkpt lat="44.40618" lon="1.02436">
        <ele>186</ele>
        <time>2025-07-17T07:49:48.071Z</time>
      </trkpt>
      <trkpt lat="44.40618" lon="1.02437">
        <ele>186</ele>
        <time>2025-07-17T07:49:49.071Z</time>
      </trkpt>
      <trkpt lat="44.40618" lon="1.02437">
        <ele>186</ele>
        <time>2025-07-17T07:49:50.071Z</time>
      </trkpt>
      <trkpt lat="44.40617" lon="1.02438">
        <ele>186</ele>
        <time>2025-07-17T07:49:51.071Z</time>
      </trkpt>
      <trkpt lat="44.40617" lon="1.02439">
        <ele>186</ele>
        <time>2025-07-17T07:49:52.071Z</time>
      </trkpt>
      <trkpt lat="44.40616" lon="1.02441">
        <ele>187</ele>
        <time>2025-07-17T07:49:53.071Z</time>
      </trkpt>
      <trkpt lat="44.40616" lon="1.02442">
        <ele>187</ele>
        <time>2025-07-17T07:49:54.071Z</time>
      </trkpt>
      <trkpt lat="44.40616" lon="1.02443">
        <ele>187</ele>
        <time>2025-07-17T07:49:55.071Z</time>
      </trkpt>
      <trkpt lat="44.40615" lon="1.02445">
        <ele>187</ele>
        <time>2025-07-17T07:49:56.072Z</time>
      </trkpt>
      <trkpt lat="44.40615" lon="1.02446">
        <ele>187</ele>
        <time>2025-07-17T07:49:57.071Z</time>
      </trkpt>
      <trkpt lat="44.40615" lon="1.02447">
        <ele>187</ele>
        <time>2025-07-17T07:49:58.071Z</time>
      </trkpt>
      <trkpt lat="44.40614" lon="1.02448">
        <ele>187</ele>
        <time>2025-07-17T07:49:59.071Z</time>
      </trkpt>
      <trkpt lat="44.40614" lon="1.0245">
        <ele>187</ele>
        <time>2025-07-17T07:50:00.071Z</time>
      </trkpt>
      <trkpt lat="44.40613" lon="1.02451">
        <ele>187</ele>
        <time>2025-07-17T07:50:01.071Z</time>
      </trkpt>
      <trkpt lat="44.40612" lon="1.02453">
        <ele>187</ele>
        <time>2025-07-17T07:50:02.071Z</time>
      </trkpt>
      <trkpt lat="44.40611" lon="1.02454">
        <ele>187</ele>
        <time>2025-07-17T07:50:03.071Z</time>
      </trkpt>
      <trkpt lat="44.40611" lon="1.02455">
        <ele>187</ele>
        <time>2025-07-17T07:50:04.071Z</time>
      </trkpt>
      <trkpt lat="44.40611" lon="1.02456">
        <ele>188</ele>
        <time>2025-07-17T07:50:05.071Z</time>
      </trkpt>
      <trkpt lat="44.4061" lon="1.02458">
        <ele>188</ele>
        <time>2025-07-17T07:50:06.072Z</time>
      </trkpt>
      <trkpt lat="44.4061" lon="1.02459">
        <ele>188</ele>
        <time>2025-07-17T07:50:07.072Z</time>
      </trkpt>
      <trkpt lat="44.40609" lon="1.0246">
        <ele>188</ele>
        <time>2025-07-17T07:50:08.071Z</time>
      </trkpt>
      <trkpt lat="44.40609" lon="1.02462">
        <ele>188</ele>
        <time>2025-07-17T07:50:09.071Z</time>
      </trkpt>
      <trkpt lat="44.40608" lon="1.02463">
        <ele>188</ele>
        <time>2025-07-17T07:50:10.071Z</time>
      </trkpt>
      <trkpt lat="44.40608" lon="1.02463">
        <ele>188</ele>
        <time>2025-07-17T07:50:11.071Z</time>
      </trkpt>
      <trkpt lat="44.40607" lon="1.02467">
        <ele>188</ele>
        <time>2025-07-17T07:50:12.071Z</time>
      </trkpt>
      <trkpt lat="44.40606" lon="1.02468">
        <ele>189</ele>
        <time>2025-07-17T07:50:13.072Z</time>
      </trkpt>
      <trkpt lat="44.40605" lon="1.02469">
        <ele>189</ele>
        <time>2025-07-17T07:50:14.071Z</time>
      </trkpt>
      <trkpt lat="44.40605" lon="1.0247">
        <ele>189</ele>
        <time>2025-07-17T07:50:15.071Z</time>
      </trkpt>
      <trkpt lat="44.40604" lon="1.02471">
        <ele>189</ele>
        <time>2025-07-17T07:50:16.072Z</time>
      </trkpt>
      <trkpt lat="44.40603" lon="1.02473">
        <ele>189</ele>
        <time>2025-07-17T07:50:17.071Z</time>
      </trkpt>
      <trkpt lat="44.40603" lon="1.02474">
        <ele>189</ele>
        <time>2025-07-17T07:50:18.071Z</time>
      </trkpt>
      <trkpt lat="44.40602" lon="1.02476">
        <ele>189</ele>
        <time>2025-07-17T07:50:19.071Z</time>
      </trkpt>
      <trkpt lat="44.40601" lon="1.02477">
        <ele>189</ele>
        <time>2025-07-17T07:50:20.071Z</time>
      </trkpt>
      <trkpt lat="44.40601" lon="1.02479">
        <ele>188</ele>
        <time>2025-07-17T07:50:21.071Z</time>
      </trkpt>
      <trkpt lat="44.406" lon="1.0248">
        <ele>188</ele>
        <time>2025-07-17T07:50:22.071Z</time>
      </trkpt>
      <trkpt lat="44.40599" lon="1.02482">
        <ele>188</ele>
        <time>2025-07-17T07:50:23.071Z</time>
      </trkpt>
      <trkpt lat="44.40598" lon="1.02483">
        <ele>188</ele>
        <time>2025-07-17T07:50:24.072Z</time>
      </trkpt>
      <trkpt lat="44.40598" lon="1.02484">
        <ele>188</ele>
        <time>2025-07-17T07:50:25.071Z</time>
      </trkpt>
      <trkpt lat="44.40597" lon="1.02486">
        <ele>187</ele>
        <time>2025-07-17T07:50:26.071Z</time>
      </trkpt>
      <trkpt lat="44.40597" lon="1.02487">
        <ele>187</ele>
        <time>2025-07-17T07:50:27.071Z</time>
      </trkpt>
      <trkpt lat="44.40596" lon="1.02489">
        <ele>187</ele>
        <time>2025-07-17T07:50:28.071Z</time>
      </trkpt>
      <trkpt lat="44.40596" lon="1.0249">
        <ele>187</ele>
        <time>2025-07-17T07:50:29.071Z</time>
      </trkpt>
      <trkpt lat="44.40595" lon="1.02491">
        <ele>187</ele>
        <time>2025-07-17T07:50:30.071Z</time>
      </trkpt>
      <trkpt lat="44.40595" lon="1.02492">
        <ele>187</ele>
        <time>2025-07-17T07:50:31.071Z</time>
      </trkpt>
      <trkpt lat="44.40595" lon="1.02493">
        <ele>186</ele>
        <time>2025-07-17T07:50:32.071Z</time>
      </trkpt>
      <trkpt lat="44.40594" lon="1.02494">
        <ele>186</ele>
        <time>2025-07-17T07:50:33.071Z</time>
      </trkpt>
      <trkpt lat="44.40594" lon="1.02495">
        <ele>186</ele>
        <time>2025-07-17T07:50:34.071Z</time>
      </trkpt>
      <trkpt lat="44.40594" lon="1.02497">
        <ele>186</ele>
        <time>2025-07-17T07:50:35.071Z</time>
      </trkpt>
      <trkpt lat="44.40593" lon="1.02498">
        <ele>186</ele>
        <time>2025-07-17T07:50:36.071Z</time>
      </trkpt>
      <trkpt lat="44.40593" lon="1.02499">
        <ele>186</ele>
        <time>2025-07-17T07:50:37.071Z</time>
      </trkpt>
      <trkpt lat="44.40592" lon="1.02501">
        <ele>187</ele>
        <time>2025-07-17T07:50:38.071Z</time>
      </trkpt>
      <trkpt lat="44.40592" lon="1.02502">
        <ele>187</ele>
        <time>2025-07-17T07:50:39.071Z</time>
      </trkpt>
      <trkpt lat="44.40591" lon="1.02504">
        <ele>187</ele>
        <time>2025-07-17T07:50:40.071Z</time>
      </trkpt>
      <trkpt lat="44.4059" lon="1.02505">
        <ele>187</ele>
        <time>2025-07-17T07:50:41.071Z</time>
      </trkpt>
      <trkpt lat="44.4059" lon="1.02507">
        <ele>187</ele>
        <time>2025-07-17T07:50:42.071Z</time>
      </trkpt>
      <trkpt lat="44.40589" lon="1.02509">
        <ele>187</ele>
        <time>2025-07-17T07:50:43.071Z</time>
      </trkpt>
      <trkpt lat="44.40589" lon="1.0251">
        <ele>188</ele>
        <time>2025-07-17T07:50:44.071Z</time>
      </trkpt>
      <trkpt lat="44.40588" lon="1.02512">
        <ele>188</ele>
        <time>2025-07-17T07:50:45.071Z</time>
      </trkpt>
      <trkpt lat="44.40587" lon="1.02513">
        <ele>188</ele>
        <time>2025-07-17T07:50:46.071Z</time>
      </trkpt>
      <trkpt lat="44.40586" lon="1.02514">
        <ele>188</ele>
        <time>2025-07-17T07:50:47.071Z</time>
      </trkpt>
      <trkpt lat="44.40586" lon="1.02516">
        <ele>188</ele>
        <time>2025-07-17T07:50:48.071Z</time>
      </trkpt>
      <trkpt lat="44.40585" lon="1.02517">
        <ele>188</ele>
        <time>2025-07-17T07:50:49.071Z</time>
      </trkpt>
      <trkpt lat="44.40584" lon="1.02519">
        <ele>188</ele>
        <time>2025-07-17T07:50:50.071Z</time>
      </trkpt>
      <trkpt lat="44.40583" lon="1.02521">
        <ele>188</ele>
        <time>2025-07-17T07:50:51.071Z</time>
      </trkpt>
      <trkpt lat="44.40582" lon="1.02522">
        <ele>188</ele>
        <time>2025-07-17T07:50:52.071Z</time>
      </trkpt>
      <trkpt lat="44.40581" lon="1.02523">
        <ele>188</ele>
        <time>2025-07-17T07:50:53.071Z</time>
      </trkpt>
      <trkpt lat="44.4058" lon="1.02523">
        <ele>188</ele>
        <time>2025-07-17T07:50:54.071Z</time>
      </trkpt>
      <trkpt lat="44.40579" lon="1.02523">
        <ele>188</ele>
        <time>2025-07-17T07:50:55.072Z</time>
      </trkpt>
      <trkpt lat="44.40578" lon="1.02523">
        <ele>188</ele>
        <time>2025-07-17T07:50:56.071Z</time>
      </trkpt>
      <trkpt lat="44.40577" lon="1.02523">
        <ele>188</ele>
        <time>2025-07-17T07:50:57.071Z</time>
      </trkpt>
      <trkpt lat="44.40575" lon="1.02523">
        <ele>189</ele>
        <time>2025-07-17T07:50:58.072Z</time>
      </trkpt>
      <trkpt lat="44.40574" lon="1.02523">
        <ele>189</ele>
        <time>2025-07-17T07:50:59.071Z</time>
      </trkpt>
      <trkpt lat="44.40572" lon="1.02523">
        <ele>189</ele>
        <time>2025-07-17T07:51:00.071Z</time>
      </trkpt>
      <trkpt lat="44.40571" lon="1.02523">
        <ele>189</ele>
        <time>2025-07-17T07:51:01.071Z</time>
      </trkpt>
      <trkpt lat="44.4057" lon="1.02522">
        <ele>189</ele>
        <time>2025-07-17T07:51:02.072Z</time>
      </trkpt>
      <trkpt lat="44.40569" lon="1.02522">
        <ele>189</ele>
        <time>2025-07-17T07:51:03.072Z</time>
      </trkpt>
      <trkpt lat="44.40568" lon="1.02522">
        <ele>189</ele>
        <time>2025-07-17T07:51:04.072Z</time>
      </trkpt>
      <trkpt lat="44.40567" lon="1.02522">
        <ele>189</ele>
        <time>2025-07-17T07:51:05.071Z</time>
      </trkpt>
      <trkpt lat="44.40566" lon="1.02522">
        <ele>189</ele>
        <time>2025-07-17T07:51:06.071Z</time>
      </trkpt>
      <trkpt lat="44.40565" lon="1.02522">
        <ele>189</ele>
        <time>2025-07-17T07:51:07.072Z</time>
      </trkpt>
      <trkpt lat="44.40564" lon="1.02521">
        <ele>189</ele>
        <time>2025-07-17T07:51:08.071Z</time>
      </trkpt>
      <trkpt lat="44.40563" lon="1.02521">
        <ele>189</ele>
        <time>2025-07-17T07:51:09.072Z</time>
      </trkpt>
      <trkpt lat="44.40562" lon="1.02522">
        <ele>189</ele>
        <time>2025-07-17T07:51:10.072Z</time>
      </trkpt>
      <trkpt lat="44.40561" lon="1.02522">
        <ele>189</ele>
        <time>2025-07-17T07:51:11.071Z</time>
      </trkpt>
      <trkpt lat="44.40559" lon="1.02523">
        <ele>189</ele>
        <time>2025-07-17T07:51:12.072Z</time>
      </trkpt>
      <trkpt lat="44.40558" lon="1.02524">
        <ele>189</ele>
        <time>2025-07-17T07:51:13.071Z</time>
      </trkpt>
      <trkpt lat="44.40557" lon="1.02524">
        <ele>190</ele>
        <time>2025-07-17T07:51:14.071Z</time>
      </trkpt>
      <trkpt lat="44.40556" lon="1.02524">
        <ele>190</ele>
        <time>2025-07-17T07:51:15.071Z</time>
      </trkpt>
      <trkpt lat="44.40555" lon="1.02523">
        <ele>190</ele>
        <time>2025-07-17T07:51:16.071Z</time>
      </trkpt>
      <trkpt lat="44.40553" lon="1.02522">
        <ele>190</ele>
        <time>2025-07-17T07:51:17.071Z</time>
      </trkpt>
      <trkpt lat="44.40552" lon="1.02522">
        <ele>190</ele>
        <time>2025-07-17T07:51:18.071Z</time>
      </trkpt>
      <trkpt lat="44.4055" lon="1.02522">
        <ele>190</ele>
        <time>2025-07-17T07:51:19.071Z</time>
      </trkpt>
      <trkpt lat="44.40549" lon="1.02522">
        <ele>190</ele>
        <time>2025-07-17T07:51:20.071Z</time>
      </trkpt>
      <trkpt lat="44.40548" lon="1.02522">
        <ele>190</ele>
        <time>2025-07-17T07:51:21.071Z</time>
      </trkpt>
      <trkpt lat="44.40546" lon="1.02523">
        <ele>190</ele>
        <time>2025-07-17T07:51:22.071Z</time>
      </trkpt>
      <trkpt lat="44.40545" lon="1.02523">
        <ele>191</ele>
        <time>2025-07-17T07:51:23.072Z</time>
      </trkpt>
      <trkpt lat="44.40544" lon="1.02523">
        <ele>191</ele>
        <time>2025-07-17T07:51:24.072Z</time>
      </trkpt>
      <trkpt lat="44.40543" lon="1.02523">
        <ele>191</ele>
        <time>2025-07-17T07:51:25.071Z</time>
      </trkpt>
      <trkpt lat="44.40541" lon="1.02523">
        <ele>191</ele>
        <time>2025-07-17T07:51:26.071Z</time>
      </trkpt>
      <trkpt lat="44.4054" lon="1.02523">
        <ele>191</ele>
        <time>2025-07-17T07:51:27.072Z</time>
      </trkpt>
      <trkpt lat="44.40539" lon="1.02523">
        <ele>190</ele>
        <time>2025-07-17T07:51:28.072Z</time>
      </trkpt>
      <trkpt lat="44.40537" lon="1.02523">
        <ele>190</ele>
        <time>2025-07-17T07:51:29.071Z</time>
      </trkpt>
      <trkpt lat="44.40536" lon="1.02524">
        <ele>190</ele>
        <time>2025-07-17T07:51:30.072Z</time>
      </trkpt>
      <trkpt lat="44.40535" lon="1.02524">
        <ele>190</ele>
        <time>2025-07-17T07:51:31.072Z</time>
      </trkpt>
      <trkpt lat="44.40534" lon="1.02525">
        <ele>190</ele>
        <time>2025-07-17T07:51:32.071Z</time>
      </trkpt>
      <trkpt lat="44.40533" lon="1.02526">
        <ele>189</ele>
        <time>2025-07-17T07:51:33.071Z</time>
      </trkpt>
      <trkpt lat="44.40532" lon="1.02527">
        <ele>189</ele>
        <time>2025-07-17T07:51:34.072Z</time>
      </trkpt>
      <trkpt lat="44.40532" lon="1.02528">
        <ele>189</ele>
        <time>2025-07-17T07:51:35.072Z</time>
      </trkpt>
      <trkpt lat="44.4053" lon="1.02529">
        <ele>189</ele>
        <time>2025-07-17T07:51:36.071Z</time>
      </trkpt>
      <trkpt lat="44.40529" lon="1.02529">
        <ele>189</ele>
        <time>2025-07-17T07:51:37.072Z</time>
      </trkpt>
      <trkpt lat="44.40528" lon="1.0253">
        <ele>190</ele>
        <time>2025-07-17T07:51:38.071Z</time>
      </trkpt>
      <trkpt lat="44.40526" lon="1.0253">
        <ele>190</ele>
        <time>2025-07-17T07:51:39.071Z</time>
      </trkpt>
      <trkpt lat="44.40525" lon="1.02531">
        <ele>190</ele>
        <time>2025-07-17T07:51:40.072Z</time>
      </trkpt>
      <trkpt lat="44.40524" lon="1.02531">
        <ele>190</ele>
        <time>2025-07-17T07:51:41.072Z</time>
      </trkpt>
      <trkpt lat="44.40523" lon="1.02532">
        <ele>190</ele>
        <time>2025-07-17T07:51:42.071Z</time>
      </trkpt>
      <trkpt lat="44.40522" lon="1.02532">
        <ele>190</ele>
        <time>2025-07-17T07:51:43.072Z</time>
      </trkpt>
      <trkpt lat="44.40521" lon="1.02533">
        <ele>190</ele>
        <time>2025-07-17T07:51:44.072Z</time>
      </trkpt>
      <trkpt lat="44.40519" lon="1.02534">
        <ele>190</ele>
        <time>2025-07-17T07:51:45.071Z</time>
      </trkpt>
      <trkpt lat="44.40518" lon="1.02535">
        <ele>189</ele>
        <time>2025-07-17T07:51:46.072Z</time>
      </trkpt>
      <trkpt lat="44.40517" lon="1.02536">
        <ele>189</ele>
        <time>2025-07-17T07:51:47.071Z</time>
      </trkpt>
      <trkpt lat="44.40516" lon="1.02537">
        <ele>189</ele>
        <time>2025-07-17T07:51:48.071Z</time>
      </trkpt>
      <trkpt lat="44.40515" lon="1.02538">
        <ele>189</ele>
        <time>2025-07-17T07:51:49.072Z</time>
      </trkpt>
      <trkpt lat="44.40514" lon="1.02538">
        <ele>189</ele>
        <time>2025-07-17T07:51:50.071Z</time>
      </trkpt>
      <trkpt lat="44.40513" lon="1.02539">
        <ele>189</ele>
        <time>2025-07-17T07:51:51.071Z</time>
      </trkpt>
      <trkpt lat="44.40512" lon="1.02539">
        <ele>189</ele>
        <time>2025-07-17T07:51:52.071Z</time>
      </trkpt>
      <trkpt lat="44.40511" lon="1.02539">
        <ele>189</ele>
        <time>2025-07-17T07:51:53.071Z</time>
      </trkpt>
      <trkpt lat="44.4051" lon="1.0254">
        <ele>188</ele>
        <time>2025-07-17T07:51:54.071Z</time>
      </trkpt>
      <trkpt lat="44.40509" lon="1.0254">
        <ele>188</ele>
        <time>2025-07-17T07:51:55.071Z</time>
      </trkpt>
      <trkpt lat="44.40508" lon="1.0254">
        <ele>188</ele>
        <time>2025-07-17T07:51:56.071Z</time>
      </trkpt>
      <trkpt lat="44.40508" lon="1.0254">
        <ele>187</ele>
        <time>2025-07-17T07:51:57.071Z</time>
      </trkpt>
      <trkpt lat="44.40507" lon="1.0254">
        <ele>187</ele>
        <time>2025-07-17T07:51:58.072Z</time>
      </trkpt>
      <trkpt lat="44.40506" lon="1.0254">
        <ele>186</ele>
        <time>2025-07-17T07:51:59.071Z</time>
      </trkpt>
      <trkpt lat="44.40505" lon="1.0254">
        <ele>186</ele>
        <time>2025-07-17T07:52:00.071Z</time>
      </trkpt>
      <trkpt lat="44.40503" lon="1.02541">
        <ele>186</ele>
        <time>2025-07-17T07:52:01.071Z</time>
      </trkpt>
      <trkpt lat="44.40502" lon="1.02542">
        <ele>185</ele>
        <time>2025-07-17T07:52:02.071Z</time>
      </trkpt>
      <trkpt lat="44.40501" lon="1.02542">
        <ele>185</ele>
        <time>2025-07-17T07:52:03.072Z</time>
      </trkpt>
      <trkpt lat="44.40501" lon="1.02542">
        <ele>185</ele>
        <time>2025-07-17T07:52:04.071Z</time>
      </trkpt>
      <trkpt lat="44.405" lon="1.02543">
        <ele>185</ele>
        <time>2025-07-17T07:52:05.072Z</time>
      </trkpt>
      <trkpt lat="44.40498" lon="1.02544">
        <ele>185</ele>
        <time>2025-07-17T07:52:06.071Z</time>
      </trkpt>
      <trkpt lat="44.40497" lon="1.02545">
        <ele>185</ele>
        <time>2025-07-17T07:52:07.072Z</time>
      </trkpt>
      <trkpt lat="44.40496" lon="1.02545">
        <ele>185</ele>
        <time>2025-07-17T07:52:08.071Z</time>
      </trkpt>
      <trkpt lat="44.40494" lon="1.02545">
        <ele>185</ele>
        <time>2025-07-17T07:52:09.071Z</time>
      </trkpt>
      <trkpt lat="44.40493" lon="1.02545">
        <ele>185</ele>
        <time>2025-07-17T07:52:10.071Z</time>
      </trkpt>
      <trkpt lat="44.40491" lon="1.02545">
        <ele>185</ele>
        <time>2025-07-17T07:52:11.071Z</time>
      </trkpt>
      <trkpt lat="44.4049" lon="1.02544">
        <ele>185</ele>
        <time>2025-07-17T07:52:12.072Z</time>
      </trkpt>
      <trkpt lat="44.40489" lon="1.02545">
        <ele>185</ele>
        <time>2025-07-17T07:52:13.071Z</time>
      </trkpt>
      <trkpt lat="44.40488" lon="1.02545">
        <ele>185</ele>
        <time>2025-07-17T07:52:14.071Z</time>
      </trkpt>
      <trkpt lat="44.40487" lon="1.02545">
        <ele>184</ele>
        <time>2025-07-17T07:52:15.072Z</time>
      </trkpt>
      <trkpt lat="44.40486" lon="1.02545">
        <ele>184</ele>
        <time>2025-07-17T07:52:16.072Z</time>
      </trkpt>
      <trkpt lat="44.40485" lon="1.02544">
        <ele>184</ele>
        <time>2025-07-17T07:52:17.071Z</time>
      </trkpt>
      <trkpt lat="44.40484" lon="1.02544">
        <ele>184</ele>
        <time>2025-07-17T07:52:18.071Z</time>
      </trkpt>
      <trkpt lat="44.40483" lon="1.02543">
        <ele>183</ele>
        <time>2025-07-17T07:52:19.071Z</time>
      </trkpt>
      <trkpt lat="44.40482" lon="1.02543">
        <ele>183</ele>
        <time>2025-07-17T07:52:20.071Z</time>
      </trkpt>
      <trkpt lat="44.40481" lon="1.02543">
        <ele>183</ele>
        <time>2025-07-17T07:52:21.071Z</time>
      </trkpt>
      <trkpt lat="44.40479" lon="1.02543">
        <ele>182</ele>
        <time>2025-07-17T07:52:22.072Z</time>
      </trkpt>
      <trkpt lat="44.40478" lon="1.02542">
        <ele>182</ele>
        <time>2025-07-17T07:52:23.071Z</time>
      </trkpt>
      <trkpt lat="44.40477" lon="1.02542">
        <ele>182</ele>
        <time>2025-07-17T07:52:24.071Z</time>
      </trkpt>
      <trkpt lat="44.40476" lon="1.02542">
        <ele>182</ele>
        <time>2025-07-17T07:52:25.072Z</time>
      </trkpt>
      <trkpt lat="44.40475" lon="1.02542">
        <ele>183</ele>
        <time>2025-07-17T07:52:26.071Z</time>
      </trkpt>
      <trkpt lat="44.40474" lon="1.02542">
        <ele>183</ele>
        <time>2025-07-17T07:52:27.072Z</time>
      </trkpt>
      <trkpt lat="44.40473" lon="1.02542">
        <ele>183</ele>
        <time>2025-07-17T07:52:28.071Z</time>
      </trkpt>
      <trkpt lat="44.40472" lon="1.02541">
        <ele>183</ele>
        <time>2025-07-17T07:52:29.071Z</time>
      </trkpt>
      <trkpt lat="44.40471" lon="1.02539">
        <ele>184</ele>
        <time>2025-07-17T07:52:30.071Z</time>
      </trkpt>
      <trkpt lat="44.4047" lon="1.02538">
        <ele>184</ele>
        <time>2025-07-17T07:52:31.071Z</time>
      </trkpt>
      <trkpt lat="44.40469" lon="1.02536">
        <ele>184</ele>
        <time>2025-07-17T07:52:32.071Z</time>
      </trkpt>
      <trkpt lat="44.40469" lon="1.02534">
        <ele>184</ele>
        <time>2025-07-17T07:52:33.071Z</time>
      </trkpt>
      <trkpt lat="44.40468" lon="1.02533">
        <ele>184</ele>
        <time>2025-07-17T07:52:34.071Z</time>
      </trkpt>
      <trkpt lat="44.40467" lon="1.02532">
        <ele>184</ele>
        <time>2025-07-17T07:52:35.071Z</time>
      </trkpt>
      <trkpt lat="44.40466" lon="1.0253">
        <ele>184</ele>
        <time>2025-07-17T07:52:36.071Z</time>
      </trkpt>
      <trkpt lat="44.40466" lon="1.02529">
        <ele>184</ele>
        <time>2025-07-17T07:52:37.071Z</time>
      </trkpt>
      <trkpt lat="44.40466" lon="1.02527">
        <ele>184</ele>
        <time>2025-07-17T07:52:38.071Z</time>
      </trkpt>
      <trkpt lat="44.40466" lon="1.02525">
        <ele>184</ele>
        <time>2025-07-17T07:52:39.072Z</time>
      </trkpt>
      <trkpt lat="44.40466" lon="1.02523">
        <ele>183</ele>
        <time>2025-07-17T07:52:40.071Z</time>
      </trkpt>
      <trkpt lat="44.40466" lon="1.02521">
        <ele>183</ele>
        <time>2025-07-17T07:52:41.071Z</time>
      </trkpt>
      <trkpt lat="44.40466" lon="1.02519">
        <ele>182</ele>
        <time>2025-07-17T07:52:42.071Z</time>
      </trkpt>
      <trkpt lat="44.40467" lon="1.02517">
        <ele>182</ele>
        <time>2025-07-17T07:52:43.071Z</time>
      </trkpt>
      <trkpt lat="44.40468" lon="1.02515">
        <ele>182</ele>
        <time>2025-07-17T07:52:44.071Z</time>
      </trkpt>
      <trkpt lat="44.40468" lon="1.02513">
        <ele>181</ele>
        <time>2025-07-17T07:52:45.071Z</time>
      </trkpt>
      <trkpt lat="44.40468" lon="1.02511">
        <ele>181</ele>
        <time>2025-07-17T07:52:46.071Z</time>
      </trkpt>
      <trkpt lat="44.40468" lon="1.02509">
        <ele>182</ele>
        <time>2025-07-17T07:52:47.071Z</time>
      </trkpt>
      <trkpt lat="44.40467" lon="1.02507">
        <ele>182</ele>
        <time>2025-07-17T07:52:48.071Z</time>
      </trkpt>
      <trkpt lat="44.40467" lon="1.02505">
        <ele>182</ele>
        <time>2025-07-17T07:52:49.071Z</time>
      </trkpt>
      <trkpt lat="44.40466" lon="1.02503">
        <ele>183</ele>
        <time>2025-07-17T07:52:50.071Z</time>
      </trkpt>
      <trkpt lat="44.40466" lon="1.02501">
        <ele>183</ele>
        <time>2025-07-17T07:52:51.071Z</time>
      </trkpt>
      <trkpt lat="44.40466" lon="1.025">
        <ele>184</ele>
        <time>2025-07-17T07:52:52.071Z</time>
      </trkpt>
      <trkpt lat="44.40465" lon="1.02499">
        <ele>184</ele>
        <time>2025-07-17T07:52:53.071Z</time>
      </trkpt>
      <trkpt lat="44.40465" lon="1.02498">
        <ele>184</ele>
        <time>2025-07-17T07:52:54.071Z</time>
      </trkpt>
      <trkpt lat="44.40465" lon="1.02497">
        <ele>185</ele>
        <time>2025-07-17T07:52:55.072Z</time>
      </trkpt>
      <trkpt lat="44.40465" lon="1.02497">
        <ele>185</ele>
        <time>2025-07-17T07:52:56.071Z</time>
      </trkpt>
      <trkpt lat="44.40464" lon="1.02496">
        <ele>186</ele>
        <time>2025-07-17T07:52:57.071Z</time>
      </trkpt>
      <trkpt lat="44.40464" lon="1.02494">
        <ele>186</ele>
        <time>2025-07-17T07:52:58.071Z</time>
      </trkpt>
      <trkpt lat="44.40464" lon="1.02492">
        <ele>186</ele>
        <time>2025-07-17T07:52:59.071Z</time>
      </trkpt>
      <trkpt lat="44.40464" lon="1.0249">
        <ele>187</ele>
        <time>2025-07-17T07:53:00.071Z</time>
      </trkpt>
      <trkpt lat="44.40465" lon="1.02488">
        <ele>187</ele>
        <time>2025-07-17T07:53:01.071Z</time>
      </trkpt>
      <trkpt lat="44.40464" lon="1.02486">
        <ele>187</ele>
        <time>2025-07-17T07:53:02.071Z</time>
      </trkpt>
      <trkpt lat="44.40463" lon="1.02484">
        <ele>188</ele>
        <time>2025-07-17T07:53:03.071Z</time>
      </trkpt>
      <trkpt lat="44.40463" lon="1.02481">
        <ele>188</ele>
        <time>2025-07-17T07:53:04.071Z</time>
      </trkpt>
      <trkpt lat="44.40463" lon="1.02479">
        <ele>189</ele>
        <time>2025-07-17T07:53:05.071Z</time>
      </trkpt>
      <trkpt lat="44.40463" lon="1.02477">
        <ele>190</ele>
        <time>2025-07-17T07:53:06.071Z</time>
      </trkpt>
      <trkpt lat="44.40463" lon="1.02476">
        <ele>190</ele>
        <time>2025-07-17T07:53:07.071Z</time>
      </trkpt>
      <trkpt lat="44.40464" lon="1.02474">
        <ele>190</ele>
        <time>2025-07-17T07:53:08.071Z</time>
      </trkpt>
      <trkpt lat="44.40463" lon="1.02473">
        <ele>191</ele>
        <time>2025-07-17T07:53:09.071Z</time>
      </trkpt>
      <trkpt lat="44.40463" lon="1.02471">
        <ele>191</ele>
        <time>2025-07-17T07:53:10.071Z</time>
      </trkpt>
      <trkpt lat="44.40463" lon="1.02469">
        <ele>191</ele>
        <time>2025-07-17T07:53:11.071Z</time>
      </trkpt>
      <trkpt lat="44.40463" lon="1.02467">
        <ele>191</ele>
        <time>2025-07-17T07:53:12.071Z</time>
      </trkpt>
      <trkpt lat="44.40462" lon="1.02465">
        <ele>192</ele>
        <time>2025-07-17T07:53:13.071Z</time>
      </trkpt>
      <trkpt lat="44.40462" lon="1.02463">
        <ele>192</ele>
        <time>2025-07-17T07:53:14.071Z</time>
      </trkpt>
      <trkpt lat="44.40462" lon="1.02462">
        <ele>192</ele>
        <time>2025-07-17T07:53:15.071Z</time>
      </trkpt>
      <trkpt lat="44.40463" lon="1.02462">
        <ele>191</ele>
        <time>2025-07-17T07:53:16.072Z</time>
      </trkpt>
      <trkpt lat="44.40463" lon="1.02461">
        <ele>191</ele>
        <time>2025-07-17T07:53:17.071Z</time>
      </trkpt>
      <trkpt lat="44.40463" lon="1.0246">
        <ele>190</ele>
        <time>2025-07-17T07:53:18.072Z</time>
      </trkpt>
      <trkpt lat="44.40463" lon="1.02459">
        <ele>190</ele>
        <time>2025-07-17T07:53:19.071Z</time>
      </trkpt>
      <trkpt lat="44.40463" lon="1.02457">
        <ele>189</ele>
        <time>2025-07-17T07:53:20.071Z</time>
      </trkpt>
      <trkpt lat="44.40462" lon="1.02455">
        <ele>189</ele>
        <time>2025-07-17T07:53:21.071Z</time>
      </trkpt>
      <trkpt lat="44.40462" lon="1.02453">
        <ele>188</ele>
        <time>2025-07-17T07:53:22.071Z</time>
      </trkpt>
      <trkpt lat="44.40463" lon="1.02452">
        <ele>188</ele>
        <time>2025-07-17T07:53:23.072Z</time>
      </trkpt>
      <trkpt lat="44.40463" lon="1.0245">
        <ele>188</ele>
        <time>2025-07-17T07:53:24.072Z</time>
      </trkpt>
      <trkpt lat="44.40464" lon="1.02449">
        <ele>188</ele>
        <time>2025-07-17T07:53:25.072Z</time>
      </trkpt>
      <trkpt lat="44.40464" lon="1.02447">
        <ele>187</ele>
        <time>2025-07-17T07:53:26.071Z</time>
      </trkpt>
      <trkpt lat="44.40464" lon="1.02446">
        <ele>187</ele>
        <time>2025-07-17T07:53:27.071Z</time>
      </trkpt>
      <trkpt lat="44.40464" lon="1.02445">
        <ele>187</ele>
        <time>2025-07-17T07:53:28.071Z</time>
      </trkpt>
      <trkpt lat="44.40464" lon="1.02443">
        <ele>187</ele>
        <time>2025-07-17T07:53:29.071Z</time>
      </trkpt>
      <trkpt lat="44.40464" lon="1.02442">
        <ele>186</ele>
        <time>2025-07-17T07:53:30.071Z</time>
      </trkpt>
      <trkpt lat="44.40464" lon="1.02441">
        <ele>186</ele>
        <time>2025-07-17T07:53:31.071Z</time>
      </trkpt>
      <trkpt lat="44.40465" lon="1.0244">
        <ele>186</ele>
        <time>2025-07-17T07:53:32.071Z</time>
      </trkpt>
      <trkpt lat="44.40465" lon="1.02439">
        <ele>185</ele>
        <time>2025-07-17T07:53:33.071Z</time>
      </trkpt>
      <trkpt lat="44.40465" lon="1.02437">
        <ele>185</ele>
        <time>2025-07-17T07:53:34.071Z</time>
      </trkpt>
      <trkpt lat="44.40465" lon="1.02436">
        <ele>185</ele>
        <time>2025-07-17T07:53:35.071Z</time>
      </trkpt>
      <trkpt lat="44.40465" lon="1.02435">
        <ele>185</ele>
        <time>2025-07-17T07:53:36.071Z</time>
      </trkpt>
      <trkpt lat="44.40466" lon="1.02435">
        <ele>184</ele>
        <time>2025-07-17T07:53:37.072Z</time>
      </trkpt>
      <trkpt lat="44.40466" lon="1.02434">
        <ele>183</ele>
        <time>2025-07-17T07:53:38.071Z</time>
      </trkpt>
      <trkpt lat="44.40466" lon="1.02432">
        <ele>182</ele>
        <time>2025-07-17T07:53:39.072Z</time>
      </trkpt>
      <trkpt lat="44.40466" lon="1.02431">
        <ele>181</ele>
        <time>2025-07-17T07:53:40.071Z</time>
      </trkpt>
      <trkpt lat="44.40466" lon="1.0243">
        <ele>180</ele>
        <time>2025-07-17T07:53:41.071Z</time>
      </trkpt>
      <trkpt lat="44.40466" lon="1.02429">
        <ele>180</ele>
        <time>2025-07-17T07:53:42.071Z</time>
      </trkpt>
      <trkpt lat="44.40466" lon="1.02427">
        <ele>179</ele>
        <time>2025-07-17T07:53:43.071Z</time>
      </trkpt>
      <trkpt lat="44.40465" lon="1.02426">
        <ele>178</ele>
        <time>2025-07-17T07:53:44.071Z</time>
      </trkpt>
      <trkpt lat="44.40465" lon="1.02425">
        <ele>178</ele>
        <time>2025-07-17T07:53:45.071Z</time>
      </trkpt>
      <trkpt lat="44.40464" lon="1.02424">
        <ele>177</ele>
        <time>2025-07-17T07:53:46.071Z</time>
      </trkpt>
      <trkpt lat="44.40464" lon="1.02423">
        <ele>176</ele>
        <time>2025-07-17T07:53:47.071Z</time>
      </trkpt>
      <trkpt lat="44.40464" lon="1.02421">
        <ele>176</ele>
        <time>2025-07-17T07:53:48.071Z</time>
      </trkpt>
      <trkpt lat="44.40463" lon="1.0242">
        <ele>175</ele>
        <time>2025-07-17T07:53:49.071Z</time>
      </trkpt>
      <trkpt lat="44.40462" lon="1.02419">
        <ele>174</ele>
        <time>2025-07-17T07:53:50.071Z</time>
      </trkpt>
      <trkpt lat="44.40462" lon="1.02416">
        <ele>174</ele>
        <time>2025-07-17T07:53:51.071Z</time>
      </trkpt>
      <trkpt lat="44.40462" lon="1.02415">
        <ele>174</ele>
        <time>2025-07-17T07:53:52.071Z</time>
      </trkpt>
      <trkpt lat="44.40461" lon="1.02413">
        <ele>173</ele>
        <time>2025-07-17T07:53:53.071Z</time>
      </trkpt>
      <trkpt lat="44.40461" lon="1.02412">
        <ele>173</ele>
        <time>2025-07-17T07:53:54.071Z</time>
      </trkpt>
      <trkpt lat="44.4046" lon="1.02411">
        <ele>173</ele>
        <time>2025-07-17T07:53:55.072Z</time>
      </trkpt>
      <trkpt lat="44.4046" lon="1.0241">
        <ele>172</ele>
        <time>2025-07-17T07:53:56.071Z</time>
      </trkpt>
      <trkpt lat="44.4046" lon="1.02408">
        <ele>172</ele>
        <time>2025-07-17T07:53:57.072Z</time>
      </trkpt>
      <trkpt lat="44.40459" lon="1.02408">
        <ele>172</ele>
        <time>2025-07-17T07:53:58.071Z</time>
      </trkpt>
      <trkpt lat="44.40458" lon="1.02407">
        <ele>171</ele>
        <time>2025-07-17T07:53:59.071Z</time>
      </trkpt>
      <trkpt lat="44.40458" lon="1.02406">
        <ele>171</ele>
        <time>2025-07-17T07:54:00.071Z</time>
      </trkpt>
      <trkpt lat="44.40457" lon="1.02405">
        <ele>171</ele>
        <time>2025-07-17T07:54:01.071Z</time>
      </trkpt>
      <trkpt lat="44.40456" lon="1.02404">
        <ele>171</ele>
        <time>2025-07-17T07:54:02.071Z</time>
      </trkpt>
      <trkpt lat="44.40456" lon="1.02403">
        <ele>171</ele>
        <time>2025-07-17T07:54:03.071Z</time>
      </trkpt>
      <trkpt lat="44.40455" lon="1.02402">
        <ele>171</ele>
        <time>2025-07-17T07:54:04.071Z</time>
      </trkpt>
      <trkpt lat="44.40455" lon="1.02401">
        <ele>171</ele>
        <time>2025-07-17T07:54:05.071Z</time>
      </trkpt>
      <trkpt lat="44.40454" lon="1.024">
        <ele>171</ele>
        <time>2025-07-17T07:54:06.071Z</time>
      </trkpt>
      <trkpt lat="44.40454" lon="1.024">
        <ele>171</ele>
        <time>2025-07-17T07:54:07.072Z</time>
      </trkpt>
      <trkpt lat="44.40454" lon="1.02399">
        <ele>170</ele>
        <time>2025-07-17T07:54:08.071Z</time>
      </trkpt>
      <trkpt lat="44.40453" lon="1.02398">
        <ele>170</ele>
        <time>2025-07-17T07:54:09.071Z</time>
      </trkpt>
      <trkpt lat="44.40453" lon="1.02398">
        <ele>170</ele>
        <time>2025-07-17T07:54:10.072Z</time>
      </trkpt>
      <trkpt lat="44.40452" lon="1.02397">
        <ele>170</ele>
        <time>2025-07-17T07:54:11.071Z</time>
      </trkpt>
      <trkpt lat="44.40452" lon="1.02395">
        <ele>170</ele>
        <time>2025-07-17T07:54:12.071Z</time>
      </trkpt>
      <trkpt lat="44.40452" lon="1.02393">
        <ele>170</ele>
        <time>2025-07-17T07:54:13.072Z</time>
      </trkpt>
      <trkpt lat="44.40451" lon="1.02391">
        <ele>169</ele>
        <time>2025-07-17T07:54:14.072Z</time>
      </trkpt>
      <trkpt lat="44.40451" lon="1.0239">
        <ele>169</ele>
        <time>2025-07-17T07:54:15.071Z</time>
      </trkpt>
      <trkpt lat="44.4045" lon="1.02388">
        <ele>169</ele>
        <time>2025-07-17T07:54:16.071Z</time>
      </trkpt>
      <trkpt lat="44.40449" lon="1.02387">
        <ele>169</ele>
        <time>2025-07-17T07:54:17.071Z</time>
      </trkpt>
      <trkpt lat="44.40448" lon="1.02386">
        <ele>169</ele>
        <time>2025-07-17T07:54:18.071Z</time>
      </trkpt>
      <trkpt lat="44.40448" lon="1.02384">
        <ele>169</ele>
        <time>2025-07-17T07:54:19.071Z</time>
      </trkpt>
      <trkpt lat="44.40447" lon="1.02383">
        <ele>169</ele>
        <time>2025-07-17T07:54:20.071Z</time>
      </trkpt>
      <trkpt lat="44.40447" lon="1.02381">
        <ele>169</ele>
        <time>2025-07-17T07:54:21.072Z</time>
      </trkpt>
      <trkpt lat="44.40446" lon="1.02381">
        <ele>169</ele>
        <time>2025-07-17T07:54:22.071Z</time>
      </trkpt>
      <trkpt lat="44.40445" lon="1.02379">
        <ele>169</ele>
        <time>2025-07-17T07:54:23.071Z</time>
      </trkpt>
      <trkpt lat="44.40444" lon="1.02378">
        <ele>169</ele>
        <time>2025-07-17T07:54:24.071Z</time>
      </trkpt>
      <trkpt lat="44.40444" lon="1.02376">
        <ele>169</ele>
        <time>2025-07-17T07:54:25.071Z</time>
      </trkpt>
      <trkpt lat="44.40443" lon="1.02375">
        <ele>169</ele>
        <time>2025-07-17T07:54:26.071Z</time>
      </trkpt>
      <trkpt lat="44.40443" lon="1.02373">
        <ele>169</ele>
        <time>2025-07-17T07:54:27.071Z</time>
      </trkpt>
      <trkpt lat="44.40442" lon="1.02372">
        <ele>168</ele>
        <time>2025-07-17T07:54:28.071Z</time>
      </trkpt>
      <trkpt lat="44.40442" lon="1.02372">
        <ele>168</ele>
        <time>2025-07-17T07:54:29.071Z</time>
      </trkpt>
      <trkpt lat="44.40441" lon="1.02368">
        <ele>168</ele>
        <time>2025-07-17T07:54:30.071Z</time>
      </trkpt>
      <trkpt lat="44.4044" lon="1.02367">
        <ele>168</ele>
        <time>2025-07-17T07:54:31.071Z</time>
      </trkpt>
      <trkpt lat="44.4044" lon="1.02366">
        <ele>168</ele>
        <time>2025-07-17T07:54:32.071Z</time>
      </trkpt>
      <trkpt lat="44.40439" lon="1.02364">
        <ele>168</ele>
        <time>2025-07-17T07:54:33.071Z</time>
      </trkpt>
      <trkpt lat="44.40439" lon="1.02363">
        <ele>168</ele>
        <time>2025-07-17T07:54:34.071Z</time>
      </trkpt>
      <trkpt lat="44.40439" lon="1.02361">
        <ele>168</ele>
        <time>2025-07-17T07:54:35.071Z</time>
      </trkpt>
      <trkpt lat="44.40438" lon="1.0236">
        <ele>168</ele>
        <time>2025-07-17T07:54:36.071Z</time>
      </trkpt>
      <trkpt lat="44.40437" lon="1.02358">
        <ele>168</ele>
        <time>2025-07-17T07:54:37.071Z</time>
      </trkpt>
      <trkpt lat="44.40436" lon="1.02356">
        <ele>168</ele>
        <time>2025-07-17T07:54:38.071Z</time>
      </trkpt>
      <trkpt lat="44.40435" lon="1.02355">
        <ele>168</ele>
        <time>2025-07-17T07:54:39.071Z</time>
      </trkpt>
      <trkpt lat="44.40434" lon="1.02353">
        <ele>168</ele>
        <time>2025-07-17T07:54:40.071Z</time>
      </trkpt>
      <trkpt lat="44.40434" lon="1.02353">
        <ele>168</ele>
        <time>2025-07-17T07:54:41.071Z</time>
      </trkpt>
      <trkpt lat="44.40433" lon="1.02351">
        <ele>168</ele>
        <time>2025-07-17T07:54:42.071Z</time>
      </trkpt>
      <trkpt lat="44.40432" lon="1.0235">
        <ele>168</ele>
        <time>2025-07-17T07:54:43.071Z</time>
      </trkpt>
      <trkpt lat="44.40431" lon="1.02349">
        <ele>168</ele>
        <time>2025-07-17T07:54:44.071Z</time>
      </trkpt>
      <trkpt lat="44.4043" lon="1.02347">
        <ele>168</ele>
        <time>2025-07-17T07:54:45.071Z</time>
      </trkpt>
      <trkpt lat="44.40429" lon="1.02346">
        <ele>168</ele>
        <time>2025-07-17T07:54:46.071Z</time>
      </trkpt>
      <trkpt lat="44.40429" lon="1.02345">
        <ele>167</ele>
        <time>2025-07-17T07:54:47.071Z</time>
      </trkpt>
      <trkpt lat="44.40428" lon="1.02343">
        <ele>167</ele>
        <time>2025-07-17T07:54:48.071Z</time>
      </trkpt>
      <trkpt lat="44.40427" lon="1.02342">
        <ele>167</ele>
        <time>2025-07-17T07:54:49.072Z</time>
      </trkpt>
      <trkpt lat="44.40426" lon="1.0234">
        <ele>167</ele>
        <time>2025-07-17T07:54:50.071Z</time>
      </trkpt>
      <trkpt lat="44.40425" lon="1.02339">
        <ele>167</ele>
        <time>2025-07-17T07:54:51.071Z</time>
      </trkpt>
      <trkpt lat="44.40425" lon="1.02337">
        <ele>167</ele>
        <time>2025-07-17T07:54:52.072Z</time>
      </trkpt>
      <trkpt lat="44.40424" lon="1.02336">
        <ele>166</ele>
        <time>2025-07-17T07:54:53.071Z</time>
      </trkpt>
      <trkpt lat="44.40423" lon="1.02335">
        <ele>166</ele>
        <time>2025-07-17T07:54:54.071Z</time>
      </trkpt>
      <trkpt lat="44.40422" lon="1.02334">
        <ele>166</ele>
        <time>2025-07-17T07:54:55.071Z</time>
      </trkpt>
      <trkpt lat="44.40422" lon="1.02333">
        <ele>166</ele>
        <time>2025-07-17T07:54:56.071Z</time>
      </trkpt>
      <trkpt lat="44.40421" lon="1.02332">
        <ele>166</ele>
        <time>2025-07-17T07:54:57.071Z</time>
      </trkpt>
      <trkpt lat="44.4042" lon="1.0233">
        <ele>166</ele>
        <time>2025-07-17T07:54:58.071Z</time>
      </trkpt>
      <trkpt lat="44.40419" lon="1.02329">
        <ele>166</ele>
        <time>2025-07-17T07:54:59.071Z</time>
      </trkpt>
      <trkpt lat="44.40418" lon="1.02327">
        <ele>166</ele>
        <time>2025-07-17T07:55:00.071Z</time>
      </trkpt>
      <trkpt lat="44.40417" lon="1.02326">
        <ele>166</ele>
        <time>2025-07-17T07:55:01.071Z</time>
      </trkpt>
      <trkpt lat="44.40416" lon="1.02324">
        <ele>166</ele>
        <time>2025-07-17T07:55:02.071Z</time>
      </trkpt>
      <trkpt lat="44.40416" lon="1.02323">
        <ele>167</ele>
        <time>2025-07-17T07:55:03.071Z</time>
      </trkpt>
      <trkpt lat="44.40415" lon="1.02322">
        <ele>167</ele>
        <time>2025-07-17T07:55:04.072Z</time>
      </trkpt>
      <trkpt lat="44.40415" lon="1.02321">
        <ele>167</ele>
        <time>2025-07-17T07:55:05.071Z</time>
      </trkpt>
      <trkpt lat="44.40415" lon="1.0232">
        <ele>168</ele>
        <time>2025-07-17T07:55:06.071Z</time>
      </trkpt>
      <trkpt lat="44.40414" lon="1.02319">
        <ele>168</ele>
        <time>2025-07-17T07:55:07.071Z</time>
      </trkpt>
      <trkpt lat="44.40414" lon="1.02319">
        <ele>168</ele>
        <time>2025-07-17T07:55:08.072Z</time>
      </trkpt>
      <trkpt lat="44.40414" lon="1.02317">
        <ele>169</ele>
        <time>2025-07-17T07:55:09.072Z</time>
      </trkpt>
      <trkpt lat="44.40413" lon="1.02316">
        <ele>169</ele>
        <time>2025-07-17T07:55:10.071Z</time>
      </trkpt>
      <trkpt lat="44.40413" lon="1.02316">
        <ele>169</ele>
        <time>2025-07-17T07:55:11.071Z</time>
      </trkpt>
      <trkpt lat="44.40412" lon="1.02314">
        <ele>169</ele>
        <time>2025-07-17T07:55:12.072Z</time>
      </trkpt>
      <trkpt lat="44.40412" lon="1.02313">
        <ele>169</ele>
        <time>2025-07-17T07:55:13.071Z</time>
      </trkpt>
      <trkpt lat="44.40411" lon="1.02312">
        <ele>168</ele>
        <time>2025-07-17T07:55:14.071Z</time>
      </trkpt>
      <trkpt lat="44.4041" lon="1.02311">
        <ele>168</ele>
        <time>2025-07-17T07:55:15.071Z</time>
      </trkpt>
      <trkpt lat="44.4041" lon="1.0231">
        <ele>168</ele>
        <time>2025-07-17T07:55:16.071Z</time>
      </trkpt>
      <trkpt lat="44.40409" lon="1.02309">
        <ele>168</ele>
        <time>2025-07-17T07:55:17.071Z</time>
      </trkpt>
      <trkpt lat="44.40408" lon="1.02308">
        <ele>168</ele>
        <time>2025-07-17T07:55:18.071Z</time>
      </trkpt>
      <trkpt lat="44.40407" lon="1.02307">
        <ele>169</ele>
        <time>2025-07-17T07:55:19.071Z</time>
      </trkpt>
      <trkpt lat="44.40406" lon="1.02306">
        <ele>169</ele>
        <time>2025-07-17T07:55:20.071Z</time>
      </trkpt>
      <trkpt lat="44.40405" lon="1.02305">
        <ele>169</ele>
        <time>2025-07-17T07:55:21.071Z</time>
      </trkpt>
      <trkpt lat="44.40405" lon="1.02304">
        <ele>169</ele>
        <time>2025-07-17T07:55:22.072Z</time>
      </trkpt>
      <trkpt lat="44.40404" lon="1.02304">
        <ele>169</ele>
        <time>2025-07-17T07:55:23.071Z</time>
      </trkpt>
      <trkpt lat="44.40403" lon="1.02302">
        <ele>169</ele>
        <time>2025-07-17T07:55:24.071Z</time>
      </trkpt>
      <trkpt lat="44.40402" lon="1.02301">
        <ele>169</ele>
        <time>2025-07-17T07:55:25.071Z</time>
      </trkpt>
      <trkpt lat="44.40401" lon="1.023">
        <ele>169</ele>
        <time>2025-07-17T07:55:26.071Z</time>
      </trkpt>
      <trkpt lat="44.40401" lon="1.02299">
        <ele>169</ele>
        <time>2025-07-17T07:55:27.071Z</time>
      </trkpt>
      <trkpt lat="44.404" lon="1.02298">
        <ele>169</ele>
        <time>2025-07-17T07:55:28.071Z</time>
      </trkpt>
      <trkpt lat="44.40399" lon="1.02297">
        <ele>169</ele>
        <time>2025-07-17T07:55:29.071Z</time>
      </trkpt>
      <trkpt lat="44.40398" lon="1.02296">
        <ele>169</ele>
        <time>2025-07-17T07:55:30.071Z</time>
      </trkpt>
      <trkpt lat="44.40397" lon="1.02295">
        <ele>169</ele>
        <time>2025-07-17T07:55:31.071Z</time>
      </trkpt>
      <trkpt lat="44.40396" lon="1.02294">
        <ele>169</ele>
        <time>2025-07-17T07:55:32.071Z</time>
      </trkpt>
      <trkpt lat="44.40396" lon="1.02293">
        <ele>169</ele>
        <time>2025-07-17T07:55:33.072Z</time>
      </trkpt>
      <trkpt lat="44.40394" lon="1.02292">
        <ele>170</ele>
        <time>2025-07-17T07:55:34.071Z</time>
      </trkpt>
      <trkpt lat="44.40393" lon="1.0229">
        <ele>170</ele>
        <time>2025-07-17T07:55:35.071Z</time>
      </trkpt>
      <trkpt lat="44.40393" lon="1.0229">
        <ele>170</ele>
        <time>2025-07-17T07:55:36.071Z</time>
      </trkpt>
      <trkpt lat="44.40392" lon="1.02289">
        <ele>170</ele>
        <time>2025-07-17T07:55:37.071Z</time>
      </trkpt>
      <trkpt lat="44.40391" lon="1.02287">
        <ele>170</ele>
        <time>2025-07-17T07:55:38.071Z</time>
      </trkpt>
      <trkpt lat="44.4039" lon="1.02286">
        <ele>170</ele>
        <time>2025-07-17T07:55:39.071Z</time>
      </trkpt>
      <trkpt lat="44.40389" lon="1.02285">
        <ele>170</ele>
        <time>2025-07-17T07:55:40.071Z</time>
      </trkpt>
      <trkpt lat="44.40388" lon="1.02284">
        <ele>170</ele>
        <time>2025-07-17T07:55:41.071Z</time>
      </trkpt>
      <trkpt lat="44.40387" lon="1.02282">
        <ele>170</ele>
        <time>2025-07-17T07:55:42.072Z</time>
      </trkpt>
      <trkpt lat="44.40386" lon="1.02281">
        <ele>170</ele>
        <time>2025-07-17T07:55:43.071Z</time>
      </trkpt>
      <trkpt lat="44.40385" lon="1.0228">
        <ele>171</ele>
        <time>2025-07-17T07:55:44.071Z</time>
      </trkpt>
      <trkpt lat="44.40384" lon="1.02279">
        <ele>171</ele>
        <time>2025-07-17T07:55:45.071Z</time>
      </trkpt>
      <trkpt lat="44.40384" lon="1.02278">
        <ele>171</ele>
        <time>2025-07-17T07:55:46.071Z</time>
      </trkpt>
      <trkpt lat="44.40384" lon="1.02278">
        <ele>171</ele>
        <time>2025-07-17T07:55:47.072Z</time>
      </trkpt>
      <trkpt lat="44.40382" lon="1.02277">
        <ele>172</ele>
        <time>2025-07-17T07:55:48.071Z</time>
      </trkpt>
      <trkpt lat="44.40381" lon="1.02275">
        <ele>172</ele>
        <time>2025-07-17T07:55:49.071Z</time>
      </trkpt>
      <trkpt lat="44.40381" lon="1.02275">
        <ele>172</ele>
        <time>2025-07-17T07:55:50.071Z</time>
      </trkpt>
      <trkpt lat="44.4038" lon="1.02273">
        <ele>172</ele>
        <time>2025-07-17T07:55:51.072Z</time>
      </trkpt>
      <trkpt lat="44.40379" lon="1.02272">
        <ele>173</ele>
        <time>2025-07-17T07:55:52.071Z</time>
      </trkpt>
      <trkpt lat="44.40378" lon="1.02271">
        <ele>173</ele>
        <time>2025-07-17T07:55:53.071Z</time>
      </trkpt>
      <trkpt lat="44.40378" lon="1.02271">
        <ele>173</ele>
        <time>2025-07-17T07:55:54.071Z</time>
      </trkpt>
      <trkpt lat="44.40376" lon="1.0227">
        <ele>173</ele>
        <time>2025-07-17T07:55:55.072Z</time>
      </trkpt>
      <trkpt lat="44.40375" lon="1.02269">
        <ele>173</ele>
        <time>2025-07-17T07:55:56.071Z</time>
      </trkpt>
      <trkpt lat="44.40375" lon="1.02267">
        <ele>173</ele>
        <time>2025-07-17T07:55:57.071Z</time>
      </trkpt>
      <trkpt lat="44.40374" lon="1.02266">
        <ele>173</ele>
        <time>2025-07-17T07:55:58.072Z</time>
      </trkpt>
      <trkpt lat="44.40373" lon="1.02265">
        <ele>173</ele>
        <time>2025-07-17T07:55:59.071Z</time>
      </trkpt>
      <trkpt lat="44.40372" lon="1.02264">
        <ele>173</ele>
        <time>2025-07-17T07:56:00.071Z</time>
      </trkpt>
      <trkpt lat="44.40371" lon="1.02263">
        <ele>173</ele>
        <time>2025-07-17T07:56:01.071Z</time>
      </trkpt>
      <trkpt lat="44.40371" lon="1.02263">
        <ele>173</ele>
        <time>2025-07-17T07:56:02.071Z</time>
      </trkpt>
      <trkpt lat="44.4037" lon="1.02261">
        <ele>173</ele>
        <time>2025-07-17T07:56:03.071Z</time>
      </trkpt>
      <trkpt lat="44.40369" lon="1.0226">
        <ele>173</ele>
        <time>2025-07-17T07:56:04.071Z</time>
      </trkpt>
      <trkpt lat="44.40368" lon="1.02259">
        <ele>173</ele>
        <time>2025-07-17T07:56:05.071Z</time>
      </trkpt>
      <trkpt lat="44.40367" lon="1.02257">
        <ele>174</ele>
        <time>2025-07-17T07:56:06.071Z</time>
      </trkpt>
      <trkpt lat="44.40366" lon="1.02256">
        <ele>174</ele>
        <time>2025-07-17T07:56:07.071Z</time>
      </trkpt>
      <trkpt lat="44.40365" lon="1.02255">
        <ele>174</ele>
        <time>2025-07-17T07:56:08.071Z</time>
      </trkpt>
      <trkpt lat="44.40365" lon="1.02255">
        <ele>174</ele>
        <time>2025-07-17T07:56:09.071Z</time>
      </trkpt>
      <trkpt lat="44.40364" lon="1.02254">
        <ele>174</ele>
        <time>2025-07-17T07:56:10.071Z</time>
      </trkpt>
      <trkpt lat="44.40363" lon="1.02253">
        <ele>174</ele>
        <time>2025-07-17T07:56:11.071Z</time>
      </trkpt>
      <trkpt lat="44.40362" lon="1.02251">
        <ele>174</ele>
        <time>2025-07-17T07:56:12.072Z</time>
      </trkpt>
      <trkpt lat="44.40362" lon="1.0225">
        <ele>175</ele>
        <time>2025-07-17T07:56:13.071Z</time>
      </trkpt>
      <trkpt lat="44.40361" lon="1.02249">
        <ele>175</ele>
        <time>2025-07-17T07:56:14.071Z</time>
      </trkpt>
      <trkpt lat="44.4036" lon="1.02248">
        <ele>175</ele>
        <time>2025-07-17T07:56:15.072Z</time>
      </trkpt>
      <trkpt lat="44.40359" lon="1.02247">
        <ele>175</ele>
        <time>2025-07-17T07:56:16.071Z</time>
      </trkpt>
      <trkpt lat="44.40359" lon="1.02246">
        <ele>176</ele>
        <time>2025-07-17T07:56:17.071Z</time>
      </trkpt>
      <trkpt lat="44.40358" lon="1.02246">
        <ele>176</ele>
        <time>2025-07-17T07:56:18.071Z</time>
      </trkpt>
      <trkpt lat="44.40357" lon="1.02244">
        <ele>176</ele>
        <time>2025-07-17T07:56:19.072Z</time>
      </trkpt>
      <trkpt lat="44.40357" lon="1.02244">
        <ele>176</ele>
        <time>2025-07-17T07:56:20.071Z</time>
      </trkpt>
      <trkpt lat="44.40355" lon="1.02243">
        <ele>176</ele>
        <time>2025-07-17T07:56:21.072Z</time>
      </trkpt>
      <trkpt lat="44.40355" lon="1.02242">
        <ele>176</ele>
        <time>2025-07-17T07:56:22.071Z</time>
      </trkpt>
      <trkpt lat="44.40354" lon="1.02241">
        <ele>176</ele>
        <time>2025-07-17T07:56:23.071Z</time>
      </trkpt>
      <trkpt lat="44.40353" lon="1.0224">
        <ele>176</ele>
        <time>2025-07-17T07:56:24.071Z</time>
      </trkpt>
      <trkpt lat="44.40352" lon="1.02239">
        <ele>176</ele>
        <time>2025-07-17T07:56:25.071Z</time>
      </trkpt>
      <trkpt lat="44.40351" lon="1.02238">
        <ele>176</ele>
        <time>2025-07-17T07:56:26.071Z</time>
      </trkpt>
      <trkpt lat="44.40351" lon="1.02237">
        <ele>176</ele>
        <time>2025-07-17T07:56:27.071Z</time>
      </trkpt>
      <trkpt lat="44.4035" lon="1.02236">
        <ele>176</ele>
        <time>2025-07-17T07:56:28.071Z</time>
      </trkpt>
      <trkpt lat="44.4035" lon="1.02236">
        <ele>176</ele>
        <time>2025-07-17T07:56:29.071Z</time>
      </trkpt>
      <trkpt lat="44.40349" lon="1.02234">
        <ele>176</ele>
        <time>2025-07-17T07:56:30.071Z</time>
      </trkpt>
      <trkpt lat="44.40348" lon="1.02233">
        <ele>176</ele>
        <time>2025-07-17T07:56:31.071Z</time>
      </trkpt>
      <trkpt lat="44.40347" lon="1.02232">
        <ele>176</ele>
        <time>2025-07-17T07:56:32.071Z</time>
      </trkpt>
      <trkpt lat="44.40346" lon="1.02231">
        <ele>177</ele>
        <time>2025-07-17T07:56:33.071Z</time>
      </trkpt>
      <trkpt lat="44.40345" lon="1.0223">
        <ele>177</ele>
        <time>2025-07-17T07:56:34.071Z</time>
      </trkpt>
      <trkpt lat="44.40344" lon="1.02229">
        <ele>177</ele>
        <time>2025-07-17T07:56:35.071Z</time>
      </trkpt>
      <trkpt lat="44.40344" lon="1.02228">
        <ele>178</ele>
        <time>2025-07-17T07:56:36.071Z</time>
      </trkpt>
      <trkpt lat="44.40342" lon="1.02228">
        <ele>178</ele>
        <time>2025-07-17T07:56:37.072Z</time>
      </trkpt>
      <trkpt lat="44.40342" lon="1.02227">
        <ele>179</ele>
        <time>2025-07-17T07:56:38.071Z</time>
      </trkpt>
      <trkpt lat="44.40341" lon="1.02225">
        <ele>179</ele>
        <time>2025-07-17T07:56:39.071Z</time>
      </trkpt>
      <trkpt lat="44.4034" lon="1.02224">
        <ele>180</ele>
        <time>2025-07-17T07:56:40.072Z</time>
      </trkpt>
      <trkpt lat="44.40339" lon="1.02223">
        <ele>180</ele>
        <time>2025-07-17T07:56:41.072Z</time>
      </trkpt>
      <trkpt lat="44.40338" lon="1.02222">
        <ele>180</ele>
        <time>2025-07-17T07:56:42.071Z</time>
      </trkpt>
      <trkpt lat="44.40337" lon="1.02222">
        <ele>180</ele>
        <time>2025-07-17T07:56:43.072Z</time>
      </trkpt>
      <trkpt lat="44.40336" lon="1.02221">
        <ele>180</ele>
        <time>2025-07-17T07:56:44.071Z</time>
      </trkpt>
      <trkpt lat="44.40335" lon="1.0222">
        <ele>180</ele>
        <time>2025-07-17T07:56:45.071Z</time>
      </trkpt>
      <trkpt lat="44.40334" lon="1.02218">
        <ele>181</ele>
        <time>2025-07-17T07:56:46.071Z</time>
      </trkpt>
      <trkpt lat="44.40334" lon="1.02217">
        <ele>181</ele>
        <time>2025-07-17T07:56:47.071Z</time>
      </trkpt>
      <trkpt lat="44.40333" lon="1.02216">
        <ele>181</ele>
        <time>2025-07-17T07:56:48.072Z</time>
      </trkpt>
      <trkpt lat="44.40332" lon="1.02215">
        <ele>181</ele>
        <time>2025-07-17T07:56:49.071Z</time>
      </trkpt>
      <trkpt lat="44.40331" lon="1.02214">
        <ele>181</ele>
        <time>2025-07-17T07:56:50.071Z</time>
      </trkpt>
      <trkpt lat="44.4033" lon="1.02213">
        <ele>182</ele>
        <time>2025-07-17T07:56:51.071Z</time>
      </trkpt>
      <trkpt lat="44.40329" lon="1.02212">
        <ele>182</ele>
        <time>2025-07-17T07:56:52.071Z</time>
      </trkpt>
      <trkpt lat="44.40329" lon="1.02211">
        <ele>182</ele>
        <time>2025-07-17T07:56:53.071Z</time>
      </trkpt>
      <trkpt lat="44.40328" lon="1.0221">
        <ele>182</ele>
        <time>2025-07-17T07:56:54.072Z</time>
      </trkpt>
      <trkpt lat="44.40327" lon="1.02209">
        <ele>183</ele>
        <time>2025-07-17T07:56:55.071Z</time>
      </trkpt>
      <trkpt lat="44.40327" lon="1.02208">
        <ele>183</ele>
        <time>2025-07-17T07:56:56.071Z</time>
      </trkpt>
      <trkpt lat="44.40326" lon="1.02207">
        <ele>183</ele>
        <time>2025-07-17T07:56:57.071Z</time>
      </trkpt>
      <trkpt lat="44.40325" lon="1.02206">
        <ele>183</ele>
        <time>2025-07-17T07:56:58.071Z</time>
      </trkpt>
      <trkpt lat="44.40324" lon="1.02205">
        <ele>183</ele>
        <time>2025-07-17T07:56:59.071Z</time>
      </trkpt>
      <trkpt lat="44.40324" lon="1.02204">
        <ele>183</ele>
        <time>2025-07-17T07:57:00.071Z</time>
      </trkpt>
      <trkpt lat="44.40323" lon="1.02203">
        <ele>183</ele>
        <time>2025-07-17T07:57:01.071Z</time>
      </trkpt>
      <trkpt lat="44.40323" lon="1.02203">
        <ele>183</ele>
        <time>2025-07-17T07:57:02.071Z</time>
      </trkpt>
      <trkpt lat="44.40321" lon="1.02201">
        <ele>184</ele>
        <time>2025-07-17T07:57:03.071Z</time>
      </trkpt>
      <trkpt lat="44.40321" lon="1.022">
        <ele>184</ele>
        <time>2025-07-17T07:57:04.071Z</time>
      </trkpt>
      <trkpt lat="44.4032" lon="1.02199">
        <ele>184</ele>
        <time>2025-07-17T07:57:05.071Z</time>
      </trkpt>
      <trkpt lat="44.40319" lon="1.02198">
        <ele>184</ele>
        <time>2025-07-17T07:57:06.072Z</time>
      </trkpt>
      <trkpt lat="44.40318" lon="1.02197">
        <ele>184</ele>
        <time>2025-07-17T07:57:07.071Z</time>
      </trkpt>
      <trkpt lat="44.40318" lon="1.02197">
        <ele>184</ele>
        <time>2025-07-17T07:57:08.071Z</time>
      </trkpt>
      <trkpt lat="44.40317" lon="1.02195">
        <ele>184</ele>
        <time>2025-07-17T07:57:09.071Z</time>
      </trkpt>
      <trkpt lat="44.40316" lon="1.02194">
        <ele>184</ele>
        <time>2025-07-17T07:57:10.071Z</time>
      </trkpt>
      <trkpt lat="44.40316" lon="1.02194">
        <ele>184</ele>
        <time>2025-07-17T07:57:11.071Z</time>
      </trkpt>
      <trkpt lat="44.40315" lon="1.02194">
        <ele>184</ele>
        <time>2025-07-17T07:57:12.071Z</time>
      </trkpt>
      <trkpt lat="44.40314" lon="1.02195">
        <ele>184</ele>
        <time>2025-07-17T07:57:13.072Z</time>
      </trkpt>
      <trkpt lat="44.40314" lon="1.02196">
        <ele>185</ele>
        <time>2025-07-17T07:57:14.071Z</time>
      </trkpt>
      <trkpt lat="44.40313" lon="1.02197">
        <ele>185</ele>
        <time>2025-07-17T07:57:15.071Z</time>
      </trkpt>
      <trkpt lat="44.40312" lon="1.02198">
        <ele>185</ele>
        <time>2025-07-17T07:57:16.071Z</time>
      </trkpt>
      <trkpt lat="44.40312" lon="1.02199">
        <ele>185</ele>
        <time>2025-07-17T07:57:17.071Z</time>
      </trkpt>
      <trkpt lat="44.40311" lon="1.022">
        <ele>185</ele>
        <time>2025-07-17T07:57:18.071Z</time>
      </trkpt>
      <trkpt lat="44.4031" lon="1.02201">
        <ele>186</ele>
        <time>2025-07-17T07:57:19.071Z</time>
      </trkpt>
      <trkpt lat="44.4031" lon="1.02201">
        <ele>186</ele>
        <time>2025-07-17T07:57:20.071Z</time>
      </trkpt>
      <trkpt lat="44.40309" lon="1.02203">
        <ele>186</ele>
        <time>2025-07-17T07:57:21.071Z</time>
      </trkpt>
      <trkpt lat="44.40308" lon="1.02203">
        <ele>186</ele>
        <time>2025-07-17T07:57:22.071Z</time>
      </trkpt>
      <trkpt lat="44.40308" lon="1.02204">
        <ele>186</ele>
        <time>2025-07-17T07:57:23.071Z</time>
      </trkpt>
      <trkpt lat="44.40307" lon="1.02205">
        <ele>186</ele>
        <time>2025-07-17T07:57:24.071Z</time>
      </trkpt>
      <trkpt lat="44.40306" lon="1.02206">
        <ele>186</ele>
        <time>2025-07-17T07:57:25.071Z</time>
      </trkpt>
      <trkpt lat="44.40306" lon="1.02207">
        <ele>186</ele>
        <time>2025-07-17T07:57:26.071Z</time>
      </trkpt>
      <trkpt lat="44.40305" lon="1.02208">
        <ele>186</ele>
        <time>2025-07-17T07:57:27.072Z</time>
      </trkpt>
      <trkpt lat="44.40304" lon="1.02209">
        <ele>186</ele>
        <time>2025-07-17T07:57:28.071Z</time>
      </trkpt>
      <trkpt lat="44.40303" lon="1.0221">
        <ele>186</ele>
        <time>2025-07-17T07:57:29.071Z</time>
      </trkpt>
      <trkpt lat="44.40303" lon="1.02211">
        <ele>186</ele>
        <time>2025-07-17T07:57:30.071Z</time>
      </trkpt>
      <trkpt lat="44.40302" lon="1.02212">
        <ele>185</ele>
        <time>2025-07-17T07:57:31.071Z</time>
      </trkpt>
      <trkpt lat="44.40302" lon="1.02212">
        <ele>185</ele>
        <time>2025-07-17T07:57:32.071Z</time>
      </trkpt>
      <trkpt lat="44.403" lon="1.02213">
        <ele>185</ele>
        <time>2025-07-17T07:57:33.071Z</time>
      </trkpt>
      <trkpt lat="44.403" lon="1.02214">
        <ele>186</ele>
        <time>2025-07-17T07:57:34.071Z</time>
      </trkpt>
      <trkpt lat="44.40299" lon="1.02214">
        <ele>186</ele>
        <time>2025-07-17T07:57:35.071Z</time>
      </trkpt>
      <trkpt lat="44.40298" lon="1.02216">
        <ele>186</ele>
        <time>2025-07-17T07:57:36.072Z</time>
      </trkpt>
      <trkpt lat="44.40298" lon="1.02216">
        <ele>186</ele>
        <time>2025-07-17T07:57:37.071Z</time>
      </trkpt>
      <trkpt lat="44.40298" lon="1.02216">
        <ele>186</ele>
        <time>2025-07-17T07:57:38.071Z</time>
      </trkpt>
      <trkpt lat="44.40297" lon="1.02218">
        <ele>186</ele>
        <time>2025-07-17T07:57:39.072Z</time>
      </trkpt>
      <trkpt lat="44.40296" lon="1.02218">
        <ele>186</ele>
        <time>2025-07-17T07:57:40.071Z</time>
      </trkpt>
      <trkpt lat="44.40296" lon="1.02218">
        <ele>186</ele>
        <time>2025-07-17T07:57:41.071Z</time>
      </trkpt>
      <trkpt lat="44.40294" lon="1.0222">
        <ele>186</ele>
        <time>2025-07-17T07:57:42.071Z</time>
      </trkpt>
      <trkpt lat="44.40293" lon="1.0222">
        <ele>186</ele>
        <time>2025-07-17T07:57:43.071Z</time>
      </trkpt>
      <trkpt lat="44.40293" lon="1.0222">
        <ele>186</ele>
        <time>2025-07-17T07:57:44.071Z</time>
      </trkpt>
      <trkpt lat="44.40292" lon="1.02222">
        <ele>186</ele>
        <time>2025-07-17T07:57:45.071Z</time>
      </trkpt>
      <trkpt lat="44.40291" lon="1.02223">
        <ele>186</ele>
        <time>2025-07-17T07:57:46.071Z</time>
      </trkpt>
      <trkpt lat="44.40291" lon="1.02223">
        <ele>186</ele>
        <time>2025-07-17T07:57:47.071Z</time>
      </trkpt>
      <trkpt lat="44.40289" lon="1.02225">
        <ele>187</ele>
        <time>2025-07-17T07:57:48.072Z</time>
      </trkpt>
      <trkpt lat="44.40288" lon="1.02226">
        <ele>187</ele>
        <time>2025-07-17T07:57:49.071Z</time>
      </trkpt>
      <trkpt lat="44.40288" lon="1.02226">
        <ele>187</ele>
        <time>2025-07-17T07:57:50.072Z</time>
      </trkpt>
      <trkpt lat="44.40286" lon="1.02227">
        <ele>187</ele>
        <time>2025-07-17T07:57:51.072Z</time>
      </trkpt>
      <trkpt lat="44.40285" lon="1.02228">
        <ele>187</ele>
        <time>2025-07-17T07:57:52.071Z</time>
      </trkpt>
      <trkpt lat="44.40284" lon="1.02229">
        <ele>187</ele>
        <time>2025-07-17T07:57:53.071Z</time>
      </trkpt>
      <trkpt lat="44.40283" lon="1.0223">
        <ele>188</ele>
        <time>2025-07-17T07:57:54.072Z</time>
      </trkpt>
      <trkpt lat="44.40282" lon="1.02231">
        <ele>188</ele>
        <time>2025-07-17T07:57:55.072Z</time>
      </trkpt>
      <trkpt lat="44.40281" lon="1.02232">
        <ele>188</ele>
        <time>2025-07-17T07:57:56.071Z</time>
      </trkpt>
      <trkpt lat="44.4028" lon="1.02232">
        <ele>188</ele>
        <time>2025-07-17T07:57:57.071Z</time>
      </trkpt>
      <trkpt lat="44.40279" lon="1.02233">
        <ele>188</ele>
        <time>2025-07-17T07:57:58.072Z</time>
      </trkpt>
      <trkpt lat="44.40278" lon="1.02234">
        <ele>187</ele>
        <time>2025-07-17T07:57:59.071Z</time>
      </trkpt>
      <trkpt lat="44.40278" lon="1.02234">
        <ele>187</ele>
        <time>2025-07-17T07:58:00.071Z</time>
      </trkpt>
      <trkpt lat="44.40276" lon="1.02235">
        <ele>187</ele>
        <time>2025-07-17T07:58:01.071Z</time>
      </trkpt>
      <trkpt lat="44.40275" lon="1.02235">
        <ele>187</ele>
        <time>2025-07-17T07:58:02.071Z</time>
      </trkpt>
      <trkpt lat="44.40274" lon="1.02236">
        <ele>187</ele>
        <time>2025-07-17T07:58:03.071Z</time>
      </trkpt>
      <trkpt lat="44.40273" lon="1.02237">
        <ele>186</ele>
        <time>2025-07-17T07:58:04.071Z</time>
      </trkpt>
      <trkpt lat="44.40273" lon="1.02237">
        <ele>186</ele>
        <time>2025-07-17T07:58:05.071Z</time>
      </trkpt>
      <trkpt lat="44.40272" lon="1.02238">
        <ele>186</ele>
        <time>2025-07-17T07:58:06.072Z</time>
      </trkpt>
      <trkpt lat="44.4027" lon="1.02238">
        <ele>186</ele>
        <time>2025-07-17T07:58:07.072Z</time>
      </trkpt>
      <trkpt lat="44.40269" lon="1.02238">
        <ele>186</ele>
        <time>2025-07-17T07:58:08.071Z</time>
      </trkpt>
      <trkpt lat="44.40268" lon="1.02239">
        <ele>186</ele>
        <time>2025-07-17T07:58:09.071Z</time>
      </trkpt>
      <trkpt lat="44.40267" lon="1.0224">
        <ele>186</ele>
        <time>2025-07-17T07:58:10.072Z</time>
      </trkpt>
      <trkpt lat="44.40266" lon="1.0224">
        <ele>185</ele>
        <time>2025-07-17T07:58:11.071Z</time>
      </trkpt>
      <trkpt lat="44.40265" lon="1.02241">
        <ele>185</ele>
        <time>2025-07-17T07:58:12.071Z</time>
      </trkpt>
      <trkpt lat="44.40264" lon="1.02242">
        <ele>185</ele>
        <time>2025-07-17T07:58:13.071Z</time>
      </trkpt>
      <trkpt lat="44.40263" lon="1.02243">
        <ele>185</ele>
        <time>2025-07-17T07:58:14.071Z</time>
      </trkpt>
      <trkpt lat="44.40262" lon="1.02243">
        <ele>185</ele>
        <time>2025-07-17T07:58:15.072Z</time>
      </trkpt>
      <trkpt lat="44.40261" lon="1.02244">
        <ele>184</ele>
        <time>2025-07-17T07:58:16.072Z</time>
      </trkpt>
      <trkpt lat="44.4026" lon="1.02245">
        <ele>184</ele>
        <time>2025-07-17T07:58:17.071Z</time>
      </trkpt>
      <trkpt lat="44.4026" lon="1.02246">
        <ele>184</ele>
        <time>2025-07-17T07:58:18.071Z</time>
      </trkpt>
      <trkpt lat="44.40259" lon="1.02247">
        <ele>184</ele>
        <time>2025-07-17T07:58:19.072Z</time>
      </trkpt>
      <trkpt lat="44.40258" lon="1.02248">
        <ele>184</ele>
        <time>2025-07-17T07:58:20.071Z</time>
      </trkpt>
      <trkpt lat="44.40257" lon="1.02249">
        <ele>184</ele>
        <time>2025-07-17T07:58:21.072Z</time>
      </trkpt>
      <trkpt lat="44.40256" lon="1.0225">
        <ele>184</ele>
        <time>2025-07-17T07:58:22.071Z</time>
      </trkpt>
      <trkpt lat="44.40256" lon="1.02251">
        <ele>184</ele>
        <time>2025-07-17T07:58:23.072Z</time>
      </trkpt>
      <trkpt lat="44.40255" lon="1.02252">
        <ele>184</ele>
        <time>2025-07-17T07:58:24.071Z</time>
      </trkpt>
      <trkpt lat="44.40254" lon="1.02253">
        <ele>184</ele>
        <time>2025-07-17T07:58:25.072Z</time>
      </trkpt>
      <trkpt lat="44.40254" lon="1.02253">
        <ele>184</ele>
        <time>2025-07-17T07:58:26.071Z</time>
      </trkpt>
      <trkpt lat="44.40252" lon="1.02255">
        <ele>184</ele>
        <time>2025-07-17T07:58:27.071Z</time>
      </trkpt>
      <trkpt lat="44.40252" lon="1.02255">
        <ele>184</ele>
        <time>2025-07-17T07:58:28.071Z</time>
      </trkpt>
      <trkpt lat="44.40251" lon="1.02256">
        <ele>184</ele>
        <time>2025-07-17T07:58:29.071Z</time>
      </trkpt>
      <trkpt lat="44.4025" lon="1.02256">
        <ele>183</ele>
        <time>2025-07-17T07:58:30.071Z</time>
      </trkpt>
      <trkpt lat="44.40249" lon="1.02257">
        <ele>183</ele>
        <time>2025-07-17T07:58:31.071Z</time>
      </trkpt>
      <trkpt lat="44.40249" lon="1.02258">
        <ele>184</ele>
        <time>2025-07-17T07:58:32.071Z</time>
      </trkpt>
      <trkpt lat="44.40248" lon="1.02259">
        <ele>184</ele>
        <time>2025-07-17T07:58:33.072Z</time>
      </trkpt>
      <trkpt lat="44.40247" lon="1.0226">
        <ele>184</ele>
        <time>2025-07-17T07:58:34.071Z</time>
      </trkpt>
      <trkpt lat="44.40246" lon="1.02261">
        <ele>184</ele>
        <time>2025-07-17T07:58:35.072Z</time>
      </trkpt>
      <trkpt lat="44.40245" lon="1.02262">
        <ele>183</ele>
        <time>2025-07-17T07:58:36.071Z</time>
      </trkpt>
      <trkpt lat="44.40244" lon="1.02263">
        <ele>184</ele>
        <time>2025-07-17T07:58:37.071Z</time>
      </trkpt>
      <trkpt lat="44.40243" lon="1.02264">
        <ele>184</ele>
        <time>2025-07-17T07:58:38.072Z</time>
      </trkpt>
      <trkpt lat="44.40242" lon="1.02265">
        <ele>184</ele>
        <time>2025-07-17T07:58:39.071Z</time>
      </trkpt>
      <trkpt lat="44.40241" lon="1.02266">
        <ele>184</ele>
        <time>2025-07-17T07:58:40.072Z</time>
      </trkpt>
      <trkpt lat="44.4024" lon="1.02267">
        <ele>184</ele>
        <time>2025-07-17T07:58:41.071Z</time>
      </trkpt>
      <trkpt lat="44.40239" lon="1.02267">
        <ele>184</ele>
        <time>2025-07-17T07:58:42.072Z</time>
      </trkpt>
      <trkpt lat="44.40238" lon="1.02268">
        <ele>185</ele>
        <time>2025-07-17T07:58:43.071Z</time>
      </trkpt>
      <trkpt lat="44.40237" lon="1.02269">
        <ele>185</ele>
        <time>2025-07-17T07:58:44.071Z</time>
      </trkpt>
      <trkpt lat="44.40236" lon="1.02269">
        <ele>185</ele>
        <time>2025-07-17T07:58:45.071Z</time>
      </trkpt>
      <trkpt lat="44.40235" lon="1.0227">
        <ele>185</ele>
        <time>2025-07-17T07:58:46.072Z</time>
      </trkpt>
      <trkpt lat="44.40234" lon="1.02271">
        <ele>186</ele>
        <time>2025-07-17T07:58:47.071Z</time>
      </trkpt>
      <trkpt lat="44.40233" lon="1.02273">
        <ele>186</ele>
        <time>2025-07-17T07:58:48.071Z</time>
      </trkpt>
      <trkpt lat="44.40233" lon="1.02274">
        <ele>186</ele>
        <time>2025-07-17T07:58:49.071Z</time>
      </trkpt>
      <trkpt lat="44.40233" lon="1.02274">
        <ele>186</ele>
        <time>2025-07-17T07:58:50.071Z</time>
      </trkpt>
      <trkpt lat="44.40232" lon="1.02276">
        <ele>187</ele>
        <time>2025-07-17T07:58:51.071Z</time>
      </trkpt>
      <trkpt lat="44.40231" lon="1.02276">
        <ele>187</ele>
        <time>2025-07-17T07:58:52.071Z</time>
      </trkpt>
      <trkpt lat="44.40231" lon="1.02276">
        <ele>187</ele>
        <time>2025-07-17T07:58:53.071Z</time>
      </trkpt>
      <trkpt lat="44.4023" lon="1.02278">
        <ele>187</ele>
        <time>2025-07-17T07:58:54.071Z</time>
      </trkpt>
      <trkpt lat="44.40228" lon="1.02279">
        <ele>187</ele>
        <time>2025-07-17T07:58:55.071Z</time>
      </trkpt>
      <trkpt lat="44.40228" lon="1.02279">
        <ele>187</ele>
        <time>2025-07-17T07:58:56.071Z</time>
      </trkpt>
      <trkpt lat="44.40225" lon="1.02282">
        <ele>188</ele>
        <time>2025-07-17T07:58:57.071Z</time>
      </trkpt>
      <trkpt lat="44.40223" lon="1.02283">
        <ele>188</ele>
        <time>2025-07-17T07:58:58.072Z</time>
      </trkpt>
      <trkpt lat="44.40223" lon="1.02283">
        <ele>188</ele>
        <time>2025-07-17T07:58:59.071Z</time>
      </trkpt>
      <trkpt lat="44.40221" lon="1.02284">
        <ele>189</ele>
        <time>2025-07-17T07:59:00.071Z</time>
      </trkpt>
      <trkpt lat="44.40221" lon="1.02286">
        <ele>189</ele>
        <time>2025-07-17T07:59:01.071Z</time>
      </trkpt>
      <trkpt lat="44.4022" lon="1.02288">
        <ele>189</ele>
        <time>2025-07-17T07:59:02.071Z</time>
      </trkpt>
      <trkpt lat="44.40219" lon="1.02289">
        <ele>189</ele>
        <time>2025-07-17T07:59:03.071Z</time>
      </trkpt>
      <trkpt lat="44.40219" lon="1.0229">
        <ele>189</ele>
        <time>2025-07-17T07:59:04.071Z</time>
      </trkpt>
      <trkpt lat="44.40218" lon="1.02291">
        <ele>189</ele>
        <time>2025-07-17T07:59:05.071Z</time>
      </trkpt>
      <trkpt lat="44.40218" lon="1.02291">
        <ele>189</ele>
        <time>2025-07-17T07:59:06.071Z</time>
      </trkpt>
      <trkpt lat="44.40216" lon="1.02293">
        <ele>189</ele>
        <time>2025-07-17T07:59:07.072Z</time>
      </trkpt>
      <trkpt lat="44.40216" lon="1.02293">
        <ele>189</ele>
        <time>2025-07-17T07:59:08.071Z</time>
      </trkpt>
      <trkpt lat="44.40215" lon="1.02295">
        <ele>188</ele>
        <time>2025-07-17T07:59:09.071Z</time>
      </trkpt>
      <trkpt lat="44.40214" lon="1.02296">
        <ele>188</ele>
        <time>2025-07-17T07:59:10.071Z</time>
      </trkpt>
      <trkpt lat="44.40213" lon="1.02298">
        <ele>188</ele>
        <time>2025-07-17T07:59:11.071Z</time>
      </trkpt>
      <trkpt lat="44.40213" lon="1.02299">
        <ele>188</ele>
        <time>2025-07-17T07:59:12.072Z</time>
      </trkpt>
      <trkpt lat="44.40212" lon="1.02301">
        <ele>188</ele>
        <time>2025-07-17T07:59:13.071Z</time>
      </trkpt>
      <trkpt lat="44.40211" lon="1.02302">
        <ele>188</ele>
        <time>2025-07-17T07:59:14.071Z</time>
      </trkpt>
      <trkpt lat="44.4021" lon="1.02303">
        <ele>188</ele>
        <time>2025-07-17T07:59:15.072Z</time>
      </trkpt>
      <trkpt lat="44.4021" lon="1.02304">
        <ele>187</ele>
        <time>2025-07-17T07:59:16.072Z</time>
      </trkpt>
      <trkpt lat="44.40209" lon="1.02306">
        <ele>187</ele>
        <time>2025-07-17T07:59:17.071Z</time>
      </trkpt>
      <trkpt lat="44.40209" lon="1.02306">
        <ele>187</ele>
        <time>2025-07-17T07:59:18.071Z</time>
      </trkpt>
      <trkpt lat="44.40209" lon="1.02308">
        <ele>187</ele>
        <time>2025-07-17T07:59:19.071Z</time>
      </trkpt>
      <trkpt lat="44.40208" lon="1.02309">
        <ele>187</ele>
        <time>2025-07-17T07:59:20.071Z</time>
      </trkpt>
      <trkpt lat="44.40208" lon="1.0231">
        <ele>187</ele>
        <time>2025-07-17T07:59:21.072Z</time>
      </trkpt>
      <trkpt lat="44.40207" lon="1.02312">
        <ele>187</ele>
        <time>2025-07-17T07:59:22.071Z</time>
      </trkpt>
      <trkpt lat="44.40207" lon="1.02312">
        <ele>187</ele>
        <time>2025-07-17T07:59:23.071Z</time>
      </trkpt>
      <trkpt lat="44.40206" lon="1.02315">
        <ele>188</ele>
        <time>2025-07-17T07:59:24.071Z</time>
      </trkpt>
      <trkpt lat="44.40205" lon="1.02317">
        <ele>188</ele>
        <time>2025-07-17T07:59:25.072Z</time>
      </trkpt>
      <trkpt lat="44.40204" lon="1.02318">
        <ele>188</ele>
        <time>2025-07-17T07:59:26.071Z</time>
      </trkpt>
      <trkpt lat="44.40204" lon="1.0232">
        <ele>188</ele>
        <time>2025-07-17T07:59:27.071Z</time>
      </trkpt>
      <trkpt lat="44.40203" lon="1.02321">
        <ele>189</ele>
        <time>2025-07-17T07:59:28.072Z</time>
      </trkpt>
      <trkpt lat="44.40203" lon="1.02322">
        <ele>189</ele>
        <time>2025-07-17T07:59:29.071Z</time>
      </trkpt>
      <trkpt lat="44.40202" lon="1.02323">
        <ele>189</ele>
        <time>2025-07-17T07:59:30.071Z</time>
      </trkpt>
      <trkpt lat="44.40201" lon="1.02325">
        <ele>189</ele>
        <time>2025-07-17T07:59:31.071Z</time>
      </trkpt>
      <trkpt lat="44.40201" lon="1.02325">
        <ele>189</ele>
        <time>2025-07-17T07:59:32.071Z</time>
      </trkpt>
      <trkpt lat="44.402" lon="1.02327">
        <ele>189</ele>
        <time>2025-07-17T07:59:33.071Z</time>
      </trkpt>
      <trkpt lat="44.40199" lon="1.02328">
        <ele>189</ele>
        <time>2025-07-17T07:59:34.072Z</time>
      </trkpt>
      <trkpt lat="44.40198" lon="1.0233">
        <ele>189</ele>
        <time>2025-07-17T07:59:35.071Z</time>
      </trkpt>
      <trkpt lat="44.40198" lon="1.02331">
        <ele>189</ele>
        <time>2025-07-17T07:59:36.072Z</time>
      </trkpt>
      <trkpt lat="44.40197" lon="1.02332">
        <ele>189</ele>
        <time>2025-07-17T07:59:37.071Z</time>
      </trkpt>
      <trkpt lat="44.40196" lon="1.02333">
        <ele>189</ele>
        <time>2025-07-17T07:59:38.071Z</time>
      </trkpt>
      <trkpt lat="44.40196" lon="1.02334">
        <ele>189</ele>
        <time>2025-07-17T07:59:39.072Z</time>
      </trkpt>
      <trkpt lat="44.40195" lon="1.02336">
        <ele>189</ele>
        <time>2025-07-17T07:59:40.071Z</time>
      </trkpt>
      <trkpt lat="44.40195" lon="1.02336">
        <ele>189</ele>
        <time>2025-07-17T07:59:41.071Z</time>
      </trkpt>
      <trkpt lat="44.40194" lon="1.02337">
        <ele>189</ele>
        <time>2025-07-17T07:59:42.071Z</time>
      </trkpt>
      <trkpt lat="44.40194" lon="1.02337">
        <ele>189</ele>
        <time>2025-07-17T07:59:43.071Z</time>
      </trkpt>
      <trkpt lat="44.40194" lon="1.02339">
        <ele>189</ele>
        <time>2025-07-17T07:59:44.071Z</time>
      </trkpt>
      <trkpt lat="44.40193" lon="1.02341">
        <ele>189</ele>
        <time>2025-07-17T07:59:45.071Z</time>
      </trkpt>
      <trkpt lat="44.40192" lon="1.02342">
        <ele>189</ele>
        <time>2025-07-17T07:59:46.071Z</time>
      </trkpt>
      <trkpt lat="44.40192" lon="1.02342">
        <ele>189</ele>
        <time>2025-07-17T07:59:47.071Z</time>
      </trkpt>
      <trkpt lat="44.40191" lon="1.02344">
        <ele>189</ele>
        <time>2025-07-17T07:59:48.072Z</time>
      </trkpt>
      <trkpt lat="44.4019" lon="1.02345">
        <ele>189</ele>
        <time>2025-07-17T07:59:49.071Z</time>
      </trkpt>
      <trkpt lat="44.4019" lon="1.02345">
        <ele>189</ele>
        <time>2025-07-17T07:59:50.071Z</time>
      </trkpt>
      <trkpt lat="44.40189" lon="1.02348">
        <ele>189</ele>
        <time>2025-07-17T07:59:51.071Z</time>
      </trkpt>
      <trkpt lat="44.40189" lon="1.02349">
        <ele>189</ele>
        <time>2025-07-17T07:59:52.071Z</time>
      </trkpt>
      <trkpt lat="44.40189" lon="1.02349">
        <ele>189</ele>
        <time>2025-07-17T07:59:53.071Z</time>
      </trkpt>
      <trkpt lat="44.40187" lon="1.02351">
        <ele>189</ele>
        <time>2025-07-17T07:59:54.071Z</time>
      </trkpt>
      <trkpt lat="44.40186" lon="1.02352">
        <ele>189</ele>
        <time>2025-07-17T07:59:55.071Z</time>
      </trkpt>
      <trkpt lat="44.40186" lon="1.02352">
        <ele>189</ele>
        <time>2025-07-17T07:59:56.071Z</time>
      </trkpt>
      <trkpt lat="44.40185" lon="1.02354">
        <ele>189</ele>
        <time>2025-07-17T07:59:57.072Z</time>
      </trkpt>
      <trkpt lat="44.40184" lon="1.02354">
        <ele>189</ele>
        <time>2025-07-17T07:59:58.071Z</time>
      </trkpt>
      <trkpt lat="44.40183" lon="1.02354">
        <ele>188</ele>
        <time>2025-07-17T07:59:59.071Z</time>
      </trkpt>
      <trkpt lat="44.40183" lon="1.02354">
        <ele>188</ele>
        <time>2025-07-17T08:00:00.072Z</time>
      </trkpt>
      <trkpt lat="44.40183" lon="1.02354">
        <ele>188</ele>
        <time>2025-07-17T08:00:01.072Z</time>
      </trkpt>
      <trkpt lat="44.40183" lon="1.02354">
        <ele>188</ele>
        <time>2025-07-17T08:00:02.071Z</time>
      </trkpt>
      <trkpt lat="44.40184" lon="1.02354">
        <ele>188</ele>
        <time>2025-07-17T08:00:03.071Z</time>
      </trkpt>
      <trkpt lat="44.40184" lon="1.02355">
        <ele>188</ele>
        <time>2025-07-17T08:00:04.072Z</time>
      </trkpt>
      <trkpt lat="44.40183" lon="1.02355">
        <ele>188</ele>
        <time>2025-07-17T08:00:05.071Z</time>
      </trkpt>
      <trkpt lat="44.40183" lon="1.02355">
        <ele>188</ele>
        <time>2025-07-17T08:00:06.071Z</time>
      </trkpt>
      <trkpt lat="44.40183" lon="1.02355">
        <ele>188</ele>
        <time>2025-07-17T08:00:07.071Z</time>
      </trkpt>
      <trkpt lat="44.40182" lon="1.02355">
        <ele>188</ele>
        <time>2025-07-17T08:00:08.072Z</time>
      </trkpt>
      <trkpt lat="44.40181" lon="1.02354">
        <ele>188</ele>
        <time>2025-07-17T08:00:09.071Z</time>
      </trkpt>
      <trkpt lat="44.40181" lon="1.02353">
        <ele>188</ele>
        <time>2025-07-17T08:00:10.071Z</time>
      </trkpt>
      <trkpt lat="44.40181" lon="1.02353">
        <ele>188</ele>
        <time>2025-07-17T08:00:11.071Z</time>
      </trkpt>
      <trkpt lat="44.40179" lon="1.02352">
        <ele>189</ele>
        <time>2025-07-17T08:00:12.071Z</time>
      </trkpt>
      <trkpt lat="44.40178" lon="1.02351">
        <ele>189</ele>
        <time>2025-07-17T08:00:13.071Z</time>
      </trkpt>
      <trkpt lat="44.40178" lon="1.02351">
        <ele>189</ele>
        <time>2025-07-17T08:00:14.071Z</time>
      </trkpt>
      <trkpt lat="44.40177" lon="1.02351">
        <ele>190</ele>
        <time>2025-07-17T08:00:15.071Z</time>
      </trkpt>
      <trkpt lat="44.40175" lon="1.02352">
        <ele>191</ele>
        <time>2025-07-17T08:00:16.071Z</time>
      </trkpt>
      <trkpt lat="44.40174" lon="1.02351">
        <ele>192</ele>
        <time>2025-07-17T08:00:17.071Z</time>
      </trkpt>
      <trkpt lat="44.40173" lon="1.02351">
        <ele>192</ele>
        <time>2025-07-17T08:00:18.072Z</time>
      </trkpt>
      <trkpt lat="44.40173" lon="1.0235">
        <ele>192</ele>
        <time>2025-07-17T08:00:19.071Z</time>
      </trkpt>
      <trkpt lat="44.40172" lon="1.0235">
        <ele>193</ele>
        <time>2025-07-17T08:00:20.071Z</time>
      </trkpt>
      <trkpt lat="44.40171" lon="1.02349">
        <ele>193</ele>
        <time>2025-07-17T08:00:21.071Z</time>
      </trkpt>
      <trkpt lat="44.4017" lon="1.02349">
        <ele>193</ele>
        <time>2025-07-17T08:00:22.071Z</time>
      </trkpt>
      <trkpt lat="44.4017" lon="1.02349">
        <ele>193</ele>
        <time>2025-07-17T08:00:23.071Z</time>
      </trkpt>
      <trkpt lat="44.40168" lon="1.02349">
        <ele>194</ele>
        <time>2025-07-17T08:00:24.071Z</time>
      </trkpt>
      <trkpt lat="44.40168" lon="1.02349">
        <ele>194</ele>
        <time>2025-07-17T08:00:25.072Z</time>
      </trkpt>
      <trkpt lat="44.40168" lon="1.02349">
        <ele>194</ele>
        <time>2025-07-17T08:00:26.071Z</time>
      </trkpt>
      <trkpt lat="44.40167" lon="1.0235">
        <ele>195</ele>
        <time>2025-07-17T08:00:27.072Z</time>
      </trkpt>
      <trkpt lat="44.40167" lon="1.0235">
        <ele>196</ele>
        <time>2025-07-17T08:00:28.072Z</time>
      </trkpt>
      <trkpt lat="44.40167" lon="1.0235">
        <ele>196</ele>
        <time>2025-07-17T08:00:29.071Z</time>
      </trkpt>
      <trkpt lat="44.40166" lon="1.02349">
        <ele>197</ele>
        <time>2025-07-17T08:00:30.071Z</time>
      </trkpt>
      <trkpt lat="44.40165" lon="1.02349">
        <ele>197</ele>
        <time>2025-07-17T08:00:31.071Z</time>
      </trkpt>
      <trkpt lat="44.40165" lon="1.02349">
        <ele>197</ele>
        <time>2025-07-17T08:00:32.071Z</time>
      </trkpt>
      <trkpt lat="44.40164" lon="1.02348">
        <ele>198</ele>
        <time>2025-07-17T08:00:33.072Z</time>
      </trkpt>
      <trkpt lat="44.40164" lon="1.02349">
        <ele>199</ele>
        <time>2025-07-17T08:00:34.071Z</time>
      </trkpt>
      <trkpt lat="44.40164" lon="1.02349">
        <ele>199</ele>
        <time>2025-07-17T08:00:35.071Z</time>
      </trkpt>
      <trkpt lat="44.40163" lon="1.02349">
        <ele>199</ele>
        <time>2025-07-17T08:00:36.071Z</time>
      </trkpt>
      <trkpt lat="44.40162" lon="1.02349">
        <ele>199</ele>
        <time>2025-07-17T08:00:37.071Z</time>
      </trkpt>
      <trkpt lat="44.40162" lon="1.02348">
        <ele>199</ele>
        <time>2025-07-17T08:00:38.071Z</time>
      </trkpt>
      <trkpt lat="44.40161" lon="1.02348">
        <ele>199</ele>
        <time>2025-07-17T08:00:39.071Z</time>
      </trkpt>
      <trkpt lat="44.4016" lon="1.02347">
        <ele>199</ele>
        <time>2025-07-17T08:00:40.072Z</time>
      </trkpt>
      <trkpt lat="44.40159" lon="1.02347">
        <ele>199</ele>
        <time>2025-07-17T08:00:41.071Z</time>
      </trkpt>
      <trkpt lat="44.40158" lon="1.02347">
        <ele>199</ele>
        <time>2025-07-17T08:00:42.072Z</time>
      </trkpt>
      <trkpt lat="44.40158" lon="1.02347">
        <ele>199</ele>
        <time>2025-07-17T08:00:43.071Z</time>
      </trkpt>
      <trkpt lat="44.40158" lon="1.02347">
        <ele>199</ele>
        <time>2025-07-17T08:00:44.071Z</time>
      </trkpt>
      <trkpt lat="44.40157" lon="1.02346">
        <ele>199</ele>
        <time>2025-07-17T08:00:45.072Z</time>
      </trkpt>
      <trkpt lat="44.40156" lon="1.02346">
        <ele>199</ele>
        <time>2025-07-17T08:00:46.071Z</time>
      </trkpt>
      <trkpt lat="44.40156" lon="1.02346">
        <ele>199</ele>
        <time>2025-07-17T08:00:47.071Z</time>
      </trkpt>
      <trkpt lat="44.40156" lon="1.02346">
        <ele>199</ele>
        <time>2025-07-17T08:00:48.071Z</time>
      </trkpt>
      <trkpt lat="44.40155" lon="1.02346">
        <ele>199</ele>
        <time>2025-07-17T08:00:49.071Z</time>
      </trkpt>
      <trkpt lat="44.40154" lon="1.02346">
        <ele>199</ele>
        <time>2025-07-17T08:00:50.071Z</time>
      </trkpt>
      <trkpt lat="44.40154" lon="1.02345">
        <ele>200</ele>
        <time>2025-07-17T08:00:51.071Z</time>
      </trkpt>
      <trkpt lat="44.40153" lon="1.02345">
        <ele>200</ele>
        <time>2025-07-17T08:00:52.071Z</time>
      </trkpt>
      <trkpt lat="44.40153" lon="1.02345">
        <ele>200</ele>
        <time>2025-07-17T08:00:53.071Z</time>
      </trkpt>
      <trkpt lat="44.40151" lon="1.02346">
        <ele>200</ele>
        <time>2025-07-17T08:00:54.071Z</time>
      </trkpt>
      <trkpt lat="44.40151" lon="1.02346">
        <ele>200</ele>
        <time>2025-07-17T08:00:55.071Z</time>
      </trkpt>
      <trkpt lat="44.4015" lon="1.02347">
        <ele>200</ele>
        <time>2025-07-17T08:00:56.071Z</time>
      </trkpt>
      <trkpt lat="44.4015" lon="1.02347">
        <ele>201</ele>
        <time>2025-07-17T08:00:57.072Z</time>
      </trkpt>
      <trkpt lat="44.4015" lon="1.02348">
        <ele>201</ele>
        <time>2025-07-17T08:00:58.071Z</time>
      </trkpt>
      <trkpt lat="44.4015" lon="1.02349">
        <ele>201</ele>
        <time>2025-07-17T08:00:59.071Z</time>
      </trkpt>
      <trkpt lat="44.40149" lon="1.0235">
        <ele>201</ele>
        <time>2025-07-17T08:01:00.071Z</time>
      </trkpt>
      <trkpt lat="44.40149" lon="1.02351">
        <ele>201</ele>
        <time>2025-07-17T08:01:01.071Z</time>
      </trkpt>
      <trkpt lat="44.40149" lon="1.02352">
        <ele>202</ele>
        <time>2025-07-17T08:01:02.071Z</time>
      </trkpt>
      <trkpt lat="44.40148" lon="1.02353">
        <ele>202</ele>
        <time>2025-07-17T08:01:03.071Z</time>
      </trkpt>
      <trkpt lat="44.40148" lon="1.02353">
        <ele>202</ele>
        <time>2025-07-17T08:01:04.071Z</time>
      </trkpt>
      <trkpt lat="44.40148" lon="1.02355">
        <ele>202</ele>
        <time>2025-07-17T08:01:05.071Z</time>
      </trkpt>
      <trkpt lat="44.40147" lon="1.02356">
        <ele>203</ele>
        <time>2025-07-17T08:01:06.071Z</time>
      </trkpt>
      <trkpt lat="44.40148" lon="1.02356">
        <ele>203</ele>
        <time>2025-07-17T08:01:07.072Z</time>
      </trkpt>
      <trkpt lat="44.40148" lon="1.02356">
        <ele>203</ele>
        <time>2025-07-17T08:01:08.071Z</time>
      </trkpt>
      <trkpt lat="44.40148" lon="1.02356">
        <ele>204</ele>
        <time>2025-07-17T08:01:09.072Z</time>
      </trkpt>
      <trkpt lat="44.40147" lon="1.02356">
        <ele>204</ele>
        <time>2025-07-17T08:01:10.072Z</time>
      </trkpt>
      <trkpt lat="44.40147" lon="1.02357">
        <ele>204</ele>
        <time>2025-07-17T08:01:11.071Z</time>
      </trkpt>
      <trkpt lat="44.40147" lon="1.02358">
        <ele>204</ele>
        <time>2025-07-17T08:01:12.071Z</time>
      </trkpt>
      <trkpt lat="44.40146" lon="1.02359">
        <ele>203</ele>
        <time>2025-07-17T08:01:13.071Z</time>
      </trkpt>
      <trkpt lat="44.40146" lon="1.02359">
        <ele>203</ele>
        <time>2025-07-17T08:01:14.071Z</time>
      </trkpt>
      <trkpt lat="44.40143" lon="1.0236">
        <ele>203</ele>
        <time>2025-07-17T08:01:15.071Z</time>
      </trkpt>
      <trkpt lat="44.40143" lon="1.02361">
        <ele>203</ele>
        <time>2025-07-17T08:01:16.071Z</time>
      </trkpt>
      <trkpt lat="44.40142" lon="1.02362">
        <ele>203</ele>
        <time>2025-07-17T08:01:17.071Z</time>
      </trkpt>
      <trkpt lat="44.40142" lon="1.02363">
        <ele>203</ele>
        <time>2025-07-17T08:01:18.071Z</time>
      </trkpt>
      <trkpt lat="44.40141" lon="1.02364">
        <ele>203</ele>
        <time>2025-07-17T08:01:19.071Z</time>
      </trkpt>
      <trkpt lat="44.4014" lon="1.02365">
        <ele>203</ele>
        <time>2025-07-17T08:01:20.071Z</time>
      </trkpt>
      <trkpt lat="44.4014" lon="1.02365">
        <ele>203</ele>
        <time>2025-07-17T08:01:21.071Z</time>
      </trkpt>
      <trkpt lat="44.40139" lon="1.02365">
        <ele>203</ele>
        <time>2025-07-17T08:01:22.072Z</time>
      </trkpt>
      <trkpt lat="44.40139" lon="1.02366">
        <ele>203</ele>
        <time>2025-07-17T08:01:23.071Z</time>
      </trkpt>
      <trkpt lat="44.40139" lon="1.02367">
        <ele>203</ele>
        <time>2025-07-17T08:01:24.071Z</time>
      </trkpt>
      <trkpt lat="44.40137" lon="1.02368">
        <ele>203</ele>
        <time>2025-07-17T08:01:25.072Z</time>
      </trkpt>
      <trkpt lat="44.40137" lon="1.02369">
        <ele>204</ele>
        <time>2025-07-17T08:01:26.071Z</time>
      </trkpt>
      <trkpt lat="44.40136" lon="1.0237">
        <ele>204</ele>
        <time>2025-07-17T08:01:27.071Z</time>
      </trkpt>
      <trkpt lat="44.40136" lon="1.0237">
        <ele>205</ele>
        <time>2025-07-17T08:01:28.072Z</time>
      </trkpt>
      <trkpt lat="44.40136" lon="1.0237">
        <ele>206</ele>
        <time>2025-07-17T08:01:29.071Z</time>
      </trkpt>
      <trkpt lat="44.40136" lon="1.0237">
        <ele>206</ele>
        <time>2025-07-17T08:01:30.072Z</time>
      </trkpt>
      <trkpt lat="44.40136" lon="1.0237">
        <ele>206</ele>
        <time>2025-07-17T08:01:31.071Z</time>
      </trkpt>
      <trkpt lat="44.40136" lon="1.02371">
        <ele>207</ele>
        <time>2025-07-17T08:01:32.071Z</time>
      </trkpt>
      <trkpt lat="44.40136" lon="1.02375">
        <ele>207</ele>
        <time>2025-07-17T08:01:33.071Z</time>
      </trkpt>
      <trkpt lat="44.40136" lon="1.02377">
        <ele>207</ele>
        <time>2025-07-17T08:01:34.071Z</time>
      </trkpt>
      <trkpt lat="44.40135" lon="1.02379">
        <ele>208</ele>
        <time>2025-07-17T08:01:35.071Z</time>
      </trkpt>
      <trkpt lat="44.40134" lon="1.02381">
        <ele>208</ele>
        <time>2025-07-17T08:01:36.071Z</time>
      </trkpt>
      <trkpt lat="44.40133" lon="1.02381">
        <ele>208</ele>
        <time>2025-07-17T08:01:37.071Z</time>
      </trkpt>
      <trkpt lat="44.40132" lon="1.02382">
        <ele>209</ele>
        <time>2025-07-17T08:01:38.071Z</time>
      </trkpt>
      <trkpt lat="44.40132" lon="1.02383">
        <ele>209</ele>
        <time>2025-07-17T08:01:39.071Z</time>
      </trkpt>
      <trkpt lat="44.40131" lon="1.02384">
        <ele>209</ele>
        <time>2025-07-17T08:01:40.072Z</time>
      </trkpt>
      <trkpt lat="44.4013" lon="1.02385">
        <ele>209</ele>
        <time>2025-07-17T08:01:41.071Z</time>
      </trkpt>
      <trkpt lat="44.4013" lon="1.02386">
        <ele>209</ele>
        <time>2025-07-17T08:01:42.071Z</time>
      </trkpt>
      <trkpt lat="44.4013" lon="1.02386">
        <ele>209</ele>
        <time>2025-07-17T08:01:43.071Z</time>
      </trkpt>
      <trkpt lat="44.40129" lon="1.02387">
        <ele>209</ele>
        <time>2025-07-17T08:01:44.071Z</time>
      </trkpt>
      <trkpt lat="44.40127" lon="1.02388">
        <ele>209</ele>
        <time>2025-07-17T08:01:45.071Z</time>
      </trkpt>
      <trkpt lat="44.40126" lon="1.02388">
        <ele>208</ele>
        <time>2025-07-17T08:01:46.071Z</time>
      </trkpt>
      <trkpt lat="44.40125" lon="1.02389">
        <ele>208</ele>
        <time>2025-07-17T08:01:47.071Z</time>
      </trkpt>
      <trkpt lat="44.40124" lon="1.0239">
        <ele>209</ele>
        <time>2025-07-17T08:01:48.072Z</time>
      </trkpt>
      <trkpt lat="44.40123" lon="1.0239">
        <ele>209</ele>
        <time>2025-07-17T08:01:49.071Z</time>
      </trkpt>
      <trkpt lat="44.40123" lon="1.0239">
        <ele>209</ele>
        <time>2025-07-17T08:01:50.071Z</time>
      </trkpt>
      <trkpt lat="44.40122" lon="1.02391">
        <ele>209</ele>
        <time>2025-07-17T08:01:51.071Z</time>
      </trkpt>
      <trkpt lat="44.40121" lon="1.02391">
        <ele>210</ele>
        <time>2025-07-17T08:01:52.071Z</time>
      </trkpt>
      <trkpt lat="44.40121" lon="1.02392">
        <ele>210</ele>
        <time>2025-07-17T08:01:53.071Z</time>
      </trkpt>
      <trkpt lat="44.4012" lon="1.02392">
        <ele>210</ele>
        <time>2025-07-17T08:01:54.072Z</time>
      </trkpt>
      <trkpt lat="44.4012" lon="1.02393">
        <ele>211</ele>
        <time>2025-07-17T08:01:55.071Z</time>
      </trkpt>
      <trkpt lat="44.40119" lon="1.02394">
        <ele>211</ele>
        <time>2025-07-17T08:01:56.071Z</time>
      </trkpt>
      <trkpt lat="44.40117" lon="1.02394">
        <ele>211</ele>
        <time>2025-07-17T08:01:57.071Z</time>
      </trkpt>
      <trkpt lat="44.40117" lon="1.02395">
        <ele>211</ele>
        <time>2025-07-17T08:01:58.072Z</time>
      </trkpt>
      <trkpt lat="44.40116" lon="1.02396">
        <ele>211</ele>
        <time>2025-07-17T08:01:59.071Z</time>
      </trkpt>
      <trkpt lat="44.40116" lon="1.02396">
        <ele>212</ele>
        <time>2025-07-17T08:02:00.072Z</time>
      </trkpt>
      <trkpt lat="44.40115" lon="1.02398">
        <ele>212</ele>
        <time>2025-07-17T08:02:01.071Z</time>
      </trkpt>
      <trkpt lat="44.40115" lon="1.024">
        <ele>212</ele>
        <time>2025-07-17T08:02:02.071Z</time>
      </trkpt>
      <trkpt lat="44.40114" lon="1.02401">
        <ele>213</ele>
        <time>2025-07-17T08:02:03.072Z</time>
      </trkpt>
      <trkpt lat="44.40114" lon="1.02401">
        <ele>213</ele>
        <time>2025-07-17T08:02:04.071Z</time>
      </trkpt>
      <trkpt lat="44.40114" lon="1.02401">
        <ele>213</ele>
        <time>2025-07-17T08:02:05.072Z</time>
      </trkpt>
      <trkpt lat="44.40113" lon="1.02402">
        <ele>213</ele>
        <time>2025-07-17T08:02:06.071Z</time>
      </trkpt>
      <trkpt lat="44.40112" lon="1.02404">
        <ele>213</ele>
        <time>2025-07-17T08:02:07.071Z</time>
      </trkpt>
      <trkpt lat="44.40111" lon="1.02405">
        <ele>213</ele>
        <time>2025-07-17T08:02:08.071Z</time>
      </trkpt>
      <trkpt lat="44.4011" lon="1.02406">
        <ele>213</ele>
        <time>2025-07-17T08:02:09.071Z</time>
      </trkpt>
      <trkpt lat="44.4011" lon="1.02406">
        <ele>213</ele>
        <time>2025-07-17T08:02:10.071Z</time>
      </trkpt>
      <trkpt lat="44.4011" lon="1.02406">
        <ele>213</ele>
        <time>2025-07-17T08:02:11.071Z</time>
      </trkpt>
      <trkpt lat="44.40108" lon="1.02407">
        <ele>213</ele>
        <time>2025-07-17T08:02:12.072Z</time>
      </trkpt>
      <trkpt lat="44.40108" lon="1.02407">
        <ele>214</ele>
        <time>2025-07-17T08:02:13.071Z</time>
      </trkpt>
      <trkpt lat="44.40107" lon="1.02407">
        <ele>214</ele>
        <time>2025-07-17T08:02:14.071Z</time>
      </trkpt>
      <trkpt lat="44.40106" lon="1.02407">
        <ele>214</ele>
        <time>2025-07-17T08:02:15.071Z</time>
      </trkpt>
      <trkpt lat="44.40104" lon="1.02408">
        <ele>213</ele>
        <time>2025-07-17T08:02:16.072Z</time>
      </trkpt>
      <trkpt lat="44.40103" lon="1.02409">
        <ele>213</ele>
        <time>2025-07-17T08:02:17.071Z</time>
      </trkpt>
      <trkpt lat="44.40103" lon="1.02409">
        <ele>213</ele>
        <time>2025-07-17T08:02:18.071Z</time>
      </trkpt>
      <trkpt lat="44.40101" lon="1.0241">
        <ele>212</ele>
        <time>2025-07-17T08:02:19.071Z</time>
      </trkpt>
      <trkpt lat="44.40101" lon="1.0241">
        <ele>212</ele>
        <time>2025-07-17T08:02:20.072Z</time>
      </trkpt>
      <trkpt lat="44.401" lon="1.02411">
        <ele>212</ele>
        <time>2025-07-17T08:02:21.071Z</time>
      </trkpt>
      <trkpt lat="44.401" lon="1.02412">
        <ele>211</ele>
        <time>2025-07-17T08:02:22.071Z</time>
      </trkpt>
      <trkpt lat="44.401" lon="1.02412">
        <ele>211</ele>
        <time>2025-07-17T08:02:23.071Z</time>
      </trkpt>
      <trkpt lat="44.40099" lon="1.02414">
        <ele>211</ele>
        <time>2025-07-17T08:02:24.071Z</time>
      </trkpt>
      <trkpt lat="44.40098" lon="1.02415">
        <ele>211</ele>
        <time>2025-07-17T08:02:25.071Z</time>
      </trkpt>
      <trkpt lat="44.40097" lon="1.02416">
        <ele>212</ele>
        <time>2025-07-17T08:02:26.071Z</time>
      </trkpt>
      <trkpt lat="44.40096" lon="1.02417">
        <ele>212</ele>
        <time>2025-07-17T08:02:27.071Z</time>
      </trkpt>
      <trkpt lat="44.40096" lon="1.02419">
        <ele>212</ele>
        <time>2025-07-17T08:02:28.071Z</time>
      </trkpt>
      <trkpt lat="44.40095" lon="1.02419">
        <ele>213</ele>
        <time>2025-07-17T08:02:29.071Z</time>
      </trkpt>
      <trkpt lat="44.40094" lon="1.02419">
        <ele>213</ele>
        <time>2025-07-17T08:02:30.071Z</time>
      </trkpt>
      <trkpt lat="44.40093" lon="1.02419">
        <ele>213</ele>
        <time>2025-07-17T08:02:31.071Z</time>
      </trkpt>
      <trkpt lat="44.40092" lon="1.0242">
        <ele>213</ele>
        <time>2025-07-17T08:02:32.071Z</time>
      </trkpt>
      <trkpt lat="44.40092" lon="1.02421">
        <ele>213</ele>
        <time>2025-07-17T08:02:33.071Z</time>
      </trkpt>
      <trkpt lat="44.40092" lon="1.02421">
        <ele>213</ele>
        <time>2025-07-17T08:02:34.072Z</time>
      </trkpt>
      <trkpt lat="44.40091" lon="1.02423">
        <ele>213</ele>
        <time>2025-07-17T08:02:35.071Z</time>
      </trkpt>
      <trkpt lat="44.40091" lon="1.02424">
        <ele>213</ele>
        <time>2025-07-17T08:02:36.072Z</time>
      </trkpt>
      <trkpt lat="44.40089" lon="1.02425">
        <ele>213</ele>
        <time>2025-07-17T08:02:37.071Z</time>
      </trkpt>
      <trkpt lat="44.40088" lon="1.02426">
        <ele>214</ele>
        <time>2025-07-17T08:02:38.071Z</time>
      </trkpt>
      <trkpt lat="44.40086" lon="1.02427">
        <ele>214</ele>
        <time>2025-07-17T08:02:39.071Z</time>
      </trkpt>
      <trkpt lat="44.40086" lon="1.02427">
        <ele>214</ele>
        <time>2025-07-17T08:02:40.071Z</time>
      </trkpt>
      <trkpt lat="44.40085" lon="1.02427">
        <ele>214</ele>
        <time>2025-07-17T08:02:41.071Z</time>
      </trkpt>
      <trkpt lat="44.40085" lon="1.02427">
        <ele>214</ele>
        <time>2025-07-17T08:02:42.071Z</time>
      </trkpt>
      <trkpt lat="44.40084" lon="1.02427">
        <ele>214</ele>
        <time>2025-07-17T08:02:43.071Z</time>
      </trkpt>
      <trkpt lat="44.40083" lon="1.02428">
        <ele>214</ele>
        <time>2025-07-17T08:02:44.071Z</time>
      </trkpt>
      <trkpt lat="44.40082" lon="1.02428">
        <ele>214</ele>
        <time>2025-07-17T08:02:45.071Z</time>
      </trkpt>
      <trkpt lat="44.40081" lon="1.02429">
        <ele>214</ele>
        <time>2025-07-17T08:02:46.071Z</time>
      </trkpt>
      <trkpt lat="44.40081" lon="1.0243">
        <ele>214</ele>
        <time>2025-07-17T08:02:47.071Z</time>
      </trkpt>
      <trkpt lat="44.4008" lon="1.02431">
        <ele>214</ele>
        <time>2025-07-17T08:02:48.072Z</time>
      </trkpt>
      <trkpt lat="44.4008" lon="1.02431">
        <ele>214</ele>
        <time>2025-07-17T08:02:49.071Z</time>
      </trkpt>
      <trkpt lat="44.4008" lon="1.02432">
        <ele>214</ele>
        <time>2025-07-17T08:02:50.071Z</time>
      </trkpt>
      <trkpt lat="44.4008" lon="1.02433">
        <ele>215</ele>
        <time>2025-07-17T08:02:51.071Z</time>
      </trkpt>
      <trkpt lat="44.40079" lon="1.02434">
        <ele>215</ele>
        <time>2025-07-17T08:02:52.071Z</time>
      </trkpt>
      <trkpt lat="44.40079" lon="1.02435">
        <ele>215</ele>
        <time>2025-07-17T08:02:53.071Z</time>
      </trkpt>
      <trkpt lat="44.40078" lon="1.02436">
        <ele>215</ele>
        <time>2025-07-17T08:02:54.071Z</time>
      </trkpt>
      <trkpt lat="44.40078" lon="1.02437">
        <ele>215</ele>
        <time>2025-07-17T08:02:55.071Z</time>
      </trkpt>
      <trkpt lat="44.40078" lon="1.02437">
        <ele>216</ele>
        <time>2025-07-17T08:02:56.071Z</time>
      </trkpt>
      <trkpt lat="44.40077" lon="1.02438">
        <ele>216</ele>
        <time>2025-07-17T08:02:57.071Z</time>
      </trkpt>
      <trkpt lat="44.40076" lon="1.02438">
        <ele>216</ele>
        <time>2025-07-17T08:02:58.071Z</time>
      </trkpt>
      <trkpt lat="44.40075" lon="1.02439">
        <ele>216</ele>
        <time>2025-07-17T08:02:59.072Z</time>
      </trkpt>
      <trkpt lat="44.40073" lon="1.0244">
        <ele>216</ele>
        <time>2025-07-17T08:03:00.072Z</time>
      </trkpt>
      <trkpt lat="44.40071" lon="1.0244">
        <ele>216</ele>
        <time>2025-07-17T08:03:01.071Z</time>
      </trkpt>
      <trkpt lat="44.40071" lon="1.0244">
        <ele>216</ele>
        <time>2025-07-17T08:03:02.071Z</time>
      </trkpt>
      <trkpt lat="44.40069" lon="1.0244">
        <ele>217</ele>
        <time>2025-07-17T08:03:03.071Z</time>
      </trkpt>
      <trkpt lat="44.40069" lon="1.0244">
        <ele>217</ele>
        <time>2025-07-17T08:03:04.072Z</time>
      </trkpt>
      <trkpt lat="44.40068" lon="1.0244">
        <ele>218</ele>
        <time>2025-07-17T08:03:05.071Z</time>
      </trkpt>
      <trkpt lat="44.40066" lon="1.0244">
        <ele>218</ele>
        <time>2025-07-17T08:03:06.071Z</time>
      </trkpt>
      <trkpt lat="44.40065" lon="1.0244">
        <ele>218</ele>
        <time>2025-07-17T08:03:07.071Z</time>
      </trkpt>
      <trkpt lat="44.40064" lon="1.0244">
        <ele>218</ele>
        <time>2025-07-17T08:03:08.071Z</time>
      </trkpt>
      <trkpt lat="44.40064" lon="1.02441">
        <ele>218</ele>
        <time>2025-07-17T08:03:09.071Z</time>
      </trkpt>
      <trkpt lat="44.40063" lon="1.02441">
        <ele>218</ele>
        <time>2025-07-17T08:03:10.071Z</time>
      </trkpt>
      <trkpt lat="44.40063" lon="1.02441">
        <ele>218</ele>
        <time>2025-07-17T08:03:11.071Z</time>
      </trkpt>
      <trkpt lat="44.40063" lon="1.02442">
        <ele>219</ele>
        <time>2025-07-17T08:03:12.071Z</time>
      </trkpt>
      <trkpt lat="44.40062" lon="1.02442">
        <ele>219</ele>
        <time>2025-07-17T08:03:13.071Z</time>
      </trkpt>
      <trkpt lat="44.40062" lon="1.02443">
        <ele>219</ele>
        <time>2025-07-17T08:03:14.071Z</time>
      </trkpt>
      <trkpt lat="44.40062" lon="1.02444">
        <ele>219</ele>
        <time>2025-07-17T08:03:15.071Z</time>
      </trkpt>
      <trkpt lat="44.40061" lon="1.02444">
        <ele>220</ele>
        <time>2025-07-17T08:03:16.071Z</time>
      </trkpt>
      <trkpt lat="44.40061" lon="1.02445">
        <ele>220</ele>
        <time>2025-07-17T08:03:17.071Z</time>
      </trkpt>
      <trkpt lat="44.40061" lon="1.02446">
        <ele>221</ele>
        <time>2025-07-17T08:03:18.071Z</time>
      </trkpt>
      <trkpt lat="44.4006" lon="1.02446">
        <ele>221</ele>
        <time>2025-07-17T08:03:19.072Z</time>
      </trkpt>
      <trkpt lat="44.40059" lon="1.02447">
        <ele>222</ele>
        <time>2025-07-17T08:03:20.071Z</time>
      </trkpt>
      <trkpt lat="44.40058" lon="1.02447">
        <ele>222</ele>
        <time>2025-07-17T08:03:21.072Z</time>
      </trkpt>
      <trkpt lat="44.40058" lon="1.02447">
        <ele>223</ele>
        <time>2025-07-17T08:03:22.071Z</time>
      </trkpt>
      <trkpt lat="44.40058" lon="1.02448">
        <ele>223</ele>
        <time>2025-07-17T08:03:23.072Z</time>
      </trkpt>
      <trkpt lat="44.40058" lon="1.02448">
        <ele>223</ele>
        <time>2025-07-17T08:03:24.071Z</time>
      </trkpt>
      <trkpt lat="44.40058" lon="1.02448">
        <ele>224</ele>
        <time>2025-07-17T08:03:25.072Z</time>
      </trkpt>
      <trkpt lat="44.40057" lon="1.02448">
        <ele>224</ele>
        <time>2025-07-17T08:03:26.072Z</time>
      </trkpt>
      <trkpt lat="44.40057" lon="1.02448">
        <ele>224</ele>
        <time>2025-07-17T08:03:27.071Z</time>
      </trkpt>
      <trkpt lat="44.40057" lon="1.02448">
        <ele>224</ele>
        <time>2025-07-17T08:03:28.071Z</time>
      </trkpt>
      <trkpt lat="44.40057" lon="1.02448">
        <ele>224</ele>
        <time>2025-07-17T08:03:29.072Z</time>
      </trkpt>
      <trkpt lat="44.40057" lon="1.02448">
        <ele>225</ele>
        <time>2025-07-17T08:03:30.071Z</time>
      </trkpt>
      <trkpt lat="44.40057" lon="1.02448">
        <ele>226</ele>
        <time>2025-07-17T08:03:31.071Z</time>
      </trkpt>
      <trkpt lat="44.40057" lon="1.02449">
        <ele>226</ele>
        <time>2025-07-17T08:03:32.071Z</time>
      </trkpt>
      <trkpt lat="44.40057" lon="1.02449">
        <ele>226</ele>
        <time>2025-07-17T08:03:33.071Z</time>
      </trkpt>
      <trkpt lat="44.40057" lon="1.02449">
        <ele>226</ele>
        <time>2025-07-17T08:03:34.071Z</time>
      </trkpt>
      <trkpt lat="44.40057" lon="1.02449">
        <ele>226</ele>
        <time>2025-07-17T08:03:35.071Z</time>
      </trkpt>
      <trkpt lat="44.40057" lon="1.02449">
        <ele>227</ele>
        <time>2025-07-17T08:03:36.071Z</time>
      </trkpt>
      <trkpt lat="44.40057" lon="1.0245">
        <ele>226</ele>
        <time>2025-07-17T08:03:37.071Z</time>
      </trkpt>
      <trkpt lat="44.40057" lon="1.0245">
        <ele>226</ele>
        <time>2025-07-17T08:03:38.071Z</time>
      </trkpt>
      <trkpt lat="44.40057" lon="1.0245">
        <ele>226</ele>
        <time>2025-07-17T08:03:39.071Z</time>
      </trkpt>
      <trkpt lat="44.40057" lon="1.0245">
        <ele>225</ele>
        <time>2025-07-17T08:03:40.071Z</time>
      </trkpt>
      <trkpt lat="44.40057" lon="1.0245">
        <ele>225</ele>
        <time>2025-07-17T08:03:41.072Z</time>
      </trkpt>
      <trkpt lat="44.40056" lon="1.0245">
        <ele>225</ele>
        <time>2025-07-17T08:03:42.071Z</time>
      </trkpt>
      <trkpt lat="44.40056" lon="1.0245">
        <ele>224</ele>
        <time>2025-07-17T08:03:43.072Z</time>
      </trkpt>
      <trkpt lat="44.40055" lon="1.0245">
        <ele>224</ele>
        <time>2025-07-17T08:03:44.071Z</time>
      </trkpt>
      <trkpt lat="44.40055" lon="1.0245">
        <ele>224</ele>
        <time>2025-07-17T08:03:45.071Z</time>
      </trkpt>
      <trkpt lat="44.40055" lon="1.0245">
        <ele>223</ele>
        <time>2025-07-17T08:03:46.072Z</time>
      </trkpt>
      <trkpt lat="44.40055" lon="1.0245">
        <ele>223</ele>
        <time>2025-07-17T08:03:47.071Z</time>
      </trkpt>
      <trkpt lat="44.40055" lon="1.0245">
        <ele>223</ele>
        <time>2025-07-17T08:03:48.071Z</time>
      </trkpt>
      <trkpt lat="44.40055" lon="1.02451">
        <ele>222</ele>
        <time>2025-07-17T08:03:49.072Z</time>
      </trkpt>
      <trkpt lat="44.40055" lon="1.02451">
        <ele>222</ele>
        <time>2025-07-17T08:03:50.071Z</time>
      </trkpt>
      <trkpt lat="44.40055" lon="1.02451">
        <ele>221</ele>
        <time>2025-07-17T08:03:51.071Z</time>
      </trkpt>
      <trkpt lat="44.40055" lon="1.02451">
        <ele>221</ele>
        <time>2025-07-17T08:03:52.072Z</time>
      </trkpt>
      <trkpt lat="44.40054" lon="1.02451">
        <ele>221</ele>
        <time>2025-07-17T08:03:53.071Z</time>
      </trkpt>
      <trkpt lat="44.40054" lon="1.02451">
        <ele>220</ele>
        <time>2025-07-17T08:03:54.071Z</time>
      </trkpt>
      <trkpt lat="44.40053" lon="1.02451">
        <ele>220</ele>
        <time>2025-07-17T08:03:55.072Z</time>
      </trkpt>
      <trkpt lat="44.40053" lon="1.02451">
        <ele>220</ele>
        <time>2025-07-17T08:03:56.071Z</time>
      </trkpt>
      <trkpt lat="44.40053" lon="1.02451">
        <ele>220</ele>
        <time>2025-07-17T08:03:57.071Z</time>
      </trkpt>
      <trkpt lat="44.40053" lon="1.02451">
        <ele>220</ele>
        <time>2025-07-17T08:03:58.071Z</time>
      </trkpt>
      <trkpt lat="44.40053" lon="1.02451">
        <ele>220</ele>
        <time>2025-07-17T08:03:59.072Z</time>
      </trkpt>
      <trkpt lat="44.40053" lon="1.02452">
        <ele>220</ele>
        <time>2025-07-17T08:04:00.071Z</time>
      </trkpt>
      <trkpt lat="44.40052" lon="1.02452">
        <ele>221</ele>
        <time>2025-07-17T08:04:01.071Z</time>
      </trkpt>
      <trkpt lat="44.40052" lon="1.02452">
        <ele>221</ele>
        <time>2025-07-17T08:04:02.071Z</time>
      </trkpt>
      <trkpt lat="44.40052" lon="1.02452">
        <ele>221</ele>
        <time>2025-07-17T08:04:03.071Z</time>
      </trkpt>
      <trkpt lat="44.40052" lon="1.02452">
        <ele>221</ele>
        <time>2025-07-17T08:04:04.072Z</time>
      </trkpt>
      <trkpt lat="44.40052" lon="1.02452">
        <ele>221</ele>
        <time>2025-07-17T08:04:05.072Z</time>
      </trkpt>
      <trkpt lat="44.40052" lon="1.02452">
        <ele>221</ele>
        <time>2025-07-17T08:04:06.072Z</time>
      </trkpt>
      <trkpt lat="44.40052" lon="1.02452">
        <ele>221</ele>
        <time>2025-07-17T08:04:07.072Z</time>
      </trkpt>
      <trkpt lat="44.40052" lon="1.02452">
        <ele>220</ele>
        <time>2025-07-17T08:04:08.072Z</time>
      </trkpt>
      <trkpt lat="44.40052" lon="1.02452">
        <ele>220</ele>
        <time>2025-07-17T08:04:09.072Z</time>
      </trkpt>
      <trkpt lat="44.40052" lon="1.02452">
        <ele>220</ele>
        <time>2025-07-17T08:04:10.071Z</time>
      </trkpt>
      <trkpt lat="44.40052" lon="1.02452">
        <ele>219</ele>
        <time>2025-07-17T08:04:11.071Z</time>
      </trkpt>
      <trkpt lat="44.40052" lon="1.02452">
        <ele>219</ele>
        <time>2025-07-17T08:04:12.072Z</time>
      </trkpt>
      <trkpt lat="44.40052" lon="1.02452">
        <ele>219</ele>
        <time>2025-07-17T08:04:13.072Z</time>
      </trkpt>
      <trkpt lat="44.40052" lon="1.02451">
        <ele>219</ele>
        <time>2025-07-17T08:04:14.071Z</time>
      </trkpt>
      <trkpt lat="44.40052" lon="1.02451">
        <ele>219</ele>
        <time>2025-07-17T08:04:15.072Z</time>
      </trkpt>
      <trkpt lat="44.40052" lon="1.02451">
        <ele>219</ele>
        <time>2025-07-17T08:04:16.072Z</time>
      </trkpt>
      <trkpt lat="44.40052" lon="1.02451">
        <ele>219</ele>
        <time>2025-07-17T08:04:17.072Z</time>
      </trkpt>
      <trkpt lat="44.40052" lon="1.02451">
        <ele>219</ele>
        <time>2025-07-17T08:04:18.072Z</time>
      </trkpt>
      <trkpt lat="44.40052" lon="1.02451">
        <ele>219</ele>
        <time>2025-07-17T08:04:19.071Z</time>
      </trkpt>
      <trkpt lat="44.40052" lon="1.02451">
        <ele>219</ele>
        <time>2025-07-17T08:04:20.071Z</time>
      </trkpt>
      <trkpt lat="44.40052" lon="1.02451">
        <ele>218</ele>
        <time>2025-07-17T08:04:21.072Z</time>
      </trkpt>
      <trkpt lat="44.40052" lon="1.02451">
        <ele>218</ele>
        <time>2025-07-17T08:04:22.071Z</time>
      </trkpt>
      <trkpt lat="44.40052" lon="1.02451">
        <ele>218</ele>
        <time>2025-07-17T08:04:23.072Z</time>
      </trkpt>
      <trkpt lat="44.40052" lon="1.02451">
        <ele>217</ele>
        <time>2025-07-17T08:04:24.072Z</time>
      </trkpt>
      <trkpt lat="44.40052" lon="1.02451">
        <ele>217</ele>
        <time>2025-07-17T08:04:25.072Z</time>
      </trkpt>
      <trkpt lat="44.40052" lon="1.02451">
        <ele>217</ele>
        <time>2025-07-17T08:04:26.071Z</time>
      </trkpt>
      <trkpt lat="44.40052" lon="1.02451">
        <ele>217</ele>
        <time>2025-07-17T08:04:27.072Z</time>
      </trkpt>
      <trkpt lat="44.40052" lon="1.02451">
        <ele>217</ele>
        <time>2025-07-17T08:04:28.072Z</time>
      </trkpt>
      <trkpt lat="44.40052" lon="1.02452">
        <ele>218</ele>
        <time>2025-07-17T08:04:29.071Z</time>
      </trkpt>
      <trkpt lat="44.40052" lon="1.02452">
        <ele>218</ele>
        <time>2025-07-17T08:04:30.071Z</time>
      </trkpt>
      <trkpt lat="44.40053" lon="1.02452">
        <ele>219</ele>
        <time>2025-07-17T08:04:31.071Z</time>
      </trkpt>
      <trkpt lat="44.40053" lon="1.02452">
        <ele>219</ele>
        <time>2025-07-17T08:04:32.071Z</time>
      </trkpt>
      <trkpt lat="44.40053" lon="1.02452">
        <ele>219</ele>
        <time>2025-07-17T08:04:33.071Z</time>
      </trkpt>
      <trkpt lat="44.40053" lon="1.02452">
        <ele>220</ele>
        <time>2025-07-17T08:04:34.071Z</time>
      </trkpt>
      <trkpt lat="44.40053" lon="1.02452">
        <ele>221</ele>
        <time>2025-07-17T08:04:35.071Z</time>
      </trkpt>
      <trkpt lat="44.40052" lon="1.02451">
        <ele>221</ele>
        <time>2025-07-17T08:04:36.071Z</time>
      </trkpt>
      <trkpt lat="44.40052" lon="1.02451">
        <ele>221</ele>
        <time>2025-07-17T08:04:37.071Z</time>
      </trkpt>
      <trkpt lat="44.40052" lon="1.02451">
        <ele>221</ele>
        <time>2025-07-17T08:04:38.071Z</time>
      </trkpt>
      <trkpt lat="44.40052" lon="1.02451">
        <ele>222</ele>
        <time>2025-07-17T08:04:39.072Z</time>
      </trkpt>
      <trkpt lat="44.40051" lon="1.02451">
        <ele>223</ele>
        <time>2025-07-17T08:04:40.071Z</time>
      </trkpt>
      <trkpt lat="44.40051" lon="1.02451">
        <ele>223</ele>
        <time>2025-07-17T08:04:41.071Z</time>
      </trkpt>
      <trkpt lat="44.40051" lon="1.02451">
        <ele>223</ele>
        <time>2025-07-17T08:04:42.071Z</time>
      </trkpt>
      <trkpt lat="44.40051" lon="1.0245">
        <ele>223</ele>
        <time>2025-07-17T08:04:43.071Z</time>
      </trkpt>
      <trkpt lat="44.40051" lon="1.02451">
        <ele>223</ele>
        <time>2025-07-17T08:04:44.071Z</time>
      </trkpt>
      <trkpt lat="44.40051" lon="1.02451">
        <ele>223</ele>
        <time>2025-07-17T08:04:45.071Z</time>
      </trkpt>
      <trkpt lat="44.40051" lon="1.0245">
        <ele>223</ele>
        <time>2025-07-17T08:04:46.072Z</time>
      </trkpt>
      <trkpt lat="44.40051" lon="1.0245">
        <ele>223</ele>
        <time>2025-07-17T08:04:47.071Z</time>
      </trkpt>
      <trkpt lat="44.40051" lon="1.02451">
        <ele>223</ele>
        <time>2025-07-17T08:04:48.072Z</time>
      </trkpt>
      <trkpt lat="44.40051" lon="1.02451">
        <ele>224</ele>
        <time>2025-07-17T08:04:49.072Z</time>
      </trkpt>
      <trkpt lat="44.40051" lon="1.02451">
        <ele>224</ele>
        <time>2025-07-17T08:04:50.071Z</time>
      </trkpt>
      <trkpt lat="44.40051" lon="1.02451">
        <ele>225</ele>
        <time>2025-07-17T08:04:51.071Z</time>
      </trkpt>
      <trkpt lat="44.40051" lon="1.02451">
        <ele>225</ele>
        <time>2025-07-17T08:04:52.071Z</time>
      </trkpt>
      <trkpt lat="44.40051" lon="1.02451">
        <ele>225</ele>
        <time>2025-07-17T08:04:53.071Z</time>
      </trkpt>
      <trkpt lat="44.4005" lon="1.0245">
        <ele>225</ele>
        <time>2025-07-17T08:04:54.071Z</time>
      </trkpt>
      <trkpt lat="44.4005" lon="1.0245">
        <ele>225</ele>
        <time>2025-07-17T08:04:55.071Z</time>
      </trkpt>
      <trkpt lat="44.4005" lon="1.0245">
        <ele>226</ele>
        <time>2025-07-17T08:04:56.072Z</time>
      </trkpt>
      <trkpt lat="44.4005" lon="1.0245">
        <ele>226</ele>
        <time>2025-07-17T08:04:57.071Z</time>
      </trkpt>
      <trkpt lat="44.4005" lon="1.0245">
        <ele>226</ele>
        <time>2025-07-17T08:04:58.071Z</time>
      </trkpt>
      <trkpt lat="44.4005" lon="1.0245">
        <ele>226</ele>
        <time>2025-07-17T08:04:59.071Z</time>
      </trkpt>
      <trkpt lat="44.40049" lon="1.0245">
        <ele>227</ele>
        <time>2025-07-17T08:05:00.072Z</time>
      </trkpt>
      <trkpt lat="44.40049" lon="1.0245">
        <ele>228</ele>
        <time>2025-07-17T08:05:01.072Z</time>
      </trkpt>
      <trkpt lat="44.40049" lon="1.0245">
        <ele>228</ele>
        <time>2025-07-17T08:05:02.071Z</time>
      </trkpt>
      <trkpt lat="44.40049" lon="1.02449">
        <ele>229</ele>
        <time>2025-07-17T08:05:03.071Z</time>
      </trkpt>
      <trkpt lat="44.40049" lon="1.02449">
        <ele>229</ele>
        <time>2025-07-17T08:05:04.072Z</time>
      </trkpt>
      <trkpt lat="44.40049" lon="1.02449">
        <ele>230</ele>
        <time>2025-07-17T08:05:05.071Z</time>
      </trkpt>
      <trkpt lat="44.40049" lon="1.02449">
        <ele>230</ele>
        <time>2025-07-17T08:05:06.071Z</time>
      </trkpt>
      <trkpt lat="44.40049" lon="1.02449">
        <ele>230</ele>
        <time>2025-07-17T08:05:07.071Z</time>
      </trkpt>
      <trkpt lat="44.40049" lon="1.02449">
        <ele>230</ele>
        <time>2025-07-17T08:05:08.072Z</time>
      </trkpt>
      <trkpt lat="44.40049" lon="1.02449">
        <ele>230</ele>
        <time>2025-07-17T08:05:09.071Z</time>
      </trkpt>
      <trkpt lat="44.40049" lon="1.02449">
        <ele>230</ele>
        <time>2025-07-17T08:05:10.071Z</time>
      </trkpt>
      <trkpt lat="44.40049" lon="1.02449">
        <ele>230</ele>
        <time>2025-07-17T08:05:11.072Z</time>
      </trkpt>
      <trkpt lat="44.40049" lon="1.02449">
        <ele>230</ele>
        <time>2025-07-17T08:05:12.072Z</time>
      </trkpt>
      <trkpt lat="44.40049" lon="1.02449">
        <ele>229</ele>
        <time>2025-07-17T08:05:13.072Z</time>
      </trkpt>
      <trkpt lat="44.40049" lon="1.02449">
        <ele>229</ele>
        <time>2025-07-17T08:05:14.072Z</time>
      </trkpt>
      <trkpt lat="44.40049" lon="1.02449">
        <ele>229</ele>
        <time>2025-07-17T08:05:15.072Z</time>
      </trkpt>
      <trkpt lat="44.40049" lon="1.02449">
        <ele>229</ele>
        <time>2025-07-17T08:05:16.072Z</time>
      </trkpt>
      <trkpt lat="44.40049" lon="1.02449">
        <ele>229</ele>
        <time>2025-07-17T08:05:17.071Z</time>
      </trkpt>
      <trkpt lat="44.40049" lon="1.02449">
        <ele>228</ele>
        <time>2025-07-17T08:05:18.071Z</time>
      </trkpt>
      <trkpt lat="44.40049" lon="1.02449">
        <ele>228</ele>
        <time>2025-07-17T08:05:19.072Z</time>
      </trkpt>
      <trkpt lat="44.40049" lon="1.02449">
        <ele>228</ele>
        <time>2025-07-17T08:05:20.071Z</time>
      </trkpt>
      <trkpt lat="44.40049" lon="1.02449">
        <ele>227</ele>
        <time>2025-07-17T08:05:21.071Z</time>
      </trkpt>
      <trkpt lat="44.40049" lon="1.02449">
        <ele>226</ele>
        <time>2025-07-17T08:05:22.071Z</time>
      </trkpt>
      <trkpt lat="44.40049" lon="1.02449">
        <ele>226</ele>
        <time>2025-07-17T08:05:23.071Z</time>
      </trkpt>
      <trkpt lat="44.4005" lon="1.02448">
        <ele>225</ele>
        <time>2025-07-17T08:05:24.071Z</time>
      </trkpt>
      <trkpt lat="44.4005" lon="1.02448">
        <ele>225</ele>
        <time>2025-07-17T08:05:25.072Z</time>
      </trkpt>
      <trkpt lat="44.4005" lon="1.02448">
        <ele>225</ele>
        <time>2025-07-17T08:05:26.071Z</time>
      </trkpt>
      <trkpt lat="44.4005" lon="1.02447">
        <ele>224</ele>
        <time>2025-07-17T08:05:27.071Z</time>
      </trkpt>
      <trkpt lat="44.4005" lon="1.02447">
        <ele>223</ele>
        <time>2025-07-17T08:05:28.071Z</time>
      </trkpt>
      <trkpt lat="44.4005" lon="1.02447">
        <ele>223</ele>
        <time>2025-07-17T08:05:29.071Z</time>
      </trkpt>
      <trkpt lat="44.40049" lon="1.02446">
        <ele>222</ele>
        <time>2025-07-17T08:05:30.071Z</time>
      </trkpt>
      <trkpt lat="44.40049" lon="1.02446">
        <ele>222</ele>
        <time>2025-07-17T08:05:31.072Z</time>
      </trkpt>
      <trkpt lat="44.40049" lon="1.02446">
        <ele>222</ele>
        <time>2025-07-17T08:05:32.071Z</time>
      </trkpt>
      <trkpt lat="44.40049" lon="1.02446">
        <ele>221</ele>
        <time>2025-07-17T08:05:33.072Z</time>
      </trkpt>
      <trkpt lat="44.4005" lon="1.02446">
        <ele>221</ele>
        <time>2025-07-17T08:05:34.072Z</time>
      </trkpt>
      <trkpt lat="44.4005" lon="1.02446">
        <ele>221</ele>
        <time>2025-07-17T08:05:35.071Z</time>
      </trkpt>
      <trkpt lat="44.4005" lon="1.02446">
        <ele>222</ele>
        <time>2025-07-17T08:05:36.072Z</time>
      </trkpt>
      <trkpt lat="44.4005" lon="1.02446">
        <ele>223</ele>
        <time>2025-07-17T08:05:37.072Z</time>
      </trkpt>
      <trkpt lat="44.4005" lon="1.02446">
        <ele>223</ele>
        <time>2025-07-17T08:05:38.071Z</time>
      </trkpt>
      <trkpt lat="44.4005" lon="1.02446">
        <ele>223</ele>
        <time>2025-07-17T08:05:39.072Z</time>
      </trkpt>
      <trkpt lat="44.40049" lon="1.02446">
        <ele>225</ele>
        <time>2025-07-17T08:05:40.072Z</time>
      </trkpt>
      <trkpt lat="44.40049" lon="1.02447">
        <ele>225</ele>
        <time>2025-07-17T08:05:41.072Z</time>
      </trkpt>
      <trkpt lat="44.40049" lon="1.02447">
        <ele>225</ele>
        <time>2025-07-17T08:05:42.072Z</time>
      </trkpt>
      <trkpt lat="44.4005" lon="1.02447">
        <ele>226</ele>
        <time>2025-07-17T08:05:43.072Z</time>
      </trkpt>
      <trkpt lat="44.40049" lon="1.02447">
        <ele>226</ele>
        <time>2025-07-17T08:05:44.072Z</time>
      </trkpt>
      <trkpt lat="44.40049" lon="1.02446">
        <ele>227</ele>
        <time>2025-07-17T08:05:45.072Z</time>
      </trkpt>
      <trkpt lat="44.40049" lon="1.02446">
        <ele>227</ele>
        <time>2025-07-17T08:05:46.072Z</time>
      </trkpt>
      <trkpt lat="44.40049" lon="1.02446">
        <ele>227</ele>
        <time>2025-07-17T08:05:47.071Z</time>
      </trkpt>
      <trkpt lat="44.40049" lon="1.02446">
        <ele>227</ele>
        <time>2025-07-17T08:05:48.071Z</time>
      </trkpt>
      <trkpt lat="44.40049" lon="1.02446">
        <ele>228</ele>
        <time>2025-07-17T08:05:49.072Z</time>
      </trkpt>
      <trkpt lat="44.40049" lon="1.02446">
        <ele>228</ele>
        <time>2025-07-17T08:05:50.072Z</time>
      </trkpt>
      <trkpt lat="44.40049" lon="1.02446">
        <ele>227</ele>
        <time>2025-07-17T08:05:51.072Z</time>
      </trkpt>
      <trkpt lat="44.40049" lon="1.02446">
        <ele>227</ele>
        <time>2025-07-17T08:05:52.072Z</time>
      </trkpt>
      <trkpt lat="44.40049" lon="1.02446">
        <ele>227</ele>
        <time>2025-07-17T08:05:53.071Z</time>
      </trkpt>
      <trkpt lat="44.40049" lon="1.02447">
        <ele>227</ele>
        <time>2025-07-17T08:05:54.072Z</time>
      </trkpt>
      <trkpt lat="44.40049" lon="1.02447">
        <ele>226</ele>
        <time>2025-07-17T08:05:55.072Z</time>
      </trkpt>
      <trkpt lat="44.40049" lon="1.02447">
        <ele>226</ele>
        <time>2025-07-17T08:05:56.071Z</time>
      </trkpt>
      <trkpt lat="44.40049" lon="1.02447">
        <ele>226</ele>
        <time>2025-07-17T08:05:57.072Z</time>
      </trkpt>
      <trkpt lat="44.40049" lon="1.02447">
        <ele>227</ele>
        <time>2025-07-17T08:05:58.072Z</time>
      </trkpt>
      <trkpt lat="44.40049" lon="1.02447">
        <ele>227</ele>
        <time>2025-07-17T08:05:59.071Z</time>
      </trkpt>
      <trkpt lat="44.40049" lon="1.02447">
        <ele>227</ele>
        <time>2025-07-17T08:06:00.072Z</time>
      </trkpt>
      <trkpt lat="44.40049" lon="1.02447">
        <ele>228</ele>
        <time>2025-07-17T08:06:01.072Z</time>
      </trkpt>
      <trkpt lat="44.40049" lon="1.02447">
        <ele>228</ele>
        <time>2025-07-17T08:06:02.071Z</time>
      </trkpt>
      <trkpt lat="44.40049" lon="1.02447">
        <ele>229</ele>
        <time>2025-07-17T08:06:03.071Z</time>
      </trkpt>
      <trkpt lat="44.40049" lon="1.02447">
        <ele>229</ele>
        <time>2025-07-17T08:06:04.071Z</time>
      </trkpt>
      <trkpt lat="44.40049" lon="1.02447">
        <ele>229</ele>
        <time>2025-07-17T08:06:05.071Z</time>
      </trkpt>
      <trkpt lat="44.40049" lon="1.02447">
        <ele>229</ele>
        <time>2025-07-17T08:06:06.072Z</time>
      </trkpt>
      <trkpt lat="44.40049" lon="1.02447">
        <ele>228</ele>
        <time>2025-07-17T08:06:07.072Z</time>
      </trkpt>
      <trkpt lat="44.40049" lon="1.02447">
        <ele>228</ele>
        <time>2025-07-17T08:06:08.071Z</time>
      </trkpt>
      <trkpt lat="44.40049" lon="1.02447">
        <ele>228</ele>
        <time>2025-07-17T08:06:09.072Z</time>
      </trkpt>
      <trkpt lat="44.40049" lon="1.02447">
        <ele>228</ele>
        <time>2025-07-17T08:06:10.072Z</time>
      </trkpt>
      <trkpt lat="44.40049" lon="1.02447">
        <ele>228</ele>
        <time>2025-07-17T08:06:11.071Z</time>
      </trkpt>
      <trkpt lat="44.40049" lon="1.02447">
        <ele>228</ele>
        <time>2025-07-17T08:06:12.072Z</time>
      </trkpt>
      <trkpt lat="44.40049" lon="1.02447">
        <ele>228</ele>
        <time>2025-07-17T08:06:13.072Z</time>
      </trkpt>
      <trkpt lat="44.40049" lon="1.02447">
        <ele>228</ele>
        <time>2025-07-17T08:06:14.071Z</time>
      </trkpt>
      <trkpt lat="44.40049" lon="1.02447">
        <ele>227</ele>
        <time>2025-07-17T08:06:15.072Z</time>
      </trkpt>
      <trkpt lat="44.40049" lon="1.02447">
        <ele>227</ele>
        <time>2025-07-17T08:06:16.072Z</time>
      </trkpt>
      <trkpt lat="44.40049" lon="1.02447">
        <ele>227</ele>
        <time>2025-07-17T08:06:17.071Z</time>
      </trkpt>
      <trkpt lat="44.40049" lon="1.02447">
        <ele>227</ele>
        <time>2025-07-17T08:06:18.072Z</time>
      </trkpt>
      <trkpt lat="44.40049" lon="1.02447">
        <ele>227</ele>
        <time>2025-07-17T08:06:19.072Z</time>
      </trkpt>
      <trkpt lat="44.40049" lon="1.02447">
        <ele>227</ele>
        <time>2025-07-17T08:06:20.071Z</time>
      </trkpt>
      <trkpt lat="44.40049" lon="1.02447">
        <ele>227</ele>
        <time>2025-07-17T08:06:21.072Z</time>
      </trkpt>
      <trkpt lat="44.40049" lon="1.02447">
        <ele>226</ele>
        <time>2025-07-17T08:06:22.072Z</time>
      </trkpt>
      <trkpt lat="44.40049" lon="1.02447">
        <ele>226</ele>
        <time>2025-07-17T08:06:23.071Z</time>
      </trkpt>
      <trkpt lat="44.40049" lon="1.02447">
        <ele>226</ele>
        <time>2025-07-17T08:06:24.072Z</time>
      </trkpt>
      <trkpt lat="44.4005" lon="1.02447">
        <ele>226</ele>
        <time>2025-07-17T08:06:25.072Z</time>
      </trkpt>
      <trkpt lat="44.4005" lon="1.02447">
        <ele>226</ele>
        <time>2025-07-17T08:06:26.071Z</time>
      </trkpt>
      <trkpt lat="44.4005" lon="1.02447">
        <ele>226</ele>
        <time>2025-07-17T08:06:27.071Z</time>
      </trkpt>
      <trkpt lat="44.4005" lon="1.02447">
        <ele>226</ele>
        <time>2025-07-17T08:06:28.071Z</time>
      </trkpt>
      <trkpt lat="44.4005" lon="1.02447">
        <ele>226</ele>
        <time>2025-07-17T08:06:29.072Z</time>
      </trkpt>
      <trkpt lat="44.4005" lon="1.02447">
        <ele>226</ele>
        <time>2025-07-17T08:06:30.072Z</time>
      </trkpt>
      <trkpt lat="44.4005" lon="1.02447">
        <ele>226</ele>
        <time>2025-07-17T08:06:31.072Z</time>
      </trkpt>
      <trkpt lat="44.4005" lon="1.02447">
        <ele>226</ele>
        <time>2025-07-17T08:06:32.071Z</time>
      </trkpt>
      <trkpt lat="44.4005" lon="1.02447">
        <ele>226</ele>
        <time>2025-07-17T08:06:33.072Z</time>
      </trkpt>
      <trkpt lat="44.4005" lon="1.02447">
        <ele>225</ele>
        <time>2025-07-17T08:06:34.071Z</time>
      </trkpt>
      <trkpt lat="44.4005" lon="1.02447">
        <ele>225</ele>
        <time>2025-07-17T08:06:35.071Z</time>
      </trkpt>
      <trkpt lat="44.4005" lon="1.02447">
        <ele>225</ele>
        <time>2025-07-17T08:06:36.071Z</time>
      </trkpt>
      <trkpt lat="44.4005" lon="1.02447">
        <ele>225</ele>
        <time>2025-07-17T08:06:37.071Z</time>
      </trkpt>
      <trkpt lat="44.4005" lon="1.02447">
        <ele>225</ele>
        <time>2025-07-17T08:06:38.071Z</time>
      </trkpt>
      <trkpt lat="44.4005" lon="1.02448">
        <ele>224</ele>
        <time>2025-07-17T08:06:39.071Z</time>
      </trkpt>
      <trkpt lat="44.4005" lon="1.02448">
        <ele>225</ele>
        <time>2025-07-17T08:06:40.071Z</time>
      </trkpt>
      <trkpt lat="44.4005" lon="1.02448">
        <ele>225</ele>
        <time>2025-07-17T08:06:41.071Z</time>
      </trkpt>
      <trkpt lat="44.4005" lon="1.02448">
        <ele>225</ele>
        <time>2025-07-17T08:06:42.072Z</time>
      </trkpt>
      <trkpt lat="44.4005" lon="1.02448">
        <ele>225</ele>
        <time>2025-07-17T08:06:43.071Z</time>
      </trkpt>
      <trkpt lat="44.4005" lon="1.02448">
        <ele>225</ele>
        <time>2025-07-17T08:06:44.071Z</time>
      </trkpt>
      <trkpt lat="44.4005" lon="1.02449">
        <ele>226</ele>
        <time>2025-07-17T08:06:45.071Z</time>
      </trkpt>
      <trkpt lat="44.40049" lon="1.02449">
        <ele>226</ele>
        <time>2025-07-17T08:06:46.071Z</time>
      </trkpt>
      <trkpt lat="44.40049" lon="1.02449">
        <ele>226</ele>
        <time>2025-07-17T08:06:47.071Z</time>
      </trkpt>
      <trkpt lat="44.40049" lon="1.02448">
        <ele>226</ele>
        <time>2025-07-17T08:06:48.071Z</time>
      </trkpt>
      <trkpt lat="44.40049" lon="1.02447">
        <ele>226</ele>
        <time>2025-07-17T08:06:49.071Z</time>
      </trkpt>
      <trkpt lat="44.40049" lon="1.02447">
        <ele>226</ele>
        <time>2025-07-17T08:06:50.071Z</time>
      </trkpt>
      <trkpt lat="44.4005" lon="1.02447">
        <ele>227</ele>
        <time>2025-07-17T08:06:51.071Z</time>
      </trkpt>
      <trkpt lat="44.4005" lon="1.02447">
        <ele>227</ele>
        <time>2025-07-17T08:06:52.071Z</time>
      </trkpt>
      <trkpt lat="44.4005" lon="1.02447">
        <ele>227</ele>
        <time>2025-07-17T08:06:53.071Z</time>
      </trkpt>
      <trkpt lat="44.4005" lon="1.02447">
        <ele>228</ele>
        <time>2025-07-17T08:06:54.072Z</time>
      </trkpt>
      <trkpt lat="44.4005" lon="1.02447">
        <ele>229</ele>
        <time>2025-07-17T08:06:55.071Z</time>
      </trkpt>
      <trkpt lat="44.4005" lon="1.02447">
        <ele>229</ele>
        <time>2025-07-17T08:06:56.071Z</time>
      </trkpt>
      <trkpt lat="44.4005" lon="1.02447">
        <ele>229</ele>
        <time>2025-07-17T08:06:57.072Z</time>
      </trkpt>
      <trkpt lat="44.4005" lon="1.02447">
        <ele>229</ele>
        <time>2025-07-17T08:06:58.071Z</time>
      </trkpt>
      <trkpt lat="44.4005" lon="1.02448">
        <ele>229</ele>
        <time>2025-07-17T08:06:59.071Z</time>
      </trkpt>
      <trkpt lat="44.40051" lon="1.02448">
        <ele>230</ele>
        <time>2025-07-17T08:07:00.072Z</time>
      </trkpt>
      <trkpt lat="44.40051" lon="1.02448">
        <ele>230</ele>
        <time>2025-07-17T08:07:01.072Z</time>
      </trkpt>
      <trkpt lat="44.40051" lon="1.02448">
        <ele>230</ele>
        <time>2025-07-17T08:07:02.071Z</time>
      </trkpt>
      <trkpt lat="44.40051" lon="1.02448">
        <ele>230</ele>
        <time>2025-07-17T08:07:03.072Z</time>
      </trkpt>
      <trkpt lat="44.40051" lon="1.02448">
        <ele>230</ele>
        <time>2025-07-17T08:07:04.071Z</time>
      </trkpt>
      <trkpt lat="44.40051" lon="1.02448">
        <ele>230</ele>
        <time>2025-07-17T08:07:05.071Z</time>
      </trkpt>
      <trkpt lat="44.40051" lon="1.02448">
        <ele>230</ele>
        <time>2025-07-17T08:07:06.071Z</time>
      </trkpt>
      <trkpt lat="44.40051" lon="1.02447">
        <ele>231</ele>
        <time>2025-07-17T08:07:07.072Z</time>
      </trkpt>
      <trkpt lat="44.40051" lon="1.02447">
        <ele>231</ele>
        <time>2025-07-17T08:07:08.071Z</time>
      </trkpt>
      <trkpt lat="44.40051" lon="1.02447">
        <ele>230</ele>
        <time>2025-07-17T08:07:09.071Z</time>
      </trkpt>
      <trkpt lat="44.40051" lon="1.02447">
        <ele>230</ele>
        <time>2025-07-17T08:07:10.071Z</time>
      </trkpt>
      <trkpt lat="44.40051" lon="1.02447">
        <ele>230</ele>
        <time>2025-07-17T08:07:11.071Z</time>
      </trkpt>
      <trkpt lat="44.40051" lon="1.02447">
        <ele>230</ele>
        <time>2025-07-17T08:07:12.071Z</time>
      </trkpt>
      <trkpt lat="44.40051" lon="1.02447">
        <ele>230</ele>
        <time>2025-07-17T08:07:13.071Z</time>
      </trkpt>
      <trkpt lat="44.40051" lon="1.02447">
        <ele>230</ele>
        <time>2025-07-17T08:07:14.071Z</time>
      </trkpt>
      <trkpt lat="44.40051" lon="1.02447">
        <ele>230</ele>
        <time>2025-07-17T08:07:15.071Z</time>
      </trkpt>
      <trkpt lat="44.40051" lon="1.02448">
        <ele>230</ele>
        <time>2025-07-17T08:07:16.072Z</time>
      </trkpt>
      <trkpt lat="44.40051" lon="1.02448">
        <ele>230</ele>
        <time>2025-07-17T08:07:17.071Z</time>
      </trkpt>
      <trkpt lat="44.40052" lon="1.02448">
        <ele>231</ele>
        <time>2025-07-17T08:07:18.071Z</time>
      </trkpt>
      <trkpt lat="44.40052" lon="1.02448">
        <ele>232</ele>
        <time>2025-07-17T08:07:19.072Z</time>
      </trkpt>
      <trkpt lat="44.40052" lon="1.02448">
        <ele>232</ele>
        <time>2025-07-17T08:07:20.071Z</time>
      </trkpt>
      <trkpt lat="44.40051" lon="1.02448">
        <ele>233</ele>
        <time>2025-07-17T08:07:21.071Z</time>
      </trkpt>
      <trkpt lat="44.40052" lon="1.02448">
        <ele>233</ele>
        <time>2025-07-17T08:07:22.071Z</time>
      </trkpt>
      <trkpt lat="44.40052" lon="1.02448">
        <ele>233</ele>
        <time>2025-07-17T08:07:23.071Z</time>
      </trkpt>
      <trkpt lat="44.40052" lon="1.02448">
        <ele>234</ele>
        <time>2025-07-17T08:07:24.072Z</time>
      </trkpt>
      <trkpt lat="44.40052" lon="1.02448">
        <ele>234</ele>
        <time>2025-07-17T08:07:25.072Z</time>
      </trkpt>
      <trkpt lat="44.40052" lon="1.02448">
        <ele>234</ele>
        <time>2025-07-17T08:07:26.071Z</time>
      </trkpt>
      <trkpt lat="44.40052" lon="1.02448">
        <ele>235</ele>
        <time>2025-07-17T08:07:27.072Z</time>
      </trkpt>
      <trkpt lat="44.40052" lon="1.02448">
        <ele>236</ele>
        <time>2025-07-17T08:07:28.072Z</time>
      </trkpt>
      <trkpt lat="44.40052" lon="1.02448">
        <ele>236</ele>
        <time>2025-07-17T08:07:29.071Z</time>
      </trkpt>
      <trkpt lat="44.40051" lon="1.02448">
        <ele>237</ele>
        <time>2025-07-17T08:07:30.072Z</time>
      </trkpt>
      <trkpt lat="44.40051" lon="1.02448">
        <ele>237</ele>
        <time>2025-07-17T08:07:31.072Z</time>
      </trkpt>
      <trkpt lat="44.40051" lon="1.02448">
        <ele>237</ele>
        <time>2025-07-17T08:07:32.071Z</time>
      </trkpt>
      <trkpt lat="44.40051" lon="1.02448">
        <ele>238</ele>
        <time>2025-07-17T08:07:33.072Z</time>
      </trkpt>
      <trkpt lat="44.40051" lon="1.02448">
        <ele>238</ele>
        <time>2025-07-17T08:07:34.071Z</time>
      </trkpt>
      <trkpt lat="44.40051" lon="1.02448">
        <ele>238</ele>
        <time>2025-07-17T08:07:35.071Z</time>
      </trkpt>
      <trkpt lat="44.40051" lon="1.02448">
        <ele>237</ele>
        <time>2025-07-17T08:07:36.071Z</time>
      </trkpt>
      <trkpt lat="44.40052" lon="1.02449">
        <ele>237</ele>
        <time>2025-07-17T08:07:37.071Z</time>
      </trkpt>
      <trkpt lat="44.40052" lon="1.0245">
        <ele>236</ele>
        <time>2025-07-17T08:07:38.071Z</time>
      </trkpt>
      <trkpt lat="44.40051" lon="1.02451">
        <ele>236</ele>
        <time>2025-07-17T08:07:39.072Z</time>
      </trkpt>
      <trkpt lat="44.40051" lon="1.02451">
        <ele>235</ele>
        <time>2025-07-17T08:07:40.071Z</time>
      </trkpt>
      <trkpt lat="44.40051" lon="1.02451">
        <ele>234</ele>
        <time>2025-07-17T08:07:41.071Z</time>
      </trkpt>
      <trkpt lat="44.40051" lon="1.02451">
        <ele>234</ele>
        <time>2025-07-17T08:07:42.071Z</time>
      </trkpt>
      <trkpt lat="44.4005" lon="1.02452">
        <ele>233</ele>
        <time>2025-07-17T08:07:43.071Z</time>
      </trkpt>
      <trkpt lat="44.40049" lon="1.02452">
        <ele>232</ele>
        <time>2025-07-17T08:07:44.071Z</time>
      </trkpt>
      <trkpt lat="44.40048" lon="1.02452">
        <ele>232</ele>
        <time>2025-07-17T08:07:45.071Z</time>
      </trkpt>
      <trkpt lat="44.40047" lon="1.02453">
        <ele>231</ele>
        <time>2025-07-17T08:07:46.071Z</time>
      </trkpt>
      <trkpt lat="44.40047" lon="1.02453">
        <ele>231</ele>
        <time>2025-07-17T08:07:47.071Z</time>
      </trkpt>
      <trkpt lat="44.40046" lon="1.02454">
        <ele>230</ele>
        <time>2025-07-17T08:07:48.072Z</time>
      </trkpt>
      <trkpt lat="44.40045" lon="1.02455">
        <ele>230</ele>
        <time>2025-07-17T08:07:49.071Z</time>
      </trkpt>
      <trkpt lat="44.40045" lon="1.02455">
        <ele>230</ele>
        <time>2025-07-17T08:07:50.071Z</time>
      </trkpt>
      <trkpt lat="44.40044" lon="1.02457">
        <ele>230</ele>
        <time>2025-07-17T08:07:51.071Z</time>
      </trkpt>
      <trkpt lat="44.40044" lon="1.02458">
        <ele>230</ele>
        <time>2025-07-17T08:07:52.071Z</time>
      </trkpt>
      <trkpt lat="44.40044" lon="1.02458">
        <ele>230</ele>
        <time>2025-07-17T08:07:53.072Z</time>
      </trkpt>
      <trkpt lat="44.40044" lon="1.02459">
        <ele>230</ele>
        <time>2025-07-17T08:07:54.071Z</time>
      </trkpt>
      <trkpt lat="44.40044" lon="1.02458">
        <ele>229</ele>
        <time>2025-07-17T08:07:55.071Z</time>
      </trkpt>
      <trkpt lat="44.40044" lon="1.02458">
        <ele>229</ele>
        <time>2025-07-17T08:07:56.071Z</time>
      </trkpt>
      <trkpt lat="44.40043" lon="1.02459">
        <ele>229</ele>
        <time>2025-07-17T08:07:57.071Z</time>
      </trkpt>
      <trkpt lat="44.40042" lon="1.02459">
        <ele>229</ele>
        <time>2025-07-17T08:07:58.071Z</time>
      </trkpt>
      <trkpt lat="44.40042" lon="1.02459">
        <ele>229</ele>
        <time>2025-07-17T08:07:59.071Z</time>
      </trkpt>
      <trkpt lat="44.4004" lon="1.0246">
        <ele>228</ele>
        <time>2025-07-17T08:08:00.071Z</time>
      </trkpt>
      <trkpt lat="44.4004" lon="1.02461">
        <ele>228</ele>
        <time>2025-07-17T08:08:01.071Z</time>
      </trkpt>
      <trkpt lat="44.40038" lon="1.02462">
        <ele>228</ele>
        <time>2025-07-17T08:08:02.071Z</time>
      </trkpt>
      <trkpt lat="44.40037" lon="1.02462">
        <ele>229</ele>
        <time>2025-07-17T08:08:03.071Z</time>
      </trkpt>
      <trkpt lat="44.40036" lon="1.02462">
        <ele>229</ele>
        <time>2025-07-17T08:08:04.071Z</time>
      </trkpt>
      <trkpt lat="44.40036" lon="1.02462">
        <ele>229</ele>
        <time>2025-07-17T08:08:05.071Z</time>
      </trkpt>
      <trkpt lat="44.40035" lon="1.02463">
        <ele>229</ele>
        <time>2025-07-17T08:08:06.071Z</time>
      </trkpt>
      <trkpt lat="44.40034" lon="1.02463">
        <ele>230</ele>
        <time>2025-07-17T08:08:07.071Z</time>
      </trkpt>
      <trkpt lat="44.40034" lon="1.02463">
        <ele>230</ele>
        <time>2025-07-17T08:08:08.071Z</time>
      </trkpt>
      <trkpt lat="44.40033" lon="1.02463">
        <ele>230</ele>
        <time>2025-07-17T08:08:09.071Z</time>
      </trkpt>
      <trkpt lat="44.40032" lon="1.02464">
        <ele>230</ele>
        <time>2025-07-17T08:08:10.071Z</time>
      </trkpt>
      <trkpt lat="44.40031" lon="1.02464">
        <ele>230</ele>
        <time>2025-07-17T08:08:11.071Z</time>
      </trkpt>
      <trkpt lat="44.4003" lon="1.02465">
        <ele>230</ele>
        <time>2025-07-17T08:08:12.072Z</time>
      </trkpt>
      <trkpt lat="44.4003" lon="1.02466">
        <ele>230</ele>
        <time>2025-07-17T08:08:13.071Z</time>
      </trkpt>
      <trkpt lat="44.4003" lon="1.02466">
        <ele>230</ele>
        <time>2025-07-17T08:08:14.071Z</time>
      </trkpt>
      <trkpt lat="44.40029" lon="1.02467">
        <ele>230</ele>
        <time>2025-07-17T08:08:15.072Z</time>
      </trkpt>
      <trkpt lat="44.40028" lon="1.02468">
        <ele>230</ele>
        <time>2025-07-17T08:08:16.071Z</time>
      </trkpt>
      <trkpt lat="44.40028" lon="1.02468">
        <ele>230</ele>
        <time>2025-07-17T08:08:17.071Z</time>
      </trkpt>
      <trkpt lat="44.40026" lon="1.02469">
        <ele>230</ele>
        <time>2025-07-17T08:08:18.071Z</time>
      </trkpt>
      <trkpt lat="44.40025" lon="1.0247">
        <ele>231</ele>
        <time>2025-07-17T08:08:19.071Z</time>
      </trkpt>
      <trkpt lat="44.40025" lon="1.0247">
        <ele>231</ele>
        <time>2025-07-17T08:08:20.071Z</time>
      </trkpt>
      <trkpt lat="44.40025" lon="1.0247">
        <ele>231</ele>
        <time>2025-07-17T08:08:21.071Z</time>
      </trkpt>
      <trkpt lat="44.40025" lon="1.02471">
        <ele>231</ele>
        <time>2025-07-17T08:08:22.071Z</time>
      </trkpt>
      <trkpt lat="44.40025" lon="1.02471">
        <ele>231</ele>
        <time>2025-07-17T08:08:23.071Z</time>
      </trkpt>
      <trkpt lat="44.40024" lon="1.02471">
        <ele>232</ele>
        <time>2025-07-17T08:08:24.071Z</time>
      </trkpt>
      <trkpt lat="44.40021" lon="1.02472">
        <ele>232</ele>
        <time>2025-07-17T08:08:25.071Z</time>
      </trkpt>
      <trkpt lat="44.40021" lon="1.02473">
        <ele>232</ele>
        <time>2025-07-17T08:08:26.071Z</time>
      </trkpt>
      <trkpt lat="44.40021" lon="1.02474">
        <ele>233</ele>
        <time>2025-07-17T08:08:27.071Z</time>
      </trkpt>
      <trkpt lat="44.40019" lon="1.02474">
        <ele>233</ele>
        <time>2025-07-17T08:08:28.071Z</time>
      </trkpt>
      <trkpt lat="44.40019" lon="1.02474">
        <ele>233</ele>
        <time>2025-07-17T08:08:29.071Z</time>
      </trkpt>
      <trkpt lat="44.40017" lon="1.02478">
        <ele>234</ele>
        <time>2025-07-17T08:08:30.071Z</time>
      </trkpt>
      <trkpt lat="44.40016" lon="1.02479">
        <ele>234</ele>
        <time>2025-07-17T08:08:31.071Z</time>
      </trkpt>
      <trkpt lat="44.40014" lon="1.02479">
        <ele>235</ele>
        <time>2025-07-17T08:08:32.071Z</time>
      </trkpt>
      <trkpt lat="44.40014" lon="1.02479">
        <ele>235</ele>
        <time>2025-07-17T08:08:33.071Z</time>
      </trkpt>
      <trkpt lat="44.40013" lon="1.02481">
        <ele>235</ele>
        <time>2025-07-17T08:08:34.071Z</time>
      </trkpt>
      <trkpt lat="44.40013" lon="1.02481">
        <ele>235</ele>
        <time>2025-07-17T08:08:35.071Z</time>
      </trkpt>
      <trkpt lat="44.40012" lon="1.0248">
        <ele>236</ele>
        <time>2025-07-17T08:08:36.071Z</time>
      </trkpt>
      <trkpt lat="44.40012" lon="1.0248">
        <ele>236</ele>
        <time>2025-07-17T08:08:37.071Z</time>
      </trkpt>
      <trkpt lat="44.40012" lon="1.0248">
        <ele>236</ele>
        <time>2025-07-17T08:08:38.071Z</time>
      </trkpt>
      <trkpt lat="44.40011" lon="1.02481">
        <ele>236</ele>
        <time>2025-07-17T08:08:39.071Z</time>
      </trkpt>
      <trkpt lat="44.40011" lon="1.02481">
        <ele>235</ele>
        <time>2025-07-17T08:08:40.071Z</time>
      </trkpt>
      <trkpt lat="44.40011" lon="1.02481">
        <ele>235</ele>
        <time>2025-07-17T08:08:41.071Z</time>
      </trkpt>
      <trkpt lat="44.40011" lon="1.02481">
        <ele>235</ele>
        <time>2025-07-17T08:08:42.071Z</time>
      </trkpt>
      <trkpt lat="44.40012" lon="1.02481">
        <ele>235</ele>
        <time>2025-07-17T08:08:43.071Z</time>
      </trkpt>
      <trkpt lat="44.40012" lon="1.02481">
        <ele>235</ele>
        <time>2025-07-17T08:08:44.071Z</time>
      </trkpt>
      <trkpt lat="44.40011" lon="1.02482">
        <ele>234</ele>
        <time>2025-07-17T08:08:45.071Z</time>
      </trkpt>
      <trkpt lat="44.4001" lon="1.02482">
        <ele>235</ele>
        <time>2025-07-17T08:08:46.071Z</time>
      </trkpt>
      <trkpt lat="44.4001" lon="1.02482">
        <ele>235</ele>
        <time>2025-07-17T08:08:47.071Z</time>
      </trkpt>
      <trkpt lat="44.40008" lon="1.02483">
        <ele>235</ele>
        <time>2025-07-17T08:08:48.071Z</time>
      </trkpt>
      <trkpt lat="44.40007" lon="1.02483">
        <ele>236</ele>
        <time>2025-07-17T08:08:49.071Z</time>
      </trkpt>
      <trkpt lat="44.40006" lon="1.02484">
        <ele>236</ele>
        <time>2025-07-17T08:08:50.071Z</time>
      </trkpt>
      <trkpt lat="44.40005" lon="1.02484">
        <ele>236</ele>
        <time>2025-07-17T08:08:51.072Z</time>
      </trkpt>
      <trkpt lat="44.40005" lon="1.02484">
        <ele>236</ele>
        <time>2025-07-17T08:08:52.071Z</time>
      </trkpt>
      <trkpt lat="44.40004" lon="1.02485">
        <ele>236</ele>
        <time>2025-07-17T08:08:53.071Z</time>
      </trkpt>
      <trkpt lat="44.40004" lon="1.02485">
        <ele>236</ele>
        <time>2025-07-17T08:08:54.072Z</time>
      </trkpt>
      <trkpt lat="44.40001" lon="1.02486">
        <ele>237</ele>
        <time>2025-07-17T08:08:55.071Z</time>
      </trkpt>
      <trkpt lat="44.40001" lon="1.02486">
        <ele>237</ele>
        <time>2025-07-17T08:08:56.071Z</time>
      </trkpt>
      <trkpt lat="44.39999" lon="1.02487">
        <ele>237</ele>
        <time>2025-07-17T08:08:57.071Z</time>
      </trkpt>
      <trkpt lat="44.39998" lon="1.02488">
        <ele>237</ele>
        <time>2025-07-17T08:08:58.071Z</time>
      </trkpt>
      <trkpt lat="44.39998" lon="1.02488">
        <ele>237</ele>
        <time>2025-07-17T08:08:59.071Z</time>
      </trkpt>
      <trkpt lat="44.39996" lon="1.02489">
        <ele>238</ele>
        <time>2025-07-17T08:09:00.071Z</time>
      </trkpt>
      <trkpt lat="44.39995" lon="1.0249">
        <ele>238</ele>
        <time>2025-07-17T08:09:01.071Z</time>
      </trkpt>
      <trkpt lat="44.39995" lon="1.0249">
        <ele>238</ele>
        <time>2025-07-17T08:09:02.071Z</time>
      </trkpt>
      <trkpt lat="44.39993" lon="1.02491">
        <ele>238</ele>
        <time>2025-07-17T08:09:03.072Z</time>
      </trkpt>
      <trkpt lat="44.39992" lon="1.02492">
        <ele>238</ele>
        <time>2025-07-17T08:09:04.071Z</time>
      </trkpt>
      <trkpt lat="44.39991" lon="1.02492">
        <ele>238</ele>
        <time>2025-07-17T08:09:05.071Z</time>
      </trkpt>
      <trkpt lat="44.3999" lon="1.02493">
        <ele>238</ele>
        <time>2025-07-17T08:09:06.071Z</time>
      </trkpt>
      <trkpt lat="44.39989" lon="1.02494">
        <ele>238</ele>
        <time>2025-07-17T08:09:07.071Z</time>
      </trkpt>
      <trkpt lat="44.39987" lon="1.02495">
        <ele>238</ele>
        <time>2025-07-17T08:09:08.071Z</time>
      </trkpt>
      <trkpt lat="44.39986" lon="1.02496">
        <ele>238</ele>
        <time>2025-07-17T08:09:09.071Z</time>
      </trkpt>
      <trkpt lat="44.39985" lon="1.02496">
        <ele>238</ele>
        <time>2025-07-17T08:09:10.071Z</time>
      </trkpt>
      <trkpt lat="44.39984" lon="1.02497">
        <ele>238</ele>
        <time>2025-07-17T08:09:11.071Z</time>
      </trkpt>
      <trkpt lat="44.39983" lon="1.02497">
        <ele>238</ele>
        <time>2025-07-17T08:09:12.071Z</time>
      </trkpt>
      <trkpt lat="44.39982" lon="1.02498">
        <ele>239</ele>
        <time>2025-07-17T08:09:13.071Z</time>
      </trkpt>
      <trkpt lat="44.39981" lon="1.02499">
        <ele>239</ele>
        <time>2025-07-17T08:09:14.071Z</time>
      </trkpt>
      <trkpt lat="44.39981" lon="1.025">
        <ele>239</ele>
        <time>2025-07-17T08:09:15.071Z</time>
      </trkpt>
      <trkpt lat="44.3998" lon="1.02501">
        <ele>239</ele>
        <time>2025-07-17T08:09:16.071Z</time>
      </trkpt>
      <trkpt lat="44.3998" lon="1.02501">
        <ele>239</ele>
        <time>2025-07-17T08:09:17.071Z</time>
      </trkpt>
      <trkpt lat="44.39978" lon="1.02503">
        <ele>238</ele>
        <time>2025-07-17T08:09:18.071Z</time>
      </trkpt>
      <trkpt lat="44.39976" lon="1.02504">
        <ele>238</ele>
        <time>2025-07-17T08:09:19.071Z</time>
      </trkpt>
      <trkpt lat="44.39976" lon="1.02504">
        <ele>238</ele>
        <time>2025-07-17T08:09:20.071Z</time>
      </trkpt>
      <trkpt lat="44.39974" lon="1.02505">
        <ele>238</ele>
        <time>2025-07-17T08:09:21.071Z</time>
      </trkpt>
      <trkpt lat="44.39973" lon="1.02506">
        <ele>238</ele>
        <time>2025-07-17T08:09:22.071Z</time>
      </trkpt>
      <trkpt lat="44.39973" lon="1.02506">
        <ele>238</ele>
        <time>2025-07-17T08:09:23.071Z</time>
      </trkpt>
      <trkpt lat="44.39971" lon="1.02507">
        <ele>238</ele>
        <time>2025-07-17T08:09:24.071Z</time>
      </trkpt>
      <trkpt lat="44.39969" lon="1.02507">
        <ele>238</ele>
        <time>2025-07-17T08:09:25.072Z</time>
      </trkpt>
      <trkpt lat="44.39969" lon="1.02507">
        <ele>238</ele>
        <time>2025-07-17T08:09:26.071Z</time>
      </trkpt>
      <trkpt lat="44.39967" lon="1.02507">
        <ele>238</ele>
        <time>2025-07-17T08:09:27.071Z</time>
      </trkpt>
      <trkpt lat="44.39967" lon="1.02508">
        <ele>238</ele>
        <time>2025-07-17T08:09:28.071Z</time>
      </trkpt>
      <trkpt lat="44.39967" lon="1.02508">
        <ele>238</ele>
        <time>2025-07-17T08:09:29.071Z</time>
      </trkpt>
      <trkpt lat="44.39965" lon="1.02509">
        <ele>238</ele>
        <time>2025-07-17T08:09:30.071Z</time>
      </trkpt>
      <trkpt lat="44.39965" lon="1.02509">
        <ele>238</ele>
        <time>2025-07-17T08:09:31.071Z</time>
      </trkpt>
      <trkpt lat="44.39964" lon="1.0251">
        <ele>238</ele>
        <time>2025-07-17T08:09:32.071Z</time>
      </trkpt>
      <trkpt lat="44.39962" lon="1.02512">
        <ele>239</ele>
        <time>2025-07-17T08:09:33.071Z</time>
      </trkpt>
      <trkpt lat="44.39961" lon="1.02513">
        <ele>239</ele>
        <time>2025-07-17T08:09:34.071Z</time>
      </trkpt>
      <trkpt lat="44.39961" lon="1.02513">
        <ele>239</ele>
        <time>2025-07-17T08:09:35.071Z</time>
      </trkpt>
      <trkpt lat="44.3996" lon="1.02514">
        <ele>239</ele>
        <time>2025-07-17T08:09:36.071Z</time>
      </trkpt>
      <trkpt lat="44.39959" lon="1.02514">
        <ele>239</ele>
        <time>2025-07-17T08:09:37.072Z</time>
      </trkpt>
      <trkpt lat="44.39959" lon="1.02514">
        <ele>239</ele>
        <time>2025-07-17T08:09:38.071Z</time>
      </trkpt>
      <trkpt lat="44.39957" lon="1.02515">
        <ele>239</ele>
        <time>2025-07-17T08:09:39.071Z</time>
      </trkpt>
      <trkpt lat="44.39956" lon="1.02515">
        <ele>239</ele>
        <time>2025-07-17T08:09:40.071Z</time>
      </trkpt>
      <trkpt lat="44.39955" lon="1.02515">
        <ele>239</ele>
        <time>2025-07-17T08:09:41.071Z</time>
      </trkpt>
      <trkpt lat="44.39954" lon="1.02516">
        <ele>239</ele>
        <time>2025-07-17T08:09:42.071Z</time>
      </trkpt>
      <trkpt lat="44.39952" lon="1.02515">
        <ele>239</ele>
        <time>2025-07-17T08:09:43.071Z</time>
      </trkpt>
      <trkpt lat="44.39951" lon="1.02515">
        <ele>240</ele>
        <time>2025-07-17T08:09:44.071Z</time>
      </trkpt>
      <trkpt lat="44.3995" lon="1.02515">
        <ele>240</ele>
        <time>2025-07-17T08:09:45.071Z</time>
      </trkpt>
      <trkpt lat="44.39949" lon="1.02515">
        <ele>240</ele>
        <time>2025-07-17T08:09:46.071Z</time>
      </trkpt>
      <trkpt lat="44.39949" lon="1.02515">
        <ele>240</ele>
        <time>2025-07-17T08:09:47.071Z</time>
      </trkpt>
      <trkpt lat="44.39946" lon="1.02515">
        <ele>240</ele>
        <time>2025-07-17T08:09:48.071Z</time>
      </trkpt>
      <trkpt lat="44.39945" lon="1.02515">
        <ele>240</ele>
        <time>2025-07-17T08:09:49.072Z</time>
      </trkpt>
      <trkpt lat="44.39944" lon="1.02515">
        <ele>239</ele>
        <time>2025-07-17T08:09:50.071Z</time>
      </trkpt>
      <trkpt lat="44.39943" lon="1.02515">
        <ele>239</ele>
        <time>2025-07-17T08:09:51.072Z</time>
      </trkpt>
      <trkpt lat="44.39943" lon="1.02514">
        <ele>238</ele>
        <time>2025-07-17T08:09:52.071Z</time>
      </trkpt>
      <trkpt lat="44.39941" lon="1.02513">
        <ele>238</ele>
        <time>2025-07-17T08:09:53.071Z</time>
      </trkpt>
      <trkpt lat="44.39941" lon="1.02513">
        <ele>238</ele>
        <time>2025-07-17T08:09:54.071Z</time>
      </trkpt>
      <trkpt lat="44.39941" lon="1.02512">
        <ele>238</ele>
        <time>2025-07-17T08:09:55.072Z</time>
      </trkpt>
      <trkpt lat="44.39941" lon="1.02512">
        <ele>238</ele>
        <time>2025-07-17T08:09:56.071Z</time>
      </trkpt>
      <trkpt lat="44.3994" lon="1.02513">
        <ele>238</ele>
        <time>2025-07-17T08:09:57.071Z</time>
      </trkpt>
      <trkpt lat="44.3994" lon="1.02513">
        <ele>237</ele>
        <time>2025-07-17T08:09:58.071Z</time>
      </trkpt>
      <trkpt lat="44.39939" lon="1.02512">
        <ele>237</ele>
        <time>2025-07-17T08:09:59.071Z</time>
      </trkpt>
      <trkpt lat="44.39938" lon="1.02512">
        <ele>237</ele>
        <time>2025-07-17T08:10:00.072Z</time>
      </trkpt>
      <trkpt lat="44.39937" lon="1.02511">
        <ele>237</ele>
        <time>2025-07-17T08:10:01.072Z</time>
      </trkpt>
      <trkpt lat="44.39937" lon="1.02511">
        <ele>237</ele>
        <time>2025-07-17T08:10:02.071Z</time>
      </trkpt>
      <trkpt lat="44.39936" lon="1.0251">
        <ele>236</ele>
        <time>2025-07-17T08:10:03.071Z</time>
      </trkpt>
      <trkpt lat="44.39936" lon="1.02509">
        <ele>236</ele>
        <time>2025-07-17T08:10:04.071Z</time>
      </trkpt>
      <trkpt lat="44.39936" lon="1.02509">
        <ele>236</ele>
        <time>2025-07-17T08:10:05.071Z</time>
      </trkpt>
      <trkpt lat="44.39935" lon="1.02507">
        <ele>236</ele>
        <time>2025-07-17T08:10:06.071Z</time>
      </trkpt>
      <trkpt lat="44.39934" lon="1.02506">
        <ele>235</ele>
        <time>2025-07-17T08:10:07.071Z</time>
      </trkpt>
      <trkpt lat="44.39933" lon="1.02505">
        <ele>235</ele>
        <time>2025-07-17T08:10:08.071Z</time>
      </trkpt>
      <trkpt lat="44.39933" lon="1.02502">
        <ele>234</ele>
        <time>2025-07-17T08:10:09.071Z</time>
      </trkpt>
      <trkpt lat="44.39933" lon="1.02502">
        <ele>234</ele>
        <time>2025-07-17T08:10:10.071Z</time>
      </trkpt>
      <trkpt lat="44.39933" lon="1.025">
        <ele>234</ele>
        <time>2025-07-17T08:10:11.071Z</time>
      </trkpt>
      <trkpt lat="44.39933" lon="1.02497">
        <ele>233</ele>
        <time>2025-07-17T08:10:12.071Z</time>
      </trkpt>
      <trkpt lat="44.39933" lon="1.02495">
        <ele>232</ele>
        <time>2025-07-17T08:10:13.071Z</time>
      </trkpt>
      <trkpt lat="44.39933" lon="1.02495">
        <ele>232</ele>
        <time>2025-07-17T08:10:14.072Z</time>
      </trkpt>
      <trkpt lat="44.39933" lon="1.02494">
        <ele>232</ele>
        <time>2025-07-17T08:10:15.071Z</time>
      </trkpt>
      <trkpt lat="44.39933" lon="1.02493">
        <ele>232</ele>
        <time>2025-07-17T08:10:16.071Z</time>
      </trkpt>
      <trkpt lat="44.39933" lon="1.02493">
        <ele>232</ele>
        <time>2025-07-17T08:10:17.071Z</time>
      </trkpt>
      <trkpt lat="44.39932" lon="1.0249">
        <ele>232</ele>
        <time>2025-07-17T08:10:18.071Z</time>
      </trkpt>
      <trkpt lat="44.39931" lon="1.02489">
        <ele>233</ele>
        <time>2025-07-17T08:10:19.072Z</time>
      </trkpt>
      <trkpt lat="44.3993" lon="1.02489">
        <ele>233</ele>
        <time>2025-07-17T08:10:20.071Z</time>
      </trkpt>
      <trkpt lat="44.39929" lon="1.02488">
        <ele>233</ele>
        <time>2025-07-17T08:10:21.071Z</time>
      </trkpt>
      <trkpt lat="44.39927" lon="1.02488">
        <ele>233</ele>
        <time>2025-07-17T08:10:22.071Z</time>
      </trkpt>
      <trkpt lat="44.39927" lon="1.02488">
        <ele>233</ele>
        <time>2025-07-17T08:10:23.071Z</time>
      </trkpt>
      <trkpt lat="44.39924" lon="1.02489">
        <ele>234</ele>
        <time>2025-07-17T08:10:24.071Z</time>
      </trkpt>
      <trkpt lat="44.39922" lon="1.02488">
        <ele>235</ele>
        <time>2025-07-17T08:10:25.071Z</time>
      </trkpt>
      <trkpt lat="44.39922" lon="1.02488">
        <ele>235</ele>
        <time>2025-07-17T08:10:26.071Z</time>
      </trkpt>
      <trkpt lat="44.39918" lon="1.02487">
        <ele>236</ele>
        <time>2025-07-17T08:10:27.071Z</time>
      </trkpt>
      <trkpt lat="44.39917" lon="1.02488">
        <ele>237</ele>
        <time>2025-07-17T08:10:28.071Z</time>
      </trkpt>
      <trkpt lat="44.39917" lon="1.02487">
        <ele>237</ele>
        <time>2025-07-17T08:10:29.071Z</time>
      </trkpt>
      <trkpt lat="44.39916" lon="1.02488">
        <ele>238</ele>
        <time>2025-07-17T08:10:30.071Z</time>
      </trkpt>
      <trkpt lat="44.39916" lon="1.0249">
        <ele>238</ele>
        <time>2025-07-17T08:10:31.071Z</time>
      </trkpt>
      <trkpt lat="44.39915" lon="1.0249">
        <ele>239</ele>
        <time>2025-07-17T08:10:32.071Z</time>
      </trkpt>
      <trkpt lat="44.39914" lon="1.02491">
        <ele>240</ele>
        <time>2025-07-17T08:10:33.071Z</time>
      </trkpt>
      <trkpt lat="44.39913" lon="1.02491">
        <ele>240</ele>
        <time>2025-07-17T08:10:34.071Z</time>
      </trkpt>
      <trkpt lat="44.39913" lon="1.02491">
        <ele>240</ele>
        <time>2025-07-17T08:10:35.071Z</time>
      </trkpt>
      <trkpt lat="44.39912" lon="1.02492">
        <ele>241</ele>
        <time>2025-07-17T08:10:36.071Z</time>
      </trkpt>
      <trkpt lat="44.3991" lon="1.02492">
        <ele>241</ele>
        <time>2025-07-17T08:10:37.071Z</time>
      </trkpt>
      <trkpt lat="44.3991" lon="1.02492">
        <ele>241</ele>
        <time>2025-07-17T08:10:38.071Z</time>
      </trkpt>
      <trkpt lat="44.39909" lon="1.02492">
        <ele>241</ele>
        <time>2025-07-17T08:10:39.072Z</time>
      </trkpt>
      <trkpt lat="44.39908" lon="1.02492">
        <ele>241</ele>
        <time>2025-07-17T08:10:40.071Z</time>
      </trkpt>
      <trkpt lat="44.39908" lon="1.02492">
        <ele>241</ele>
        <time>2025-07-17T08:10:41.071Z</time>
      </trkpt>
      <trkpt lat="44.39907" lon="1.02494">
        <ele>241</ele>
        <time>2025-07-17T08:10:42.071Z</time>
      </trkpt>
      <trkpt lat="44.39906" lon="1.02495">
        <ele>242</ele>
        <time>2025-07-17T08:10:43.071Z</time>
      </trkpt>
      <trkpt lat="44.39906" lon="1.02495">
        <ele>242</ele>
        <time>2025-07-17T08:10:44.071Z</time>
      </trkpt>
      <trkpt lat="44.39904" lon="1.02496">
        <ele>242</ele>
        <time>2025-07-17T08:10:45.071Z</time>
      </trkpt>
      <trkpt lat="44.39902" lon="1.02496">
        <ele>242</ele>
        <time>2025-07-17T08:10:46.071Z</time>
      </trkpt>
      <trkpt lat="44.39901" lon="1.02496">
        <ele>242</ele>
        <time>2025-07-17T08:10:47.071Z</time>
      </trkpt>
      <trkpt lat="44.399" lon="1.02496">
        <ele>242</ele>
        <time>2025-07-17T08:10:48.071Z</time>
      </trkpt>
      <trkpt lat="44.399" lon="1.02496">
        <ele>242</ele>
        <time>2025-07-17T08:10:49.071Z</time>
      </trkpt>
      <trkpt lat="44.399" lon="1.02496">
        <ele>242</ele>
        <time>2025-07-17T08:10:50.072Z</time>
      </trkpt>
      <trkpt lat="44.39899" lon="1.02497">
        <ele>242</ele>
        <time>2025-07-17T08:10:51.072Z</time>
      </trkpt>
      <trkpt lat="44.39898" lon="1.025">
        <ele>242</ele>
        <time>2025-07-17T08:10:52.071Z</time>
      </trkpt>
      <trkpt lat="44.39898" lon="1.025">
        <ele>242</ele>
        <time>2025-07-17T08:10:53.071Z</time>
      </trkpt>
      <trkpt lat="44.39896" lon="1.02502">
        <ele>242</ele>
        <time>2025-07-17T08:10:54.071Z</time>
      </trkpt>
      <trkpt lat="44.39896" lon="1.02503">
        <ele>242</ele>
        <time>2025-07-17T08:10:55.071Z</time>
      </trkpt>
      <trkpt lat="44.39896" lon="1.02503">
        <ele>242</ele>
        <time>2025-07-17T08:10:56.071Z</time>
      </trkpt>
      <trkpt lat="44.39894" lon="1.02505">
        <ele>241</ele>
        <time>2025-07-17T08:10:57.071Z</time>
      </trkpt>
      <trkpt lat="44.39893" lon="1.02507">
        <ele>241</ele>
        <time>2025-07-17T08:10:58.071Z</time>
      </trkpt>
      <trkpt lat="44.39893" lon="1.02507">
        <ele>241</ele>
        <time>2025-07-17T08:10:59.071Z</time>
      </trkpt>
      <trkpt lat="44.39891" lon="1.02508">
        <ele>241</ele>
        <time>2025-07-17T08:11:00.071Z</time>
      </trkpt>
      <trkpt lat="44.39889" lon="1.02508">
        <ele>241</ele>
        <time>2025-07-17T08:11:01.071Z</time>
      </trkpt>
      <trkpt lat="44.39889" lon="1.02508">
        <ele>241</ele>
        <time>2025-07-17T08:11:02.072Z</time>
      </trkpt>
      <trkpt lat="44.39887" lon="1.02509">
        <ele>241</ele>
        <time>2025-07-17T08:11:03.071Z</time>
      </trkpt>
      <trkpt lat="44.39885" lon="1.02509">
        <ele>241</ele>
        <time>2025-07-17T08:11:04.071Z</time>
      </trkpt>
      <trkpt lat="44.39885" lon="1.02509">
        <ele>241</ele>
        <time>2025-07-17T08:11:05.071Z</time>
      </trkpt>
      <trkpt lat="44.39883" lon="1.02511">
        <ele>241</ele>
        <time>2025-07-17T08:11:06.071Z</time>
      </trkpt>
      <trkpt lat="44.39883" lon="1.02511">
        <ele>241</ele>
        <time>2025-07-17T08:11:07.071Z</time>
      </trkpt>
      <trkpt lat="44.39882" lon="1.02511">
        <ele>241</ele>
        <time>2025-07-17T08:11:08.071Z</time>
      </trkpt>
      <trkpt lat="44.3988" lon="1.02511">
        <ele>241</ele>
        <time>2025-07-17T08:11:09.071Z</time>
      </trkpt>
      <trkpt lat="44.39879" lon="1.02511">
        <ele>242</ele>
        <time>2025-07-17T08:11:10.071Z</time>
      </trkpt>
      <trkpt lat="44.39879" lon="1.02511">
        <ele>242</ele>
        <time>2025-07-17T08:11:11.071Z</time>
      </trkpt>
      <trkpt lat="44.39876" lon="1.02513">
        <ele>242</ele>
        <time>2025-07-17T08:11:12.071Z</time>
      </trkpt>
      <trkpt lat="44.39875" lon="1.02513">
        <ele>243</ele>
        <time>2025-07-17T08:11:13.071Z</time>
      </trkpt>
      <trkpt lat="44.39875" lon="1.02513">
        <ele>243</ele>
        <time>2025-07-17T08:11:14.071Z</time>
      </trkpt>
      <trkpt lat="44.39872" lon="1.02513">
        <ele>243</ele>
        <time>2025-07-17T08:11:15.071Z</time>
      </trkpt>
      <trkpt lat="44.39871" lon="1.02513">
        <ele>243</ele>
        <time>2025-07-17T08:11:16.071Z</time>
      </trkpt>
      <trkpt lat="44.39871" lon="1.02513">
        <ele>243</ele>
        <time>2025-07-17T08:11:17.071Z</time>
      </trkpt>
      <trkpt lat="44.39869" lon="1.02514">
        <ele>243</ele>
        <time>2025-07-17T08:11:18.071Z</time>
      </trkpt>
      <trkpt lat="44.39868" lon="1.02514">
        <ele>243</ele>
        <time>2025-07-17T08:11:19.071Z</time>
      </trkpt>
      <trkpt lat="44.39868" lon="1.02514">
        <ele>243</ele>
        <time>2025-07-17T08:11:20.071Z</time>
      </trkpt>
      <trkpt lat="44.39866" lon="1.02515">
        <ele>243</ele>
        <time>2025-07-17T08:11:21.071Z</time>
      </trkpt>
      <trkpt lat="44.39865" lon="1.02515">
        <ele>243</ele>
        <time>2025-07-17T08:11:22.071Z</time>
      </trkpt>
      <trkpt lat="44.39865" lon="1.02515">
        <ele>243</ele>
        <time>2025-07-17T08:11:23.071Z</time>
      </trkpt>
      <trkpt lat="44.39863" lon="1.02515">
        <ele>243</ele>
        <time>2025-07-17T08:11:24.071Z</time>
      </trkpt>
      <trkpt lat="44.39862" lon="1.02515">
        <ele>243</ele>
        <time>2025-07-17T08:11:25.071Z</time>
      </trkpt>
      <trkpt lat="44.39862" lon="1.02515">
        <ele>243</ele>
        <time>2025-07-17T08:11:26.071Z</time>
      </trkpt>
      <trkpt lat="44.39859" lon="1.02514">
        <ele>242</ele>
        <time>2025-07-17T08:11:27.071Z</time>
      </trkpt>
      <trkpt lat="44.39859" lon="1.02514">
        <ele>242</ele>
        <time>2025-07-17T08:11:28.071Z</time>
      </trkpt>
      <trkpt lat="44.39857" lon="1.02515">
        <ele>242</ele>
        <time>2025-07-17T08:11:29.072Z</time>
      </trkpt>
      <trkpt lat="44.39856" lon="1.02516">
        <ele>242</ele>
        <time>2025-07-17T08:11:30.072Z</time>
      </trkpt>
      <trkpt lat="44.39855" lon="1.02516">
        <ele>242</ele>
        <time>2025-07-17T08:11:31.072Z</time>
      </trkpt>
      <trkpt lat="44.39855" lon="1.02516">
        <ele>243</ele>
        <time>2025-07-17T08:11:32.071Z</time>
      </trkpt>
      <trkpt lat="44.39853" lon="1.02515">
        <ele>243</ele>
        <time>2025-07-17T08:11:33.071Z</time>
      </trkpt>
      <trkpt lat="44.39852" lon="1.02515">
        <ele>242</ele>
        <time>2025-07-17T08:11:34.071Z</time>
      </trkpt>
      <trkpt lat="44.39852" lon="1.02515">
        <ele>242</ele>
        <time>2025-07-17T08:11:35.071Z</time>
      </trkpt>
      <trkpt lat="44.3985" lon="1.02515">
        <ele>243</ele>
        <time>2025-07-17T08:11:36.071Z</time>
      </trkpt>
      <trkpt lat="44.39848" lon="1.02515">
        <ele>243</ele>
        <time>2025-07-17T08:11:37.071Z</time>
      </trkpt>
      <trkpt lat="44.39848" lon="1.02515">
        <ele>243</ele>
        <time>2025-07-17T08:11:38.071Z</time>
      </trkpt>
      <trkpt lat="44.39846" lon="1.02516">
        <ele>243</ele>
        <time>2025-07-17T08:11:39.072Z</time>
      </trkpt>
      <trkpt lat="44.39845" lon="1.02516">
        <ele>244</ele>
        <time>2025-07-17T08:11:40.071Z</time>
      </trkpt>
      <trkpt lat="44.39845" lon="1.02516">
        <ele>244</ele>
        <time>2025-07-17T08:11:41.071Z</time>
      </trkpt>
      <trkpt lat="44.39843" lon="1.02516">
        <ele>244</ele>
        <time>2025-07-17T08:11:42.072Z</time>
      </trkpt>
      <trkpt lat="44.39842" lon="1.02516">
        <ele>244</ele>
        <time>2025-07-17T08:11:43.072Z</time>
      </trkpt>
      <trkpt lat="44.39842" lon="1.02516">
        <ele>244</ele>
        <time>2025-07-17T08:11:44.071Z</time>
      </trkpt>
      <trkpt lat="44.3984" lon="1.02517">
        <ele>245</ele>
        <time>2025-07-17T08:11:45.071Z</time>
      </trkpt>
      <trkpt lat="44.39839" lon="1.02518">
        <ele>245</ele>
        <time>2025-07-17T08:11:46.071Z</time>
      </trkpt>
      <trkpt lat="44.39839" lon="1.02518">
        <ele>245</ele>
        <time>2025-07-17T08:11:47.072Z</time>
      </trkpt>
      <trkpt lat="44.39837" lon="1.02518">
        <ele>245</ele>
        <time>2025-07-17T08:11:48.072Z</time>
      </trkpt>
      <trkpt lat="44.39836" lon="1.02518">
        <ele>246</ele>
        <time>2025-07-17T08:11:49.071Z</time>
      </trkpt>
      <trkpt lat="44.39836" lon="1.02518">
        <ele>246</ele>
        <time>2025-07-17T08:11:50.071Z</time>
      </trkpt>
      <trkpt lat="44.39835" lon="1.02518">
        <ele>246</ele>
        <time>2025-07-17T08:11:51.071Z</time>
      </trkpt>
      <trkpt lat="44.39834" lon="1.02518">
        <ele>246</ele>
        <time>2025-07-17T08:11:52.071Z</time>
      </trkpt>
      <trkpt lat="44.39834" lon="1.02518">
        <ele>246</ele>
        <time>2025-07-17T08:11:53.071Z</time>
      </trkpt>
      <trkpt lat="44.39832" lon="1.02518">
        <ele>245</ele>
        <time>2025-07-17T08:11:54.071Z</time>
      </trkpt>
      <trkpt lat="44.3983" lon="1.02518">
        <ele>244</ele>
        <time>2025-07-17T08:11:55.071Z</time>
      </trkpt>
      <trkpt lat="44.3983" lon="1.02518">
        <ele>244</ele>
        <time>2025-07-17T08:11:56.071Z</time>
      </trkpt>
      <trkpt lat="44.39828" lon="1.0252">
        <ele>244</ele>
        <time>2025-07-17T08:11:57.071Z</time>
      </trkpt>
      <trkpt lat="44.39827" lon="1.02521">
        <ele>245</ele>
        <time>2025-07-17T08:11:58.071Z</time>
      </trkpt>
      <trkpt lat="44.39827" lon="1.02521">
        <ele>245</ele>
        <time>2025-07-17T08:11:59.071Z</time>
      </trkpt>
      <trkpt lat="44.39824" lon="1.02521">
        <ele>245</ele>
        <time>2025-07-17T08:12:00.071Z</time>
      </trkpt>
      <trkpt lat="44.39823" lon="1.02521">
        <ele>246</ele>
        <time>2025-07-17T08:12:01.071Z</time>
      </trkpt>
      <trkpt lat="44.39823" lon="1.02521">
        <ele>246</ele>
        <time>2025-07-17T08:12:02.071Z</time>
      </trkpt>
      <trkpt lat="44.39821" lon="1.02522">
        <ele>246</ele>
        <time>2025-07-17T08:12:03.071Z</time>
      </trkpt>
      <trkpt lat="44.3982" lon="1.02521">
        <ele>246</ele>
        <time>2025-07-17T08:12:04.071Z</time>
      </trkpt>
      <trkpt lat="44.3982" lon="1.02521">
        <ele>246</ele>
        <time>2025-07-17T08:12:05.071Z</time>
      </trkpt>
      <trkpt lat="44.39818" lon="1.02521">
        <ele>247</ele>
        <time>2025-07-17T08:12:06.071Z</time>
      </trkpt>
      <trkpt lat="44.39818" lon="1.02521">
        <ele>247</ele>
        <time>2025-07-17T08:12:07.071Z</time>
      </trkpt>
      <trkpt lat="44.39817" lon="1.02521">
        <ele>247</ele>
        <time>2025-07-17T08:12:08.071Z</time>
      </trkpt>
      <trkpt lat="44.39816" lon="1.02521">
        <ele>248</ele>
        <time>2025-07-17T08:12:09.071Z</time>
      </trkpt>
      <trkpt lat="44.39813" lon="1.02522">
        <ele>248</ele>
        <time>2025-07-17T08:12:10.071Z</time>
      </trkpt>
      <trkpt lat="44.39813" lon="1.02522">
        <ele>248</ele>
        <time>2025-07-17T08:12:11.071Z</time>
      </trkpt>
      <trkpt lat="44.3981" lon="1.02523">
        <ele>249</ele>
        <time>2025-07-17T08:12:12.072Z</time>
      </trkpt>
      <trkpt lat="44.3981" lon="1.02523">
        <ele>249</ele>
        <time>2025-07-17T08:12:13.071Z</time>
      </trkpt>
      <trkpt lat="44.39809" lon="1.02523">
        <ele>249</ele>
        <time>2025-07-17T08:12:14.071Z</time>
      </trkpt>
      <trkpt lat="44.39806" lon="1.02524">
        <ele>248</ele>
        <time>2025-07-17T08:12:15.071Z</time>
      </trkpt>
      <trkpt lat="44.39805" lon="1.02524">
        <ele>249</ele>
        <time>2025-07-17T08:12:16.071Z</time>
      </trkpt>
      <trkpt lat="44.39805" lon="1.02524">
        <ele>249</ele>
        <time>2025-07-17T08:12:17.071Z</time>
      </trkpt>
      <trkpt lat="44.39803" lon="1.02524">
        <ele>249</ele>
        <time>2025-07-17T08:12:18.071Z</time>
      </trkpt>
      <trkpt lat="44.39802" lon="1.02524">
        <ele>249</ele>
        <time>2025-07-17T08:12:19.071Z</time>
      </trkpt>
      <trkpt lat="44.39802" lon="1.02524">
        <ele>249</ele>
        <time>2025-07-17T08:12:20.071Z</time>
      </trkpt>
      <trkpt lat="44.398" lon="1.02526">
        <ele>249</ele>
        <time>2025-07-17T08:12:21.071Z</time>
      </trkpt>
      <trkpt lat="44.39799" lon="1.02527">
        <ele>249</ele>
        <time>2025-07-17T08:12:22.071Z</time>
      </trkpt>
      <trkpt lat="44.39799" lon="1.02527">
        <ele>249</ele>
        <time>2025-07-17T08:12:23.071Z</time>
      </trkpt>
      <trkpt lat="44.39797" lon="1.02527">
        <ele>250</ele>
        <time>2025-07-17T08:12:24.071Z</time>
      </trkpt>
      <trkpt lat="44.39796" lon="1.02528">
        <ele>251</ele>
        <time>2025-07-17T08:12:25.071Z</time>
      </trkpt>
      <trkpt lat="44.39796" lon="1.02528">
        <ele>251</ele>
        <time>2025-07-17T08:12:26.071Z</time>
      </trkpt>
      <trkpt lat="44.39794" lon="1.02528">
        <ele>251</ele>
        <time>2025-07-17T08:12:27.071Z</time>
      </trkpt>
      <trkpt lat="44.39793" lon="1.02528">
        <ele>251</ele>
        <time>2025-07-17T08:12:28.071Z</time>
      </trkpt>
      <trkpt lat="44.39792" lon="1.02528">
        <ele>250</ele>
        <time>2025-07-17T08:12:29.071Z</time>
      </trkpt>
      <trkpt lat="44.39791" lon="1.02528">
        <ele>250</ele>
        <time>2025-07-17T08:12:30.071Z</time>
      </trkpt>
      <trkpt lat="44.39789" lon="1.02528">
        <ele>250</ele>
        <time>2025-07-17T08:12:31.072Z</time>
      </trkpt>
      <trkpt lat="44.39789" lon="1.02528">
        <ele>250</ele>
        <time>2025-07-17T08:12:32.071Z</time>
      </trkpt>
      <trkpt lat="44.39787" lon="1.02529">
        <ele>249</ele>
        <time>2025-07-17T08:12:33.071Z</time>
      </trkpt>
      <trkpt lat="44.39786" lon="1.02529">
        <ele>248</ele>
        <time>2025-07-17T08:12:34.071Z</time>
      </trkpt>
      <trkpt lat="44.39785" lon="1.02529">
        <ele>248</ele>
        <time>2025-07-17T08:12:35.071Z</time>
      </trkpt>
      <trkpt lat="44.39784" lon="1.0253">
        <ele>247</ele>
        <time>2025-07-17T08:12:36.071Z</time>
      </trkpt>
      <trkpt lat="44.39782" lon="1.0253">
        <ele>246</ele>
        <time>2025-07-17T08:12:37.072Z</time>
      </trkpt>
      <trkpt lat="44.39782" lon="1.0253">
        <ele>246</ele>
        <time>2025-07-17T08:12:38.071Z</time>
      </trkpt>
      <trkpt lat="44.39781" lon="1.0253">
        <ele>246</ele>
        <time>2025-07-17T08:12:39.071Z</time>
      </trkpt>
      <trkpt lat="44.3978" lon="1.02531">
        <ele>246</ele>
        <time>2025-07-17T08:12:40.071Z</time>
      </trkpt>
      <trkpt lat="44.3978" lon="1.02531">
        <ele>246</ele>
        <time>2025-07-17T08:12:41.071Z</time>
      </trkpt>
      <trkpt lat="44.39778" lon="1.02532">
        <ele>247</ele>
        <time>2025-07-17T08:12:42.071Z</time>
      </trkpt>
      <trkpt lat="44.39776" lon="1.02532">
        <ele>247</ele>
        <time>2025-07-17T08:12:43.071Z</time>
      </trkpt>
      <trkpt lat="44.39776" lon="1.02532">
        <ele>247</ele>
        <time>2025-07-17T08:12:44.071Z</time>
      </trkpt>
      <trkpt lat="44.39775" lon="1.02532">
        <ele>247</ele>
        <time>2025-07-17T08:12:45.071Z</time>
      </trkpt>
      <trkpt lat="44.39773" lon="1.02533">
        <ele>247</ele>
        <time>2025-07-17T08:12:46.072Z</time>
      </trkpt>
      <trkpt lat="44.39772" lon="1.02534">
        <ele>248</ele>
        <time>2025-07-17T08:12:47.071Z</time>
      </trkpt>
      <trkpt lat="44.39771" lon="1.02535">
        <ele>248</ele>
        <time>2025-07-17T08:12:48.072Z</time>
      </trkpt>
      <trkpt lat="44.39771" lon="1.02535">
        <ele>248</ele>
        <time>2025-07-17T08:12:49.072Z</time>
      </trkpt>
      <trkpt lat="44.39771" lon="1.02535">
        <ele>248</ele>
        <time>2025-07-17T08:12:50.071Z</time>
      </trkpt>
      <trkpt lat="44.39768" lon="1.02537">
        <ele>248</ele>
        <time>2025-07-17T08:12:51.071Z</time>
      </trkpt>
      <trkpt lat="44.39768" lon="1.02537">
        <ele>248</ele>
        <time>2025-07-17T08:12:52.071Z</time>
      </trkpt>
      <trkpt lat="44.39768" lon="1.02537">
        <ele>248</ele>
        <time>2025-07-17T08:12:53.071Z</time>
      </trkpt>
      <trkpt lat="44.39766" lon="1.02538">
        <ele>249</ele>
        <time>2025-07-17T08:12:54.071Z</time>
      </trkpt>
      <trkpt lat="44.39766" lon="1.02538">
        <ele>249</ele>
        <time>2025-07-17T08:12:55.071Z</time>
      </trkpt>
      <trkpt lat="44.39766" lon="1.02538">
        <ele>249</ele>
        <time>2025-07-17T08:12:56.071Z</time>
      </trkpt>
      <trkpt lat="44.39763" lon="1.0254">
        <ele>249</ele>
        <time>2025-07-17T08:12:57.071Z</time>
      </trkpt>
      <trkpt lat="44.39762" lon="1.0254">
        <ele>249</ele>
        <time>2025-07-17T08:12:58.071Z</time>
      </trkpt>
      <trkpt lat="44.39762" lon="1.0254">
        <ele>249</ele>
        <time>2025-07-17T08:12:59.072Z</time>
      </trkpt>
      <trkpt lat="44.39761" lon="1.02541">
        <ele>249</ele>
        <time>2025-07-17T08:13:00.071Z</time>
      </trkpt>
      <trkpt lat="44.3976" lon="1.02542">
        <ele>249</ele>
        <time>2025-07-17T08:13:01.071Z</time>
      </trkpt>
      <trkpt lat="44.3976" lon="1.02542">
        <ele>249</ele>
        <time>2025-07-17T08:13:02.071Z</time>
      </trkpt>
      <trkpt lat="44.39758" lon="1.02543">
        <ele>249</ele>
        <time>2025-07-17T08:13:03.071Z</time>
      </trkpt>
      <trkpt lat="44.39757" lon="1.02544">
        <ele>249</ele>
        <time>2025-07-17T08:13:04.071Z</time>
      </trkpt>
      <trkpt lat="44.39757" lon="1.02544">
        <ele>249</ele>
        <time>2025-07-17T08:13:05.071Z</time>
      </trkpt>
      <trkpt lat="44.39755" lon="1.02546">
        <ele>249</ele>
        <time>2025-07-17T08:13:06.071Z</time>
      </trkpt>
      <trkpt lat="44.39753" lon="1.02547">
        <ele>249</ele>
        <time>2025-07-17T08:13:07.071Z</time>
      </trkpt>
      <trkpt lat="44.39753" lon="1.02547">
        <ele>249</ele>
        <time>2025-07-17T08:13:08.071Z</time>
      </trkpt>
      <trkpt lat="44.39751" lon="1.02548">
        <ele>249</ele>
        <time>2025-07-17T08:13:09.071Z</time>
      </trkpt>
      <trkpt lat="44.3975" lon="1.02549">
        <ele>249</ele>
        <time>2025-07-17T08:13:10.071Z</time>
      </trkpt>
      <trkpt lat="44.3975" lon="1.02549">
        <ele>249</ele>
        <time>2025-07-17T08:13:11.071Z</time>
      </trkpt>
      <trkpt lat="44.39748" lon="1.0255">
        <ele>249</ele>
        <time>2025-07-17T08:13:12.071Z</time>
      </trkpt>
      <trkpt lat="44.39747" lon="1.0255">
        <ele>249</ele>
        <time>2025-07-17T08:13:13.071Z</time>
      </trkpt>
      <trkpt lat="44.39747" lon="1.0255">
        <ele>249</ele>
        <time>2025-07-17T08:13:14.071Z</time>
      </trkpt>
      <trkpt lat="44.39745" lon="1.02551">
        <ele>248</ele>
        <time>2025-07-17T08:13:15.071Z</time>
      </trkpt>
      <trkpt lat="44.39744" lon="1.02552">
        <ele>248</ele>
        <time>2025-07-17T08:13:16.071Z</time>
      </trkpt>
      <trkpt lat="44.39744" lon="1.02552">
        <ele>248</ele>
        <time>2025-07-17T08:13:17.071Z</time>
      </trkpt>
      <trkpt lat="44.39742" lon="1.02553">
        <ele>249</ele>
        <time>2025-07-17T08:13:18.071Z</time>
      </trkpt>
      <trkpt lat="44.39742" lon="1.02554">
        <ele>249</ele>
        <time>2025-07-17T08:13:19.071Z</time>
      </trkpt>
      <trkpt lat="44.39742" lon="1.02554">
        <ele>249</ele>
        <time>2025-07-17T08:13:20.072Z</time>
      </trkpt>
      <trkpt lat="44.3974" lon="1.02555">
        <ele>249</ele>
        <time>2025-07-17T08:13:21.071Z</time>
      </trkpt>
      <trkpt lat="44.39738" lon="1.02555">
        <ele>249</ele>
        <time>2025-07-17T08:13:22.071Z</time>
      </trkpt>
      <trkpt lat="44.39738" lon="1.02555">
        <ele>249</ele>
        <time>2025-07-17T08:13:23.071Z</time>
      </trkpt>
      <trkpt lat="44.39737" lon="1.02556">
        <ele>249</ele>
        <time>2025-07-17T08:13:24.072Z</time>
      </trkpt>
      <trkpt lat="44.39736" lon="1.02556">
        <ele>249</ele>
        <time>2025-07-17T08:13:25.072Z</time>
      </trkpt>
      <trkpt lat="44.39735" lon="1.02557">
        <ele>249</ele>
        <time>2025-07-17T08:13:26.071Z</time>
      </trkpt>
      <trkpt lat="44.39733" lon="1.02557">
        <ele>249</ele>
        <time>2025-07-17T08:13:27.071Z</time>
      </trkpt>
      <trkpt lat="44.39732" lon="1.02557">
        <ele>249</ele>
        <time>2025-07-17T08:13:28.071Z</time>
      </trkpt>
      <trkpt lat="44.39732" lon="1.02557">
        <ele>249</ele>
        <time>2025-07-17T08:13:29.071Z</time>
      </trkpt>
      <trkpt lat="44.3973" lon="1.02558">
        <ele>249</ele>
        <time>2025-07-17T08:13:30.071Z</time>
      </trkpt>
      <trkpt lat="44.39729" lon="1.02558">
        <ele>249</ele>
        <time>2025-07-17T08:13:31.071Z</time>
      </trkpt>
      <trkpt lat="44.39729" lon="1.02558">
        <ele>249</ele>
        <time>2025-07-17T08:13:32.072Z</time>
      </trkpt>
      <trkpt lat="44.39727" lon="1.02559">
        <ele>249</ele>
        <time>2025-07-17T08:13:33.071Z</time>
      </trkpt>
      <trkpt lat="44.39726" lon="1.0256">
        <ele>248</ele>
        <time>2025-07-17T08:13:34.071Z</time>
      </trkpt>
      <trkpt lat="44.39726" lon="1.0256">
        <ele>248</ele>
        <time>2025-07-17T08:13:35.071Z</time>
      </trkpt>
      <trkpt lat="44.39724" lon="1.02561">
        <ele>248</ele>
        <time>2025-07-17T08:13:36.071Z</time>
      </trkpt>
      <trkpt lat="44.39723" lon="1.02561">
        <ele>247</ele>
        <time>2025-07-17T08:13:37.071Z</time>
      </trkpt>
      <trkpt lat="44.39723" lon="1.02561">
        <ele>247</ele>
        <time>2025-07-17T08:13:38.071Z</time>
      </trkpt>
      <trkpt lat="44.39721" lon="1.02562">
        <ele>247</ele>
        <time>2025-07-17T08:13:39.071Z</time>
      </trkpt>
      <trkpt lat="44.3972" lon="1.02563">
        <ele>247</ele>
        <time>2025-07-17T08:13:40.071Z</time>
      </trkpt>
      <trkpt lat="44.3972" lon="1.02563">
        <ele>247</ele>
        <time>2025-07-17T08:13:41.071Z</time>
      </trkpt>
      <trkpt lat="44.39718" lon="1.02564">
        <ele>247</ele>
        <time>2025-07-17T08:13:42.071Z</time>
      </trkpt>
      <trkpt lat="44.39716" lon="1.02564">
        <ele>247</ele>
        <time>2025-07-17T08:13:43.071Z</time>
      </trkpt>
      <trkpt lat="44.39716" lon="1.02564">
        <ele>247</ele>
        <time>2025-07-17T08:13:44.071Z</time>
      </trkpt>
      <trkpt lat="44.39714" lon="1.02565">
        <ele>246</ele>
        <time>2025-07-17T08:13:45.071Z</time>
      </trkpt>
      <trkpt lat="44.39713" lon="1.02565">
        <ele>246</ele>
        <time>2025-07-17T08:13:46.071Z</time>
      </trkpt>
      <trkpt lat="44.39713" lon="1.02565">
        <ele>246</ele>
        <time>2025-07-17T08:13:47.071Z</time>
      </trkpt>
      <trkpt lat="44.39712" lon="1.02566">
        <ele>245</ele>
        <time>2025-07-17T08:13:48.071Z</time>
      </trkpt>
      <trkpt lat="44.39711" lon="1.02567">
        <ele>245</ele>
        <time>2025-07-17T08:13:49.071Z</time>
      </trkpt>
      <trkpt lat="44.39711" lon="1.02567">
        <ele>245</ele>
        <time>2025-07-17T08:13:50.071Z</time>
      </trkpt>
      <trkpt lat="44.39709" lon="1.02568">
        <ele>246</ele>
        <time>2025-07-17T08:13:51.071Z</time>
      </trkpt>
      <trkpt lat="44.39708" lon="1.02568">
        <ele>245</ele>
        <time>2025-07-17T08:13:52.071Z</time>
      </trkpt>
      <trkpt lat="44.39708" lon="1.02568">
        <ele>245</ele>
        <time>2025-07-17T08:13:53.071Z</time>
      </trkpt>
      <trkpt lat="44.39706" lon="1.02569">
        <ele>245</ele>
        <time>2025-07-17T08:13:54.072Z</time>
      </trkpt>
      <trkpt lat="44.39705" lon="1.02569">
        <ele>244</ele>
        <time>2025-07-17T08:13:55.072Z</time>
      </trkpt>
      <trkpt lat="44.39705" lon="1.02569">
        <ele>244</ele>
        <time>2025-07-17T08:13:56.071Z</time>
      </trkpt>
      <trkpt lat="44.39704" lon="1.0257">
        <ele>244</ele>
        <time>2025-07-17T08:13:57.071Z</time>
      </trkpt>
      <trkpt lat="44.39703" lon="1.0257">
        <ele>244</ele>
        <time>2025-07-17T08:13:58.071Z</time>
      </trkpt>
      <trkpt lat="44.39702" lon="1.02571">
        <ele>244</ele>
        <time>2025-07-17T08:13:59.071Z</time>
      </trkpt>
      <trkpt lat="44.39701" lon="1.02571">
        <ele>244</ele>
        <time>2025-07-17T08:14:00.072Z</time>
      </trkpt>
      <trkpt lat="44.397" lon="1.02571">
        <ele>244</ele>
        <time>2025-07-17T08:14:01.071Z</time>
      </trkpt>
      <trkpt lat="44.397" lon="1.02571">
        <ele>244</ele>
        <time>2025-07-17T08:14:02.071Z</time>
      </trkpt>
      <trkpt lat="44.39699" lon="1.02571">
        <ele>244</ele>
        <time>2025-07-17T08:14:03.072Z</time>
      </trkpt>
      <trkpt lat="44.39698" lon="1.02572">
        <ele>244</ele>
        <time>2025-07-17T08:14:04.072Z</time>
      </trkpt>
      <trkpt lat="44.39697" lon="1.02571">
        <ele>244</ele>
        <time>2025-07-17T08:14:05.071Z</time>
      </trkpt>
      <trkpt lat="44.39695" lon="1.02572">
        <ele>244</ele>
        <time>2025-07-17T08:14:06.072Z</time>
      </trkpt>
      <trkpt lat="44.39694" lon="1.02572">
        <ele>244</ele>
        <time>2025-07-17T08:14:07.071Z</time>
      </trkpt>
      <trkpt lat="44.39694" lon="1.02572">
        <ele>244</ele>
        <time>2025-07-17T08:14:08.071Z</time>
      </trkpt>
      <trkpt lat="44.39691" lon="1.02573">
        <ele>245</ele>
        <time>2025-07-17T08:14:09.071Z</time>
      </trkpt>
      <trkpt lat="44.3969" lon="1.02573">
        <ele>245</ele>
        <time>2025-07-17T08:14:10.071Z</time>
      </trkpt>
      <trkpt lat="44.3969" lon="1.02573">
        <ele>245</ele>
        <time>2025-07-17T08:14:11.071Z</time>
      </trkpt>
      <trkpt lat="44.39688" lon="1.02573">
        <ele>245</ele>
        <time>2025-07-17T08:14:12.071Z</time>
      </trkpt>
      <trkpt lat="44.39687" lon="1.02573">
        <ele>245</ele>
        <time>2025-07-17T08:14:13.071Z</time>
      </trkpt>
      <trkpt lat="44.39687" lon="1.02573">
        <ele>245</ele>
        <time>2025-07-17T08:14:14.071Z</time>
      </trkpt>
      <trkpt lat="44.39685" lon="1.02574">
        <ele>246</ele>
        <time>2025-07-17T08:14:15.072Z</time>
      </trkpt>
      <trkpt lat="44.39684" lon="1.02574">
        <ele>246</ele>
        <time>2025-07-17T08:14:16.071Z</time>
      </trkpt>
      <trkpt lat="44.39684" lon="1.02574">
        <ele>246</ele>
        <time>2025-07-17T08:14:17.071Z</time>
      </trkpt>
      <trkpt lat="44.39682" lon="1.02575">
        <ele>245</ele>
        <time>2025-07-17T08:14:18.071Z</time>
      </trkpt>
      <trkpt lat="44.39681" lon="1.02575">
        <ele>245</ele>
        <time>2025-07-17T08:14:19.072Z</time>
      </trkpt>
      <trkpt lat="44.39681" lon="1.02575">
        <ele>245</ele>
        <time>2025-07-17T08:14:20.071Z</time>
      </trkpt>
      <trkpt lat="44.39678" lon="1.02576">
        <ele>245</ele>
        <time>2025-07-17T08:14:21.071Z</time>
      </trkpt>
      <trkpt lat="44.39678" lon="1.02577">
        <ele>245</ele>
        <time>2025-07-17T08:14:22.072Z</time>
      </trkpt>
      <trkpt lat="44.39678" lon="1.02577">
        <ele>245</ele>
        <time>2025-07-17T08:14:23.071Z</time>
      </trkpt>
      <trkpt lat="44.39676" lon="1.02578">
        <ele>245</ele>
        <time>2025-07-17T08:14:24.071Z</time>
      </trkpt>
      <trkpt lat="44.39676" lon="1.02578">
        <ele>245</ele>
        <time>2025-07-17T08:14:25.071Z</time>
      </trkpt>
      <trkpt lat="44.39676" lon="1.02578">
        <ele>245</ele>
        <time>2025-07-17T08:14:26.071Z</time>
      </trkpt>
      <trkpt lat="44.39674" lon="1.0258">
        <ele>245</ele>
        <time>2025-07-17T08:14:27.071Z</time>
      </trkpt>
      <trkpt lat="44.39674" lon="1.0258">
        <ele>245</ele>
        <time>2025-07-17T08:14:28.071Z</time>
      </trkpt>
      <trkpt lat="44.39674" lon="1.0258">
        <ele>245</ele>
        <time>2025-07-17T08:14:29.071Z</time>
      </trkpt>
      <trkpt lat="44.39672" lon="1.02581">
        <ele>245</ele>
        <time>2025-07-17T08:14:30.071Z</time>
      </trkpt>
      <trkpt lat="44.39671" lon="1.02581">
        <ele>245</ele>
        <time>2025-07-17T08:14:31.071Z</time>
      </trkpt>
      <trkpt lat="44.39671" lon="1.02581">
        <ele>245</ele>
        <time>2025-07-17T08:14:32.071Z</time>
      </trkpt>
      <trkpt lat="44.39669" lon="1.02582">
        <ele>245</ele>
        <time>2025-07-17T08:14:33.071Z</time>
      </trkpt>
      <trkpt lat="44.39669" lon="1.02583">
        <ele>245</ele>
        <time>2025-07-17T08:14:34.071Z</time>
      </trkpt>
      <trkpt lat="44.39669" lon="1.02583">
        <ele>245</ele>
        <time>2025-07-17T08:14:35.071Z</time>
      </trkpt>
      <trkpt lat="44.39667" lon="1.02583">
        <ele>244</ele>
        <time>2025-07-17T08:14:36.072Z</time>
      </trkpt>
      <trkpt lat="44.39665" lon="1.02584">
        <ele>244</ele>
        <time>2025-07-17T08:14:37.071Z</time>
      </trkpt>
      <trkpt lat="44.39665" lon="1.02584">
        <ele>244</ele>
        <time>2025-07-17T08:14:38.071Z</time>
      </trkpt>
      <trkpt lat="44.39663" lon="1.02584">
        <ele>244</ele>
        <time>2025-07-17T08:14:39.071Z</time>
      </trkpt>
      <trkpt lat="44.39662" lon="1.02584">
        <ele>244</ele>
        <time>2025-07-17T08:14:40.071Z</time>
      </trkpt>
      <trkpt lat="44.39662" lon="1.02584">
        <ele>244</ele>
        <time>2025-07-17T08:14:41.071Z</time>
      </trkpt>
      <trkpt lat="44.39661" lon="1.02584">
        <ele>244</ele>
        <time>2025-07-17T08:14:42.072Z</time>
      </trkpt>
      <trkpt lat="44.3966" lon="1.02585">
        <ele>244</ele>
        <time>2025-07-17T08:14:43.072Z</time>
      </trkpt>
      <trkpt lat="44.39659" lon="1.02585">
        <ele>244</ele>
        <time>2025-07-17T08:14:44.071Z</time>
      </trkpt>
      <trkpt lat="44.39656" lon="1.02586">
        <ele>244</ele>
        <time>2025-07-17T08:14:45.071Z</time>
      </trkpt>
      <trkpt lat="44.39656" lon="1.02586">
        <ele>244</ele>
        <time>2025-07-17T08:14:46.071Z</time>
      </trkpt>
      <trkpt lat="44.39656" lon="1.02586">
        <ele>244</ele>
        <time>2025-07-17T08:14:47.071Z</time>
      </trkpt>
      <trkpt lat="44.39654" lon="1.02587">
        <ele>244</ele>
        <time>2025-07-17T08:14:48.072Z</time>
      </trkpt>
      <trkpt lat="44.39653" lon="1.02588">
        <ele>243</ele>
        <time>2025-07-17T08:14:49.071Z</time>
      </trkpt>
      <trkpt lat="44.39653" lon="1.02588">
        <ele>243</ele>
        <time>2025-07-17T08:14:50.071Z</time>
      </trkpt>
      <trkpt lat="44.3965" lon="1.02589">
        <ele>242</ele>
        <time>2025-07-17T08:14:51.071Z</time>
      </trkpt>
      <trkpt lat="44.39649" lon="1.0259">
        <ele>242</ele>
        <time>2025-07-17T08:14:52.071Z</time>
      </trkpt>
      <trkpt lat="44.39649" lon="1.0259">
        <ele>242</ele>
        <time>2025-07-17T08:14:53.071Z</time>
      </trkpt>
      <trkpt lat="44.39647" lon="1.02591">
        <ele>242</ele>
        <time>2025-07-17T08:14:54.071Z</time>
      </trkpt>
      <trkpt lat="44.39646" lon="1.02591">
        <ele>242</ele>
        <time>2025-07-17T08:14:55.071Z</time>
      </trkpt>
      <trkpt lat="44.39646" lon="1.02591">
        <ele>242</ele>
        <time>2025-07-17T08:14:56.071Z</time>
      </trkpt>
      <trkpt lat="44.39645" lon="1.02592">
        <ele>242</ele>
        <time>2025-07-17T08:14:57.071Z</time>
      </trkpt>
      <trkpt lat="44.39643" lon="1.02593">
        <ele>242</ele>
        <time>2025-07-17T08:14:58.071Z</time>
      </trkpt>
      <trkpt lat="44.39643" lon="1.02593">
        <ele>242</ele>
        <time>2025-07-17T08:14:59.071Z</time>
      </trkpt>
      <trkpt lat="44.39641" lon="1.02594">
        <ele>243</ele>
        <time>2025-07-17T08:15:00.071Z</time>
      </trkpt>
      <trkpt lat="44.3964" lon="1.02595">
        <ele>243</ele>
        <time>2025-07-17T08:15:01.071Z</time>
      </trkpt>
      <trkpt lat="44.3964" lon="1.02595">
        <ele>243</ele>
        <time>2025-07-17T08:15:02.071Z</time>
      </trkpt>
      <trkpt lat="44.39639" lon="1.02596">
        <ele>243</ele>
        <time>2025-07-17T08:15:03.071Z</time>
      </trkpt>
      <trkpt lat="44.39638" lon="1.02597">
        <ele>243</ele>
        <time>2025-07-17T08:15:04.071Z</time>
      </trkpt>
      <trkpt lat="44.39638" lon="1.02597">
        <ele>243</ele>
        <time>2025-07-17T08:15:05.071Z</time>
      </trkpt>
      <trkpt lat="44.39636" lon="1.02598">
        <ele>244</ele>
        <time>2025-07-17T08:15:06.071Z</time>
      </trkpt>
      <trkpt lat="44.39635" lon="1.02598">
        <ele>244</ele>
        <time>2025-07-17T08:15:07.071Z</time>
      </trkpt>
      <trkpt lat="44.39635" lon="1.02598">
        <ele>244</ele>
        <time>2025-07-17T08:15:08.071Z</time>
      </trkpt>
      <trkpt lat="44.39633" lon="1.026">
        <ele>244</ele>
        <time>2025-07-17T08:15:09.071Z</time>
      </trkpt>
      <trkpt lat="44.39631" lon="1.026">
        <ele>245</ele>
        <time>2025-07-17T08:15:10.071Z</time>
      </trkpt>
      <trkpt lat="44.39631" lon="1.026">
        <ele>245</ele>
        <time>2025-07-17T08:15:11.071Z</time>
      </trkpt>
      <trkpt lat="44.39629" lon="1.02601">
        <ele>245</ele>
        <time>2025-07-17T08:15:12.071Z</time>
      </trkpt>
      <trkpt lat="44.39627" lon="1.02601">
        <ele>245</ele>
        <time>2025-07-17T08:15:13.071Z</time>
      </trkpt>
      <trkpt lat="44.39627" lon="1.02601">
        <ele>245</ele>
        <time>2025-07-17T08:15:14.071Z</time>
      </trkpt>
      <trkpt lat="44.39626" lon="1.02602">
        <ele>245</ele>
        <time>2025-07-17T08:15:15.072Z</time>
      </trkpt>
      <trkpt lat="44.39625" lon="1.02602">
        <ele>245</ele>
        <time>2025-07-17T08:15:16.071Z</time>
      </trkpt>
      <trkpt lat="44.39625" lon="1.02603">
        <ele>245</ele>
        <time>2025-07-17T08:15:17.071Z</time>
      </trkpt>
      <trkpt lat="44.39625" lon="1.02603">
        <ele>245</ele>
        <time>2025-07-17T08:15:18.071Z</time>
      </trkpt>
      <trkpt lat="44.39624" lon="1.02603">
        <ele>245</ele>
        <time>2025-07-17T08:15:19.071Z</time>
      </trkpt>
      <trkpt lat="44.39624" lon="1.02603">
        <ele>245</ele>
        <time>2025-07-17T08:15:20.071Z</time>
      </trkpt>
      <trkpt lat="44.39624" lon="1.02603">
        <ele>245</ele>
        <time>2025-07-17T08:15:21.072Z</time>
      </trkpt>
      <trkpt lat="44.39624" lon="1.02603">
        <ele>245</ele>
        <time>2025-07-17T08:15:22.072Z</time>
      </trkpt>
      <trkpt lat="44.39623" lon="1.02603">
        <ele>245</ele>
        <time>2025-07-17T08:15:23.071Z</time>
      </trkpt>
      <trkpt lat="44.39622" lon="1.02604">
        <ele>244</ele>
        <time>2025-07-17T08:15:24.071Z</time>
      </trkpt>
      <trkpt lat="44.39622" lon="1.02604">
        <ele>244</ele>
        <time>2025-07-17T08:15:25.071Z</time>
      </trkpt>
      <trkpt lat="44.39622" lon="1.02604">
        <ele>244</ele>
        <time>2025-07-17T08:15:26.071Z</time>
      </trkpt>
      <trkpt lat="44.39622" lon="1.02604">
        <ele>244</ele>
        <time>2025-07-17T08:15:27.072Z</time>
      </trkpt>
      <trkpt lat="44.39622" lon="1.02604">
        <ele>244</ele>
        <time>2025-07-17T08:15:28.072Z</time>
      </trkpt>
      <trkpt lat="44.39622" lon="1.02604">
        <ele>244</ele>
        <time>2025-07-17T08:15:29.072Z</time>
      </trkpt>
      <trkpt lat="44.39622" lon="1.02604">
        <ele>244</ele>
        <time>2025-07-17T08:15:30.072Z</time>
      </trkpt>
      <trkpt lat="44.39622" lon="1.02604">
        <ele>245</ele>
        <time>2025-07-17T08:15:31.071Z</time>
      </trkpt>
      <trkpt lat="44.39622" lon="1.02604">
        <ele>245</ele>
        <time>2025-07-17T08:15:32.071Z</time>
      </trkpt>
      <trkpt lat="44.39621" lon="1.02604">
        <ele>246</ele>
        <time>2025-07-17T08:15:33.072Z</time>
      </trkpt>
      <trkpt lat="44.39621" lon="1.02603">
        <ele>246</ele>
        <time>2025-07-17T08:15:34.072Z</time>
      </trkpt>
      <trkpt lat="44.39621" lon="1.02603">
        <ele>246</ele>
        <time>2025-07-17T08:15:35.071Z</time>
      </trkpt>
      <trkpt lat="44.39621" lon="1.02603">
        <ele>247</ele>
        <time>2025-07-17T08:15:36.071Z</time>
      </trkpt>
      <trkpt lat="44.39621" lon="1.02603">
        <ele>247</ele>
        <time>2025-07-17T08:15:37.072Z</time>
      </trkpt>
      <trkpt lat="44.39621" lon="1.02603">
        <ele>247</ele>
        <time>2025-07-17T08:15:38.071Z</time>
      </trkpt>
      <trkpt lat="44.39621" lon="1.02603">
        <ele>248</ele>
        <time>2025-07-17T08:15:39.071Z</time>
      </trkpt>
      <trkpt lat="44.39622" lon="1.02603">
        <ele>248</ele>
        <time>2025-07-17T08:15:40.071Z</time>
      </trkpt>
      <trkpt lat="44.39622" lon="1.02603">
        <ele>248</ele>
        <time>2025-07-17T08:15:41.071Z</time>
      </trkpt>
      <trkpt lat="44.39624" lon="1.02602">
        <ele>248</ele>
        <time>2025-07-17T08:15:42.071Z</time>
      </trkpt>
      <trkpt lat="44.39624" lon="1.02601">
        <ele>249</ele>
        <time>2025-07-17T08:15:43.071Z</time>
      </trkpt>
      <trkpt lat="44.39624" lon="1.02601">
        <ele>249</ele>
        <time>2025-07-17T08:15:44.071Z</time>
      </trkpt>
      <trkpt lat="44.39624" lon="1.02601">
        <ele>249</ele>
        <time>2025-07-17T08:15:45.071Z</time>
      </trkpt>
      <trkpt lat="44.39623" lon="1.02601">
        <ele>249</ele>
        <time>2025-07-17T08:15:46.071Z</time>
      </trkpt>
      <trkpt lat="44.39623" lon="1.02601">
        <ele>249</ele>
        <time>2025-07-17T08:15:47.071Z</time>
      </trkpt>
      <trkpt lat="44.39622" lon="1.02601">
        <ele>250</ele>
        <time>2025-07-17T08:15:48.071Z</time>
      </trkpt>
      <trkpt lat="44.39622" lon="1.02601">
        <ele>251</ele>
        <time>2025-07-17T08:15:49.071Z</time>
      </trkpt>
      <trkpt lat="44.39622" lon="1.02601">
        <ele>251</ele>
        <time>2025-07-17T08:15:50.071Z</time>
      </trkpt>
      <trkpt lat="44.39622" lon="1.026">
        <ele>252</ele>
        <time>2025-07-17T08:15:51.071Z</time>
      </trkpt>
      <trkpt lat="44.39622" lon="1.026">
        <ele>253</ele>
        <time>2025-07-17T08:15:52.071Z</time>
      </trkpt>
      <trkpt lat="44.39622" lon="1.026">
        <ele>253</ele>
        <time>2025-07-17T08:15:53.071Z</time>
      </trkpt>
      <trkpt lat="44.39622" lon="1.02599">
        <ele>254</ele>
        <time>2025-07-17T08:15:54.071Z</time>
      </trkpt>
      <trkpt lat="44.39622" lon="1.02599">
        <ele>255</ele>
        <time>2025-07-17T08:15:55.071Z</time>
      </trkpt>
      <trkpt lat="44.39622" lon="1.02599">
        <ele>255</ele>
        <time>2025-07-17T08:15:56.071Z</time>
      </trkpt>
      <trkpt lat="44.39621" lon="1.02599">
        <ele>256</ele>
        <time>2025-07-17T08:15:57.071Z</time>
      </trkpt>
      <trkpt lat="44.39621" lon="1.02598">
        <ele>256</ele>
        <time>2025-07-17T08:15:58.071Z</time>
      </trkpt>
      <trkpt lat="44.39621" lon="1.02598">
        <ele>256</ele>
        <time>2025-07-17T08:15:59.071Z</time>
      </trkpt>
      <trkpt lat="44.39621" lon="1.02599">
        <ele>256</ele>
        <time>2025-07-17T08:16:00.072Z</time>
      </trkpt>
      <trkpt lat="44.39621" lon="1.02598">
        <ele>256</ele>
        <time>2025-07-17T08:16:01.072Z</time>
      </trkpt>
      <trkpt lat="44.39622" lon="1.02599">
        <ele>256</ele>
        <time>2025-07-17T08:16:02.071Z</time>
      </trkpt>
      <trkpt lat="44.39622" lon="1.026">
        <ele>256</ele>
        <time>2025-07-17T08:16:03.071Z</time>
      </trkpt>
      <trkpt lat="44.39622" lon="1.026">
        <ele>255</ele>
        <time>2025-07-17T08:16:04.071Z</time>
      </trkpt>
      <trkpt lat="44.39622" lon="1.026">
        <ele>255</ele>
        <time>2025-07-17T08:16:05.071Z</time>
      </trkpt>
      <trkpt lat="44.39622" lon="1.026">
        <ele>255</ele>
        <time>2025-07-17T08:16:06.071Z</time>
      </trkpt>
      <trkpt lat="44.39622" lon="1.026">
        <ele>255</ele>
        <time>2025-07-17T08:16:07.071Z</time>
      </trkpt>
      <trkpt lat="44.39622" lon="1.026">
        <ele>255</ele>
        <time>2025-07-17T08:16:08.071Z</time>
      </trkpt>
      <trkpt lat="44.39622" lon="1.026">
        <ele>255</ele>
        <time>2025-07-17T08:16:09.071Z</time>
      </trkpt>
      <trkpt lat="44.39623" lon="1.02599">
        <ele>255</ele>
        <time>2025-07-17T08:16:10.071Z</time>
      </trkpt>
      <trkpt lat="44.39623" lon="1.02599">
        <ele>255</ele>
        <time>2025-07-17T08:16:11.072Z</time>
      </trkpt>
      <trkpt lat="44.39623" lon="1.02599">
        <ele>254</ele>
        <time>2025-07-17T08:16:12.071Z</time>
      </trkpt>
      <trkpt lat="44.39623" lon="1.026">
        <ele>254</ele>
        <time>2025-07-17T08:16:13.072Z</time>
      </trkpt>
      <trkpt lat="44.39623" lon="1.026">
        <ele>254</ele>
        <time>2025-07-17T08:16:14.071Z</time>
      </trkpt>
      <trkpt lat="44.39623" lon="1.026">
        <ele>254</ele>
        <time>2025-07-17T08:16:15.071Z</time>
      </trkpt>
      <trkpt lat="44.39623" lon="1.026">
        <ele>254</ele>
        <time>2025-07-17T08:16:16.071Z</time>
      </trkpt>
      <trkpt lat="44.39623" lon="1.026">
        <ele>254</ele>
        <time>2025-07-17T08:16:17.071Z</time>
      </trkpt>
      <trkpt lat="44.39623" lon="1.026">
        <ele>254</ele>
        <time>2025-07-17T08:16:18.071Z</time>
      </trkpt>
      <trkpt lat="44.39623" lon="1.02601">
        <ele>254</ele>
        <time>2025-07-17T08:16:19.071Z</time>
      </trkpt>
      <trkpt lat="44.39623" lon="1.02601">
        <ele>254</ele>
        <time>2025-07-17T08:16:20.071Z</time>
      </trkpt>
      <trkpt lat="44.39623" lon="1.026">
        <ele>254</ele>
        <time>2025-07-17T08:16:21.071Z</time>
      </trkpt>
      <trkpt lat="44.39622" lon="1.026">
        <ele>253</ele>
        <time>2025-07-17T08:16:22.071Z</time>
      </trkpt>
      <trkpt lat="44.39622" lon="1.026">
        <ele>253</ele>
        <time>2025-07-17T08:16:23.071Z</time>
      </trkpt>
      <trkpt lat="44.39622" lon="1.026">
        <ele>253</ele>
        <time>2025-07-17T08:16:24.071Z</time>
      </trkpt>
      <trkpt lat="44.39622" lon="1.026">
        <ele>252</ele>
        <time>2025-07-17T08:16:25.071Z</time>
      </trkpt>
      <trkpt lat="44.39622" lon="1.026">
        <ele>252</ele>
        <time>2025-07-17T08:16:26.071Z</time>
      </trkpt>
      <trkpt lat="44.39623" lon="1.02601">
        <ele>251</ele>
        <time>2025-07-17T08:16:27.071Z</time>
      </trkpt>
      <trkpt lat="44.39623" lon="1.02601">
        <ele>250</ele>
        <time>2025-07-17T08:16:28.071Z</time>
      </trkpt>
      <trkpt lat="44.39623" lon="1.02601">
        <ele>250</ele>
        <time>2025-07-17T08:16:29.071Z</time>
      </trkpt>
      <trkpt lat="44.39622" lon="1.02601">
        <ele>249</ele>
        <time>2025-07-17T08:16:30.071Z</time>
      </trkpt>
      <trkpt lat="44.39621" lon="1.02601">
        <ele>249</ele>
        <time>2025-07-17T08:16:31.071Z</time>
      </trkpt>
      <trkpt lat="44.39621" lon="1.02601">
        <ele>249</ele>
        <time>2025-07-17T08:16:32.072Z</time>
      </trkpt>
      <trkpt lat="44.39622" lon="1.02601">
        <ele>248</ele>
        <time>2025-07-17T08:16:33.071Z</time>
      </trkpt>
      <trkpt lat="44.39622" lon="1.02602">
        <ele>248</ele>
        <time>2025-07-17T08:16:34.071Z</time>
      </trkpt>
      <trkpt lat="44.39622" lon="1.02602">
        <ele>248</ele>
        <time>2025-07-17T08:16:35.071Z</time>
      </trkpt>
      <trkpt lat="44.39623" lon="1.02602">
        <ele>248</ele>
        <time>2025-07-17T08:16:36.071Z</time>
      </trkpt>
      <trkpt lat="44.39622" lon="1.02602">
        <ele>248</ele>
        <time>2025-07-17T08:16:37.071Z</time>
      </trkpt>
      <trkpt lat="44.39622" lon="1.02602">
        <ele>248</ele>
        <time>2025-07-17T08:16:38.071Z</time>
      </trkpt>
      <trkpt lat="44.39622" lon="1.02602">
        <ele>248</ele>
        <time>2025-07-17T08:16:39.072Z</time>
      </trkpt>
      <trkpt lat="44.39621" lon="1.02602">
        <ele>249</ele>
        <time>2025-07-17T08:16:40.072Z</time>
      </trkpt>
      <trkpt lat="44.39621" lon="1.02602">
        <ele>249</ele>
        <time>2025-07-17T08:16:41.071Z</time>
      </trkpt>
      <trkpt lat="44.39621" lon="1.02601">
        <ele>249</ele>
        <time>2025-07-17T08:16:42.072Z</time>
      </trkpt>
      <trkpt lat="44.39621" lon="1.02601">
        <ele>249</ele>
        <time>2025-07-17T08:16:43.072Z</time>
      </trkpt>
      <trkpt lat="44.39621" lon="1.02601">
        <ele>249</ele>
        <time>2025-07-17T08:16:44.071Z</time>
      </trkpt>
      <trkpt lat="44.39621" lon="1.026">
        <ele>248</ele>
        <time>2025-07-17T08:16:45.071Z</time>
      </trkpt>
      <trkpt lat="44.39621" lon="1.026">
        <ele>248</ele>
        <time>2025-07-17T08:16:46.071Z</time>
      </trkpt>
      <trkpt lat="44.39621" lon="1.026">
        <ele>248</ele>
        <time>2025-07-17T08:16:47.071Z</time>
      </trkpt>
      <trkpt lat="44.39621" lon="1.026">
        <ele>247</ele>
        <time>2025-07-17T08:16:48.071Z</time>
      </trkpt>
      <trkpt lat="44.39621" lon="1.026">
        <ele>247</ele>
        <time>2025-07-17T08:16:49.071Z</time>
      </trkpt>
      <trkpt lat="44.39621" lon="1.026">
        <ele>247</ele>
        <time>2025-07-17T08:16:50.071Z</time>
      </trkpt>
      <trkpt lat="44.39621" lon="1.02601">
        <ele>247</ele>
        <time>2025-07-17T08:16:51.071Z</time>
      </trkpt>
      <trkpt lat="44.39621" lon="1.026">
        <ele>247</ele>
        <time>2025-07-17T08:16:52.071Z</time>
      </trkpt>
      <trkpt lat="44.39621" lon="1.026">
        <ele>247</ele>
        <time>2025-07-17T08:16:53.071Z</time>
      </trkpt>
      <trkpt lat="44.3962" lon="1.026">
        <ele>246</ele>
        <time>2025-07-17T08:16:54.071Z</time>
      </trkpt>
      <trkpt lat="44.39621" lon="1.026">
        <ele>246</ele>
        <time>2025-07-17T08:16:55.071Z</time>
      </trkpt>
      <trkpt lat="44.39621" lon="1.026">
        <ele>246</ele>
        <time>2025-07-17T08:16:56.071Z</time>
      </trkpt>
      <trkpt lat="44.39621" lon="1.02601">
        <ele>246</ele>
        <time>2025-07-17T08:16:57.071Z</time>
      </trkpt>
      <trkpt lat="44.39621" lon="1.02601">
        <ele>245</ele>
        <time>2025-07-17T08:16:58.071Z</time>
      </trkpt>
      <trkpt lat="44.39621" lon="1.02601">
        <ele>245</ele>
        <time>2025-07-17T08:16:59.071Z</time>
      </trkpt>
      <trkpt lat="44.39621" lon="1.026">
        <ele>245</ele>
        <time>2025-07-17T08:17:00.071Z</time>
      </trkpt>
      <trkpt lat="44.39622" lon="1.026">
        <ele>244</ele>
        <time>2025-07-17T08:17:01.071Z</time>
      </trkpt>
      <trkpt lat="44.39622" lon="1.026">
        <ele>244</ele>
        <time>2025-07-17T08:17:02.071Z</time>
      </trkpt>
      <trkpt lat="44.39623" lon="1.026">
        <ele>243</ele>
        <time>2025-07-17T08:17:03.071Z</time>
      </trkpt>
      <trkpt lat="44.39623" lon="1.026">
        <ele>243</ele>
        <time>2025-07-17T08:17:04.071Z</time>
      </trkpt>
      <trkpt lat="44.39623" lon="1.026">
        <ele>243</ele>
        <time>2025-07-17T08:17:05.071Z</time>
      </trkpt>
      <trkpt lat="44.39624" lon="1.026">
        <ele>242</ele>
        <time>2025-07-17T08:17:06.071Z</time>
      </trkpt>
      <trkpt lat="44.39624" lon="1.026">
        <ele>242</ele>
        <time>2025-07-17T08:17:07.071Z</time>
      </trkpt>
      <trkpt lat="44.39624" lon="1.026">
        <ele>242</ele>
        <time>2025-07-17T08:17:08.071Z</time>
      </trkpt>
      <trkpt lat="44.39624" lon="1.026">
        <ele>242</ele>
        <time>2025-07-17T08:17:09.071Z</time>
      </trkpt>
      <trkpt lat="44.39624" lon="1.02601">
        <ele>242</ele>
        <time>2025-07-17T08:17:10.071Z</time>
      </trkpt>
      <trkpt lat="44.39624" lon="1.02601">
        <ele>242</ele>
        <time>2025-07-17T08:17:11.071Z</time>
      </trkpt>
      <trkpt lat="44.39623" lon="1.02602">
        <ele>242</ele>
        <time>2025-07-17T08:17:12.071Z</time>
      </trkpt>
      <trkpt lat="44.39623" lon="1.02602">
        <ele>242</ele>
        <time>2025-07-17T08:17:13.071Z</time>
      </trkpt>
      <trkpt lat="44.39623" lon="1.02602">
        <ele>242</ele>
        <time>2025-07-17T08:17:14.071Z</time>
      </trkpt>
      <trkpt lat="44.39623" lon="1.02602">
        <ele>242</ele>
        <time>2025-07-17T08:17:15.071Z</time>
      </trkpt>
      <trkpt lat="44.39623" lon="1.02602">
        <ele>242</ele>
        <time>2025-07-17T08:17:16.071Z</time>
      </trkpt>
      <trkpt lat="44.39623" lon="1.02602">
        <ele>242</ele>
        <time>2025-07-17T08:17:17.071Z</time>
      </trkpt>
      <trkpt lat="44.39623" lon="1.02602">
        <ele>242</ele>
        <time>2025-07-17T08:17:18.072Z</time>
      </trkpt>
      <trkpt lat="44.39623" lon="1.02601">
        <ele>242</ele>
        <time>2025-07-17T08:17:19.072Z</time>
      </trkpt>
      <trkpt lat="44.39623" lon="1.02601">
        <ele>243</ele>
        <time>2025-07-17T08:17:20.071Z</time>
      </trkpt>
      <trkpt lat="44.39623" lon="1.026">
        <ele>243</ele>
        <time>2025-07-17T08:17:21.071Z</time>
      </trkpt>
      <trkpt lat="44.39623" lon="1.026">
        <ele>243</ele>
        <time>2025-07-17T08:17:22.071Z</time>
      </trkpt>
      <trkpt lat="44.39623" lon="1.026">
        <ele>243</ele>
        <time>2025-07-17T08:17:23.071Z</time>
      </trkpt>
      <trkpt lat="44.39623" lon="1.026">
        <ele>244</ele>
        <time>2025-07-17T08:17:24.071Z</time>
      </trkpt>
      <trkpt lat="44.39623" lon="1.026">
        <ele>244</ele>
        <time>2025-07-17T08:17:25.072Z</time>
      </trkpt>
      <trkpt lat="44.39623" lon="1.026">
        <ele>244</ele>
        <time>2025-07-17T08:17:26.071Z</time>
      </trkpt>
      <trkpt lat="44.39623" lon="1.02599">
        <ele>244</ele>
        <time>2025-07-17T08:17:27.071Z</time>
      </trkpt>
      <trkpt lat="44.39623" lon="1.026">
        <ele>244</ele>
        <time>2025-07-17T08:17:28.072Z</time>
      </trkpt>
      <trkpt lat="44.39623" lon="1.026">
        <ele>244</ele>
        <time>2025-07-17T08:17:29.071Z</time>
      </trkpt>
      <trkpt lat="44.39621" lon="1.02599">
        <ele>244</ele>
        <time>2025-07-17T08:17:30.071Z</time>
      </trkpt>
      <trkpt lat="44.3962" lon="1.02599">
        <ele>244</ele>
        <time>2025-07-17T08:17:31.071Z</time>
      </trkpt>
      <trkpt lat="44.3962" lon="1.02599">
        <ele>244</ele>
        <time>2025-07-17T08:17:32.071Z</time>
      </trkpt>
      <trkpt lat="44.39619" lon="1.02599">
        <ele>244</ele>
        <time>2025-07-17T08:17:33.071Z</time>
      </trkpt>
      <trkpt lat="44.39619" lon="1.02599">
        <ele>244</ele>
        <time>2025-07-17T08:17:34.071Z</time>
      </trkpt>
      <trkpt lat="44.39619" lon="1.02599">
        <ele>244</ele>
        <time>2025-07-17T08:17:35.071Z</time>
      </trkpt>
      <trkpt lat="44.39619" lon="1.02599">
        <ele>245</ele>
        <time>2025-07-17T08:17:36.071Z</time>
      </trkpt>
      <trkpt lat="44.39619" lon="1.02599">
        <ele>245</ele>
        <time>2025-07-17T08:17:37.071Z</time>
      </trkpt>
      <trkpt lat="44.39619" lon="1.02599">
        <ele>245</ele>
        <time>2025-07-17T08:17:38.071Z</time>
      </trkpt>
      <trkpt lat="44.39619" lon="1.02598">
        <ele>246</ele>
        <time>2025-07-17T08:17:39.071Z</time>
      </trkpt>
      <trkpt lat="44.39619" lon="1.02598">
        <ele>246</ele>
        <time>2025-07-17T08:17:40.071Z</time>
      </trkpt>
      <trkpt lat="44.39619" lon="1.02598">
        <ele>246</ele>
        <time>2025-07-17T08:17:41.071Z</time>
      </trkpt>
      <trkpt lat="44.39618" lon="1.02598">
        <ele>247</ele>
        <time>2025-07-17T08:17:42.071Z</time>
      </trkpt>
      <trkpt lat="44.39619" lon="1.02598">
        <ele>248</ele>
        <time>2025-07-17T08:17:43.071Z</time>
      </trkpt>
      <trkpt lat="44.39619" lon="1.02598">
        <ele>248</ele>
        <time>2025-07-17T08:17:44.071Z</time>
      </trkpt>
      <trkpt lat="44.39619" lon="1.02598">
        <ele>248</ele>
        <time>2025-07-17T08:17:45.071Z</time>
      </trkpt>
      <trkpt lat="44.39618" lon="1.02598">
        <ele>248</ele>
        <time>2025-07-17T08:17:46.071Z</time>
      </trkpt>
      <trkpt lat="44.39618" lon="1.02598">
        <ele>248</ele>
        <time>2025-07-17T08:17:47.071Z</time>
      </trkpt>
      <trkpt lat="44.39618" lon="1.02598">
        <ele>249</ele>
        <time>2025-07-17T08:17:48.071Z</time>
      </trkpt>
      <trkpt lat="44.39617" lon="1.02598">
        <ele>249</ele>
        <time>2025-07-17T08:17:49.072Z</time>
      </trkpt>
      <trkpt lat="44.39617" lon="1.02598">
        <ele>249</ele>
        <time>2025-07-17T08:17:50.071Z</time>
      </trkpt>
      <trkpt lat="44.39615" lon="1.02598">
        <ele>250</ele>
        <time>2025-07-17T08:17:51.071Z</time>
      </trkpt>
      <trkpt lat="44.39614" lon="1.02598">
        <ele>250</ele>
        <time>2025-07-17T08:17:52.071Z</time>
      </trkpt>
      <trkpt lat="44.39614" lon="1.02598">
        <ele>250</ele>
        <time>2025-07-17T08:17:53.071Z</time>
      </trkpt>
      <trkpt lat="44.39613" lon="1.02599">
        <ele>250</ele>
        <time>2025-07-17T08:17:54.071Z</time>
      </trkpt>
      <trkpt lat="44.39612" lon="1.02599">
        <ele>250</ele>
        <time>2025-07-17T08:17:55.071Z</time>
      </trkpt>
      <trkpt lat="44.39612" lon="1.02599">
        <ele>250</ele>
        <time>2025-07-17T08:17:56.071Z</time>
      </trkpt>
      <trkpt lat="44.39612" lon="1.02599">
        <ele>250</ele>
        <time>2025-07-17T08:17:57.072Z</time>
      </trkpt>
      <trkpt lat="44.39611" lon="1.026">
        <ele>250</ele>
        <time>2025-07-17T08:17:58.072Z</time>
      </trkpt>
      <trkpt lat="44.3961" lon="1.026">
        <ele>250</ele>
        <time>2025-07-17T08:17:59.071Z</time>
      </trkpt>
      <trkpt lat="44.3961" lon="1.02599">
        <ele>250</ele>
        <time>2025-07-17T08:18:00.071Z</time>
      </trkpt>
      <trkpt lat="44.39608" lon="1.02598">
        <ele>251</ele>
        <time>2025-07-17T08:18:01.071Z</time>
      </trkpt>
      <trkpt lat="44.39608" lon="1.02598">
        <ele>251</ele>
        <time>2025-07-17T08:18:02.071Z</time>
      </trkpt>
      <trkpt lat="44.39608" lon="1.02597">
        <ele>251</ele>
        <time>2025-07-17T08:18:03.071Z</time>
      </trkpt>
      <trkpt lat="44.39609" lon="1.02598">
        <ele>251</ele>
        <time>2025-07-17T08:18:04.071Z</time>
      </trkpt>
      <trkpt lat="44.39609" lon="1.02598">
        <ele>251</ele>
        <time>2025-07-17T08:18:05.071Z</time>
      </trkpt>
      <trkpt lat="44.39609" lon="1.02598">
        <ele>250</ele>
        <time>2025-07-17T08:18:06.071Z</time>
      </trkpt>
      <trkpt lat="44.3961" lon="1.02598">
        <ele>250</ele>
        <time>2025-07-17T08:18:07.071Z</time>
      </trkpt>
      <trkpt lat="44.3961" lon="1.02598">
        <ele>250</ele>
        <time>2025-07-17T08:18:08.071Z</time>
      </trkpt>
      <trkpt lat="44.39611" lon="1.02598">
        <ele>250</ele>
        <time>2025-07-17T08:18:09.071Z</time>
      </trkpt>
      <trkpt lat="44.39611" lon="1.02598">
        <ele>250</ele>
        <time>2025-07-17T08:18:10.071Z</time>
      </trkpt>
      <trkpt lat="44.39611" lon="1.02598">
        <ele>250</ele>
        <time>2025-07-17T08:18:11.071Z</time>
      </trkpt>
      <trkpt lat="44.39611" lon="1.02599">
        <ele>250</ele>
        <time>2025-07-17T08:18:12.071Z</time>
      </trkpt>
      <trkpt lat="44.39612" lon="1.02598">
        <ele>249</ele>
        <time>2025-07-17T08:18:13.071Z</time>
      </trkpt>
      <trkpt lat="44.39612" lon="1.02598">
        <ele>249</ele>
        <time>2025-07-17T08:18:14.071Z</time>
      </trkpt>
      <trkpt lat="44.39612" lon="1.02599">
        <ele>249</ele>
        <time>2025-07-17T08:18:15.071Z</time>
      </trkpt>
      <trkpt lat="44.39612" lon="1.02599">
        <ele>249</ele>
        <time>2025-07-17T08:18:16.071Z</time>
      </trkpt>
      <trkpt lat="44.39612" lon="1.02599">
        <ele>249</ele>
        <time>2025-07-17T08:18:17.071Z</time>
      </trkpt>
      <trkpt lat="44.39613" lon="1.026">
        <ele>249</ele>
        <time>2025-07-17T08:18:18.071Z</time>
      </trkpt>
      <trkpt lat="44.39614" lon="1.026">
        <ele>249</ele>
        <time>2025-07-17T08:18:19.071Z</time>
      </trkpt>
      <trkpt lat="44.39614" lon="1.026">
        <ele>249</ele>
        <time>2025-07-17T08:18:20.071Z</time>
      </trkpt>
      <trkpt lat="44.39615" lon="1.026">
        <ele>250</ele>
        <time>2025-07-17T08:18:21.071Z</time>
      </trkpt>
      <trkpt lat="44.39615" lon="1.026">
        <ele>250</ele>
        <time>2025-07-17T08:18:22.071Z</time>
      </trkpt>
      <trkpt lat="44.39615" lon="1.026">
        <ele>250</ele>
        <time>2025-07-17T08:18:23.071Z</time>
      </trkpt>
      <trkpt lat="44.39615" lon="1.026">
        <ele>251</ele>
        <time>2025-07-17T08:18:24.071Z</time>
      </trkpt>
      <trkpt lat="44.39615" lon="1.026">
        <ele>251</ele>
        <time>2025-07-17T08:18:25.071Z</time>
      </trkpt>
      <trkpt lat="44.39615" lon="1.026">
        <ele>251</ele>
        <time>2025-07-17T08:18:26.071Z</time>
      </trkpt>
      <trkpt lat="44.39615" lon="1.02599">
        <ele>251</ele>
        <time>2025-07-17T08:18:27.071Z</time>
      </trkpt>
      <trkpt lat="44.39615" lon="1.02599">
        <ele>251</ele>
        <time>2025-07-17T08:18:28.071Z</time>
      </trkpt>
      <trkpt lat="44.39615" lon="1.02599">
        <ele>251</ele>
        <time>2025-07-17T08:18:29.071Z</time>
      </trkpt>
      <trkpt lat="44.39615" lon="1.02598">
        <ele>251</ele>
        <time>2025-07-17T08:18:30.072Z</time>
      </trkpt>
      <trkpt lat="44.39616" lon="1.02598">
        <ele>251</ele>
        <time>2025-07-17T08:18:31.072Z</time>
      </trkpt>
      <trkpt lat="44.39616" lon="1.02598">
        <ele>251</ele>
        <time>2025-07-17T08:18:32.071Z</time>
      </trkpt>
      <trkpt lat="44.39617" lon="1.02599">
        <ele>251</ele>
        <time>2025-07-17T08:18:33.072Z</time>
      </trkpt>
      <trkpt lat="44.39617" lon="1.02599">
        <ele>251</ele>
        <time>2025-07-17T08:18:34.071Z</time>
      </trkpt>
      <trkpt lat="44.39617" lon="1.02599">
        <ele>251</ele>
        <time>2025-07-17T08:18:35.071Z</time>
      </trkpt>
      <trkpt lat="44.39617" lon="1.02599">
        <ele>251</ele>
        <time>2025-07-17T08:18:36.071Z</time>
      </trkpt>
      <trkpt lat="44.39617" lon="1.02599">
        <ele>251</ele>
        <time>2025-07-17T08:18:37.072Z</time>
      </trkpt>
      <trkpt lat="44.39616" lon="1.02599">
        <ele>251</ele>
        <time>2025-07-17T08:18:38.071Z</time>
      </trkpt>
      <trkpt lat="44.39616" lon="1.02598">
        <ele>251</ele>
        <time>2025-07-17T08:18:39.072Z</time>
      </trkpt>
      <trkpt lat="44.39616" lon="1.02598">
        <ele>251</ele>
        <time>2025-07-17T08:18:40.071Z</time>
      </trkpt>
      <trkpt lat="44.39616" lon="1.02598">
        <ele>251</ele>
        <time>2025-07-17T08:18:41.071Z</time>
      </trkpt>
      <trkpt lat="44.39616" lon="1.02599">
        <ele>251</ele>
        <time>2025-07-17T08:18:42.071Z</time>
      </trkpt>
      <trkpt lat="44.39615" lon="1.02601">
        <ele>251</ele>
        <time>2025-07-17T08:18:43.071Z</time>
      </trkpt>
      <trkpt lat="44.39615" lon="1.02601">
        <ele>251</ele>
        <time>2025-07-17T08:18:44.071Z</time>
      </trkpt>
      <trkpt lat="44.39614" lon="1.02603">
        <ele>251</ele>
        <time>2025-07-17T08:18:45.071Z</time>
      </trkpt>
      <trkpt lat="44.39614" lon="1.02603">
        <ele>251</ele>
        <time>2025-07-17T08:18:46.071Z</time>
      </trkpt>
      <trkpt lat="44.39614" lon="1.02603">
        <ele>251</ele>
        <time>2025-07-17T08:18:47.071Z</time>
      </trkpt>
      <trkpt lat="44.39613" lon="1.02603">
        <ele>251</ele>
        <time>2025-07-17T08:18:48.071Z</time>
      </trkpt>
      <trkpt lat="44.39613" lon="1.02604">
        <ele>251</ele>
        <time>2025-07-17T08:18:49.072Z</time>
      </trkpt>
      <trkpt lat="44.39613" lon="1.02604">
        <ele>251</ele>
        <time>2025-07-17T08:18:50.071Z</time>
      </trkpt>
      <trkpt lat="44.39613" lon="1.02605">
        <ele>251</ele>
        <time>2025-07-17T08:18:51.071Z</time>
      </trkpt>
      <trkpt lat="44.39613" lon="1.02605">
        <ele>251</ele>
        <time>2025-07-17T08:18:52.071Z</time>
      </trkpt>
      <trkpt lat="44.39613" lon="1.02605">
        <ele>251</ele>
        <time>2025-07-17T08:18:53.071Z</time>
      </trkpt>
      <trkpt lat="44.39612" lon="1.02606">
        <ele>252</ele>
        <time>2025-07-17T08:18:54.071Z</time>
      </trkpt>
      <trkpt lat="44.39612" lon="1.02607">
        <ele>252</ele>
        <time>2025-07-17T08:18:55.071Z</time>
      </trkpt>
      <trkpt lat="44.39612" lon="1.02607">
        <ele>252</ele>
        <time>2025-07-17T08:18:56.071Z</time>
      </trkpt>
      <trkpt lat="44.39611" lon="1.02608">
        <ele>253</ele>
        <time>2025-07-17T08:18:57.071Z</time>
      </trkpt>
      <trkpt lat="44.39611" lon="1.02608">
        <ele>254</ele>
        <time>2025-07-17T08:18:58.072Z</time>
      </trkpt>
      <trkpt lat="44.39611" lon="1.02608">
        <ele>254</ele>
        <time>2025-07-17T08:18:59.071Z</time>
      </trkpt>
      <trkpt lat="44.39611" lon="1.02608">
        <ele>254</ele>
        <time>2025-07-17T08:19:00.071Z</time>
      </trkpt>
      <trkpt lat="44.39611" lon="1.02609">
        <ele>254</ele>
        <time>2025-07-17T08:19:01.071Z</time>
      </trkpt>
      <trkpt lat="44.39611" lon="1.02609">
        <ele>254</ele>
        <time>2025-07-17T08:19:02.071Z</time>
      </trkpt>
      <trkpt lat="44.39611" lon="1.0261">
        <ele>254</ele>
        <time>2025-07-17T08:19:03.071Z</time>
      </trkpt>
      <trkpt lat="44.3961" lon="1.02612">
        <ele>254</ele>
        <time>2025-07-17T08:19:04.071Z</time>
      </trkpt>
      <trkpt lat="44.3961" lon="1.02612">
        <ele>254</ele>
        <time>2025-07-17T08:19:05.071Z</time>
      </trkpt>
      <trkpt lat="44.39609" lon="1.02614">
        <ele>253</ele>
        <time>2025-07-17T08:19:06.071Z</time>
      </trkpt>
      <trkpt lat="44.39609" lon="1.02615">
        <ele>253</ele>
        <time>2025-07-17T08:19:07.071Z</time>
      </trkpt>
      <trkpt lat="44.39609" lon="1.02615">
        <ele>253</ele>
        <time>2025-07-17T08:19:08.071Z</time>
      </trkpt>
      <trkpt lat="44.39609" lon="1.02616">
        <ele>253</ele>
        <time>2025-07-17T08:19:09.071Z</time>
      </trkpt>
      <trkpt lat="44.39609" lon="1.02616">
        <ele>253</ele>
        <time>2025-07-17T08:19:10.071Z</time>
      </trkpt>
      <trkpt lat="44.39609" lon="1.02616">
        <ele>253</ele>
        <time>2025-07-17T08:19:11.071Z</time>
      </trkpt>
      <trkpt lat="44.39609" lon="1.02616">
        <ele>252</ele>
        <time>2025-07-17T08:19:12.071Z</time>
      </trkpt>
      <trkpt lat="44.39609" lon="1.02616">
        <ele>252</ele>
        <time>2025-07-17T08:19:13.071Z</time>
      </trkpt>
      <trkpt lat="44.39609" lon="1.02616">
        <ele>252</ele>
        <time>2025-07-17T08:19:14.071Z</time>
      </trkpt>
      <trkpt lat="44.3961" lon="1.02617">
        <ele>251</ele>
        <time>2025-07-17T08:19:15.071Z</time>
      </trkpt>
      <trkpt lat="44.3961" lon="1.02618">
        <ele>251</ele>
        <time>2025-07-17T08:19:16.072Z</time>
      </trkpt>
      <trkpt lat="44.3961" lon="1.02619">
        <ele>250</ele>
        <time>2025-07-17T08:19:17.071Z</time>
      </trkpt>
      <trkpt lat="44.39611" lon="1.02621">
        <ele>250</ele>
        <time>2025-07-17T08:19:18.072Z</time>
      </trkpt>
      <trkpt lat="44.39612" lon="1.02622">
        <ele>249</ele>
        <time>2025-07-17T08:19:19.072Z</time>
      </trkpt>
      <trkpt lat="44.39612" lon="1.02623">
        <ele>249</ele>
        <time>2025-07-17T08:19:20.071Z</time>
      </trkpt>
      <trkpt lat="44.39612" lon="1.02625">
        <ele>247</ele>
        <time>2025-07-17T08:19:21.071Z</time>
      </trkpt>
      <trkpt lat="44.39612" lon="1.02626">
        <ele>247</ele>
        <time>2025-07-17T08:19:22.071Z</time>
      </trkpt>
      <trkpt lat="44.39612" lon="1.02626">
        <ele>247</ele>
        <time>2025-07-17T08:19:23.071Z</time>
      </trkpt>
      <trkpt lat="44.39614" lon="1.02629">
        <ele>246</ele>
        <time>2025-07-17T08:19:24.071Z</time>
      </trkpt>
      <trkpt lat="44.39615" lon="1.0263">
        <ele>246</ele>
        <time>2025-07-17T08:19:25.071Z</time>
      </trkpt>
      <trkpt lat="44.39615" lon="1.0263">
        <ele>246</ele>
        <time>2025-07-17T08:19:26.071Z</time>
      </trkpt>
      <trkpt lat="44.39617" lon="1.02634">
        <ele>245</ele>
        <time>2025-07-17T08:19:27.071Z</time>
      </trkpt>
      <trkpt lat="44.39617" lon="1.02635">
        <ele>245</ele>
        <time>2025-07-17T08:19:28.071Z</time>
      </trkpt>
      <trkpt lat="44.39617" lon="1.02635">
        <ele>245</ele>
        <time>2025-07-17T08:19:29.071Z</time>
      </trkpt>
      <trkpt lat="44.39618" lon="1.02638">
        <ele>245</ele>
        <time>2025-07-17T08:19:30.071Z</time>
      </trkpt>
      <trkpt lat="44.39618" lon="1.02639">
        <ele>245</ele>
        <time>2025-07-17T08:19:31.071Z</time>
      </trkpt>
      <trkpt lat="44.39618" lon="1.02639">
        <ele>245</ele>
        <time>2025-07-17T08:19:32.071Z</time>
      </trkpt>
      <trkpt lat="44.39619" lon="1.02641">
        <ele>244</ele>
        <time>2025-07-17T08:19:33.072Z</time>
      </trkpt>
      <trkpt lat="44.39619" lon="1.02643">
        <ele>244</ele>
        <time>2025-07-17T08:19:34.071Z</time>
      </trkpt>
      <trkpt lat="44.39619" lon="1.02643">
        <ele>244</ele>
        <time>2025-07-17T08:19:35.071Z</time>
      </trkpt>
      <trkpt lat="44.3962" lon="1.02645">
        <ele>244</ele>
        <time>2025-07-17T08:19:36.071Z</time>
      </trkpt>
      <trkpt lat="44.3962" lon="1.02647">
        <ele>244</ele>
        <time>2025-07-17T08:19:37.071Z</time>
      </trkpt>
      <trkpt lat="44.3962" lon="1.02647">
        <ele>244</ele>
        <time>2025-07-17T08:19:38.071Z</time>
      </trkpt>
      <trkpt lat="44.39622" lon="1.02649">
        <ele>244</ele>
        <time>2025-07-17T08:19:39.071Z</time>
      </trkpt>
      <trkpt lat="44.39623" lon="1.0265">
        <ele>244</ele>
        <time>2025-07-17T08:19:40.071Z</time>
      </trkpt>
      <trkpt lat="44.39623" lon="1.0265">
        <ele>244</ele>
        <time>2025-07-17T08:19:41.071Z</time>
      </trkpt>
      <trkpt lat="44.39623" lon="1.02653">
        <ele>243</ele>
        <time>2025-07-17T08:19:42.071Z</time>
      </trkpt>
      <trkpt lat="44.39624" lon="1.02655">
        <ele>243</ele>
        <time>2025-07-17T08:19:43.071Z</time>
      </trkpt>
      <trkpt lat="44.39624" lon="1.02655">
        <ele>243</ele>
        <time>2025-07-17T08:19:44.071Z</time>
      </trkpt>
      <trkpt lat="44.39625" lon="1.02658">
        <ele>243</ele>
        <time>2025-07-17T08:19:45.071Z</time>
      </trkpt>
      <trkpt lat="44.39625" lon="1.0266">
        <ele>243</ele>
        <time>2025-07-17T08:19:46.071Z</time>
      </trkpt>
      <trkpt lat="44.39625" lon="1.0266">
        <ele>243</ele>
        <time>2025-07-17T08:19:47.071Z</time>
      </trkpt>
      <trkpt lat="44.39626" lon="1.02663">
        <ele>243</ele>
        <time>2025-07-17T08:19:48.071Z</time>
      </trkpt>
      <trkpt lat="44.39626" lon="1.02665">
        <ele>243</ele>
        <time>2025-07-17T08:19:49.071Z</time>
      </trkpt>
      <trkpt lat="44.39626" lon="1.02665">
        <ele>243</ele>
        <time>2025-07-17T08:19:50.071Z</time>
      </trkpt>
      <trkpt lat="44.39627" lon="1.02668">
        <ele>243</ele>
        <time>2025-07-17T08:19:51.071Z</time>
      </trkpt>
      <trkpt lat="44.39628" lon="1.02669">
        <ele>243</ele>
        <time>2025-07-17T08:19:52.071Z</time>
      </trkpt>
      <trkpt lat="44.39628" lon="1.02669">
        <ele>243</ele>
        <time>2025-07-17T08:19:53.071Z</time>
      </trkpt>
      <trkpt lat="44.39628" lon="1.02671">
        <ele>243</ele>
        <time>2025-07-17T08:19:54.071Z</time>
      </trkpt>
      <trkpt lat="44.39629" lon="1.02673">
        <ele>243</ele>
        <time>2025-07-17T08:19:55.072Z</time>
      </trkpt>
      <trkpt lat="44.39629" lon="1.02675">
        <ele>243</ele>
        <time>2025-07-17T08:19:56.072Z</time>
      </trkpt>
      <trkpt lat="44.39629" lon="1.02677">
        <ele>243</ele>
        <time>2025-07-17T08:19:57.072Z</time>
      </trkpt>
      <trkpt lat="44.3963" lon="1.02678">
        <ele>243</ele>
        <time>2025-07-17T08:19:58.072Z</time>
      </trkpt>
      <trkpt lat="44.3963" lon="1.0268">
        <ele>243</ele>
        <time>2025-07-17T08:19:59.071Z</time>
      </trkpt>
      <trkpt lat="44.39631" lon="1.02684">
        <ele>242</ele>
        <time>2025-07-17T08:20:00.071Z</time>
      </trkpt>
      <trkpt lat="44.39632" lon="1.02685">
        <ele>242</ele>
        <time>2025-07-17T08:20:01.071Z</time>
      </trkpt>
      <trkpt lat="44.39632" lon="1.02685">
        <ele>242</ele>
        <time>2025-07-17T08:20:02.071Z</time>
      </trkpt>
      <trkpt lat="44.39633" lon="1.02688">
        <ele>242</ele>
        <time>2025-07-17T08:20:03.072Z</time>
      </trkpt>
      <trkpt lat="44.39633" lon="1.02688">
        <ele>242</ele>
        <time>2025-07-17T08:20:04.071Z</time>
      </trkpt>
      <trkpt lat="44.39634" lon="1.02689">
        <ele>242</ele>
        <time>2025-07-17T08:20:05.071Z</time>
      </trkpt>
      <trkpt lat="44.39635" lon="1.02693">
        <ele>242</ele>
        <time>2025-07-17T08:20:06.071Z</time>
      </trkpt>
      <trkpt lat="44.39635" lon="1.02694">
        <ele>243</ele>
        <time>2025-07-17T08:20:07.071Z</time>
      </trkpt>
      <trkpt lat="44.39635" lon="1.02694">
        <ele>243</ele>
        <time>2025-07-17T08:20:08.071Z</time>
      </trkpt>
      <trkpt lat="44.39637" lon="1.02697">
        <ele>243</ele>
        <time>2025-07-17T08:20:09.071Z</time>
      </trkpt>
      <trkpt lat="44.39638" lon="1.02699">
        <ele>243</ele>
        <time>2025-07-17T08:20:10.071Z</time>
      </trkpt>
      <trkpt lat="44.39638" lon="1.02699">
        <ele>243</ele>
        <time>2025-07-17T08:20:11.071Z</time>
      </trkpt>
      <trkpt lat="44.39639" lon="1.02702">
        <ele>243</ele>
        <time>2025-07-17T08:20:12.071Z</time>
      </trkpt>
      <trkpt lat="44.3964" lon="1.02704">
        <ele>243</ele>
        <time>2025-07-17T08:20:13.071Z</time>
      </trkpt>
      <trkpt lat="44.3964" lon="1.02704">
        <ele>243</ele>
        <time>2025-07-17T08:20:14.071Z</time>
      </trkpt>
      <trkpt lat="44.39641" lon="1.02706">
        <ele>242</ele>
        <time>2025-07-17T08:20:15.071Z</time>
      </trkpt>
      <trkpt lat="44.39642" lon="1.02708">
        <ele>242</ele>
        <time>2025-07-17T08:20:16.072Z</time>
      </trkpt>
      <trkpt lat="44.39642" lon="1.02708">
        <ele>242</ele>
        <time>2025-07-17T08:20:17.071Z</time>
      </trkpt>
      <trkpt lat="44.39643" lon="1.02711">
        <ele>242</ele>
        <time>2025-07-17T08:20:18.071Z</time>
      </trkpt>
      <trkpt lat="44.39643" lon="1.02712">
        <ele>242</ele>
        <time>2025-07-17T08:20:19.071Z</time>
      </trkpt>
      <trkpt lat="44.39643" lon="1.02712">
        <ele>242</ele>
        <time>2025-07-17T08:20:20.071Z</time>
      </trkpt>
      <trkpt lat="44.39643" lon="1.02716">
        <ele>241</ele>
        <time>2025-07-17T08:20:21.071Z</time>
      </trkpt>
      <trkpt lat="44.39643" lon="1.02717">
        <ele>241</ele>
        <time>2025-07-17T08:20:22.071Z</time>
      </trkpt>
      <trkpt lat="44.39643" lon="1.02717">
        <ele>241</ele>
        <time>2025-07-17T08:20:23.071Z</time>
      </trkpt>
      <trkpt lat="44.39644" lon="1.0272">
        <ele>241</ele>
        <time>2025-07-17T08:20:24.071Z</time>
      </trkpt>
      <trkpt lat="44.39644" lon="1.02721">
        <ele>241</ele>
        <time>2025-07-17T08:20:25.071Z</time>
      </trkpt>
      <trkpt lat="44.39644" lon="1.02721">
        <ele>241</ele>
        <time>2025-07-17T08:20:26.071Z</time>
      </trkpt>
      <trkpt lat="44.39646" lon="1.02724">
        <ele>241</ele>
        <time>2025-07-17T08:20:27.071Z</time>
      </trkpt>
      <trkpt lat="44.39646" lon="1.02725">
        <ele>241</ele>
        <time>2025-07-17T08:20:28.071Z</time>
      </trkpt>
      <trkpt lat="44.39646" lon="1.02725">
        <ele>241</ele>
        <time>2025-07-17T08:20:29.071Z</time>
      </trkpt>
      <trkpt lat="44.39646" lon="1.02727">
        <ele>242</ele>
        <time>2025-07-17T08:20:30.071Z</time>
      </trkpt>
      <trkpt lat="44.39647" lon="1.02729">
        <ele>242</ele>
        <time>2025-07-17T08:20:31.071Z</time>
      </trkpt>
      <trkpt lat="44.39647" lon="1.02729">
        <ele>242</ele>
        <time>2025-07-17T08:20:32.071Z</time>
      </trkpt>
      <trkpt lat="44.39648" lon="1.02731">
        <ele>242</ele>
        <time>2025-07-17T08:20:33.071Z</time>
      </trkpt>
      <trkpt lat="44.39648" lon="1.02731">
        <ele>242</ele>
        <time>2025-07-17T08:20:34.072Z</time>
      </trkpt>
      <trkpt lat="44.39649" lon="1.02733">
        <ele>242</ele>
        <time>2025-07-17T08:20:35.071Z</time>
      </trkpt>
      <trkpt lat="44.39651" lon="1.02734">
        <ele>241</ele>
        <time>2025-07-17T08:20:36.072Z</time>
      </trkpt>
      <trkpt lat="44.39652" lon="1.02736">
        <ele>241</ele>
        <time>2025-07-17T08:20:37.072Z</time>
      </trkpt>
      <trkpt lat="44.39652" lon="1.02738">
        <ele>241</ele>
        <time>2025-07-17T08:20:38.071Z</time>
      </trkpt>
      <trkpt lat="44.39654" lon="1.02742">
        <ele>241</ele>
        <time>2025-07-17T08:20:39.072Z</time>
      </trkpt>
      <trkpt lat="44.39654" lon="1.02744">
        <ele>241</ele>
        <time>2025-07-17T08:20:40.071Z</time>
      </trkpt>
      <trkpt lat="44.39654" lon="1.02744">
        <ele>241</ele>
        <time>2025-07-17T08:20:41.071Z</time>
      </trkpt>
      <trkpt lat="44.39655" lon="1.02747">
        <ele>241</ele>
        <time>2025-07-17T08:20:42.071Z</time>
      </trkpt>
      <trkpt lat="44.39655" lon="1.02749">
        <ele>241</ele>
        <time>2025-07-17T08:20:43.071Z</time>
      </trkpt>
      <trkpt lat="44.39655" lon="1.02749">
        <ele>241</ele>
        <time>2025-07-17T08:20:44.071Z</time>
      </trkpt>
      <trkpt lat="44.39655" lon="1.02753">
        <ele>240</ele>
        <time>2025-07-17T08:20:45.071Z</time>
      </trkpt>
      <trkpt lat="44.39656" lon="1.02754">
        <ele>240</ele>
        <time>2025-07-17T08:20:46.071Z</time>
      </trkpt>
      <trkpt lat="44.39656" lon="1.02754">
        <ele>240</ele>
        <time>2025-07-17T08:20:47.071Z</time>
      </trkpt>
      <trkpt lat="44.39657" lon="1.02758">
        <ele>240</ele>
        <time>2025-07-17T08:20:48.072Z</time>
      </trkpt>
      <trkpt lat="44.39658" lon="1.0276">
        <ele>240</ele>
        <time>2025-07-17T08:20:49.071Z</time>
      </trkpt>
      <trkpt lat="44.39658" lon="1.0276">
        <ele>240</ele>
        <time>2025-07-17T08:20:50.071Z</time>
      </trkpt>
      <trkpt lat="44.39659" lon="1.02764">
        <ele>240</ele>
        <time>2025-07-17T08:20:51.071Z</time>
      </trkpt>
      <trkpt lat="44.3966" lon="1.02765">
        <ele>240</ele>
        <time>2025-07-17T08:20:52.071Z</time>
      </trkpt>
      <trkpt lat="44.3966" lon="1.02765">
        <ele>240</ele>
        <time>2025-07-17T08:20:53.071Z</time>
      </trkpt>
      <trkpt lat="44.39661" lon="1.02769">
        <ele>239</ele>
        <time>2025-07-17T08:20:54.072Z</time>
      </trkpt>
      <trkpt lat="44.39661" lon="1.02771">
        <ele>239</ele>
        <time>2025-07-17T08:20:55.071Z</time>
      </trkpt>
      <trkpt lat="44.39661" lon="1.02771">
        <ele>239</ele>
        <time>2025-07-17T08:20:56.071Z</time>
      </trkpt>
      <trkpt lat="44.39662" lon="1.02775">
        <ele>239</ele>
        <time>2025-07-17T08:20:57.071Z</time>
      </trkpt>
      <trkpt lat="44.39663" lon="1.02777">
        <ele>239</ele>
        <time>2025-07-17T08:20:58.072Z</time>
      </trkpt>
      <trkpt lat="44.39663" lon="1.02777">
        <ele>239</ele>
        <time>2025-07-17T08:20:59.071Z</time>
      </trkpt>
      <trkpt lat="44.39664" lon="1.02781">
        <ele>239</ele>
        <time>2025-07-17T08:21:00.071Z</time>
      </trkpt>
      <trkpt lat="44.39665" lon="1.02783">
        <ele>239</ele>
        <time>2025-07-17T08:21:01.072Z</time>
      </trkpt>
      <trkpt lat="44.39665" lon="1.02783">
        <ele>239</ele>
        <time>2025-07-17T08:21:02.071Z</time>
      </trkpt>
      <trkpt lat="44.39665" lon="1.02786">
        <ele>240</ele>
        <time>2025-07-17T08:21:03.071Z</time>
      </trkpt>
      <trkpt lat="44.39666" lon="1.02788">
        <ele>240</ele>
        <time>2025-07-17T08:21:04.071Z</time>
      </trkpt>
      <trkpt lat="44.39666" lon="1.02788">
        <ele>240</ele>
        <time>2025-07-17T08:21:05.072Z</time>
      </trkpt>
      <trkpt lat="44.39667" lon="1.02791">
        <ele>240</ele>
        <time>2025-07-17T08:21:06.071Z</time>
      </trkpt>
      <trkpt lat="44.39668" lon="1.02793">
        <ele>240</ele>
        <time>2025-07-17T08:21:07.071Z</time>
      </trkpt>
      <trkpt lat="44.39668" lon="1.02793">
        <ele>240</ele>
        <time>2025-07-17T08:21:08.071Z</time>
      </trkpt>
      <trkpt lat="44.39669" lon="1.02796">
        <ele>241</ele>
        <time>2025-07-17T08:21:09.071Z</time>
      </trkpt>
      <trkpt lat="44.39669" lon="1.02798">
        <ele>241</ele>
        <time>2025-07-17T08:21:10.071Z</time>
      </trkpt>
      <trkpt lat="44.39669" lon="1.02798">
        <ele>241</ele>
        <time>2025-07-17T08:21:11.072Z</time>
      </trkpt>
      <trkpt lat="44.3967" lon="1.02801">
        <ele>241</ele>
        <time>2025-07-17T08:21:12.071Z</time>
      </trkpt>
      <trkpt lat="44.3967" lon="1.02801">
        <ele>241</ele>
        <time>2025-07-17T08:21:13.071Z</time>
      </trkpt>
      <trkpt lat="44.3967" lon="1.02802">
        <ele>241</ele>
        <time>2025-07-17T08:21:14.071Z</time>
      </trkpt>
      <trkpt lat="44.39671" lon="1.02804">
        <ele>241</ele>
        <time>2025-07-17T08:21:15.072Z</time>
      </trkpt>
      <trkpt lat="44.39671" lon="1.02806">
        <ele>241</ele>
        <time>2025-07-17T08:21:16.072Z</time>
      </trkpt>
      <trkpt lat="44.39672" lon="1.02808">
        <ele>241</ele>
        <time>2025-07-17T08:21:17.071Z</time>
      </trkpt>
      <trkpt lat="44.39673" lon="1.02812">
        <ele>241</ele>
        <time>2025-07-17T08:21:18.071Z</time>
      </trkpt>
      <trkpt lat="44.39673" lon="1.02814">
        <ele>241</ele>
        <time>2025-07-17T08:21:19.071Z</time>
      </trkpt>
      <trkpt lat="44.39673" lon="1.02814">
        <ele>241</ele>
        <time>2025-07-17T08:21:20.071Z</time>
      </trkpt>
      <trkpt lat="44.39674" lon="1.02818">
        <ele>241</ele>
        <time>2025-07-17T08:21:21.071Z</time>
      </trkpt>
      <trkpt lat="44.39675" lon="1.0282">
        <ele>241</ele>
        <time>2025-07-17T08:21:22.071Z</time>
      </trkpt>
      <trkpt lat="44.39675" lon="1.0282">
        <ele>241</ele>
        <time>2025-07-17T08:21:23.071Z</time>
      </trkpt>
      <trkpt lat="44.39677" lon="1.02824">
        <ele>241</ele>
        <time>2025-07-17T08:21:24.071Z</time>
      </trkpt>
      <trkpt lat="44.39677" lon="1.02825">
        <ele>241</ele>
        <time>2025-07-17T08:21:25.071Z</time>
      </trkpt>
      <trkpt lat="44.39677" lon="1.02825">
        <ele>241</ele>
        <time>2025-07-17T08:21:26.071Z</time>
      </trkpt>
      <trkpt lat="44.39678" lon="1.02829">
        <ele>241</ele>
        <time>2025-07-17T08:21:27.071Z</time>
      </trkpt>
      <trkpt lat="44.39678" lon="1.02831">
        <ele>240</ele>
        <time>2025-07-17T08:21:28.071Z</time>
      </trkpt>
      <trkpt lat="44.39678" lon="1.02831">
        <ele>240</ele>
        <time>2025-07-17T08:21:29.071Z</time>
      </trkpt>
      <trkpt lat="44.3968" lon="1.02833">
        <ele>240</ele>
        <time>2025-07-17T08:21:30.071Z</time>
      </trkpt>
      <trkpt lat="44.39681" lon="1.02835">
        <ele>240</ele>
        <time>2025-07-17T08:21:31.071Z</time>
      </trkpt>
      <trkpt lat="44.39681" lon="1.02835">
        <ele>240</ele>
        <time>2025-07-17T08:21:32.071Z</time>
      </trkpt>
      <trkpt lat="44.39681" lon="1.02838">
        <ele>241</ele>
        <time>2025-07-17T08:21:33.071Z</time>
      </trkpt>
      <trkpt lat="44.39681" lon="1.0284">
        <ele>241</ele>
        <time>2025-07-17T08:21:34.071Z</time>
      </trkpt>
      <trkpt lat="44.39681" lon="1.0284">
        <ele>241</ele>
        <time>2025-07-17T08:21:35.071Z</time>
      </trkpt>
      <trkpt lat="44.39683" lon="1.02843">
        <ele>241</ele>
        <time>2025-07-17T08:21:36.071Z</time>
      </trkpt>
      <trkpt lat="44.39683" lon="1.02845">
        <ele>241</ele>
        <time>2025-07-17T08:21:37.071Z</time>
      </trkpt>
      <trkpt lat="44.39683" lon="1.02845">
        <ele>241</ele>
        <time>2025-07-17T08:21:38.071Z</time>
      </trkpt>
      <trkpt lat="44.39684" lon="1.02849">
        <ele>242</ele>
        <time>2025-07-17T08:21:39.071Z</time>
      </trkpt>
      <trkpt lat="44.39685" lon="1.02851">
        <ele>242</ele>
        <time>2025-07-17T08:21:40.071Z</time>
      </trkpt>
      <trkpt lat="44.39685" lon="1.02851">
        <ele>242</ele>
        <time>2025-07-17T08:21:41.071Z</time>
      </trkpt>
      <trkpt lat="44.39686" lon="1.02854">
        <ele>242</ele>
        <time>2025-07-17T08:21:42.071Z</time>
      </trkpt>
      <trkpt lat="44.39687" lon="1.02856">
        <ele>242</ele>
        <time>2025-07-17T08:21:43.071Z</time>
      </trkpt>
      <trkpt lat="44.39687" lon="1.02856">
        <ele>242</ele>
        <time>2025-07-17T08:21:44.071Z</time>
      </trkpt>
      <trkpt lat="44.39689" lon="1.02859">
        <ele>242</ele>
        <time>2025-07-17T08:21:45.071Z</time>
      </trkpt>
      <trkpt lat="44.39689" lon="1.02861">
        <ele>242</ele>
        <time>2025-07-17T08:21:46.072Z</time>
      </trkpt>
      <trkpt lat="44.39689" lon="1.02861">
        <ele>242</ele>
        <time>2025-07-17T08:21:47.071Z</time>
      </trkpt>
      <trkpt lat="44.3969" lon="1.02864">
        <ele>242</ele>
        <time>2025-07-17T08:21:48.071Z</time>
      </trkpt>
      <trkpt lat="44.39691" lon="1.02866">
        <ele>242</ele>
        <time>2025-07-17T08:21:49.071Z</time>
      </trkpt>
      <trkpt lat="44.39691" lon="1.02866">
        <ele>242</ele>
        <time>2025-07-17T08:21:50.071Z</time>
      </trkpt>
      <trkpt lat="44.39693" lon="1.02869">
        <ele>242</ele>
        <time>2025-07-17T08:21:51.071Z</time>
      </trkpt>
      <trkpt lat="44.39693" lon="1.02869">
        <ele>242</ele>
        <time>2025-07-17T08:21:52.071Z</time>
      </trkpt>
      <trkpt lat="44.39693" lon="1.0287">
        <ele>242</ele>
        <time>2025-07-17T08:21:53.071Z</time>
      </trkpt>
      <trkpt lat="44.39693" lon="1.02872">
        <ele>243</ele>
        <time>2025-07-17T08:21:54.072Z</time>
      </trkpt>
      <trkpt lat="44.39694" lon="1.02874">
        <ele>242</ele>
        <time>2025-07-17T08:21:55.072Z</time>
      </trkpt>
      <trkpt lat="44.39695" lon="1.02875">
        <ele>242</ele>
        <time>2025-07-17T08:21:56.071Z</time>
      </trkpt>
      <trkpt lat="44.39696" lon="1.02879">
        <ele>242</ele>
        <time>2025-07-17T08:21:57.071Z</time>
      </trkpt>
      <trkpt lat="44.39697" lon="1.0288">
        <ele>242</ele>
        <time>2025-07-17T08:21:58.072Z</time>
      </trkpt>
      <trkpt lat="44.39697" lon="1.0288">
        <ele>242</ele>
        <time>2025-07-17T08:21:59.071Z</time>
      </trkpt>
      <trkpt lat="44.39699" lon="1.02884">
        <ele>243</ele>
        <time>2025-07-17T08:22:00.071Z</time>
      </trkpt>
      <trkpt lat="44.39699" lon="1.02885">
        <ele>243</ele>
        <time>2025-07-17T08:22:01.071Z</time>
      </trkpt>
      <trkpt lat="44.39699" lon="1.02885">
        <ele>243</ele>
        <time>2025-07-17T08:22:02.071Z</time>
      </trkpt>
      <trkpt lat="44.39701" lon="1.02889">
        <ele>243</ele>
        <time>2025-07-17T08:22:03.071Z</time>
      </trkpt>
      <trkpt lat="44.39701" lon="1.0289">
        <ele>242</ele>
        <time>2025-07-17T08:22:04.072Z</time>
      </trkpt>
      <trkpt lat="44.39701" lon="1.0289">
        <ele>242</ele>
        <time>2025-07-17T08:22:05.071Z</time>
      </trkpt>
      <trkpt lat="44.39702" lon="1.02893">
        <ele>242</ele>
        <time>2025-07-17T08:22:06.071Z</time>
      </trkpt>
      <trkpt lat="44.39703" lon="1.02895">
        <ele>242</ele>
        <time>2025-07-17T08:22:07.071Z</time>
      </trkpt>
      <trkpt lat="44.39703" lon="1.02895">
        <ele>242</ele>
        <time>2025-07-17T08:22:08.071Z</time>
      </trkpt>
      <trkpt lat="44.39703" lon="1.02898">
        <ele>241</ele>
        <time>2025-07-17T08:22:09.071Z</time>
      </trkpt>
      <trkpt lat="44.39704" lon="1.02899">
        <ele>241</ele>
        <time>2025-07-17T08:22:10.071Z</time>
      </trkpt>
      <trkpt lat="44.39704" lon="1.02899">
        <ele>241</ele>
        <time>2025-07-17T08:22:11.071Z</time>
      </trkpt>
      <trkpt lat="44.39706" lon="1.02903">
        <ele>242</ele>
        <time>2025-07-17T08:22:12.071Z</time>
      </trkpt>
      <trkpt lat="44.39706" lon="1.02905">
        <ele>242</ele>
        <time>2025-07-17T08:22:13.072Z</time>
      </trkpt>
      <trkpt lat="44.39706" lon="1.02905">
        <ele>242</ele>
        <time>2025-07-17T08:22:14.071Z</time>
      </trkpt>
      <trkpt lat="44.39707" lon="1.02908">
        <ele>242</ele>
        <time>2025-07-17T08:22:15.071Z</time>
      </trkpt>
      <trkpt lat="44.39708" lon="1.0291">
        <ele>242</ele>
        <time>2025-07-17T08:22:16.071Z</time>
      </trkpt>
      <trkpt lat="44.39708" lon="1.0291">
        <ele>242</ele>
        <time>2025-07-17T08:22:17.072Z</time>
      </trkpt>
      <trkpt lat="44.39708" lon="1.02913">
        <ele>242</ele>
        <time>2025-07-17T08:22:18.071Z</time>
      </trkpt>
      <trkpt lat="44.39709" lon="1.02914">
        <ele>242</ele>
        <time>2025-07-17T08:22:19.071Z</time>
      </trkpt>
      <trkpt lat="44.39709" lon="1.02914">
        <ele>242</ele>
        <time>2025-07-17T08:22:20.071Z</time>
      </trkpt>
      <trkpt lat="44.3971" lon="1.02917">
        <ele>242</ele>
        <time>2025-07-17T08:22:21.071Z</time>
      </trkpt>
      <trkpt lat="44.3971" lon="1.02919">
        <ele>243</ele>
        <time>2025-07-17T08:22:22.071Z</time>
      </trkpt>
      <trkpt lat="44.3971" lon="1.02919">
        <ele>243</ele>
        <time>2025-07-17T08:22:23.071Z</time>
      </trkpt>
      <trkpt lat="44.3971" lon="1.02922">
        <ele>243</ele>
        <time>2025-07-17T08:22:24.072Z</time>
      </trkpt>
      <trkpt lat="44.3971" lon="1.02924">
        <ele>243</ele>
        <time>2025-07-17T08:22:25.072Z</time>
      </trkpt>
      <trkpt lat="44.3971" lon="1.02924">
        <ele>243</ele>
        <time>2025-07-17T08:22:26.071Z</time>
      </trkpt>
      <trkpt lat="44.39708" lon="1.02927">
        <ele>244</ele>
        <time>2025-07-17T08:22:27.071Z</time>
      </trkpt>
      <trkpt lat="44.39707" lon="1.02928">
        <ele>244</ele>
        <time>2025-07-17T08:22:28.071Z</time>
      </trkpt>
      <trkpt lat="44.39707" lon="1.02928">
        <ele>244</ele>
        <time>2025-07-17T08:22:29.071Z</time>
      </trkpt>
      <trkpt lat="44.39706" lon="1.02929">
        <ele>244</ele>
        <time>2025-07-17T08:22:30.071Z</time>
      </trkpt>
      <trkpt lat="44.39704" lon="1.02931">
        <ele>244</ele>
        <time>2025-07-17T08:22:31.071Z</time>
      </trkpt>
      <trkpt lat="44.39703" lon="1.02932">
        <ele>243</ele>
        <time>2025-07-17T08:22:32.071Z</time>
      </trkpt>
      <trkpt lat="44.39702" lon="1.02934">
        <ele>243</ele>
        <time>2025-07-17T08:22:33.072Z</time>
      </trkpt>
      <trkpt lat="44.39699" lon="1.02935">
        <ele>243</ele>
        <time>2025-07-17T08:22:34.072Z</time>
      </trkpt>
      <trkpt lat="44.39698" lon="1.02936">
        <ele>243</ele>
        <time>2025-07-17T08:22:35.071Z</time>
      </trkpt>
      <trkpt lat="44.39695" lon="1.02937">
        <ele>243</ele>
        <time>2025-07-17T08:22:36.071Z</time>
      </trkpt>
      <trkpt lat="44.39695" lon="1.02937">
        <ele>243</ele>
        <time>2025-07-17T08:22:37.071Z</time>
      </trkpt>
      <trkpt lat="44.39694" lon="1.02937">
        <ele>243</ele>
        <time>2025-07-17T08:22:38.071Z</time>
      </trkpt>
      <trkpt lat="44.39692" lon="1.02939">
        <ele>243</ele>
        <time>2025-07-17T08:22:39.071Z</time>
      </trkpt>
      <trkpt lat="44.39692" lon="1.02939">
        <ele>243</ele>
        <time>2025-07-17T08:22:40.071Z</time>
      </trkpt>
      <trkpt lat="44.39691" lon="1.02938">
        <ele>242</ele>
        <time>2025-07-17T08:22:41.071Z</time>
      </trkpt>
      <trkpt lat="44.3969" lon="1.02938">
        <ele>241</ele>
        <time>2025-07-17T08:22:42.071Z</time>
      </trkpt>
      <trkpt lat="44.39689" lon="1.02938">
        <ele>241</ele>
        <time>2025-07-17T08:22:43.071Z</time>
      </trkpt>
      <trkpt lat="44.39689" lon="1.02938">
        <ele>241</ele>
        <time>2025-07-17T08:22:44.071Z</time>
      </trkpt>
      <trkpt lat="44.39688" lon="1.0294">
        <ele>239</ele>
        <time>2025-07-17T08:22:45.071Z</time>
      </trkpt>
      <trkpt lat="44.39687" lon="1.02941">
        <ele>239</ele>
        <time>2025-07-17T08:22:46.071Z</time>
      </trkpt>
      <trkpt lat="44.39687" lon="1.02941">
        <ele>239</ele>
        <time>2025-07-17T08:22:47.071Z</time>
      </trkpt>
      <trkpt lat="44.39685" lon="1.02941">
        <ele>237</ele>
        <time>2025-07-17T08:22:48.071Z</time>
      </trkpt>
      <trkpt lat="44.39685" lon="1.02941">
        <ele>236</ele>
        <time>2025-07-17T08:22:49.071Z</time>
      </trkpt>
      <trkpt lat="44.39685" lon="1.02941">
        <ele>236</ele>
        <time>2025-07-17T08:22:50.071Z</time>
      </trkpt>
      <trkpt lat="44.39684" lon="1.02941">
        <ele>236</ele>
        <time>2025-07-17T08:22:51.071Z</time>
      </trkpt>
      <trkpt lat="44.39682" lon="1.0294">
        <ele>235</ele>
        <time>2025-07-17T08:22:52.072Z</time>
      </trkpt>
      <trkpt lat="44.39682" lon="1.0294">
        <ele>235</ele>
        <time>2025-07-17T08:22:53.071Z</time>
      </trkpt>
      <trkpt lat="44.39681" lon="1.0294">
        <ele>235</ele>
        <time>2025-07-17T08:22:54.071Z</time>
      </trkpt>
      <trkpt lat="44.39679" lon="1.0294">
        <ele>235</ele>
        <time>2025-07-17T08:22:55.071Z</time>
      </trkpt>
      <trkpt lat="44.39679" lon="1.0294">
        <ele>235</ele>
        <time>2025-07-17T08:22:56.071Z</time>
      </trkpt>
      <trkpt lat="44.39677" lon="1.0294">
        <ele>236</ele>
        <time>2025-07-17T08:22:57.071Z</time>
      </trkpt>
      <trkpt lat="44.39675" lon="1.0294">
        <ele>236</ele>
        <time>2025-07-17T08:22:58.071Z</time>
      </trkpt>
      <trkpt lat="44.39675" lon="1.0294">
        <ele>236</ele>
        <time>2025-07-17T08:22:59.071Z</time>
      </trkpt>
      <trkpt lat="44.39673" lon="1.0294">
        <ele>236</ele>
        <time>2025-07-17T08:23:00.071Z</time>
      </trkpt>
      <trkpt lat="44.39672" lon="1.0294">
        <ele>236</ele>
        <time>2025-07-17T08:23:01.071Z</time>
      </trkpt>
      <trkpt lat="44.39672" lon="1.0294">
        <ele>236</ele>
        <time>2025-07-17T08:23:02.072Z</time>
      </trkpt>
      <trkpt lat="44.39671" lon="1.02942">
        <ele>236</ele>
        <time>2025-07-17T08:23:03.072Z</time>
      </trkpt>
      <trkpt lat="44.3967" lon="1.02943">
        <ele>236</ele>
        <time>2025-07-17T08:23:04.071Z</time>
      </trkpt>
      <trkpt lat="44.3967" lon="1.02943">
        <ele>236</ele>
        <time>2025-07-17T08:23:05.071Z</time>
      </trkpt>
      <trkpt lat="44.39668" lon="1.02943">
        <ele>237</ele>
        <time>2025-07-17T08:23:06.071Z</time>
      </trkpt>
      <trkpt lat="44.39666" lon="1.02943">
        <ele>237</ele>
        <time>2025-07-17T08:23:07.071Z</time>
      </trkpt>
      <trkpt lat="44.39666" lon="1.02943">
        <ele>237</ele>
        <time>2025-07-17T08:23:08.071Z</time>
      </trkpt>
      <trkpt lat="44.39664" lon="1.02942">
        <ele>238</ele>
        <time>2025-07-17T08:23:09.071Z</time>
      </trkpt>
      <trkpt lat="44.39664" lon="1.02942">
        <ele>238</ele>
        <time>2025-07-17T08:23:10.071Z</time>
      </trkpt>
      <trkpt lat="44.39663" lon="1.02942">
        <ele>238</ele>
        <time>2025-07-17T08:23:11.071Z</time>
      </trkpt>
      <trkpt lat="44.39662" lon="1.02943">
        <ele>238</ele>
        <time>2025-07-17T08:23:12.072Z</time>
      </trkpt>
      <trkpt lat="44.39661" lon="1.02944">
        <ele>238</ele>
        <time>2025-07-17T08:23:13.072Z</time>
      </trkpt>
      <trkpt lat="44.3966" lon="1.02944">
        <ele>238</ele>
        <time>2025-07-17T08:23:14.071Z</time>
      </trkpt>
      <trkpt lat="44.39659" lon="1.02944">
        <ele>238</ele>
        <time>2025-07-17T08:23:15.072Z</time>
      </trkpt>
      <trkpt lat="44.39656" lon="1.02943">
        <ele>238</ele>
        <time>2025-07-17T08:23:16.071Z</time>
      </trkpt>
      <trkpt lat="44.39656" lon="1.02943">
        <ele>238</ele>
        <time>2025-07-17T08:23:17.071Z</time>
      </trkpt>
      <trkpt lat="44.39654" lon="1.02942">
        <ele>237</ele>
        <time>2025-07-17T08:23:18.071Z</time>
      </trkpt>
      <trkpt lat="44.39653" lon="1.02942">
        <ele>236</ele>
        <time>2025-07-17T08:23:19.072Z</time>
      </trkpt>
      <trkpt lat="44.39653" lon="1.02942">
        <ele>236</ele>
        <time>2025-07-17T08:23:20.071Z</time>
      </trkpt>
      <trkpt lat="44.39651" lon="1.02942">
        <ele>236</ele>
        <time>2025-07-17T08:23:21.071Z</time>
      </trkpt>
      <trkpt lat="44.39649" lon="1.02941">
        <ele>236</ele>
        <time>2025-07-17T08:23:22.071Z</time>
      </trkpt>
      <trkpt lat="44.39649" lon="1.02941">
        <ele>236</ele>
        <time>2025-07-17T08:23:23.071Z</time>
      </trkpt>
      <trkpt lat="44.39646" lon="1.02942">
        <ele>237</ele>
        <time>2025-07-17T08:23:24.071Z</time>
      </trkpt>
      <trkpt lat="44.39644" lon="1.02943">
        <ele>238</ele>
        <time>2025-07-17T08:23:25.071Z</time>
      </trkpt>
      <trkpt lat="44.39644" lon="1.02943">
        <ele>238</ele>
        <time>2025-07-17T08:23:26.071Z</time>
      </trkpt>
      <trkpt lat="44.39641" lon="1.02943">
        <ele>241</ele>
        <time>2025-07-17T08:23:27.071Z</time>
      </trkpt>
      <trkpt lat="44.39639" lon="1.02944">
        <ele>242</ele>
        <time>2025-07-17T08:23:28.071Z</time>
      </trkpt>
      <trkpt lat="44.39639" lon="1.02944">
        <ele>242</ele>
        <time>2025-07-17T08:23:29.071Z</time>
      </trkpt>
      <trkpt lat="44.39636" lon="1.02944">
        <ele>243</ele>
        <time>2025-07-17T08:23:30.071Z</time>
      </trkpt>
      <trkpt lat="44.39636" lon="1.02944">
        <ele>243</ele>
        <time>2025-07-17T08:23:31.071Z</time>
      </trkpt>
      <trkpt lat="44.39634" lon="1.02944">
        <ele>244</ele>
        <time>2025-07-17T08:23:32.072Z</time>
      </trkpt>
      <trkpt lat="44.39631" lon="1.02944">
        <ele>245</ele>
        <time>2025-07-17T08:23:33.071Z</time>
      </trkpt>
      <trkpt lat="44.3963" lon="1.02944">
        <ele>245</ele>
        <time>2025-07-17T08:23:34.071Z</time>
      </trkpt>
      <trkpt lat="44.3963" lon="1.02944">
        <ele>245</ele>
        <time>2025-07-17T08:23:35.071Z</time>
      </trkpt>
      <trkpt lat="44.39627" lon="1.02945">
        <ele>245</ele>
        <time>2025-07-17T08:23:36.071Z</time>
      </trkpt>
      <trkpt lat="44.39626" lon="1.02945">
        <ele>245</ele>
        <time>2025-07-17T08:23:37.071Z</time>
      </trkpt>
      <trkpt lat="44.39626" lon="1.02945">
        <ele>245</ele>
        <time>2025-07-17T08:23:38.071Z</time>
      </trkpt>
      <trkpt lat="44.39625" lon="1.02945">
        <ele>245</ele>
        <time>2025-07-17T08:23:39.071Z</time>
      </trkpt>
      <trkpt lat="44.39624" lon="1.02944">
        <ele>245</ele>
        <time>2025-07-17T08:23:40.071Z</time>
      </trkpt>
      <trkpt lat="44.39624" lon="1.02944">
        <ele>245</ele>
        <time>2025-07-17T08:23:41.071Z</time>
      </trkpt>
      <trkpt lat="44.39622" lon="1.02944">
        <ele>245</ele>
        <time>2025-07-17T08:23:42.071Z</time>
      </trkpt>
      <trkpt lat="44.39621" lon="1.02944">
        <ele>245</ele>
        <time>2025-07-17T08:23:43.071Z</time>
      </trkpt>
      <trkpt lat="44.39621" lon="1.02944">
        <ele>245</ele>
        <time>2025-07-17T08:23:44.071Z</time>
      </trkpt>
      <trkpt lat="44.39619" lon="1.02944">
        <ele>245</ele>
        <time>2025-07-17T08:23:45.071Z</time>
      </trkpt>
      <trkpt lat="44.39617" lon="1.02944">
        <ele>244</ele>
        <time>2025-07-17T08:23:46.071Z</time>
      </trkpt>
      <trkpt lat="44.39617" lon="1.02944">
        <ele>244</ele>
        <time>2025-07-17T08:23:47.071Z</time>
      </trkpt>
      <trkpt lat="44.39615" lon="1.02943">
        <ele>243</ele>
        <time>2025-07-17T08:23:48.071Z</time>
      </trkpt>
      <trkpt lat="44.39615" lon="1.02943">
        <ele>243</ele>
        <time>2025-07-17T08:23:49.071Z</time>
      </trkpt>
      <trkpt lat="44.39613" lon="1.02942">
        <ele>242</ele>
        <time>2025-07-17T08:23:50.071Z</time>
      </trkpt>
      <trkpt lat="44.39612" lon="1.02942">
        <ele>242</ele>
        <time>2025-07-17T08:23:51.072Z</time>
      </trkpt>
      <trkpt lat="44.39612" lon="1.02942">
        <ele>241</ele>
        <time>2025-07-17T08:23:52.072Z</time>
      </trkpt>
      <trkpt lat="44.39612" lon="1.02942">
        <ele>241</ele>
        <time>2025-07-17T08:23:53.071Z</time>
      </trkpt>
      <trkpt lat="44.39611" lon="1.02942">
        <ele>240</ele>
        <time>2025-07-17T08:23:54.072Z</time>
      </trkpt>
      <trkpt lat="44.39609" lon="1.02942">
        <ele>240</ele>
        <time>2025-07-17T08:23:55.071Z</time>
      </trkpt>
      <trkpt lat="44.39609" lon="1.02942">
        <ele>240</ele>
        <time>2025-07-17T08:23:56.071Z</time>
      </trkpt>
      <trkpt lat="44.39607" lon="1.02941">
        <ele>241</ele>
        <time>2025-07-17T08:23:57.071Z</time>
      </trkpt>
      <trkpt lat="44.39605" lon="1.02941">
        <ele>241</ele>
        <time>2025-07-17T08:23:58.071Z</time>
      </trkpt>
      <trkpt lat="44.39605" lon="1.02941">
        <ele>241</ele>
        <time>2025-07-17T08:23:59.071Z</time>
      </trkpt>
      <trkpt lat="44.39603" lon="1.02941">
        <ele>241</ele>
        <time>2025-07-17T08:24:00.071Z</time>
      </trkpt>
      <trkpt lat="44.39602" lon="1.02941">
        <ele>241</ele>
        <time>2025-07-17T08:24:01.071Z</time>
      </trkpt>
      <trkpt lat="44.39602" lon="1.02941">
        <ele>241</ele>
        <time>2025-07-17T08:24:02.071Z</time>
      </trkpt>
      <trkpt lat="44.396" lon="1.02941">
        <ele>241</ele>
        <time>2025-07-17T08:24:03.071Z</time>
      </trkpt>
      <trkpt lat="44.39599" lon="1.0294">
        <ele>242</ele>
        <time>2025-07-17T08:24:04.071Z</time>
      </trkpt>
      <trkpt lat="44.39599" lon="1.0294">
        <ele>242</ele>
        <time>2025-07-17T08:24:05.071Z</time>
      </trkpt>
      <trkpt lat="44.39596" lon="1.0294">
        <ele>242</ele>
        <time>2025-07-17T08:24:06.071Z</time>
      </trkpt>
      <trkpt lat="44.39595" lon="1.0294">
        <ele>242</ele>
        <time>2025-07-17T08:24:07.071Z</time>
      </trkpt>
      <trkpt lat="44.39595" lon="1.0294">
        <ele>242</ele>
        <time>2025-07-17T08:24:08.071Z</time>
      </trkpt>
      <trkpt lat="44.39592" lon="1.02939">
        <ele>241</ele>
        <time>2025-07-17T08:24:09.071Z</time>
      </trkpt>
      <trkpt lat="44.39591" lon="1.02939">
        <ele>241</ele>
        <time>2025-07-17T08:24:10.071Z</time>
      </trkpt>
      <trkpt lat="44.39591" lon="1.02939">
        <ele>241</ele>
        <time>2025-07-17T08:24:11.071Z</time>
      </trkpt>
      <trkpt lat="44.39588" lon="1.02938">
        <ele>240</ele>
        <time>2025-07-17T08:24:12.071Z</time>
      </trkpt>
      <trkpt lat="44.39587" lon="1.02938">
        <ele>241</ele>
        <time>2025-07-17T08:24:13.071Z</time>
      </trkpt>
      <trkpt lat="44.39587" lon="1.02938">
        <ele>241</ele>
        <time>2025-07-17T08:24:14.071Z</time>
      </trkpt>
      <trkpt lat="44.39585" lon="1.02938">
        <ele>241</ele>
        <time>2025-07-17T08:24:15.071Z</time>
      </trkpt>
      <trkpt lat="44.39584" lon="1.02937">
        <ele>241</ele>
        <time>2025-07-17T08:24:16.071Z</time>
      </trkpt>
      <trkpt lat="44.39584" lon="1.02937">
        <ele>241</ele>
        <time>2025-07-17T08:24:17.071Z</time>
      </trkpt>
      <trkpt lat="44.39582" lon="1.02937">
        <ele>241</ele>
        <time>2025-07-17T08:24:18.071Z</time>
      </trkpt>
      <trkpt lat="44.3958" lon="1.02936">
        <ele>240</ele>
        <time>2025-07-17T08:24:19.071Z</time>
      </trkpt>
      <trkpt lat="44.3958" lon="1.02936">
        <ele>240</ele>
        <time>2025-07-17T08:24:20.071Z</time>
      </trkpt>
      <trkpt lat="44.39578" lon="1.02934">
        <ele>240</ele>
        <time>2025-07-17T08:24:21.071Z</time>
      </trkpt>
      <trkpt lat="44.39577" lon="1.02933">
        <ele>239</ele>
        <time>2025-07-17T08:24:22.072Z</time>
      </trkpt>
      <trkpt lat="44.39577" lon="1.02933">
        <ele>239</ele>
        <time>2025-07-17T08:24:23.071Z</time>
      </trkpt>
      <trkpt lat="44.39575" lon="1.0293">
        <ele>238</ele>
        <time>2025-07-17T08:24:24.071Z</time>
      </trkpt>
      <trkpt lat="44.39574" lon="1.02929">
        <ele>237</ele>
        <time>2025-07-17T08:24:25.072Z</time>
      </trkpt>
      <trkpt lat="44.39574" lon="1.02929">
        <ele>237</ele>
        <time>2025-07-17T08:24:26.071Z</time>
      </trkpt>
      <trkpt lat="44.39572" lon="1.02928">
        <ele>236</ele>
        <time>2025-07-17T08:24:27.072Z</time>
      </trkpt>
      <trkpt lat="44.39571" lon="1.02927">
        <ele>236</ele>
        <time>2025-07-17T08:24:28.071Z</time>
      </trkpt>
      <trkpt lat="44.39571" lon="1.02927">
        <ele>236</ele>
        <time>2025-07-17T08:24:29.071Z</time>
      </trkpt>
      <trkpt lat="44.3957" lon="1.02927">
        <ele>235</ele>
        <time>2025-07-17T08:24:30.071Z</time>
      </trkpt>
      <trkpt lat="44.39569" lon="1.02926">
        <ele>235</ele>
        <time>2025-07-17T08:24:31.072Z</time>
      </trkpt>
      <trkpt lat="44.39568" lon="1.02925">
        <ele>235</ele>
        <time>2025-07-17T08:24:32.071Z</time>
      </trkpt>
      <trkpt lat="44.39566" lon="1.02925">
        <ele>234</ele>
        <time>2025-07-17T08:24:33.072Z</time>
      </trkpt>
      <trkpt lat="44.39565" lon="1.02924">
        <ele>234</ele>
        <time>2025-07-17T08:24:34.072Z</time>
      </trkpt>
      <trkpt lat="44.39564" lon="1.02924">
        <ele>234</ele>
        <time>2025-07-17T08:24:35.071Z</time>
      </trkpt>
      <trkpt lat="44.39561" lon="1.02923">
        <ele>235</ele>
        <time>2025-07-17T08:24:36.071Z</time>
      </trkpt>
      <trkpt lat="44.3956" lon="1.02922">
        <ele>235</ele>
        <time>2025-07-17T08:24:37.071Z</time>
      </trkpt>
      <trkpt lat="44.3956" lon="1.02922">
        <ele>235</ele>
        <time>2025-07-17T08:24:38.071Z</time>
      </trkpt>
      <trkpt lat="44.39557" lon="1.02921">
        <ele>236</ele>
        <time>2025-07-17T08:24:39.072Z</time>
      </trkpt>
      <trkpt lat="44.39556" lon="1.0292">
        <ele>236</ele>
        <time>2025-07-17T08:24:40.072Z</time>
      </trkpt>
      <trkpt lat="44.39556" lon="1.0292">
        <ele>236</ele>
        <time>2025-07-17T08:24:41.071Z</time>
      </trkpt>
      <trkpt lat="44.39555" lon="1.02919">
        <ele>237</ele>
        <time>2025-07-17T08:24:42.071Z</time>
      </trkpt>
      <trkpt lat="44.39554" lon="1.02919">
        <ele>237</ele>
        <time>2025-07-17T08:24:43.071Z</time>
      </trkpt>
      <trkpt lat="44.39554" lon="1.02919">
        <ele>237</ele>
        <time>2025-07-17T08:24:44.071Z</time>
      </trkpt>
      <trkpt lat="44.39552" lon="1.02918">
        <ele>237</ele>
        <time>2025-07-17T08:24:45.071Z</time>
      </trkpt>
      <trkpt lat="44.39551" lon="1.02917">
        <ele>237</ele>
        <time>2025-07-17T08:24:46.071Z</time>
      </trkpt>
      <trkpt lat="44.39551" lon="1.02917">
        <ele>237</ele>
        <time>2025-07-17T08:24:47.071Z</time>
      </trkpt>
      <trkpt lat="44.3955" lon="1.02917">
        <ele>238</ele>
        <time>2025-07-17T08:24:48.071Z</time>
      </trkpt>
      <trkpt lat="44.39548" lon="1.02916">
        <ele>238</ele>
        <time>2025-07-17T08:24:49.072Z</time>
      </trkpt>
      <trkpt lat="44.39548" lon="1.02916">
        <ele>238</ele>
        <time>2025-07-17T08:24:50.071Z</time>
      </trkpt>
      <trkpt lat="44.39547" lon="1.02915">
        <ele>239</ele>
        <time>2025-07-17T08:24:51.071Z</time>
      </trkpt>
      <trkpt lat="44.39544" lon="1.02914">
        <ele>239</ele>
        <time>2025-07-17T08:24:52.071Z</time>
      </trkpt>
      <trkpt lat="44.39544" lon="1.02914">
        <ele>239</ele>
        <time>2025-07-17T08:24:53.071Z</time>
      </trkpt>
      <trkpt lat="44.39543" lon="1.02914">
        <ele>239</ele>
        <time>2025-07-17T08:24:54.071Z</time>
      </trkpt>
      <trkpt lat="44.39541" lon="1.02912">
        <ele>240</ele>
        <time>2025-07-17T08:24:55.071Z</time>
      </trkpt>
      <trkpt lat="44.39541" lon="1.02912">
        <ele>240</ele>
        <time>2025-07-17T08:24:56.071Z</time>
      </trkpt>
      <trkpt lat="44.3954" lon="1.02912">
        <ele>240</ele>
        <time>2025-07-17T08:24:57.071Z</time>
      </trkpt>
      <trkpt lat="44.39538" lon="1.0291">
        <ele>240</ele>
        <time>2025-07-17T08:24:58.071Z</time>
      </trkpt>
      <trkpt lat="44.39538" lon="1.0291">
        <ele>240</ele>
        <time>2025-07-17T08:24:59.071Z</time>
      </trkpt>
      <trkpt lat="44.39536" lon="1.02909">
        <ele>240</ele>
        <time>2025-07-17T08:25:00.071Z</time>
      </trkpt>
      <trkpt lat="44.39534" lon="1.02907">
        <ele>241</ele>
        <time>2025-07-17T08:25:01.071Z</time>
      </trkpt>
      <trkpt lat="44.39534" lon="1.02907">
        <ele>241</ele>
        <time>2025-07-17T08:25:02.071Z</time>
      </trkpt>
      <trkpt lat="44.39531" lon="1.02906">
        <ele>242</ele>
        <time>2025-07-17T08:25:03.071Z</time>
      </trkpt>
      <trkpt lat="44.39529" lon="1.02906">
        <ele>242</ele>
        <time>2025-07-17T08:25:04.071Z</time>
      </trkpt>
      <trkpt lat="44.39529" lon="1.02906">
        <ele>242</ele>
        <time>2025-07-17T08:25:05.071Z</time>
      </trkpt>
      <trkpt lat="44.39526" lon="1.02904">
        <ele>242</ele>
        <time>2025-07-17T08:25:06.071Z</time>
      </trkpt>
      <trkpt lat="44.39526" lon="1.02904">
        <ele>242</ele>
        <time>2025-07-17T08:25:07.071Z</time>
      </trkpt>
      <trkpt lat="44.39525" lon="1.02904">
        <ele>243</ele>
        <time>2025-07-17T08:25:08.071Z</time>
      </trkpt>
      <trkpt lat="44.39523" lon="1.02904">
        <ele>243</ele>
        <time>2025-07-17T08:25:09.072Z</time>
      </trkpt>
      <trkpt lat="44.39522" lon="1.02903">
        <ele>243</ele>
        <time>2025-07-17T08:25:10.072Z</time>
      </trkpt>
      <trkpt lat="44.3952" lon="1.02902">
        <ele>243</ele>
        <time>2025-07-17T08:25:11.071Z</time>
      </trkpt>
      <trkpt lat="44.39519" lon="1.02902">
        <ele>243</ele>
        <time>2025-07-17T08:25:12.072Z</time>
      </trkpt>
      <trkpt lat="44.39518" lon="1.02901">
        <ele>243</ele>
        <time>2025-07-17T08:25:13.072Z</time>
      </trkpt>
      <trkpt lat="44.39517" lon="1.029">
        <ele>243</ele>
        <time>2025-07-17T08:25:14.071Z</time>
      </trkpt>
      <trkpt lat="44.39514" lon="1.02898">
        <ele>243</ele>
        <time>2025-07-17T08:25:15.072Z</time>
      </trkpt>
      <trkpt lat="44.39513" lon="1.02897">
        <ele>243</ele>
        <time>2025-07-17T08:25:16.071Z</time>
      </trkpt>
      <trkpt lat="44.39513" lon="1.02897">
        <ele>243</ele>
        <time>2025-07-17T08:25:17.071Z</time>
      </trkpt>
      <trkpt lat="44.39512" lon="1.02896">
        <ele>243</ele>
        <time>2025-07-17T08:25:18.071Z</time>
      </trkpt>
      <trkpt lat="44.3951" lon="1.02894">
        <ele>243</ele>
        <time>2025-07-17T08:25:19.071Z</time>
      </trkpt>
      <trkpt lat="44.3951" lon="1.02894">
        <ele>243</ele>
        <time>2025-07-17T08:25:20.071Z</time>
      </trkpt>
      <trkpt lat="44.39507" lon="1.02891">
        <ele>242</ele>
        <time>2025-07-17T08:25:21.071Z</time>
      </trkpt>
      <trkpt lat="44.39506" lon="1.02891">
        <ele>241</ele>
        <time>2025-07-17T08:25:22.071Z</time>
      </trkpt>
      <trkpt lat="44.39506" lon="1.02891">
        <ele>241</ele>
        <time>2025-07-17T08:25:23.071Z</time>
      </trkpt>
      <trkpt lat="44.39504" lon="1.0289">
        <ele>241</ele>
        <time>2025-07-17T08:25:24.071Z</time>
      </trkpt>
      <trkpt lat="44.39501" lon="1.02889">
        <ele>240</ele>
        <time>2025-07-17T08:25:25.072Z</time>
      </trkpt>
      <trkpt lat="44.39501" lon="1.02889">
        <ele>240</ele>
        <time>2025-07-17T08:25:26.071Z</time>
      </trkpt>
      <trkpt lat="44.395" lon="1.02889">
        <ele>240</ele>
        <time>2025-07-17T08:25:27.071Z</time>
      </trkpt>
      <trkpt lat="44.39497" lon="1.02887">
        <ele>238</ele>
        <time>2025-07-17T08:25:28.071Z</time>
      </trkpt>
      <trkpt lat="44.39497" lon="1.02887">
        <ele>238</ele>
        <time>2025-07-17T08:25:29.071Z</time>
      </trkpt>
      <trkpt lat="44.39496" lon="1.02886">
        <ele>238</ele>
        <time>2025-07-17T08:25:30.071Z</time>
      </trkpt>
      <trkpt lat="44.39495" lon="1.02885">
        <ele>238</ele>
        <time>2025-07-17T08:25:31.071Z</time>
      </trkpt>
      <trkpt lat="44.39494" lon="1.02885">
        <ele>237</ele>
        <time>2025-07-17T08:25:32.071Z</time>
      </trkpt>
      <trkpt lat="44.39491" lon="1.02884">
        <ele>237</ele>
        <time>2025-07-17T08:25:33.072Z</time>
      </trkpt>
      <trkpt lat="44.3949" lon="1.02883">
        <ele>237</ele>
        <time>2025-07-17T08:25:34.071Z</time>
      </trkpt>
      <trkpt lat="44.3949" lon="1.02883">
        <ele>237</ele>
        <time>2025-07-17T08:25:35.071Z</time>
      </trkpt>
      <trkpt lat="44.39489" lon="1.02882">
        <ele>237</ele>
        <time>2025-07-17T08:25:36.071Z</time>
      </trkpt>
      <trkpt lat="44.39488" lon="1.02882">
        <ele>238</ele>
        <time>2025-07-17T08:25:37.071Z</time>
      </trkpt>
      <trkpt lat="44.39487" lon="1.0288">
        <ele>238</ele>
        <time>2025-07-17T08:25:38.071Z</time>
      </trkpt>
      <trkpt lat="44.39484" lon="1.02879">
        <ele>239</ele>
        <time>2025-07-17T08:25:39.071Z</time>
      </trkpt>
      <trkpt lat="44.39483" lon="1.02879">
        <ele>239</ele>
        <time>2025-07-17T08:25:40.071Z</time>
      </trkpt>
      <trkpt lat="44.39483" lon="1.02879">
        <ele>239</ele>
        <time>2025-07-17T08:25:41.071Z</time>
      </trkpt>
      <trkpt lat="44.3948" lon="1.02877">
        <ele>240</ele>
        <time>2025-07-17T08:25:42.071Z</time>
      </trkpt>
      <trkpt lat="44.3948" lon="1.02877">
        <ele>240</ele>
        <time>2025-07-17T08:25:43.071Z</time>
      </trkpt>
      <trkpt lat="44.39479" lon="1.02877">
        <ele>240</ele>
        <time>2025-07-17T08:25:44.071Z</time>
      </trkpt>
      <trkpt lat="44.39477" lon="1.02877">
        <ele>241</ele>
        <time>2025-07-17T08:25:45.071Z</time>
      </trkpt>
      <trkpt lat="44.39477" lon="1.02877">
        <ele>241</ele>
        <time>2025-07-17T08:25:46.071Z</time>
      </trkpt>
      <trkpt lat="44.39476" lon="1.02877">
        <ele>241</ele>
        <time>2025-07-17T08:25:47.071Z</time>
      </trkpt>
      <trkpt lat="44.39475" lon="1.02877">
        <ele>241</ele>
        <time>2025-07-17T08:25:48.072Z</time>
      </trkpt>
      <trkpt lat="44.39474" lon="1.02877">
        <ele>241</ele>
        <time>2025-07-17T08:25:49.072Z</time>
      </trkpt>
      <trkpt lat="44.39473" lon="1.02877">
        <ele>241</ele>
        <time>2025-07-17T08:25:50.071Z</time>
      </trkpt>
      <trkpt lat="44.39472" lon="1.02876">
        <ele>242</ele>
        <time>2025-07-17T08:25:51.072Z</time>
      </trkpt>
      <trkpt lat="44.3947" lon="1.02876">
        <ele>242</ele>
        <time>2025-07-17T08:25:52.072Z</time>
      </trkpt>
      <trkpt lat="44.39469" lon="1.02876">
        <ele>242</ele>
        <time>2025-07-17T08:25:53.071Z</time>
      </trkpt>
      <trkpt lat="44.39467" lon="1.02875">
        <ele>242</ele>
        <time>2025-07-17T08:25:54.071Z</time>
      </trkpt>
      <trkpt lat="44.39466" lon="1.02875">
        <ele>242</ele>
        <time>2025-07-17T08:25:55.071Z</time>
      </trkpt>
      <trkpt lat="44.39466" lon="1.02875">
        <ele>242</ele>
        <time>2025-07-17T08:25:56.072Z</time>
      </trkpt>
      <trkpt lat="44.39464" lon="1.02874">
        <ele>242</ele>
        <time>2025-07-17T08:25:57.071Z</time>
      </trkpt>
      <trkpt lat="44.39462" lon="1.02874">
        <ele>241</ele>
        <time>2025-07-17T08:25:58.071Z</time>
      </trkpt>
      <trkpt lat="44.39462" lon="1.02874">
        <ele>241</ele>
        <time>2025-07-17T08:25:59.071Z</time>
      </trkpt>
      <trkpt lat="44.39461" lon="1.02873">
        <ele>241</ele>
        <time>2025-07-17T08:26:00.071Z</time>
      </trkpt>
      <trkpt lat="44.3946" lon="1.02873">
        <ele>240</ele>
        <time>2025-07-17T08:26:01.071Z</time>
      </trkpt>
      <trkpt lat="44.3946" lon="1.02873">
        <ele>240</ele>
        <time>2025-07-17T08:26:02.071Z</time>
      </trkpt>
      <trkpt lat="44.39458" lon="1.02873">
        <ele>240</ele>
        <time>2025-07-17T08:26:03.072Z</time>
      </trkpt>
      <trkpt lat="44.39456" lon="1.02873">
        <ele>240</ele>
        <time>2025-07-17T08:26:04.072Z</time>
      </trkpt>
      <trkpt lat="44.39456" lon="1.02873">
        <ele>240</ele>
        <time>2025-07-17T08:26:05.071Z</time>
      </trkpt>
      <trkpt lat="44.39454" lon="1.02872">
        <ele>240</ele>
        <time>2025-07-17T08:26:06.071Z</time>
      </trkpt>
      <trkpt lat="44.39454" lon="1.02872">
        <ele>240</ele>
        <time>2025-07-17T08:26:07.071Z</time>
      </trkpt>
      <trkpt lat="44.39453" lon="1.02872">
        <ele>240</ele>
        <time>2025-07-17T08:26:08.071Z</time>
      </trkpt>
      <trkpt lat="44.39452" lon="1.02872">
        <ele>241</ele>
        <time>2025-07-17T08:26:09.071Z</time>
      </trkpt>
      <trkpt lat="44.39451" lon="1.02871">
        <ele>241</ele>
        <time>2025-07-17T08:26:10.071Z</time>
      </trkpt>
      <trkpt lat="44.3945" lon="1.0287">
        <ele>241</ele>
        <time>2025-07-17T08:26:11.071Z</time>
      </trkpt>
      <trkpt lat="44.39448" lon="1.0287">
        <ele>241</ele>
        <time>2025-07-17T08:26:12.071Z</time>
      </trkpt>
      <trkpt lat="44.39447" lon="1.02869">
        <ele>241</ele>
        <time>2025-07-17T08:26:13.071Z</time>
      </trkpt>
      <trkpt lat="44.39446" lon="1.02868">
        <ele>241</ele>
        <time>2025-07-17T08:26:14.071Z</time>
      </trkpt>
      <trkpt lat="44.39445" lon="1.02868">
        <ele>241</ele>
        <time>2025-07-17T08:26:15.071Z</time>
      </trkpt>
      <trkpt lat="44.39444" lon="1.02867">
        <ele>241</ele>
        <time>2025-07-17T08:26:16.071Z</time>
      </trkpt>
      <trkpt lat="44.39443" lon="1.02867">
        <ele>241</ele>
        <time>2025-07-17T08:26:17.071Z</time>
      </trkpt>
      <trkpt lat="44.39442" lon="1.02866">
        <ele>241</ele>
        <time>2025-07-17T08:26:18.071Z</time>
      </trkpt>
      <trkpt lat="44.39441" lon="1.02866">
        <ele>241</ele>
        <time>2025-07-17T08:26:19.071Z</time>
      </trkpt>
      <trkpt lat="44.3944" lon="1.02865">
        <ele>241</ele>
        <time>2025-07-17T08:26:20.071Z</time>
      </trkpt>
      <trkpt lat="44.39438" lon="1.02864">
        <ele>241</ele>
        <time>2025-07-17T08:26:21.072Z</time>
      </trkpt>
      <trkpt lat="44.39438" lon="1.02864">
        <ele>241</ele>
        <time>2025-07-17T08:26:22.071Z</time>
      </trkpt>
      <trkpt lat="44.39437" lon="1.02863">
        <ele>241</ele>
        <time>2025-07-17T08:26:23.071Z</time>
      </trkpt>
      <trkpt lat="44.39436" lon="1.02861">
        <ele>241</ele>
        <time>2025-07-17T08:26:24.071Z</time>
      </trkpt>
      <trkpt lat="44.39435" lon="1.0286">
        <ele>241</ele>
        <time>2025-07-17T08:26:25.071Z</time>
      </trkpt>
      <trkpt lat="44.39435" lon="1.0286">
        <ele>241</ele>
        <time>2025-07-17T08:26:26.071Z</time>
      </trkpt>
      <trkpt lat="44.39434" lon="1.02859">
        <ele>241</ele>
        <time>2025-07-17T08:26:27.072Z</time>
      </trkpt>
      <trkpt lat="44.39433" lon="1.02858">
        <ele>241</ele>
        <time>2025-07-17T08:26:28.072Z</time>
      </trkpt>
      <trkpt lat="44.39432" lon="1.02857">
        <ele>241</ele>
        <time>2025-07-17T08:26:29.072Z</time>
      </trkpt>
      <trkpt lat="44.39432" lon="1.02856">
        <ele>241</ele>
        <time>2025-07-17T08:26:30.072Z</time>
      </trkpt>
      <trkpt lat="44.39431" lon="1.02855">
        <ele>240</ele>
        <time>2025-07-17T08:26:31.072Z</time>
      </trkpt>
      <trkpt lat="44.39431" lon="1.02854">
        <ele>240</ele>
        <time>2025-07-17T08:26:32.071Z</time>
      </trkpt>
      <trkpt lat="44.3943" lon="1.02852">
        <ele>240</ele>
        <time>2025-07-17T08:26:33.071Z</time>
      </trkpt>
      <trkpt lat="44.3943" lon="1.02852">
        <ele>240</ele>
        <time>2025-07-17T08:26:34.071Z</time>
      </trkpt>
      <trkpt lat="44.39429" lon="1.02851">
        <ele>240</ele>
        <time>2025-07-17T08:26:35.071Z</time>
      </trkpt>
      <trkpt lat="44.39429" lon="1.0285">
        <ele>240</ele>
        <time>2025-07-17T08:26:36.071Z</time>
      </trkpt>
      <trkpt lat="44.39428" lon="1.0285">
        <ele>240</ele>
        <time>2025-07-17T08:26:37.071Z</time>
      </trkpt>
      <trkpt lat="44.39427" lon="1.02849">
        <ele>240</ele>
        <time>2025-07-17T08:26:38.071Z</time>
      </trkpt>
      <trkpt lat="44.39426" lon="1.02848">
        <ele>240</ele>
        <time>2025-07-17T08:26:39.071Z</time>
      </trkpt>
      <trkpt lat="44.39426" lon="1.02847">
        <ele>240</ele>
        <time>2025-07-17T08:26:40.071Z</time>
      </trkpt>
      <trkpt lat="44.39425" lon="1.02846">
        <ele>240</ele>
        <time>2025-07-17T08:26:41.071Z</time>
      </trkpt>
      <trkpt lat="44.39424" lon="1.02844">
        <ele>241</ele>
        <time>2025-07-17T08:26:42.071Z</time>
      </trkpt>
      <trkpt lat="44.39422" lon="1.02842">
        <ele>241</ele>
        <time>2025-07-17T08:26:43.071Z</time>
      </trkpt>
      <trkpt lat="44.39422" lon="1.02842">
        <ele>241</ele>
        <time>2025-07-17T08:26:44.071Z</time>
      </trkpt>
      <trkpt lat="44.39422" lon="1.02841">
        <ele>242</ele>
        <time>2025-07-17T08:26:45.071Z</time>
      </trkpt>
      <trkpt lat="44.39421" lon="1.0284">
        <ele>242</ele>
        <time>2025-07-17T08:26:46.071Z</time>
      </trkpt>
      <trkpt lat="44.3942" lon="1.02839">
        <ele>242</ele>
        <time>2025-07-17T08:26:47.071Z</time>
      </trkpt>
      <trkpt lat="44.39419" lon="1.02838">
        <ele>243</ele>
        <time>2025-07-17T08:26:48.071Z</time>
      </trkpt>
      <trkpt lat="44.39419" lon="1.02837">
        <ele>243</ele>
        <time>2025-07-17T08:26:49.071Z</time>
      </trkpt>
      <trkpt lat="44.39418" lon="1.02836">
        <ele>243</ele>
        <time>2025-07-17T08:26:50.071Z</time>
      </trkpt>
      <trkpt lat="44.39416" lon="1.02833">
        <ele>244</ele>
        <time>2025-07-17T08:26:51.071Z</time>
      </trkpt>
      <trkpt lat="44.39416" lon="1.02833">
        <ele>244</ele>
        <time>2025-07-17T08:26:52.071Z</time>
      </trkpt>
      <trkpt lat="44.39416" lon="1.02832">
        <ele>244</ele>
        <time>2025-07-17T08:26:53.072Z</time>
      </trkpt>
      <trkpt lat="44.39414" lon="1.0283">
        <ele>244</ele>
        <time>2025-07-17T08:26:54.071Z</time>
      </trkpt>
      <trkpt lat="44.39414" lon="1.0283">
        <ele>244</ele>
        <time>2025-07-17T08:26:55.071Z</time>
      </trkpt>
      <trkpt lat="44.39413" lon="1.02829">
        <ele>244</ele>
        <time>2025-07-17T08:26:56.071Z</time>
      </trkpt>
      <trkpt lat="44.39412" lon="1.02826">
        <ele>243</ele>
        <time>2025-07-17T08:26:57.071Z</time>
      </trkpt>
      <trkpt lat="44.39412" lon="1.02826">
        <ele>243</ele>
        <time>2025-07-17T08:26:58.071Z</time>
      </trkpt>
      <trkpt lat="44.39411" lon="1.02824">
        <ele>243</ele>
        <time>2025-07-17T08:26:59.071Z</time>
      </trkpt>
      <trkpt lat="44.3941" lon="1.02822">
        <ele>242</ele>
        <time>2025-07-17T08:27:00.071Z</time>
      </trkpt>
      <trkpt lat="44.3941" lon="1.02822">
        <ele>242</ele>
        <time>2025-07-17T08:27:01.071Z</time>
      </trkpt>
      <trkpt lat="44.39409" lon="1.02821">
        <ele>241</ele>
        <time>2025-07-17T08:27:02.071Z</time>
      </trkpt>
      <trkpt lat="44.39408" lon="1.0282">
        <ele>241</ele>
        <time>2025-07-17T08:27:03.071Z</time>
      </trkpt>
      <trkpt lat="44.39406" lon="1.02818">
        <ele>241</ele>
        <time>2025-07-17T08:27:04.071Z</time>
      </trkpt>
      <trkpt lat="44.39406" lon="1.02818">
        <ele>241</ele>
        <time>2025-07-17T08:27:05.071Z</time>
      </trkpt>
      <trkpt lat="44.39406" lon="1.02817">
        <ele>241</ele>
        <time>2025-07-17T08:27:06.071Z</time>
      </trkpt>
      <trkpt lat="44.39405" lon="1.02816">
        <ele>241</ele>
        <time>2025-07-17T08:27:07.072Z</time>
      </trkpt>
      <trkpt lat="44.39404" lon="1.02816">
        <ele>241</ele>
        <time>2025-07-17T08:27:08.071Z</time>
      </trkpt>
      <trkpt lat="44.39403" lon="1.02815">
        <ele>241</ele>
        <time>2025-07-17T08:27:09.071Z</time>
      </trkpt>
      <trkpt lat="44.39401" lon="1.02815">
        <ele>241</ele>
        <time>2025-07-17T08:27:10.071Z</time>
      </trkpt>
      <trkpt lat="44.394" lon="1.02814">
        <ele>241</ele>
        <time>2025-07-17T08:27:11.071Z</time>
      </trkpt>
      <trkpt lat="44.39398" lon="1.02813">
        <ele>242</ele>
        <time>2025-07-17T08:27:12.071Z</time>
      </trkpt>
      <trkpt lat="44.39397" lon="1.02813">
        <ele>242</ele>
        <time>2025-07-17T08:27:13.071Z</time>
      </trkpt>
      <trkpt lat="44.39397" lon="1.02813">
        <ele>242</ele>
        <time>2025-07-17T08:27:14.071Z</time>
      </trkpt>
      <trkpt lat="44.39395" lon="1.02811">
        <ele>242</ele>
        <time>2025-07-17T08:27:15.071Z</time>
      </trkpt>
      <trkpt lat="44.39395" lon="1.02811">
        <ele>242</ele>
        <time>2025-07-17T08:27:16.071Z</time>
      </trkpt>
      <trkpt lat="44.39394" lon="1.0281">
        <ele>242</ele>
        <time>2025-07-17T08:27:17.071Z</time>
      </trkpt>
      <trkpt lat="44.39391" lon="1.02808">
        <ele>243</ele>
        <time>2025-07-17T08:27:18.071Z</time>
      </trkpt>
      <trkpt lat="44.39391" lon="1.02808">
        <ele>243</ele>
        <time>2025-07-17T08:27:19.071Z</time>
      </trkpt>
      <trkpt lat="44.3939" lon="1.02806">
        <ele>243</ele>
        <time>2025-07-17T08:27:20.071Z</time>
      </trkpt>
      <trkpt lat="44.3939" lon="1.02806">
        <ele>244</ele>
        <time>2025-07-17T08:27:21.071Z</time>
      </trkpt>
      <trkpt lat="44.39388" lon="1.02806">
        <ele>244</ele>
        <time>2025-07-17T08:27:22.071Z</time>
      </trkpt>
      <trkpt lat="44.39388" lon="1.02806">
        <ele>244</ele>
        <time>2025-07-17T08:27:23.071Z</time>
      </trkpt>
      <trkpt lat="44.39387" lon="1.02805">
        <ele>244</ele>
        <time>2025-07-17T08:27:24.071Z</time>
      </trkpt>
      <trkpt lat="44.39386" lon="1.02804">
        <ele>245</ele>
        <time>2025-07-17T08:27:25.071Z</time>
      </trkpt>
      <trkpt lat="44.39385" lon="1.02803">
        <ele>245</ele>
        <time>2025-07-17T08:27:26.071Z</time>
      </trkpt>
      <trkpt lat="44.39384" lon="1.028">
        <ele>245</ele>
        <time>2025-07-17T08:27:27.071Z</time>
      </trkpt>
      <trkpt lat="44.39384" lon="1.028">
        <ele>245</ele>
        <time>2025-07-17T08:27:28.071Z</time>
      </trkpt>
      <trkpt lat="44.39382" lon="1.02798">
        <ele>245</ele>
        <time>2025-07-17T08:27:29.071Z</time>
      </trkpt>
      <trkpt lat="44.3938" lon="1.02796">
        <ele>245</ele>
        <time>2025-07-17T08:27:30.071Z</time>
      </trkpt>
      <trkpt lat="44.3938" lon="1.02796">
        <ele>245</ele>
        <time>2025-07-17T08:27:31.071Z</time>
      </trkpt>
      <trkpt lat="44.3938" lon="1.02795">
        <ele>245</ele>
        <time>2025-07-17T08:27:32.071Z</time>
      </trkpt>
      <trkpt lat="44.39379" lon="1.02794">
        <ele>245</ele>
        <time>2025-07-17T08:27:33.071Z</time>
      </trkpt>
      <trkpt lat="44.39378" lon="1.02793">
        <ele>245</ele>
        <time>2025-07-17T08:27:34.071Z</time>
      </trkpt>
      <trkpt lat="44.39378" lon="1.02793">
        <ele>245</ele>
        <time>2025-07-17T08:27:35.071Z</time>
      </trkpt>
      <trkpt lat="44.39376" lon="1.02793">
        <ele>245</ele>
        <time>2025-07-17T08:27:36.071Z</time>
      </trkpt>
      <trkpt lat="44.39375" lon="1.02791">
        <ele>244</ele>
        <time>2025-07-17T08:27:37.071Z</time>
      </trkpt>
      <trkpt lat="44.39375" lon="1.02791">
        <ele>244</ele>
        <time>2025-07-17T08:27:38.071Z</time>
      </trkpt>
      <trkpt lat="44.39374" lon="1.02791">
        <ele>244</ele>
        <time>2025-07-17T08:27:39.071Z</time>
      </trkpt>
      <trkpt lat="44.39372" lon="1.0279">
        <ele>244</ele>
        <time>2025-07-17T08:27:40.071Z</time>
      </trkpt>
      <trkpt lat="44.39372" lon="1.0279">
        <ele>244</ele>
        <time>2025-07-17T08:27:41.071Z</time>
      </trkpt>
      <trkpt lat="44.39368" lon="1.02788">
        <ele>244</ele>
        <time>2025-07-17T08:27:42.071Z</time>
      </trkpt>
      <trkpt lat="44.39367" lon="1.02789">
        <ele>244</ele>
        <time>2025-07-17T08:27:43.071Z</time>
      </trkpt>
      <trkpt lat="44.39367" lon="1.02789">
        <ele>244</ele>
        <time>2025-07-17T08:27:44.071Z</time>
      </trkpt>
      <trkpt lat="44.39366" lon="1.02789">
        <ele>244</ele>
        <time>2025-07-17T08:27:45.071Z</time>
      </trkpt>
      <trkpt lat="44.39365" lon="1.0279">
        <ele>245</ele>
        <time>2025-07-17T08:27:46.072Z</time>
      </trkpt>
      <trkpt lat="44.39364" lon="1.0279">
        <ele>245</ele>
        <time>2025-07-17T08:27:47.071Z</time>
      </trkpt>
      <trkpt lat="44.39363" lon="1.0279">
        <ele>245</ele>
        <time>2025-07-17T08:27:48.072Z</time>
      </trkpt>
      <trkpt lat="44.39362" lon="1.02789">
        <ele>245</ele>
        <time>2025-07-17T08:27:49.072Z</time>
      </trkpt>
      <trkpt lat="44.39361" lon="1.02788">
        <ele>245</ele>
        <time>2025-07-17T08:27:50.071Z</time>
      </trkpt>
      <trkpt lat="44.3936" lon="1.02788">
        <ele>246</ele>
        <time>2025-07-17T08:27:51.072Z</time>
      </trkpt>
      <trkpt lat="44.39359" lon="1.02788">
        <ele>245</ele>
        <time>2025-07-17T08:27:52.071Z</time>
      </trkpt>
      <trkpt lat="44.39358" lon="1.02787">
        <ele>245</ele>
        <time>2025-07-17T08:27:53.072Z</time>
      </trkpt>
      <trkpt lat="44.39355" lon="1.02785">
        <ele>244</ele>
        <time>2025-07-17T08:27:54.071Z</time>
      </trkpt>
      <trkpt lat="44.39355" lon="1.02785">
        <ele>244</ele>
        <time>2025-07-17T08:27:55.071Z</time>
      </trkpt>
      <trkpt lat="44.39354" lon="1.02784">
        <ele>244</ele>
        <time>2025-07-17T08:27:56.071Z</time>
      </trkpt>
      <trkpt lat="44.39353" lon="1.02783">
        <ele>244</ele>
        <time>2025-07-17T08:27:57.071Z</time>
      </trkpt>
      <trkpt lat="44.39352" lon="1.02783">
        <ele>244</ele>
        <time>2025-07-17T08:27:58.071Z</time>
      </trkpt>
      <trkpt lat="44.39351" lon="1.02783">
        <ele>244</ele>
        <time>2025-07-17T08:27:59.071Z</time>
      </trkpt>
      <trkpt lat="44.39349" lon="1.02783">
        <ele>244</ele>
        <time>2025-07-17T08:28:00.071Z</time>
      </trkpt>
      <trkpt lat="44.39348" lon="1.02782">
        <ele>244</ele>
        <time>2025-07-17T08:28:01.071Z</time>
      </trkpt>
      <trkpt lat="44.39348" lon="1.02782">
        <ele>244</ele>
        <time>2025-07-17T08:28:02.071Z</time>
      </trkpt>
      <trkpt lat="44.39347" lon="1.02782">
        <ele>244</ele>
        <time>2025-07-17T08:28:03.071Z</time>
      </trkpt>
      <trkpt lat="44.39345" lon="1.02781">
        <ele>244</ele>
        <time>2025-07-17T08:28:04.071Z</time>
      </trkpt>
      <trkpt lat="44.39345" lon="1.02781">
        <ele>244</ele>
        <time>2025-07-17T08:28:05.071Z</time>
      </trkpt>
      <trkpt lat="44.39344" lon="1.02781">
        <ele>244</ele>
        <time>2025-07-17T08:28:06.071Z</time>
      </trkpt>
      <trkpt lat="44.39342" lon="1.02781">
        <ele>245</ele>
        <time>2025-07-17T08:28:07.071Z</time>
      </trkpt>
      <trkpt lat="44.39341" lon="1.02781">
        <ele>245</ele>
        <time>2025-07-17T08:28:08.071Z</time>
      </trkpt>
      <trkpt lat="44.3934" lon="1.02781">
        <ele>245</ele>
        <time>2025-07-17T08:28:09.071Z</time>
      </trkpt>
      <trkpt lat="44.39338" lon="1.0278">
        <ele>245</ele>
        <time>2025-07-17T08:28:10.071Z</time>
      </trkpt>
      <trkpt lat="44.39337" lon="1.0278">
        <ele>245</ele>
        <time>2025-07-17T08:28:11.071Z</time>
      </trkpt>
      <trkpt lat="44.39336" lon="1.02779">
        <ele>245</ele>
        <time>2025-07-17T08:28:12.071Z</time>
      </trkpt>
      <trkpt lat="44.39335" lon="1.02779">
        <ele>246</ele>
        <time>2025-07-17T08:28:13.071Z</time>
      </trkpt>
      <trkpt lat="44.39334" lon="1.02779">
        <ele>246</ele>
        <time>2025-07-17T08:28:14.071Z</time>
      </trkpt>
      <trkpt lat="44.39333" lon="1.02778">
        <ele>246</ele>
        <time>2025-07-17T08:28:15.071Z</time>
      </trkpt>
      <trkpt lat="44.39332" lon="1.02778">
        <ele>246</ele>
        <time>2025-07-17T08:28:16.071Z</time>
      </trkpt>
      <trkpt lat="44.39331" lon="1.02777">
        <ele>246</ele>
        <time>2025-07-17T08:28:17.072Z</time>
      </trkpt>
      <trkpt lat="44.39331" lon="1.02777">
        <ele>246</ele>
        <time>2025-07-17T08:28:18.071Z</time>
      </trkpt>
      <trkpt lat="44.3933" lon="1.02776">
        <ele>246</ele>
        <time>2025-07-17T08:28:19.071Z</time>
      </trkpt>
      <trkpt lat="44.39329" lon="1.02776">
        <ele>246</ele>
        <time>2025-07-17T08:28:20.071Z</time>
      </trkpt>
      <trkpt lat="44.39328" lon="1.02776">
        <ele>246</ele>
        <time>2025-07-17T08:28:21.071Z</time>
      </trkpt>
      <trkpt lat="44.39327" lon="1.02776">
        <ele>246</ele>
        <time>2025-07-17T08:28:22.071Z</time>
      </trkpt>
      <trkpt lat="44.39326" lon="1.02776">
        <ele>245</ele>
        <time>2025-07-17T08:28:23.071Z</time>
      </trkpt>
      <trkpt lat="44.39325" lon="1.02775">
        <ele>245</ele>
        <time>2025-07-17T08:28:24.071Z</time>
      </trkpt>
      <trkpt lat="44.39324" lon="1.02774">
        <ele>245</ele>
        <time>2025-07-17T08:28:25.071Z</time>
      </trkpt>
      <trkpt lat="44.39323" lon="1.02774">
        <ele>244</ele>
        <time>2025-07-17T08:28:26.071Z</time>
      </trkpt>
      <trkpt lat="44.39322" lon="1.02774">
        <ele>244</ele>
        <time>2025-07-17T08:28:27.072Z</time>
      </trkpt>
      <trkpt lat="44.39321" lon="1.02773">
        <ele>244</ele>
        <time>2025-07-17T08:28:28.072Z</time>
      </trkpt>
      <trkpt lat="44.3932" lon="1.02773">
        <ele>244</ele>
        <time>2025-07-17T08:28:29.071Z</time>
      </trkpt>
      <trkpt lat="44.39319" lon="1.02773">
        <ele>244</ele>
        <time>2025-07-17T08:28:30.072Z</time>
      </trkpt>
      <trkpt lat="44.39318" lon="1.02773">
        <ele>244</ele>
        <time>2025-07-17T08:28:31.072Z</time>
      </trkpt>
      <trkpt lat="44.39317" lon="1.02773">
        <ele>244</ele>
        <time>2025-07-17T08:28:32.071Z</time>
      </trkpt>
      <trkpt lat="44.39315" lon="1.02773">
        <ele>244</ele>
        <time>2025-07-17T08:28:33.071Z</time>
      </trkpt>
      <trkpt lat="44.39314" lon="1.02772">
        <ele>243</ele>
        <time>2025-07-17T08:28:34.071Z</time>
      </trkpt>
      <trkpt lat="44.39313" lon="1.02771">
        <ele>243</ele>
        <time>2025-07-17T08:28:35.071Z</time>
      </trkpt>
      <trkpt lat="44.39312" lon="1.02771">
        <ele>244</ele>
        <time>2025-07-17T08:28:36.071Z</time>
      </trkpt>
      <trkpt lat="44.39311" lon="1.02771">
        <ele>244</ele>
        <time>2025-07-17T08:28:37.071Z</time>
      </trkpt>
      <trkpt lat="44.3931" lon="1.02771">
        <ele>244</ele>
        <time>2025-07-17T08:28:38.071Z</time>
      </trkpt>
      <trkpt lat="44.39309" lon="1.0277">
        <ele>244</ele>
        <time>2025-07-17T08:28:39.071Z</time>
      </trkpt>
      <trkpt lat="44.39308" lon="1.02771">
        <ele>244</ele>
        <time>2025-07-17T08:28:40.071Z</time>
      </trkpt>
      <trkpt lat="44.39306" lon="1.0277">
        <ele>244</ele>
        <time>2025-07-17T08:28:41.071Z</time>
      </trkpt>
      <trkpt lat="44.39305" lon="1.02769">
        <ele>243</ele>
        <time>2025-07-17T08:28:42.071Z</time>
      </trkpt>
      <trkpt lat="44.39304" lon="1.02768">
        <ele>243</ele>
        <time>2025-07-17T08:28:43.071Z</time>
      </trkpt>
      <trkpt lat="44.39303" lon="1.02767">
        <ele>243</ele>
        <time>2025-07-17T08:28:44.072Z</time>
      </trkpt>
      <trkpt lat="44.39302" lon="1.02767">
        <ele>243</ele>
        <time>2025-07-17T08:28:45.071Z</time>
      </trkpt>
      <trkpt lat="44.39299" lon="1.02766">
        <ele>243</ele>
        <time>2025-07-17T08:28:46.071Z</time>
      </trkpt>
      <trkpt lat="44.39299" lon="1.02766">
        <ele>243</ele>
        <time>2025-07-17T08:28:47.071Z</time>
      </trkpt>
      <trkpt lat="44.39298" lon="1.02765">
        <ele>243</ele>
        <time>2025-07-17T08:28:48.071Z</time>
      </trkpt>
      <trkpt lat="44.39297" lon="1.02765">
        <ele>242</ele>
        <time>2025-07-17T08:28:49.071Z</time>
      </trkpt>
      <trkpt lat="44.39296" lon="1.02765">
        <ele>242</ele>
        <time>2025-07-17T08:28:50.071Z</time>
      </trkpt>
      <trkpt lat="44.39295" lon="1.02765">
        <ele>242</ele>
        <time>2025-07-17T08:28:51.071Z</time>
      </trkpt>
      <trkpt lat="44.39293" lon="1.02765">
        <ele>242</ele>
        <time>2025-07-17T08:28:52.071Z</time>
      </trkpt>
      <trkpt lat="44.39292" lon="1.02765">
        <ele>242</ele>
        <time>2025-07-17T08:28:53.071Z</time>
      </trkpt>
      <trkpt lat="44.39292" lon="1.02765">
        <ele>242</ele>
        <time>2025-07-17T08:28:54.071Z</time>
      </trkpt>
      <trkpt lat="44.39291" lon="1.02766">
        <ele>242</ele>
        <time>2025-07-17T08:28:55.071Z</time>
      </trkpt>
      <trkpt lat="44.3929" lon="1.02766">
        <ele>242</ele>
        <time>2025-07-17T08:28:56.071Z</time>
      </trkpt>
      <trkpt lat="44.39288" lon="1.02766">
        <ele>242</ele>
        <time>2025-07-17T08:28:57.071Z</time>
      </trkpt>
      <trkpt lat="44.39288" lon="1.02766">
        <ele>242</ele>
        <time>2025-07-17T08:28:58.071Z</time>
      </trkpt>
      <trkpt lat="44.39287" lon="1.02765">
        <ele>241</ele>
        <time>2025-07-17T08:28:59.071Z</time>
      </trkpt>
      <trkpt lat="44.39285" lon="1.02765">
        <ele>241</ele>
        <time>2025-07-17T08:29:00.071Z</time>
      </trkpt>
      <trkpt lat="44.39284" lon="1.02765">
        <ele>241</ele>
        <time>2025-07-17T08:29:01.071Z</time>
      </trkpt>
      <trkpt lat="44.39283" lon="1.02764">
        <ele>240</ele>
        <time>2025-07-17T08:29:02.071Z</time>
      </trkpt>
      <trkpt lat="44.39282" lon="1.02764">
        <ele>240</ele>
        <time>2025-07-17T08:29:03.071Z</time>
      </trkpt>
      <trkpt lat="44.39281" lon="1.02764">
        <ele>239</ele>
        <time>2025-07-17T08:29:04.071Z</time>
      </trkpt>
      <trkpt lat="44.3928" lon="1.02764">
        <ele>239</ele>
        <time>2025-07-17T08:29:05.071Z</time>
      </trkpt>
      <trkpt lat="44.39278" lon="1.02764">
        <ele>239</ele>
        <time>2025-07-17T08:29:06.072Z</time>
      </trkpt>
      <trkpt lat="44.39277" lon="1.02764">
        <ele>239</ele>
        <time>2025-07-17T08:29:07.072Z</time>
      </trkpt>
      <trkpt lat="44.39276" lon="1.02763">
        <ele>239</ele>
        <time>2025-07-17T08:29:08.071Z</time>
      </trkpt>
      <trkpt lat="44.39275" lon="1.02763">
        <ele>239</ele>
        <time>2025-07-17T08:29:09.072Z</time>
      </trkpt>
      <trkpt lat="44.39274" lon="1.02762">
        <ele>239</ele>
        <time>2025-07-17T08:29:10.072Z</time>
      </trkpt>
      <trkpt lat="44.39273" lon="1.02761">
        <ele>240</ele>
        <time>2025-07-17T08:29:11.071Z</time>
      </trkpt>
      <trkpt lat="44.39271" lon="1.02761">
        <ele>240</ele>
        <time>2025-07-17T08:29:12.071Z</time>
      </trkpt>
      <trkpt lat="44.3927" lon="1.0276">
        <ele>240</ele>
        <time>2025-07-17T08:29:13.071Z</time>
      </trkpt>
      <trkpt lat="44.39269" lon="1.0276">
        <ele>241</ele>
        <time>2025-07-17T08:29:14.071Z</time>
      </trkpt>
      <trkpt lat="44.39267" lon="1.02759">
        <ele>241</ele>
        <time>2025-07-17T08:29:15.071Z</time>
      </trkpt>
      <trkpt lat="44.39266" lon="1.02759">
        <ele>241</ele>
        <time>2025-07-17T08:29:16.071Z</time>
      </trkpt>
      <trkpt lat="44.39265" lon="1.02758">
        <ele>242</ele>
        <time>2025-07-17T08:29:17.071Z</time>
      </trkpt>
      <trkpt lat="44.39264" lon="1.02757">
        <ele>242</ele>
        <time>2025-07-17T08:29:18.071Z</time>
      </trkpt>
      <trkpt lat="44.39263" lon="1.02756">
        <ele>242</ele>
        <time>2025-07-17T08:29:19.071Z</time>
      </trkpt>
      <trkpt lat="44.39262" lon="1.02756">
        <ele>241</ele>
        <time>2025-07-17T08:29:20.071Z</time>
      </trkpt>
      <trkpt lat="44.39261" lon="1.02755">
        <ele>241</ele>
        <time>2025-07-17T08:29:21.071Z</time>
      </trkpt>
      <trkpt lat="44.3926" lon="1.02754">
        <ele>241</ele>
        <time>2025-07-17T08:29:22.071Z</time>
      </trkpt>
      <trkpt lat="44.39259" lon="1.02754">
        <ele>241</ele>
        <time>2025-07-17T08:29:23.071Z</time>
      </trkpt>
      <trkpt lat="44.39258" lon="1.02753">
        <ele>241</ele>
        <time>2025-07-17T08:29:24.071Z</time>
      </trkpt>
      <trkpt lat="44.39257" lon="1.02752">
        <ele>240</ele>
        <time>2025-07-17T08:29:25.071Z</time>
      </trkpt>
      <trkpt lat="44.39256" lon="1.0275">
        <ele>240</ele>
        <time>2025-07-17T08:29:26.071Z</time>
      </trkpt>
      <trkpt lat="44.39255" lon="1.02749">
        <ele>241</ele>
        <time>2025-07-17T08:29:27.071Z</time>
      </trkpt>
      <trkpt lat="44.39254" lon="1.02748">
        <ele>241</ele>
        <time>2025-07-17T08:29:28.071Z</time>
      </trkpt>
      <trkpt lat="44.39254" lon="1.02747">
        <ele>242</ele>
        <time>2025-07-17T08:29:29.071Z</time>
      </trkpt>
      <trkpt lat="44.39253" lon="1.02746">
        <ele>243</ele>
        <time>2025-07-17T08:29:30.071Z</time>
      </trkpt>
      <trkpt lat="44.39253" lon="1.02744">
        <ele>243</ele>
        <time>2025-07-17T08:29:31.071Z</time>
      </trkpt>
      <trkpt lat="44.39252" lon="1.02743">
        <ele>244</ele>
        <time>2025-07-17T08:29:32.071Z</time>
      </trkpt>
      <trkpt lat="44.39251" lon="1.02742">
        <ele>244</ele>
        <time>2025-07-17T08:29:33.071Z</time>
      </trkpt>
      <trkpt lat="44.39251" lon="1.0274">
        <ele>244</ele>
        <time>2025-07-17T08:29:34.071Z</time>
      </trkpt>
      <trkpt lat="44.3925" lon="1.02739">
        <ele>244</ele>
        <time>2025-07-17T08:29:35.071Z</time>
      </trkpt>
      <trkpt lat="44.3925" lon="1.02737">
        <ele>244</ele>
        <time>2025-07-17T08:29:36.071Z</time>
      </trkpt>
      <trkpt lat="44.39249" lon="1.02735">
        <ele>243</ele>
        <time>2025-07-17T08:29:37.072Z</time>
      </trkpt>
      <trkpt lat="44.39249" lon="1.02735">
        <ele>243</ele>
        <time>2025-07-17T08:29:38.071Z</time>
      </trkpt>
      <trkpt lat="44.39248" lon="1.02734">
        <ele>243</ele>
        <time>2025-07-17T08:29:39.071Z</time>
      </trkpt>
      <trkpt lat="44.39247" lon="1.02733">
        <ele>243</ele>
        <time>2025-07-17T08:29:40.071Z</time>
      </trkpt>
      <trkpt lat="44.39247" lon="1.02732">
        <ele>243</ele>
        <time>2025-07-17T08:29:41.071Z</time>
      </trkpt>
      <trkpt lat="44.39247" lon="1.02731">
        <ele>243</ele>
        <time>2025-07-17T08:29:42.071Z</time>
      </trkpt>
      <trkpt lat="44.39247" lon="1.0273">
        <ele>243</ele>
        <time>2025-07-17T08:29:43.071Z</time>
      </trkpt>
      <trkpt lat="44.39246" lon="1.02728">
        <ele>243</ele>
        <time>2025-07-17T08:29:44.071Z</time>
      </trkpt>
      <trkpt lat="44.39245" lon="1.02727">
        <ele>243</ele>
        <time>2025-07-17T08:29:45.072Z</time>
      </trkpt>
      <trkpt lat="44.39245" lon="1.02726">
        <ele>243</ele>
        <time>2025-07-17T08:29:46.072Z</time>
      </trkpt>
      <trkpt lat="44.39244" lon="1.02724">
        <ele>242</ele>
        <time>2025-07-17T08:29:47.071Z</time>
      </trkpt>
      <trkpt lat="44.39243" lon="1.02723">
        <ele>242</ele>
        <time>2025-07-17T08:29:48.072Z</time>
      </trkpt>
      <trkpt lat="44.39242" lon="1.02721">
        <ele>242</ele>
        <time>2025-07-17T08:29:49.072Z</time>
      </trkpt>
      <trkpt lat="44.39242" lon="1.02719">
        <ele>242</ele>
        <time>2025-07-17T08:29:50.071Z</time>
      </trkpt>
      <trkpt lat="44.39241" lon="1.02717">
        <ele>242</ele>
        <time>2025-07-17T08:29:51.071Z</time>
      </trkpt>
      <trkpt lat="44.3924" lon="1.02716">
        <ele>242</ele>
        <time>2025-07-17T08:29:52.071Z</time>
      </trkpt>
      <trkpt lat="44.39239" lon="1.02715">
        <ele>242</ele>
        <time>2025-07-17T08:29:53.071Z</time>
      </trkpt>
      <trkpt lat="44.39238" lon="1.02715">
        <ele>242</ele>
        <time>2025-07-17T08:29:54.071Z</time>
      </trkpt>
      <trkpt lat="44.39237" lon="1.02714">
        <ele>242</ele>
        <time>2025-07-17T08:29:55.071Z</time>
      </trkpt>
      <trkpt lat="44.39236" lon="1.02713">
        <ele>242</ele>
        <time>2025-07-17T08:29:56.071Z</time>
      </trkpt>
      <trkpt lat="44.39235" lon="1.02713">
        <ele>242</ele>
        <time>2025-07-17T08:29:57.071Z</time>
      </trkpt>
      <trkpt lat="44.39235" lon="1.02712">
        <ele>242</ele>
        <time>2025-07-17T08:29:58.071Z</time>
      </trkpt>
      <trkpt lat="44.39234" lon="1.02711">
        <ele>243</ele>
        <time>2025-07-17T08:29:59.071Z</time>
      </trkpt>
      <trkpt lat="44.39233" lon="1.0271">
        <ele>243</ele>
        <time>2025-07-17T08:30:00.071Z</time>
      </trkpt>
      <trkpt lat="44.39232" lon="1.02709">
        <ele>243</ele>
        <time>2025-07-17T08:30:01.071Z</time>
      </trkpt>
      <trkpt lat="44.39231" lon="1.02708">
        <ele>243</ele>
        <time>2025-07-17T08:30:02.071Z</time>
      </trkpt>
      <trkpt lat="44.3923" lon="1.02706">
        <ele>243</ele>
        <time>2025-07-17T08:30:03.071Z</time>
      </trkpt>
      <trkpt lat="44.3923" lon="1.02706">
        <ele>243</ele>
        <time>2025-07-17T08:30:04.071Z</time>
      </trkpt>
      <trkpt lat="44.39229" lon="1.02705">
        <ele>243</ele>
        <time>2025-07-17T08:30:05.071Z</time>
      </trkpt>
      <trkpt lat="44.39228" lon="1.02704">
        <ele>243</ele>
        <time>2025-07-17T08:30:06.072Z</time>
      </trkpt>
      <trkpt lat="44.39227" lon="1.02703">
        <ele>243</ele>
        <time>2025-07-17T08:30:07.071Z</time>
      </trkpt>
      <trkpt lat="44.39226" lon="1.02702">
        <ele>244</ele>
        <time>2025-07-17T08:30:08.071Z</time>
      </trkpt>
      <trkpt lat="44.39226" lon="1.02701">
        <ele>244</ele>
        <time>2025-07-17T08:30:09.071Z</time>
      </trkpt>
      <trkpt lat="44.39225" lon="1.027">
        <ele>243</ele>
        <time>2025-07-17T08:30:10.071Z</time>
      </trkpt>
      <trkpt lat="44.39224" lon="1.027">
        <ele>243</ele>
        <time>2025-07-17T08:30:11.071Z</time>
      </trkpt>
      <trkpt lat="44.39223" lon="1.02698">
        <ele>242</ele>
        <time>2025-07-17T08:30:12.071Z</time>
      </trkpt>
      <trkpt lat="44.39222" lon="1.02697">
        <ele>242</ele>
        <time>2025-07-17T08:30:13.072Z</time>
      </trkpt>
      <trkpt lat="44.39221" lon="1.02696">
        <ele>241</ele>
        <time>2025-07-17T08:30:14.071Z</time>
      </trkpt>
      <trkpt lat="44.3922" lon="1.02695">
        <ele>240</ele>
        <time>2025-07-17T08:30:15.071Z</time>
      </trkpt>
      <trkpt lat="44.3922" lon="1.02693">
        <ele>240</ele>
        <time>2025-07-17T08:30:16.071Z</time>
      </trkpt>
      <trkpt lat="44.39219" lon="1.02692">
        <ele>239</ele>
        <time>2025-07-17T08:30:17.071Z</time>
      </trkpt>
      <trkpt lat="44.39218" lon="1.02691">
        <ele>239</ele>
        <time>2025-07-17T08:30:18.071Z</time>
      </trkpt>
      <trkpt lat="44.39218" lon="1.0269">
        <ele>239</ele>
        <time>2025-07-17T08:30:19.071Z</time>
      </trkpt>
      <trkpt lat="44.39217" lon="1.02688">
        <ele>239</ele>
        <time>2025-07-17T08:30:20.071Z</time>
      </trkpt>
      <trkpt lat="44.39216" lon="1.02687">
        <ele>239</ele>
        <time>2025-07-17T08:30:21.071Z</time>
      </trkpt>
      <trkpt lat="44.39216" lon="1.02686">
        <ele>239</ele>
        <time>2025-07-17T08:30:22.071Z</time>
      </trkpt>
      <trkpt lat="44.39215" lon="1.02685">
        <ele>239</ele>
        <time>2025-07-17T08:30:23.071Z</time>
      </trkpt>
      <trkpt lat="44.39214" lon="1.02683">
        <ele>239</ele>
        <time>2025-07-17T08:30:24.071Z</time>
      </trkpt>
      <trkpt lat="44.39213" lon="1.02682">
        <ele>239</ele>
        <time>2025-07-17T08:30:25.072Z</time>
      </trkpt>
      <trkpt lat="44.39213" lon="1.02681">
        <ele>239</ele>
        <time>2025-07-17T08:30:26.071Z</time>
      </trkpt>
      <trkpt lat="44.39212" lon="1.0268">
        <ele>240</ele>
        <time>2025-07-17T08:30:27.072Z</time>
      </trkpt>
      <trkpt lat="44.39211" lon="1.02679">
        <ele>240</ele>
        <time>2025-07-17T08:30:28.071Z</time>
      </trkpt>
      <trkpt lat="44.3921" lon="1.02678">
        <ele>240</ele>
        <time>2025-07-17T08:30:29.071Z</time>
      </trkpt>
      <trkpt lat="44.3921" lon="1.02677">
        <ele>239</ele>
        <time>2025-07-17T08:30:30.071Z</time>
      </trkpt>
      <trkpt lat="44.39209" lon="1.02676">
        <ele>239</ele>
        <time>2025-07-17T08:30:31.071Z</time>
      </trkpt>
      <trkpt lat="44.39209" lon="1.02675">
        <ele>239</ele>
        <time>2025-07-17T08:30:32.071Z</time>
      </trkpt>
      <trkpt lat="44.39208" lon="1.02673">
        <ele>239</ele>
        <time>2025-07-17T08:30:33.071Z</time>
      </trkpt>
      <trkpt lat="44.39208" lon="1.02672">
        <ele>239</ele>
        <time>2025-07-17T08:30:34.071Z</time>
      </trkpt>
      <trkpt lat="44.39207" lon="1.02671">
        <ele>239</ele>
        <time>2025-07-17T08:30:35.071Z</time>
      </trkpt>
      <trkpt lat="44.39207" lon="1.0267">
        <ele>240</ele>
        <time>2025-07-17T08:30:36.072Z</time>
      </trkpt>
      <trkpt lat="44.39206" lon="1.02669">
        <ele>240</ele>
        <time>2025-07-17T08:30:37.071Z</time>
      </trkpt>
      <trkpt lat="44.39206" lon="1.02667">
        <ele>240</ele>
        <time>2025-07-17T08:30:38.071Z</time>
      </trkpt>
      <trkpt lat="44.39205" lon="1.02666">
        <ele>239</ele>
        <time>2025-07-17T08:30:39.071Z</time>
      </trkpt>
      <trkpt lat="44.39204" lon="1.02665">
        <ele>239</ele>
        <time>2025-07-17T08:30:40.071Z</time>
      </trkpt>
      <trkpt lat="44.39204" lon="1.02663">
        <ele>239</ele>
        <time>2025-07-17T08:30:41.071Z</time>
      </trkpt>
      <trkpt lat="44.39203" lon="1.02662">
        <ele>239</ele>
        <time>2025-07-17T08:30:42.071Z</time>
      </trkpt>
      <trkpt lat="44.39203" lon="1.02661">
        <ele>239</ele>
        <time>2025-07-17T08:30:43.071Z</time>
      </trkpt>
      <trkpt lat="44.39202" lon="1.02659">
        <ele>239</ele>
        <time>2025-07-17T08:30:44.071Z</time>
      </trkpt>
      <trkpt lat="44.39202" lon="1.02658">
        <ele>239</ele>
        <time>2025-07-17T08:30:45.071Z</time>
      </trkpt>
      <trkpt lat="44.39201" lon="1.02657">
        <ele>239</ele>
        <time>2025-07-17T08:30:46.071Z</time>
      </trkpt>
      <trkpt lat="44.392" lon="1.02656">
        <ele>239</ele>
        <time>2025-07-17T08:30:47.071Z</time>
      </trkpt>
      <trkpt lat="44.39199" lon="1.02655">
        <ele>240</ele>
        <time>2025-07-17T08:30:48.071Z</time>
      </trkpt>
      <trkpt lat="44.39199" lon="1.02654">
        <ele>240</ele>
        <time>2025-07-17T08:30:49.072Z</time>
      </trkpt>
      <trkpt lat="44.39198" lon="1.02653">
        <ele>239</ele>
        <time>2025-07-17T08:30:50.071Z</time>
      </trkpt>
      <trkpt lat="44.39198" lon="1.02652">
        <ele>239</ele>
        <time>2025-07-17T08:30:51.071Z</time>
      </trkpt>
      <trkpt lat="44.39197" lon="1.02651">
        <ele>239</ele>
        <time>2025-07-17T08:30:52.071Z</time>
      </trkpt>
      <trkpt lat="44.39196" lon="1.02649">
        <ele>239</ele>
        <time>2025-07-17T08:30:53.071Z</time>
      </trkpt>
      <trkpt lat="44.39196" lon="1.02649">
        <ele>239</ele>
        <time>2025-07-17T08:30:54.071Z</time>
      </trkpt>
      <trkpt lat="44.39196" lon="1.02649">
        <ele>239</ele>
        <time>2025-07-17T08:30:55.072Z</time>
      </trkpt>
      <trkpt lat="44.39196" lon="1.02648">
        <ele>239</ele>
        <time>2025-07-17T08:30:56.072Z</time>
      </trkpt>
      <trkpt lat="44.39196" lon="1.02648">
        <ele>239</ele>
        <time>2025-07-17T08:30:57.071Z</time>
      </trkpt>
      <trkpt lat="44.39196" lon="1.02648">
        <ele>239</ele>
        <time>2025-07-17T08:30:58.071Z</time>
      </trkpt>
      <trkpt lat="44.39197" lon="1.02648">
        <ele>239</ele>
        <time>2025-07-17T08:30:59.071Z</time>
      </trkpt>
      <trkpt lat="44.39197" lon="1.02648">
        <ele>238</ele>
        <time>2025-07-17T08:31:00.071Z</time>
      </trkpt>
      <trkpt lat="44.39193" lon="1.02646">
        <ele>238</ele>
        <time>2025-07-17T08:31:01.072Z</time>
      </trkpt>
      <trkpt lat="44.39191" lon="1.02644">
        <ele>238</ele>
        <time>2025-07-17T08:31:02.071Z</time>
      </trkpt>
      <trkpt lat="44.39191" lon="1.02644">
        <ele>238</ele>
        <time>2025-07-17T08:31:03.071Z</time>
      </trkpt>
      <trkpt lat="44.39193" lon="1.02642">
        <ele>238</ele>
        <time>2025-07-17T08:31:04.072Z</time>
      </trkpt>
      <trkpt lat="44.39193" lon="1.02642">
        <ele>238</ele>
        <time>2025-07-17T08:31:05.071Z</time>
      </trkpt>
      <trkpt lat="44.39193" lon="1.02641">
        <ele>238</ele>
        <time>2025-07-17T08:31:06.072Z</time>
      </trkpt>
      <trkpt lat="44.39193" lon="1.0264">
        <ele>237</ele>
        <time>2025-07-17T08:31:07.072Z</time>
      </trkpt>
      <trkpt lat="44.39193" lon="1.0264">
        <ele>237</ele>
        <time>2025-07-17T08:31:08.071Z</time>
      </trkpt>
      <trkpt lat="44.39192" lon="1.0264">
        <ele>237</ele>
        <time>2025-07-17T08:31:09.071Z</time>
      </trkpt>
      <trkpt lat="44.39191" lon="1.02639">
        <ele>237</ele>
        <time>2025-07-17T08:31:10.071Z</time>
      </trkpt>
      <trkpt lat="44.3919" lon="1.02638">
        <ele>236</ele>
        <time>2025-07-17T08:31:11.071Z</time>
      </trkpt>
      <trkpt lat="44.39189" lon="1.02638">
        <ele>236</ele>
        <time>2025-07-17T08:31:12.071Z</time>
      </trkpt>
      <trkpt lat="44.39189" lon="1.02637">
        <ele>236</ele>
        <time>2025-07-17T08:31:13.071Z</time>
      </trkpt>
      <trkpt lat="44.39188" lon="1.02637">
        <ele>235</ele>
        <time>2025-07-17T08:31:14.071Z</time>
      </trkpt>
      <trkpt lat="44.39188" lon="1.02636">
        <ele>235</ele>
        <time>2025-07-17T08:31:15.071Z</time>
      </trkpt>
      <trkpt lat="44.39187" lon="1.02636">
        <ele>235</ele>
        <time>2025-07-17T08:31:16.071Z</time>
      </trkpt>
      <trkpt lat="44.39187" lon="1.02635">
        <ele>235</ele>
        <time>2025-07-17T08:31:17.071Z</time>
      </trkpt>
      <trkpt lat="44.39187" lon="1.02633">
        <ele>234</ele>
        <time>2025-07-17T08:31:18.071Z</time>
      </trkpt>
      <trkpt lat="44.39187" lon="1.02632">
        <ele>234</ele>
        <time>2025-07-17T08:31:19.072Z</time>
      </trkpt>
      <trkpt lat="44.39187" lon="1.02631">
        <ele>234</ele>
        <time>2025-07-17T08:31:20.071Z</time>
      </trkpt>
      <trkpt lat="44.39186" lon="1.0263">
        <ele>234</ele>
        <time>2025-07-17T08:31:21.072Z</time>
      </trkpt>
      <trkpt lat="44.39186" lon="1.02629">
        <ele>234</ele>
        <time>2025-07-17T08:31:22.071Z</time>
      </trkpt>
      <trkpt lat="44.39186" lon="1.02628">
        <ele>234</ele>
        <time>2025-07-17T08:31:23.071Z</time>
      </trkpt>
      <trkpt lat="44.39185" lon="1.02627">
        <ele>234</ele>
        <time>2025-07-17T08:31:24.071Z</time>
      </trkpt>
      <trkpt lat="44.39184" lon="1.02626">
        <ele>233</ele>
        <time>2025-07-17T08:31:25.071Z</time>
      </trkpt>
      <trkpt lat="44.39184" lon="1.02625">
        <ele>233</ele>
        <time>2025-07-17T08:31:26.071Z</time>
      </trkpt>
      <trkpt lat="44.39183" lon="1.02624">
        <ele>233</ele>
        <time>2025-07-17T08:31:27.071Z</time>
      </trkpt>
      <trkpt lat="44.39183" lon="1.02624">
        <ele>232</ele>
        <time>2025-07-17T08:31:28.071Z</time>
      </trkpt>
      <trkpt lat="44.39183" lon="1.02622">
        <ele>232</ele>
        <time>2025-07-17T08:31:29.071Z</time>
      </trkpt>
      <trkpt lat="44.39182" lon="1.02621">
        <ele>232</ele>
        <time>2025-07-17T08:31:30.071Z</time>
      </trkpt>
      <trkpt lat="44.39182" lon="1.0262">
        <ele>232</ele>
        <time>2025-07-17T08:31:31.071Z</time>
      </trkpt>
      <trkpt lat="44.39181" lon="1.0262">
        <ele>232</ele>
        <time>2025-07-17T08:31:32.071Z</time>
      </trkpt>
      <trkpt lat="44.3918" lon="1.02619">
        <ele>233</ele>
        <time>2025-07-17T08:31:33.071Z</time>
      </trkpt>
      <trkpt lat="44.39179" lon="1.02618">
        <ele>233</ele>
        <time>2025-07-17T08:31:34.071Z</time>
      </trkpt>
      <trkpt lat="44.39178" lon="1.02618">
        <ele>233</ele>
        <time>2025-07-17T08:31:35.071Z</time>
      </trkpt>
      <trkpt lat="44.39177" lon="1.02617">
        <ele>234</ele>
        <time>2025-07-17T08:31:36.071Z</time>
      </trkpt>
      <trkpt lat="44.39176" lon="1.02616">
        <ele>234</ele>
        <time>2025-07-17T08:31:37.071Z</time>
      </trkpt>
      <trkpt lat="44.39175" lon="1.02616">
        <ele>235</ele>
        <time>2025-07-17T08:31:38.071Z</time>
      </trkpt>
      <trkpt lat="44.39173" lon="1.02615">
        <ele>235</ele>
        <time>2025-07-17T08:31:39.071Z</time>
      </trkpt>
      <trkpt lat="44.39171" lon="1.02614">
        <ele>235</ele>
        <time>2025-07-17T08:31:40.071Z</time>
      </trkpt>
      <trkpt lat="44.3917" lon="1.02613">
        <ele>235</ele>
        <time>2025-07-17T08:31:41.071Z</time>
      </trkpt>
      <trkpt lat="44.3917" lon="1.02613">
        <ele>236</ele>
        <time>2025-07-17T08:31:42.072Z</time>
      </trkpt>
      <trkpt lat="44.39168" lon="1.02612">
        <ele>236</ele>
        <time>2025-07-17T08:31:43.071Z</time>
      </trkpt>
      <trkpt lat="44.39168" lon="1.02611">
        <ele>235</ele>
        <time>2025-07-17T08:31:44.071Z</time>
      </trkpt>
      <trkpt lat="44.39167" lon="1.0261">
        <ele>235</ele>
        <time>2025-07-17T08:31:45.071Z</time>
      </trkpt>
      <trkpt lat="44.39166" lon="1.0261">
        <ele>235</ele>
        <time>2025-07-17T08:31:46.071Z</time>
      </trkpt>
      <trkpt lat="44.39165" lon="1.02609">
        <ele>236</ele>
        <time>2025-07-17T08:31:47.071Z</time>
      </trkpt>
      <trkpt lat="44.39164" lon="1.02608">
        <ele>236</ele>
        <time>2025-07-17T08:31:48.072Z</time>
      </trkpt>
      <trkpt lat="44.39163" lon="1.02606">
        <ele>237</ele>
        <time>2025-07-17T08:31:49.071Z</time>
      </trkpt>
      <trkpt lat="44.39162" lon="1.02605">
        <ele>237</ele>
        <time>2025-07-17T08:31:50.071Z</time>
      </trkpt>
      <trkpt lat="44.3916" lon="1.02604">
        <ele>237</ele>
        <time>2025-07-17T08:31:51.071Z</time>
      </trkpt>
      <trkpt lat="44.3916" lon="1.02602">
        <ele>237</ele>
        <time>2025-07-17T08:31:52.071Z</time>
      </trkpt>
      <trkpt lat="44.39159" lon="1.02601">
        <ele>237</ele>
        <time>2025-07-17T08:31:53.071Z</time>
      </trkpt>
      <trkpt lat="44.39157" lon="1.026">
        <ele>237</ele>
        <time>2025-07-17T08:31:54.071Z</time>
      </trkpt>
      <trkpt lat="44.39156" lon="1.02599">
        <ele>237</ele>
        <time>2025-07-17T08:31:55.071Z</time>
      </trkpt>
      <trkpt lat="44.39155" lon="1.02598">
        <ele>237</ele>
        <time>2025-07-17T08:31:56.071Z</time>
      </trkpt>
      <trkpt lat="44.39154" lon="1.02597">
        <ele>236</ele>
        <time>2025-07-17T08:31:57.071Z</time>
      </trkpt>
      <trkpt lat="44.39153" lon="1.02597">
        <ele>236</ele>
        <time>2025-07-17T08:31:58.071Z</time>
      </trkpt>
      <trkpt lat="44.39152" lon="1.02597">
        <ele>236</ele>
        <time>2025-07-17T08:31:59.071Z</time>
      </trkpt>
      <trkpt lat="44.3915" lon="1.02597">
        <ele>236</ele>
        <time>2025-07-17T08:32:00.071Z</time>
      </trkpt>
      <trkpt lat="44.39149" lon="1.02596">
        <ele>236</ele>
        <time>2025-07-17T08:32:01.071Z</time>
      </trkpt>
      <trkpt lat="44.39149" lon="1.02596">
        <ele>236</ele>
        <time>2025-07-17T08:32:02.072Z</time>
      </trkpt>
      <trkpt lat="44.39148" lon="1.02595">
        <ele>236</ele>
        <time>2025-07-17T08:32:03.071Z</time>
      </trkpt>
      <trkpt lat="44.39148" lon="1.02595">
        <ele>236</ele>
        <time>2025-07-17T08:32:04.071Z</time>
      </trkpt>
      <trkpt lat="44.39148" lon="1.02594">
        <ele>236</ele>
        <time>2025-07-17T08:32:05.072Z</time>
      </trkpt>
      <trkpt lat="44.39147" lon="1.02593">
        <ele>235</ele>
        <time>2025-07-17T08:32:06.071Z</time>
      </trkpt>
      <trkpt lat="44.39147" lon="1.02593">
        <ele>236</ele>
        <time>2025-07-17T08:32:07.071Z</time>
      </trkpt>
      <trkpt lat="44.39145" lon="1.02592">
        <ele>236</ele>
        <time>2025-07-17T08:32:08.071Z</time>
      </trkpt>
      <trkpt lat="44.39145" lon="1.02592">
        <ele>236</ele>
        <time>2025-07-17T08:32:09.072Z</time>
      </trkpt>
      <trkpt lat="44.39144" lon="1.02591">
        <ele>236</ele>
        <time>2025-07-17T08:32:10.071Z</time>
      </trkpt>
      <trkpt lat="44.39144" lon="1.02591">
        <ele>235</ele>
        <time>2025-07-17T08:32:11.071Z</time>
      </trkpt>
      <trkpt lat="44.39143" lon="1.02591">
        <ele>235</ele>
        <time>2025-07-17T08:32:12.071Z</time>
      </trkpt>
      <trkpt lat="44.39143" lon="1.02591">
        <ele>235</ele>
        <time>2025-07-17T08:32:13.071Z</time>
      </trkpt>
      <trkpt lat="44.39142" lon="1.0259">
        <ele>234</ele>
        <time>2025-07-17T08:32:14.072Z</time>
      </trkpt>
      <trkpt lat="44.39142" lon="1.02589">
        <ele>234</ele>
        <time>2025-07-17T08:32:15.072Z</time>
      </trkpt>
      <trkpt lat="44.39141" lon="1.02589">
        <ele>234</ele>
        <time>2025-07-17T08:32:16.071Z</time>
      </trkpt>
      <trkpt lat="44.3914" lon="1.02588">
        <ele>234</ele>
        <time>2025-07-17T08:32:17.071Z</time>
      </trkpt>
      <trkpt lat="44.39139" lon="1.02587">
        <ele>234</ele>
        <time>2025-07-17T08:32:18.071Z</time>
      </trkpt>
      <trkpt lat="44.39139" lon="1.02586">
        <ele>234</ele>
        <time>2025-07-17T08:32:19.071Z</time>
      </trkpt>
      <trkpt lat="44.39138" lon="1.02583">
        <ele>233</ele>
        <time>2025-07-17T08:32:20.071Z</time>
      </trkpt>
      <trkpt lat="44.39136" lon="1.02583">
        <ele>233</ele>
        <time>2025-07-17T08:32:21.071Z</time>
      </trkpt>
      <trkpt lat="44.39135" lon="1.02582">
        <ele>233</ele>
        <time>2025-07-17T08:32:22.071Z</time>
      </trkpt>
      <trkpt lat="44.39133" lon="1.02581">
        <ele>233</ele>
        <time>2025-07-17T08:32:23.071Z</time>
      </trkpt>
      <trkpt lat="44.39132" lon="1.0258">
        <ele>232</ele>
        <time>2025-07-17T08:32:24.071Z</time>
      </trkpt>
      <trkpt lat="44.39132" lon="1.02578">
        <ele>232</ele>
        <time>2025-07-17T08:32:25.071Z</time>
      </trkpt>
      <trkpt lat="44.39132" lon="1.02576">
        <ele>232</ele>
        <time>2025-07-17T08:32:26.072Z</time>
      </trkpt>
      <trkpt lat="44.39131" lon="1.02575">
        <ele>232</ele>
        <time>2025-07-17T08:32:27.072Z</time>
      </trkpt>
      <trkpt lat="44.39131" lon="1.02574">
        <ele>231</ele>
        <time>2025-07-17T08:32:28.071Z</time>
      </trkpt>
      <trkpt lat="44.39131" lon="1.02573">
        <ele>231</ele>
        <time>2025-07-17T08:32:29.072Z</time>
      </trkpt>
      <trkpt lat="44.3913" lon="1.02572">
        <ele>231</ele>
        <time>2025-07-17T08:32:30.071Z</time>
      </trkpt>
      <trkpt lat="44.39129" lon="1.02572">
        <ele>231</ele>
        <time>2025-07-17T08:32:31.071Z</time>
      </trkpt>
      <trkpt lat="44.39129" lon="1.02571">
        <ele>231</ele>
        <time>2025-07-17T08:32:32.071Z</time>
      </trkpt>
      <trkpt lat="44.39129" lon="1.0257">
        <ele>231</ele>
        <time>2025-07-17T08:32:33.071Z</time>
      </trkpt>
      <trkpt lat="44.39129" lon="1.0257">
        <ele>231</ele>
        <time>2025-07-17T08:32:34.071Z</time>
      </trkpt>
      <trkpt lat="44.39129" lon="1.02568">
        <ele>231</ele>
        <time>2025-07-17T08:32:35.072Z</time>
      </trkpt>
      <trkpt lat="44.39129" lon="1.02567">
        <ele>231</ele>
        <time>2025-07-17T08:32:36.071Z</time>
      </trkpt>
      <trkpt lat="44.39129" lon="1.02565">
        <ele>231</ele>
        <time>2025-07-17T08:32:37.071Z</time>
      </trkpt>
      <trkpt lat="44.39128" lon="1.02564">
        <ele>231</ele>
        <time>2025-07-17T08:32:38.071Z</time>
      </trkpt>
      <trkpt lat="44.39127" lon="1.02562">
        <ele>231</ele>
        <time>2025-07-17T08:32:39.071Z</time>
      </trkpt>
      <trkpt lat="44.39127" lon="1.02561">
        <ele>231</ele>
        <time>2025-07-17T08:32:40.071Z</time>
      </trkpt>
      <trkpt lat="44.39127" lon="1.02559">
        <ele>231</ele>
        <time>2025-07-17T08:32:41.071Z</time>
      </trkpt>
      <trkpt lat="44.39126" lon="1.02558">
        <ele>231</ele>
        <time>2025-07-17T08:32:42.072Z</time>
      </trkpt>
      <trkpt lat="44.39125" lon="1.02557">
        <ele>231</ele>
        <time>2025-07-17T08:32:43.071Z</time>
      </trkpt>
      <trkpt lat="44.39125" lon="1.02556">
        <ele>232</ele>
        <time>2025-07-17T08:32:44.071Z</time>
      </trkpt>
      <trkpt lat="44.39125" lon="1.02554">
        <ele>232</ele>
        <time>2025-07-17T08:32:45.071Z</time>
      </trkpt>
      <trkpt lat="44.39124" lon="1.02553">
        <ele>232</ele>
        <time>2025-07-17T08:32:46.071Z</time>
      </trkpt>
      <trkpt lat="44.39123" lon="1.02552">
        <ele>232</ele>
        <time>2025-07-17T08:32:47.071Z</time>
      </trkpt>
      <trkpt lat="44.39123" lon="1.02551">
        <ele>232</ele>
        <time>2025-07-17T08:32:48.071Z</time>
      </trkpt>
      <trkpt lat="44.39122" lon="1.0255">
        <ele>233</ele>
        <time>2025-07-17T08:32:49.071Z</time>
      </trkpt>
      <trkpt lat="44.3912" lon="1.02549">
        <ele>233</ele>
        <time>2025-07-17T08:32:50.071Z</time>
      </trkpt>
      <trkpt lat="44.3912" lon="1.02548">
        <ele>233</ele>
        <time>2025-07-17T08:32:51.071Z</time>
      </trkpt>
      <trkpt lat="44.39119" lon="1.02546">
        <ele>233</ele>
        <time>2025-07-17T08:32:52.071Z</time>
      </trkpt>
      <trkpt lat="44.39118" lon="1.02545">
        <ele>233</ele>
        <time>2025-07-17T08:32:53.071Z</time>
      </trkpt>
      <trkpt lat="44.39118" lon="1.02543">
        <ele>232</ele>
        <time>2025-07-17T08:32:54.071Z</time>
      </trkpt>
      <trkpt lat="44.39117" lon="1.02541">
        <ele>232</ele>
        <time>2025-07-17T08:32:55.071Z</time>
      </trkpt>
      <trkpt lat="44.39116" lon="1.0254">
        <ele>231</ele>
        <time>2025-07-17T08:32:56.071Z</time>
      </trkpt>
      <trkpt lat="44.39115" lon="1.02538">
        <ele>231</ele>
        <time>2025-07-17T08:32:57.071Z</time>
      </trkpt>
      <trkpt lat="44.39114" lon="1.02536">
        <ele>231</ele>
        <time>2025-07-17T08:32:58.072Z</time>
      </trkpt>
      <trkpt lat="44.39113" lon="1.02535">
        <ele>230</ele>
        <time>2025-07-17T08:32:59.071Z</time>
      </trkpt>
      <trkpt lat="44.39112" lon="1.02533">
        <ele>230</ele>
        <time>2025-07-17T08:33:00.072Z</time>
      </trkpt>
      <trkpt lat="44.39112" lon="1.02532">
        <ele>230</ele>
        <time>2025-07-17T08:33:01.071Z</time>
      </trkpt>
      <trkpt lat="44.39111" lon="1.0253">
        <ele>230</ele>
        <time>2025-07-17T08:33:02.071Z</time>
      </trkpt>
      <trkpt lat="44.39111" lon="1.02529">
        <ele>230</ele>
        <time>2025-07-17T08:33:03.071Z</time>
      </trkpt>
      <trkpt lat="44.39111" lon="1.02528">
        <ele>230</ele>
        <time>2025-07-17T08:33:04.072Z</time>
      </trkpt>
      <trkpt lat="44.39111" lon="1.02527">
        <ele>230</ele>
        <time>2025-07-17T08:33:05.071Z</time>
      </trkpt>
      <trkpt lat="44.3911" lon="1.02527">
        <ele>230</ele>
        <time>2025-07-17T08:33:06.071Z</time>
      </trkpt>
      <trkpt lat="44.3911" lon="1.02526">
        <ele>231</ele>
        <time>2025-07-17T08:33:07.072Z</time>
      </trkpt>
      <trkpt lat="44.39109" lon="1.02524">
        <ele>232</ele>
        <time>2025-07-17T08:33:08.071Z</time>
      </trkpt>
      <trkpt lat="44.39109" lon="1.02524">
        <ele>232</ele>
        <time>2025-07-17T08:33:09.071Z</time>
      </trkpt>
      <trkpt lat="44.39108" lon="1.02522">
        <ele>233</ele>
        <time>2025-07-17T08:33:10.071Z</time>
      </trkpt>
      <trkpt lat="44.39108" lon="1.02521">
        <ele>233</ele>
        <time>2025-07-17T08:33:11.071Z</time>
      </trkpt>
      <trkpt lat="44.39108" lon="1.0252">
        <ele>233</ele>
        <time>2025-07-17T08:33:12.071Z</time>
      </trkpt>
      <trkpt lat="44.39107" lon="1.02519">
        <ele>233</ele>
        <time>2025-07-17T08:33:13.071Z</time>
      </trkpt>
      <trkpt lat="44.39105" lon="1.02517">
        <ele>234</ele>
        <time>2025-07-17T08:33:14.071Z</time>
      </trkpt>
      <trkpt lat="44.39104" lon="1.02515">
        <ele>234</ele>
        <time>2025-07-17T08:33:15.071Z</time>
      </trkpt>
      <trkpt lat="44.39103" lon="1.02513">
        <ele>234</ele>
        <time>2025-07-17T08:33:16.071Z</time>
      </trkpt>
      <trkpt lat="44.39102" lon="1.02511">
        <ele>233</ele>
        <time>2025-07-17T08:33:17.071Z</time>
      </trkpt>
      <trkpt lat="44.391" lon="1.02508">
        <ele>233</ele>
        <time>2025-07-17T08:33:18.072Z</time>
      </trkpt>
      <trkpt lat="44.391" lon="1.02506">
        <ele>233</ele>
        <time>2025-07-17T08:33:19.071Z</time>
      </trkpt>
      <trkpt lat="44.39099" lon="1.02505">
        <ele>232</ele>
        <time>2025-07-17T08:33:20.071Z</time>
      </trkpt>
      <trkpt lat="44.39099" lon="1.02503">
        <ele>232</ele>
        <time>2025-07-17T08:33:21.071Z</time>
      </trkpt>
      <trkpt lat="44.39098" lon="1.02503">
        <ele>232</ele>
        <time>2025-07-17T08:33:22.071Z</time>
      </trkpt>
      <trkpt lat="44.39099" lon="1.02502">
        <ele>233</ele>
        <time>2025-07-17T08:33:23.071Z</time>
      </trkpt>
      <trkpt lat="44.39099" lon="1.025">
        <ele>233</ele>
        <time>2025-07-17T08:33:24.071Z</time>
      </trkpt>
      <trkpt lat="44.39099" lon="1.02499">
        <ele>233</ele>
        <time>2025-07-17T08:33:25.071Z</time>
      </trkpt>
      <trkpt lat="44.39099" lon="1.02498">
        <ele>233</ele>
        <time>2025-07-17T08:33:26.071Z</time>
      </trkpt>
      <trkpt lat="44.39098" lon="1.02496">
        <ele>233</ele>
        <time>2025-07-17T08:33:27.071Z</time>
      </trkpt>
      <trkpt lat="44.39097" lon="1.02495">
        <ele>233</ele>
        <time>2025-07-17T08:33:28.071Z</time>
      </trkpt>
      <trkpt lat="44.39096" lon="1.02493">
        <ele>233</ele>
        <time>2025-07-17T08:33:29.071Z</time>
      </trkpt>
      <trkpt lat="44.39096" lon="1.02492">
        <ele>233</ele>
        <time>2025-07-17T08:33:30.071Z</time>
      </trkpt>
      <trkpt lat="44.39095" lon="1.02491">
        <ele>232</ele>
        <time>2025-07-17T08:33:31.071Z</time>
      </trkpt>
      <trkpt lat="44.39094" lon="1.02489">
        <ele>232</ele>
        <time>2025-07-17T08:33:32.071Z</time>
      </trkpt>
      <trkpt lat="44.39094" lon="1.02488">
        <ele>232</ele>
        <time>2025-07-17T08:33:33.071Z</time>
      </trkpt>
      <trkpt lat="44.39093" lon="1.02487">
        <ele>232</ele>
        <time>2025-07-17T08:33:34.071Z</time>
      </trkpt>
      <trkpt lat="44.39093" lon="1.02485">
        <ele>232</ele>
        <time>2025-07-17T08:33:35.071Z</time>
      </trkpt>
      <trkpt lat="44.39092" lon="1.02484">
        <ele>232</ele>
        <time>2025-07-17T08:33:36.071Z</time>
      </trkpt>
      <trkpt lat="44.39092" lon="1.02483">
        <ele>232</ele>
        <time>2025-07-17T08:33:37.071Z</time>
      </trkpt>
      <trkpt lat="44.39091" lon="1.02483">
        <ele>232</ele>
        <time>2025-07-17T08:33:38.071Z</time>
      </trkpt>
      <trkpt lat="44.39091" lon="1.02482">
        <ele>232</ele>
        <time>2025-07-17T08:33:39.071Z</time>
      </trkpt>
      <trkpt lat="44.3909" lon="1.02481">
        <ele>232</ele>
        <time>2025-07-17T08:33:40.071Z</time>
      </trkpt>
      <trkpt lat="44.39089" lon="1.02479">
        <ele>232</ele>
        <time>2025-07-17T08:33:41.071Z</time>
      </trkpt>
      <trkpt lat="44.39088" lon="1.02478">
        <ele>231</ele>
        <time>2025-07-17T08:33:42.071Z</time>
      </trkpt>
      <trkpt lat="44.39088" lon="1.02477">
        <ele>231</ele>
        <time>2025-07-17T08:33:43.071Z</time>
      </trkpt>
      <trkpt lat="44.39088" lon="1.02476">
        <ele>231</ele>
        <time>2025-07-17T08:33:44.072Z</time>
      </trkpt>
      <trkpt lat="44.39088" lon="1.02475">
        <ele>231</ele>
        <time>2025-07-17T08:33:45.071Z</time>
      </trkpt>
      <trkpt lat="44.39087" lon="1.02473">
        <ele>231</ele>
        <time>2025-07-17T08:33:46.071Z</time>
      </trkpt>
      <trkpt lat="44.39087" lon="1.02472">
        <ele>231</ele>
        <time>2025-07-17T08:33:47.071Z</time>
      </trkpt>
      <trkpt lat="44.39087" lon="1.02472">
        <ele>231</ele>
        <time>2025-07-17T08:33:48.072Z</time>
      </trkpt>
      <trkpt lat="44.39085" lon="1.0247">
        <ele>231</ele>
        <time>2025-07-17T08:33:49.071Z</time>
      </trkpt>
      <trkpt lat="44.39085" lon="1.02469">
        <ele>231</ele>
        <time>2025-07-17T08:33:50.071Z</time>
      </trkpt>
      <trkpt lat="44.39084" lon="1.02468">
        <ele>231</ele>
        <time>2025-07-17T08:33:51.071Z</time>
      </trkpt>
      <trkpt lat="44.39084" lon="1.02467">
        <ele>231</ele>
        <time>2025-07-17T08:33:52.071Z</time>
      </trkpt>
      <trkpt lat="44.39085" lon="1.02465">
        <ele>231</ele>
        <time>2025-07-17T08:33:53.071Z</time>
      </trkpt>
      <trkpt lat="44.39084" lon="1.02464">
        <ele>231</ele>
        <time>2025-07-17T08:33:54.071Z</time>
      </trkpt>
      <trkpt lat="44.39083" lon="1.02463">
        <ele>231</ele>
        <time>2025-07-17T08:33:55.071Z</time>
      </trkpt>
      <trkpt lat="44.39083" lon="1.02461">
        <ele>231</ele>
        <time>2025-07-17T08:33:56.071Z</time>
      </trkpt>
      <trkpt lat="44.39081" lon="1.0246">
        <ele>231</ele>
        <time>2025-07-17T08:33:57.071Z</time>
      </trkpt>
      <trkpt lat="44.3908" lon="1.02458">
        <ele>230</ele>
        <time>2025-07-17T08:33:58.071Z</time>
      </trkpt>
      <trkpt lat="44.39079" lon="1.02456">
        <ele>229</ele>
        <time>2025-07-17T08:33:59.071Z</time>
      </trkpt>
      <trkpt lat="44.39079" lon="1.02454">
        <ele>228</ele>
        <time>2025-07-17T08:34:00.071Z</time>
      </trkpt>
      <trkpt lat="44.39078" lon="1.02453">
        <ele>228</ele>
        <time>2025-07-17T08:34:01.071Z</time>
      </trkpt>
      <trkpt lat="44.39078" lon="1.02451">
        <ele>227</ele>
        <time>2025-07-17T08:34:02.071Z</time>
      </trkpt>
      <trkpt lat="44.39077" lon="1.02449">
        <ele>227</ele>
        <time>2025-07-17T08:34:03.071Z</time>
      </trkpt>
      <trkpt lat="44.39077" lon="1.02448">
        <ele>227</ele>
        <time>2025-07-17T08:34:04.071Z</time>
      </trkpt>
      <trkpt lat="44.39077" lon="1.02446">
        <ele>226</ele>
        <time>2025-07-17T08:34:05.071Z</time>
      </trkpt>
      <trkpt lat="44.39076" lon="1.02445">
        <ele>226</ele>
        <time>2025-07-17T08:34:06.072Z</time>
      </trkpt>
      <trkpt lat="44.39076" lon="1.02444">
        <ele>226</ele>
        <time>2025-07-17T08:34:07.071Z</time>
      </trkpt>
      <trkpt lat="44.39076" lon="1.02443">
        <ele>226</ele>
        <time>2025-07-17T08:34:08.071Z</time>
      </trkpt>
      <trkpt lat="44.39075" lon="1.02441">
        <ele>225</ele>
        <time>2025-07-17T08:34:09.071Z</time>
      </trkpt>
      <trkpt lat="44.39074" lon="1.0244">
        <ele>225</ele>
        <time>2025-07-17T08:34:10.071Z</time>
      </trkpt>
      <trkpt lat="44.39073" lon="1.02439">
        <ele>225</ele>
        <time>2025-07-17T08:34:11.071Z</time>
      </trkpt>
      <trkpt lat="44.39071" lon="1.02438">
        <ele>224</ele>
        <time>2025-07-17T08:34:12.071Z</time>
      </trkpt>
      <trkpt lat="44.39071" lon="1.02436">
        <ele>224</ele>
        <time>2025-07-17T08:34:13.071Z</time>
      </trkpt>
      <trkpt lat="44.39071" lon="1.02434">
        <ele>224</ele>
        <time>2025-07-17T08:34:14.071Z</time>
      </trkpt>
      <trkpt lat="44.3907" lon="1.02433">
        <ele>224</ele>
        <time>2025-07-17T08:34:15.071Z</time>
      </trkpt>
      <trkpt lat="44.39069" lon="1.02433">
        <ele>224</ele>
        <time>2025-07-17T08:34:16.071Z</time>
      </trkpt>
      <trkpt lat="44.39068" lon="1.02431">
        <ele>224</ele>
        <time>2025-07-17T08:34:17.071Z</time>
      </trkpt>
      <trkpt lat="44.39068" lon="1.0243">
        <ele>225</ele>
        <time>2025-07-17T08:34:18.071Z</time>
      </trkpt>
      <trkpt lat="44.39067" lon="1.02428">
        <ele>225</ele>
        <time>2025-07-17T08:34:19.071Z</time>
      </trkpt>
      <trkpt lat="44.39066" lon="1.02427">
        <ele>225</ele>
        <time>2025-07-17T08:34:20.071Z</time>
      </trkpt>
      <trkpt lat="44.39066" lon="1.02425">
        <ele>224</ele>
        <time>2025-07-17T08:34:21.071Z</time>
      </trkpt>
      <trkpt lat="44.39066" lon="1.02423">
        <ele>224</ele>
        <time>2025-07-17T08:34:22.071Z</time>
      </trkpt>
      <trkpt lat="44.39066" lon="1.02422">
        <ele>224</ele>
        <time>2025-07-17T08:34:23.071Z</time>
      </trkpt>
      <trkpt lat="44.39064" lon="1.02421">
        <ele>223</ele>
        <time>2025-07-17T08:34:24.071Z</time>
      </trkpt>
      <trkpt lat="44.39064" lon="1.0242">
        <ele>223</ele>
        <time>2025-07-17T08:34:25.071Z</time>
      </trkpt>
      <trkpt lat="44.39064" lon="1.02418">
        <ele>222</ele>
        <time>2025-07-17T08:34:26.071Z</time>
      </trkpt>
      <trkpt lat="44.39064" lon="1.02416">
        <ele>222</ele>
        <time>2025-07-17T08:34:27.071Z</time>
      </trkpt>
      <trkpt lat="44.39064" lon="1.02415">
        <ele>222</ele>
        <time>2025-07-17T08:34:28.071Z</time>
      </trkpt>
      <trkpt lat="44.39064" lon="1.02413">
        <ele>222</ele>
        <time>2025-07-17T08:34:29.071Z</time>
      </trkpt>
      <trkpt lat="44.39063" lon="1.02411">
        <ele>222</ele>
        <time>2025-07-17T08:34:30.071Z</time>
      </trkpt>
      <trkpt lat="44.39062" lon="1.0241">
        <ele>222</ele>
        <time>2025-07-17T08:34:31.071Z</time>
      </trkpt>
      <trkpt lat="44.39061" lon="1.02408">
        <ele>222</ele>
        <time>2025-07-17T08:34:32.071Z</time>
      </trkpt>
      <trkpt lat="44.3906" lon="1.02407">
        <ele>222</ele>
        <time>2025-07-17T08:34:33.071Z</time>
      </trkpt>
      <trkpt lat="44.3906" lon="1.02406">
        <ele>221</ele>
        <time>2025-07-17T08:34:34.071Z</time>
      </trkpt>
      <trkpt lat="44.39059" lon="1.02405">
        <ele>221</ele>
        <time>2025-07-17T08:34:35.071Z</time>
      </trkpt>
      <trkpt lat="44.39059" lon="1.02404">
        <ele>221</ele>
        <time>2025-07-17T08:34:36.071Z</time>
      </trkpt>
      <trkpt lat="44.39058" lon="1.02403">
        <ele>221</ele>
        <time>2025-07-17T08:34:37.071Z</time>
      </trkpt>
      <trkpt lat="44.39058" lon="1.02402">
        <ele>221</ele>
        <time>2025-07-17T08:34:38.071Z</time>
      </trkpt>
      <trkpt lat="44.39058" lon="1.02401">
        <ele>221</ele>
        <time>2025-07-17T08:34:39.071Z</time>
      </trkpt>
      <trkpt lat="44.39057" lon="1.02399">
        <ele>221</ele>
        <time>2025-07-17T08:34:40.071Z</time>
      </trkpt>
      <trkpt lat="44.39057" lon="1.02398">
        <ele>221</ele>
        <time>2025-07-17T08:34:41.071Z</time>
      </trkpt>
      <trkpt lat="44.39056" lon="1.02396">
        <ele>221</ele>
        <time>2025-07-17T08:34:42.071Z</time>
      </trkpt>
      <trkpt lat="44.39055" lon="1.02395">
        <ele>221</ele>
        <time>2025-07-17T08:34:43.071Z</time>
      </trkpt>
      <trkpt lat="44.39055" lon="1.02394">
        <ele>221</ele>
        <time>2025-07-17T08:34:44.071Z</time>
      </trkpt>
      <trkpt lat="44.39054" lon="1.02393">
        <ele>221</ele>
        <time>2025-07-17T08:34:45.071Z</time>
      </trkpt>
      <trkpt lat="44.39054" lon="1.02392">
        <ele>221</ele>
        <time>2025-07-17T08:34:46.071Z</time>
      </trkpt>
      <trkpt lat="44.39053" lon="1.02391">
        <ele>221</ele>
        <time>2025-07-17T08:34:47.071Z</time>
      </trkpt>
      <trkpt lat="44.39052" lon="1.02391">
        <ele>221</ele>
        <time>2025-07-17T08:34:48.071Z</time>
      </trkpt>
      <trkpt lat="44.39052" lon="1.0239">
        <ele>221</ele>
        <time>2025-07-17T08:34:49.071Z</time>
      </trkpt>
      <trkpt lat="44.39052" lon="1.02389">
        <ele>221</ele>
        <time>2025-07-17T08:34:50.071Z</time>
      </trkpt>
      <trkpt lat="44.39051" lon="1.02388">
        <ele>221</ele>
        <time>2025-07-17T08:34:51.071Z</time>
      </trkpt>
      <trkpt lat="44.39051" lon="1.02387">
        <ele>222</ele>
        <time>2025-07-17T08:34:52.071Z</time>
      </trkpt>
      <trkpt lat="44.39051" lon="1.02385">
        <ele>222</ele>
        <time>2025-07-17T08:34:53.071Z</time>
      </trkpt>
      <trkpt lat="44.3905" lon="1.02385">
        <ele>222</ele>
        <time>2025-07-17T08:34:54.071Z</time>
      </trkpt>
      <trkpt lat="44.3905" lon="1.02384">
        <ele>222</ele>
        <time>2025-07-17T08:34:55.071Z</time>
      </trkpt>
      <trkpt lat="44.39049" lon="1.02383">
        <ele>222</ele>
        <time>2025-07-17T08:34:56.071Z</time>
      </trkpt>
      <trkpt lat="44.39048" lon="1.02382">
        <ele>222</ele>
        <time>2025-07-17T08:34:57.071Z</time>
      </trkpt>
      <trkpt lat="44.39048" lon="1.02381">
        <ele>223</ele>
        <time>2025-07-17T08:34:58.071Z</time>
      </trkpt>
      <trkpt lat="44.39047" lon="1.0238">
        <ele>223</ele>
        <time>2025-07-17T08:34:59.071Z</time>
      </trkpt>
      <trkpt lat="44.39047" lon="1.02379">
        <ele>223</ele>
        <time>2025-07-17T08:35:00.071Z</time>
      </trkpt>
      <trkpt lat="44.39046" lon="1.02378">
        <ele>223</ele>
        <time>2025-07-17T08:35:01.071Z</time>
      </trkpt>
      <trkpt lat="44.39046" lon="1.02377">
        <ele>223</ele>
        <time>2025-07-17T08:35:02.071Z</time>
      </trkpt>
      <trkpt lat="44.39045" lon="1.02377">
        <ele>224</ele>
        <time>2025-07-17T08:35:03.071Z</time>
      </trkpt>
      <trkpt lat="44.39045" lon="1.02376">
        <ele>224</ele>
        <time>2025-07-17T08:35:04.071Z</time>
      </trkpt>
      <trkpt lat="44.39044" lon="1.02375">
        <ele>224</ele>
        <time>2025-07-17T08:35:05.071Z</time>
      </trkpt>
      <trkpt lat="44.39043" lon="1.02374">
        <ele>224</ele>
        <time>2025-07-17T08:35:06.071Z</time>
      </trkpt>
      <trkpt lat="44.39043" lon="1.02372">
        <ele>224</ele>
        <time>2025-07-17T08:35:07.071Z</time>
      </trkpt>
      <trkpt lat="44.39042" lon="1.0237">
        <ele>224</ele>
        <time>2025-07-17T08:35:08.071Z</time>
      </trkpt>
      <trkpt lat="44.39042" lon="1.02369">
        <ele>224</ele>
        <time>2025-07-17T08:35:09.071Z</time>
      </trkpt>
      <trkpt lat="44.39042" lon="1.02367">
        <ele>224</ele>
        <time>2025-07-17T08:35:10.071Z</time>
      </trkpt>
      <trkpt lat="44.39041" lon="1.02366">
        <ele>224</ele>
        <time>2025-07-17T08:35:11.071Z</time>
      </trkpt>
      <trkpt lat="44.39041" lon="1.02365">
        <ele>223</ele>
        <time>2025-07-17T08:35:12.071Z</time>
      </trkpt>
      <trkpt lat="44.3904" lon="1.02365">
        <ele>223</ele>
        <time>2025-07-17T08:35:13.071Z</time>
      </trkpt>
      <trkpt lat="44.39039" lon="1.02364">
        <ele>223</ele>
        <time>2025-07-17T08:35:14.071Z</time>
      </trkpt>
      <trkpt lat="44.39039" lon="1.02362">
        <ele>223</ele>
        <time>2025-07-17T08:35:15.071Z</time>
      </trkpt>
      <trkpt lat="44.39038" lon="1.0236">
        <ele>223</ele>
        <time>2025-07-17T08:35:16.071Z</time>
      </trkpt>
      <trkpt lat="44.39037" lon="1.02358">
        <ele>223</ele>
        <time>2025-07-17T08:35:17.071Z</time>
      </trkpt>
      <trkpt lat="44.39037" lon="1.02354">
        <ele>223</ele>
        <time>2025-07-17T08:35:18.071Z</time>
      </trkpt>
      <trkpt lat="44.39038" lon="1.02353">
        <ele>224</ele>
        <time>2025-07-17T08:35:19.071Z</time>
      </trkpt>
      <trkpt lat="44.39037" lon="1.02352">
        <ele>224</ele>
        <time>2025-07-17T08:35:20.071Z</time>
      </trkpt>
      <trkpt lat="44.39036" lon="1.02351">
        <ele>223</ele>
        <time>2025-07-17T08:35:21.071Z</time>
      </trkpt>
      <trkpt lat="44.39034" lon="1.0235">
        <ele>223</ele>
        <time>2025-07-17T08:35:22.071Z</time>
      </trkpt>
      <trkpt lat="44.39034" lon="1.02349">
        <ele>223</ele>
        <time>2025-07-17T08:35:23.071Z</time>
      </trkpt>
      <trkpt lat="44.39033" lon="1.02347">
        <ele>223</ele>
        <time>2025-07-17T08:35:24.071Z</time>
      </trkpt>
      <trkpt lat="44.39033" lon="1.02345">
        <ele>223</ele>
        <time>2025-07-17T08:35:25.071Z</time>
      </trkpt>
      <trkpt lat="44.39033" lon="1.02343">
        <ele>222</ele>
        <time>2025-07-17T08:35:26.071Z</time>
      </trkpt>
      <trkpt lat="44.39032" lon="1.02343">
        <ele>222</ele>
        <time>2025-07-17T08:35:27.071Z</time>
      </trkpt>
      <trkpt lat="44.39031" lon="1.02343">
        <ele>222</ele>
        <time>2025-07-17T08:35:28.071Z</time>
      </trkpt>
      <trkpt lat="44.39031" lon="1.02341">
        <ele>222</ele>
        <time>2025-07-17T08:35:29.071Z</time>
      </trkpt>
      <trkpt lat="44.39029" lon="1.0234">
        <ele>222</ele>
        <time>2025-07-17T08:35:30.071Z</time>
      </trkpt>
      <trkpt lat="44.39027" lon="1.02339">
        <ele>221</ele>
        <time>2025-07-17T08:35:31.071Z</time>
      </trkpt>
      <trkpt lat="44.39025" lon="1.02338">
        <ele>221</ele>
        <time>2025-07-17T08:35:32.071Z</time>
      </trkpt>
      <trkpt lat="44.39024" lon="1.02337">
        <ele>220</ele>
        <time>2025-07-17T08:35:33.071Z</time>
      </trkpt>
      <trkpt lat="44.39024" lon="1.02337">
        <ele>220</ele>
        <time>2025-07-17T08:35:34.071Z</time>
      </trkpt>
      <trkpt lat="44.39024" lon="1.02336">
        <ele>220</ele>
        <time>2025-07-17T08:35:35.071Z</time>
      </trkpt>
      <trkpt lat="44.39023" lon="1.02335">
        <ele>220</ele>
        <time>2025-07-17T08:35:36.071Z</time>
      </trkpt>
      <trkpt lat="44.39023" lon="1.02335">
        <ele>220</ele>
        <time>2025-07-17T08:35:37.071Z</time>
      </trkpt>
      <trkpt lat="44.39023" lon="1.02334">
        <ele>220</ele>
        <time>2025-07-17T08:35:38.071Z</time>
      </trkpt>
      <trkpt lat="44.39022" lon="1.02334">
        <ele>219</ele>
        <time>2025-07-17T08:35:39.071Z</time>
      </trkpt>
      <trkpt lat="44.39022" lon="1.02334">
        <ele>219</ele>
        <time>2025-07-17T08:35:40.071Z</time>
      </trkpt>
      <trkpt lat="44.39022" lon="1.02334">
        <ele>219</ele>
        <time>2025-07-17T08:35:41.071Z</time>
      </trkpt>
      <trkpt lat="44.39021" lon="1.02333">
        <ele>219</ele>
        <time>2025-07-17T08:35:42.071Z</time>
      </trkpt>
      <trkpt lat="44.39021" lon="1.02332">
        <ele>219</ele>
        <time>2025-07-17T08:35:43.071Z</time>
      </trkpt>
      <trkpt lat="44.39021" lon="1.02331">
        <ele>219</ele>
        <time>2025-07-17T08:35:44.071Z</time>
      </trkpt>
      <trkpt lat="44.3902" lon="1.0233">
        <ele>218</ele>
        <time>2025-07-17T08:35:45.071Z</time>
      </trkpt>
      <trkpt lat="44.3902" lon="1.02328">
        <ele>218</ele>
        <time>2025-07-17T08:35:46.071Z</time>
      </trkpt>
      <trkpt lat="44.39019" lon="1.02326">
        <ele>218</ele>
        <time>2025-07-17T08:35:47.071Z</time>
      </trkpt>
      <trkpt lat="44.39018" lon="1.02324">
        <ele>217</ele>
        <time>2025-07-17T08:35:48.071Z</time>
      </trkpt>
      <trkpt lat="44.39017" lon="1.02323">
        <ele>217</ele>
        <time>2025-07-17T08:35:49.071Z</time>
      </trkpt>
      <trkpt lat="44.39016" lon="1.02321">
        <ele>217</ele>
        <time>2025-07-17T08:35:50.071Z</time>
      </trkpt>
      <trkpt lat="44.39015" lon="1.0232">
        <ele>217</ele>
        <time>2025-07-17T08:35:51.071Z</time>
      </trkpt>
      <trkpt lat="44.39014" lon="1.02319">
        <ele>217</ele>
        <time>2025-07-17T08:35:52.071Z</time>
      </trkpt>
      <trkpt lat="44.39013" lon="1.02317">
        <ele>217</ele>
        <time>2025-07-17T08:35:53.071Z</time>
      </trkpt>
      <trkpt lat="44.39013" lon="1.02316">
        <ele>217</ele>
        <time>2025-07-17T08:35:54.071Z</time>
      </trkpt>
      <trkpt lat="44.39011" lon="1.02316">
        <ele>217</ele>
        <time>2025-07-17T08:35:55.071Z</time>
      </trkpt>
      <trkpt lat="44.39011" lon="1.02316">
        <ele>217</ele>
        <time>2025-07-17T08:35:56.071Z</time>
      </trkpt>
      <trkpt lat="44.39011" lon="1.02315">
        <ele>217</ele>
        <time>2025-07-17T08:35:57.071Z</time>
      </trkpt>
      <trkpt lat="44.39011" lon="1.02315">
        <ele>217</ele>
        <time>2025-07-17T08:35:58.071Z</time>
      </trkpt>
      <trkpt lat="44.39011" lon="1.02314">
        <ele>217</ele>
        <time>2025-07-17T08:35:59.071Z</time>
      </trkpt>
      <trkpt lat="44.3901" lon="1.02313">
        <ele>217</ele>
        <time>2025-07-17T08:36:00.071Z</time>
      </trkpt>
      <trkpt lat="44.3901" lon="1.02313">
        <ele>218</ele>
        <time>2025-07-17T08:36:01.071Z</time>
      </trkpt>
      <trkpt lat="44.39009" lon="1.02312">
        <ele>218</ele>
        <time>2025-07-17T08:36:02.071Z</time>
      </trkpt>
      <trkpt lat="44.39009" lon="1.02311">
        <ele>218</ele>
        <time>2025-07-17T08:36:03.071Z</time>
      </trkpt>
      <trkpt lat="44.39008" lon="1.02311">
        <ele>218</ele>
        <time>2025-07-17T08:36:04.071Z</time>
      </trkpt>
      <trkpt lat="44.39007" lon="1.0231">
        <ele>217</ele>
        <time>2025-07-17T08:36:05.071Z</time>
      </trkpt>
      <trkpt lat="44.39006" lon="1.02309">
        <ele>217</ele>
        <time>2025-07-17T08:36:06.071Z</time>
      </trkpt>
      <trkpt lat="44.39005" lon="1.02308">
        <ele>217</ele>
        <time>2025-07-17T08:36:07.071Z</time>
      </trkpt>
      <trkpt lat="44.39004" lon="1.02306">
        <ele>217</ele>
        <time>2025-07-17T08:36:08.071Z</time>
      </trkpt>
      <trkpt lat="44.39002" lon="1.02306">
        <ele>216</ele>
        <time>2025-07-17T08:36:09.071Z</time>
      </trkpt>
      <trkpt lat="44.39" lon="1.02306">
        <ele>216</ele>
        <time>2025-07-17T08:36:10.071Z</time>
      </trkpt>
      <trkpt lat="44.38999" lon="1.02305">
        <ele>215</ele>
        <time>2025-07-17T08:36:11.071Z</time>
      </trkpt>
      <trkpt lat="44.38998" lon="1.02303">
        <ele>215</ele>
        <time>2025-07-17T08:36:12.071Z</time>
      </trkpt>
      <trkpt lat="44.38998" lon="1.02302">
        <ele>215</ele>
        <time>2025-07-17T08:36:13.071Z</time>
      </trkpt>
      <trkpt lat="44.38997" lon="1.023">
        <ele>214</ele>
        <time>2025-07-17T08:36:14.071Z</time>
      </trkpt>
      <trkpt lat="44.38996" lon="1.02299">
        <ele>214</ele>
        <time>2025-07-17T08:36:15.071Z</time>
      </trkpt>
      <trkpt lat="44.38995" lon="1.02298">
        <ele>213</ele>
        <time>2025-07-17T08:36:16.071Z</time>
      </trkpt>
      <trkpt lat="44.38995" lon="1.02297">
        <ele>213</ele>
        <time>2025-07-17T08:36:17.072Z</time>
      </trkpt>
      <trkpt lat="44.38994" lon="1.02296">
        <ele>213</ele>
        <time>2025-07-17T08:36:18.071Z</time>
      </trkpt>
      <trkpt lat="44.38993" lon="1.02295">
        <ele>212</ele>
        <time>2025-07-17T08:36:19.071Z</time>
      </trkpt>
      <trkpt lat="44.38993" lon="1.02295">
        <ele>212</ele>
        <time>2025-07-17T08:36:20.071Z</time>
      </trkpt>
      <trkpt lat="44.38992" lon="1.02295">
        <ele>212</ele>
        <time>2025-07-17T08:36:21.071Z</time>
      </trkpt>
      <trkpt lat="44.38991" lon="1.02294">
        <ele>213</ele>
        <time>2025-07-17T08:36:22.071Z</time>
      </trkpt>
      <trkpt lat="44.3899" lon="1.02292">
        <ele>213</ele>
        <time>2025-07-17T08:36:23.071Z</time>
      </trkpt>
      <trkpt lat="44.38988" lon="1.0229">
        <ele>213</ele>
        <time>2025-07-17T08:36:24.071Z</time>
      </trkpt>
      <trkpt lat="44.38987" lon="1.02289">
        <ele>213</ele>
        <time>2025-07-17T08:36:25.071Z</time>
      </trkpt>
      <trkpt lat="44.38986" lon="1.0229">
        <ele>213</ele>
        <time>2025-07-17T08:36:26.071Z</time>
      </trkpt>
      <trkpt lat="44.38985" lon="1.0229">
        <ele>214</ele>
        <time>2025-07-17T08:36:27.071Z</time>
      </trkpt>
      <trkpt lat="44.38985" lon="1.02291">
        <ele>214</ele>
        <time>2025-07-17T08:36:28.071Z</time>
      </trkpt>
      <trkpt lat="44.38984" lon="1.0229">
        <ele>214</ele>
        <time>2025-07-17T08:36:29.071Z</time>
      </trkpt>
      <trkpt lat="44.38983" lon="1.02288">
        <ele>215</ele>
        <time>2025-07-17T08:36:30.071Z</time>
      </trkpt>
      <trkpt lat="44.38982" lon="1.02288">
        <ele>215</ele>
        <time>2025-07-17T08:36:31.071Z</time>
      </trkpt>
      <trkpt lat="44.38981" lon="1.02286">
        <ele>215</ele>
        <time>2025-07-17T08:36:32.071Z</time>
      </trkpt>
      <trkpt lat="44.38981" lon="1.02285">
        <ele>215</ele>
        <time>2025-07-17T08:36:33.071Z</time>
      </trkpt>
      <trkpt lat="44.3898" lon="1.02284">
        <ele>216</ele>
        <time>2025-07-17T08:36:34.071Z</time>
      </trkpt>
      <trkpt lat="44.38979" lon="1.02283">
        <ele>216</ele>
        <time>2025-07-17T08:36:35.071Z</time>
      </trkpt>
      <trkpt lat="44.38978" lon="1.02283">
        <ele>216</ele>
        <time>2025-07-17T08:36:36.071Z</time>
      </trkpt>
      <trkpt lat="44.38977" lon="1.02281">
        <ele>216</ele>
        <time>2025-07-17T08:36:37.071Z</time>
      </trkpt>
      <trkpt lat="44.38976" lon="1.02279">
        <ele>216</ele>
        <time>2025-07-17T08:36:38.071Z</time>
      </trkpt>
      <trkpt lat="44.38975" lon="1.02276">
        <ele>216</ele>
        <time>2025-07-17T08:36:39.071Z</time>
      </trkpt>
      <trkpt lat="44.38975" lon="1.02274">
        <ele>216</ele>
        <time>2025-07-17T08:36:40.072Z</time>
      </trkpt>
      <trkpt lat="44.38975" lon="1.02273">
        <ele>216</ele>
        <time>2025-07-17T08:36:41.071Z</time>
      </trkpt>
      <trkpt lat="44.38974" lon="1.02272">
        <ele>216</ele>
        <time>2025-07-17T08:36:42.071Z</time>
      </trkpt>
      <trkpt lat="44.38973" lon="1.02271">
        <ele>216</ele>
        <time>2025-07-17T08:36:43.072Z</time>
      </trkpt>
      <trkpt lat="44.38972" lon="1.02269">
        <ele>216</ele>
        <time>2025-07-17T08:36:44.071Z</time>
      </trkpt>
      <trkpt lat="44.38972" lon="1.02268">
        <ele>216</ele>
        <time>2025-07-17T08:36:45.071Z</time>
      </trkpt>
      <trkpt lat="44.38971" lon="1.02266">
        <ele>217</ele>
        <time>2025-07-17T08:36:46.071Z</time>
      </trkpt>
      <trkpt lat="44.38971" lon="1.02264">
        <ele>217</ele>
        <time>2025-07-17T08:36:47.071Z</time>
      </trkpt>
      <trkpt lat="44.38971" lon="1.02263">
        <ele>218</ele>
        <time>2025-07-17T08:36:48.071Z</time>
      </trkpt>
      <trkpt lat="44.38971" lon="1.02262">
        <ele>218</ele>
        <time>2025-07-17T08:36:49.071Z</time>
      </trkpt>
      <trkpt lat="44.3897" lon="1.02261">
        <ele>218</ele>
        <time>2025-07-17T08:36:50.071Z</time>
      </trkpt>
      <trkpt lat="44.38969" lon="1.02259">
        <ele>218</ele>
        <time>2025-07-17T08:36:51.071Z</time>
      </trkpt>
      <trkpt lat="44.3897" lon="1.02259">
        <ele>218</ele>
        <time>2025-07-17T08:36:52.071Z</time>
      </trkpt>
      <trkpt lat="44.38969" lon="1.02258">
        <ele>218</ele>
        <time>2025-07-17T08:36:53.071Z</time>
      </trkpt>
      <trkpt lat="44.38969" lon="1.02256">
        <ele>218</ele>
        <time>2025-07-17T08:36:54.071Z</time>
      </trkpt>
      <trkpt lat="44.38967" lon="1.02254">
        <ele>218</ele>
        <time>2025-07-17T08:36:55.071Z</time>
      </trkpt>
      <trkpt lat="44.38966" lon="1.02252">
        <ele>218</ele>
        <time>2025-07-17T08:36:56.071Z</time>
      </trkpt>
      <trkpt lat="44.38966" lon="1.0225">
        <ele>218</ele>
        <time>2025-07-17T08:36:57.071Z</time>
      </trkpt>
      <trkpt lat="44.38966" lon="1.02246">
        <ele>218</ele>
        <time>2025-07-17T08:36:58.071Z</time>
      </trkpt>
      <trkpt lat="44.38966" lon="1.02245">
        <ele>218</ele>
        <time>2025-07-17T08:36:59.071Z</time>
      </trkpt>
      <trkpt lat="44.38966" lon="1.02244">
        <ele>218</ele>
        <time>2025-07-17T08:37:00.071Z</time>
      </trkpt>
      <trkpt lat="44.38967" lon="1.02241">
        <ele>217</ele>
        <time>2025-07-17T08:37:01.071Z</time>
      </trkpt>
      <trkpt lat="44.38967" lon="1.02239">
        <ele>217</ele>
        <time>2025-07-17T08:37:02.071Z</time>
      </trkpt>
      <trkpt lat="44.38967" lon="1.02237">
        <ele>218</ele>
        <time>2025-07-17T08:37:03.071Z</time>
      </trkpt>
      <trkpt lat="44.38967" lon="1.02235">
        <ele>218</ele>
        <time>2025-07-17T08:37:04.071Z</time>
      </trkpt>
      <trkpt lat="44.38966" lon="1.02233">
        <ele>218</ele>
        <time>2025-07-17T08:37:05.071Z</time>
      </trkpt>
      <trkpt lat="44.38965" lon="1.0223">
        <ele>218</ele>
        <time>2025-07-17T08:37:06.071Z</time>
      </trkpt>
      <trkpt lat="44.38965" lon="1.02228">
        <ele>218</ele>
        <time>2025-07-17T08:37:07.071Z</time>
      </trkpt>
      <trkpt lat="44.38965" lon="1.02227">
        <ele>218</ele>
        <time>2025-07-17T08:37:08.071Z</time>
      </trkpt>
      <trkpt lat="44.38965" lon="1.02224">
        <ele>218</ele>
        <time>2025-07-17T08:37:09.071Z</time>
      </trkpt>
      <trkpt lat="44.38963" lon="1.02221">
        <ele>218</ele>
        <time>2025-07-17T08:37:10.071Z</time>
      </trkpt>
      <trkpt lat="44.38963" lon="1.02219">
        <ele>217</ele>
        <time>2025-07-17T08:37:11.071Z</time>
      </trkpt>
      <trkpt lat="44.38963" lon="1.02218">
        <ele>217</ele>
        <time>2025-07-17T08:37:12.071Z</time>
      </trkpt>
      <trkpt lat="44.38964" lon="1.02218">
        <ele>217</ele>
        <time>2025-07-17T08:37:13.071Z</time>
      </trkpt>
      <trkpt lat="44.38967" lon="1.02217">
        <ele>216</ele>
        <time>2025-07-17T08:37:14.071Z</time>
      </trkpt>
      <trkpt lat="44.38967" lon="1.02216">
        <ele>216</ele>
        <time>2025-07-17T08:37:15.071Z</time>
      </trkpt>
      <trkpt lat="44.38967" lon="1.02214">
        <ele>216</ele>
        <time>2025-07-17T08:37:16.071Z</time>
      </trkpt>
      <trkpt lat="44.38967" lon="1.02212">
        <ele>215</ele>
        <time>2025-07-17T08:37:17.071Z</time>
      </trkpt>
      <trkpt lat="44.38968" lon="1.02211">
        <ele>215</ele>
        <time>2025-07-17T08:37:18.071Z</time>
      </trkpt>
      <trkpt lat="44.38969" lon="1.02209">
        <ele>214</ele>
        <time>2025-07-17T08:37:19.071Z</time>
      </trkpt>
      <trkpt lat="44.3897" lon="1.02208">
        <ele>214</ele>
        <time>2025-07-17T08:37:20.071Z</time>
      </trkpt>
      <trkpt lat="44.38971" lon="1.02208">
        <ele>214</ele>
        <time>2025-07-17T08:37:21.071Z</time>
      </trkpt>
      <trkpt lat="44.38971" lon="1.02207">
        <ele>213</ele>
        <time>2025-07-17T08:37:22.071Z</time>
      </trkpt>
      <trkpt lat="44.38971" lon="1.02207">
        <ele>213</ele>
        <time>2025-07-17T08:37:23.071Z</time>
      </trkpt>
      <trkpt lat="44.38971" lon="1.02206">
        <ele>213</ele>
        <time>2025-07-17T08:37:24.071Z</time>
      </trkpt>
      <trkpt lat="44.38971" lon="1.02205">
        <ele>213</ele>
        <time>2025-07-17T08:37:25.071Z</time>
      </trkpt>
      <trkpt lat="44.38972" lon="1.02204">
        <ele>212</ele>
        <time>2025-07-17T08:37:26.071Z</time>
      </trkpt>
      <trkpt lat="44.38972" lon="1.02203">
        <ele>212</ele>
        <time>2025-07-17T08:37:27.071Z</time>
      </trkpt>
      <trkpt lat="44.38972" lon="1.02201">
        <ele>211</ele>
        <time>2025-07-17T08:37:28.071Z</time>
      </trkpt>
      <trkpt lat="44.38973" lon="1.022">
        <ele>211</ele>
        <time>2025-07-17T08:37:29.071Z</time>
      </trkpt>
      <trkpt lat="44.38973" lon="1.02198">
        <ele>211</ele>
        <time>2025-07-17T08:37:30.071Z</time>
      </trkpt>
      <trkpt lat="44.38974" lon="1.02196">
        <ele>211</ele>
        <time>2025-07-17T08:37:31.071Z</time>
      </trkpt>
      <trkpt lat="44.38974" lon="1.02194">
        <ele>211</ele>
        <time>2025-07-17T08:37:32.071Z</time>
      </trkpt>
      <trkpt lat="44.38975" lon="1.02192">
        <ele>211</ele>
        <time>2025-07-17T08:37:33.071Z</time>
      </trkpt>
      <trkpt lat="44.38976" lon="1.02191">
        <ele>211</ele>
        <time>2025-07-17T08:37:34.071Z</time>
      </trkpt>
      <trkpt lat="44.38976" lon="1.02189">
        <ele>210</ele>
        <time>2025-07-17T08:37:35.071Z</time>
      </trkpt>
      <trkpt lat="44.38976" lon="1.02188">
        <ele>210</ele>
        <time>2025-07-17T08:37:36.071Z</time>
      </trkpt>
      <trkpt lat="44.38976" lon="1.02187">
        <ele>210</ele>
        <time>2025-07-17T08:37:37.071Z</time>
      </trkpt>
      <trkpt lat="44.38976" lon="1.02186">
        <ele>210</ele>
        <time>2025-07-17T08:37:38.071Z</time>
      </trkpt>
      <trkpt lat="44.38977" lon="1.02185">
        <ele>210</ele>
        <time>2025-07-17T08:37:39.071Z</time>
      </trkpt>
      <trkpt lat="44.38977" lon="1.02184">
        <ele>210</ele>
        <time>2025-07-17T08:37:40.071Z</time>
      </trkpt>
      <trkpt lat="44.38978" lon="1.02183">
        <ele>210</ele>
        <time>2025-07-17T08:37:41.071Z</time>
      </trkpt>
      <trkpt lat="44.38978" lon="1.02182">
        <ele>210</ele>
        <time>2025-07-17T08:37:42.071Z</time>
      </trkpt>
      <trkpt lat="44.38978" lon="1.02181">
        <ele>209</ele>
        <time>2025-07-17T08:37:43.071Z</time>
      </trkpt>
      <trkpt lat="44.38979" lon="1.02179">
        <ele>209</ele>
        <time>2025-07-17T08:37:44.071Z</time>
      </trkpt>
      <trkpt lat="44.38979" lon="1.02178">
        <ele>208</ele>
        <time>2025-07-17T08:37:45.071Z</time>
      </trkpt>
      <trkpt lat="44.3898" lon="1.02177">
        <ele>207</ele>
        <time>2025-07-17T08:37:46.071Z</time>
      </trkpt>
      <trkpt lat="44.38981" lon="1.02175">
        <ele>207</ele>
        <time>2025-07-17T08:37:47.071Z</time>
      </trkpt>
      <trkpt lat="44.38982" lon="1.02175">
        <ele>206</ele>
        <time>2025-07-17T08:37:48.071Z</time>
      </trkpt>
      <trkpt lat="44.38982" lon="1.02173">
        <ele>206</ele>
        <time>2025-07-17T08:37:49.071Z</time>
      </trkpt>
      <trkpt lat="44.38983" lon="1.02172">
        <ele>205</ele>
        <time>2025-07-17T08:37:50.071Z</time>
      </trkpt>
      <trkpt lat="44.38983" lon="1.02171">
        <ele>205</ele>
        <time>2025-07-17T08:37:51.071Z</time>
      </trkpt>
      <trkpt lat="44.38984" lon="1.0217">
        <ele>204</ele>
        <time>2025-07-17T08:37:52.071Z</time>
      </trkpt>
      <trkpt lat="44.38986" lon="1.02168">
        <ele>204</ele>
        <time>2025-07-17T08:37:53.071Z</time>
      </trkpt>
      <trkpt lat="44.38986" lon="1.02166">
        <ele>204</ele>
        <time>2025-07-17T08:37:54.071Z</time>
      </trkpt>
      <trkpt lat="44.38987" lon="1.02165">
        <ele>203</ele>
        <time>2025-07-17T08:37:55.071Z</time>
      </trkpt>
      <trkpt lat="44.38987" lon="1.02164">
        <ele>203</ele>
        <time>2025-07-17T08:37:56.071Z</time>
      </trkpt>
      <trkpt lat="44.38987" lon="1.02163">
        <ele>202</ele>
        <time>2025-07-17T08:37:57.071Z</time>
      </trkpt>
      <trkpt lat="44.38987" lon="1.02162">
        <ele>202</ele>
        <time>2025-07-17T08:37:58.071Z</time>
      </trkpt>
      <trkpt lat="44.38988" lon="1.02161">
        <ele>201</ele>
        <time>2025-07-17T08:37:59.071Z</time>
      </trkpt>
      <trkpt lat="44.38987" lon="1.0216">
        <ele>200</ele>
        <time>2025-07-17T08:38:00.071Z</time>
      </trkpt>
      <trkpt lat="44.38987" lon="1.02159">
        <ele>200</ele>
        <time>2025-07-17T08:38:01.071Z</time>
      </trkpt>
      <trkpt lat="44.38987" lon="1.02157">
        <ele>200</ele>
        <time>2025-07-17T08:38:02.071Z</time>
      </trkpt>
      <trkpt lat="44.38987" lon="1.02156">
        <ele>200</ele>
        <time>2025-07-17T08:38:03.071Z</time>
      </trkpt>
      <trkpt lat="44.38988" lon="1.02156">
        <ele>200</ele>
        <time>2025-07-17T08:38:04.071Z</time>
      </trkpt>
      <trkpt lat="44.38989" lon="1.02155">
        <ele>200</ele>
        <time>2025-07-17T08:38:05.071Z</time>
      </trkpt>
      <trkpt lat="44.38989" lon="1.02154">
        <ele>199</ele>
        <time>2025-07-17T08:38:06.071Z</time>
      </trkpt>
      <trkpt lat="44.3899" lon="1.02153">
        <ele>199</ele>
        <time>2025-07-17T08:38:07.071Z</time>
      </trkpt>
      <trkpt lat="44.38991" lon="1.02152">
        <ele>199</ele>
        <time>2025-07-17T08:38:08.071Z</time>
      </trkpt>
      <trkpt lat="44.38991" lon="1.0215">
        <ele>199</ele>
        <time>2025-07-17T08:38:09.071Z</time>
      </trkpt>
      <trkpt lat="44.38991" lon="1.02149">
        <ele>199</ele>
        <time>2025-07-17T08:38:10.071Z</time>
      </trkpt>
      <trkpt lat="44.38992" lon="1.02147">
        <ele>199</ele>
        <time>2025-07-17T08:38:11.071Z</time>
      </trkpt>
      <trkpt lat="44.38992" lon="1.02146">
        <ele>199</ele>
        <time>2025-07-17T08:38:12.071Z</time>
      </trkpt>
      <trkpt lat="44.38993" lon="1.02145">
        <ele>199</ele>
        <time>2025-07-17T08:38:13.071Z</time>
      </trkpt>
      <trkpt lat="44.38993" lon="1.02143">
        <ele>199</ele>
        <time>2025-07-17T08:38:14.071Z</time>
      </trkpt>
      <trkpt lat="44.38993" lon="1.02142">
        <ele>199</ele>
        <time>2025-07-17T08:38:15.071Z</time>
      </trkpt>
      <trkpt lat="44.38994" lon="1.02142">
        <ele>199</ele>
        <time>2025-07-17T08:38:16.071Z</time>
      </trkpt>
      <trkpt lat="44.38995" lon="1.0214">
        <ele>199</ele>
        <time>2025-07-17T08:38:17.071Z</time>
      </trkpt>
      <trkpt lat="44.38995" lon="1.02139">
        <ele>199</ele>
        <time>2025-07-17T08:38:18.071Z</time>
      </trkpt>
      <trkpt lat="44.38995" lon="1.02138">
        <ele>199</ele>
        <time>2025-07-17T08:38:19.071Z</time>
      </trkpt>
      <trkpt lat="44.38995" lon="1.02137">
        <ele>199</ele>
        <time>2025-07-17T08:38:20.071Z</time>
      </trkpt>
      <trkpt lat="44.38995" lon="1.02135">
        <ele>199</ele>
        <time>2025-07-17T08:38:21.071Z</time>
      </trkpt>
      <trkpt lat="44.38995" lon="1.02134">
        <ele>199</ele>
        <time>2025-07-17T08:38:22.071Z</time>
      </trkpt>
      <trkpt lat="44.38996" lon="1.02133">
        <ele>200</ele>
        <time>2025-07-17T08:38:23.071Z</time>
      </trkpt>
      <trkpt lat="44.38996" lon="1.02132">
        <ele>200</ele>
        <time>2025-07-17T08:38:24.071Z</time>
      </trkpt>
      <trkpt lat="44.38997" lon="1.02131">
        <ele>200</ele>
        <time>2025-07-17T08:38:25.071Z</time>
      </trkpt>
      <trkpt lat="44.38998" lon="1.0213">
        <ele>199</ele>
        <time>2025-07-17T08:38:26.071Z</time>
      </trkpt>
      <trkpt lat="44.38999" lon="1.02129">
        <ele>199</ele>
        <time>2025-07-17T08:38:27.071Z</time>
      </trkpt>
      <trkpt lat="44.38999" lon="1.02128">
        <ele>199</ele>
        <time>2025-07-17T08:38:28.071Z</time>
      </trkpt>
      <trkpt lat="44.39" lon="1.02127">
        <ele>198</ele>
        <time>2025-07-17T08:38:29.071Z</time>
      </trkpt>
      <trkpt lat="44.39" lon="1.02127">
        <ele>198</ele>
        <time>2025-07-17T08:38:30.071Z</time>
      </trkpt>
      <trkpt lat="44.39001" lon="1.02125">
        <ele>198</ele>
        <time>2025-07-17T08:38:31.071Z</time>
      </trkpt>
      <trkpt lat="44.39001" lon="1.02124">
        <ele>197</ele>
        <time>2025-07-17T08:38:32.071Z</time>
      </trkpt>
      <trkpt lat="44.39002" lon="1.02123">
        <ele>197</ele>
        <time>2025-07-17T08:38:33.071Z</time>
      </trkpt>
      <trkpt lat="44.39002" lon="1.02122">
        <ele>197</ele>
        <time>2025-07-17T08:38:34.071Z</time>
      </trkpt>
      <trkpt lat="44.39002" lon="1.0212">
        <ele>197</ele>
        <time>2025-07-17T08:38:35.071Z</time>
      </trkpt>
      <trkpt lat="44.39002" lon="1.02119">
        <ele>197</ele>
        <time>2025-07-17T08:38:36.071Z</time>
      </trkpt>
      <trkpt lat="44.39002" lon="1.02118">
        <ele>197</ele>
        <time>2025-07-17T08:38:37.071Z</time>
      </trkpt>
      <trkpt lat="44.39002" lon="1.02116">
        <ele>197</ele>
        <time>2025-07-17T08:38:38.071Z</time>
      </trkpt>
      <trkpt lat="44.39002" lon="1.02115">
        <ele>197</ele>
        <time>2025-07-17T08:38:39.071Z</time>
      </trkpt>
      <trkpt lat="44.39003" lon="1.02114">
        <ele>197</ele>
        <time>2025-07-17T08:38:40.071Z</time>
      </trkpt>
      <trkpt lat="44.39003" lon="1.02112">
        <ele>197</ele>
        <time>2025-07-17T08:38:41.071Z</time>
      </trkpt>
      <trkpt lat="44.39003" lon="1.02112">
        <ele>197</ele>
        <time>2025-07-17T08:38:42.071Z</time>
      </trkpt>
      <trkpt lat="44.39003" lon="1.02111">
        <ele>196</ele>
        <time>2025-07-17T08:38:43.071Z</time>
      </trkpt>
      <trkpt lat="44.39004" lon="1.02109">
        <ele>196</ele>
        <time>2025-07-17T08:38:44.071Z</time>
      </trkpt>
      <trkpt lat="44.39004" lon="1.02108">
        <ele>195</ele>
        <time>2025-07-17T08:38:45.071Z</time>
      </trkpt>
      <trkpt lat="44.39004" lon="1.02107">
        <ele>194</ele>
        <time>2025-07-17T08:38:46.071Z</time>
      </trkpt>
      <trkpt lat="44.39005" lon="1.02106">
        <ele>193</ele>
        <time>2025-07-17T08:38:47.071Z</time>
      </trkpt>
      <trkpt lat="44.39005" lon="1.02105">
        <ele>193</ele>
        <time>2025-07-17T08:38:48.071Z</time>
      </trkpt>
      <trkpt lat="44.39006" lon="1.02104">
        <ele>193</ele>
        <time>2025-07-17T08:38:49.071Z</time>
      </trkpt>
      <trkpt lat="44.39006" lon="1.02102">
        <ele>193</ele>
        <time>2025-07-17T08:38:50.071Z</time>
      </trkpt>
      <trkpt lat="44.39006" lon="1.02101">
        <ele>193</ele>
        <time>2025-07-17T08:38:51.071Z</time>
      </trkpt>
      <trkpt lat="44.39006" lon="1.021">
        <ele>193</ele>
        <time>2025-07-17T08:38:52.071Z</time>
      </trkpt>
      <trkpt lat="44.39006" lon="1.02098">
        <ele>193</ele>
        <time>2025-07-17T08:38:53.071Z</time>
      </trkpt>
      <trkpt lat="44.39006" lon="1.02097">
        <ele>193</ele>
        <time>2025-07-17T08:38:54.071Z</time>
      </trkpt>
      <trkpt lat="44.39006" lon="1.02096">
        <ele>193</ele>
        <time>2025-07-17T08:38:55.071Z</time>
      </trkpt>
      <trkpt lat="44.39006" lon="1.02094">
        <ele>193</ele>
        <time>2025-07-17T08:38:56.071Z</time>
      </trkpt>
      <trkpt lat="44.39006" lon="1.02093">
        <ele>193</ele>
        <time>2025-07-17T08:38:57.071Z</time>
      </trkpt>
      <trkpt lat="44.39006" lon="1.02092">
        <ele>193</ele>
        <time>2025-07-17T08:38:58.071Z</time>
      </trkpt>
      <trkpt lat="44.39006" lon="1.02091">
        <ele>193</ele>
        <time>2025-07-17T08:38:59.071Z</time>
      </trkpt>
      <trkpt lat="44.39006" lon="1.02089">
        <ele>193</ele>
        <time>2025-07-17T08:39:00.071Z</time>
      </trkpt>
      <trkpt lat="44.39005" lon="1.02087">
        <ele>193</ele>
        <time>2025-07-17T08:39:01.071Z</time>
      </trkpt>
      <trkpt lat="44.39005" lon="1.02086">
        <ele>193</ele>
        <time>2025-07-17T08:39:02.071Z</time>
      </trkpt>
      <trkpt lat="44.39005" lon="1.02084">
        <ele>193</ele>
        <time>2025-07-17T08:39:03.071Z</time>
      </trkpt>
      <trkpt lat="44.39005" lon="1.02083">
        <ele>193</ele>
        <time>2025-07-17T08:39:04.071Z</time>
      </trkpt>
      <trkpt lat="44.39005" lon="1.02081">
        <ele>193</ele>
        <time>2025-07-17T08:39:05.071Z</time>
      </trkpt>
      <trkpt lat="44.39005" lon="1.02081">
        <ele>192</ele>
        <time>2025-07-17T08:39:06.071Z</time>
      </trkpt>
      <trkpt lat="44.39005" lon="1.0208">
        <ele>192</ele>
        <time>2025-07-17T08:39:07.071Z</time>
      </trkpt>
      <trkpt lat="44.39005" lon="1.02079">
        <ele>193</ele>
        <time>2025-07-17T08:39:08.071Z</time>
      </trkpt>
      <trkpt lat="44.39006" lon="1.02078">
        <ele>193</ele>
        <time>2025-07-17T08:39:09.071Z</time>
      </trkpt>
      <trkpt lat="44.39006" lon="1.02077">
        <ele>193</ele>
        <time>2025-07-17T08:39:10.071Z</time>
      </trkpt>
      <trkpt lat="44.39005" lon="1.02075">
        <ele>192</ele>
        <time>2025-07-17T08:39:11.072Z</time>
      </trkpt>
      <trkpt lat="44.39005" lon="1.02073">
        <ele>192</ele>
        <time>2025-07-17T08:39:12.071Z</time>
      </trkpt>
      <trkpt lat="44.39005" lon="1.02072">
        <ele>192</ele>
        <time>2025-07-17T08:39:13.071Z</time>
      </trkpt>
      <trkpt lat="44.39005" lon="1.02071">
        <ele>192</ele>
        <time>2025-07-17T08:39:14.071Z</time>
      </trkpt>
      <trkpt lat="44.39005" lon="1.0207">
        <ele>192</ele>
        <time>2025-07-17T08:39:15.071Z</time>
      </trkpt>
      <trkpt lat="44.39005" lon="1.02069">
        <ele>192</ele>
        <time>2025-07-17T08:39:16.071Z</time>
      </trkpt>
      <trkpt lat="44.39005" lon="1.02068">
        <ele>191</ele>
        <time>2025-07-17T08:39:17.071Z</time>
      </trkpt>
      <trkpt lat="44.39005" lon="1.02066">
        <ele>191</ele>
        <time>2025-07-17T08:39:18.071Z</time>
      </trkpt>
      <trkpt lat="44.39004" lon="1.02065">
        <ele>191</ele>
        <time>2025-07-17T08:39:19.071Z</time>
      </trkpt>
      <trkpt lat="44.39004" lon="1.02064">
        <ele>191</ele>
        <time>2025-07-17T08:39:20.071Z</time>
      </trkpt>
      <trkpt lat="44.39004" lon="1.02063">
        <ele>191</ele>
        <time>2025-07-17T08:39:21.071Z</time>
      </trkpt>
      <trkpt lat="44.39004" lon="1.02062">
        <ele>191</ele>
        <time>2025-07-17T08:39:22.072Z</time>
      </trkpt>
      <trkpt lat="44.39004" lon="1.0206">
        <ele>192</ele>
        <time>2025-07-17T08:39:23.071Z</time>
      </trkpt>
      <trkpt lat="44.39004" lon="1.02058">
        <ele>192</ele>
        <time>2025-07-17T08:39:24.071Z</time>
      </trkpt>
      <trkpt lat="44.39004" lon="1.02057">
        <ele>192</ele>
        <time>2025-07-17T08:39:25.071Z</time>
      </trkpt>
      <trkpt lat="44.39004" lon="1.02056">
        <ele>192</ele>
        <time>2025-07-17T08:39:26.071Z</time>
      </trkpt>
      <trkpt lat="44.39004" lon="1.02055">
        <ele>192</ele>
        <time>2025-07-17T08:39:27.071Z</time>
      </trkpt>
      <trkpt lat="44.39004" lon="1.02055">
        <ele>192</ele>
        <time>2025-07-17T08:39:28.071Z</time>
      </trkpt>
      <trkpt lat="44.39004" lon="1.02054">
        <ele>193</ele>
        <time>2025-07-17T08:39:29.072Z</time>
      </trkpt>
      <trkpt lat="44.39003" lon="1.02053">
        <ele>193</ele>
        <time>2025-07-17T08:39:30.071Z</time>
      </trkpt>
      <trkpt lat="44.39003" lon="1.02051">
        <ele>193</ele>
        <time>2025-07-17T08:39:31.071Z</time>
      </trkpt>
      <trkpt lat="44.39003" lon="1.0205">
        <ele>193</ele>
        <time>2025-07-17T08:39:32.071Z</time>
      </trkpt>
      <trkpt lat="44.39003" lon="1.02048">
        <ele>193</ele>
        <time>2025-07-17T08:39:33.071Z</time>
      </trkpt>
      <trkpt lat="44.39003" lon="1.02046">
        <ele>193</ele>
        <time>2025-07-17T08:39:34.071Z</time>
      </trkpt>
      <trkpt lat="44.39003" lon="1.02045">
        <ele>193</ele>
        <time>2025-07-17T08:39:35.071Z</time>
      </trkpt>
      <trkpt lat="44.39002" lon="1.02045">
        <ele>193</ele>
        <time>2025-07-17T08:39:36.071Z</time>
      </trkpt>
      <trkpt lat="44.39002" lon="1.02044">
        <ele>194</ele>
        <time>2025-07-17T08:39:37.071Z</time>
      </trkpt>
      <trkpt lat="44.39003" lon="1.02043">
        <ele>194</ele>
        <time>2025-07-17T08:39:38.071Z</time>
      </trkpt>
      <trkpt lat="44.39004" lon="1.02038">
        <ele>194</ele>
        <time>2025-07-17T08:39:39.071Z</time>
      </trkpt>
      <trkpt lat="44.39004" lon="1.02037">
        <ele>193</ele>
        <time>2025-07-17T08:39:40.071Z</time>
      </trkpt>
      <trkpt lat="44.39004" lon="1.02037">
        <ele>193</ele>
        <time>2025-07-17T08:39:41.071Z</time>
      </trkpt>
      <trkpt lat="44.39004" lon="1.02037">
        <ele>192</ele>
        <time>2025-07-17T08:39:42.071Z</time>
      </trkpt>
      <trkpt lat="44.39004" lon="1.02037">
        <ele>192</ele>
        <time>2025-07-17T08:39:43.071Z</time>
      </trkpt>
      <trkpt lat="44.39004" lon="1.02037">
        <ele>192</ele>
        <time>2025-07-17T08:39:44.071Z</time>
      </trkpt>
      <trkpt lat="44.39004" lon="1.02037">
        <ele>191</ele>
        <time>2025-07-17T08:39:45.072Z</time>
      </trkpt>
      <trkpt lat="44.39004" lon="1.02037">
        <ele>191</ele>
        <time>2025-07-17T08:39:46.071Z</time>
      </trkpt>
      <trkpt lat="44.39004" lon="1.02037">
        <ele>190</ele>
        <time>2025-07-17T08:39:47.071Z</time>
      </trkpt>
      <trkpt lat="44.39003" lon="1.02037">
        <ele>190</ele>
        <time>2025-07-17T08:39:48.071Z</time>
      </trkpt>
      <trkpt lat="44.39003" lon="1.02037">
        <ele>190</ele>
        <time>2025-07-17T08:39:49.071Z</time>
      </trkpt>
      <trkpt lat="44.39003" lon="1.02037">
        <ele>190</ele>
        <time>2025-07-17T08:39:50.071Z</time>
      </trkpt>
      <trkpt lat="44.39003" lon="1.02037">
        <ele>190</ele>
        <time>2025-07-17T08:39:51.071Z</time>
      </trkpt>
      <trkpt lat="44.39003" lon="1.02037">
        <ele>190</ele>
        <time>2025-07-17T08:39:52.071Z</time>
      </trkpt>
      <trkpt lat="44.39003" lon="1.02037">
        <ele>190</ele>
        <time>2025-07-17T08:39:53.071Z</time>
      </trkpt>
      <trkpt lat="44.39003" lon="1.02037">
        <ele>190</ele>
        <time>2025-07-17T08:39:54.072Z</time>
      </trkpt>
      <trkpt lat="44.39002" lon="1.02037">
        <ele>190</ele>
        <time>2025-07-17T08:39:55.071Z</time>
      </trkpt>
      <trkpt lat="44.39002" lon="1.02037">
        <ele>190</ele>
        <time>2025-07-17T08:39:56.071Z</time>
      </trkpt>
      <trkpt lat="44.39001" lon="1.02036">
        <ele>190</ele>
        <time>2025-07-17T08:39:57.071Z</time>
      </trkpt>
      <trkpt lat="44.39001" lon="1.02036">
        <ele>190</ele>
        <time>2025-07-17T08:39:58.071Z</time>
      </trkpt>
      <trkpt lat="44.39001" lon="1.02036">
        <ele>190</ele>
        <time>2025-07-17T08:39:59.071Z</time>
      </trkpt>
      <trkpt lat="44.39001" lon="1.02035">
        <ele>190</ele>
        <time>2025-07-17T08:40:00.071Z</time>
      </trkpt>
      <trkpt lat="44.39002" lon="1.02034">
        <ele>190</ele>
        <time>2025-07-17T08:40:01.071Z</time>
      </trkpt>
      <trkpt lat="44.39002" lon="1.02033">
        <ele>190</ele>
        <time>2025-07-17T08:40:02.071Z</time>
      </trkpt>
      <trkpt lat="44.39001" lon="1.02033">
        <ele>190</ele>
        <time>2025-07-17T08:40:03.071Z</time>
      </trkpt>
      <trkpt lat="44.39001" lon="1.02032">
        <ele>190</ele>
        <time>2025-07-17T08:40:04.071Z</time>
      </trkpt>
      <trkpt lat="44.39001" lon="1.02031">
        <ele>191</ele>
        <time>2025-07-17T08:40:05.071Z</time>
      </trkpt>
      <trkpt lat="44.39001" lon="1.0203">
        <ele>191</ele>
        <time>2025-07-17T08:40:06.071Z</time>
      </trkpt>
      <trkpt lat="44.39001" lon="1.02029">
        <ele>191</ele>
        <time>2025-07-17T08:40:07.071Z</time>
      </trkpt>
      <trkpt lat="44.39001" lon="1.02028">
        <ele>191</ele>
        <time>2025-07-17T08:40:08.071Z</time>
      </trkpt>
      <trkpt lat="44.39" lon="1.02028">
        <ele>191</ele>
        <time>2025-07-17T08:40:09.071Z</time>
      </trkpt>
      <trkpt lat="44.39" lon="1.02028">
        <ele>190</ele>
        <time>2025-07-17T08:40:10.071Z</time>
      </trkpt>
      <trkpt lat="44.39" lon="1.02027">
        <ele>190</ele>
        <time>2025-07-17T08:40:11.071Z</time>
      </trkpt>
      <trkpt lat="44.39" lon="1.02026">
        <ele>190</ele>
        <time>2025-07-17T08:40:12.071Z</time>
      </trkpt>
      <trkpt lat="44.39" lon="1.02025">
        <ele>190</ele>
        <time>2025-07-17T08:40:13.071Z</time>
      </trkpt>
      <trkpt lat="44.39" lon="1.02024">
        <ele>189</ele>
        <time>2025-07-17T08:40:14.071Z</time>
      </trkpt>
      <trkpt lat="44.39" lon="1.02022">
        <ele>189</ele>
        <time>2025-07-17T08:40:15.071Z</time>
      </trkpt>
      <trkpt lat="44.38999" lon="1.02021">
        <ele>189</ele>
        <time>2025-07-17T08:40:16.071Z</time>
      </trkpt>
      <trkpt lat="44.39" lon="1.0202">
        <ele>189</ele>
        <time>2025-07-17T08:40:17.071Z</time>
      </trkpt>
      <trkpt lat="44.39" lon="1.02019">
        <ele>189</ele>
        <time>2025-07-17T08:40:18.071Z</time>
      </trkpt>
      <trkpt lat="44.39" lon="1.02018">
        <ele>188</ele>
        <time>2025-07-17T08:40:19.071Z</time>
      </trkpt>
      <trkpt lat="44.39" lon="1.02018">
        <ele>188</ele>
        <time>2025-07-17T08:40:20.071Z</time>
      </trkpt>
      <trkpt lat="44.38999" lon="1.02017">
        <ele>188</ele>
        <time>2025-07-17T08:40:21.071Z</time>
      </trkpt>
      <trkpt lat="44.38999" lon="1.02016">
        <ele>187</ele>
        <time>2025-07-17T08:40:22.071Z</time>
      </trkpt>
      <trkpt lat="44.38998" lon="1.02014">
        <ele>187</ele>
        <time>2025-07-17T08:40:23.071Z</time>
      </trkpt>
      <trkpt lat="44.38998" lon="1.02012">
        <ele>187</ele>
        <time>2025-07-17T08:40:24.071Z</time>
      </trkpt>
      <trkpt lat="44.38998" lon="1.0201">
        <ele>187</ele>
        <time>2025-07-17T08:40:25.071Z</time>
      </trkpt>
      <trkpt lat="44.38998" lon="1.02009">
        <ele>187</ele>
        <time>2025-07-17T08:40:26.071Z</time>
      </trkpt>
      <trkpt lat="44.38998" lon="1.02007">
        <ele>187</ele>
        <time>2025-07-17T08:40:27.071Z</time>
      </trkpt>
      <trkpt lat="44.38998" lon="1.02005">
        <ele>187</ele>
        <time>2025-07-17T08:40:28.071Z</time>
      </trkpt>
      <trkpt lat="44.38998" lon="1.02003">
        <ele>187</ele>
        <time>2025-07-17T08:40:29.071Z</time>
      </trkpt>
      <trkpt lat="44.38997" lon="1.02001">
        <ele>187</ele>
        <time>2025-07-17T08:40:30.071Z</time>
      </trkpt>
      <trkpt lat="44.38997" lon="1.01999">
        <ele>187</ele>
        <time>2025-07-17T08:40:31.071Z</time>
      </trkpt>
      <trkpt lat="44.38997" lon="1.01998">
        <ele>187</ele>
        <time>2025-07-17T08:40:32.071Z</time>
      </trkpt>
      <trkpt lat="44.38997" lon="1.01996">
        <ele>187</ele>
        <time>2025-07-17T08:40:33.071Z</time>
      </trkpt>
      <trkpt lat="44.38997" lon="1.01995">
        <ele>187</ele>
        <time>2025-07-17T08:40:34.071Z</time>
      </trkpt>
      <trkpt lat="44.38996" lon="1.01994">
        <ele>187</ele>
        <time>2025-07-17T08:40:35.071Z</time>
      </trkpt>
      <trkpt lat="44.38996" lon="1.01992">
        <ele>187</ele>
        <time>2025-07-17T08:40:36.071Z</time>
      </trkpt>
      <trkpt lat="44.38996" lon="1.01992">
        <ele>187</ele>
        <time>2025-07-17T08:40:37.071Z</time>
      </trkpt>
      <trkpt lat="44.38996" lon="1.01991">
        <ele>188</ele>
        <time>2025-07-17T08:40:38.071Z</time>
      </trkpt>
      <trkpt lat="44.38996" lon="1.0199">
        <ele>188</ele>
        <time>2025-07-17T08:40:39.071Z</time>
      </trkpt>
      <trkpt lat="44.38996" lon="1.01989">
        <ele>188</ele>
        <time>2025-07-17T08:40:40.071Z</time>
      </trkpt>
      <trkpt lat="44.38995" lon="1.01987">
        <ele>188</ele>
        <time>2025-07-17T08:40:41.071Z</time>
      </trkpt>
      <trkpt lat="44.38995" lon="1.01986">
        <ele>188</ele>
        <time>2025-07-17T08:40:42.071Z</time>
      </trkpt>
      <trkpt lat="44.38994" lon="1.01985">
        <ele>188</ele>
        <time>2025-07-17T08:40:43.071Z</time>
      </trkpt>
      <trkpt lat="44.38994" lon="1.01983">
        <ele>188</ele>
        <time>2025-07-17T08:40:44.071Z</time>
      </trkpt>
      <trkpt lat="44.38993" lon="1.01982">
        <ele>188</ele>
        <time>2025-07-17T08:40:45.071Z</time>
      </trkpt>
      <trkpt lat="44.38992" lon="1.01981">
        <ele>188</ele>
        <time>2025-07-17T08:40:46.071Z</time>
      </trkpt>
      <trkpt lat="44.38991" lon="1.0198">
        <ele>189</ele>
        <time>2025-07-17T08:40:47.071Z</time>
      </trkpt>
      <trkpt lat="44.38991" lon="1.01978">
        <ele>189</ele>
        <time>2025-07-17T08:40:48.071Z</time>
      </trkpt>
      <trkpt lat="44.3899" lon="1.01976">
        <ele>189</ele>
        <time>2025-07-17T08:40:49.071Z</time>
      </trkpt>
      <trkpt lat="44.3899" lon="1.01974">
        <ele>188</ele>
        <time>2025-07-17T08:40:50.071Z</time>
      </trkpt>
      <trkpt lat="44.3899" lon="1.01972">
        <ele>188</ele>
        <time>2025-07-17T08:40:51.071Z</time>
      </trkpt>
      <trkpt lat="44.3899" lon="1.01971">
        <ele>188</ele>
        <time>2025-07-17T08:40:52.071Z</time>
      </trkpt>
      <trkpt lat="44.3899" lon="1.0197">
        <ele>188</ele>
        <time>2025-07-17T08:40:53.071Z</time>
      </trkpt>
      <trkpt lat="44.3899" lon="1.01969">
        <ele>188</ele>
        <time>2025-07-17T08:40:54.071Z</time>
      </trkpt>
      <trkpt lat="44.3899" lon="1.01968">
        <ele>188</ele>
        <time>2025-07-17T08:40:55.071Z</time>
      </trkpt>
      <trkpt lat="44.38988" lon="1.01966">
        <ele>188</ele>
        <time>2025-07-17T08:40:56.071Z</time>
      </trkpt>
      <trkpt lat="44.38987" lon="1.01964">
        <ele>187</ele>
        <time>2025-07-17T08:40:57.071Z</time>
      </trkpt>
      <trkpt lat="44.38985" lon="1.01962">
        <ele>187</ele>
        <time>2025-07-17T08:40:58.071Z</time>
      </trkpt>
      <trkpt lat="44.38984" lon="1.0196">
        <ele>187</ele>
        <time>2025-07-17T08:40:59.071Z</time>
      </trkpt>
      <trkpt lat="44.38983" lon="1.01959">
        <ele>187</ele>
        <time>2025-07-17T08:41:00.071Z</time>
      </trkpt>
      <trkpt lat="44.38983" lon="1.01958">
        <ele>187</ele>
        <time>2025-07-17T08:41:01.071Z</time>
      </trkpt>
      <trkpt lat="44.38982" lon="1.01957">
        <ele>187</ele>
        <time>2025-07-17T08:41:02.071Z</time>
      </trkpt>
      <trkpt lat="44.38981" lon="1.01956">
        <ele>187</ele>
        <time>2025-07-17T08:41:03.071Z</time>
      </trkpt>
      <trkpt lat="44.3898" lon="1.01955">
        <ele>187</ele>
        <time>2025-07-17T08:41:04.071Z</time>
      </trkpt>
      <trkpt lat="44.38979" lon="1.01954">
        <ele>187</ele>
        <time>2025-07-17T08:41:05.071Z</time>
      </trkpt>
      <trkpt lat="44.38978" lon="1.01952">
        <ele>186</ele>
        <time>2025-07-17T08:41:06.071Z</time>
      </trkpt>
      <trkpt lat="44.38977" lon="1.0195">
        <ele>186</ele>
        <time>2025-07-17T08:41:07.071Z</time>
      </trkpt>
      <trkpt lat="44.38977" lon="1.01948">
        <ele>186</ele>
        <time>2025-07-17T08:41:08.071Z</time>
      </trkpt>
      <trkpt lat="44.38976" lon="1.01947">
        <ele>186</ele>
        <time>2025-07-17T08:41:09.071Z</time>
      </trkpt>
      <trkpt lat="44.38976" lon="1.01945">
        <ele>185</ele>
        <time>2025-07-17T08:41:10.071Z</time>
      </trkpt>
      <trkpt lat="44.38975" lon="1.01944">
        <ele>185</ele>
        <time>2025-07-17T08:41:11.071Z</time>
      </trkpt>
      <trkpt lat="44.38975" lon="1.01943">
        <ele>185</ele>
        <time>2025-07-17T08:41:12.071Z</time>
      </trkpt>
      <trkpt lat="44.38974" lon="1.01942">
        <ele>184</ele>
        <time>2025-07-17T08:41:13.071Z</time>
      </trkpt>
      <trkpt lat="44.38974" lon="1.01941">
        <ele>184</ele>
        <time>2025-07-17T08:41:14.071Z</time>
      </trkpt>
      <trkpt lat="44.38973" lon="1.0194">
        <ele>184</ele>
        <time>2025-07-17T08:41:15.071Z</time>
      </trkpt>
      <trkpt lat="44.38972" lon="1.01938">
        <ele>184</ele>
        <time>2025-07-17T08:41:16.071Z</time>
      </trkpt>
      <trkpt lat="44.38972" lon="1.01937">
        <ele>184</ele>
        <time>2025-07-17T08:41:17.071Z</time>
      </trkpt>
      <trkpt lat="44.38971" lon="1.01935">
        <ele>184</ele>
        <time>2025-07-17T08:41:18.071Z</time>
      </trkpt>
      <trkpt lat="44.3897" lon="1.01934">
        <ele>184</ele>
        <time>2025-07-17T08:41:19.071Z</time>
      </trkpt>
      <trkpt lat="44.38969" lon="1.01933">
        <ele>184</ele>
        <time>2025-07-17T08:41:20.071Z</time>
      </trkpt>
      <trkpt lat="44.38968" lon="1.01932">
        <ele>183</ele>
        <time>2025-07-17T08:41:21.071Z</time>
      </trkpt>
      <trkpt lat="44.38967" lon="1.01931">
        <ele>183</ele>
        <time>2025-07-17T08:41:22.071Z</time>
      </trkpt>
      <trkpt lat="44.38966" lon="1.01931">
        <ele>183</ele>
        <time>2025-07-17T08:41:23.071Z</time>
      </trkpt>
      <trkpt lat="44.38965" lon="1.01931">
        <ele>183</ele>
        <time>2025-07-17T08:41:24.071Z</time>
      </trkpt>
      <trkpt lat="44.38964" lon="1.01931">
        <ele>183</ele>
        <time>2025-07-17T08:41:25.071Z</time>
      </trkpt>
      <trkpt lat="44.38963" lon="1.0193">
        <ele>183</ele>
        <time>2025-07-17T08:41:26.071Z</time>
      </trkpt>
      <trkpt lat="44.38961" lon="1.01929">
        <ele>183</ele>
        <time>2025-07-17T08:41:27.071Z</time>
      </trkpt>
      <trkpt lat="44.3896" lon="1.01929">
        <ele>182</ele>
        <time>2025-07-17T08:41:28.071Z</time>
      </trkpt>
      <trkpt lat="44.38958" lon="1.01929">
        <ele>182</ele>
        <time>2025-07-17T08:41:29.071Z</time>
      </trkpt>
      <trkpt lat="44.38957" lon="1.01929">
        <ele>181</ele>
        <time>2025-07-17T08:41:30.071Z</time>
      </trkpt>
      <trkpt lat="44.38955" lon="1.01929">
        <ele>181</ele>
        <time>2025-07-17T08:41:31.071Z</time>
      </trkpt>
      <trkpt lat="44.38954" lon="1.01929">
        <ele>181</ele>
        <time>2025-07-17T08:41:32.071Z</time>
      </trkpt>
      <trkpt lat="44.38953" lon="1.01929">
        <ele>181</ele>
        <time>2025-07-17T08:41:33.071Z</time>
      </trkpt>
      <trkpt lat="44.38952" lon="1.01928">
        <ele>181</ele>
        <time>2025-07-17T08:41:34.072Z</time>
      </trkpt>
      <trkpt lat="44.38951" lon="1.01927">
        <ele>181</ele>
        <time>2025-07-17T08:41:35.071Z</time>
      </trkpt>
      <trkpt lat="44.38951" lon="1.01926">
        <ele>181</ele>
        <time>2025-07-17T08:41:36.071Z</time>
      </trkpt>
      <trkpt lat="44.38951" lon="1.01924">
        <ele>181</ele>
        <time>2025-07-17T08:41:37.071Z</time>
      </trkpt>
      <trkpt lat="44.38951" lon="1.01922">
        <ele>182</ele>
        <time>2025-07-17T08:41:38.071Z</time>
      </trkpt>
      <trkpt lat="44.3895" lon="1.01921">
        <ele>182</ele>
        <time>2025-07-17T08:41:39.071Z</time>
      </trkpt>
      <trkpt lat="44.38951" lon="1.0192">
        <ele>182</ele>
        <time>2025-07-17T08:41:40.071Z</time>
      </trkpt>
      <trkpt lat="44.38951" lon="1.0192">
        <ele>183</ele>
        <time>2025-07-17T08:41:41.071Z</time>
      </trkpt>
      <trkpt lat="44.3895" lon="1.0192">
        <ele>183</ele>
        <time>2025-07-17T08:41:42.071Z</time>
      </trkpt>
      <trkpt lat="44.3895" lon="1.0192">
        <ele>183</ele>
        <time>2025-07-17T08:41:43.071Z</time>
      </trkpt>
      <trkpt lat="44.38951" lon="1.0192">
        <ele>184</ele>
        <time>2025-07-17T08:41:44.071Z</time>
      </trkpt>
      <trkpt lat="44.3895" lon="1.01919">
        <ele>184</ele>
        <time>2025-07-17T08:41:45.072Z</time>
      </trkpt>
      <trkpt lat="44.3895" lon="1.0192">
        <ele>185</ele>
        <time>2025-07-17T08:41:46.071Z</time>
      </trkpt>
      <trkpt lat="44.3895" lon="1.0192">
        <ele>186</ele>
        <time>2025-07-17T08:41:47.071Z</time>
      </trkpt>
      <trkpt lat="44.3895" lon="1.0192">
        <ele>186</ele>
        <time>2025-07-17T08:41:48.071Z</time>
      </trkpt>
      <trkpt lat="44.3895" lon="1.0192">
        <ele>187</ele>
        <time>2025-07-17T08:41:49.071Z</time>
      </trkpt>
      <trkpt lat="44.3895" lon="1.0192">
        <ele>188</ele>
        <time>2025-07-17T08:41:50.071Z</time>
      </trkpt>
      <trkpt lat="44.3895" lon="1.0192">
        <ele>189</ele>
        <time>2025-07-17T08:41:51.072Z</time>
      </trkpt>
      <trkpt lat="44.3895" lon="1.0192">
        <ele>190</ele>
        <time>2025-07-17T08:41:52.071Z</time>
      </trkpt>
      <trkpt lat="44.3895" lon="1.0192">
        <ele>191</ele>
        <time>2025-07-17T08:41:53.071Z</time>
      </trkpt>
      <trkpt lat="44.38951" lon="1.0192">
        <ele>192</ele>
        <time>2025-07-17T08:41:54.071Z</time>
      </trkpt>
      <trkpt lat="44.38951" lon="1.0192">
        <ele>193</ele>
        <time>2025-07-17T08:41:55.071Z</time>
      </trkpt>
      <trkpt lat="44.38951" lon="1.0192">
        <ele>194</ele>
        <time>2025-07-17T08:41:56.071Z</time>
      </trkpt>
      <trkpt lat="44.38951" lon="1.0192">
        <ele>196</ele>
        <time>2025-07-17T08:41:57.071Z</time>
      </trkpt>
      <trkpt lat="44.38951" lon="1.0192">
        <ele>197</ele>
        <time>2025-07-17T08:41:58.071Z</time>
      </trkpt>
      <trkpt lat="44.38951" lon="1.0192">
        <ele>197</ele>
        <time>2025-07-17T08:41:59.071Z</time>
      </trkpt>
      <trkpt lat="44.38951" lon="1.0192">
        <ele>197</ele>
        <time>2025-07-17T08:42:00.071Z</time>
      </trkpt>
      <trkpt lat="44.38951" lon="1.0192">
        <ele>196</ele>
        <time>2025-07-17T08:42:01.071Z</time>
      </trkpt>
      <trkpt lat="44.38951" lon="1.0192">
        <ele>195</ele>
        <time>2025-07-17T08:42:02.071Z</time>
      </trkpt>
      <trkpt lat="44.38951" lon="1.0192">
        <ele>194</ele>
        <time>2025-07-17T08:42:03.071Z</time>
      </trkpt>
      <trkpt lat="44.38951" lon="1.0192">
        <ele>193</ele>
        <time>2025-07-17T08:42:04.071Z</time>
      </trkpt>
      <trkpt lat="44.38951" lon="1.0192">
        <ele>192</ele>
        <time>2025-07-17T08:42:05.071Z</time>
      </trkpt>
      <trkpt lat="44.3895" lon="1.0192">
        <ele>191</ele>
        <time>2025-07-17T08:42:06.072Z</time>
      </trkpt>
      <trkpt lat="44.38951" lon="1.0192">
        <ele>190</ele>
        <time>2025-07-17T08:42:07.071Z</time>
      </trkpt>
      <trkpt lat="44.38951" lon="1.0192">
        <ele>190</ele>
        <time>2025-07-17T08:42:08.071Z</time>
      </trkpt>
      <trkpt lat="44.38951" lon="1.0192">
        <ele>189</ele>
        <time>2025-07-17T08:42:09.071Z</time>
      </trkpt>
      <trkpt lat="44.38951" lon="1.0192">
        <ele>188</ele>
        <time>2025-07-17T08:42:10.071Z</time>
      </trkpt>
      <trkpt lat="44.38951" lon="1.0192">
        <ele>188</ele>
        <time>2025-07-17T08:42:11.071Z</time>
      </trkpt>
      <trkpt lat="44.3895" lon="1.01921">
        <ele>187</ele>
        <time>2025-07-17T08:42:12.071Z</time>
      </trkpt>
      <trkpt lat="44.38949" lon="1.01921">
        <ele>187</ele>
        <time>2025-07-17T08:42:13.071Z</time>
      </trkpt>
      <trkpt lat="44.38948" lon="1.01921">
        <ele>187</ele>
        <time>2025-07-17T08:42:14.071Z</time>
      </trkpt>
      <trkpt lat="44.38948" lon="1.01921">
        <ele>187</ele>
        <time>2025-07-17T08:42:15.071Z</time>
      </trkpt>
      <trkpt lat="44.38947" lon="1.0192">
        <ele>187</ele>
        <time>2025-07-17T08:42:16.071Z</time>
      </trkpt>
      <trkpt lat="44.38946" lon="1.0192">
        <ele>187</ele>
        <time>2025-07-17T08:42:17.071Z</time>
      </trkpt>
      <trkpt lat="44.38945" lon="1.0192">
        <ele>186</ele>
        <time>2025-07-17T08:42:18.071Z</time>
      </trkpt>
      <trkpt lat="44.38945" lon="1.01919">
        <ele>186</ele>
        <time>2025-07-17T08:42:19.071Z</time>
      </trkpt>
      <trkpt lat="44.38944" lon="1.01919">
        <ele>186</ele>
        <time>2025-07-17T08:42:20.071Z</time>
      </trkpt>
      <trkpt lat="44.38944" lon="1.01919">
        <ele>186</ele>
        <time>2025-07-17T08:42:21.071Z</time>
      </trkpt>
      <trkpt lat="44.38944" lon="1.01919">
        <ele>186</ele>
        <time>2025-07-17T08:42:22.071Z</time>
      </trkpt>
      <trkpt lat="44.38944" lon="1.0192">
        <ele>186</ele>
        <time>2025-07-17T08:42:23.071Z</time>
      </trkpt>
      <trkpt lat="44.38944" lon="1.0192">
        <ele>186</ele>
        <time>2025-07-17T08:42:24.071Z</time>
      </trkpt>
      <trkpt lat="44.38944" lon="1.0192">
        <ele>186</ele>
        <time>2025-07-17T08:42:25.071Z</time>
      </trkpt>
      <trkpt lat="44.38944" lon="1.0192">
        <ele>186</ele>
        <time>2025-07-17T08:42:26.071Z</time>
      </trkpt>
      <trkpt lat="44.38944" lon="1.0192">
        <ele>186</ele>
        <time>2025-07-17T08:42:27.072Z</time>
      </trkpt>
      <trkpt lat="44.38944" lon="1.01919">
        <ele>187</ele>
        <time>2025-07-17T08:42:28.071Z</time>
      </trkpt>
      <trkpt lat="44.38943" lon="1.01919">
        <ele>187</ele>
        <time>2025-07-17T08:42:29.071Z</time>
      </trkpt>
      <trkpt lat="44.38943" lon="1.01918">
        <ele>186</ele>
        <time>2025-07-17T08:42:30.071Z</time>
      </trkpt>
      <trkpt lat="44.38942" lon="1.01917">
        <ele>186</ele>
        <time>2025-07-17T08:42:31.071Z</time>
      </trkpt>
      <trkpt lat="44.38941" lon="1.01915">
        <ele>186</ele>
        <time>2025-07-17T08:42:32.072Z</time>
      </trkpt>
      <trkpt lat="44.38941" lon="1.01914">
        <ele>185</ele>
        <time>2025-07-17T08:42:33.071Z</time>
      </trkpt>
      <trkpt lat="44.3894" lon="1.01912">
        <ele>185</ele>
        <time>2025-07-17T08:42:34.071Z</time>
      </trkpt>
      <trkpt lat="44.3894" lon="1.01911">
        <ele>184</ele>
        <time>2025-07-17T08:42:35.071Z</time>
      </trkpt>
      <trkpt lat="44.3894" lon="1.01909">
        <ele>184</ele>
        <time>2025-07-17T08:42:36.071Z</time>
      </trkpt>
      <trkpt lat="44.38939" lon="1.01907">
        <ele>184</ele>
        <time>2025-07-17T08:42:37.071Z</time>
      </trkpt>
      <trkpt lat="44.38939" lon="1.01905">
        <ele>183</ele>
        <time>2025-07-17T08:42:38.071Z</time>
      </trkpt>
      <trkpt lat="44.38938" lon="1.01904">
        <ele>183</ele>
        <time>2025-07-17T08:42:39.071Z</time>
      </trkpt>
      <trkpt lat="44.38938" lon="1.01902">
        <ele>183</ele>
        <time>2025-07-17T08:42:40.071Z</time>
      </trkpt>
      <trkpt lat="44.38938" lon="1.01901">
        <ele>183</ele>
        <time>2025-07-17T08:42:41.072Z</time>
      </trkpt>
      <trkpt lat="44.38938" lon="1.01899">
        <ele>183</ele>
        <time>2025-07-17T08:42:42.071Z</time>
      </trkpt>
      <trkpt lat="44.38938" lon="1.01898">
        <ele>182</ele>
        <time>2025-07-17T08:42:43.071Z</time>
      </trkpt>
      <trkpt lat="44.38938" lon="1.01896">
        <ele>182</ele>
        <time>2025-07-17T08:42:44.072Z</time>
      </trkpt>
      <trkpt lat="44.38938" lon="1.01895">
        <ele>181</ele>
        <time>2025-07-17T08:42:45.071Z</time>
      </trkpt>
      <trkpt lat="44.38938" lon="1.01893">
        <ele>181</ele>
        <time>2025-07-17T08:42:46.071Z</time>
      </trkpt>
      <trkpt lat="44.38937" lon="1.01892">
        <ele>180</ele>
        <time>2025-07-17T08:42:47.071Z</time>
      </trkpt>
      <trkpt lat="44.38937" lon="1.0189">
        <ele>179</ele>
        <time>2025-07-17T08:42:48.071Z</time>
      </trkpt>
      <trkpt lat="44.38937" lon="1.01889">
        <ele>179</ele>
        <time>2025-07-17T08:42:49.071Z</time>
      </trkpt>
      <trkpt lat="44.38936" lon="1.01887">
        <ele>178</ele>
        <time>2025-07-17T08:42:50.071Z</time>
      </trkpt>
      <trkpt lat="44.38936" lon="1.01886">
        <ele>178</ele>
        <time>2025-07-17T08:42:51.071Z</time>
      </trkpt>
      <trkpt lat="44.38936" lon="1.01884">
        <ele>178</ele>
        <time>2025-07-17T08:42:52.071Z</time>
      </trkpt>
      <trkpt lat="44.38935" lon="1.01883">
        <ele>177</ele>
        <time>2025-07-17T08:42:53.071Z</time>
      </trkpt>
      <trkpt lat="44.38935" lon="1.01882">
        <ele>177</ele>
        <time>2025-07-17T08:42:54.071Z</time>
      </trkpt>
      <trkpt lat="44.38935" lon="1.0188">
        <ele>177</ele>
        <time>2025-07-17T08:42:55.071Z</time>
      </trkpt>
      <trkpt lat="44.38935" lon="1.01878">
        <ele>177</ele>
        <time>2025-07-17T08:42:56.071Z</time>
      </trkpt>
      <trkpt lat="44.38935" lon="1.01877">
        <ele>177</ele>
        <time>2025-07-17T08:42:57.071Z</time>
      </trkpt>
      <trkpt lat="44.38935" lon="1.01876">
        <ele>177</ele>
        <time>2025-07-17T08:42:58.071Z</time>
      </trkpt>
      <trkpt lat="44.38935" lon="1.01875">
        <ele>177</ele>
        <time>2025-07-17T08:42:59.071Z</time>
      </trkpt>
      <trkpt lat="44.38935" lon="1.01874">
        <ele>177</ele>
        <time>2025-07-17T08:43:00.073Z</time>
      </trkpt>
      <trkpt lat="44.38934" lon="1.01873">
        <ele>177</ele>
        <time>2025-07-17T08:43:01.071Z</time>
      </trkpt>
      <trkpt lat="44.38933" lon="1.01873">
        <ele>176</ele>
        <time>2025-07-17T08:43:02.071Z</time>
      </trkpt>
      <trkpt lat="44.38932" lon="1.01872">
        <ele>176</ele>
        <time>2025-07-17T08:43:03.071Z</time>
      </trkpt>
      <trkpt lat="44.38931" lon="1.01871">
        <ele>176</ele>
        <time>2025-07-17T08:43:04.071Z</time>
      </trkpt>
      <trkpt lat="44.38929" lon="1.01871">
        <ele>176</ele>
        <time>2025-07-17T08:43:05.071Z</time>
      </trkpt>
      <trkpt lat="44.38927" lon="1.0187">
        <ele>176</ele>
        <time>2025-07-17T08:43:06.071Z</time>
      </trkpt>
      <trkpt lat="44.38926" lon="1.0187">
        <ele>176</ele>
        <time>2025-07-17T08:43:07.071Z</time>
      </trkpt>
      <trkpt lat="44.38925" lon="1.0187">
        <ele>177</ele>
        <time>2025-07-17T08:43:08.071Z</time>
      </trkpt>
      <trkpt lat="44.38924" lon="1.01869">
        <ele>177</ele>
        <time>2025-07-17T08:43:09.071Z</time>
      </trkpt>
      <trkpt lat="44.38923" lon="1.01868">
        <ele>177</ele>
        <time>2025-07-17T08:43:10.071Z</time>
      </trkpt>
      <trkpt lat="44.38922" lon="1.01868">
        <ele>177</ele>
        <time>2025-07-17T08:43:11.072Z</time>
      </trkpt>
      <trkpt lat="44.3892" lon="1.01868">
        <ele>178</ele>
        <time>2025-07-17T08:43:12.071Z</time>
      </trkpt>
      <trkpt lat="44.38919" lon="1.01868">
        <ele>178</ele>
        <time>2025-07-17T08:43:13.071Z</time>
      </trkpt>
      <trkpt lat="44.38918" lon="1.01868">
        <ele>178</ele>
        <time>2025-07-17T08:43:14.071Z</time>
      </trkpt>
      <trkpt lat="44.38916" lon="1.01867">
        <ele>178</ele>
        <time>2025-07-17T08:43:15.071Z</time>
      </trkpt>
      <trkpt lat="44.38915" lon="1.01867">
        <ele>178</ele>
        <time>2025-07-17T08:43:16.071Z</time>
      </trkpt>
      <trkpt lat="44.38913" lon="1.01866">
        <ele>178</ele>
        <time>2025-07-17T08:43:17.071Z</time>
      </trkpt>
      <trkpt lat="44.38913" lon="1.01866">
        <ele>177</ele>
        <time>2025-07-17T08:43:18.071Z</time>
      </trkpt>
      <trkpt lat="44.38912" lon="1.01865">
        <ele>177</ele>
        <time>2025-07-17T08:43:19.071Z</time>
      </trkpt>
      <trkpt lat="44.3891" lon="1.01865">
        <ele>177</ele>
        <time>2025-07-17T08:43:20.071Z</time>
      </trkpt>
      <trkpt lat="44.38909" lon="1.01866">
        <ele>177</ele>
        <time>2025-07-17T08:43:21.071Z</time>
      </trkpt>
      <trkpt lat="44.38909" lon="1.01865">
        <ele>177</ele>
        <time>2025-07-17T08:43:22.071Z</time>
      </trkpt>
      <trkpt lat="44.38907" lon="1.01865">
        <ele>176</ele>
        <time>2025-07-17T08:43:23.071Z</time>
      </trkpt>
      <trkpt lat="44.38906" lon="1.01865">
        <ele>176</ele>
        <time>2025-07-17T08:43:24.071Z</time>
      </trkpt>
      <trkpt lat="44.38905" lon="1.01864">
        <ele>175</ele>
        <time>2025-07-17T08:43:25.071Z</time>
      </trkpt>
      <trkpt lat="44.38903" lon="1.01864">
        <ele>174</ele>
        <time>2025-07-17T08:43:26.071Z</time>
      </trkpt>
      <trkpt lat="44.38902" lon="1.01864">
        <ele>174</ele>
        <time>2025-07-17T08:43:27.071Z</time>
      </trkpt>
      <trkpt lat="44.38901" lon="1.01864">
        <ele>173</ele>
        <time>2025-07-17T08:43:28.071Z</time>
      </trkpt>
      <trkpt lat="44.389" lon="1.01864">
        <ele>173</ele>
        <time>2025-07-17T08:43:29.071Z</time>
      </trkpt>
      <trkpt lat="44.38899" lon="1.01864">
        <ele>173</ele>
        <time>2025-07-17T08:43:30.072Z</time>
      </trkpt>
      <trkpt lat="44.38898" lon="1.01864">
        <ele>173</ele>
        <time>2025-07-17T08:43:31.071Z</time>
      </trkpt>
      <trkpt lat="44.38897" lon="1.01864">
        <ele>173</ele>
        <time>2025-07-17T08:43:32.071Z</time>
      </trkpt>
      <trkpt lat="44.38895" lon="1.01864">
        <ele>173</ele>
        <time>2025-07-17T08:43:33.071Z</time>
      </trkpt>
      <trkpt lat="44.38894" lon="1.01864">
        <ele>172</ele>
        <time>2025-07-17T08:43:34.071Z</time>
      </trkpt>
      <trkpt lat="44.38893" lon="1.01864">
        <ele>172</ele>
        <time>2025-07-17T08:43:35.071Z</time>
      </trkpt>
      <trkpt lat="44.38892" lon="1.01864">
        <ele>172</ele>
        <time>2025-07-17T08:43:36.071Z</time>
      </trkpt>
      <trkpt lat="44.3889" lon="1.01864">
        <ele>172</ele>
        <time>2025-07-17T08:43:37.071Z</time>
      </trkpt>
      <trkpt lat="44.38889" lon="1.01864">
        <ele>171</ele>
        <time>2025-07-17T08:43:38.071Z</time>
      </trkpt>
      <trkpt lat="44.38888" lon="1.01864">
        <ele>171</ele>
        <time>2025-07-17T08:43:39.071Z</time>
      </trkpt>
      <trkpt lat="44.38887" lon="1.01864">
        <ele>171</ele>
        <time>2025-07-17T08:43:40.071Z</time>
      </trkpt>
      <trkpt lat="44.38886" lon="1.01864">
        <ele>171</ele>
        <time>2025-07-17T08:43:41.071Z</time>
      </trkpt>
      <trkpt lat="44.38885" lon="1.01863">
        <ele>171</ele>
        <time>2025-07-17T08:43:42.071Z</time>
      </trkpt>
      <trkpt lat="44.38884" lon="1.01863">
        <ele>171</ele>
        <time>2025-07-17T08:43:43.072Z</time>
      </trkpt>
      <trkpt lat="44.38882" lon="1.01862">
        <ele>171</ele>
        <time>2025-07-17T08:43:44.071Z</time>
      </trkpt>
      <trkpt lat="44.38881" lon="1.01862">
        <ele>171</ele>
        <time>2025-07-17T08:43:45.071Z</time>
      </trkpt>
      <trkpt lat="44.3888" lon="1.01862">
        <ele>170</ele>
        <time>2025-07-17T08:43:46.071Z</time>
      </trkpt>
      <trkpt lat="44.38879" lon="1.01862">
        <ele>170</ele>
        <time>2025-07-17T08:43:47.071Z</time>
      </trkpt>
      <trkpt lat="44.38878" lon="1.01861">
        <ele>170</ele>
        <time>2025-07-17T08:43:48.071Z</time>
      </trkpt>
      <trkpt lat="44.38877" lon="1.01861">
        <ele>170</ele>
        <time>2025-07-17T08:43:49.071Z</time>
      </trkpt>
      <trkpt lat="44.38876" lon="1.0186">
        <ele>170</ele>
        <time>2025-07-17T08:43:50.071Z</time>
      </trkpt>
      <trkpt lat="44.38875" lon="1.01859">
        <ele>170</ele>
        <time>2025-07-17T08:43:51.071Z</time>
      </trkpt>
      <trkpt lat="44.38875" lon="1.01857">
        <ele>170</ele>
        <time>2025-07-17T08:43:52.071Z</time>
      </trkpt>
      <trkpt lat="44.38874" lon="1.01856">
        <ele>170</ele>
        <time>2025-07-17T08:43:53.071Z</time>
      </trkpt>
      <trkpt lat="44.38873" lon="1.01852">
        <ele>170</ele>
        <time>2025-07-17T08:43:54.071Z</time>
      </trkpt>
      <trkpt lat="44.38872" lon="1.0185">
        <ele>170</ele>
        <time>2025-07-17T08:43:55.071Z</time>
      </trkpt>
      <trkpt lat="44.38871" lon="1.01849">
        <ele>170</ele>
        <time>2025-07-17T08:43:56.071Z</time>
      </trkpt>
      <trkpt lat="44.38871" lon="1.01847">
        <ele>170</ele>
        <time>2025-07-17T08:43:57.071Z</time>
      </trkpt>
      <trkpt lat="44.38871" lon="1.01846">
        <ele>170</ele>
        <time>2025-07-17T08:43:58.071Z</time>
      </trkpt>
      <trkpt lat="44.38871" lon="1.01845">
        <ele>169</ele>
        <time>2025-07-17T08:43:59.071Z</time>
      </trkpt>
      <trkpt lat="44.38871" lon="1.01843">
        <ele>169</ele>
        <time>2025-07-17T08:44:00.071Z</time>
      </trkpt>
      <trkpt lat="44.3887" lon="1.01841">
        <ele>169</ele>
        <time>2025-07-17T08:44:01.071Z</time>
      </trkpt>
      <trkpt lat="44.38871" lon="1.01839">
        <ele>168</ele>
        <time>2025-07-17T08:44:02.071Z</time>
      </trkpt>
      <trkpt lat="44.3887" lon="1.01838">
        <ele>168</ele>
        <time>2025-07-17T08:44:03.071Z</time>
      </trkpt>
      <trkpt lat="44.3887" lon="1.01836">
        <ele>168</ele>
        <time>2025-07-17T08:44:04.071Z</time>
      </trkpt>
      <trkpt lat="44.38871" lon="1.01836">
        <ele>168</ele>
        <time>2025-07-17T08:44:05.071Z</time>
      </trkpt>
      <trkpt lat="44.38872" lon="1.01835">
        <ele>168</ele>
        <time>2025-07-17T08:44:06.071Z</time>
      </trkpt>
      <trkpt lat="44.38873" lon="1.01835">
        <ele>168</ele>
        <time>2025-07-17T08:44:07.071Z</time>
      </trkpt>
      <trkpt lat="44.38874" lon="1.01835">
        <ele>168</ele>
        <time>2025-07-17T08:44:08.071Z</time>
      </trkpt>
      <trkpt lat="44.38874" lon="1.01834">
        <ele>168</ele>
        <time>2025-07-17T08:44:09.071Z</time>
      </trkpt>
      <trkpt lat="44.38875" lon="1.01834">
        <ele>168</ele>
        <time>2025-07-17T08:44:10.071Z</time>
      </trkpt>
      <trkpt lat="44.38875" lon="1.01833">
        <ele>168</ele>
        <time>2025-07-17T08:44:11.071Z</time>
      </trkpt>
      <trkpt lat="44.38876" lon="1.01832">
        <ele>168</ele>
        <time>2025-07-17T08:44:12.071Z</time>
      </trkpt>
      <trkpt lat="44.38878" lon="1.01831">
        <ele>167</ele>
        <time>2025-07-17T08:44:13.071Z</time>
      </trkpt>
      <trkpt lat="44.38879" lon="1.0183">
        <ele>167</ele>
        <time>2025-07-17T08:44:14.071Z</time>
      </trkpt>
      <trkpt lat="44.38881" lon="1.01828">
        <ele>167</ele>
        <time>2025-07-17T08:44:15.071Z</time>
      </trkpt>
      <trkpt lat="44.38882" lon="1.01827">
        <ele>167</ele>
        <time>2025-07-17T08:44:16.071Z</time>
      </trkpt>
      <trkpt lat="44.38884" lon="1.01826">
        <ele>167</ele>
        <time>2025-07-17T08:44:17.072Z</time>
      </trkpt>
      <trkpt lat="44.38885" lon="1.01825">
        <ele>167</ele>
        <time>2025-07-17T08:44:18.071Z</time>
      </trkpt>
      <trkpt lat="44.38887" lon="1.01825">
        <ele>166</ele>
        <time>2025-07-17T08:44:19.071Z</time>
      </trkpt>
      <trkpt lat="44.38888" lon="1.01825">
        <ele>166</ele>
        <time>2025-07-17T08:44:20.071Z</time>
      </trkpt>
      <trkpt lat="44.38888" lon="1.01824">
        <ele>166</ele>
        <time>2025-07-17T08:44:21.071Z</time>
      </trkpt>
      <trkpt lat="44.38889" lon="1.01823">
        <ele>166</ele>
        <time>2025-07-17T08:44:22.071Z</time>
      </trkpt>
      <trkpt lat="44.38889" lon="1.01822">
        <ele>166</ele>
        <time>2025-07-17T08:44:23.071Z</time>
      </trkpt>
      <trkpt lat="44.3889" lon="1.01821">
        <ele>165</ele>
        <time>2025-07-17T08:44:24.071Z</time>
      </trkpt>
      <trkpt lat="44.38891" lon="1.0182">
        <ele>165</ele>
        <time>2025-07-17T08:44:25.071Z</time>
      </trkpt>
      <trkpt lat="44.38893" lon="1.01819">
        <ele>165</ele>
        <time>2025-07-17T08:44:26.071Z</time>
      </trkpt>
      <trkpt lat="44.38894" lon="1.01819">
        <ele>165</ele>
        <time>2025-07-17T08:44:27.071Z</time>
      </trkpt>
      <trkpt lat="44.38895" lon="1.01818">
        <ele>165</ele>
        <time>2025-07-17T08:44:28.071Z</time>
      </trkpt>
      <trkpt lat="44.38896" lon="1.01818">
        <ele>165</ele>
        <time>2025-07-17T08:44:29.071Z</time>
      </trkpt>
      <trkpt lat="44.38897" lon="1.01817">
        <ele>165</ele>
        <time>2025-07-17T08:44:30.071Z</time>
      </trkpt>
      <trkpt lat="44.38899" lon="1.01816">
        <ele>164</ele>
        <time>2025-07-17T08:44:31.071Z</time>
      </trkpt>
      <trkpt lat="44.38901" lon="1.01816">
        <ele>164</ele>
        <time>2025-07-17T08:44:32.071Z</time>
      </trkpt>
      <trkpt lat="44.38902" lon="1.01816">
        <ele>164</ele>
        <time>2025-07-17T08:44:33.071Z</time>
      </trkpt>
      <trkpt lat="44.38904" lon="1.01815">
        <ele>164</ele>
        <time>2025-07-17T08:44:34.071Z</time>
      </trkpt>
      <trkpt lat="44.38904" lon="1.01814">
        <ele>164</ele>
        <time>2025-07-17T08:44:35.071Z</time>
      </trkpt>
      <trkpt lat="44.38905" lon="1.01813">
        <ele>165</ele>
        <time>2025-07-17T08:44:36.071Z</time>
      </trkpt>
      <trkpt lat="44.38906" lon="1.01812">
        <ele>165</ele>
        <time>2025-07-17T08:44:37.071Z</time>
      </trkpt>
      <trkpt lat="44.38907" lon="1.01812">
        <ele>165</ele>
        <time>2025-07-17T08:44:38.072Z</time>
      </trkpt>
      <trkpt lat="44.38908" lon="1.01812">
        <ele>165</ele>
        <time>2025-07-17T08:44:39.072Z</time>
      </trkpt>
      <trkpt lat="44.38909" lon="1.01811">
        <ele>165</ele>
        <time>2025-07-17T08:44:40.071Z</time>
      </trkpt>
      <trkpt lat="44.3891" lon="1.01811">
        <ele>165</ele>
        <time>2025-07-17T08:44:41.071Z</time>
      </trkpt>
      <trkpt lat="44.38911" lon="1.0181">
        <ele>165</ele>
        <time>2025-07-17T08:44:42.071Z</time>
      </trkpt>
      <trkpt lat="44.38913" lon="1.0181">
        <ele>165</ele>
        <time>2025-07-17T08:44:43.071Z</time>
      </trkpt>
      <trkpt lat="44.38914" lon="1.0181">
        <ele>164</ele>
        <time>2025-07-17T08:44:44.071Z</time>
      </trkpt>
      <trkpt lat="44.38915" lon="1.01809">
        <ele>164</ele>
        <time>2025-07-17T08:44:45.071Z</time>
      </trkpt>
      <trkpt lat="44.38916" lon="1.01808">
        <ele>164</ele>
        <time>2025-07-17T08:44:46.071Z</time>
      </trkpt>
      <trkpt lat="44.38917" lon="1.01807">
        <ele>164</ele>
        <time>2025-07-17T08:44:47.072Z</time>
      </trkpt>
      <trkpt lat="44.38918" lon="1.01806">
        <ele>164</ele>
        <time>2025-07-17T08:44:48.072Z</time>
      </trkpt>
      <trkpt lat="44.38919" lon="1.01805">
        <ele>163</ele>
        <time>2025-07-17T08:44:49.071Z</time>
      </trkpt>
      <trkpt lat="44.38921" lon="1.01804">
        <ele>163</ele>
        <time>2025-07-17T08:44:50.071Z</time>
      </trkpt>
      <trkpt lat="44.38922" lon="1.01803">
        <ele>163</ele>
        <time>2025-07-17T08:44:51.071Z</time>
      </trkpt>
      <trkpt lat="44.38923" lon="1.01801">
        <ele>163</ele>
        <time>2025-07-17T08:44:52.071Z</time>
      </trkpt>
      <trkpt lat="44.38924" lon="1.018">
        <ele>162</ele>
        <time>2025-07-17T08:44:53.072Z</time>
      </trkpt>
      <trkpt lat="44.38924" lon="1.01798">
        <ele>162</ele>
        <time>2025-07-17T08:44:54.071Z</time>
      </trkpt>
      <trkpt lat="44.38924" lon="1.01796">
        <ele>162</ele>
        <time>2025-07-17T08:44:55.071Z</time>
      </trkpt>
      <trkpt lat="44.38924" lon="1.01795">
        <ele>162</ele>
        <time>2025-07-17T08:44:56.071Z</time>
      </trkpt>
      <trkpt lat="44.38925" lon="1.01793">
        <ele>162</ele>
        <time>2025-07-17T08:44:57.071Z</time>
      </trkpt>
      <trkpt lat="44.38926" lon="1.0179">
        <ele>162</ele>
        <time>2025-07-17T08:44:58.071Z</time>
      </trkpt>
      <trkpt lat="44.38927" lon="1.01788">
        <ele>162</ele>
        <time>2025-07-17T08:44:59.071Z</time>
      </trkpt>
      <trkpt lat="44.38928" lon="1.01787">
        <ele>162</ele>
        <time>2025-07-17T08:45:00.071Z</time>
      </trkpt>
      <trkpt lat="44.38929" lon="1.01785">
        <ele>162</ele>
        <time>2025-07-17T08:45:01.071Z</time>
      </trkpt>
      <trkpt lat="44.38929" lon="1.01784">
        <ele>162</ele>
        <time>2025-07-17T08:45:02.071Z</time>
      </trkpt>
      <trkpt lat="44.3893" lon="1.01783">
        <ele>162</ele>
        <time>2025-07-17T08:45:03.071Z</time>
      </trkpt>
      <trkpt lat="44.38931" lon="1.01781">
        <ele>163</ele>
        <time>2025-07-17T08:45:04.071Z</time>
      </trkpt>
      <trkpt lat="44.38932" lon="1.0178">
        <ele>163</ele>
        <time>2025-07-17T08:45:05.071Z</time>
      </trkpt>
      <trkpt lat="44.38933" lon="1.01779">
        <ele>163</ele>
        <time>2025-07-17T08:45:06.072Z</time>
      </trkpt>
      <trkpt lat="44.38934" lon="1.01778">
        <ele>163</ele>
        <time>2025-07-17T08:45:07.071Z</time>
      </trkpt>
      <trkpt lat="44.38935" lon="1.01777">
        <ele>163</ele>
        <time>2025-07-17T08:45:08.071Z</time>
      </trkpt>
      <trkpt lat="44.38936" lon="1.01776">
        <ele>163</ele>
        <time>2025-07-17T08:45:09.071Z</time>
      </trkpt>
      <trkpt lat="44.38937" lon="1.01775">
        <ele>163</ele>
        <time>2025-07-17T08:45:10.071Z</time>
      </trkpt>
      <trkpt lat="44.38937" lon="1.01773">
        <ele>163</ele>
        <time>2025-07-17T08:45:11.071Z</time>
      </trkpt>
      <trkpt lat="44.38938" lon="1.01772">
        <ele>164</ele>
        <time>2025-07-17T08:45:12.071Z</time>
      </trkpt>
      <trkpt lat="44.38938" lon="1.0177">
        <ele>164</ele>
        <time>2025-07-17T08:45:13.071Z</time>
      </trkpt>
      <trkpt lat="44.38939" lon="1.01768">
        <ele>164</ele>
        <time>2025-07-17T08:45:14.071Z</time>
      </trkpt>
      <trkpt lat="44.3894" lon="1.01767">
        <ele>164</ele>
        <time>2025-07-17T08:45:15.071Z</time>
      </trkpt>
      <trkpt lat="44.38941" lon="1.01765">
        <ele>165</ele>
        <time>2025-07-17T08:45:16.071Z</time>
      </trkpt>
      <trkpt lat="44.38941" lon="1.01764">
        <ele>165</ele>
        <time>2025-07-17T08:45:17.071Z</time>
      </trkpt>
      <trkpt lat="44.38942" lon="1.01763">
        <ele>165</ele>
        <time>2025-07-17T08:45:18.071Z</time>
      </trkpt>
      <trkpt lat="44.38944" lon="1.01762">
        <ele>164</ele>
        <time>2025-07-17T08:45:19.071Z</time>
      </trkpt>
      <trkpt lat="44.38946" lon="1.01762">
        <ele>164</ele>
        <time>2025-07-17T08:45:20.071Z</time>
      </trkpt>
      <trkpt lat="44.38947" lon="1.0176">
        <ele>164</ele>
        <time>2025-07-17T08:45:21.071Z</time>
      </trkpt>
      <trkpt lat="44.38947" lon="1.01759">
        <ele>163</ele>
        <time>2025-07-17T08:45:22.071Z</time>
      </trkpt>
      <trkpt lat="44.38948" lon="1.0176">
        <ele>163</ele>
        <time>2025-07-17T08:45:23.071Z</time>
      </trkpt>
      <trkpt lat="44.38949" lon="1.01759">
        <ele>163</ele>
        <time>2025-07-17T08:45:24.071Z</time>
      </trkpt>
      <trkpt lat="44.38949" lon="1.01758">
        <ele>162</ele>
        <time>2025-07-17T08:45:25.071Z</time>
      </trkpt>
      <trkpt lat="44.3895" lon="1.01757">
        <ele>162</ele>
        <time>2025-07-17T08:45:26.071Z</time>
      </trkpt>
      <trkpt lat="44.38951" lon="1.01755">
        <ele>161</ele>
        <time>2025-07-17T08:45:27.071Z</time>
      </trkpt>
      <trkpt lat="44.38952" lon="1.01754">
        <ele>161</ele>
        <time>2025-07-17T08:45:28.071Z</time>
      </trkpt>
      <trkpt lat="44.38953" lon="1.01753">
        <ele>161</ele>
        <time>2025-07-17T08:45:29.071Z</time>
      </trkpt>
      <trkpt lat="44.38954" lon="1.01751">
        <ele>161</ele>
        <time>2025-07-17T08:45:30.071Z</time>
      </trkpt>
      <trkpt lat="44.38955" lon="1.0175">
        <ele>161</ele>
        <time>2025-07-17T08:45:31.071Z</time>
      </trkpt>
      <trkpt lat="44.38956" lon="1.01749">
        <ele>160</ele>
        <time>2025-07-17T08:45:32.071Z</time>
      </trkpt>
      <trkpt lat="44.38956" lon="1.01748">
        <ele>160</ele>
        <time>2025-07-17T08:45:33.071Z</time>
      </trkpt>
      <trkpt lat="44.38957" lon="1.01747">
        <ele>159</ele>
        <time>2025-07-17T08:45:34.071Z</time>
      </trkpt>
      <trkpt lat="44.38958" lon="1.01745">
        <ele>159</ele>
        <time>2025-07-17T08:45:35.071Z</time>
      </trkpt>
      <trkpt lat="44.3896" lon="1.01745">
        <ele>159</ele>
        <time>2025-07-17T08:45:36.071Z</time>
      </trkpt>
      <trkpt lat="44.38961" lon="1.01743">
        <ele>158</ele>
        <time>2025-07-17T08:45:37.071Z</time>
      </trkpt>
      <trkpt lat="44.38962" lon="1.01742">
        <ele>158</ele>
        <time>2025-07-17T08:45:38.071Z</time>
      </trkpt>
      <trkpt lat="44.38963" lon="1.01741">
        <ele>157</ele>
        <time>2025-07-17T08:45:39.071Z</time>
      </trkpt>
      <trkpt lat="44.38965" lon="1.01739">
        <ele>157</ele>
        <time>2025-07-17T08:45:40.071Z</time>
      </trkpt>
      <trkpt lat="44.38966" lon="1.01738">
        <ele>157</ele>
        <time>2025-07-17T08:45:41.071Z</time>
      </trkpt>
      <trkpt lat="44.38967" lon="1.01736">
        <ele>156</ele>
        <time>2025-07-17T08:45:42.071Z</time>
      </trkpt>
      <trkpt lat="44.38968" lon="1.01735">
        <ele>156</ele>
        <time>2025-07-17T08:45:43.071Z</time>
      </trkpt>
      <trkpt lat="44.38969" lon="1.01733">
        <ele>156</ele>
        <time>2025-07-17T08:45:44.072Z</time>
      </trkpt>
      <trkpt lat="44.38971" lon="1.01732">
        <ele>156</ele>
        <time>2025-07-17T08:45:45.071Z</time>
      </trkpt>
      <trkpt lat="44.38972" lon="1.01731">
        <ele>155</ele>
        <time>2025-07-17T08:45:46.071Z</time>
      </trkpt>
      <trkpt lat="44.38973" lon="1.01729">
        <ele>156</ele>
        <time>2025-07-17T08:45:47.071Z</time>
      </trkpt>
      <trkpt lat="44.38974" lon="1.01728">
        <ele>156</ele>
        <time>2025-07-17T08:45:48.071Z</time>
      </trkpt>
      <trkpt lat="44.38975" lon="1.01727">
        <ele>156</ele>
        <time>2025-07-17T08:45:49.071Z</time>
      </trkpt>
      <trkpt lat="44.38976" lon="1.01726">
        <ele>156</ele>
        <time>2025-07-17T08:45:50.071Z</time>
      </trkpt>
      <trkpt lat="44.38977" lon="1.01725">
        <ele>156</ele>
        <time>2025-07-17T08:45:51.071Z</time>
      </trkpt>
      <trkpt lat="44.38977" lon="1.01724">
        <ele>156</ele>
        <time>2025-07-17T08:45:52.071Z</time>
      </trkpt>
      <trkpt lat="44.38978" lon="1.01723">
        <ele>156</ele>
        <time>2025-07-17T08:45:53.071Z</time>
      </trkpt>
      <trkpt lat="44.38979" lon="1.01721">
        <ele>156</ele>
        <time>2025-07-17T08:45:54.071Z</time>
      </trkpt>
      <trkpt lat="44.38981" lon="1.0172">
        <ele>156</ele>
        <time>2025-07-17T08:45:55.071Z</time>
      </trkpt>
      <trkpt lat="44.38982" lon="1.01718">
        <ele>156</ele>
        <time>2025-07-17T08:45:56.071Z</time>
      </trkpt>
      <trkpt lat="44.38983" lon="1.01717">
        <ele>156</ele>
        <time>2025-07-17T08:45:57.071Z</time>
      </trkpt>
      <trkpt lat="44.38984" lon="1.01716">
        <ele>156</ele>
        <time>2025-07-17T08:45:58.071Z</time>
      </trkpt>
      <trkpt lat="44.38985" lon="1.01715">
        <ele>156</ele>
        <time>2025-07-17T08:45:59.071Z</time>
      </trkpt>
      <trkpt lat="44.38986" lon="1.01714">
        <ele>156</ele>
        <time>2025-07-17T08:46:00.072Z</time>
      </trkpt>
      <trkpt lat="44.38987" lon="1.01713">
        <ele>155</ele>
        <time>2025-07-17T08:46:01.071Z</time>
      </trkpt>
      <trkpt lat="44.38988" lon="1.01712">
        <ele>155</ele>
        <time>2025-07-17T08:46:02.071Z</time>
      </trkpt>
      <trkpt lat="44.38989" lon="1.01711">
        <ele>155</ele>
        <time>2025-07-17T08:46:03.071Z</time>
      </trkpt>
      <trkpt lat="44.38989" lon="1.0171">
        <ele>155</ele>
        <time>2025-07-17T08:46:04.071Z</time>
      </trkpt>
      <trkpt lat="44.3899" lon="1.01709">
        <ele>155</ele>
        <time>2025-07-17T08:46:05.072Z</time>
      </trkpt>
      <trkpt lat="44.38991" lon="1.01708">
        <ele>155</ele>
        <time>2025-07-17T08:46:06.072Z</time>
      </trkpt>
      <trkpt lat="44.38991" lon="1.01707">
        <ele>155</ele>
        <time>2025-07-17T08:46:07.071Z</time>
      </trkpt>
      <trkpt lat="44.38991" lon="1.01707">
        <ele>155</ele>
        <time>2025-07-17T08:46:08.071Z</time>
      </trkpt>
      <trkpt lat="44.38992" lon="1.01706">
        <ele>155</ele>
        <time>2025-07-17T08:46:09.071Z</time>
      </trkpt>
      <trkpt lat="44.38993" lon="1.01706">
        <ele>155</ele>
        <time>2025-07-17T08:46:10.071Z</time>
      </trkpt>
      <trkpt lat="44.38994" lon="1.01704">
        <ele>156</ele>
        <time>2025-07-17T08:46:11.071Z</time>
      </trkpt>
      <trkpt lat="44.38995" lon="1.01703">
        <ele>156</ele>
        <time>2025-07-17T08:46:12.071Z</time>
      </trkpt>
      <trkpt lat="44.38996" lon="1.01702">
        <ele>156</ele>
        <time>2025-07-17T08:46:13.071Z</time>
      </trkpt>
      <trkpt lat="44.38997" lon="1.01701">
        <ele>156</ele>
        <time>2025-07-17T08:46:14.071Z</time>
      </trkpt>
      <trkpt lat="44.38998" lon="1.01699">
        <ele>156</ele>
        <time>2025-07-17T08:46:15.071Z</time>
      </trkpt>
      <trkpt lat="44.38999" lon="1.01698">
        <ele>156</ele>
        <time>2025-07-17T08:46:16.071Z</time>
      </trkpt>
      <trkpt lat="44.39" lon="1.01696">
        <ele>156</ele>
        <time>2025-07-17T08:46:17.071Z</time>
      </trkpt>
      <trkpt lat="44.39" lon="1.01695">
        <ele>156</ele>
        <time>2025-07-17T08:46:18.071Z</time>
      </trkpt>
      <trkpt lat="44.39001" lon="1.01694">
        <ele>156</ele>
        <time>2025-07-17T08:46:19.071Z</time>
      </trkpt>
      <trkpt lat="44.39002" lon="1.01693">
        <ele>156</ele>
        <time>2025-07-17T08:46:20.071Z</time>
      </trkpt>
      <trkpt lat="44.39003" lon="1.01692">
        <ele>156</ele>
        <time>2025-07-17T08:46:21.071Z</time>
      </trkpt>
      <trkpt lat="44.39004" lon="1.01691">
        <ele>156</ele>
        <time>2025-07-17T08:46:22.071Z</time>
      </trkpt>
      <trkpt lat="44.39005" lon="1.0169">
        <ele>156</ele>
        <time>2025-07-17T08:46:23.072Z</time>
      </trkpt>
      <trkpt lat="44.39006" lon="1.01689">
        <ele>156</ele>
        <time>2025-07-17T08:46:24.071Z</time>
      </trkpt>
      <trkpt lat="44.39007" lon="1.01687">
        <ele>155</ele>
        <time>2025-07-17T08:46:25.071Z</time>
      </trkpt>
      <trkpt lat="44.39008" lon="1.01686">
        <ele>155</ele>
        <time>2025-07-17T08:46:26.071Z</time>
      </trkpt>
      <trkpt lat="44.3901" lon="1.01686">
        <ele>155</ele>
        <time>2025-07-17T08:46:27.071Z</time>
      </trkpt>
      <trkpt lat="44.39011" lon="1.01685">
        <ele>155</ele>
        <time>2025-07-17T08:46:28.072Z</time>
      </trkpt>
      <trkpt lat="44.39011" lon="1.01684">
        <ele>155</ele>
        <time>2025-07-17T08:46:29.071Z</time>
      </trkpt>
      <trkpt lat="44.39011" lon="1.01684">
        <ele>154</ele>
        <time>2025-07-17T08:46:30.071Z</time>
      </trkpt>
      <trkpt lat="44.39012" lon="1.01683">
        <ele>154</ele>
        <time>2025-07-17T08:46:31.071Z</time>
      </trkpt>
      <trkpt lat="44.39012" lon="1.01683">
        <ele>154</ele>
        <time>2025-07-17T08:46:32.071Z</time>
      </trkpt>
      <trkpt lat="44.39011" lon="1.01683">
        <ele>153</ele>
        <time>2025-07-17T08:46:33.071Z</time>
      </trkpt>
      <trkpt lat="44.39011" lon="1.01682">
        <ele>152</ele>
        <time>2025-07-17T08:46:34.071Z</time>
      </trkpt>
      <trkpt lat="44.39011" lon="1.01683">
        <ele>152</ele>
        <time>2025-07-17T08:46:35.071Z</time>
      </trkpt>
      <trkpt lat="44.39011" lon="1.01683">
        <ele>151</ele>
        <time>2025-07-17T08:46:36.071Z</time>
      </trkpt>
      <trkpt lat="44.39012" lon="1.01683">
        <ele>150</ele>
        <time>2025-07-17T08:46:37.071Z</time>
      </trkpt>
      <trkpt lat="44.39012" lon="1.01682">
        <ele>150</ele>
        <time>2025-07-17T08:46:38.072Z</time>
      </trkpt>
      <trkpt lat="44.39013" lon="1.01682">
        <ele>150</ele>
        <time>2025-07-17T08:46:39.073Z</time>
      </trkpt>
      <trkpt lat="44.39013" lon="1.0168">
        <ele>150</ele>
        <time>2025-07-17T08:46:40.071Z</time>
      </trkpt>
      <trkpt lat="44.39014" lon="1.01679">
        <ele>150</ele>
        <time>2025-07-17T08:46:41.071Z</time>
      </trkpt>
      <trkpt lat="44.39015" lon="1.01678">
        <ele>151</ele>
        <time>2025-07-17T08:46:42.072Z</time>
      </trkpt>
      <trkpt lat="44.39016" lon="1.01677">
        <ele>151</ele>
        <time>2025-07-17T08:46:43.072Z</time>
      </trkpt>
      <trkpt lat="44.39017" lon="1.01676">
        <ele>151</ele>
        <time>2025-07-17T08:46:44.071Z</time>
      </trkpt>
      <trkpt lat="44.39018" lon="1.01676">
        <ele>151</ele>
        <time>2025-07-17T08:46:45.072Z</time>
      </trkpt>
      <trkpt lat="44.39019" lon="1.01675">
        <ele>152</ele>
        <time>2025-07-17T08:46:46.071Z</time>
      </trkpt>
      <trkpt lat="44.3902" lon="1.01674">
        <ele>152</ele>
        <time>2025-07-17T08:46:47.071Z</time>
      </trkpt>
      <trkpt lat="44.39021" lon="1.01673">
        <ele>152</ele>
        <time>2025-07-17T08:46:48.071Z</time>
      </trkpt>
      <trkpt lat="44.39022" lon="1.01672">
        <ele>152</ele>
        <time>2025-07-17T08:46:49.071Z</time>
      </trkpt>
      <trkpt lat="44.39022" lon="1.01671">
        <ele>153</ele>
        <time>2025-07-17T08:46:50.071Z</time>
      </trkpt>
      <trkpt lat="44.39023" lon="1.01669">
        <ele>153</ele>
        <time>2025-07-17T08:46:51.071Z</time>
      </trkpt>
      <trkpt lat="44.39024" lon="1.01667">
        <ele>153</ele>
        <time>2025-07-17T08:46:52.071Z</time>
      </trkpt>
      <trkpt lat="44.39025" lon="1.01666">
        <ele>154</ele>
        <time>2025-07-17T08:46:53.071Z</time>
      </trkpt>
      <trkpt lat="44.39026" lon="1.01665">
        <ele>155</ele>
        <time>2025-07-17T08:46:54.071Z</time>
      </trkpt>
      <trkpt lat="44.39027" lon="1.01663">
        <ele>155</ele>
        <time>2025-07-17T08:46:55.071Z</time>
      </trkpt>
      <trkpt lat="44.39028" lon="1.01662">
        <ele>155</ele>
        <time>2025-07-17T08:46:56.071Z</time>
      </trkpt>
      <trkpt lat="44.39029" lon="1.0166">
        <ele>155</ele>
        <time>2025-07-17T08:46:57.072Z</time>
      </trkpt>
      <trkpt lat="44.3903" lon="1.01659">
        <ele>155</ele>
        <time>2025-07-17T08:46:58.071Z</time>
      </trkpt>
      <trkpt lat="44.39031" lon="1.01658">
        <ele>155</ele>
        <time>2025-07-17T08:46:59.071Z</time>
      </trkpt>
      <trkpt lat="44.39032" lon="1.01656">
        <ele>154</ele>
        <time>2025-07-17T08:47:00.071Z</time>
      </trkpt>
      <trkpt lat="44.39032" lon="1.01656">
        <ele>154</ele>
        <time>2025-07-17T08:47:01.071Z</time>
      </trkpt>
      <trkpt lat="44.39033" lon="1.01655">
        <ele>154</ele>
        <time>2025-07-17T08:47:02.071Z</time>
      </trkpt>
      <trkpt lat="44.39034" lon="1.01654">
        <ele>154</ele>
        <time>2025-07-17T08:47:03.071Z</time>
      </trkpt>
      <trkpt lat="44.39035" lon="1.01652">
        <ele>154</ele>
        <time>2025-07-17T08:47:04.071Z</time>
      </trkpt>
      <trkpt lat="44.39035" lon="1.01651">
        <ele>154</ele>
        <time>2025-07-17T08:47:05.071Z</time>
      </trkpt>
      <trkpt lat="44.39036" lon="1.01649">
        <ele>155</ele>
        <time>2025-07-17T08:47:06.071Z</time>
      </trkpt>
      <trkpt lat="44.39037" lon="1.01648">
        <ele>154</ele>
        <time>2025-07-17T08:47:07.071Z</time>
      </trkpt>
      <trkpt lat="44.39038" lon="1.01646">
        <ele>154</ele>
        <time>2025-07-17T08:47:08.071Z</time>
      </trkpt>
      <trkpt lat="44.39039" lon="1.01645">
        <ele>155</ele>
        <time>2025-07-17T08:47:09.071Z</time>
      </trkpt>
      <trkpt lat="44.39041" lon="1.01644">
        <ele>155</ele>
        <time>2025-07-17T08:47:10.072Z</time>
      </trkpt>
      <trkpt lat="44.39042" lon="1.01643">
        <ele>155</ele>
        <time>2025-07-17T08:47:11.071Z</time>
      </trkpt>
      <trkpt lat="44.39043" lon="1.01642">
        <ele>155</ele>
        <time>2025-07-17T08:47:12.071Z</time>
      </trkpt>
      <trkpt lat="44.39044" lon="1.01641">
        <ele>156</ele>
        <time>2025-07-17T08:47:13.071Z</time>
      </trkpt>
      <trkpt lat="44.39045" lon="1.0164">
        <ele>156</ele>
        <time>2025-07-17T08:47:14.071Z</time>
      </trkpt>
      <trkpt lat="44.39045" lon="1.01639">
        <ele>157</ele>
        <time>2025-07-17T08:47:15.072Z</time>
      </trkpt>
      <trkpt lat="44.39046" lon="1.01638">
        <ele>157</ele>
        <time>2025-07-17T08:47:16.071Z</time>
      </trkpt>
      <trkpt lat="44.39047" lon="1.01636">
        <ele>158</ele>
        <time>2025-07-17T08:47:17.071Z</time>
      </trkpt>
      <trkpt lat="44.39048" lon="1.01636">
        <ele>158</ele>
        <time>2025-07-17T08:47:18.072Z</time>
      </trkpt>
      <trkpt lat="44.3905" lon="1.01635">
        <ele>157</ele>
        <time>2025-07-17T08:47:19.071Z</time>
      </trkpt>
      <trkpt lat="44.39052" lon="1.01634">
        <ele>157</ele>
        <time>2025-07-17T08:47:20.072Z</time>
      </trkpt>
      <trkpt lat="44.39053" lon="1.01634">
        <ele>157</ele>
        <time>2025-07-17T08:47:21.072Z</time>
      </trkpt>
      <trkpt lat="44.39054" lon="1.01632">
        <ele>156</ele>
        <time>2025-07-17T08:47:22.071Z</time>
      </trkpt>
      <trkpt lat="44.39055" lon="1.01631">
        <ele>156</ele>
        <time>2025-07-17T08:47:23.071Z</time>
      </trkpt>
      <trkpt lat="44.39057" lon="1.0163">
        <ele>156</ele>
        <time>2025-07-17T08:47:24.072Z</time>
      </trkpt>
      <trkpt lat="44.39058" lon="1.01629">
        <ele>156</ele>
        <time>2025-07-17T08:47:25.071Z</time>
      </trkpt>
      <trkpt lat="44.39059" lon="1.01628">
        <ele>156</ele>
        <time>2025-07-17T08:47:26.071Z</time>
      </trkpt>
      <trkpt lat="44.3906" lon="1.01627">
        <ele>156</ele>
        <time>2025-07-17T08:47:27.071Z</time>
      </trkpt>
      <trkpt lat="44.39062" lon="1.01627">
        <ele>156</ele>
        <time>2025-07-17T08:47:28.071Z</time>
      </trkpt>
      <trkpt lat="44.39064" lon="1.01626">
        <ele>156</ele>
        <time>2025-07-17T08:47:29.071Z</time>
      </trkpt>
      <trkpt lat="44.39065" lon="1.01626">
        <ele>155</ele>
        <time>2025-07-17T08:47:30.071Z</time>
      </trkpt>
      <trkpt lat="44.39066" lon="1.01625">
        <ele>155</ele>
        <time>2025-07-17T08:47:31.071Z</time>
      </trkpt>
      <trkpt lat="44.39068" lon="1.01624">
        <ele>154</ele>
        <time>2025-07-17T08:47:32.071Z</time>
      </trkpt>
      <trkpt lat="44.39069" lon="1.01624">
        <ele>154</ele>
        <time>2025-07-17T08:47:33.071Z</time>
      </trkpt>
      <trkpt lat="44.3907" lon="1.01623">
        <ele>154</ele>
        <time>2025-07-17T08:47:34.071Z</time>
      </trkpt>
      <trkpt lat="44.39071" lon="1.01622">
        <ele>154</ele>
        <time>2025-07-17T08:47:35.071Z</time>
      </trkpt>
      <trkpt lat="44.39072" lon="1.01622">
        <ele>154</ele>
        <time>2025-07-17T08:47:36.071Z</time>
      </trkpt>
      <trkpt lat="44.39073" lon="1.01621">
        <ele>154</ele>
        <time>2025-07-17T08:47:37.071Z</time>
      </trkpt>
      <trkpt lat="44.39074" lon="1.0162">
        <ele>153</ele>
        <time>2025-07-17T08:47:38.071Z</time>
      </trkpt>
      <trkpt lat="44.39076" lon="1.01619">
        <ele>153</ele>
        <time>2025-07-17T08:47:39.071Z</time>
      </trkpt>
      <trkpt lat="44.39077" lon="1.01619">
        <ele>153</ele>
        <time>2025-07-17T08:47:40.071Z</time>
      </trkpt>
      <trkpt lat="44.39078" lon="1.01618">
        <ele>153</ele>
        <time>2025-07-17T08:47:41.071Z</time>
      </trkpt>
      <trkpt lat="44.39079" lon="1.01617">
        <ele>153</ele>
        <time>2025-07-17T08:47:42.071Z</time>
      </trkpt>
      <trkpt lat="44.3908" lon="1.01616">
        <ele>154</ele>
        <time>2025-07-17T08:47:43.071Z</time>
      </trkpt>
      <trkpt lat="44.39081" lon="1.01616">
        <ele>154</ele>
        <time>2025-07-17T08:47:44.071Z</time>
      </trkpt>
      <trkpt lat="44.39083" lon="1.01615">
        <ele>154</ele>
        <time>2025-07-17T08:47:45.071Z</time>
      </trkpt>
      <trkpt lat="44.39084" lon="1.01614">
        <ele>154</ele>
        <time>2025-07-17T08:47:46.071Z</time>
      </trkpt>
      <trkpt lat="44.39085" lon="1.01613">
        <ele>154</ele>
        <time>2025-07-17T08:47:47.072Z</time>
      </trkpt>
      <trkpt lat="44.39087" lon="1.01613">
        <ele>154</ele>
        <time>2025-07-17T08:47:48.071Z</time>
      </trkpt>
      <trkpt lat="44.39088" lon="1.01612">
        <ele>154</ele>
        <time>2025-07-17T08:47:49.071Z</time>
      </trkpt>
      <trkpt lat="44.39089" lon="1.01611">
        <ele>154</ele>
        <time>2025-07-17T08:47:50.071Z</time>
      </trkpt>
      <trkpt lat="44.3909" lon="1.0161">
        <ele>154</ele>
        <time>2025-07-17T08:47:51.071Z</time>
      </trkpt>
      <trkpt lat="44.39091" lon="1.0161">
        <ele>154</ele>
        <time>2025-07-17T08:47:52.071Z</time>
      </trkpt>
      <trkpt lat="44.39092" lon="1.01609">
        <ele>154</ele>
        <time>2025-07-17T08:47:53.071Z</time>
      </trkpt>
      <trkpt lat="44.39093" lon="1.01608">
        <ele>154</ele>
        <time>2025-07-17T08:47:54.071Z</time>
      </trkpt>
      <trkpt lat="44.39094" lon="1.01607">
        <ele>154</ele>
        <time>2025-07-17T08:47:55.071Z</time>
      </trkpt>
      <trkpt lat="44.39095" lon="1.01606">
        <ele>154</ele>
        <time>2025-07-17T08:47:56.071Z</time>
      </trkpt>
      <trkpt lat="44.39096" lon="1.01606">
        <ele>154</ele>
        <time>2025-07-17T08:47:57.071Z</time>
      </trkpt>
      <trkpt lat="44.39096" lon="1.01605">
        <ele>154</ele>
        <time>2025-07-17T08:47:58.071Z</time>
      </trkpt>
      <trkpt lat="44.39097" lon="1.01605">
        <ele>154</ele>
        <time>2025-07-17T08:47:59.071Z</time>
      </trkpt>
      <trkpt lat="44.39098" lon="1.01604">
        <ele>154</ele>
        <time>2025-07-17T08:48:00.071Z</time>
      </trkpt>
      <trkpt lat="44.39099" lon="1.01604">
        <ele>154</ele>
        <time>2025-07-17T08:48:01.071Z</time>
      </trkpt>
      <trkpt lat="44.391" lon="1.01603">
        <ele>154</ele>
        <time>2025-07-17T08:48:02.071Z</time>
      </trkpt>
      <trkpt lat="44.39101" lon="1.01602">
        <ele>154</ele>
        <time>2025-07-17T08:48:03.071Z</time>
      </trkpt>
      <trkpt lat="44.39102" lon="1.01602">
        <ele>154</ele>
        <time>2025-07-17T08:48:04.071Z</time>
      </trkpt>
      <trkpt lat="44.39103" lon="1.01601">
        <ele>154</ele>
        <time>2025-07-17T08:48:05.071Z</time>
      </trkpt>
      <trkpt lat="44.39104" lon="1.016">
        <ele>154</ele>
        <time>2025-07-17T08:48:06.071Z</time>
      </trkpt>
      <trkpt lat="44.39105" lon="1.01599">
        <ele>154</ele>
        <time>2025-07-17T08:48:07.071Z</time>
      </trkpt>
      <trkpt lat="44.39106" lon="1.01598">
        <ele>154</ele>
        <time>2025-07-17T08:48:08.071Z</time>
      </trkpt>
      <trkpt lat="44.39108" lon="1.01597">
        <ele>154</ele>
        <time>2025-07-17T08:48:09.071Z</time>
      </trkpt>
      <trkpt lat="44.39109" lon="1.01596">
        <ele>153</ele>
        <time>2025-07-17T08:48:10.071Z</time>
      </trkpt>
      <trkpt lat="44.3911" lon="1.01596">
        <ele>153</ele>
        <time>2025-07-17T08:48:11.071Z</time>
      </trkpt>
      <trkpt lat="44.39111" lon="1.01595">
        <ele>153</ele>
        <time>2025-07-17T08:48:12.071Z</time>
      </trkpt>
      <trkpt lat="44.39113" lon="1.01594">
        <ele>154</ele>
        <time>2025-07-17T08:48:13.071Z</time>
      </trkpt>
      <trkpt lat="44.39114" lon="1.01594">
        <ele>153</ele>
        <time>2025-07-17T08:48:14.071Z</time>
      </trkpt>
      <trkpt lat="44.39115" lon="1.01594">
        <ele>153</ele>
        <time>2025-07-17T08:48:15.071Z</time>
      </trkpt>
      <trkpt lat="44.39116" lon="1.01594">
        <ele>153</ele>
        <time>2025-07-17T08:48:16.072Z</time>
      </trkpt>
      <trkpt lat="44.39117" lon="1.01593">
        <ele>153</ele>
        <time>2025-07-17T08:48:17.071Z</time>
      </trkpt>
      <trkpt lat="44.39119" lon="1.01592">
        <ele>153</ele>
        <time>2025-07-17T08:48:18.071Z</time>
      </trkpt>
      <trkpt lat="44.3912" lon="1.01592">
        <ele>153</ele>
        <time>2025-07-17T08:48:19.071Z</time>
      </trkpt>
      <trkpt lat="44.39121" lon="1.01591">
        <ele>154</ele>
        <time>2025-07-17T08:48:20.071Z</time>
      </trkpt>
      <trkpt lat="44.39123" lon="1.0159">
        <ele>154</ele>
        <time>2025-07-17T08:48:21.071Z</time>
      </trkpt>
      <trkpt lat="44.39123" lon="1.01589">
        <ele>154</ele>
        <time>2025-07-17T08:48:22.071Z</time>
      </trkpt>
      <trkpt lat="44.39124" lon="1.01588">
        <ele>155</ele>
        <time>2025-07-17T08:48:23.072Z</time>
      </trkpt>
      <trkpt lat="44.39126" lon="1.01587">
        <ele>155</ele>
        <time>2025-07-17T08:48:24.071Z</time>
      </trkpt>
      <trkpt lat="44.39127" lon="1.01586">
        <ele>155</ele>
        <time>2025-07-17T08:48:25.071Z</time>
      </trkpt>
      <trkpt lat="44.39127" lon="1.01585">
        <ele>155</ele>
        <time>2025-07-17T08:48:26.071Z</time>
      </trkpt>
      <trkpt lat="44.39128" lon="1.01584">
        <ele>155</ele>
        <time>2025-07-17T08:48:27.071Z</time>
      </trkpt>
      <trkpt lat="44.39129" lon="1.01583">
        <ele>155</ele>
        <time>2025-07-17T08:48:28.071Z</time>
      </trkpt>
      <trkpt lat="44.39131" lon="1.01582">
        <ele>155</ele>
        <time>2025-07-17T08:48:29.071Z</time>
      </trkpt>
      <trkpt lat="44.39132" lon="1.01581">
        <ele>155</ele>
        <time>2025-07-17T08:48:30.071Z</time>
      </trkpt>
      <trkpt lat="44.39133" lon="1.0158">
        <ele>156</ele>
        <time>2025-07-17T08:48:31.071Z</time>
      </trkpt>
      <trkpt lat="44.39134" lon="1.01579">
        <ele>155</ele>
        <time>2025-07-17T08:48:32.071Z</time>
      </trkpt>
      <trkpt lat="44.39135" lon="1.01578">
        <ele>156</ele>
        <time>2025-07-17T08:48:33.071Z</time>
      </trkpt>
      <trkpt lat="44.39137" lon="1.01577">
        <ele>155</ele>
        <time>2025-07-17T08:48:34.071Z</time>
      </trkpt>
      <trkpt lat="44.39138" lon="1.01576">
        <ele>155</ele>
        <time>2025-07-17T08:48:35.071Z</time>
      </trkpt>
      <trkpt lat="44.39139" lon="1.01575">
        <ele>155</ele>
        <time>2025-07-17T08:48:36.071Z</time>
      </trkpt>
      <trkpt lat="44.3914" lon="1.01574">
        <ele>155</ele>
        <time>2025-07-17T08:48:37.071Z</time>
      </trkpt>
      <trkpt lat="44.39142" lon="1.01574">
        <ele>155</ele>
        <time>2025-07-17T08:48:38.072Z</time>
      </trkpt>
      <trkpt lat="44.39143" lon="1.01573">
        <ele>155</ele>
        <time>2025-07-17T08:48:39.071Z</time>
      </trkpt>
      <trkpt lat="44.39144" lon="1.01572">
        <ele>155</ele>
        <time>2025-07-17T08:48:40.072Z</time>
      </trkpt>
      <trkpt lat="44.39145" lon="1.01571">
        <ele>155</ele>
        <time>2025-07-17T08:48:41.072Z</time>
      </trkpt>
      <trkpt lat="44.39146" lon="1.01571">
        <ele>155</ele>
        <time>2025-07-17T08:48:42.071Z</time>
      </trkpt>
      <trkpt lat="44.39148" lon="1.0157">
        <ele>154</ele>
        <time>2025-07-17T08:48:43.072Z</time>
      </trkpt>
      <trkpt lat="44.39149" lon="1.01569">
        <ele>154</ele>
        <time>2025-07-17T08:48:44.071Z</time>
      </trkpt>
      <trkpt lat="44.3915" lon="1.01568">
        <ele>154</ele>
        <time>2025-07-17T08:48:45.072Z</time>
      </trkpt>
      <trkpt lat="44.39152" lon="1.01567">
        <ele>154</ele>
        <time>2025-07-17T08:48:46.072Z</time>
      </trkpt>
      <trkpt lat="44.39153" lon="1.01566">
        <ele>153</ele>
        <time>2025-07-17T08:48:47.072Z</time>
      </trkpt>
      <trkpt lat="44.39154" lon="1.01565">
        <ele>153</ele>
        <time>2025-07-17T08:48:48.072Z</time>
      </trkpt>
      <trkpt lat="44.39155" lon="1.01564">
        <ele>153</ele>
        <time>2025-07-17T08:48:49.072Z</time>
      </trkpt>
      <trkpt lat="44.39156" lon="1.01564">
        <ele>153</ele>
        <time>2025-07-17T08:48:50.072Z</time>
      </trkpt>
      <trkpt lat="44.39157" lon="1.01563">
        <ele>153</ele>
        <time>2025-07-17T08:48:51.071Z</time>
      </trkpt>
      <trkpt lat="44.39158" lon="1.01562">
        <ele>153</ele>
        <time>2025-07-17T08:48:52.071Z</time>
      </trkpt>
      <trkpt lat="44.39159" lon="1.01561">
        <ele>153</ele>
        <time>2025-07-17T08:48:53.071Z</time>
      </trkpt>
      <trkpt lat="44.3916" lon="1.0156">
        <ele>152</ele>
        <time>2025-07-17T08:48:54.071Z</time>
      </trkpt>
      <trkpt lat="44.39161" lon="1.01559">
        <ele>152</ele>
        <time>2025-07-17T08:48:55.071Z</time>
      </trkpt>
      <trkpt lat="44.39162" lon="1.01558">
        <ele>152</ele>
        <time>2025-07-17T08:48:56.071Z</time>
      </trkpt>
      <trkpt lat="44.39163" lon="1.01558">
        <ele>152</ele>
        <time>2025-07-17T08:48:57.071Z</time>
      </trkpt>
      <trkpt lat="44.39164" lon="1.01556">
        <ele>151</ele>
        <time>2025-07-17T08:48:58.071Z</time>
      </trkpt>
      <trkpt lat="44.39165" lon="1.01555">
        <ele>151</ele>
        <time>2025-07-17T08:48:59.071Z</time>
      </trkpt>
      <trkpt lat="44.39166" lon="1.01554">
        <ele>151</ele>
        <time>2025-07-17T08:49:00.071Z</time>
      </trkpt>
      <trkpt lat="44.39166" lon="1.01553">
        <ele>152</ele>
        <time>2025-07-17T08:49:01.071Z</time>
      </trkpt>
      <trkpt lat="44.39167" lon="1.01551">
        <ele>152</ele>
        <time>2025-07-17T08:49:02.071Z</time>
      </trkpt>
      <trkpt lat="44.39168" lon="1.01551">
        <ele>152</ele>
        <time>2025-07-17T08:49:03.071Z</time>
      </trkpt>
      <trkpt lat="44.39169" lon="1.0155">
        <ele>152</ele>
        <time>2025-07-17T08:49:04.071Z</time>
      </trkpt>
      <trkpt lat="44.3917" lon="1.01549">
        <ele>152</ele>
        <time>2025-07-17T08:49:05.071Z</time>
      </trkpt>
      <trkpt lat="44.39172" lon="1.01547">
        <ele>151</ele>
        <time>2025-07-17T08:49:06.071Z</time>
      </trkpt>
      <trkpt lat="44.39173" lon="1.01546">
        <ele>151</ele>
        <time>2025-07-17T08:49:07.071Z</time>
      </trkpt>
      <trkpt lat="44.39174" lon="1.01545">
        <ele>151</ele>
        <time>2025-07-17T08:49:08.071Z</time>
      </trkpt>
      <trkpt lat="44.39175" lon="1.01544">
        <ele>151</ele>
        <time>2025-07-17T08:49:09.071Z</time>
      </trkpt>
      <trkpt lat="44.39176" lon="1.01543">
        <ele>151</ele>
        <time>2025-07-17T08:49:10.071Z</time>
      </trkpt>
      <trkpt lat="44.39177" lon="1.01542">
        <ele>151</ele>
        <time>2025-07-17T08:49:11.071Z</time>
      </trkpt>
      <trkpt lat="44.39178" lon="1.01541">
        <ele>151</ele>
        <time>2025-07-17T08:49:12.071Z</time>
      </trkpt>
      <trkpt lat="44.39179" lon="1.01539">
        <ele>151</ele>
        <time>2025-07-17T08:49:13.071Z</time>
      </trkpt>
      <trkpt lat="44.3918" lon="1.01539">
        <ele>151</ele>
        <time>2025-07-17T08:49:14.071Z</time>
      </trkpt>
      <trkpt lat="44.39181" lon="1.01538">
        <ele>151</ele>
        <time>2025-07-17T08:49:15.071Z</time>
      </trkpt>
      <trkpt lat="44.39182" lon="1.01537">
        <ele>151</ele>
        <time>2025-07-17T08:49:16.071Z</time>
      </trkpt>
      <trkpt lat="44.39183" lon="1.01536">
        <ele>151</ele>
        <time>2025-07-17T08:49:17.071Z</time>
      </trkpt>
      <trkpt lat="44.39184" lon="1.01535">
        <ele>151</ele>
        <time>2025-07-17T08:49:18.072Z</time>
      </trkpt>
      <trkpt lat="44.39186" lon="1.01534">
        <ele>151</ele>
        <time>2025-07-17T08:49:19.071Z</time>
      </trkpt>
      <trkpt lat="44.39187" lon="1.01533">
        <ele>150</ele>
        <time>2025-07-17T08:49:20.071Z</time>
      </trkpt>
      <trkpt lat="44.39188" lon="1.01532">
        <ele>150</ele>
        <time>2025-07-17T08:49:21.071Z</time>
      </trkpt>
      <trkpt lat="44.3919" lon="1.01531">
        <ele>150</ele>
        <time>2025-07-17T08:49:22.071Z</time>
      </trkpt>
      <trkpt lat="44.39191" lon="1.0153">
        <ele>150</ele>
        <time>2025-07-17T08:49:23.071Z</time>
      </trkpt>
      <trkpt lat="44.39192" lon="1.01529">
        <ele>150</ele>
        <time>2025-07-17T08:49:24.071Z</time>
      </trkpt>
      <trkpt lat="44.39193" lon="1.01529">
        <ele>150</ele>
        <time>2025-07-17T08:49:25.071Z</time>
      </trkpt>
      <trkpt lat="44.39194" lon="1.01528">
        <ele>150</ele>
        <time>2025-07-17T08:49:26.071Z</time>
      </trkpt>
      <trkpt lat="44.39195" lon="1.01527">
        <ele>150</ele>
        <time>2025-07-17T08:49:27.071Z</time>
      </trkpt>
      <trkpt lat="44.39196" lon="1.01527">
        <ele>151</ele>
        <time>2025-07-17T08:49:28.071Z</time>
      </trkpt>
      <trkpt lat="44.39197" lon="1.01526">
        <ele>151</ele>
        <time>2025-07-17T08:49:29.071Z</time>
      </trkpt>
      <trkpt lat="44.39198" lon="1.01525">
        <ele>151</ele>
        <time>2025-07-17T08:49:30.071Z</time>
      </trkpt>
      <trkpt lat="44.392" lon="1.01525">
        <ele>151</ele>
        <time>2025-07-17T08:49:31.071Z</time>
      </trkpt>
      <trkpt lat="44.39201" lon="1.01524">
        <ele>151</ele>
        <time>2025-07-17T08:49:32.071Z</time>
      </trkpt>
      <trkpt lat="44.39202" lon="1.01523">
        <ele>151</ele>
        <time>2025-07-17T08:49:33.071Z</time>
      </trkpt>
      <trkpt lat="44.39203" lon="1.01523">
        <ele>151</ele>
        <time>2025-07-17T08:49:34.071Z</time>
      </trkpt>
      <trkpt lat="44.39205" lon="1.01522">
        <ele>152</ele>
        <time>2025-07-17T08:49:35.071Z</time>
      </trkpt>
      <trkpt lat="44.39206" lon="1.01522">
        <ele>152</ele>
        <time>2025-07-17T08:49:36.071Z</time>
      </trkpt>
      <trkpt lat="44.39207" lon="1.01522">
        <ele>152</ele>
        <time>2025-07-17T08:49:37.071Z</time>
      </trkpt>
      <trkpt lat="44.39208" lon="1.01521">
        <ele>152</ele>
        <time>2025-07-17T08:49:38.071Z</time>
      </trkpt>
      <trkpt lat="44.39209" lon="1.01521">
        <ele>152</ele>
        <time>2025-07-17T08:49:39.071Z</time>
      </trkpt>
      <trkpt lat="44.39211" lon="1.0152">
        <ele>152</ele>
        <time>2025-07-17T08:49:40.071Z</time>
      </trkpt>
      <trkpt lat="44.39212" lon="1.01519">
        <ele>152</ele>
        <time>2025-07-17T08:49:41.071Z</time>
      </trkpt>
      <trkpt lat="44.39213" lon="1.01519">
        <ele>152</ele>
        <time>2025-07-17T08:49:42.071Z</time>
      </trkpt>
      <trkpt lat="44.39214" lon="1.01518">
        <ele>152</ele>
        <time>2025-07-17T08:49:43.071Z</time>
      </trkpt>
      <trkpt lat="44.39216" lon="1.01518">
        <ele>152</ele>
        <time>2025-07-17T08:49:44.071Z</time>
      </trkpt>
      <trkpt lat="44.39217" lon="1.01517">
        <ele>152</ele>
        <time>2025-07-17T08:49:45.071Z</time>
      </trkpt>
      <trkpt lat="44.39219" lon="1.01517">
        <ele>152</ele>
        <time>2025-07-17T08:49:46.071Z</time>
      </trkpt>
      <trkpt lat="44.3922" lon="1.01516">
        <ele>151</ele>
        <time>2025-07-17T08:49:47.071Z</time>
      </trkpt>
      <trkpt lat="44.39221" lon="1.01515">
        <ele>151</ele>
        <time>2025-07-17T08:49:48.071Z</time>
      </trkpt>
      <trkpt lat="44.39223" lon="1.01515">
        <ele>151</ele>
        <time>2025-07-17T08:49:49.071Z</time>
      </trkpt>
      <trkpt lat="44.39224" lon="1.01514">
        <ele>151</ele>
        <time>2025-07-17T08:49:50.072Z</time>
      </trkpt>
      <trkpt lat="44.39225" lon="1.01513">
        <ele>151</ele>
        <time>2025-07-17T08:49:51.071Z</time>
      </trkpt>
      <trkpt lat="44.39226" lon="1.01513">
        <ele>151</ele>
        <time>2025-07-17T08:49:52.071Z</time>
      </trkpt>
      <trkpt lat="44.39227" lon="1.01513">
        <ele>152</ele>
        <time>2025-07-17T08:49:53.071Z</time>
      </trkpt>
      <trkpt lat="44.39228" lon="1.01512">
        <ele>152</ele>
        <time>2025-07-17T08:49:54.071Z</time>
      </trkpt>
      <trkpt lat="44.39229" lon="1.01512">
        <ele>152</ele>
        <time>2025-07-17T08:49:55.071Z</time>
      </trkpt>
      <trkpt lat="44.39231" lon="1.01511">
        <ele>152</ele>
        <time>2025-07-17T08:49:56.071Z</time>
      </trkpt>
      <trkpt lat="44.39232" lon="1.0151">
        <ele>152</ele>
        <time>2025-07-17T08:49:57.071Z</time>
      </trkpt>
      <trkpt lat="44.39233" lon="1.0151">
        <ele>152</ele>
        <time>2025-07-17T08:49:58.071Z</time>
      </trkpt>
      <trkpt lat="44.39235" lon="1.01509">
        <ele>152</ele>
        <time>2025-07-17T08:49:59.071Z</time>
      </trkpt>
      <trkpt lat="44.39236" lon="1.01508">
        <ele>153</ele>
        <time>2025-07-17T08:50:00.071Z</time>
      </trkpt>
      <trkpt lat="44.39237" lon="1.01507">
        <ele>153</ele>
        <time>2025-07-17T08:50:01.071Z</time>
      </trkpt>
      <trkpt lat="44.39238" lon="1.01507">
        <ele>153</ele>
        <time>2025-07-17T08:50:02.071Z</time>
      </trkpt>
      <trkpt lat="44.39239" lon="1.01506">
        <ele>152</ele>
        <time>2025-07-17T08:50:03.071Z</time>
      </trkpt>
      <trkpt lat="44.3924" lon="1.01506">
        <ele>152</ele>
        <time>2025-07-17T08:50:04.071Z</time>
      </trkpt>
      <trkpt lat="44.39242" lon="1.01506">
        <ele>152</ele>
        <time>2025-07-17T08:50:05.071Z</time>
      </trkpt>
      <trkpt lat="44.39243" lon="1.01505">
        <ele>152</ele>
        <time>2025-07-17T08:50:06.071Z</time>
      </trkpt>
      <trkpt lat="44.39244" lon="1.01504">
        <ele>151</ele>
        <time>2025-07-17T08:50:07.071Z</time>
      </trkpt>
      <trkpt lat="44.39246" lon="1.01504">
        <ele>152</ele>
        <time>2025-07-17T08:50:08.071Z</time>
      </trkpt>
      <trkpt lat="44.39247" lon="1.01503">
        <ele>152</ele>
        <time>2025-07-17T08:50:09.071Z</time>
      </trkpt>
      <trkpt lat="44.39248" lon="1.01503">
        <ele>152</ele>
        <time>2025-07-17T08:50:10.071Z</time>
      </trkpt>
      <trkpt lat="44.39249" lon="1.01502">
        <ele>152</ele>
        <time>2025-07-17T08:50:11.071Z</time>
      </trkpt>
      <trkpt lat="44.3925" lon="1.01502">
        <ele>152</ele>
        <time>2025-07-17T08:50:12.071Z</time>
      </trkpt>
      <trkpt lat="44.39252" lon="1.01501">
        <ele>152</ele>
        <time>2025-07-17T08:50:13.071Z</time>
      </trkpt>
      <trkpt lat="44.39253" lon="1.01501">
        <ele>152</ele>
        <time>2025-07-17T08:50:14.071Z</time>
      </trkpt>
      <trkpt lat="44.39254" lon="1.015">
        <ele>152</ele>
        <time>2025-07-17T08:50:15.071Z</time>
      </trkpt>
      <trkpt lat="44.39255" lon="1.015">
        <ele>152</ele>
        <time>2025-07-17T08:50:16.071Z</time>
      </trkpt>
      <trkpt lat="44.39256" lon="1.015">
        <ele>152</ele>
        <time>2025-07-17T08:50:17.071Z</time>
      </trkpt>
      <trkpt lat="44.39257" lon="1.01499">
        <ele>152</ele>
        <time>2025-07-17T08:50:18.071Z</time>
      </trkpt>
      <trkpt lat="44.39259" lon="1.01499">
        <ele>152</ele>
        <time>2025-07-17T08:50:19.071Z</time>
      </trkpt>
      <trkpt lat="44.3926" lon="1.01498">
        <ele>153</ele>
        <time>2025-07-17T08:50:20.071Z</time>
      </trkpt>
      <trkpt lat="44.39261" lon="1.01498">
        <ele>153</ele>
        <time>2025-07-17T08:50:21.071Z</time>
      </trkpt>
      <trkpt lat="44.39262" lon="1.01497">
        <ele>153</ele>
        <time>2025-07-17T08:50:22.071Z</time>
      </trkpt>
      <trkpt lat="44.39263" lon="1.01496">
        <ele>153</ele>
        <time>2025-07-17T08:50:23.071Z</time>
      </trkpt>
      <trkpt lat="44.39264" lon="1.01496">
        <ele>153</ele>
        <time>2025-07-17T08:50:24.071Z</time>
      </trkpt>
      <trkpt lat="44.39266" lon="1.01495">
        <ele>153</ele>
        <time>2025-07-17T08:50:25.071Z</time>
      </trkpt>
      <trkpt lat="44.39267" lon="1.01494">
        <ele>153</ele>
        <time>2025-07-17T08:50:26.071Z</time>
      </trkpt>
      <trkpt lat="44.39268" lon="1.01494">
        <ele>153</ele>
        <time>2025-07-17T08:50:27.071Z</time>
      </trkpt>
      <trkpt lat="44.39269" lon="1.01493">
        <ele>153</ele>
        <time>2025-07-17T08:50:28.071Z</time>
      </trkpt>
      <trkpt lat="44.3927" lon="1.01493">
        <ele>153</ele>
        <time>2025-07-17T08:50:29.071Z</time>
      </trkpt>
      <trkpt lat="44.39271" lon="1.01492">
        <ele>154</ele>
        <time>2025-07-17T08:50:30.071Z</time>
      </trkpt>
      <trkpt lat="44.39272" lon="1.01492">
        <ele>154</ele>
        <time>2025-07-17T08:50:31.071Z</time>
      </trkpt>
      <trkpt lat="44.39273" lon="1.01491">
        <ele>154</ele>
        <time>2025-07-17T08:50:32.071Z</time>
      </trkpt>
      <trkpt lat="44.39274" lon="1.01491">
        <ele>154</ele>
        <time>2025-07-17T08:50:33.071Z</time>
      </trkpt>
      <trkpt lat="44.39275" lon="1.0149">
        <ele>154</ele>
        <time>2025-07-17T08:50:34.071Z</time>
      </trkpt>
      <trkpt lat="44.39276" lon="1.0149">
        <ele>154</ele>
        <time>2025-07-17T08:50:35.071Z</time>
      </trkpt>
      <trkpt lat="44.39277" lon="1.01489">
        <ele>155</ele>
        <time>2025-07-17T08:50:36.071Z</time>
      </trkpt>
      <trkpt lat="44.39279" lon="1.01489">
        <ele>155</ele>
        <time>2025-07-17T08:50:37.071Z</time>
      </trkpt>
      <trkpt lat="44.3928" lon="1.01488">
        <ele>155</ele>
        <time>2025-07-17T08:50:38.071Z</time>
      </trkpt>
      <trkpt lat="44.39281" lon="1.01488">
        <ele>155</ele>
        <time>2025-07-17T08:50:39.071Z</time>
      </trkpt>
      <trkpt lat="44.39282" lon="1.01487">
        <ele>155</ele>
        <time>2025-07-17T08:50:40.071Z</time>
      </trkpt>
      <trkpt lat="44.39283" lon="1.01486">
        <ele>155</ele>
        <time>2025-07-17T08:50:41.071Z</time>
      </trkpt>
      <trkpt lat="44.39284" lon="1.01486">
        <ele>156</ele>
        <time>2025-07-17T08:50:42.071Z</time>
      </trkpt>
      <trkpt lat="44.39284" lon="1.01485">
        <ele>156</ele>
        <time>2025-07-17T08:50:43.071Z</time>
      </trkpt>
      <trkpt lat="44.39285" lon="1.01484">
        <ele>156</ele>
        <time>2025-07-17T08:50:44.071Z</time>
      </trkpt>
      <trkpt lat="44.39286" lon="1.01484">
        <ele>156</ele>
        <time>2025-07-17T08:50:45.071Z</time>
      </trkpt>
      <trkpt lat="44.39287" lon="1.01484">
        <ele>156</ele>
        <time>2025-07-17T08:50:46.071Z</time>
      </trkpt>
      <trkpt lat="44.39288" lon="1.01483">
        <ele>156</ele>
        <time>2025-07-17T08:50:47.071Z</time>
      </trkpt>
      <trkpt lat="44.39289" lon="1.01483">
        <ele>156</ele>
        <time>2025-07-17T08:50:48.071Z</time>
      </trkpt>
      <trkpt lat="44.3929" lon="1.01483">
        <ele>156</ele>
        <time>2025-07-17T08:50:49.071Z</time>
      </trkpt>
      <trkpt lat="44.39291" lon="1.01482">
        <ele>156</ele>
        <time>2025-07-17T08:50:50.071Z</time>
      </trkpt>
      <trkpt lat="44.39292" lon="1.01482">
        <ele>157</ele>
        <time>2025-07-17T08:50:51.071Z</time>
      </trkpt>
      <trkpt lat="44.39293" lon="1.01482">
        <ele>157</ele>
        <time>2025-07-17T08:50:52.071Z</time>
      </trkpt>
      <trkpt lat="44.39294" lon="1.01481">
        <ele>157</ele>
        <time>2025-07-17T08:50:53.071Z</time>
      </trkpt>
      <trkpt lat="44.39295" lon="1.01481">
        <ele>157</ele>
        <time>2025-07-17T08:50:54.071Z</time>
      </trkpt>
      <trkpt lat="44.39296" lon="1.0148">
        <ele>157</ele>
        <time>2025-07-17T08:50:55.071Z</time>
      </trkpt>
      <trkpt lat="44.39297" lon="1.0148">
        <ele>157</ele>
        <time>2025-07-17T08:50:56.071Z</time>
      </trkpt>
      <trkpt lat="44.39298" lon="1.01479">
        <ele>157</ele>
        <time>2025-07-17T08:50:57.072Z</time>
      </trkpt>
      <trkpt lat="44.39299" lon="1.01479">
        <ele>157</ele>
        <time>2025-07-17T08:50:58.071Z</time>
      </trkpt>
      <trkpt lat="44.393" lon="1.01478">
        <ele>157</ele>
        <time>2025-07-17T08:50:59.071Z</time>
      </trkpt>
      <trkpt lat="44.39301" lon="1.01478">
        <ele>157</ele>
        <time>2025-07-17T08:51:00.071Z</time>
      </trkpt>
      <trkpt lat="44.39302" lon="1.01477">
        <ele>157</ele>
        <time>2025-07-17T08:51:01.071Z</time>
      </trkpt>
      <trkpt lat="44.39303" lon="1.01477">
        <ele>158</ele>
        <time>2025-07-17T08:51:02.071Z</time>
      </trkpt>
      <trkpt lat="44.39304" lon="1.01477">
        <ele>158</ele>
        <time>2025-07-17T08:51:03.071Z</time>
      </trkpt>
      <trkpt lat="44.39305" lon="1.01476">
        <ele>158</ele>
        <time>2025-07-17T08:51:04.071Z</time>
      </trkpt>
      <trkpt lat="44.39306" lon="1.01476">
        <ele>158</ele>
        <time>2025-07-17T08:51:05.071Z</time>
      </trkpt>
      <trkpt lat="44.39307" lon="1.01475">
        <ele>158</ele>
        <time>2025-07-17T08:51:06.071Z</time>
      </trkpt>
      <trkpt lat="44.39308" lon="1.01475">
        <ele>159</ele>
        <time>2025-07-17T08:51:07.071Z</time>
      </trkpt>
      <trkpt lat="44.39309" lon="1.01475">
        <ele>159</ele>
        <time>2025-07-17T08:51:08.071Z</time>
      </trkpt>
      <trkpt lat="44.3931" lon="1.01475">
        <ele>159</ele>
        <time>2025-07-17T08:51:09.071Z</time>
      </trkpt>
      <trkpt lat="44.39311" lon="1.01474">
        <ele>159</ele>
        <time>2025-07-17T08:51:10.071Z</time>
      </trkpt>
      <trkpt lat="44.39312" lon="1.01473">
        <ele>159</ele>
        <time>2025-07-17T08:51:11.072Z</time>
      </trkpt>
      <trkpt lat="44.39313" lon="1.01472">
        <ele>159</ele>
        <time>2025-07-17T08:51:12.071Z</time>
      </trkpt>
      <trkpt lat="44.39314" lon="1.01472">
        <ele>158</ele>
        <time>2025-07-17T08:51:13.071Z</time>
      </trkpt>
      <trkpt lat="44.39315" lon="1.01471">
        <ele>158</ele>
        <time>2025-07-17T08:51:14.071Z</time>
      </trkpt>
      <trkpt lat="44.39315" lon="1.01471">
        <ele>158</ele>
        <time>2025-07-17T08:51:15.071Z</time>
      </trkpt>
      <trkpt lat="44.39316" lon="1.0147">
        <ele>158</ele>
        <time>2025-07-17T08:51:16.071Z</time>
      </trkpt>
      <trkpt lat="44.39317" lon="1.0147">
        <ele>158</ele>
        <time>2025-07-17T08:51:17.071Z</time>
      </trkpt>
      <trkpt lat="44.39318" lon="1.01469">
        <ele>158</ele>
        <time>2025-07-17T08:51:18.071Z</time>
      </trkpt>
      <trkpt lat="44.39319" lon="1.01469">
        <ele>158</ele>
        <time>2025-07-17T08:51:19.071Z</time>
      </trkpt>
      <trkpt lat="44.3932" lon="1.01468">
        <ele>158</ele>
        <time>2025-07-17T08:51:20.071Z</time>
      </trkpt>
      <trkpt lat="44.39321" lon="1.01467">
        <ele>159</ele>
        <time>2025-07-17T08:51:21.071Z</time>
      </trkpt>
      <trkpt lat="44.39322" lon="1.01466">
        <ele>159</ele>
        <time>2025-07-17T08:51:22.071Z</time>
      </trkpt>
      <trkpt lat="44.39323" lon="1.01466">
        <ele>160</ele>
        <time>2025-07-17T08:51:23.072Z</time>
      </trkpt>
      <trkpt lat="44.39324" lon="1.01465">
        <ele>160</ele>
        <time>2025-07-17T08:51:24.071Z</time>
      </trkpt>
      <trkpt lat="44.39325" lon="1.01464">
        <ele>161</ele>
        <time>2025-07-17T08:51:25.071Z</time>
      </trkpt>
      <trkpt lat="44.39326" lon="1.01464">
        <ele>161</ele>
        <time>2025-07-17T08:51:26.071Z</time>
      </trkpt>
      <trkpt lat="44.39327" lon="1.01463">
        <ele>161</ele>
        <time>2025-07-17T08:51:27.071Z</time>
      </trkpt>
      <trkpt lat="44.39327" lon="1.01462">
        <ele>161</ele>
        <time>2025-07-17T08:51:28.071Z</time>
      </trkpt>
      <trkpt lat="44.39328" lon="1.01461">
        <ele>161</ele>
        <time>2025-07-17T08:51:29.071Z</time>
      </trkpt>
      <trkpt lat="44.39329" lon="1.0146">
        <ele>161</ele>
        <time>2025-07-17T08:51:30.071Z</time>
      </trkpt>
      <trkpt lat="44.3933" lon="1.01459">
        <ele>161</ele>
        <time>2025-07-17T08:51:31.071Z</time>
      </trkpt>
      <trkpt lat="44.39331" lon="1.01458">
        <ele>162</ele>
        <time>2025-07-17T08:51:32.071Z</time>
      </trkpt>
      <trkpt lat="44.39332" lon="1.01457">
        <ele>162</ele>
        <time>2025-07-17T08:51:33.071Z</time>
      </trkpt>
      <trkpt lat="44.39332" lon="1.01456">
        <ele>162</ele>
        <time>2025-07-17T08:51:34.071Z</time>
      </trkpt>
      <trkpt lat="44.39333" lon="1.01455">
        <ele>162</ele>
        <time>2025-07-17T08:51:35.071Z</time>
      </trkpt>
      <trkpt lat="44.39334" lon="1.01454">
        <ele>162</ele>
        <time>2025-07-17T08:51:36.071Z</time>
      </trkpt>
      <trkpt lat="44.39335" lon="1.01453">
        <ele>163</ele>
        <time>2025-07-17T08:51:37.071Z</time>
      </trkpt>
      <trkpt lat="44.39336" lon="1.01451">
        <ele>163</ele>
        <time>2025-07-17T08:51:38.071Z</time>
      </trkpt>
      <trkpt lat="44.39337" lon="1.0145">
        <ele>163</ele>
        <time>2025-07-17T08:51:39.071Z</time>
      </trkpt>
      <trkpt lat="44.39337" lon="1.01449">
        <ele>163</ele>
        <time>2025-07-17T08:51:40.071Z</time>
      </trkpt>
      <trkpt lat="44.39338" lon="1.01448">
        <ele>163</ele>
        <time>2025-07-17T08:51:41.071Z</time>
      </trkpt>
      <trkpt lat="44.39339" lon="1.01447">
        <ele>164</ele>
        <time>2025-07-17T08:51:42.071Z</time>
      </trkpt>
      <trkpt lat="44.39339" lon="1.01446">
        <ele>164</ele>
        <time>2025-07-17T08:51:43.071Z</time>
      </trkpt>
      <trkpt lat="44.3934" lon="1.01444">
        <ele>164</ele>
        <time>2025-07-17T08:51:44.071Z</time>
      </trkpt>
      <trkpt lat="44.39341" lon="1.01443">
        <ele>164</ele>
        <time>2025-07-17T08:51:45.071Z</time>
      </trkpt>
      <trkpt lat="44.39341" lon="1.01441">
        <ele>164</ele>
        <time>2025-07-17T08:51:46.071Z</time>
      </trkpt>
      <trkpt lat="44.39342" lon="1.0144">
        <ele>164</ele>
        <time>2025-07-17T08:51:47.071Z</time>
      </trkpt>
      <trkpt lat="44.39343" lon="1.01439">
        <ele>164</ele>
        <time>2025-07-17T08:51:48.071Z</time>
      </trkpt>
      <trkpt lat="44.39343" lon="1.01438">
        <ele>164</ele>
        <time>2025-07-17T08:51:49.071Z</time>
      </trkpt>
      <trkpt lat="44.39344" lon="1.01436">
        <ele>164</ele>
        <time>2025-07-17T08:51:50.071Z</time>
      </trkpt>
      <trkpt lat="44.39344" lon="1.01434">
        <ele>164</ele>
        <time>2025-07-17T08:51:51.071Z</time>
      </trkpt>
      <trkpt lat="44.39345" lon="1.01433">
        <ele>164</ele>
        <time>2025-07-17T08:51:52.071Z</time>
      </trkpt>
      <trkpt lat="44.39346" lon="1.01431">
        <ele>164</ele>
        <time>2025-07-17T08:51:53.071Z</time>
      </trkpt>
      <trkpt lat="44.39346" lon="1.01429">
        <ele>165</ele>
        <time>2025-07-17T08:51:54.071Z</time>
      </trkpt>
      <trkpt lat="44.39347" lon="1.01428">
        <ele>165</ele>
        <time>2025-07-17T08:51:55.071Z</time>
      </trkpt>
      <trkpt lat="44.39347" lon="1.01426">
        <ele>165</ele>
        <time>2025-07-17T08:51:56.071Z</time>
      </trkpt>
      <trkpt lat="44.39347" lon="1.01425">
        <ele>165</ele>
        <time>2025-07-17T08:51:57.071Z</time>
      </trkpt>
      <trkpt lat="44.39348" lon="1.01424">
        <ele>165</ele>
        <time>2025-07-17T08:51:58.071Z</time>
      </trkpt>
      <trkpt lat="44.39348" lon="1.01422">
        <ele>166</ele>
        <time>2025-07-17T08:51:59.071Z</time>
      </trkpt>
      <trkpt lat="44.39348" lon="1.01421">
        <ele>166</ele>
        <time>2025-07-17T08:52:00.071Z</time>
      </trkpt>
      <trkpt lat="44.39349" lon="1.0142">
        <ele>166</ele>
        <time>2025-07-17T08:52:01.071Z</time>
      </trkpt>
      <trkpt lat="44.3935" lon="1.01418">
        <ele>166</ele>
        <time>2025-07-17T08:52:02.071Z</time>
      </trkpt>
      <trkpt lat="44.3935" lon="1.01417">
        <ele>166</ele>
        <time>2025-07-17T08:52:03.071Z</time>
      </trkpt>
      <trkpt lat="44.39351" lon="1.01416">
        <ele>166</ele>
        <time>2025-07-17T08:52:04.071Z</time>
      </trkpt>
      <trkpt lat="44.39351" lon="1.01415">
        <ele>165</ele>
        <time>2025-07-17T08:52:05.071Z</time>
      </trkpt>
      <trkpt lat="44.39351" lon="1.01414">
        <ele>165</ele>
        <time>2025-07-17T08:52:06.071Z</time>
      </trkpt>
      <trkpt lat="44.39351" lon="1.01412">
        <ele>165</ele>
        <time>2025-07-17T08:52:07.071Z</time>
      </trkpt>
      <trkpt lat="44.39352" lon="1.01411">
        <ele>165</ele>
        <time>2025-07-17T08:52:08.071Z</time>
      </trkpt>
      <trkpt lat="44.39352" lon="1.01409">
        <ele>165</ele>
        <time>2025-07-17T08:52:09.071Z</time>
      </trkpt>
      <trkpt lat="44.39353" lon="1.01408">
        <ele>165</ele>
        <time>2025-07-17T08:52:10.071Z</time>
      </trkpt>
      <trkpt lat="44.39354" lon="1.01407">
        <ele>166</ele>
        <time>2025-07-17T08:52:11.071Z</time>
      </trkpt>
      <trkpt lat="44.39355" lon="1.01407">
        <ele>166</ele>
        <time>2025-07-17T08:52:12.071Z</time>
      </trkpt>
      <trkpt lat="44.39355" lon="1.01406">
        <ele>166</ele>
        <time>2025-07-17T08:52:13.071Z</time>
      </trkpt>
      <trkpt lat="44.39355" lon="1.01405">
        <ele>167</ele>
        <time>2025-07-17T08:52:14.071Z</time>
      </trkpt>
      <trkpt lat="44.39356" lon="1.01404">
        <ele>167</ele>
        <time>2025-07-17T08:52:15.071Z</time>
      </trkpt>
      <trkpt lat="44.39356" lon="1.01402">
        <ele>167</ele>
        <time>2025-07-17T08:52:16.071Z</time>
      </trkpt>
      <trkpt lat="44.39357" lon="1.014">
        <ele>167</ele>
        <time>2025-07-17T08:52:17.071Z</time>
      </trkpt>
      <trkpt lat="44.39357" lon="1.01399">
        <ele>167</ele>
        <time>2025-07-17T08:52:18.071Z</time>
      </trkpt>
      <trkpt lat="44.39358" lon="1.01397">
        <ele>167</ele>
        <time>2025-07-17T08:52:19.071Z</time>
      </trkpt>
      <trkpt lat="44.39359" lon="1.01396">
        <ele>167</ele>
        <time>2025-07-17T08:52:20.071Z</time>
      </trkpt>
      <trkpt lat="44.39359" lon="1.01394">
        <ele>167</ele>
        <time>2025-07-17T08:52:21.071Z</time>
      </trkpt>
      <trkpt lat="44.3936" lon="1.01392">
        <ele>167</ele>
        <time>2025-07-17T08:52:22.071Z</time>
      </trkpt>
      <trkpt lat="44.3936" lon="1.0139">
        <ele>167</ele>
        <time>2025-07-17T08:52:23.071Z</time>
      </trkpt>
      <trkpt lat="44.39361" lon="1.01389">
        <ele>167</ele>
        <time>2025-07-17T08:52:24.071Z</time>
      </trkpt>
      <trkpt lat="44.39362" lon="1.01389">
        <ele>167</ele>
        <time>2025-07-17T08:52:25.071Z</time>
      </trkpt>
      <trkpt lat="44.39362" lon="1.01388">
        <ele>167</ele>
        <time>2025-07-17T08:52:26.071Z</time>
      </trkpt>
      <trkpt lat="44.39363" lon="1.01387">
        <ele>167</ele>
        <time>2025-07-17T08:52:27.072Z</time>
      </trkpt>
      <trkpt lat="44.39363" lon="1.01386">
        <ele>167</ele>
        <time>2025-07-17T08:52:28.071Z</time>
      </trkpt>
      <trkpt lat="44.39364" lon="1.01384">
        <ele>167</ele>
        <time>2025-07-17T08:52:29.071Z</time>
      </trkpt>
      <trkpt lat="44.39364" lon="1.01383">
        <ele>167</ele>
        <time>2025-07-17T08:52:30.071Z</time>
      </trkpt>
      <trkpt lat="44.39365" lon="1.01382">
        <ele>167</ele>
        <time>2025-07-17T08:52:31.071Z</time>
      </trkpt>
      <trkpt lat="44.39365" lon="1.0138">
        <ele>167</ele>
        <time>2025-07-17T08:52:32.071Z</time>
      </trkpt>
      <trkpt lat="44.39366" lon="1.01379">
        <ele>167</ele>
        <time>2025-07-17T08:52:33.071Z</time>
      </trkpt>
      <trkpt lat="44.39366" lon="1.01378">
        <ele>167</ele>
        <time>2025-07-17T08:52:34.071Z</time>
      </trkpt>
      <trkpt lat="44.39367" lon="1.01377">
        <ele>167</ele>
        <time>2025-07-17T08:52:35.071Z</time>
      </trkpt>
      <trkpt lat="44.39367" lon="1.01376">
        <ele>167</ele>
        <time>2025-07-17T08:52:36.072Z</time>
      </trkpt>
      <trkpt lat="44.39368" lon="1.01375">
        <ele>167</ele>
        <time>2025-07-17T08:52:37.071Z</time>
      </trkpt>
      <trkpt lat="44.39368" lon="1.01373">
        <ele>167</ele>
        <time>2025-07-17T08:52:38.071Z</time>
      </trkpt>
      <trkpt lat="44.39369" lon="1.01372">
        <ele>167</ele>
        <time>2025-07-17T08:52:39.071Z</time>
      </trkpt>
      <trkpt lat="44.39369" lon="1.01371">
        <ele>167</ele>
        <time>2025-07-17T08:52:40.071Z</time>
      </trkpt>
      <trkpt lat="44.3937" lon="1.01369">
        <ele>167</ele>
        <time>2025-07-17T08:52:41.071Z</time>
      </trkpt>
      <trkpt lat="44.3937" lon="1.01368">
        <ele>167</ele>
        <time>2025-07-17T08:52:42.071Z</time>
      </trkpt>
      <trkpt lat="44.39371" lon="1.01366">
        <ele>167</ele>
        <time>2025-07-17T08:52:43.071Z</time>
      </trkpt>
      <trkpt lat="44.39372" lon="1.01365">
        <ele>167</ele>
        <time>2025-07-17T08:52:44.071Z</time>
      </trkpt>
      <trkpt lat="44.39373" lon="1.01363">
        <ele>167</ele>
        <time>2025-07-17T08:52:45.071Z</time>
      </trkpt>
      <trkpt lat="44.39373" lon="1.01362">
        <ele>167</ele>
        <time>2025-07-17T08:52:46.071Z</time>
      </trkpt>
      <trkpt lat="44.39374" lon="1.0136">
        <ele>167</ele>
        <time>2025-07-17T08:52:47.071Z</time>
      </trkpt>
      <trkpt lat="44.39375" lon="1.01359">
        <ele>167</ele>
        <time>2025-07-17T08:52:48.071Z</time>
      </trkpt>
      <trkpt lat="44.39375" lon="1.01357">
        <ele>167</ele>
        <time>2025-07-17T08:52:49.071Z</time>
      </trkpt>
      <trkpt lat="44.39376" lon="1.01356">
        <ele>167</ele>
        <time>2025-07-17T08:52:50.071Z</time>
      </trkpt>
      <trkpt lat="44.39377" lon="1.01354">
        <ele>167</ele>
        <time>2025-07-17T08:52:51.071Z</time>
      </trkpt>
      <trkpt lat="44.39378" lon="1.01353">
        <ele>168</ele>
        <time>2025-07-17T08:52:52.071Z</time>
      </trkpt>
      <trkpt lat="44.39379" lon="1.01352">
        <ele>168</ele>
        <time>2025-07-17T08:52:53.071Z</time>
      </trkpt>
      <trkpt lat="44.3938" lon="1.0135">
        <ele>168</ele>
        <time>2025-07-17T08:52:54.071Z</time>
      </trkpt>
      <trkpt lat="44.3938" lon="1.01349">
        <ele>167</ele>
        <time>2025-07-17T08:52:55.071Z</time>
      </trkpt>
      <trkpt lat="44.39381" lon="1.01348">
        <ele>167</ele>
        <time>2025-07-17T08:52:56.071Z</time>
      </trkpt>
      <trkpt lat="44.39382" lon="1.01347">
        <ele>167</ele>
        <time>2025-07-17T08:52:57.071Z</time>
      </trkpt>
      <trkpt lat="44.39382" lon="1.01346">
        <ele>167</ele>
        <time>2025-07-17T08:52:58.071Z</time>
      </trkpt>
      <trkpt lat="44.39383" lon="1.01345">
        <ele>167</ele>
        <time>2025-07-17T08:52:59.071Z</time>
      </trkpt>
      <trkpt lat="44.39384" lon="1.01343">
        <ele>167</ele>
        <time>2025-07-17T08:53:00.071Z</time>
      </trkpt>
      <trkpt lat="44.39384" lon="1.01342">
        <ele>167</ele>
        <time>2025-07-17T08:53:01.071Z</time>
      </trkpt>
      <trkpt lat="44.39385" lon="1.0134">
        <ele>168</ele>
        <time>2025-07-17T08:53:02.071Z</time>
      </trkpt>
      <trkpt lat="44.39386" lon="1.01338">
        <ele>168</ele>
        <time>2025-07-17T08:53:03.071Z</time>
      </trkpt>
      <trkpt lat="44.39386" lon="1.01337">
        <ele>168</ele>
        <time>2025-07-17T08:53:04.071Z</time>
      </trkpt>
      <trkpt lat="44.39387" lon="1.01336">
        <ele>168</ele>
        <time>2025-07-17T08:53:05.071Z</time>
      </trkpt>
      <trkpt lat="44.39387" lon="1.01334">
        <ele>168</ele>
        <time>2025-07-17T08:53:06.072Z</time>
      </trkpt>
      <trkpt lat="44.39388" lon="1.01333">
        <ele>168</ele>
        <time>2025-07-17T08:53:07.071Z</time>
      </trkpt>
      <trkpt lat="44.39389" lon="1.01332">
        <ele>168</ele>
        <time>2025-07-17T08:53:08.071Z</time>
      </trkpt>
      <trkpt lat="44.3939" lon="1.01331">
        <ele>168</ele>
        <time>2025-07-17T08:53:09.071Z</time>
      </trkpt>
      <trkpt lat="44.3939" lon="1.0133">
        <ele>167</ele>
        <time>2025-07-17T08:53:10.071Z</time>
      </trkpt>
      <trkpt lat="44.39391" lon="1.01329">
        <ele>167</ele>
        <time>2025-07-17T08:53:11.071Z</time>
      </trkpt>
      <trkpt lat="44.39392" lon="1.01327">
        <ele>167</ele>
        <time>2025-07-17T08:53:12.071Z</time>
      </trkpt>
      <trkpt lat="44.39393" lon="1.01326">
        <ele>167</ele>
        <time>2025-07-17T08:53:13.071Z</time>
      </trkpt>
      <trkpt lat="44.39394" lon="1.01324">
        <ele>167</ele>
        <time>2025-07-17T08:53:14.071Z</time>
      </trkpt>
      <trkpt lat="44.39394" lon="1.01323">
        <ele>167</ele>
        <time>2025-07-17T08:53:15.071Z</time>
      </trkpt>
      <trkpt lat="44.39395" lon="1.01322">
        <ele>167</ele>
        <time>2025-07-17T08:53:16.071Z</time>
      </trkpt>
      <trkpt lat="44.39396" lon="1.01321">
        <ele>167</ele>
        <time>2025-07-17T08:53:17.071Z</time>
      </trkpt>
      <trkpt lat="44.39396" lon="1.0132">
        <ele>167</ele>
        <time>2025-07-17T08:53:18.071Z</time>
      </trkpt>
      <trkpt lat="44.39397" lon="1.01318">
        <ele>167</ele>
        <time>2025-07-17T08:53:19.071Z</time>
      </trkpt>
      <trkpt lat="44.39398" lon="1.01317">
        <ele>167</ele>
        <time>2025-07-17T08:53:20.071Z</time>
      </trkpt>
      <trkpt lat="44.39399" lon="1.01315">
        <ele>167</ele>
        <time>2025-07-17T08:53:21.071Z</time>
      </trkpt>
      <trkpt lat="44.394" lon="1.01314">
        <ele>167</ele>
        <time>2025-07-17T08:53:22.071Z</time>
      </trkpt>
      <trkpt lat="44.394" lon="1.01312">
        <ele>167</ele>
        <time>2025-07-17T08:53:23.071Z</time>
      </trkpt>
      <trkpt lat="44.39401" lon="1.01311">
        <ele>167</ele>
        <time>2025-07-17T08:53:24.071Z</time>
      </trkpt>
      <trkpt lat="44.39401" lon="1.01309">
        <ele>166</ele>
        <time>2025-07-17T08:53:25.071Z</time>
      </trkpt>
      <trkpt lat="44.39402" lon="1.01308">
        <ele>166</ele>
        <time>2025-07-17T08:53:26.071Z</time>
      </trkpt>
      <trkpt lat="44.39402" lon="1.01307">
        <ele>166</ele>
        <time>2025-07-17T08:53:27.071Z</time>
      </trkpt>
      <trkpt lat="44.39403" lon="1.01305">
        <ele>166</ele>
        <time>2025-07-17T08:53:28.071Z</time>
      </trkpt>
      <trkpt lat="44.39403" lon="1.01304">
        <ele>166</ele>
        <time>2025-07-17T08:53:29.071Z</time>
      </trkpt>
      <trkpt lat="44.39404" lon="1.01303">
        <ele>166</ele>
        <time>2025-07-17T08:53:30.071Z</time>
      </trkpt>
      <trkpt lat="44.39405" lon="1.01301">
        <ele>166</ele>
        <time>2025-07-17T08:53:31.071Z</time>
      </trkpt>
      <trkpt lat="44.39405" lon="1.013">
        <ele>166</ele>
        <time>2025-07-17T08:53:32.071Z</time>
      </trkpt>
      <trkpt lat="44.39406" lon="1.01298">
        <ele>166</ele>
        <time>2025-07-17T08:53:33.071Z</time>
      </trkpt>
      <trkpt lat="44.39406" lon="1.01297">
        <ele>166</ele>
        <time>2025-07-17T08:53:34.071Z</time>
      </trkpt>
      <trkpt lat="44.39406" lon="1.01296">
        <ele>166</ele>
        <time>2025-07-17T08:53:35.071Z</time>
      </trkpt>
      <trkpt lat="44.39406" lon="1.01295">
        <ele>166</ele>
        <time>2025-07-17T08:53:36.071Z</time>
      </trkpt>
      <trkpt lat="44.39407" lon="1.01293">
        <ele>166</ele>
        <time>2025-07-17T08:53:37.071Z</time>
      </trkpt>
      <trkpt lat="44.39407" lon="1.01292">
        <ele>166</ele>
        <time>2025-07-17T08:53:38.071Z</time>
      </trkpt>
      <trkpt lat="44.39408" lon="1.0129">
        <ele>167</ele>
        <time>2025-07-17T08:53:39.071Z</time>
      </trkpt>
      <trkpt lat="44.39408" lon="1.01289">
        <ele>166</ele>
        <time>2025-07-17T08:53:40.071Z</time>
      </trkpt>
      <trkpt lat="44.39409" lon="1.01288">
        <ele>166</ele>
        <time>2025-07-17T08:53:41.071Z</time>
      </trkpt>
      <trkpt lat="44.3941" lon="1.01286">
        <ele>166</ele>
        <time>2025-07-17T08:53:42.071Z</time>
      </trkpt>
      <trkpt lat="44.3941" lon="1.01284">
        <ele>166</ele>
        <time>2025-07-17T08:53:43.071Z</time>
      </trkpt>
      <trkpt lat="44.39411" lon="1.01282">
        <ele>166</ele>
        <time>2025-07-17T08:53:44.071Z</time>
      </trkpt>
      <trkpt lat="44.39412" lon="1.01281">
        <ele>166</ele>
        <time>2025-07-17T08:53:45.071Z</time>
      </trkpt>
      <trkpt lat="44.39412" lon="1.01279">
        <ele>166</ele>
        <time>2025-07-17T08:53:46.071Z</time>
      </trkpt>
      <trkpt lat="44.39413" lon="1.01277">
        <ele>166</ele>
        <time>2025-07-17T08:53:47.071Z</time>
      </trkpt>
      <trkpt lat="44.39414" lon="1.01275">
        <ele>165</ele>
        <time>2025-07-17T08:53:48.071Z</time>
      </trkpt>
      <trkpt lat="44.39414" lon="1.01274">
        <ele>164</ele>
        <time>2025-07-17T08:53:49.071Z</time>
      </trkpt>
      <trkpt lat="44.39415" lon="1.01272">
        <ele>164</ele>
        <time>2025-07-17T08:53:50.071Z</time>
      </trkpt>
      <trkpt lat="44.39415" lon="1.0127">
        <ele>164</ele>
        <time>2025-07-17T08:53:51.071Z</time>
      </trkpt>
      <trkpt lat="44.39416" lon="1.01269">
        <ele>164</ele>
        <time>2025-07-17T08:53:52.071Z</time>
      </trkpt>
      <trkpt lat="44.39416" lon="1.01268">
        <ele>164</ele>
        <time>2025-07-17T08:53:53.071Z</time>
      </trkpt>
      <trkpt lat="44.39417" lon="1.01266">
        <ele>163</ele>
        <time>2025-07-17T08:53:54.071Z</time>
      </trkpt>
      <trkpt lat="44.39418" lon="1.01264">
        <ele>163</ele>
        <time>2025-07-17T08:53:55.071Z</time>
      </trkpt>
      <trkpt lat="44.39418" lon="1.01263">
        <ele>163</ele>
        <time>2025-07-17T08:53:56.071Z</time>
      </trkpt>
      <trkpt lat="44.39419" lon="1.01261">
        <ele>163</ele>
        <time>2025-07-17T08:53:57.071Z</time>
      </trkpt>
      <trkpt lat="44.39419" lon="1.01259">
        <ele>163</ele>
        <time>2025-07-17T08:53:58.071Z</time>
      </trkpt>
      <trkpt lat="44.3942" lon="1.01257">
        <ele>163</ele>
        <time>2025-07-17T08:53:59.071Z</time>
      </trkpt>
      <trkpt lat="44.39421" lon="1.01255">
        <ele>164</ele>
        <time>2025-07-17T08:54:00.071Z</time>
      </trkpt>
      <trkpt lat="44.39421" lon="1.01254">
        <ele>164</ele>
        <time>2025-07-17T08:54:01.071Z</time>
      </trkpt>
      <trkpt lat="44.39422" lon="1.01252">
        <ele>164</ele>
        <time>2025-07-17T08:54:02.071Z</time>
      </trkpt>
      <trkpt lat="44.39422" lon="1.0125">
        <ele>164</ele>
        <time>2025-07-17T08:54:03.071Z</time>
      </trkpt>
      <trkpt lat="44.39423" lon="1.01249">
        <ele>164</ele>
        <time>2025-07-17T08:54:04.071Z</time>
      </trkpt>
      <trkpt lat="44.39423" lon="1.01247">
        <ele>164</ele>
        <time>2025-07-17T08:54:05.071Z</time>
      </trkpt>
      <trkpt lat="44.39424" lon="1.01246">
        <ele>164</ele>
        <time>2025-07-17T08:54:06.071Z</time>
      </trkpt>
      <trkpt lat="44.39424" lon="1.01244">
        <ele>164</ele>
        <time>2025-07-17T08:54:07.071Z</time>
      </trkpt>
      <trkpt lat="44.39424" lon="1.01243">
        <ele>164</ele>
        <time>2025-07-17T08:54:08.071Z</time>
      </trkpt>
      <trkpt lat="44.39425" lon="1.01241">
        <ele>164</ele>
        <time>2025-07-17T08:54:09.071Z</time>
      </trkpt>
      <trkpt lat="44.39425" lon="1.0124">
        <ele>164</ele>
        <time>2025-07-17T08:54:10.071Z</time>
      </trkpt>
      <trkpt lat="44.39426" lon="1.01238">
        <ele>164</ele>
        <time>2025-07-17T08:54:11.071Z</time>
      </trkpt>
      <trkpt lat="44.39426" lon="1.01236">
        <ele>164</ele>
        <time>2025-07-17T08:54:12.071Z</time>
      </trkpt>
      <trkpt lat="44.39427" lon="1.01234">
        <ele>163</ele>
        <time>2025-07-17T08:54:13.071Z</time>
      </trkpt>
      <trkpt lat="44.39427" lon="1.01232">
        <ele>163</ele>
        <time>2025-07-17T08:54:14.071Z</time>
      </trkpt>
      <trkpt lat="44.39428" lon="1.0123">
        <ele>163</ele>
        <time>2025-07-17T08:54:15.071Z</time>
      </trkpt>
      <trkpt lat="44.39428" lon="1.01228">
        <ele>163</ele>
        <time>2025-07-17T08:54:16.071Z</time>
      </trkpt>
      <trkpt lat="44.39428" lon="1.01227">
        <ele>164</ele>
        <time>2025-07-17T08:54:17.071Z</time>
      </trkpt>
      <trkpt lat="44.39429" lon="1.01225">
        <ele>164</ele>
        <time>2025-07-17T08:54:18.071Z</time>
      </trkpt>
      <trkpt lat="44.39429" lon="1.01224">
        <ele>164</ele>
        <time>2025-07-17T08:54:19.071Z</time>
      </trkpt>
      <trkpt lat="44.3943" lon="1.01222">
        <ele>164</ele>
        <time>2025-07-17T08:54:20.071Z</time>
      </trkpt>
      <trkpt lat="44.3943" lon="1.0122">
        <ele>164</ele>
        <time>2025-07-17T08:54:21.071Z</time>
      </trkpt>
      <trkpt lat="44.39431" lon="1.01219">
        <ele>164</ele>
        <time>2025-07-17T08:54:22.071Z</time>
      </trkpt>
      <trkpt lat="44.39431" lon="1.01217">
        <ele>164</ele>
        <time>2025-07-17T08:54:23.071Z</time>
      </trkpt>
      <trkpt lat="44.39431" lon="1.01215">
        <ele>164</ele>
        <time>2025-07-17T08:54:24.071Z</time>
      </trkpt>
      <trkpt lat="44.39432" lon="1.01214">
        <ele>164</ele>
        <time>2025-07-17T08:54:25.071Z</time>
      </trkpt>
      <trkpt lat="44.39432" lon="1.01212">
        <ele>164</ele>
        <time>2025-07-17T08:54:26.071Z</time>
      </trkpt>
      <trkpt lat="44.39433" lon="1.01211">
        <ele>164</ele>
        <time>2025-07-17T08:54:27.071Z</time>
      </trkpt>
      <trkpt lat="44.39434" lon="1.01209">
        <ele>164</ele>
        <time>2025-07-17T08:54:28.071Z</time>
      </trkpt>
      <trkpt lat="44.39434" lon="1.01208">
        <ele>164</ele>
        <time>2025-07-17T08:54:29.072Z</time>
      </trkpt>
      <trkpt lat="44.39435" lon="1.01206">
        <ele>163</ele>
        <time>2025-07-17T08:54:30.071Z</time>
      </trkpt>
      <trkpt lat="44.39435" lon="1.01205">
        <ele>163</ele>
        <time>2025-07-17T08:54:31.071Z</time>
      </trkpt>
      <trkpt lat="44.39436" lon="1.01203">
        <ele>162</ele>
        <time>2025-07-17T08:54:32.071Z</time>
      </trkpt>
      <trkpt lat="44.39436" lon="1.01202">
        <ele>162</ele>
        <time>2025-07-17T08:54:33.071Z</time>
      </trkpt>
      <trkpt lat="44.39437" lon="1.012">
        <ele>162</ele>
        <time>2025-07-17T08:54:34.071Z</time>
      </trkpt>
      <trkpt lat="44.39437" lon="1.01199">
        <ele>162</ele>
        <time>2025-07-17T08:54:35.071Z</time>
      </trkpt>
      <trkpt lat="44.39438" lon="1.01197">
        <ele>162</ele>
        <time>2025-07-17T08:54:36.071Z</time>
      </trkpt>
      <trkpt lat="44.39438" lon="1.01195">
        <ele>162</ele>
        <time>2025-07-17T08:54:37.072Z</time>
      </trkpt>
      <trkpt lat="44.39439" lon="1.01193">
        <ele>162</ele>
        <time>2025-07-17T08:54:38.071Z</time>
      </trkpt>
      <trkpt lat="44.39439" lon="1.01191">
        <ele>162</ele>
        <time>2025-07-17T08:54:39.071Z</time>
      </trkpt>
      <trkpt lat="44.3944" lon="1.01189">
        <ele>162</ele>
        <time>2025-07-17T08:54:40.071Z</time>
      </trkpt>
      <trkpt lat="44.3944" lon="1.01188">
        <ele>162</ele>
        <time>2025-07-17T08:54:41.071Z</time>
      </trkpt>
      <trkpt lat="44.39441" lon="1.01186">
        <ele>162</ele>
        <time>2025-07-17T08:54:42.071Z</time>
      </trkpt>
      <trkpt lat="44.39441" lon="1.01184">
        <ele>163</ele>
        <time>2025-07-17T08:54:43.071Z</time>
      </trkpt>
      <trkpt lat="44.39442" lon="1.01182">
        <ele>162</ele>
        <time>2025-07-17T08:54:44.071Z</time>
      </trkpt>
      <trkpt lat="44.39442" lon="1.0118">
        <ele>162</ele>
        <time>2025-07-17T08:54:45.071Z</time>
      </trkpt>
      <trkpt lat="44.39442" lon="1.01179">
        <ele>162</ele>
        <time>2025-07-17T08:54:46.071Z</time>
      </trkpt>
      <trkpt lat="44.39443" lon="1.01177">
        <ele>162</ele>
        <time>2025-07-17T08:54:47.071Z</time>
      </trkpt>
      <trkpt lat="44.39443" lon="1.01176">
        <ele>162</ele>
        <time>2025-07-17T08:54:48.071Z</time>
      </trkpt>
      <trkpt lat="44.39444" lon="1.01174">
        <ele>162</ele>
        <time>2025-07-17T08:54:49.071Z</time>
      </trkpt>
      <trkpt lat="44.39445" lon="1.01173">
        <ele>161</ele>
        <time>2025-07-17T08:54:50.071Z</time>
      </trkpt>
      <trkpt lat="44.39445" lon="1.01171">
        <ele>161</ele>
        <time>2025-07-17T08:54:51.071Z</time>
      </trkpt>
      <trkpt lat="44.39446" lon="1.01169">
        <ele>162</ele>
        <time>2025-07-17T08:54:52.071Z</time>
      </trkpt>
      <trkpt lat="44.39446" lon="1.01167">
        <ele>162</ele>
        <time>2025-07-17T08:54:53.071Z</time>
      </trkpt>
      <trkpt lat="44.39446" lon="1.01165">
        <ele>162</ele>
        <time>2025-07-17T08:54:54.071Z</time>
      </trkpt>
      <trkpt lat="44.39447" lon="1.01163">
        <ele>163</ele>
        <time>2025-07-17T08:54:55.071Z</time>
      </trkpt>
      <trkpt lat="44.39448" lon="1.01162">
        <ele>163</ele>
        <time>2025-07-17T08:54:56.071Z</time>
      </trkpt>
      <trkpt lat="44.39448" lon="1.0116">
        <ele>162</ele>
        <time>2025-07-17T08:54:57.071Z</time>
      </trkpt>
      <trkpt lat="44.39449" lon="1.01159">
        <ele>162</ele>
        <time>2025-07-17T08:54:58.071Z</time>
      </trkpt>
      <trkpt lat="44.3945" lon="1.01158">
        <ele>162</ele>
        <time>2025-07-17T08:54:59.071Z</time>
      </trkpt>
      <trkpt lat="44.3945" lon="1.01156">
        <ele>162</ele>
        <time>2025-07-17T08:55:00.071Z</time>
      </trkpt>
      <trkpt lat="44.39451" lon="1.01155">
        <ele>162</ele>
        <time>2025-07-17T08:55:01.071Z</time>
      </trkpt>
      <trkpt lat="44.39451" lon="1.01153">
        <ele>162</ele>
        <time>2025-07-17T08:55:02.071Z</time>
      </trkpt>
      <trkpt lat="44.39452" lon="1.01152">
        <ele>162</ele>
        <time>2025-07-17T08:55:03.071Z</time>
      </trkpt>
      <trkpt lat="44.39452" lon="1.0115">
        <ele>162</ele>
        <time>2025-07-17T08:55:04.071Z</time>
      </trkpt>
      <trkpt lat="44.39453" lon="1.01149">
        <ele>162</ele>
        <time>2025-07-17T08:55:05.071Z</time>
      </trkpt>
      <trkpt lat="44.39453" lon="1.01147">
        <ele>162</ele>
        <time>2025-07-17T08:55:06.071Z</time>
      </trkpt>
      <trkpt lat="44.39453" lon="1.01146">
        <ele>162</ele>
        <time>2025-07-17T08:55:07.071Z</time>
      </trkpt>
      <trkpt lat="44.39454" lon="1.01145">
        <ele>162</ele>
        <time>2025-07-17T08:55:08.071Z</time>
      </trkpt>
      <trkpt lat="44.39454" lon="1.01143">
        <ele>161</ele>
        <time>2025-07-17T08:55:09.071Z</time>
      </trkpt>
      <trkpt lat="44.39454" lon="1.01142">
        <ele>161</ele>
        <time>2025-07-17T08:55:10.071Z</time>
      </trkpt>
      <trkpt lat="44.39454" lon="1.0114">
        <ele>161</ele>
        <time>2025-07-17T08:55:11.071Z</time>
      </trkpt>
      <trkpt lat="44.39455" lon="1.01138">
        <ele>161</ele>
        <time>2025-07-17T08:55:12.071Z</time>
      </trkpt>
      <trkpt lat="44.39455" lon="1.01137">
        <ele>161</ele>
        <time>2025-07-17T08:55:13.071Z</time>
      </trkpt>
      <trkpt lat="44.39455" lon="1.01135">
        <ele>162</ele>
        <time>2025-07-17T08:55:14.071Z</time>
      </trkpt>
      <trkpt lat="44.39456" lon="1.01134">
        <ele>162</ele>
        <time>2025-07-17T08:55:15.071Z</time>
      </trkpt>
      <trkpt lat="44.39456" lon="1.01132">
        <ele>162</ele>
        <time>2025-07-17T08:55:16.071Z</time>
      </trkpt>
      <trkpt lat="44.39457" lon="1.0113">
        <ele>162</ele>
        <time>2025-07-17T08:55:17.071Z</time>
      </trkpt>
      <trkpt lat="44.39457" lon="1.01129">
        <ele>162</ele>
        <time>2025-07-17T08:55:18.071Z</time>
      </trkpt>
      <trkpt lat="44.39458" lon="1.01127">
        <ele>161</ele>
        <time>2025-07-17T08:55:19.071Z</time>
      </trkpt>
      <trkpt lat="44.39458" lon="1.01125">
        <ele>161</ele>
        <time>2025-07-17T08:55:20.071Z</time>
      </trkpt>
      <trkpt lat="44.39458" lon="1.01124">
        <ele>161</ele>
        <time>2025-07-17T08:55:21.071Z</time>
      </trkpt>
      <trkpt lat="44.39459" lon="1.01123">
        <ele>161</ele>
        <time>2025-07-17T08:55:22.071Z</time>
      </trkpt>
      <trkpt lat="44.39459" lon="1.01122">
        <ele>161</ele>
        <time>2025-07-17T08:55:23.071Z</time>
      </trkpt>
      <trkpt lat="44.39459" lon="1.01121">
        <ele>160</ele>
        <time>2025-07-17T08:55:24.071Z</time>
      </trkpt>
      <trkpt lat="44.39459" lon="1.01121">
        <ele>160</ele>
        <time>2025-07-17T08:55:25.071Z</time>
      </trkpt>
      <trkpt lat="44.39459" lon="1.01121">
        <ele>160</ele>
        <time>2025-07-17T08:55:26.071Z</time>
      </trkpt>
      <trkpt lat="44.39459" lon="1.01121">
        <ele>159</ele>
        <time>2025-07-17T08:55:27.071Z</time>
      </trkpt>
      <trkpt lat="44.39459" lon="1.01121">
        <ele>159</ele>
        <time>2025-07-17T08:55:28.071Z</time>
      </trkpt>
      <trkpt lat="44.39459" lon="1.01121">
        <ele>158</ele>
        <time>2025-07-17T08:55:29.071Z</time>
      </trkpt>
      <trkpt lat="44.39459" lon="1.01121">
        <ele>158</ele>
        <time>2025-07-17T08:55:30.071Z</time>
      </trkpt>
      <trkpt lat="44.39459" lon="1.01121">
        <ele>158</ele>
        <time>2025-07-17T08:55:31.071Z</time>
      </trkpt>
      <trkpt lat="44.39459" lon="1.01121">
        <ele>158</ele>
        <time>2025-07-17T08:55:32.071Z</time>
      </trkpt>
      <trkpt lat="44.39459" lon="1.01121">
        <ele>158</ele>
        <time>2025-07-17T08:55:33.072Z</time>
      </trkpt>
      <trkpt lat="44.39459" lon="1.01121">
        <ele>159</ele>
        <time>2025-07-17T08:55:34.071Z</time>
      </trkpt>
      <trkpt lat="44.39459" lon="1.01121">
        <ele>159</ele>
        <time>2025-07-17T08:55:35.071Z</time>
      </trkpt>
      <trkpt lat="44.39459" lon="1.01121">
        <ele>159</ele>
        <time>2025-07-17T08:55:36.071Z</time>
      </trkpt>
      <trkpt lat="44.3946" lon="1.01121">
        <ele>160</ele>
        <time>2025-07-17T08:55:37.071Z</time>
      </trkpt>
      <trkpt lat="44.3946" lon="1.01121">
        <ele>160</ele>
        <time>2025-07-17T08:55:38.071Z</time>
      </trkpt>
      <trkpt lat="44.3946" lon="1.0112">
        <ele>160</ele>
        <time>2025-07-17T08:55:39.071Z</time>
      </trkpt>
      <trkpt lat="44.3946" lon="1.01119">
        <ele>160</ele>
        <time>2025-07-17T08:55:40.071Z</time>
      </trkpt>
      <trkpt lat="44.3946" lon="1.01118">
        <ele>160</ele>
        <time>2025-07-17T08:55:41.071Z</time>
      </trkpt>
      <trkpt lat="44.39461" lon="1.01117">
        <ele>160</ele>
        <time>2025-07-17T08:55:42.071Z</time>
      </trkpt>
      <trkpt lat="44.39461" lon="1.01115">
        <ele>160</ele>
        <time>2025-07-17T08:55:43.071Z</time>
      </trkpt>
      <trkpt lat="44.39462" lon="1.01114">
        <ele>160</ele>
        <time>2025-07-17T08:55:44.071Z</time>
      </trkpt>
      <trkpt lat="44.39462" lon="1.01112">
        <ele>160</ele>
        <time>2025-07-17T08:55:45.071Z</time>
      </trkpt>
      <trkpt lat="44.39463" lon="1.0111">
        <ele>160</ele>
        <time>2025-07-17T08:55:46.071Z</time>
      </trkpt>
      <trkpt lat="44.39463" lon="1.01109">
        <ele>160</ele>
        <time>2025-07-17T08:55:47.071Z</time>
      </trkpt>
      <trkpt lat="44.39464" lon="1.01108">
        <ele>160</ele>
        <time>2025-07-17T08:55:48.071Z</time>
      </trkpt>
      <trkpt lat="44.39464" lon="1.01106">
        <ele>160</ele>
        <time>2025-07-17T08:55:49.071Z</time>
      </trkpt>
      <trkpt lat="44.39465" lon="1.01105">
        <ele>160</ele>
        <time>2025-07-17T08:55:50.071Z</time>
      </trkpt>
      <trkpt lat="44.39465" lon="1.01103">
        <ele>160</ele>
        <time>2025-07-17T08:55:51.071Z</time>
      </trkpt>
      <trkpt lat="44.39466" lon="1.01102">
        <ele>160</ele>
        <time>2025-07-17T08:55:52.071Z</time>
      </trkpt>
      <trkpt lat="44.39466" lon="1.011">
        <ele>160</ele>
        <time>2025-07-17T08:55:53.071Z</time>
      </trkpt>
      <trkpt lat="44.39467" lon="1.01098">
        <ele>160</ele>
        <time>2025-07-17T08:55:54.071Z</time>
      </trkpt>
      <trkpt lat="44.39468" lon="1.01097">
        <ele>160</ele>
        <time>2025-07-17T08:55:55.071Z</time>
      </trkpt>
      <trkpt lat="44.39468" lon="1.01095">
        <ele>160</ele>
        <time>2025-07-17T08:55:56.071Z</time>
      </trkpt>
      <trkpt lat="44.39469" lon="1.01093">
        <ele>160</ele>
        <time>2025-07-17T08:55:57.071Z</time>
      </trkpt>
      <trkpt lat="44.39469" lon="1.01091">
        <ele>160</ele>
        <time>2025-07-17T08:55:58.071Z</time>
      </trkpt>
      <trkpt lat="44.39469" lon="1.01089">
        <ele>159</ele>
        <time>2025-07-17T08:55:59.071Z</time>
      </trkpt>
      <trkpt lat="44.39469" lon="1.01088">
        <ele>159</ele>
        <time>2025-07-17T08:56:00.071Z</time>
      </trkpt>
      <trkpt lat="44.3947" lon="1.01086">
        <ele>159</ele>
        <time>2025-07-17T08:56:01.071Z</time>
      </trkpt>
      <trkpt lat="44.3947" lon="1.01085">
        <ele>159</ele>
        <time>2025-07-17T08:56:02.071Z</time>
      </trkpt>
      <trkpt lat="44.39471" lon="1.01083">
        <ele>158</ele>
        <time>2025-07-17T08:56:03.071Z</time>
      </trkpt>
      <trkpt lat="44.39471" lon="1.01082">
        <ele>158</ele>
        <time>2025-07-17T08:56:04.071Z</time>
      </trkpt>
      <trkpt lat="44.39472" lon="1.01081">
        <ele>158</ele>
        <time>2025-07-17T08:56:05.071Z</time>
      </trkpt>
      <trkpt lat="44.39472" lon="1.01079">
        <ele>158</ele>
        <time>2025-07-17T08:56:06.071Z</time>
      </trkpt>
      <trkpt lat="44.39473" lon="1.01078">
        <ele>158</ele>
        <time>2025-07-17T08:56:07.071Z</time>
      </trkpt>
      <trkpt lat="44.39473" lon="1.01076">
        <ele>158</ele>
        <time>2025-07-17T08:56:08.071Z</time>
      </trkpt>
      <trkpt lat="44.39474" lon="1.01074">
        <ele>158</ele>
        <time>2025-07-17T08:56:09.071Z</time>
      </trkpt>
      <trkpt lat="44.39475" lon="1.01072">
        <ele>158</ele>
        <time>2025-07-17T08:56:10.071Z</time>
      </trkpt>
      <trkpt lat="44.39476" lon="1.0107">
        <ele>158</ele>
        <time>2025-07-17T08:56:11.071Z</time>
      </trkpt>
      <trkpt lat="44.39476" lon="1.01068">
        <ele>158</ele>
        <time>2025-07-17T08:56:12.071Z</time>
      </trkpt>
      <trkpt lat="44.39477" lon="1.01066">
        <ele>158</ele>
        <time>2025-07-17T08:56:13.071Z</time>
      </trkpt>
      <trkpt lat="44.39478" lon="1.01064">
        <ele>158</ele>
        <time>2025-07-17T08:56:14.071Z</time>
      </trkpt>
      <trkpt lat="44.39478" lon="1.01062">
        <ele>158</ele>
        <time>2025-07-17T08:56:15.071Z</time>
      </trkpt>
      <trkpt lat="44.39479" lon="1.01061">
        <ele>158</ele>
        <time>2025-07-17T08:56:16.071Z</time>
      </trkpt>
      <trkpt lat="44.39479" lon="1.01059">
        <ele>158</ele>
        <time>2025-07-17T08:56:17.071Z</time>
      </trkpt>
      <trkpt lat="44.3948" lon="1.01057">
        <ele>158</ele>
        <time>2025-07-17T08:56:18.071Z</time>
      </trkpt>
      <trkpt lat="44.3948" lon="1.01056">
        <ele>158</ele>
        <time>2025-07-17T08:56:19.071Z</time>
      </trkpt>
      <trkpt lat="44.39481" lon="1.01054">
        <ele>158</ele>
        <time>2025-07-17T08:56:20.071Z</time>
      </trkpt>
      <trkpt lat="44.39481" lon="1.01052">
        <ele>158</ele>
        <time>2025-07-17T08:56:21.071Z</time>
      </trkpt>
      <trkpt lat="44.39482" lon="1.01051">
        <ele>158</ele>
        <time>2025-07-17T08:56:22.071Z</time>
      </trkpt>
      <trkpt lat="44.39482" lon="1.01049">
        <ele>157</ele>
        <time>2025-07-17T08:56:23.071Z</time>
      </trkpt>
      <trkpt lat="44.39483" lon="1.01047">
        <ele>157</ele>
        <time>2025-07-17T08:56:24.071Z</time>
      </trkpt>
      <trkpt lat="44.39483" lon="1.01045">
        <ele>157</ele>
        <time>2025-07-17T08:56:25.071Z</time>
      </trkpt>
      <trkpt lat="44.39484" lon="1.01044">
        <ele>157</ele>
        <time>2025-07-17T08:56:26.072Z</time>
      </trkpt>
      <trkpt lat="44.39485" lon="1.01042">
        <ele>157</ele>
        <time>2025-07-17T08:56:27.071Z</time>
      </trkpt>
      <trkpt lat="44.39486" lon="1.0104">
        <ele>157</ele>
        <time>2025-07-17T08:56:28.071Z</time>
      </trkpt>
      <trkpt lat="44.39487" lon="1.01038">
        <ele>157</ele>
        <time>2025-07-17T08:56:29.071Z</time>
      </trkpt>
      <trkpt lat="44.39487" lon="1.01036">
        <ele>157</ele>
        <time>2025-07-17T08:56:30.071Z</time>
      </trkpt>
      <trkpt lat="44.39488" lon="1.01034">
        <ele>156</ele>
        <time>2025-07-17T08:56:31.071Z</time>
      </trkpt>
      <trkpt lat="44.39489" lon="1.01032">
        <ele>156</ele>
        <time>2025-07-17T08:56:32.071Z</time>
      </trkpt>
      <trkpt lat="44.39489" lon="1.0103">
        <ele>156</ele>
        <time>2025-07-17T08:56:33.071Z</time>
      </trkpt>
      <trkpt lat="44.3949" lon="1.01028">
        <ele>156</ele>
        <time>2025-07-17T08:56:34.071Z</time>
      </trkpt>
      <trkpt lat="44.3949" lon="1.01026">
        <ele>156</ele>
        <time>2025-07-17T08:56:35.071Z</time>
      </trkpt>
      <trkpt lat="44.39491" lon="1.01024">
        <ele>156</ele>
        <time>2025-07-17T08:56:36.071Z</time>
      </trkpt>
      <trkpt lat="44.39491" lon="1.01022">
        <ele>157</ele>
        <time>2025-07-17T08:56:37.071Z</time>
      </trkpt>
      <trkpt lat="44.39491" lon="1.0102">
        <ele>158</ele>
        <time>2025-07-17T08:56:38.071Z</time>
      </trkpt>
      <trkpt lat="44.39491" lon="1.01019">
        <ele>158</ele>
        <time>2025-07-17T08:56:39.071Z</time>
      </trkpt>
      <trkpt lat="44.39492" lon="1.01017">
        <ele>159</ele>
        <time>2025-07-17T08:56:40.071Z</time>
      </trkpt>
      <trkpt lat="44.39492" lon="1.01016">
        <ele>160</ele>
        <time>2025-07-17T08:56:41.071Z</time>
      </trkpt>
      <trkpt lat="44.39492" lon="1.01014">
        <ele>160</ele>
        <time>2025-07-17T08:56:42.071Z</time>
      </trkpt>
      <trkpt lat="44.39492" lon="1.01012">
        <ele>160</ele>
        <time>2025-07-17T08:56:43.071Z</time>
      </trkpt>
      <trkpt lat="44.39493" lon="1.0101">
        <ele>160</ele>
        <time>2025-07-17T08:56:44.071Z</time>
      </trkpt>
      <trkpt lat="44.39493" lon="1.01009">
        <ele>160</ele>
        <time>2025-07-17T08:56:45.071Z</time>
      </trkpt>
      <trkpt lat="44.39493" lon="1.01007">
        <ele>160</ele>
        <time>2025-07-17T08:56:46.071Z</time>
      </trkpt>
      <trkpt lat="44.39494" lon="1.01006">
        <ele>159</ele>
        <time>2025-07-17T08:56:47.071Z</time>
      </trkpt>
      <trkpt lat="44.39494" lon="1.01004">
        <ele>159</ele>
        <time>2025-07-17T08:56:48.071Z</time>
      </trkpt>
      <trkpt lat="44.39495" lon="1.01003">
        <ele>158</ele>
        <time>2025-07-17T08:56:49.071Z</time>
      </trkpt>
      <trkpt lat="44.39495" lon="1.01001">
        <ele>158</ele>
        <time>2025-07-17T08:56:50.071Z</time>
      </trkpt>
      <trkpt lat="44.39496" lon="1.01">
        <ele>158</ele>
        <time>2025-07-17T08:56:51.071Z</time>
      </trkpt>
      <trkpt lat="44.39496" lon="1.00998">
        <ele>157</ele>
        <time>2025-07-17T08:56:52.071Z</time>
      </trkpt>
      <trkpt lat="44.39497" lon="1.00997">
        <ele>157</ele>
        <time>2025-07-17T08:56:53.072Z</time>
      </trkpt>
      <trkpt lat="44.39498" lon="1.00995">
        <ele>157</ele>
        <time>2025-07-17T08:56:54.072Z</time>
      </trkpt>
      <trkpt lat="44.39498" lon="1.00993">
        <ele>156</ele>
        <time>2025-07-17T08:56:55.071Z</time>
      </trkpt>
      <trkpt lat="44.39499" lon="1.00992">
        <ele>156</ele>
        <time>2025-07-17T08:56:56.071Z</time>
      </trkpt>
      <trkpt lat="44.395" lon="1.00991">
        <ele>156</ele>
        <time>2025-07-17T08:56:57.071Z</time>
      </trkpt>
      <trkpt lat="44.395" lon="1.00989">
        <ele>156</ele>
        <time>2025-07-17T08:56:58.071Z</time>
      </trkpt>
      <trkpt lat="44.39501" lon="1.00988">
        <ele>156</ele>
        <time>2025-07-17T08:56:59.071Z</time>
      </trkpt>
      <trkpt lat="44.39501" lon="1.00986">
        <ele>156</ele>
        <time>2025-07-17T08:57:00.071Z</time>
      </trkpt>
      <trkpt lat="44.39502" lon="1.00984">
        <ele>157</ele>
        <time>2025-07-17T08:57:01.071Z</time>
      </trkpt>
      <trkpt lat="44.39503" lon="1.00983">
        <ele>157</ele>
        <time>2025-07-17T08:57:02.071Z</time>
      </trkpt>
      <trkpt lat="44.39503" lon="1.00981">
        <ele>157</ele>
        <time>2025-07-17T08:57:03.071Z</time>
      </trkpt>
      <trkpt lat="44.39504" lon="1.0098">
        <ele>157</ele>
        <time>2025-07-17T08:57:04.071Z</time>
      </trkpt>
      <trkpt lat="44.39505" lon="1.00978">
        <ele>157</ele>
        <time>2025-07-17T08:57:05.071Z</time>
      </trkpt>
      <trkpt lat="44.39505" lon="1.00976">
        <ele>157</ele>
        <time>2025-07-17T08:57:06.071Z</time>
      </trkpt>
      <trkpt lat="44.39506" lon="1.00975">
        <ele>158</ele>
        <time>2025-07-17T08:57:07.071Z</time>
      </trkpt>
      <trkpt lat="44.39507" lon="1.00974">
        <ele>158</ele>
        <time>2025-07-17T08:57:08.072Z</time>
      </trkpt>
      <trkpt lat="44.39507" lon="1.00973">
        <ele>158</ele>
        <time>2025-07-17T08:57:09.071Z</time>
      </trkpt>
      <trkpt lat="44.39508" lon="1.00971">
        <ele>159</ele>
        <time>2025-07-17T08:57:10.071Z</time>
      </trkpt>
      <trkpt lat="44.39509" lon="1.00969">
        <ele>159</ele>
        <time>2025-07-17T08:57:11.071Z</time>
      </trkpt>
      <trkpt lat="44.39509" lon="1.00967">
        <ele>159</ele>
        <time>2025-07-17T08:57:12.071Z</time>
      </trkpt>
      <trkpt lat="44.3951" lon="1.00966">
        <ele>159</ele>
        <time>2025-07-17T08:57:13.071Z</time>
      </trkpt>
      <trkpt lat="44.3951" lon="1.00964">
        <ele>159</ele>
        <time>2025-07-17T08:57:14.071Z</time>
      </trkpt>
      <trkpt lat="44.3951" lon="1.00963">
        <ele>159</ele>
        <time>2025-07-17T08:57:15.071Z</time>
      </trkpt>
      <trkpt lat="44.3951" lon="1.00961">
        <ele>158</ele>
        <time>2025-07-17T08:57:16.071Z</time>
      </trkpt>
      <trkpt lat="44.39511" lon="1.0096">
        <ele>159</ele>
        <time>2025-07-17T08:57:17.071Z</time>
      </trkpt>
      <trkpt lat="44.39511" lon="1.00959">
        <ele>158</ele>
        <time>2025-07-17T08:57:18.071Z</time>
      </trkpt>
      <trkpt lat="44.39511" lon="1.00957">
        <ele>158</ele>
        <time>2025-07-17T08:57:19.071Z</time>
      </trkpt>
      <trkpt lat="44.39512" lon="1.00956">
        <ele>158</ele>
        <time>2025-07-17T08:57:20.071Z</time>
      </trkpt>
      <trkpt lat="44.39512" lon="1.00954">
        <ele>158</ele>
        <time>2025-07-17T08:57:21.071Z</time>
      </trkpt>
      <trkpt lat="44.39512" lon="1.00953">
        <ele>157</ele>
        <time>2025-07-17T08:57:22.071Z</time>
      </trkpt>
      <trkpt lat="44.39512" lon="1.00951">
        <ele>158</ele>
        <time>2025-07-17T08:57:23.071Z</time>
      </trkpt>
      <trkpt lat="44.39513" lon="1.0095">
        <ele>158</ele>
        <time>2025-07-17T08:57:24.071Z</time>
      </trkpt>
      <trkpt lat="44.39513" lon="1.00949">
        <ele>157</ele>
        <time>2025-07-17T08:57:25.071Z</time>
      </trkpt>
      <trkpt lat="44.39514" lon="1.00947">
        <ele>157</ele>
        <time>2025-07-17T08:57:26.071Z</time>
      </trkpt>
      <trkpt lat="44.39515" lon="1.00946">
        <ele>157</ele>
        <time>2025-07-17T08:57:27.071Z</time>
      </trkpt>
      <trkpt lat="44.39515" lon="1.00944">
        <ele>158</ele>
        <time>2025-07-17T08:57:28.071Z</time>
      </trkpt>
      <trkpt lat="44.39516" lon="1.00942">
        <ele>158</ele>
        <time>2025-07-17T08:57:29.071Z</time>
      </trkpt>
      <trkpt lat="44.39516" lon="1.0094">
        <ele>158</ele>
        <time>2025-07-17T08:57:30.071Z</time>
      </trkpt>
      <trkpt lat="44.39517" lon="1.00939">
        <ele>158</ele>
        <time>2025-07-17T08:57:31.071Z</time>
      </trkpt>
      <trkpt lat="44.39517" lon="1.00937">
        <ele>157</ele>
        <time>2025-07-17T08:57:32.071Z</time>
      </trkpt>
      <trkpt lat="44.39518" lon="1.00936">
        <ele>157</ele>
        <time>2025-07-17T08:57:33.071Z</time>
      </trkpt>
      <trkpt lat="44.39518" lon="1.00934">
        <ele>157</ele>
        <time>2025-07-17T08:57:34.071Z</time>
      </trkpt>
      <trkpt lat="44.39518" lon="1.00933">
        <ele>157</ele>
        <time>2025-07-17T08:57:35.071Z</time>
      </trkpt>
      <trkpt lat="44.39519" lon="1.00931">
        <ele>157</ele>
        <time>2025-07-17T08:57:36.071Z</time>
      </trkpt>
      <trkpt lat="44.39519" lon="1.00929">
        <ele>156</ele>
        <time>2025-07-17T08:57:37.071Z</time>
      </trkpt>
      <trkpt lat="44.39519" lon="1.00928">
        <ele>156</ele>
        <time>2025-07-17T08:57:38.071Z</time>
      </trkpt>
      <trkpt lat="44.3952" lon="1.00926">
        <ele>155</ele>
        <time>2025-07-17T08:57:39.071Z</time>
      </trkpt>
      <trkpt lat="44.3952" lon="1.00924">
        <ele>154</ele>
        <time>2025-07-17T08:57:40.071Z</time>
      </trkpt>
      <trkpt lat="44.39521" lon="1.00922">
        <ele>154</ele>
        <time>2025-07-17T08:57:41.071Z</time>
      </trkpt>
      <trkpt lat="44.39521" lon="1.0092">
        <ele>154</ele>
        <time>2025-07-17T08:57:42.071Z</time>
      </trkpt>
      <trkpt lat="44.39522" lon="1.00918">
        <ele>153</ele>
        <time>2025-07-17T08:57:43.071Z</time>
      </trkpt>
      <trkpt lat="44.39522" lon="1.00916">
        <ele>153</ele>
        <time>2025-07-17T08:57:44.071Z</time>
      </trkpt>
      <trkpt lat="44.39523" lon="1.00915">
        <ele>154</ele>
        <time>2025-07-17T08:57:45.071Z</time>
      </trkpt>
      <trkpt lat="44.39523" lon="1.00913">
        <ele>154</ele>
        <time>2025-07-17T08:57:46.071Z</time>
      </trkpt>
      <trkpt lat="44.39523" lon="1.00911">
        <ele>154</ele>
        <time>2025-07-17T08:57:47.071Z</time>
      </trkpt>
      <trkpt lat="44.39523" lon="1.0091">
        <ele>154</ele>
        <time>2025-07-17T08:57:48.071Z</time>
      </trkpt>
      <trkpt lat="44.39523" lon="1.00908">
        <ele>154</ele>
        <time>2025-07-17T08:57:49.071Z</time>
      </trkpt>
      <trkpt lat="44.39523" lon="1.00907">
        <ele>154</ele>
        <time>2025-07-17T08:57:50.071Z</time>
      </trkpt>
      <trkpt lat="44.39523" lon="1.00905">
        <ele>154</ele>
        <time>2025-07-17T08:57:51.071Z</time>
      </trkpt>
      <trkpt lat="44.39524" lon="1.00904">
        <ele>154</ele>
        <time>2025-07-17T08:57:52.071Z</time>
      </trkpt>
      <trkpt lat="44.39524" lon="1.00902">
        <ele>154</ele>
        <time>2025-07-17T08:57:53.071Z</time>
      </trkpt>
      <trkpt lat="44.39524" lon="1.00901">
        <ele>154</ele>
        <time>2025-07-17T08:57:54.071Z</time>
      </trkpt>
      <trkpt lat="44.39524" lon="1.009">
        <ele>154</ele>
        <time>2025-07-17T08:57:55.071Z</time>
      </trkpt>
      <trkpt lat="44.39525" lon="1.00898">
        <ele>154</ele>
        <time>2025-07-17T08:57:56.071Z</time>
      </trkpt>
      <trkpt lat="44.39525" lon="1.00897">
        <ele>154</ele>
        <time>2025-07-17T08:57:57.071Z</time>
      </trkpt>
      <trkpt lat="44.39525" lon="1.00896">
        <ele>153</ele>
        <time>2025-07-17T08:57:58.071Z</time>
      </trkpt>
      <trkpt lat="44.39525" lon="1.00895">
        <ele>153</ele>
        <time>2025-07-17T08:57:59.071Z</time>
      </trkpt>
      <trkpt lat="44.39524" lon="1.00893">
        <ele>154</ele>
        <time>2025-07-17T08:58:00.071Z</time>
      </trkpt>
      <trkpt lat="44.39524" lon="1.00892">
        <ele>154</ele>
        <time>2025-07-17T08:58:01.071Z</time>
      </trkpt>
      <trkpt lat="44.39524" lon="1.00891">
        <ele>154</ele>
        <time>2025-07-17T08:58:02.071Z</time>
      </trkpt>
      <trkpt lat="44.39523" lon="1.00889">
        <ele>154</ele>
        <time>2025-07-17T08:58:03.071Z</time>
      </trkpt>
      <trkpt lat="44.39523" lon="1.00889">
        <ele>154</ele>
        <time>2025-07-17T08:58:04.071Z</time>
      </trkpt>
      <trkpt lat="44.39522" lon="1.00888">
        <ele>154</ele>
        <time>2025-07-17T08:58:05.071Z</time>
      </trkpt>
      <trkpt lat="44.39522" lon="1.00888">
        <ele>154</ele>
        <time>2025-07-17T08:58:06.071Z</time>
      </trkpt>
      <trkpt lat="44.39522" lon="1.00887">
        <ele>154</ele>
        <time>2025-07-17T08:58:07.071Z</time>
      </trkpt>
      <trkpt lat="44.39522" lon="1.00887">
        <ele>154</ele>
        <time>2025-07-17T08:58:08.071Z</time>
      </trkpt>
      <trkpt lat="44.39522" lon="1.00887">
        <ele>154</ele>
        <time>2025-07-17T08:58:09.071Z</time>
      </trkpt>
      <trkpt lat="44.39521" lon="1.00887">
        <ele>154</ele>
        <time>2025-07-17T08:58:10.071Z</time>
      </trkpt>
      <trkpt lat="44.39521" lon="1.00887">
        <ele>154</ele>
        <time>2025-07-17T08:58:11.071Z</time>
      </trkpt>
      <trkpt lat="44.39521" lon="1.00887">
        <ele>154</ele>
        <time>2025-07-17T08:58:12.071Z</time>
      </trkpt>
      <trkpt lat="44.3952" lon="1.00887">
        <ele>154</ele>
        <time>2025-07-17T08:58:13.071Z</time>
      </trkpt>
      <trkpt lat="44.3952" lon="1.00887">
        <ele>154</ele>
        <time>2025-07-17T08:58:14.071Z</time>
      </trkpt>
      <trkpt lat="44.39519" lon="1.00887">
        <ele>154</ele>
        <time>2025-07-17T08:58:15.071Z</time>
      </trkpt>
      <trkpt lat="44.39519" lon="1.00887">
        <ele>154</ele>
        <time>2025-07-17T08:58:16.071Z</time>
      </trkpt>
      <trkpt lat="44.39517" lon="1.00886">
        <ele>154</ele>
        <time>2025-07-17T08:58:17.071Z</time>
      </trkpt>
      <trkpt lat="44.39516" lon="1.00886">
        <ele>154</ele>
        <time>2025-07-17T08:58:18.072Z</time>
      </trkpt>
      <trkpt lat="44.39515" lon="1.00886">
        <ele>154</ele>
        <time>2025-07-17T08:58:19.071Z</time>
      </trkpt>
      <trkpt lat="44.39514" lon="1.00886">
        <ele>154</ele>
        <time>2025-07-17T08:58:20.072Z</time>
      </trkpt>
      <trkpt lat="44.39512" lon="1.00885">
        <ele>154</ele>
        <time>2025-07-17T08:58:21.071Z</time>
      </trkpt>
      <trkpt lat="44.39511" lon="1.00884">
        <ele>154</ele>
        <time>2025-07-17T08:58:22.071Z</time>
      </trkpt>
      <trkpt lat="44.3951" lon="1.00883">
        <ele>154</ele>
        <time>2025-07-17T08:58:23.071Z</time>
      </trkpt>
      <trkpt lat="44.39509" lon="1.00883">
        <ele>154</ele>
        <time>2025-07-17T08:58:24.071Z</time>
      </trkpt>
      <trkpt lat="44.39508" lon="1.00882">
        <ele>153</ele>
        <time>2025-07-17T08:58:25.071Z</time>
      </trkpt>
      <trkpt lat="44.39507" lon="1.00882">
        <ele>153</ele>
        <time>2025-07-17T08:58:26.071Z</time>
      </trkpt>
      <trkpt lat="44.39506" lon="1.00881">
        <ele>153</ele>
        <time>2025-07-17T08:58:27.072Z</time>
      </trkpt>
      <trkpt lat="44.39505" lon="1.00881">
        <ele>153</ele>
        <time>2025-07-17T08:58:28.071Z</time>
      </trkpt>
      <trkpt lat="44.39504" lon="1.0088">
        <ele>153</ele>
        <time>2025-07-17T08:58:29.071Z</time>
      </trkpt>
      <trkpt lat="44.39503" lon="1.0088">
        <ele>153</ele>
        <time>2025-07-17T08:58:30.071Z</time>
      </trkpt>
      <trkpt lat="44.39502" lon="1.0088">
        <ele>154</ele>
        <time>2025-07-17T08:58:31.071Z</time>
      </trkpt>
      <trkpt lat="44.39501" lon="1.00879">
        <ele>154</ele>
        <time>2025-07-17T08:58:32.071Z</time>
      </trkpt>
      <trkpt lat="44.395" lon="1.00879">
        <ele>154</ele>
        <time>2025-07-17T08:58:33.071Z</time>
      </trkpt>
      <trkpt lat="44.39498" lon="1.00879">
        <ele>155</ele>
        <time>2025-07-17T08:58:34.071Z</time>
      </trkpt>
      <trkpt lat="44.39497" lon="1.00879">
        <ele>155</ele>
        <time>2025-07-17T08:58:35.071Z</time>
      </trkpt>
      <trkpt lat="44.39496" lon="1.00879">
        <ele>155</ele>
        <time>2025-07-17T08:58:36.071Z</time>
      </trkpt>
      <trkpt lat="44.39495" lon="1.00879">
        <ele>155</ele>
        <time>2025-07-17T08:58:37.071Z</time>
      </trkpt>
      <trkpt lat="44.39494" lon="1.00878">
        <ele>155</ele>
        <time>2025-07-17T08:58:38.071Z</time>
      </trkpt>
      <trkpt lat="44.39493" lon="1.00878">
        <ele>155</ele>
        <time>2025-07-17T08:58:39.071Z</time>
      </trkpt>
      <trkpt lat="44.39492" lon="1.00877">
        <ele>155</ele>
        <time>2025-07-17T08:58:40.071Z</time>
      </trkpt>
      <trkpt lat="44.3949" lon="1.00876">
        <ele>156</ele>
        <time>2025-07-17T08:58:41.071Z</time>
      </trkpt>
      <trkpt lat="44.39489" lon="1.00876">
        <ele>156</ele>
        <time>2025-07-17T08:58:42.071Z</time>
      </trkpt>
      <trkpt lat="44.39488" lon="1.00875">
        <ele>156</ele>
        <time>2025-07-17T08:58:43.071Z</time>
      </trkpt>
      <trkpt lat="44.39486" lon="1.00874">
        <ele>156</ele>
        <time>2025-07-17T08:58:44.071Z</time>
      </trkpt>
      <trkpt lat="44.39485" lon="1.00874">
        <ele>155</ele>
        <time>2025-07-17T08:58:45.071Z</time>
      </trkpt>
      <trkpt lat="44.39484" lon="1.00873">
        <ele>155</ele>
        <time>2025-07-17T08:58:46.071Z</time>
      </trkpt>
      <trkpt lat="44.39483" lon="1.00872">
        <ele>155</ele>
        <time>2025-07-17T08:58:47.071Z</time>
      </trkpt>
      <trkpt lat="44.39482" lon="1.00871">
        <ele>155</ele>
        <time>2025-07-17T08:58:48.071Z</time>
      </trkpt>
      <trkpt lat="44.39481" lon="1.00871">
        <ele>154</ele>
        <time>2025-07-17T08:58:49.071Z</time>
      </trkpt>
      <trkpt lat="44.39479" lon="1.0087">
        <ele>154</ele>
        <time>2025-07-17T08:58:50.071Z</time>
      </trkpt>
      <trkpt lat="44.39478" lon="1.00869">
        <ele>154</ele>
        <time>2025-07-17T08:58:51.071Z</time>
      </trkpt>
      <trkpt lat="44.39477" lon="1.00868">
        <ele>154</ele>
        <time>2025-07-17T08:58:52.071Z</time>
      </trkpt>
      <trkpt lat="44.39476" lon="1.00868">
        <ele>154</ele>
        <time>2025-07-17T08:58:53.071Z</time>
      </trkpt>
      <trkpt lat="44.39474" lon="1.00867">
        <ele>154</ele>
        <time>2025-07-17T08:58:54.071Z</time>
      </trkpt>
      <trkpt lat="44.39473" lon="1.00866">
        <ele>154</ele>
        <time>2025-07-17T08:58:55.071Z</time>
      </trkpt>
      <trkpt lat="44.39472" lon="1.00866">
        <ele>154</ele>
        <time>2025-07-17T08:58:56.071Z</time>
      </trkpt>
      <trkpt lat="44.39471" lon="1.00865">
        <ele>154</ele>
        <time>2025-07-17T08:58:57.071Z</time>
      </trkpt>
      <trkpt lat="44.39469" lon="1.00864">
        <ele>154</ele>
        <time>2025-07-17T08:58:58.072Z</time>
      </trkpt>
      <trkpt lat="44.39468" lon="1.00862">
        <ele>153</ele>
        <time>2025-07-17T08:58:59.071Z</time>
      </trkpt>
      <trkpt lat="44.39467" lon="1.00861">
        <ele>153</ele>
        <time>2025-07-17T08:59:00.071Z</time>
      </trkpt>
      <trkpt lat="44.39466" lon="1.0086">
        <ele>153</ele>
        <time>2025-07-17T08:59:01.072Z</time>
      </trkpt>
      <trkpt lat="44.39466" lon="1.00859">
        <ele>153</ele>
        <time>2025-07-17T08:59:02.071Z</time>
      </trkpt>
      <trkpt lat="44.39465" lon="1.00858">
        <ele>153</ele>
        <time>2025-07-17T08:59:03.072Z</time>
      </trkpt>
      <trkpt lat="44.39464" lon="1.00856">
        <ele>153</ele>
        <time>2025-07-17T08:59:04.072Z</time>
      </trkpt>
      <trkpt lat="44.39463" lon="1.00854">
        <ele>153</ele>
        <time>2025-07-17T08:59:05.071Z</time>
      </trkpt>
      <trkpt lat="44.39463" lon="1.00853">
        <ele>152</ele>
        <time>2025-07-17T08:59:06.071Z</time>
      </trkpt>
      <trkpt lat="44.39462" lon="1.00851">
        <ele>152</ele>
        <time>2025-07-17T08:59:07.071Z</time>
      </trkpt>
      <trkpt lat="44.39461" lon="1.00849">
        <ele>152</ele>
        <time>2025-07-17T08:59:08.071Z</time>
      </trkpt>
      <trkpt lat="44.39461" lon="1.00847">
        <ele>152</ele>
        <time>2025-07-17T08:59:09.071Z</time>
      </trkpt>
      <trkpt lat="44.3946" lon="1.00845">
        <ele>151</ele>
        <time>2025-07-17T08:59:10.071Z</time>
      </trkpt>
      <trkpt lat="44.3946" lon="1.00843">
        <ele>151</ele>
        <time>2025-07-17T08:59:11.071Z</time>
      </trkpt>
      <trkpt lat="44.39459" lon="1.00842">
        <ele>151</ele>
        <time>2025-07-17T08:59:12.071Z</time>
      </trkpt>
      <trkpt lat="44.39459" lon="1.0084">
        <ele>150</ele>
        <time>2025-07-17T08:59:13.071Z</time>
      </trkpt>
      <trkpt lat="44.39458" lon="1.00838">
        <ele>150</ele>
        <time>2025-07-17T08:59:14.071Z</time>
      </trkpt>
      <trkpt lat="44.39458" lon="1.00837">
        <ele>150</ele>
        <time>2025-07-17T08:59:15.072Z</time>
      </trkpt>
      <trkpt lat="44.39458" lon="1.00835">
        <ele>149</ele>
        <time>2025-07-17T08:59:16.071Z</time>
      </trkpt>
      <trkpt lat="44.39457" lon="1.00833">
        <ele>149</ele>
        <time>2025-07-17T08:59:17.071Z</time>
      </trkpt>
      <trkpt lat="44.39457" lon="1.00831">
        <ele>148</ele>
        <time>2025-07-17T08:59:18.071Z</time>
      </trkpt>
      <trkpt lat="44.39457" lon="1.00829">
        <ele>148</ele>
        <time>2025-07-17T08:59:19.071Z</time>
      </trkpt>
      <trkpt lat="44.39456" lon="1.00827">
        <ele>148</ele>
        <time>2025-07-17T08:59:20.071Z</time>
      </trkpt>
      <trkpt lat="44.39456" lon="1.00825">
        <ele>148</ele>
        <time>2025-07-17T08:59:21.071Z</time>
      </trkpt>
      <trkpt lat="44.39456" lon="1.00823">
        <ele>147</ele>
        <time>2025-07-17T08:59:22.071Z</time>
      </trkpt>
      <trkpt lat="44.39456" lon="1.00821">
        <ele>147</ele>
        <time>2025-07-17T08:59:23.071Z</time>
      </trkpt>
      <trkpt lat="44.39455" lon="1.00819">
        <ele>147</ele>
        <time>2025-07-17T08:59:24.071Z</time>
      </trkpt>
      <trkpt lat="44.39455" lon="1.00818">
        <ele>147</ele>
        <time>2025-07-17T08:59:25.071Z</time>
      </trkpt>
      <trkpt lat="44.39455" lon="1.00816">
        <ele>147</ele>
        <time>2025-07-17T08:59:26.071Z</time>
      </trkpt>
      <trkpt lat="44.39455" lon="1.00815">
        <ele>147</ele>
        <time>2025-07-17T08:59:27.071Z</time>
      </trkpt>
      <trkpt lat="44.39455" lon="1.00813">
        <ele>147</ele>
        <time>2025-07-17T08:59:28.071Z</time>
      </trkpt>
      <trkpt lat="44.39454" lon="1.00812">
        <ele>148</ele>
        <time>2025-07-17T08:59:29.071Z</time>
      </trkpt>
      <trkpt lat="44.39454" lon="1.0081">
        <ele>148</ele>
        <time>2025-07-17T08:59:30.071Z</time>
      </trkpt>
      <trkpt lat="44.39454" lon="1.00808">
        <ele>148</ele>
        <time>2025-07-17T08:59:31.071Z</time>
      </trkpt>
      <trkpt lat="44.39453" lon="1.00807">
        <ele>149</ele>
        <time>2025-07-17T08:59:32.071Z</time>
      </trkpt>
      <trkpt lat="44.39453" lon="1.00806">
        <ele>149</ele>
        <time>2025-07-17T08:59:33.071Z</time>
      </trkpt>
      <trkpt lat="44.39453" lon="1.00805">
        <ele>149</ele>
        <time>2025-07-17T08:59:34.072Z</time>
      </trkpt>
      <trkpt lat="44.39453" lon="1.00805">
        <ele>149</ele>
        <time>2025-07-17T08:59:35.071Z</time>
      </trkpt>
      <trkpt lat="44.39453" lon="1.00805">
        <ele>149</ele>
        <time>2025-07-17T08:59:36.071Z</time>
      </trkpt>
      <trkpt lat="44.39453" lon="1.00805">
        <ele>149</ele>
        <time>2025-07-17T08:59:37.072Z</time>
      </trkpt>
      <trkpt lat="44.39453" lon="1.00805">
        <ele>149</ele>
        <time>2025-07-17T08:59:38.072Z</time>
      </trkpt>
      <trkpt lat="44.39453" lon="1.00805">
        <ele>149</ele>
        <time>2025-07-17T08:59:39.071Z</time>
      </trkpt>
      <trkpt lat="44.39453" lon="1.00805">
        <ele>149</ele>
        <time>2025-07-17T08:59:40.071Z</time>
      </trkpt>
      <trkpt lat="44.39453" lon="1.00805">
        <ele>149</ele>
        <time>2025-07-17T08:59:41.071Z</time>
      </trkpt>
      <trkpt lat="44.39453" lon="1.00805">
        <ele>149</ele>
        <time>2025-07-17T08:59:42.071Z</time>
      </trkpt>
      <trkpt lat="44.39453" lon="1.00805">
        <ele>149</ele>
        <time>2025-07-17T08:59:43.071Z</time>
      </trkpt>
      <trkpt lat="44.39453" lon="1.00805">
        <ele>149</ele>
        <time>2025-07-17T08:59:44.071Z</time>
      </trkpt>
      <trkpt lat="44.39453" lon="1.00805">
        <ele>149</ele>
        <time>2025-07-17T08:59:45.071Z</time>
      </trkpt>
      <trkpt lat="44.39453" lon="1.00805">
        <ele>149</ele>
        <time>2025-07-17T08:59:46.071Z</time>
      </trkpt>
      <trkpt lat="44.39453" lon="1.00805">
        <ele>149</ele>
        <time>2025-07-17T08:59:47.071Z</time>
      </trkpt>
      <trkpt lat="44.39453" lon="1.00805">
        <ele>149</ele>
        <time>2025-07-17T08:59:48.071Z</time>
      </trkpt>
      <trkpt lat="44.39453" lon="1.00805">
        <ele>149</ele>
        <time>2025-07-17T08:59:49.071Z</time>
      </trkpt>
      <trkpt lat="44.39453" lon="1.00805">
        <ele>149</ele>
        <time>2025-07-17T08:59:50.071Z</time>
      </trkpt>
      <trkpt lat="44.39453" lon="1.00805">
        <ele>149</ele>
        <time>2025-07-17T08:59:51.071Z</time>
      </trkpt>
      <trkpt lat="44.39453" lon="1.00805">
        <ele>149</ele>
        <time>2025-07-17T08:59:52.071Z</time>
      </trkpt>
      <trkpt lat="44.39452" lon="1.00805">
        <ele>149</ele>
        <time>2025-07-17T08:59:53.071Z</time>
      </trkpt>
      <trkpt lat="44.39452" lon="1.00805">
        <ele>149</ele>
        <time>2025-07-17T08:59:54.071Z</time>
      </trkpt>
      <trkpt lat="44.39452" lon="1.00805">
        <ele>150</ele>
        <time>2025-07-17T08:59:55.071Z</time>
      </trkpt>
      <trkpt lat="44.39452" lon="1.00805">
        <ele>150</ele>
        <time>2025-07-17T08:59:56.071Z</time>
      </trkpt>
      <trkpt lat="44.39452" lon="1.00805">
        <ele>150</ele>
        <time>2025-07-17T08:59:57.071Z</time>
      </trkpt>
      <trkpt lat="44.39452" lon="1.00805">
        <ele>151</ele>
        <time>2025-07-17T08:59:58.071Z</time>
      </trkpt>
      <trkpt lat="44.39452" lon="1.00805">
        <ele>151</ele>
        <time>2025-07-17T08:59:59.071Z</time>
      </trkpt>
      <trkpt lat="44.39452" lon="1.00805">
        <ele>151</ele>
        <time>2025-07-17T09:00:00.071Z</time>
      </trkpt>
      <trkpt lat="44.39452" lon="1.00805">
        <ele>151</ele>
        <time>2025-07-17T09:00:01.071Z</time>
      </trkpt>
      <trkpt lat="44.39452" lon="1.00805">
        <ele>151</ele>
        <time>2025-07-17T09:00:02.071Z</time>
      </trkpt>
      <trkpt lat="44.39452" lon="1.00806">
        <ele>152</ele>
        <time>2025-07-17T09:00:03.071Z</time>
      </trkpt>
      <trkpt lat="44.39452" lon="1.00805">
        <ele>152</ele>
        <time>2025-07-17T09:00:04.071Z</time>
      </trkpt>
      <trkpt lat="44.39452" lon="1.00805">
        <ele>152</ele>
        <time>2025-07-17T09:00:05.071Z</time>
      </trkpt>
      <trkpt lat="44.39452" lon="1.00805">
        <ele>152</ele>
        <time>2025-07-17T09:00:06.071Z</time>
      </trkpt>
      <trkpt lat="44.39452" lon="1.00805">
        <ele>151</ele>
        <time>2025-07-17T09:00:07.071Z</time>
      </trkpt>
      <trkpt lat="44.39453" lon="1.00806">
        <ele>151</ele>
        <time>2025-07-17T09:00:08.071Z</time>
      </trkpt>
      <trkpt lat="44.39453" lon="1.00806">
        <ele>151</ele>
        <time>2025-07-17T09:00:09.071Z</time>
      </trkpt>
      <trkpt lat="44.39453" lon="1.00806">
        <ele>151</ele>
        <time>2025-07-17T09:00:10.071Z</time>
      </trkpt>
      <trkpt lat="44.39452" lon="1.00806">
        <ele>151</ele>
        <time>2025-07-17T09:00:11.071Z</time>
      </trkpt>
      <trkpt lat="44.39452" lon="1.00806">
        <ele>151</ele>
        <time>2025-07-17T09:00:12.071Z</time>
      </trkpt>
      <trkpt lat="44.39452" lon="1.00805">
        <ele>151</ele>
        <time>2025-07-17T09:00:13.071Z</time>
      </trkpt>
      <trkpt lat="44.39452" lon="1.00805">
        <ele>151</ele>
        <time>2025-07-17T09:00:14.071Z</time>
      </trkpt>
      <trkpt lat="44.39453" lon="1.00805">
        <ele>151</ele>
        <time>2025-07-17T09:00:15.071Z</time>
      </trkpt>
      <trkpt lat="44.39453" lon="1.00805">
        <ele>151</ele>
        <time>2025-07-17T09:00:16.071Z</time>
      </trkpt>
      <trkpt lat="44.39453" lon="1.00806">
        <ele>151</ele>
        <time>2025-07-17T09:00:17.071Z</time>
      </trkpt>
      <trkpt lat="44.39453" lon="1.00806">
        <ele>151</ele>
        <time>2025-07-17T09:00:18.071Z</time>
      </trkpt>
      <trkpt lat="44.39453" lon="1.00805">
        <ele>151</ele>
        <time>2025-07-17T09:00:19.071Z</time>
      </trkpt>
      <trkpt lat="44.39453" lon="1.00804">
        <ele>151</ele>
        <time>2025-07-17T09:00:20.071Z</time>
      </trkpt>
      <trkpt lat="44.39453" lon="1.00803">
        <ele>151</ele>
        <time>2025-07-17T09:00:21.071Z</time>
      </trkpt>
      <trkpt lat="44.39453" lon="1.00802">
        <ele>151</ele>
        <time>2025-07-17T09:00:22.071Z</time>
      </trkpt>
      <trkpt lat="44.39453" lon="1.00801">
        <ele>151</ele>
        <time>2025-07-17T09:00:23.071Z</time>
      </trkpt>
      <trkpt lat="44.39453" lon="1.008">
        <ele>151</ele>
        <time>2025-07-17T09:00:24.071Z</time>
      </trkpt>
      <trkpt lat="44.39452" lon="1.00799">
        <ele>151</ele>
        <time>2025-07-17T09:00:25.071Z</time>
      </trkpt>
      <trkpt lat="44.39452" lon="1.00798">
        <ele>151</ele>
        <time>2025-07-17T09:00:26.071Z</time>
      </trkpt>
      <trkpt lat="44.39452" lon="1.00796">
        <ele>151</ele>
        <time>2025-07-17T09:00:27.071Z</time>
      </trkpt>
      <trkpt lat="44.39452" lon="1.00795">
        <ele>151</ele>
        <time>2025-07-17T09:00:28.071Z</time>
      </trkpt>
      <trkpt lat="44.39452" lon="1.00794">
        <ele>151</ele>
        <time>2025-07-17T09:00:29.071Z</time>
      </trkpt>
      <trkpt lat="44.39452" lon="1.00793">
        <ele>151</ele>
        <time>2025-07-17T09:00:30.071Z</time>
      </trkpt>
      <trkpt lat="44.39451" lon="1.00792">
        <ele>151</ele>
        <time>2025-07-17T09:00:31.071Z</time>
      </trkpt>
      <trkpt lat="44.39451" lon="1.0079">
        <ele>151</ele>
        <time>2025-07-17T09:00:32.071Z</time>
      </trkpt>
      <trkpt lat="44.39451" lon="1.00789">
        <ele>151</ele>
        <time>2025-07-17T09:00:33.071Z</time>
      </trkpt>
      <trkpt lat="44.39451" lon="1.00788">
        <ele>151</ele>
        <time>2025-07-17T09:00:34.071Z</time>
      </trkpt>
      <trkpt lat="44.3945" lon="1.00787">
        <ele>151</ele>
        <time>2025-07-17T09:00:35.071Z</time>
      </trkpt>
      <trkpt lat="44.3945" lon="1.00785">
        <ele>151</ele>
        <time>2025-07-17T09:00:36.071Z</time>
      </trkpt>
      <trkpt lat="44.3945" lon="1.00784">
        <ele>151</ele>
        <time>2025-07-17T09:00:37.071Z</time>
      </trkpt>
      <trkpt lat="44.3945" lon="1.00783">
        <ele>151</ele>
        <time>2025-07-17T09:00:38.071Z</time>
      </trkpt>
      <trkpt lat="44.3945" lon="1.00781">
        <ele>151</ele>
        <time>2025-07-17T09:00:39.071Z</time>
      </trkpt>
      <trkpt lat="44.39449" lon="1.0078">
        <ele>151</ele>
        <time>2025-07-17T09:00:40.071Z</time>
      </trkpt>
      <trkpt lat="44.39449" lon="1.00778">
        <ele>151</ele>
        <time>2025-07-17T09:00:41.071Z</time>
      </trkpt>
      <trkpt lat="44.39449" lon="1.00777">
        <ele>151</ele>
        <time>2025-07-17T09:00:42.071Z</time>
      </trkpt>
      <trkpt lat="44.39449" lon="1.00775">
        <ele>151</ele>
        <time>2025-07-17T09:00:43.071Z</time>
      </trkpt>
      <trkpt lat="44.39449" lon="1.00774">
        <ele>151</ele>
        <time>2025-07-17T09:00:44.071Z</time>
      </trkpt>
      <trkpt lat="44.39449" lon="1.00773">
        <ele>151</ele>
        <time>2025-07-17T09:00:45.071Z</time>
      </trkpt>
      <trkpt lat="44.39448" lon="1.00773">
        <ele>151</ele>
        <time>2025-07-17T09:00:46.071Z</time>
      </trkpt>
      <trkpt lat="44.39448" lon="1.00771">
        <ele>151</ele>
        <time>2025-07-17T09:00:47.071Z</time>
      </trkpt>
      <trkpt lat="44.39448" lon="1.0077">
        <ele>151</ele>
        <time>2025-07-17T09:00:48.071Z</time>
      </trkpt>
      <trkpt lat="44.39447" lon="1.00769">
        <ele>151</ele>
        <time>2025-07-17T09:00:49.071Z</time>
      </trkpt>
      <trkpt lat="44.39447" lon="1.00768">
        <ele>151</ele>
        <time>2025-07-17T09:00:50.071Z</time>
      </trkpt>
      <trkpt lat="44.39447" lon="1.00767">
        <ele>151</ele>
        <time>2025-07-17T09:00:51.071Z</time>
      </trkpt>
      <trkpt lat="44.39446" lon="1.00766">
        <ele>151</ele>
        <time>2025-07-17T09:00:52.071Z</time>
      </trkpt>
      <trkpt lat="44.39445" lon="1.00764">
        <ele>151</ele>
        <time>2025-07-17T09:00:53.071Z</time>
      </trkpt>
      <trkpt lat="44.39445" lon="1.00762">
        <ele>151</ele>
        <time>2025-07-17T09:00:54.071Z</time>
      </trkpt>
      <trkpt lat="44.39444" lon="1.0076">
        <ele>151</ele>
        <time>2025-07-17T09:00:55.071Z</time>
      </trkpt>
      <trkpt lat="44.39444" lon="1.00758">
        <ele>150</ele>
        <time>2025-07-17T09:00:56.071Z</time>
      </trkpt>
      <trkpt lat="44.39444" lon="1.00757">
        <ele>150</ele>
        <time>2025-07-17T09:00:57.071Z</time>
      </trkpt>
      <trkpt lat="44.39443" lon="1.00755">
        <ele>149</ele>
        <time>2025-07-17T09:00:58.071Z</time>
      </trkpt>
      <trkpt lat="44.39443" lon="1.00754">
        <ele>149</ele>
        <time>2025-07-17T09:00:59.071Z</time>
      </trkpt>
      <trkpt lat="44.39443" lon="1.00752">
        <ele>149</ele>
        <time>2025-07-17T09:01:00.071Z</time>
      </trkpt>
      <trkpt lat="44.39442" lon="1.0075">
        <ele>149</ele>
        <time>2025-07-17T09:01:01.071Z</time>
      </trkpt>
      <trkpt lat="44.39442" lon="1.00749">
        <ele>149</ele>
        <time>2025-07-17T09:01:02.071Z</time>
      </trkpt>
      <trkpt lat="44.39442" lon="1.00748">
        <ele>149</ele>
        <time>2025-07-17T09:01:03.071Z</time>
      </trkpt>
      <trkpt lat="44.39441" lon="1.00745">
        <ele>149</ele>
        <time>2025-07-17T09:01:04.071Z</time>
      </trkpt>
      <trkpt lat="44.3944" lon="1.00743">
        <ele>149</ele>
        <time>2025-07-17T09:01:05.071Z</time>
      </trkpt>
      <trkpt lat="44.3944" lon="1.00742">
        <ele>149</ele>
        <time>2025-07-17T09:01:06.071Z</time>
      </trkpt>
      <trkpt lat="44.3944" lon="1.0074">
        <ele>148</ele>
        <time>2025-07-17T09:01:07.071Z</time>
      </trkpt>
      <trkpt lat="44.3944" lon="1.00738">
        <ele>148</ele>
        <time>2025-07-17T09:01:08.071Z</time>
      </trkpt>
      <trkpt lat="44.3944" lon="1.00736">
        <ele>148</ele>
        <time>2025-07-17T09:01:09.071Z</time>
      </trkpt>
      <trkpt lat="44.3944" lon="1.00734">
        <ele>148</ele>
        <time>2025-07-17T09:01:10.071Z</time>
      </trkpt>
      <trkpt lat="44.39441" lon="1.00732">
        <ele>148</ele>
        <time>2025-07-17T09:01:11.071Z</time>
      </trkpt>
      <trkpt lat="44.39441" lon="1.00731">
        <ele>148</ele>
        <time>2025-07-17T09:01:12.071Z</time>
      </trkpt>
      <trkpt lat="44.39441" lon="1.00729">
        <ele>148</ele>
        <time>2025-07-17T09:01:13.071Z</time>
      </trkpt>
      <trkpt lat="44.3944" lon="1.00727">
        <ele>148</ele>
        <time>2025-07-17T09:01:14.072Z</time>
      </trkpt>
      <trkpt lat="44.3944" lon="1.00725">
        <ele>148</ele>
        <time>2025-07-17T09:01:15.071Z</time>
      </trkpt>
      <trkpt lat="44.39441" lon="1.00723">
        <ele>148</ele>
        <time>2025-07-17T09:01:16.071Z</time>
      </trkpt>
      <trkpt lat="44.39441" lon="1.00722">
        <ele>148</ele>
        <time>2025-07-17T09:01:17.071Z</time>
      </trkpt>
      <trkpt lat="44.39441" lon="1.00721">
        <ele>148</ele>
        <time>2025-07-17T09:01:18.071Z</time>
      </trkpt>
      <trkpt lat="44.39441" lon="1.00721">
        <ele>148</ele>
        <time>2025-07-17T09:01:19.071Z</time>
      </trkpt>
      <trkpt lat="44.39441" lon="1.00721">
        <ele>148</ele>
        <time>2025-07-17T09:01:20.071Z</time>
      </trkpt>
      <trkpt lat="44.39441" lon="1.00721">
        <ele>148</ele>
        <time>2025-07-17T09:01:21.071Z</time>
      </trkpt>
      <trkpt lat="44.39441" lon="1.00721">
        <ele>148</ele>
        <time>2025-07-17T09:01:22.071Z</time>
      </trkpt>
      <trkpt lat="44.39441" lon="1.00721">
        <ele>148</ele>
        <time>2025-07-17T09:01:23.072Z</time>
      </trkpt>
      <trkpt lat="44.39441" lon="1.00721">
        <ele>148</ele>
        <time>2025-07-17T09:01:24.071Z</time>
      </trkpt>
      <trkpt lat="44.39441" lon="1.00721">
        <ele>147</ele>
        <time>2025-07-17T09:01:25.072Z</time>
      </trkpt>
      <trkpt lat="44.39441" lon="1.00721">
        <ele>147</ele>
        <time>2025-07-17T09:01:26.071Z</time>
      </trkpt>
      <trkpt lat="44.39441" lon="1.0072">
        <ele>147</ele>
        <time>2025-07-17T09:01:27.071Z</time>
      </trkpt>
      <trkpt lat="44.3944" lon="1.0072">
        <ele>147</ele>
        <time>2025-07-17T09:01:28.071Z</time>
      </trkpt>
      <trkpt lat="44.3944" lon="1.00719">
        <ele>147</ele>
        <time>2025-07-17T09:01:29.071Z</time>
      </trkpt>
      <trkpt lat="44.39439" lon="1.00718">
        <ele>147</ele>
        <time>2025-07-17T09:01:30.071Z</time>
      </trkpt>
      <trkpt lat="44.39439" lon="1.00717">
        <ele>147</ele>
        <time>2025-07-17T09:01:31.071Z</time>
      </trkpt>
      <trkpt lat="44.39439" lon="1.00716">
        <ele>148</ele>
        <time>2025-07-17T09:01:32.071Z</time>
      </trkpt>
      <trkpt lat="44.39439" lon="1.00714">
        <ele>147</ele>
        <time>2025-07-17T09:01:33.071Z</time>
      </trkpt>
      <trkpt lat="44.39438" lon="1.00713">
        <ele>147</ele>
        <time>2025-07-17T09:01:34.071Z</time>
      </trkpt>
      <trkpt lat="44.39438" lon="1.00712">
        <ele>147</ele>
        <time>2025-07-17T09:01:35.071Z</time>
      </trkpt>
      <trkpt lat="44.39438" lon="1.00711">
        <ele>146</ele>
        <time>2025-07-17T09:01:36.071Z</time>
      </trkpt>
      <trkpt lat="44.39437" lon="1.0071">
        <ele>146</ele>
        <time>2025-07-17T09:01:37.071Z</time>
      </trkpt>
      <trkpt lat="44.39437" lon="1.00709">
        <ele>146</ele>
        <time>2025-07-17T09:01:38.071Z</time>
      </trkpt>
      <trkpt lat="44.39436" lon="1.00707">
        <ele>146</ele>
        <time>2025-07-17T09:01:39.071Z</time>
      </trkpt>
      <trkpt lat="44.39436" lon="1.00706">
        <ele>145</ele>
        <time>2025-07-17T09:01:40.071Z</time>
      </trkpt>
      <trkpt lat="44.39436" lon="1.00705">
        <ele>145</ele>
        <time>2025-07-17T09:01:41.071Z</time>
      </trkpt>
      <trkpt lat="44.39435" lon="1.00703">
        <ele>145</ele>
        <time>2025-07-17T09:01:42.071Z</time>
      </trkpt>
      <trkpt lat="44.39435" lon="1.00701">
        <ele>145</ele>
        <time>2025-07-17T09:01:43.071Z</time>
      </trkpt>
      <trkpt lat="44.39435" lon="1.007">
        <ele>144</ele>
        <time>2025-07-17T09:01:44.071Z</time>
      </trkpt>
      <trkpt lat="44.39434" lon="1.00699">
        <ele>144</ele>
        <time>2025-07-17T09:01:45.071Z</time>
      </trkpt>
      <trkpt lat="44.39434" lon="1.00697">
        <ele>144</ele>
        <time>2025-07-17T09:01:46.071Z</time>
      </trkpt>
      <trkpt lat="44.39434" lon="1.00696">
        <ele>144</ele>
        <time>2025-07-17T09:01:47.071Z</time>
      </trkpt>
      <trkpt lat="44.39434" lon="1.00695">
        <ele>143</ele>
        <time>2025-07-17T09:01:48.071Z</time>
      </trkpt>
      <trkpt lat="44.39434" lon="1.00693">
        <ele>144</ele>
        <time>2025-07-17T09:01:49.071Z</time>
      </trkpt>
      <trkpt lat="44.39433" lon="1.00692">
        <ele>144</ele>
        <time>2025-07-17T09:01:50.071Z</time>
      </trkpt>
      <trkpt lat="44.39433" lon="1.00691">
        <ele>144</ele>
        <time>2025-07-17T09:01:51.071Z</time>
      </trkpt>
      <trkpt lat="44.39433" lon="1.0069">
        <ele>144</ele>
        <time>2025-07-17T09:01:52.071Z</time>
      </trkpt>
      <trkpt lat="44.39433" lon="1.00689">
        <ele>144</ele>
        <time>2025-07-17T09:01:53.071Z</time>
      </trkpt>
      <trkpt lat="44.39433" lon="1.00689">
        <ele>144</ele>
        <time>2025-07-17T09:01:54.071Z</time>
      </trkpt>
      <trkpt lat="44.39433" lon="1.00689">
        <ele>144</ele>
        <time>2025-07-17T09:01:55.071Z</time>
      </trkpt>
      <trkpt lat="44.39433" lon="1.00689">
        <ele>144</ele>
        <time>2025-07-17T09:01:56.071Z</time>
      </trkpt>
      <trkpt lat="44.39433" lon="1.00689">
        <ele>144</ele>
        <time>2025-07-17T09:01:57.071Z</time>
      </trkpt>
      <trkpt lat="44.39433" lon="1.00689">
        <ele>144</ele>
        <time>2025-07-17T09:01:58.071Z</time>
      </trkpt>
      <trkpt lat="44.39433" lon="1.00689">
        <ele>144</ele>
        <time>2025-07-17T09:01:59.071Z</time>
      </trkpt>
      <trkpt lat="44.39433" lon="1.00689">
        <ele>145</ele>
        <time>2025-07-17T09:02:00.071Z</time>
      </trkpt>
      <trkpt lat="44.39433" lon="1.00689">
        <ele>146</ele>
        <time>2025-07-17T09:02:01.071Z</time>
      </trkpt>
      <trkpt lat="44.39433" lon="1.00689">
        <ele>146</ele>
        <time>2025-07-17T09:02:02.071Z</time>
      </trkpt>
      <trkpt lat="44.39433" lon="1.00689">
        <ele>147</ele>
        <time>2025-07-17T09:02:03.071Z</time>
      </trkpt>
      <trkpt lat="44.39433" lon="1.00689">
        <ele>147</ele>
        <time>2025-07-17T09:02:04.071Z</time>
      </trkpt>
      <trkpt lat="44.39433" lon="1.00689">
        <ele>147</ele>
        <time>2025-07-17T09:02:05.071Z</time>
      </trkpt>
      <trkpt lat="44.39433" lon="1.00689">
        <ele>147</ele>
        <time>2025-07-17T09:02:06.071Z</time>
      </trkpt>
      <trkpt lat="44.39433" lon="1.00689">
        <ele>147</ele>
        <time>2025-07-17T09:02:07.071Z</time>
      </trkpt>
      <trkpt lat="44.39433" lon="1.00689">
        <ele>147</ele>
        <time>2025-07-17T09:02:08.071Z</time>
      </trkpt>
      <trkpt lat="44.39433" lon="1.00689">
        <ele>147</ele>
        <time>2025-07-17T09:02:09.071Z</time>
      </trkpt>
      <trkpt lat="44.39433" lon="1.00688">
        <ele>147</ele>
        <time>2025-07-17T09:02:10.071Z</time>
      </trkpt>
      <trkpt lat="44.39433" lon="1.00687">
        <ele>147</ele>
        <time>2025-07-17T09:02:11.071Z</time>
      </trkpt>
      <trkpt lat="44.39433" lon="1.00686">
        <ele>147</ele>
        <time>2025-07-17T09:02:12.071Z</time>
      </trkpt>
      <trkpt lat="44.39433" lon="1.00684">
        <ele>146</ele>
        <time>2025-07-17T09:02:13.071Z</time>
      </trkpt>
      <trkpt lat="44.39433" lon="1.00683">
        <ele>146</ele>
        <time>2025-07-17T09:02:14.071Z</time>
      </trkpt>
      <trkpt lat="44.39433" lon="1.00682">
        <ele>146</ele>
        <time>2025-07-17T09:02:15.071Z</time>
      </trkpt>
      <trkpt lat="44.39433" lon="1.00682">
        <ele>146</ele>
        <time>2025-07-17T09:02:16.071Z</time>
      </trkpt>
      <trkpt lat="44.39434" lon="1.00681">
        <ele>146</ele>
        <time>2025-07-17T09:02:17.071Z</time>
      </trkpt>
      <trkpt lat="44.39434" lon="1.00681">
        <ele>146</ele>
        <time>2025-07-17T09:02:18.071Z</time>
      </trkpt>
      <trkpt lat="44.39434" lon="1.00681">
        <ele>146</ele>
        <time>2025-07-17T09:02:19.071Z</time>
      </trkpt>
      <trkpt lat="44.39434" lon="1.00681">
        <ele>146</ele>
        <time>2025-07-17T09:02:20.071Z</time>
      </trkpt>
      <trkpt lat="44.39434" lon="1.00681">
        <ele>145</ele>
        <time>2025-07-17T09:02:21.071Z</time>
      </trkpt>
      <trkpt lat="44.39434" lon="1.00682">
        <ele>144</ele>
        <time>2025-07-17T09:02:22.071Z</time>
      </trkpt>
      <trkpt lat="44.39434" lon="1.00682">
        <ele>144</ele>
        <time>2025-07-17T09:02:23.071Z</time>
      </trkpt>
      <trkpt lat="44.39434" lon="1.00682">
        <ele>143</ele>
        <time>2025-07-17T09:02:24.071Z</time>
      </trkpt>
      <trkpt lat="44.39434" lon="1.00682">
        <ele>143</ele>
        <time>2025-07-17T09:02:25.071Z</time>
      </trkpt>
      <trkpt lat="44.39433" lon="1.00682">
        <ele>143</ele>
        <time>2025-07-17T09:02:26.071Z</time>
      </trkpt>
      <trkpt lat="44.39433" lon="1.00682">
        <ele>143</ele>
        <time>2025-07-17T09:02:27.071Z</time>
      </trkpt>
      <trkpt lat="44.39433" lon="1.00682">
        <ele>143</ele>
        <time>2025-07-17T09:02:28.071Z</time>
      </trkpt>
      <trkpt lat="44.39433" lon="1.00682">
        <ele>142</ele>
        <time>2025-07-17T09:02:29.071Z</time>
      </trkpt>
      <trkpt lat="44.39433" lon="1.00682">
        <ele>142</ele>
        <time>2025-07-17T09:02:30.071Z</time>
      </trkpt>
      <trkpt lat="44.39432" lon="1.00682">
        <ele>142</ele>
        <time>2025-07-17T09:02:31.071Z</time>
      </trkpt>
      <trkpt lat="44.39432" lon="1.00681">
        <ele>142</ele>
        <time>2025-07-17T09:02:32.071Z</time>
      </trkpt>
      <trkpt lat="44.39432" lon="1.00681">
        <ele>141</ele>
        <time>2025-07-17T09:02:33.071Z</time>
      </trkpt>
      <trkpt lat="44.39432" lon="1.00681">
        <ele>141</ele>
        <time>2025-07-17T09:02:34.071Z</time>
      </trkpt>
      <trkpt lat="44.39432" lon="1.00681">
        <ele>141</ele>
        <time>2025-07-17T09:02:35.071Z</time>
      </trkpt>
      <trkpt lat="44.39431" lon="1.00681">
        <ele>141</ele>
        <time>2025-07-17T09:02:36.071Z</time>
      </trkpt>
      <trkpt lat="44.39431" lon="1.00681">
        <ele>140</ele>
        <time>2025-07-17T09:02:37.071Z</time>
      </trkpt>
      <trkpt lat="44.39431" lon="1.00681">
        <ele>140</ele>
        <time>2025-07-17T09:02:38.071Z</time>
      </trkpt>
      <trkpt lat="44.39431" lon="1.00681">
        <ele>140</ele>
        <time>2025-07-17T09:02:39.071Z</time>
      </trkpt>
      <trkpt lat="44.3943" lon="1.00681">
        <ele>140</ele>
        <time>2025-07-17T09:02:40.071Z</time>
      </trkpt>
      <trkpt lat="44.3943" lon="1.00681">
        <ele>140</ele>
        <time>2025-07-17T09:02:41.071Z</time>
      </trkpt>
      <trkpt lat="44.3943" lon="1.00681">
        <ele>140</ele>
        <time>2025-07-17T09:02:42.071Z</time>
      </trkpt>
      <trkpt lat="44.3943" lon="1.0068">
        <ele>140</ele>
        <time>2025-07-17T09:02:43.071Z</time>
      </trkpt>
      <trkpt lat="44.3943" lon="1.0068">
        <ele>140</ele>
        <time>2025-07-17T09:02:44.071Z</time>
      </trkpt>
      <trkpt lat="44.3943" lon="1.0068">
        <ele>141</ele>
        <time>2025-07-17T09:02:45.071Z</time>
      </trkpt>
      <trkpt lat="44.3943" lon="1.0068">
        <ele>141</ele>
        <time>2025-07-17T09:02:46.071Z</time>
      </trkpt>
      <trkpt lat="44.3943" lon="1.00681">
        <ele>142</ele>
        <time>2025-07-17T09:02:47.071Z</time>
      </trkpt>
      <trkpt lat="44.3943" lon="1.00681">
        <ele>142</ele>
        <time>2025-07-17T09:02:48.071Z</time>
      </trkpt>
      <trkpt lat="44.3943" lon="1.00681">
        <ele>142</ele>
        <time>2025-07-17T09:02:49.072Z</time>
      </trkpt>
      <trkpt lat="44.3943" lon="1.00681">
        <ele>142</ele>
        <time>2025-07-17T09:02:50.071Z</time>
      </trkpt>
      <trkpt lat="44.3943" lon="1.00681">
        <ele>142</ele>
        <time>2025-07-17T09:02:51.071Z</time>
      </trkpt>
      <trkpt lat="44.3943" lon="1.00681">
        <ele>142</ele>
        <time>2025-07-17T09:02:52.071Z</time>
      </trkpt>
      <trkpt lat="44.3943" lon="1.00681">
        <ele>142</ele>
        <time>2025-07-17T09:02:53.071Z</time>
      </trkpt>
      <trkpt lat="44.3943" lon="1.00681">
        <ele>141</ele>
        <time>2025-07-17T09:02:54.071Z</time>
      </trkpt>
      <trkpt lat="44.3943" lon="1.00681">
        <ele>142</ele>
        <time>2025-07-17T09:02:55.071Z</time>
      </trkpt>
      <trkpt lat="44.3943" lon="1.00681">
        <ele>142</ele>
        <time>2025-07-17T09:02:56.071Z</time>
      </trkpt>
      <trkpt lat="44.39429" lon="1.00681">
        <ele>142</ele>
        <time>2025-07-17T09:02:57.071Z</time>
      </trkpt>
      <trkpt lat="44.39429" lon="1.0068">
        <ele>142</ele>
        <time>2025-07-17T09:02:58.071Z</time>
      </trkpt>
      <trkpt lat="44.39429" lon="1.0068">
        <ele>142</ele>
        <time>2025-07-17T09:02:59.071Z</time>
      </trkpt>
      <trkpt lat="44.39429" lon="1.00679">
        <ele>142</ele>
        <time>2025-07-17T09:03:00.071Z</time>
      </trkpt>
      <trkpt lat="44.39429" lon="1.00679">
        <ele>142</ele>
        <time>2025-07-17T09:03:01.071Z</time>
      </trkpt>
      <trkpt lat="44.39429" lon="1.00679">
        <ele>142</ele>
        <time>2025-07-17T09:03:02.071Z</time>
      </trkpt>
      <trkpt lat="44.39429" lon="1.00679">
        <ele>142</ele>
        <time>2025-07-17T09:03:03.071Z</time>
      </trkpt>
      <trkpt lat="44.39429" lon="1.00679">
        <ele>141</ele>
        <time>2025-07-17T09:03:04.071Z</time>
      </trkpt>
      <trkpt lat="44.39429" lon="1.00679">
        <ele>141</ele>
        <time>2025-07-17T09:03:05.071Z</time>
      </trkpt>
      <trkpt lat="44.39429" lon="1.00679">
        <ele>141</ele>
        <time>2025-07-17T09:03:06.071Z</time>
      </trkpt>
      <trkpt lat="44.39429" lon="1.00679">
        <ele>141</ele>
        <time>2025-07-17T09:03:07.071Z</time>
      </trkpt>
      <trkpt lat="44.39429" lon="1.00679">
        <ele>141</ele>
        <time>2025-07-17T09:03:08.071Z</time>
      </trkpt>
      <trkpt lat="44.39429" lon="1.00679">
        <ele>141</ele>
        <time>2025-07-17T09:03:09.071Z</time>
      </trkpt>
      <trkpt lat="44.39428" lon="1.00679">
        <ele>142</ele>
        <time>2025-07-17T09:03:10.071Z</time>
      </trkpt>
      <trkpt lat="44.39428" lon="1.00679">
        <ele>142</ele>
        <time>2025-07-17T09:03:11.071Z</time>
      </trkpt>
      <trkpt lat="44.39428" lon="1.00679">
        <ele>143</ele>
        <time>2025-07-17T09:03:12.071Z</time>
      </trkpt>
      <trkpt lat="44.39428" lon="1.00678">
        <ele>143</ele>
        <time>2025-07-17T09:03:13.071Z</time>
      </trkpt>
      <trkpt lat="44.39428" lon="1.00678">
        <ele>144</ele>
        <time>2025-07-17T09:03:14.071Z</time>
      </trkpt>
      <trkpt lat="44.39427" lon="1.00678">
        <ele>144</ele>
        <time>2025-07-17T09:03:15.071Z</time>
      </trkpt>
      <trkpt lat="44.39427" lon="1.00678">
        <ele>144</ele>
        <time>2025-07-17T09:03:16.071Z</time>
      </trkpt>
      <trkpt lat="44.39427" lon="1.00678">
        <ele>144</ele>
        <time>2025-07-17T09:03:17.071Z</time>
      </trkpt>
      <trkpt lat="44.39427" lon="1.00678">
        <ele>144</ele>
        <time>2025-07-17T09:03:18.071Z</time>
      </trkpt>
      <trkpt lat="44.39427" lon="1.00678">
        <ele>144</ele>
        <time>2025-07-17T09:03:19.071Z</time>
      </trkpt>
      <trkpt lat="44.39427" lon="1.00677">
        <ele>144</ele>
        <time>2025-07-17T09:03:20.071Z</time>
      </trkpt>
      <trkpt lat="44.39427" lon="1.00676">
        <ele>144</ele>
        <time>2025-07-17T09:03:21.071Z</time>
      </trkpt>
      <trkpt lat="44.39427" lon="1.00675">
        <ele>144</ele>
        <time>2025-07-17T09:03:22.071Z</time>
      </trkpt>
      <trkpt lat="44.39427" lon="1.00674">
        <ele>144</ele>
        <time>2025-07-17T09:03:23.071Z</time>
      </trkpt>
      <trkpt lat="44.39427" lon="1.00673">
        <ele>143</ele>
        <time>2025-07-17T09:03:24.071Z</time>
      </trkpt>
      <trkpt lat="44.39427" lon="1.00672">
        <ele>143</ele>
        <time>2025-07-17T09:03:25.071Z</time>
      </trkpt>
      <trkpt lat="44.39426" lon="1.00671">
        <ele>143</ele>
        <time>2025-07-17T09:03:26.071Z</time>
      </trkpt>
      <trkpt lat="44.39426" lon="1.0067">
        <ele>143</ele>
        <time>2025-07-17T09:03:27.071Z</time>
      </trkpt>
      <trkpt lat="44.39426" lon="1.00668">
        <ele>143</ele>
        <time>2025-07-17T09:03:28.071Z</time>
      </trkpt>
      <trkpt lat="44.39426" lon="1.00667">
        <ele>143</ele>
        <time>2025-07-17T09:03:29.071Z</time>
      </trkpt>
      <trkpt lat="44.39425" lon="1.00666">
        <ele>143</ele>
        <time>2025-07-17T09:03:30.071Z</time>
      </trkpt>
      <trkpt lat="44.39425" lon="1.00664">
        <ele>143</ele>
        <time>2025-07-17T09:03:31.071Z</time>
      </trkpt>
      <trkpt lat="44.39425" lon="1.00663">
        <ele>143</ele>
        <time>2025-07-17T09:03:32.071Z</time>
      </trkpt>
      <trkpt lat="44.39424" lon="1.00661">
        <ele>143</ele>
        <time>2025-07-17T09:03:33.071Z</time>
      </trkpt>
      <trkpt lat="44.39424" lon="1.0066">
        <ele>143</ele>
        <time>2025-07-17T09:03:34.071Z</time>
      </trkpt>
      <trkpt lat="44.39423" lon="1.00659">
        <ele>143</ele>
        <time>2025-07-17T09:03:35.071Z</time>
      </trkpt>
      <trkpt lat="44.39423" lon="1.00658">
        <ele>144</ele>
        <time>2025-07-17T09:03:36.071Z</time>
      </trkpt>
      <trkpt lat="44.39422" lon="1.00657">
        <ele>144</ele>
        <time>2025-07-17T09:03:37.071Z</time>
      </trkpt>
      <trkpt lat="44.39422" lon="1.00655">
        <ele>145</ele>
        <time>2025-07-17T09:03:38.071Z</time>
      </trkpt>
      <trkpt lat="44.39421" lon="1.00654">
        <ele>145</ele>
        <time>2025-07-17T09:03:39.071Z</time>
      </trkpt>
      <trkpt lat="44.39421" lon="1.00652">
        <ele>145</ele>
        <time>2025-07-17T09:03:40.071Z</time>
      </trkpt>
      <trkpt lat="44.3942" lon="1.00651">
        <ele>145</ele>
        <time>2025-07-17T09:03:41.071Z</time>
      </trkpt>
      <trkpt lat="44.3942" lon="1.00649">
        <ele>145</ele>
        <time>2025-07-17T09:03:42.071Z</time>
      </trkpt>
      <trkpt lat="44.39419" lon="1.00648">
        <ele>144</ele>
        <time>2025-07-17T09:03:43.071Z</time>
      </trkpt>
      <trkpt lat="44.39419" lon="1.00647">
        <ele>144</ele>
        <time>2025-07-17T09:03:44.071Z</time>
      </trkpt>
      <trkpt lat="44.39418" lon="1.00645">
        <ele>144</ele>
        <time>2025-07-17T09:03:45.071Z</time>
      </trkpt>
      <trkpt lat="44.39418" lon="1.00645">
        <ele>144</ele>
        <time>2025-07-17T09:03:46.071Z</time>
      </trkpt>
      <trkpt lat="44.39418" lon="1.00644">
        <ele>145</ele>
        <time>2025-07-17T09:03:47.071Z</time>
      </trkpt>
      <trkpt lat="44.39417" lon="1.00643">
        <ele>145</ele>
        <time>2025-07-17T09:03:48.071Z</time>
      </trkpt>
      <trkpt lat="44.39417" lon="1.00642">
        <ele>145</ele>
        <time>2025-07-17T09:03:49.071Z</time>
      </trkpt>
      <trkpt lat="44.39417" lon="1.0064">
        <ele>146</ele>
        <time>2025-07-17T09:03:50.071Z</time>
      </trkpt>
      <trkpt lat="44.39416" lon="1.00639">
        <ele>146</ele>
        <time>2025-07-17T09:03:51.071Z</time>
      </trkpt>
      <trkpt lat="44.39416" lon="1.00638">
        <ele>146</ele>
        <time>2025-07-17T09:03:52.071Z</time>
      </trkpt>
      <trkpt lat="44.39416" lon="1.00637">
        <ele>146</ele>
        <time>2025-07-17T09:03:53.071Z</time>
      </trkpt>
      <trkpt lat="44.39416" lon="1.00636">
        <ele>146</ele>
        <time>2025-07-17T09:03:54.071Z</time>
      </trkpt>
      <trkpt lat="44.39415" lon="1.00635">
        <ele>146</ele>
        <time>2025-07-17T09:03:55.072Z</time>
      </trkpt>
      <trkpt lat="44.39415" lon="1.00634">
        <ele>146</ele>
        <time>2025-07-17T09:03:56.071Z</time>
      </trkpt>
      <trkpt lat="44.39414" lon="1.00632">
        <ele>146</ele>
        <time>2025-07-17T09:03:57.071Z</time>
      </trkpt>
      <trkpt lat="44.39414" lon="1.0063">
        <ele>146</ele>
        <time>2025-07-17T09:03:58.071Z</time>
      </trkpt>
      <trkpt lat="44.39413" lon="1.00629">
        <ele>145</ele>
        <time>2025-07-17T09:03:59.071Z</time>
      </trkpt>
      <trkpt lat="44.39413" lon="1.00628">
        <ele>145</ele>
        <time>2025-07-17T09:04:00.071Z</time>
      </trkpt>
      <trkpt lat="44.39412" lon="1.00627">
        <ele>145</ele>
        <time>2025-07-17T09:04:01.071Z</time>
      </trkpt>
      <trkpt lat="44.39411" lon="1.00625">
        <ele>145</ele>
        <time>2025-07-17T09:04:02.071Z</time>
      </trkpt>
      <trkpt lat="44.39411" lon="1.00624">
        <ele>145</ele>
        <time>2025-07-17T09:04:03.071Z</time>
      </trkpt>
      <trkpt lat="44.39411" lon="1.00622">
        <ele>145</ele>
        <time>2025-07-17T09:04:04.071Z</time>
      </trkpt>
      <trkpt lat="44.3941" lon="1.00621">
        <ele>144</ele>
        <time>2025-07-17T09:04:05.071Z</time>
      </trkpt>
      <trkpt lat="44.3941" lon="1.00619">
        <ele>144</ele>
        <time>2025-07-17T09:04:06.071Z</time>
      </trkpt>
      <trkpt lat="44.39409" lon="1.00618">
        <ele>143</ele>
        <time>2025-07-17T09:04:07.071Z</time>
      </trkpt>
      <trkpt lat="44.39409" lon="1.00616">
        <ele>143</ele>
        <time>2025-07-17T09:04:08.071Z</time>
      </trkpt>
      <trkpt lat="44.39409" lon="1.00615">
        <ele>143</ele>
        <time>2025-07-17T09:04:09.071Z</time>
      </trkpt>
      <trkpt lat="44.39408" lon="1.00613">
        <ele>143</ele>
        <time>2025-07-17T09:04:10.071Z</time>
      </trkpt>
      <trkpt lat="44.39408" lon="1.00612">
        <ele>143</ele>
        <time>2025-07-17T09:04:11.071Z</time>
      </trkpt>
      <trkpt lat="44.39407" lon="1.00611">
        <ele>143</ele>
        <time>2025-07-17T09:04:12.071Z</time>
      </trkpt>
      <trkpt lat="44.39407" lon="1.00609">
        <ele>143</ele>
        <time>2025-07-17T09:04:13.071Z</time>
      </trkpt>
      <trkpt lat="44.39406" lon="1.00608">
        <ele>143</ele>
        <time>2025-07-17T09:04:14.071Z</time>
      </trkpt>
      <trkpt lat="44.39406" lon="1.00606">
        <ele>143</ele>
        <time>2025-07-17T09:04:15.071Z</time>
      </trkpt>
      <trkpt lat="44.39406" lon="1.00605">
        <ele>142</ele>
        <time>2025-07-17T09:04:16.071Z</time>
      </trkpt>
      <trkpt lat="44.39405" lon="1.00603">
        <ele>142</ele>
        <time>2025-07-17T09:04:17.071Z</time>
      </trkpt>
      <trkpt lat="44.39405" lon="1.00602">
        <ele>143</ele>
        <time>2025-07-17T09:04:18.071Z</time>
      </trkpt>
      <trkpt lat="44.39405" lon="1.006">
        <ele>143</ele>
        <time>2025-07-17T09:04:19.071Z</time>
      </trkpt>
      <trkpt lat="44.39404" lon="1.00598">
        <ele>142</ele>
        <time>2025-07-17T09:04:20.071Z</time>
      </trkpt>
      <trkpt lat="44.39404" lon="1.00595">
        <ele>143</ele>
        <time>2025-07-17T09:04:21.071Z</time>
      </trkpt>
      <trkpt lat="44.39403" lon="1.00593">
        <ele>143</ele>
        <time>2025-07-17T09:04:22.071Z</time>
      </trkpt>
      <trkpt lat="44.39403" lon="1.00591">
        <ele>143</ele>
        <time>2025-07-17T09:04:23.071Z</time>
      </trkpt>
      <trkpt lat="44.39403" lon="1.0059">
        <ele>143</ele>
        <time>2025-07-17T09:04:24.071Z</time>
      </trkpt>
      <trkpt lat="44.39403" lon="1.00588">
        <ele>143</ele>
        <time>2025-07-17T09:04:25.071Z</time>
      </trkpt>
      <trkpt lat="44.39402" lon="1.00586">
        <ele>143</ele>
        <time>2025-07-17T09:04:26.071Z</time>
      </trkpt>
      <trkpt lat="44.39402" lon="1.00585">
        <ele>143</ele>
        <time>2025-07-17T09:04:27.071Z</time>
      </trkpt>
      <trkpt lat="44.39402" lon="1.00583">
        <ele>143</ele>
        <time>2025-07-17T09:04:28.071Z</time>
      </trkpt>
      <trkpt lat="44.39402" lon="1.00581">
        <ele>142</ele>
        <time>2025-07-17T09:04:29.071Z</time>
      </trkpt>
      <trkpt lat="44.39401" lon="1.0058">
        <ele>142</ele>
        <time>2025-07-17T09:04:30.071Z</time>
      </trkpt>
      <trkpt lat="44.39401" lon="1.00578">
        <ele>142</ele>
        <time>2025-07-17T09:04:31.071Z</time>
      </trkpt>
      <trkpt lat="44.394" lon="1.00577">
        <ele>142</ele>
        <time>2025-07-17T09:04:32.071Z</time>
      </trkpt>
      <trkpt lat="44.394" lon="1.00575">
        <ele>141</ele>
        <time>2025-07-17T09:04:33.071Z</time>
      </trkpt>
      <trkpt lat="44.39399" lon="1.00574">
        <ele>141</ele>
        <time>2025-07-17T09:04:34.071Z</time>
      </trkpt>
      <trkpt lat="44.39398" lon="1.00573">
        <ele>141</ele>
        <time>2025-07-17T09:04:35.071Z</time>
      </trkpt>
      <trkpt lat="44.39397" lon="1.00572">
        <ele>140</ele>
        <time>2025-07-17T09:04:36.071Z</time>
      </trkpt>
      <trkpt lat="44.39396" lon="1.00571">
        <ele>140</ele>
        <time>2025-07-17T09:04:37.071Z</time>
      </trkpt>
      <trkpt lat="44.39396" lon="1.0057">
        <ele>140</ele>
        <time>2025-07-17T09:04:38.071Z</time>
      </trkpt>
      <trkpt lat="44.39395" lon="1.00569">
        <ele>140</ele>
        <time>2025-07-17T09:04:39.071Z</time>
      </trkpt>
      <trkpt lat="44.39394" lon="1.00567">
        <ele>140</ele>
        <time>2025-07-17T09:04:40.071Z</time>
      </trkpt>
      <trkpt lat="44.39394" lon="1.00566">
        <ele>140</ele>
        <time>2025-07-17T09:04:41.071Z</time>
      </trkpt>
      <trkpt lat="44.39393" lon="1.00565">
        <ele>140</ele>
        <time>2025-07-17T09:04:42.071Z</time>
      </trkpt>
      <trkpt lat="44.39393" lon="1.00563">
        <ele>140</ele>
        <time>2025-07-17T09:04:43.071Z</time>
      </trkpt>
      <trkpt lat="44.39392" lon="1.00561">
        <ele>140</ele>
        <time>2025-07-17T09:04:44.071Z</time>
      </trkpt>
      <trkpt lat="44.39392" lon="1.0056">
        <ele>140</ele>
        <time>2025-07-17T09:04:45.071Z</time>
      </trkpt>
      <trkpt lat="44.39391" lon="1.00558">
        <ele>140</ele>
        <time>2025-07-17T09:04:46.071Z</time>
      </trkpt>
      <trkpt lat="44.39391" lon="1.00556">
        <ele>140</ele>
        <time>2025-07-17T09:04:47.071Z</time>
      </trkpt>
      <trkpt lat="44.3939" lon="1.00555">
        <ele>140</ele>
        <time>2025-07-17T09:04:48.071Z</time>
      </trkpt>
      <trkpt lat="44.3939" lon="1.00554">
        <ele>140</ele>
        <time>2025-07-17T09:04:49.071Z</time>
      </trkpt>
      <trkpt lat="44.39389" lon="1.00552">
        <ele>140</ele>
        <time>2025-07-17T09:04:50.071Z</time>
      </trkpt>
      <trkpt lat="44.39389" lon="1.00551">
        <ele>140</ele>
        <time>2025-07-17T09:04:51.071Z</time>
      </trkpt>
      <trkpt lat="44.39388" lon="1.00549">
        <ele>140</ele>
        <time>2025-07-17T09:04:52.071Z</time>
      </trkpt>
      <trkpt lat="44.39388" lon="1.00547">
        <ele>140</ele>
        <time>2025-07-17T09:04:53.071Z</time>
      </trkpt>
      <trkpt lat="44.39387" lon="1.00545">
        <ele>140</ele>
        <time>2025-07-17T09:04:54.071Z</time>
      </trkpt>
      <trkpt lat="44.39387" lon="1.00544">
        <ele>139</ele>
        <time>2025-07-17T09:04:55.071Z</time>
      </trkpt>
      <trkpt lat="44.39387" lon="1.00542">
        <ele>139</ele>
        <time>2025-07-17T09:04:56.071Z</time>
      </trkpt>
      <trkpt lat="44.39386" lon="1.00541">
        <ele>139</ele>
        <time>2025-07-17T09:04:57.071Z</time>
      </trkpt>
      <trkpt lat="44.39385" lon="1.0054">
        <ele>138</ele>
        <time>2025-07-17T09:04:58.071Z</time>
      </trkpt>
      <trkpt lat="44.39385" lon="1.00539">
        <ele>138</ele>
        <time>2025-07-17T09:04:59.071Z</time>
      </trkpt>
      <trkpt lat="44.39385" lon="1.00537">
        <ele>138</ele>
        <time>2025-07-17T09:05:00.071Z</time>
      </trkpt>
      <trkpt lat="44.39384" lon="1.00536">
        <ele>137</ele>
        <time>2025-07-17T09:05:01.071Z</time>
      </trkpt>
      <trkpt lat="44.39384" lon="1.00535">
        <ele>137</ele>
        <time>2025-07-17T09:05:02.071Z</time>
      </trkpt>
      <trkpt lat="44.39384" lon="1.00534">
        <ele>137</ele>
        <time>2025-07-17T09:05:03.071Z</time>
      </trkpt>
      <trkpt lat="44.39383" lon="1.00533">
        <ele>137</ele>
        <time>2025-07-17T09:05:04.071Z</time>
      </trkpt>
      <trkpt lat="44.39382" lon="1.00532">
        <ele>137</ele>
        <time>2025-07-17T09:05:05.071Z</time>
      </trkpt>
      <trkpt lat="44.39381" lon="1.00531">
        <ele>138</ele>
        <time>2025-07-17T09:05:06.071Z</time>
      </trkpt>
      <trkpt lat="44.39381" lon="1.0053">
        <ele>138</ele>
        <time>2025-07-17T09:05:07.071Z</time>
      </trkpt>
      <trkpt lat="44.39381" lon="1.00529">
        <ele>138</ele>
        <time>2025-07-17T09:05:08.071Z</time>
      </trkpt>
      <trkpt lat="44.3938" lon="1.00528">
        <ele>138</ele>
        <time>2025-07-17T09:05:09.071Z</time>
      </trkpt>
      <trkpt lat="44.3938" lon="1.00526">
        <ele>138</ele>
        <time>2025-07-17T09:05:10.071Z</time>
      </trkpt>
      <trkpt lat="44.39379" lon="1.00524">
        <ele>138</ele>
        <time>2025-07-17T09:05:11.071Z</time>
      </trkpt>
      <trkpt lat="44.39379" lon="1.00523">
        <ele>138</ele>
        <time>2025-07-17T09:05:12.071Z</time>
      </trkpt>
      <trkpt lat="44.39378" lon="1.00522">
        <ele>138</ele>
        <time>2025-07-17T09:05:13.072Z</time>
      </trkpt>
      <trkpt lat="44.39378" lon="1.00521">
        <ele>138</ele>
        <time>2025-07-17T09:05:14.071Z</time>
      </trkpt>
      <trkpt lat="44.39377" lon="1.0052">
        <ele>138</ele>
        <time>2025-07-17T09:05:15.071Z</time>
      </trkpt>
      <trkpt lat="44.39377" lon="1.00518">
        <ele>138</ele>
        <time>2025-07-17T09:05:16.071Z</time>
      </trkpt>
      <trkpt lat="44.39376" lon="1.00515">
        <ele>138</ele>
        <time>2025-07-17T09:05:17.071Z</time>
      </trkpt>
      <trkpt lat="44.39376" lon="1.00514">
        <ele>138</ele>
        <time>2025-07-17T09:05:18.072Z</time>
      </trkpt>
      <trkpt lat="44.39376" lon="1.00513">
        <ele>139</ele>
        <time>2025-07-17T09:05:19.071Z</time>
      </trkpt>
      <trkpt lat="44.39375" lon="1.00511">
        <ele>139</ele>
        <time>2025-07-17T09:05:20.071Z</time>
      </trkpt>
      <trkpt lat="44.39374" lon="1.0051">
        <ele>139</ele>
        <time>2025-07-17T09:05:21.071Z</time>
      </trkpt>
      <trkpt lat="44.39374" lon="1.00509">
        <ele>139</ele>
        <time>2025-07-17T09:05:22.071Z</time>
      </trkpt>
      <trkpt lat="44.39373" lon="1.00507">
        <ele>139</ele>
        <time>2025-07-17T09:05:23.071Z</time>
      </trkpt>
      <trkpt lat="44.39373" lon="1.00506">
        <ele>139</ele>
        <time>2025-07-17T09:05:24.071Z</time>
      </trkpt>
      <trkpt lat="44.39372" lon="1.00505">
        <ele>139</ele>
        <time>2025-07-17T09:05:25.071Z</time>
      </trkpt>
      <trkpt lat="44.39372" lon="1.00504">
        <ele>139</ele>
        <time>2025-07-17T09:05:26.071Z</time>
      </trkpt>
      <trkpt lat="44.39371" lon="1.00502">
        <ele>139</ele>
        <time>2025-07-17T09:05:27.071Z</time>
      </trkpt>
      <trkpt lat="44.3937" lon="1.00501">
        <ele>139</ele>
        <time>2025-07-17T09:05:28.071Z</time>
      </trkpt>
      <trkpt lat="44.3937" lon="1.005">
        <ele>138</ele>
        <time>2025-07-17T09:05:29.071Z</time>
      </trkpt>
      <trkpt lat="44.39369" lon="1.00498">
        <ele>138</ele>
        <time>2025-07-17T09:05:30.071Z</time>
      </trkpt>
      <trkpt lat="44.39368" lon="1.00497">
        <ele>138</ele>
        <time>2025-07-17T09:05:31.071Z</time>
      </trkpt>
      <trkpt lat="44.39368" lon="1.00495">
        <ele>137</ele>
        <time>2025-07-17T09:05:32.071Z</time>
      </trkpt>
      <trkpt lat="44.39367" lon="1.00494">
        <ele>137</ele>
        <time>2025-07-17T09:05:33.071Z</time>
      </trkpt>
      <trkpt lat="44.39367" lon="1.00493">
        <ele>136</ele>
        <time>2025-07-17T09:05:34.071Z</time>
      </trkpt>
      <trkpt lat="44.39366" lon="1.00491">
        <ele>136</ele>
        <time>2025-07-17T09:05:35.071Z</time>
      </trkpt>
      <trkpt lat="44.39365" lon="1.0049">
        <ele>136</ele>
        <time>2025-07-17T09:05:36.071Z</time>
      </trkpt>
      <trkpt lat="44.39365" lon="1.00489">
        <ele>136</ele>
        <time>2025-07-17T09:05:37.071Z</time>
      </trkpt>
      <trkpt lat="44.39365" lon="1.00487">
        <ele>135</ele>
        <time>2025-07-17T09:05:38.071Z</time>
      </trkpt>
      <trkpt lat="44.39364" lon="1.00486">
        <ele>135</ele>
        <time>2025-07-17T09:05:39.072Z</time>
      </trkpt>
      <trkpt lat="44.39364" lon="1.00485">
        <ele>135</ele>
        <time>2025-07-17T09:05:40.071Z</time>
      </trkpt>
      <trkpt lat="44.39363" lon="1.00484">
        <ele>135</ele>
        <time>2025-07-17T09:05:41.071Z</time>
      </trkpt>
      <trkpt lat="44.39362" lon="1.00483">
        <ele>135</ele>
        <time>2025-07-17T09:05:42.071Z</time>
      </trkpt>
      <trkpt lat="44.39362" lon="1.00483">
        <ele>134</ele>
        <time>2025-07-17T09:05:43.071Z</time>
      </trkpt>
      <trkpt lat="44.39361" lon="1.00482">
        <ele>134</ele>
        <time>2025-07-17T09:05:44.071Z</time>
      </trkpt>
      <trkpt lat="44.39361" lon="1.0048">
        <ele>134</ele>
        <time>2025-07-17T09:05:45.071Z</time>
      </trkpt>
      <trkpt lat="44.3936" lon="1.00479">
        <ele>134</ele>
        <time>2025-07-17T09:05:46.071Z</time>
      </trkpt>
      <trkpt lat="44.39359" lon="1.00477">
        <ele>134</ele>
        <time>2025-07-17T09:05:47.071Z</time>
      </trkpt>
      <trkpt lat="44.39359" lon="1.00475">
        <ele>134</ele>
        <time>2025-07-17T09:05:48.071Z</time>
      </trkpt>
      <trkpt lat="44.39358" lon="1.00473">
        <ele>134</ele>
        <time>2025-07-17T09:05:49.071Z</time>
      </trkpt>
      <trkpt lat="44.39358" lon="1.00471">
        <ele>134</ele>
        <time>2025-07-17T09:05:50.071Z</time>
      </trkpt>
      <trkpt lat="44.39357" lon="1.00469">
        <ele>134</ele>
        <time>2025-07-17T09:05:51.071Z</time>
      </trkpt>
      <trkpt lat="44.39357" lon="1.00467">
        <ele>134</ele>
        <time>2025-07-17T09:05:52.071Z</time>
      </trkpt>
      <trkpt lat="44.39356" lon="1.00466">
        <ele>134</ele>
        <time>2025-07-17T09:05:53.071Z</time>
      </trkpt>
      <trkpt lat="44.39356" lon="1.00464">
        <ele>134</ele>
        <time>2025-07-17T09:05:54.071Z</time>
      </trkpt>
      <trkpt lat="44.39355" lon="1.00463">
        <ele>134</ele>
        <time>2025-07-17T09:05:55.071Z</time>
      </trkpt>
      <trkpt lat="44.39354" lon="1.00461">
        <ele>134</ele>
        <time>2025-07-17T09:05:56.071Z</time>
      </trkpt>
      <trkpt lat="44.39354" lon="1.0046">
        <ele>134</ele>
        <time>2025-07-17T09:05:57.071Z</time>
      </trkpt>
      <trkpt lat="44.39353" lon="1.00458">
        <ele>134</ele>
        <time>2025-07-17T09:05:58.071Z</time>
      </trkpt>
      <trkpt lat="44.39353" lon="1.00457">
        <ele>134</ele>
        <time>2025-07-17T09:05:59.071Z</time>
      </trkpt>
      <trkpt lat="44.39352" lon="1.00455">
        <ele>133</ele>
        <time>2025-07-17T09:06:00.071Z</time>
      </trkpt>
      <trkpt lat="44.39352" lon="1.00454">
        <ele>133</ele>
        <time>2025-07-17T09:06:01.071Z</time>
      </trkpt>
      <trkpt lat="44.39352" lon="1.00452">
        <ele>133</ele>
        <time>2025-07-17T09:06:02.071Z</time>
      </trkpt>
      <trkpt lat="44.39352" lon="1.00451">
        <ele>133</ele>
        <time>2025-07-17T09:06:03.071Z</time>
      </trkpt>
      <trkpt lat="44.39351" lon="1.0045">
        <ele>133</ele>
        <time>2025-07-17T09:06:04.071Z</time>
      </trkpt>
      <trkpt lat="44.39351" lon="1.00448">
        <ele>133</ele>
        <time>2025-07-17T09:06:05.071Z</time>
      </trkpt>
      <trkpt lat="44.3935" lon="1.00447">
        <ele>133</ele>
        <time>2025-07-17T09:06:06.071Z</time>
      </trkpt>
      <trkpt lat="44.39349" lon="1.00445">
        <ele>133</ele>
        <time>2025-07-17T09:06:07.071Z</time>
      </trkpt>
      <trkpt lat="44.39349" lon="1.00445">
        <ele>133</ele>
        <time>2025-07-17T09:06:08.071Z</time>
      </trkpt>
      <trkpt lat="44.39348" lon="1.00444">
        <ele>133</ele>
        <time>2025-07-17T09:06:09.071Z</time>
      </trkpt>
      <trkpt lat="44.39347" lon="1.00443">
        <ele>133</ele>
        <time>2025-07-17T09:06:10.071Z</time>
      </trkpt>
      <trkpt lat="44.39346" lon="1.00441">
        <ele>133</ele>
        <time>2025-07-17T09:06:11.071Z</time>
      </trkpt>
      <trkpt lat="44.39346" lon="1.00441">
        <ele>133</ele>
        <time>2025-07-17T09:06:12.071Z</time>
      </trkpt>
      <trkpt lat="44.39345" lon="1.00439">
        <ele>133</ele>
        <time>2025-07-17T09:06:13.071Z</time>
      </trkpt>
      <trkpt lat="44.39345" lon="1.00438">
        <ele>133</ele>
        <time>2025-07-17T09:06:14.071Z</time>
      </trkpt>
      <trkpt lat="44.39344" lon="1.00436">
        <ele>133</ele>
        <time>2025-07-17T09:06:15.071Z</time>
      </trkpt>
      <trkpt lat="44.39344" lon="1.00435">
        <ele>133</ele>
        <time>2025-07-17T09:06:16.071Z</time>
      </trkpt>
      <trkpt lat="44.39343" lon="1.00434">
        <ele>133</ele>
        <time>2025-07-17T09:06:17.071Z</time>
      </trkpt>
      <trkpt lat="44.39342" lon="1.00432">
        <ele>133</ele>
        <time>2025-07-17T09:06:18.071Z</time>
      </trkpt>
      <trkpt lat="44.39342" lon="1.00431">
        <ele>133</ele>
        <time>2025-07-17T09:06:19.071Z</time>
      </trkpt>
      <trkpt lat="44.39341" lon="1.0043">
        <ele>133</ele>
        <time>2025-07-17T09:06:20.071Z</time>
      </trkpt>
      <trkpt lat="44.3934" lon="1.00429">
        <ele>133</ele>
        <time>2025-07-17T09:06:21.071Z</time>
      </trkpt>
      <trkpt lat="44.39339" lon="1.00428">
        <ele>134</ele>
        <time>2025-07-17T09:06:22.071Z</time>
      </trkpt>
      <trkpt lat="44.39339" lon="1.00427">
        <ele>134</ele>
        <time>2025-07-17T09:06:23.071Z</time>
      </trkpt>
      <trkpt lat="44.39338" lon="1.00426">
        <ele>134</ele>
        <time>2025-07-17T09:06:24.071Z</time>
      </trkpt>
      <trkpt lat="44.39337" lon="1.00424">
        <ele>134</ele>
        <time>2025-07-17T09:06:25.071Z</time>
      </trkpt>
      <trkpt lat="44.39336" lon="1.00423">
        <ele>134</ele>
        <time>2025-07-17T09:06:26.071Z</time>
      </trkpt>
      <trkpt lat="44.39335" lon="1.00422">
        <ele>134</ele>
        <time>2025-07-17T09:06:27.071Z</time>
      </trkpt>
      <trkpt lat="44.39334" lon="1.00421">
        <ele>134</ele>
        <time>2025-07-17T09:06:28.071Z</time>
      </trkpt>
      <trkpt lat="44.39334" lon="1.00419">
        <ele>133</ele>
        <time>2025-07-17T09:06:29.071Z</time>
      </trkpt>
      <trkpt lat="44.39333" lon="1.00418">
        <ele>133</ele>
        <time>2025-07-17T09:06:30.071Z</time>
      </trkpt>
      <trkpt lat="44.39332" lon="1.00417">
        <ele>133</ele>
        <time>2025-07-17T09:06:31.071Z</time>
      </trkpt>
      <trkpt lat="44.39331" lon="1.00416">
        <ele>133</ele>
        <time>2025-07-17T09:06:32.071Z</time>
      </trkpt>
      <trkpt lat="44.39331" lon="1.00414">
        <ele>133</ele>
        <time>2025-07-17T09:06:33.071Z</time>
      </trkpt>
      <trkpt lat="44.3933" lon="1.00413">
        <ele>132</ele>
        <time>2025-07-17T09:06:34.071Z</time>
      </trkpt>
      <trkpt lat="44.3933" lon="1.00411">
        <ele>132</ele>
        <time>2025-07-17T09:06:35.071Z</time>
      </trkpt>
      <trkpt lat="44.3933" lon="1.00411">
        <ele>132</ele>
        <time>2025-07-17T09:06:36.071Z</time>
      </trkpt>
      <trkpt lat="44.39329" lon="1.0041">
        <ele>131</ele>
        <time>2025-07-17T09:06:37.071Z</time>
      </trkpt>
      <trkpt lat="44.39329" lon="1.00409">
        <ele>131</ele>
        <time>2025-07-17T09:06:38.071Z</time>
      </trkpt>
      <trkpt lat="44.39328" lon="1.00408">
        <ele>131</ele>
        <time>2025-07-17T09:06:39.071Z</time>
      </trkpt>
      <trkpt lat="44.39327" lon="1.00406">
        <ele>130</ele>
        <time>2025-07-17T09:06:40.071Z</time>
      </trkpt>
      <trkpt lat="44.39327" lon="1.00404">
        <ele>130</ele>
        <time>2025-07-17T09:06:41.071Z</time>
      </trkpt>
      <trkpt lat="44.39327" lon="1.00403">
        <ele>130</ele>
        <time>2025-07-17T09:06:42.072Z</time>
      </trkpt>
      <trkpt lat="44.39326" lon="1.00402">
        <ele>130</ele>
        <time>2025-07-17T09:06:43.071Z</time>
      </trkpt>
      <trkpt lat="44.39325" lon="1.00401">
        <ele>130</ele>
        <time>2025-07-17T09:06:44.071Z</time>
      </trkpt>
      <trkpt lat="44.39324" lon="1.004">
        <ele>130</ele>
        <time>2025-07-17T09:06:45.071Z</time>
      </trkpt>
      <trkpt lat="44.39323" lon="1.00398">
        <ele>130</ele>
        <time>2025-07-17T09:06:46.071Z</time>
      </trkpt>
      <trkpt lat="44.39323" lon="1.00397">
        <ele>129</ele>
        <time>2025-07-17T09:06:47.071Z</time>
      </trkpt>
      <trkpt lat="44.39322" lon="1.00396">
        <ele>129</ele>
        <time>2025-07-17T09:06:48.071Z</time>
      </trkpt>
      <trkpt lat="44.39321" lon="1.00394">
        <ele>129</ele>
        <time>2025-07-17T09:06:49.071Z</time>
      </trkpt>
      <trkpt lat="44.3932" lon="1.00393">
        <ele>129</ele>
        <time>2025-07-17T09:06:50.072Z</time>
      </trkpt>
      <trkpt lat="44.39319" lon="1.00391">
        <ele>129</ele>
        <time>2025-07-17T09:06:51.071Z</time>
      </trkpt>
      <trkpt lat="44.39318" lon="1.0039">
        <ele>129</ele>
        <time>2025-07-17T09:06:52.071Z</time>
      </trkpt>
      <trkpt lat="44.39317" lon="1.00388">
        <ele>128</ele>
        <time>2025-07-17T09:06:53.071Z</time>
      </trkpt>
      <trkpt lat="44.39317" lon="1.00387">
        <ele>128</ele>
        <time>2025-07-17T09:06:54.071Z</time>
      </trkpt>
      <trkpt lat="44.39317" lon="1.00385">
        <ele>128</ele>
        <time>2025-07-17T09:06:55.071Z</time>
      </trkpt>
      <trkpt lat="44.39316" lon="1.00383">
        <ele>128</ele>
        <time>2025-07-17T09:06:56.071Z</time>
      </trkpt>
      <trkpt lat="44.39315" lon="1.00382">
        <ele>128</ele>
        <time>2025-07-17T09:06:57.071Z</time>
      </trkpt>
      <trkpt lat="44.39315" lon="1.0038">
        <ele>128</ele>
        <time>2025-07-17T09:06:58.071Z</time>
      </trkpt>
      <trkpt lat="44.39314" lon="1.00379">
        <ele>128</ele>
        <time>2025-07-17T09:06:59.072Z</time>
      </trkpt>
      <trkpt lat="44.39313" lon="1.00377">
        <ele>128</ele>
        <time>2025-07-17T09:07:00.071Z</time>
      </trkpt>
      <trkpt lat="44.39312" lon="1.00376">
        <ele>128</ele>
        <time>2025-07-17T09:07:01.071Z</time>
      </trkpt>
      <trkpt lat="44.39311" lon="1.00374">
        <ele>128</ele>
        <time>2025-07-17T09:07:02.071Z</time>
      </trkpt>
      <trkpt lat="44.39311" lon="1.00373">
        <ele>128</ele>
        <time>2025-07-17T09:07:03.071Z</time>
      </trkpt>
      <trkpt lat="44.3931" lon="1.00372">
        <ele>128</ele>
        <time>2025-07-17T09:07:04.071Z</time>
      </trkpt>
      <trkpt lat="44.39309" lon="1.0037">
        <ele>128</ele>
        <time>2025-07-17T09:07:05.071Z</time>
      </trkpt>
      <trkpt lat="44.39308" lon="1.00369">
        <ele>128</ele>
        <time>2025-07-17T09:07:06.071Z</time>
      </trkpt>
      <trkpt lat="44.39307" lon="1.00367">
        <ele>128</ele>
        <time>2025-07-17T09:07:07.071Z</time>
      </trkpt>
      <trkpt lat="44.39306" lon="1.00366">
        <ele>128</ele>
        <time>2025-07-17T09:07:08.071Z</time>
      </trkpt>
      <trkpt lat="44.39306" lon="1.00365">
        <ele>128</ele>
        <time>2025-07-17T09:07:09.071Z</time>
      </trkpt>
      <trkpt lat="44.39305" lon="1.00364">
        <ele>128</ele>
        <time>2025-07-17T09:07:10.071Z</time>
      </trkpt>
      <trkpt lat="44.39304" lon="1.00363">
        <ele>128</ele>
        <time>2025-07-17T09:07:11.071Z</time>
      </trkpt>
      <trkpt lat="44.39303" lon="1.00362">
        <ele>129</ele>
        <time>2025-07-17T09:07:12.071Z</time>
      </trkpt>
      <trkpt lat="44.39302" lon="1.00361">
        <ele>129</ele>
        <time>2025-07-17T09:07:13.071Z</time>
      </trkpt>
      <trkpt lat="44.39301" lon="1.0036">
        <ele>129</ele>
        <time>2025-07-17T09:07:14.071Z</time>
      </trkpt>
      <trkpt lat="44.39301" lon="1.00359">
        <ele>129</ele>
        <time>2025-07-17T09:07:15.071Z</time>
      </trkpt>
      <trkpt lat="44.393" lon="1.00358">
        <ele>129</ele>
        <time>2025-07-17T09:07:16.071Z</time>
      </trkpt>
      <trkpt lat="44.39299" lon="1.00358">
        <ele>130</ele>
        <time>2025-07-17T09:07:17.071Z</time>
      </trkpt>
      <trkpt lat="44.39298" lon="1.00357">
        <ele>130</ele>
        <time>2025-07-17T09:07:18.071Z</time>
      </trkpt>
      <trkpt lat="44.39297" lon="1.00355">
        <ele>130</ele>
        <time>2025-07-17T09:07:19.071Z</time>
      </trkpt>
      <trkpt lat="44.39296" lon="1.00354">
        <ele>130</ele>
        <time>2025-07-17T09:07:20.071Z</time>
      </trkpt>
      <trkpt lat="44.39295" lon="1.00352">
        <ele>130</ele>
        <time>2025-07-17T09:07:21.071Z</time>
      </trkpt>
      <trkpt lat="44.39295" lon="1.0035">
        <ele>130</ele>
        <time>2025-07-17T09:07:22.071Z</time>
      </trkpt>
      <trkpt lat="44.39295" lon="1.00348">
        <ele>131</ele>
        <time>2025-07-17T09:07:23.071Z</time>
      </trkpt>
      <trkpt lat="44.39295" lon="1.00347">
        <ele>131</ele>
        <time>2025-07-17T09:07:24.071Z</time>
      </trkpt>
      <trkpt lat="44.39294" lon="1.00345">
        <ele>131</ele>
        <time>2025-07-17T09:07:25.071Z</time>
      </trkpt>
      <trkpt lat="44.39294" lon="1.00344">
        <ele>131</ele>
        <time>2025-07-17T09:07:26.071Z</time>
      </trkpt>
      <trkpt lat="44.39294" lon="1.00342">
        <ele>131</ele>
        <time>2025-07-17T09:07:27.072Z</time>
      </trkpt>
      <trkpt lat="44.39294" lon="1.00341">
        <ele>131</ele>
        <time>2025-07-17T09:07:28.071Z</time>
      </trkpt>
      <trkpt lat="44.39294" lon="1.00338">
        <ele>131</ele>
        <time>2025-07-17T09:07:29.071Z</time>
      </trkpt>
      <trkpt lat="44.39294" lon="1.00337">
        <ele>131</ele>
        <time>2025-07-17T09:07:30.071Z</time>
      </trkpt>
      <trkpt lat="44.39294" lon="1.00335">
        <ele>131</ele>
        <time>2025-07-17T09:07:31.071Z</time>
      </trkpt>
      <trkpt lat="44.39293" lon="1.00333">
        <ele>131</ele>
        <time>2025-07-17T09:07:32.071Z</time>
      </trkpt>
      <trkpt lat="44.39293" lon="1.00332">
        <ele>131</ele>
        <time>2025-07-17T09:07:33.071Z</time>
      </trkpt>
      <trkpt lat="44.39293" lon="1.0033">
        <ele>131</ele>
        <time>2025-07-17T09:07:34.071Z</time>
      </trkpt>
      <trkpt lat="44.39293" lon="1.00328">
        <ele>131</ele>
        <time>2025-07-17T09:07:35.071Z</time>
      </trkpt>
      <trkpt lat="44.39293" lon="1.00327">
        <ele>131</ele>
        <time>2025-07-17T09:07:36.071Z</time>
      </trkpt>
      <trkpt lat="44.39293" lon="1.00326">
        <ele>131</ele>
        <time>2025-07-17T09:07:37.071Z</time>
      </trkpt>
      <trkpt lat="44.39293" lon="1.00325">
        <ele>131</ele>
        <time>2025-07-17T09:07:38.071Z</time>
      </trkpt>
      <trkpt lat="44.39293" lon="1.00323">
        <ele>131</ele>
        <time>2025-07-17T09:07:39.071Z</time>
      </trkpt>
      <trkpt lat="44.39293" lon="1.00322">
        <ele>131</ele>
        <time>2025-07-17T09:07:40.071Z</time>
      </trkpt>
      <trkpt lat="44.39293" lon="1.00322">
        <ele>130</ele>
        <time>2025-07-17T09:07:41.071Z</time>
      </trkpt>
      <trkpt lat="44.39292" lon="1.0032">
        <ele>130</ele>
        <time>2025-07-17T09:07:42.071Z</time>
      </trkpt>
      <trkpt lat="44.39292" lon="1.00319">
        <ele>130</ele>
        <time>2025-07-17T09:07:43.071Z</time>
      </trkpt>
      <trkpt lat="44.39292" lon="1.00317">
        <ele>130</ele>
        <time>2025-07-17T09:07:44.071Z</time>
      </trkpt>
      <trkpt lat="44.39292" lon="1.00316">
        <ele>130</ele>
        <time>2025-07-17T09:07:45.071Z</time>
      </trkpt>
      <trkpt lat="44.39293" lon="1.00315">
        <ele>130</ele>
        <time>2025-07-17T09:07:46.071Z</time>
      </trkpt>
      <trkpt lat="44.39293" lon="1.00314">
        <ele>130</ele>
        <time>2025-07-17T09:07:47.071Z</time>
      </trkpt>
      <trkpt lat="44.39293" lon="1.00313">
        <ele>129</ele>
        <time>2025-07-17T09:07:48.071Z</time>
      </trkpt>
      <trkpt lat="44.39292" lon="1.00312">
        <ele>129</ele>
        <time>2025-07-17T09:07:49.071Z</time>
      </trkpt>
      <trkpt lat="44.39292" lon="1.00311">
        <ele>129</ele>
        <time>2025-07-17T09:07:50.071Z</time>
      </trkpt>
      <trkpt lat="44.39292" lon="1.00309">
        <ele>128</ele>
        <time>2025-07-17T09:07:51.071Z</time>
      </trkpt>
      <trkpt lat="44.39292" lon="1.00307">
        <ele>128</ele>
        <time>2025-07-17T09:07:52.071Z</time>
      </trkpt>
      <trkpt lat="44.39292" lon="1.00305">
        <ele>128</ele>
        <time>2025-07-17T09:07:53.071Z</time>
      </trkpt>
      <trkpt lat="44.39292" lon="1.00304">
        <ele>127</ele>
        <time>2025-07-17T09:07:54.071Z</time>
      </trkpt>
      <trkpt lat="44.39292" lon="1.00302">
        <ele>127</ele>
        <time>2025-07-17T09:07:55.072Z</time>
      </trkpt>
      <trkpt lat="44.39292" lon="1.003">
        <ele>127</ele>
        <time>2025-07-17T09:07:56.071Z</time>
      </trkpt>
      <trkpt lat="44.39292" lon="1.00298">
        <ele>127</ele>
        <time>2025-07-17T09:07:57.071Z</time>
      </trkpt>
      <trkpt lat="44.39292" lon="1.00297">
        <ele>127</ele>
        <time>2025-07-17T09:07:58.071Z</time>
      </trkpt>
      <trkpt lat="44.39292" lon="1.00295">
        <ele>127</ele>
        <time>2025-07-17T09:07:59.071Z</time>
      </trkpt>
      <trkpt lat="44.39292" lon="1.00294">
        <ele>127</ele>
        <time>2025-07-17T09:08:00.071Z</time>
      </trkpt>
      <trkpt lat="44.39292" lon="1.00292">
        <ele>127</ele>
        <time>2025-07-17T09:08:01.071Z</time>
      </trkpt>
      <trkpt lat="44.39292" lon="1.0029">
        <ele>127</ele>
        <time>2025-07-17T09:08:02.071Z</time>
      </trkpt>
      <trkpt lat="44.39292" lon="1.00288">
        <ele>127</ele>
        <time>2025-07-17T09:08:03.071Z</time>
      </trkpt>
      <trkpt lat="44.39293" lon="1.00287">
        <ele>127</ele>
        <time>2025-07-17T09:08:04.071Z</time>
      </trkpt>
      <trkpt lat="44.39293" lon="1.00285">
        <ele>127</ele>
        <time>2025-07-17T09:08:05.071Z</time>
      </trkpt>
      <trkpt lat="44.39293" lon="1.00283">
        <ele>127</ele>
        <time>2025-07-17T09:08:06.071Z</time>
      </trkpt>
      <trkpt lat="44.39293" lon="1.00282">
        <ele>127</ele>
        <time>2025-07-17T09:08:07.071Z</time>
      </trkpt>
      <trkpt lat="44.39293" lon="1.0028">
        <ele>127</ele>
        <time>2025-07-17T09:08:08.071Z</time>
      </trkpt>
      <trkpt lat="44.39293" lon="1.00278">
        <ele>127</ele>
        <time>2025-07-17T09:08:09.071Z</time>
      </trkpt>
      <trkpt lat="44.39293" lon="1.00277">
        <ele>127</ele>
        <time>2025-07-17T09:08:10.071Z</time>
      </trkpt>
      <trkpt lat="44.39294" lon="1.00275">
        <ele>127</ele>
        <time>2025-07-17T09:08:11.071Z</time>
      </trkpt>
      <trkpt lat="44.39294" lon="1.00273">
        <ele>127</ele>
        <time>2025-07-17T09:08:12.071Z</time>
      </trkpt>
      <trkpt lat="44.39294" lon="1.00272">
        <ele>127</ele>
        <time>2025-07-17T09:08:13.071Z</time>
      </trkpt>
      <trkpt lat="44.39295" lon="1.0027">
        <ele>126</ele>
        <time>2025-07-17T09:08:14.071Z</time>
      </trkpt>
      <trkpt lat="44.39295" lon="1.00268">
        <ele>126</ele>
        <time>2025-07-17T09:08:15.071Z</time>
      </trkpt>
      <trkpt lat="44.39295" lon="1.00266">
        <ele>126</ele>
        <time>2025-07-17T09:08:16.071Z</time>
      </trkpt>
      <trkpt lat="44.39296" lon="1.00264">
        <ele>126</ele>
        <time>2025-07-17T09:08:17.071Z</time>
      </trkpt>
      <trkpt lat="44.39296" lon="1.00262">
        <ele>126</ele>
        <time>2025-07-17T09:08:18.072Z</time>
      </trkpt>
      <trkpt lat="44.39297" lon="1.0026">
        <ele>126</ele>
        <time>2025-07-17T09:08:19.071Z</time>
      </trkpt>
      <trkpt lat="44.39297" lon="1.00259">
        <ele>126</ele>
        <time>2025-07-17T09:08:20.071Z</time>
      </trkpt>
      <trkpt lat="44.39298" lon="1.00257">
        <ele>126</ele>
        <time>2025-07-17T09:08:21.071Z</time>
      </trkpt>
      <trkpt lat="44.39298" lon="1.00255">
        <ele>127</ele>
        <time>2025-07-17T09:08:22.071Z</time>
      </trkpt>
      <trkpt lat="44.39299" lon="1.00254">
        <ele>127</ele>
        <time>2025-07-17T09:08:23.071Z</time>
      </trkpt>
      <trkpt lat="44.39299" lon="1.00252">
        <ele>127</ele>
        <time>2025-07-17T09:08:24.071Z</time>
      </trkpt>
      <trkpt lat="44.393" lon="1.0025">
        <ele>127</ele>
        <time>2025-07-17T09:08:25.072Z</time>
      </trkpt>
      <trkpt lat="44.39301" lon="1.00249">
        <ele>127</ele>
        <time>2025-07-17T09:08:26.071Z</time>
      </trkpt>
      <trkpt lat="44.39302" lon="1.00247">
        <ele>126</ele>
        <time>2025-07-17T09:08:27.071Z</time>
      </trkpt>
      <trkpt lat="44.39303" lon="1.00246">
        <ele>126</ele>
        <time>2025-07-17T09:08:28.071Z</time>
      </trkpt>
      <trkpt lat="44.39304" lon="1.00244">
        <ele>127</ele>
        <time>2025-07-17T09:08:29.071Z</time>
      </trkpt>
      <trkpt lat="44.39304" lon="1.00242">
        <ele>127</ele>
        <time>2025-07-17T09:08:30.071Z</time>
      </trkpt>
      <trkpt lat="44.39305" lon="1.00241">
        <ele>127</ele>
        <time>2025-07-17T09:08:31.071Z</time>
      </trkpt>
      <trkpt lat="44.39306" lon="1.00239">
        <ele>127</ele>
        <time>2025-07-17T09:08:32.071Z</time>
      </trkpt>
      <trkpt lat="44.39307" lon="1.00237">
        <ele>128</ele>
        <time>2025-07-17T09:08:33.071Z</time>
      </trkpt>
      <trkpt lat="44.39308" lon="1.00236">
        <ele>128</ele>
        <time>2025-07-17T09:08:34.072Z</time>
      </trkpt>
      <trkpt lat="44.39309" lon="1.00235">
        <ele>128</ele>
        <time>2025-07-17T09:08:35.071Z</time>
      </trkpt>
      <trkpt lat="44.39309" lon="1.00233">
        <ele>127</ele>
        <time>2025-07-17T09:08:36.071Z</time>
      </trkpt>
      <trkpt lat="44.3931" lon="1.00232">
        <ele>127</ele>
        <time>2025-07-17T09:08:37.071Z</time>
      </trkpt>
      <trkpt lat="44.39311" lon="1.00231">
        <ele>127</ele>
        <time>2025-07-17T09:08:38.071Z</time>
      </trkpt>
      <trkpt lat="44.39312" lon="1.00229">
        <ele>127</ele>
        <time>2025-07-17T09:08:39.071Z</time>
      </trkpt>
      <trkpt lat="44.39313" lon="1.00227">
        <ele>127</ele>
        <time>2025-07-17T09:08:40.071Z</time>
      </trkpt>
      <trkpt lat="44.39314" lon="1.00226">
        <ele>128</ele>
        <time>2025-07-17T09:08:41.071Z</time>
      </trkpt>
      <trkpt lat="44.39315" lon="1.00224">
        <ele>128</ele>
        <time>2025-07-17T09:08:42.071Z</time>
      </trkpt>
      <trkpt lat="44.39315" lon="1.00222">
        <ele>128</ele>
        <time>2025-07-17T09:08:43.071Z</time>
      </trkpt>
      <trkpt lat="44.39316" lon="1.00221">
        <ele>128</ele>
        <time>2025-07-17T09:08:44.071Z</time>
      </trkpt>
      <trkpt lat="44.39317" lon="1.00219">
        <ele>128</ele>
        <time>2025-07-17T09:08:45.071Z</time>
      </trkpt>
      <trkpt lat="44.39318" lon="1.00218">
        <ele>127</ele>
        <time>2025-07-17T09:08:46.071Z</time>
      </trkpt>
      <trkpt lat="44.39319" lon="1.00216">
        <ele>127</ele>
        <time>2025-07-17T09:08:47.072Z</time>
      </trkpt>
      <trkpt lat="44.3932" lon="1.00215">
        <ele>126</ele>
        <time>2025-07-17T09:08:48.071Z</time>
      </trkpt>
      <trkpt lat="44.39321" lon="1.00214">
        <ele>126</ele>
        <time>2025-07-17T09:08:49.071Z</time>
      </trkpt>
      <trkpt lat="44.39322" lon="1.00212">
        <ele>126</ele>
        <time>2025-07-17T09:08:50.071Z</time>
      </trkpt>
      <trkpt lat="44.39323" lon="1.00211">
        <ele>126</ele>
        <time>2025-07-17T09:08:51.071Z</time>
      </trkpt>
      <trkpt lat="44.39324" lon="1.0021">
        <ele>126</ele>
        <time>2025-07-17T09:08:52.071Z</time>
      </trkpt>
      <trkpt lat="44.39325" lon="1.00209">
        <ele>126</ele>
        <time>2025-07-17T09:08:53.071Z</time>
      </trkpt>
      <trkpt lat="44.39326" lon="1.00207">
        <ele>126</ele>
        <time>2025-07-17T09:08:54.071Z</time>
      </trkpt>
      <trkpt lat="44.39327" lon="1.00206">
        <ele>126</ele>
        <time>2025-07-17T09:08:55.071Z</time>
      </trkpt>
      <trkpt lat="44.39328" lon="1.00204">
        <ele>126</ele>
        <time>2025-07-17T09:08:56.071Z</time>
      </trkpt>
      <trkpt lat="44.39329" lon="1.00203">
        <ele>127</ele>
        <time>2025-07-17T09:08:57.071Z</time>
      </trkpt>
      <trkpt lat="44.3933" lon="1.00202">
        <ele>127</ele>
        <time>2025-07-17T09:08:58.071Z</time>
      </trkpt>
      <trkpt lat="44.3933" lon="1.002">
        <ele>128</ele>
        <time>2025-07-17T09:08:59.071Z</time>
      </trkpt>
      <trkpt lat="44.39331" lon="1.00199">
        <ele>128</ele>
        <time>2025-07-17T09:09:00.071Z</time>
      </trkpt>
      <trkpt lat="44.39332" lon="1.00197">
        <ele>128</ele>
        <time>2025-07-17T09:09:01.071Z</time>
      </trkpt>
      <trkpt lat="44.39333" lon="1.00196">
        <ele>128</ele>
        <time>2025-07-17T09:09:02.071Z</time>
      </trkpt>
      <trkpt lat="44.39334" lon="1.00194">
        <ele>128</ele>
        <time>2025-07-17T09:09:03.071Z</time>
      </trkpt>
      <trkpt lat="44.39335" lon="1.00193">
        <ele>128</ele>
        <time>2025-07-17T09:09:04.071Z</time>
      </trkpt>
      <trkpt lat="44.39336" lon="1.00191">
        <ele>128</ele>
        <time>2025-07-17T09:09:05.071Z</time>
      </trkpt>
      <trkpt lat="44.39337" lon="1.0019">
        <ele>128</ele>
        <time>2025-07-17T09:09:06.071Z</time>
      </trkpt>
      <trkpt lat="44.39337" lon="1.00189">
        <ele>128</ele>
        <time>2025-07-17T09:09:07.071Z</time>
      </trkpt>
      <trkpt lat="44.39338" lon="1.00187">
        <ele>128</ele>
        <time>2025-07-17T09:09:08.071Z</time>
      </trkpt>
      <trkpt lat="44.39339" lon="1.00186">
        <ele>128</ele>
        <time>2025-07-17T09:09:09.071Z</time>
      </trkpt>
      <trkpt lat="44.3934" lon="1.00184">
        <ele>128</ele>
        <time>2025-07-17T09:09:10.071Z</time>
      </trkpt>
      <trkpt lat="44.39341" lon="1.00183">
        <ele>129</ele>
        <time>2025-07-17T09:09:11.071Z</time>
      </trkpt>
      <trkpt lat="44.39341" lon="1.00182">
        <ele>129</ele>
        <time>2025-07-17T09:09:12.072Z</time>
      </trkpt>
      <trkpt lat="44.39343" lon="1.0018">
        <ele>129</ele>
        <time>2025-07-17T09:09:13.071Z</time>
      </trkpt>
      <trkpt lat="44.39343" lon="1.00179">
        <ele>129</ele>
        <time>2025-07-17T09:09:14.071Z</time>
      </trkpt>
      <trkpt lat="44.39344" lon="1.00178">
        <ele>129</ele>
        <time>2025-07-17T09:09:15.071Z</time>
      </trkpt>
      <trkpt lat="44.39345" lon="1.00176">
        <ele>129</ele>
        <time>2025-07-17T09:09:16.071Z</time>
      </trkpt>
      <trkpt lat="44.39346" lon="1.00175">
        <ele>130</ele>
        <time>2025-07-17T09:09:17.071Z</time>
      </trkpt>
      <trkpt lat="44.39347" lon="1.00173">
        <ele>130</ele>
        <time>2025-07-17T09:09:18.071Z</time>
      </trkpt>
      <trkpt lat="44.39348" lon="1.00172">
        <ele>130</ele>
        <time>2025-07-17T09:09:19.071Z</time>
      </trkpt>
      <trkpt lat="44.39349" lon="1.0017">
        <ele>131</ele>
        <time>2025-07-17T09:09:20.071Z</time>
      </trkpt>
      <trkpt lat="44.3935" lon="1.00169">
        <ele>131</ele>
        <time>2025-07-17T09:09:21.071Z</time>
      </trkpt>
      <trkpt lat="44.39351" lon="1.00167">
        <ele>131</ele>
        <time>2025-07-17T09:09:22.071Z</time>
      </trkpt>
      <trkpt lat="44.39352" lon="1.00165">
        <ele>131</ele>
        <time>2025-07-17T09:09:23.071Z</time>
      </trkpt>
      <trkpt lat="44.39352" lon="1.00164">
        <ele>131</ele>
        <time>2025-07-17T09:09:24.072Z</time>
      </trkpt>
      <trkpt lat="44.39353" lon="1.00162">
        <ele>131</ele>
        <time>2025-07-17T09:09:25.071Z</time>
      </trkpt>
      <trkpt lat="44.39354" lon="1.00161">
        <ele>131</ele>
        <time>2025-07-17T09:09:26.071Z</time>
      </trkpt>
      <trkpt lat="44.39355" lon="1.00159">
        <ele>131</ele>
        <time>2025-07-17T09:09:27.071Z</time>
      </trkpt>
      <trkpt lat="44.39356" lon="1.00158">
        <ele>130</ele>
        <time>2025-07-17T09:09:28.071Z</time>
      </trkpt>
      <trkpt lat="44.39357" lon="1.00157">
        <ele>130</ele>
        <time>2025-07-17T09:09:29.071Z</time>
      </trkpt>
      <trkpt lat="44.39358" lon="1.00156">
        <ele>130</ele>
        <time>2025-07-17T09:09:30.071Z</time>
      </trkpt>
      <trkpt lat="44.39359" lon="1.00154">
        <ele>130</ele>
        <time>2025-07-17T09:09:31.071Z</time>
      </trkpt>
      <trkpt lat="44.3936" lon="1.00153">
        <ele>130</ele>
        <time>2025-07-17T09:09:32.071Z</time>
      </trkpt>
      <trkpt lat="44.39361" lon="1.00152">
        <ele>129</ele>
        <time>2025-07-17T09:09:33.071Z</time>
      </trkpt>
      <trkpt lat="44.39362" lon="1.0015">
        <ele>129</ele>
        <time>2025-07-17T09:09:34.071Z</time>
      </trkpt>
      <trkpt lat="44.39362" lon="1.00149">
        <ele>129</ele>
        <time>2025-07-17T09:09:35.071Z</time>
      </trkpt>
      <trkpt lat="44.39363" lon="1.00147">
        <ele>129</ele>
        <time>2025-07-17T09:09:36.071Z</time>
      </trkpt>
      <trkpt lat="44.39364" lon="1.00146">
        <ele>129</ele>
        <time>2025-07-17T09:09:37.071Z</time>
      </trkpt>
      <trkpt lat="44.39366" lon="1.00144">
        <ele>129</ele>
        <time>2025-07-17T09:09:38.071Z</time>
      </trkpt>
      <trkpt lat="44.39367" lon="1.00143">
        <ele>129</ele>
        <time>2025-07-17T09:09:39.071Z</time>
      </trkpt>
      <trkpt lat="44.39367" lon="1.00141">
        <ele>129</ele>
        <time>2025-07-17T09:09:40.071Z</time>
      </trkpt>
      <trkpt lat="44.39368" lon="1.0014">
        <ele>130</ele>
        <time>2025-07-17T09:09:41.071Z</time>
      </trkpt>
      <trkpt lat="44.39369" lon="1.00138">
        <ele>130</ele>
        <time>2025-07-17T09:09:42.071Z</time>
      </trkpt>
      <trkpt lat="44.3937" lon="1.00137">
        <ele>130</ele>
        <time>2025-07-17T09:09:43.071Z</time>
      </trkpt>
      <trkpt lat="44.39371" lon="1.00135">
        <ele>130</ele>
        <time>2025-07-17T09:09:44.071Z</time>
      </trkpt>
      <trkpt lat="44.39372" lon="1.00134">
        <ele>130</ele>
        <time>2025-07-17T09:09:45.071Z</time>
      </trkpt>
      <trkpt lat="44.39372" lon="1.00132">
        <ele>130</ele>
        <time>2025-07-17T09:09:46.071Z</time>
      </trkpt>
      <trkpt lat="44.39373" lon="1.00131">
        <ele>130</ele>
        <time>2025-07-17T09:09:47.071Z</time>
      </trkpt>
      <trkpt lat="44.39374" lon="1.00129">
        <ele>130</ele>
        <time>2025-07-17T09:09:48.071Z</time>
      </trkpt>
      <trkpt lat="44.39375" lon="1.00128">
        <ele>129</ele>
        <time>2025-07-17T09:09:49.071Z</time>
      </trkpt>
      <trkpt lat="44.39376" lon="1.00126">
        <ele>129</ele>
        <time>2025-07-17T09:09:50.071Z</time>
      </trkpt>
      <trkpt lat="44.39377" lon="1.00125">
        <ele>130</ele>
        <time>2025-07-17T09:09:51.071Z</time>
      </trkpt>
      <trkpt lat="44.39378" lon="1.00123">
        <ele>130</ele>
        <time>2025-07-17T09:09:52.071Z</time>
      </trkpt>
      <trkpt lat="44.39379" lon="1.00122">
        <ele>130</ele>
        <time>2025-07-17T09:09:53.072Z</time>
      </trkpt>
      <trkpt lat="44.3938" lon="1.0012">
        <ele>130</ele>
        <time>2025-07-17T09:09:54.071Z</time>
      </trkpt>
      <trkpt lat="44.39381" lon="1.00119">
        <ele>130</ele>
        <time>2025-07-17T09:09:55.071Z</time>
      </trkpt>
      <trkpt lat="44.39381" lon="1.00118">
        <ele>131</ele>
        <time>2025-07-17T09:09:56.071Z</time>
      </trkpt>
      <trkpt lat="44.39382" lon="1.00117">
        <ele>131</ele>
        <time>2025-07-17T09:09:57.071Z</time>
      </trkpt>
      <trkpt lat="44.39383" lon="1.00115">
        <ele>131</ele>
        <time>2025-07-17T09:09:58.071Z</time>
      </trkpt>
      <trkpt lat="44.39384" lon="1.00114">
        <ele>131</ele>
        <time>2025-07-17T09:09:59.071Z</time>
      </trkpt>
      <trkpt lat="44.39385" lon="1.00113">
        <ele>131</ele>
        <time>2025-07-17T09:10:00.071Z</time>
      </trkpt>
      <trkpt lat="44.39386" lon="1.00112">
        <ele>131</ele>
        <time>2025-07-17T09:10:01.071Z</time>
      </trkpt>
      <trkpt lat="44.39386" lon="1.00111">
        <ele>131</ele>
        <time>2025-07-17T09:10:02.071Z</time>
      </trkpt>
      <trkpt lat="44.39387" lon="1.00109">
        <ele>131</ele>
        <time>2025-07-17T09:10:03.071Z</time>
      </trkpt>
      <trkpt lat="44.39388" lon="1.00108">
        <ele>130</ele>
        <time>2025-07-17T09:10:04.071Z</time>
      </trkpt>
      <trkpt lat="44.39389" lon="1.00106">
        <ele>130</ele>
        <time>2025-07-17T09:10:05.071Z</time>
      </trkpt>
      <trkpt lat="44.3939" lon="1.00105">
        <ele>130</ele>
        <time>2025-07-17T09:10:06.071Z</time>
      </trkpt>
      <trkpt lat="44.39392" lon="1.00103">
        <ele>129</ele>
        <time>2025-07-17T09:10:07.071Z</time>
      </trkpt>
      <trkpt lat="44.39393" lon="1.00102">
        <ele>129</ele>
        <time>2025-07-17T09:10:08.071Z</time>
      </trkpt>
      <trkpt lat="44.39393" lon="1.00101">
        <ele>129</ele>
        <time>2025-07-17T09:10:09.071Z</time>
      </trkpt>
      <trkpt lat="44.39394" lon="1.001">
        <ele>129</ele>
        <time>2025-07-17T09:10:10.071Z</time>
      </trkpt>
      <trkpt lat="44.39395" lon="1.00099">
        <ele>129</ele>
        <time>2025-07-17T09:10:11.071Z</time>
      </trkpt>
      <trkpt lat="44.39396" lon="1.00098">
        <ele>129</ele>
        <time>2025-07-17T09:10:12.071Z</time>
      </trkpt>
      <trkpt lat="44.39397" lon="1.00097">
        <ele>129</ele>
        <time>2025-07-17T09:10:13.071Z</time>
      </trkpt>
      <trkpt lat="44.39397" lon="1.00095">
        <ele>129</ele>
        <time>2025-07-17T09:10:14.071Z</time>
      </trkpt>
      <trkpt lat="44.39398" lon="1.00094">
        <ele>129</ele>
        <time>2025-07-17T09:10:15.071Z</time>
      </trkpt>
      <trkpt lat="44.39399" lon="1.00093">
        <ele>128</ele>
        <time>2025-07-17T09:10:16.071Z</time>
      </trkpt>
      <trkpt lat="44.394" lon="1.00091">
        <ele>128</ele>
        <time>2025-07-17T09:10:17.071Z</time>
      </trkpt>
      <trkpt lat="44.394" lon="1.0009">
        <ele>128</ele>
        <time>2025-07-17T09:10:18.071Z</time>
      </trkpt>
      <trkpt lat="44.39401" lon="1.00088">
        <ele>128</ele>
        <time>2025-07-17T09:10:19.072Z</time>
      </trkpt>
      <trkpt lat="44.39402" lon="1.00087">
        <ele>128</ele>
        <time>2025-07-17T09:10:20.072Z</time>
      </trkpt>
      <trkpt lat="44.39403" lon="1.00086">
        <ele>127</ele>
        <time>2025-07-17T09:10:21.071Z</time>
      </trkpt>
      <trkpt lat="44.39404" lon="1.00085">
        <ele>127</ele>
        <time>2025-07-17T09:10:22.071Z</time>
      </trkpt>
      <trkpt lat="44.39405" lon="1.00083">
        <ele>127</ele>
        <time>2025-07-17T09:10:23.071Z</time>
      </trkpt>
      <trkpt lat="44.39405" lon="1.00082">
        <ele>127</ele>
        <time>2025-07-17T09:10:24.072Z</time>
      </trkpt>
      <trkpt lat="44.39406" lon="1.0008">
        <ele>127</ele>
        <time>2025-07-17T09:10:25.072Z</time>
      </trkpt>
      <trkpt lat="44.39407" lon="1.00079">
        <ele>127</ele>
        <time>2025-07-17T09:10:26.071Z</time>
      </trkpt>
      <trkpt lat="44.39408" lon="1.00078">
        <ele>127</ele>
        <time>2025-07-17T09:10:27.071Z</time>
      </trkpt>
      <trkpt lat="44.39409" lon="1.00077">
        <ele>127</ele>
        <time>2025-07-17T09:10:28.071Z</time>
      </trkpt>
      <trkpt lat="44.3941" lon="1.00076">
        <ele>127</ele>
        <time>2025-07-17T09:10:29.071Z</time>
      </trkpt>
      <trkpt lat="44.39411" lon="1.00074">
        <ele>126</ele>
        <time>2025-07-17T09:10:30.072Z</time>
      </trkpt>
      <trkpt lat="44.39412" lon="1.00072">
        <ele>127</ele>
        <time>2025-07-17T09:10:31.071Z</time>
      </trkpt>
      <trkpt lat="44.39413" lon="1.00071">
        <ele>127</ele>
        <time>2025-07-17T09:10:32.071Z</time>
      </trkpt>
      <trkpt lat="44.39414" lon="1.0007">
        <ele>127</ele>
        <time>2025-07-17T09:10:33.072Z</time>
      </trkpt>
      <trkpt lat="44.39415" lon="1.00068">
        <ele>127</ele>
        <time>2025-07-17T09:10:34.071Z</time>
      </trkpt>
      <trkpt lat="44.39416" lon="1.00067">
        <ele>127</ele>
        <time>2025-07-17T09:10:35.071Z</time>
      </trkpt>
      <trkpt lat="44.39417" lon="1.00065">
        <ele>126</ele>
        <time>2025-07-17T09:10:36.071Z</time>
      </trkpt>
      <trkpt lat="44.39418" lon="1.00064">
        <ele>126</ele>
        <time>2025-07-17T09:10:37.071Z</time>
      </trkpt>
      <trkpt lat="44.39419" lon="1.00063">
        <ele>126</ele>
        <time>2025-07-17T09:10:38.071Z</time>
      </trkpt>
      <trkpt lat="44.3942" lon="1.00062">
        <ele>126</ele>
        <time>2025-07-17T09:10:39.071Z</time>
      </trkpt>
      <trkpt lat="44.3942" lon="1.00061">
        <ele>126</ele>
        <time>2025-07-17T09:10:40.071Z</time>
      </trkpt>
      <trkpt lat="44.39421" lon="1.0006">
        <ele>126</ele>
        <time>2025-07-17T09:10:41.071Z</time>
      </trkpt>
      <trkpt lat="44.39422" lon="1.00059">
        <ele>126</ele>
        <time>2025-07-17T09:10:42.072Z</time>
      </trkpt>
      <trkpt lat="44.39423" lon="1.00057">
        <ele>126</ele>
        <time>2025-07-17T09:10:43.071Z</time>
      </trkpt>
      <trkpt lat="44.39424" lon="1.00056">
        <ele>126</ele>
        <time>2025-07-17T09:10:44.071Z</time>
      </trkpt>
      <trkpt lat="44.39425" lon="1.00055">
        <ele>126</ele>
        <time>2025-07-17T09:10:45.071Z</time>
      </trkpt>
      <trkpt lat="44.39425" lon="1.00053">
        <ele>127</ele>
        <time>2025-07-17T09:10:46.071Z</time>
      </trkpt>
      <trkpt lat="44.39426" lon="1.00052">
        <ele>127</ele>
        <time>2025-07-17T09:10:47.072Z</time>
      </trkpt>
      <trkpt lat="44.39427" lon="1.00051">
        <ele>127</ele>
        <time>2025-07-17T09:10:48.071Z</time>
      </trkpt>
      <trkpt lat="44.39428" lon="1.0005">
        <ele>128</ele>
        <time>2025-07-17T09:10:49.071Z</time>
      </trkpt>
      <trkpt lat="44.39429" lon="1.00049">
        <ele>128</ele>
        <time>2025-07-17T09:10:50.071Z</time>
      </trkpt>
      <trkpt lat="44.3943" lon="1.00048">
        <ele>128</ele>
        <time>2025-07-17T09:10:51.072Z</time>
      </trkpt>
      <trkpt lat="44.39431" lon="1.00046">
        <ele>129</ele>
        <time>2025-07-17T09:10:52.071Z</time>
      </trkpt>
      <trkpt lat="44.39431" lon="1.00045">
        <ele>129</ele>
        <time>2025-07-17T09:10:53.071Z</time>
      </trkpt>
      <trkpt lat="44.39432" lon="1.00044">
        <ele>129</ele>
        <time>2025-07-17T09:10:54.071Z</time>
      </trkpt>
      <trkpt lat="44.39434" lon="1.00043">
        <ele>129</ele>
        <time>2025-07-17T09:10:55.071Z</time>
      </trkpt>
      <trkpt lat="44.39435" lon="1.00042">
        <ele>129</ele>
        <time>2025-07-17T09:10:56.071Z</time>
      </trkpt>
      <trkpt lat="44.39436" lon="1.00041">
        <ele>129</ele>
        <time>2025-07-17T09:10:57.071Z</time>
      </trkpt>
      <trkpt lat="44.39437" lon="1.0004">
        <ele>129</ele>
        <time>2025-07-17T09:10:58.071Z</time>
      </trkpt>
      <trkpt lat="44.39438" lon="1.00038">
        <ele>129</ele>
        <time>2025-07-17T09:10:59.072Z</time>
      </trkpt>
      <trkpt lat="44.39439" lon="1.00037">
        <ele>129</ele>
        <time>2025-07-17T09:11:00.071Z</time>
      </trkpt>
      <trkpt lat="44.39439" lon="1.00035">
        <ele>129</ele>
        <time>2025-07-17T09:11:01.071Z</time>
      </trkpt>
      <trkpt lat="44.3944" lon="1.00034">
        <ele>129</ele>
        <time>2025-07-17T09:11:02.071Z</time>
      </trkpt>
      <trkpt lat="44.39441" lon="1.00033">
        <ele>130</ele>
        <time>2025-07-17T09:11:03.071Z</time>
      </trkpt>
      <trkpt lat="44.39442" lon="1.00032">
        <ele>130</ele>
        <time>2025-07-17T09:11:04.071Z</time>
      </trkpt>
      <trkpt lat="44.39443" lon="1.00031">
        <ele>130</ele>
        <time>2025-07-17T09:11:05.072Z</time>
      </trkpt>
      <trkpt lat="44.39444" lon="1.0003">
        <ele>130</ele>
        <time>2025-07-17T09:11:06.072Z</time>
      </trkpt>
      <trkpt lat="44.39445" lon="1.00029">
        <ele>129</ele>
        <time>2025-07-17T09:11:07.071Z</time>
      </trkpt>
      <trkpt lat="44.39446" lon="1.00028">
        <ele>129</ele>
        <time>2025-07-17T09:11:08.071Z</time>
      </trkpt>
      <trkpt lat="44.39447" lon="1.00027">
        <ele>129</ele>
        <time>2025-07-17T09:11:09.071Z</time>
      </trkpt>
      <trkpt lat="44.39448" lon="1.00026">
        <ele>128</ele>
        <time>2025-07-17T09:11:10.071Z</time>
      </trkpt>
      <trkpt lat="44.39449" lon="1.00026">
        <ele>128</ele>
        <time>2025-07-17T09:11:11.071Z</time>
      </trkpt>
      <trkpt lat="44.3945" lon="1.00025">
        <ele>128</ele>
        <time>2025-07-17T09:11:12.071Z</time>
      </trkpt>
      <trkpt lat="44.39451" lon="1.00024">
        <ele>127</ele>
        <time>2025-07-17T09:11:13.071Z</time>
      </trkpt>
      <trkpt lat="44.39452" lon="1.00024">
        <ele>126</ele>
        <time>2025-07-17T09:11:14.071Z</time>
      </trkpt>
      <trkpt lat="44.39453" lon="1.00023">
        <ele>126</ele>
        <time>2025-07-17T09:11:15.071Z</time>
      </trkpt>
      <trkpt lat="44.39454" lon="1.00022">
        <ele>125</ele>
        <time>2025-07-17T09:11:16.071Z</time>
      </trkpt>
      <trkpt lat="44.39455" lon="1.00021">
        <ele>125</ele>
        <time>2025-07-17T09:11:17.071Z</time>
      </trkpt>
      <trkpt lat="44.39457" lon="1.0002">
        <ele>125</ele>
        <time>2025-07-17T09:11:18.071Z</time>
      </trkpt>
      <trkpt lat="44.39458" lon="1.00019">
        <ele>125</ele>
        <time>2025-07-17T09:11:19.071Z</time>
      </trkpt>
      <trkpt lat="44.39459" lon="1.00018">
        <ele>124</ele>
        <time>2025-07-17T09:11:20.071Z</time>
      </trkpt>
      <trkpt lat="44.3946" lon="1.00018">
        <ele>124</ele>
        <time>2025-07-17T09:11:21.072Z</time>
      </trkpt>
      <trkpt lat="44.39461" lon="1.00017">
        <ele>124</ele>
        <time>2025-07-17T09:11:22.071Z</time>
      </trkpt>
      <trkpt lat="44.39462" lon="1.00016">
        <ele>123</ele>
        <time>2025-07-17T09:11:23.071Z</time>
      </trkpt>
      <trkpt lat="44.39463" lon="1.00015">
        <ele>123</ele>
        <time>2025-07-17T09:11:24.071Z</time>
      </trkpt>
      <trkpt lat="44.39464" lon="1.00014">
        <ele>122</ele>
        <time>2025-07-17T09:11:25.071Z</time>
      </trkpt>
      <trkpt lat="44.39465" lon="1.00013">
        <ele>122</ele>
        <time>2025-07-17T09:11:26.071Z</time>
      </trkpt>
      <trkpt lat="44.39466" lon="1.00013">
        <ele>122</ele>
        <time>2025-07-17T09:11:27.071Z</time>
      </trkpt>
      <trkpt lat="44.39466" lon="1.00012">
        <ele>122</ele>
        <time>2025-07-17T09:11:28.071Z</time>
      </trkpt>
      <trkpt lat="44.39467" lon="1.00011">
        <ele>121</ele>
        <time>2025-07-17T09:11:29.071Z</time>
      </trkpt>
      <trkpt lat="44.39468" lon="1.0001">
        <ele>121</ele>
        <time>2025-07-17T09:11:30.071Z</time>
      </trkpt>
      <trkpt lat="44.39469" lon="1.0001">
        <ele>121</ele>
        <time>2025-07-17T09:11:31.071Z</time>
      </trkpt>
      <trkpt lat="44.3947" lon="1.00009">
        <ele>121</ele>
        <time>2025-07-17T09:11:32.071Z</time>
      </trkpt>
      <trkpt lat="44.39472" lon="1.00009">
        <ele>122</ele>
        <time>2025-07-17T09:11:33.071Z</time>
      </trkpt>
      <trkpt lat="44.39473" lon="1.00008">
        <ele>122</ele>
        <time>2025-07-17T09:11:34.071Z</time>
      </trkpt>
      <trkpt lat="44.39473" lon="1.00007">
        <ele>123</ele>
        <time>2025-07-17T09:11:35.071Z</time>
      </trkpt>
      <trkpt lat="44.39473" lon="1.00007">
        <ele>123</ele>
        <time>2025-07-17T09:11:36.071Z</time>
      </trkpt>
      <trkpt lat="44.39474" lon="1.00006">
        <ele>124</ele>
        <time>2025-07-17T09:11:37.071Z</time>
      </trkpt>
      <trkpt lat="44.39474" lon="1.00006">
        <ele>124</ele>
        <time>2025-07-17T09:11:38.071Z</time>
      </trkpt>
      <trkpt lat="44.39474" lon="1.00006">
        <ele>125</ele>
        <time>2025-07-17T09:11:39.071Z</time>
      </trkpt>
      <trkpt lat="44.39475" lon="1.00006">
        <ele>125</ele>
        <time>2025-07-17T09:11:40.071Z</time>
      </trkpt>
      <trkpt lat="44.39476" lon="1.00006">
        <ele>124</ele>
        <time>2025-07-17T09:11:41.071Z</time>
      </trkpt>
      <trkpt lat="44.39477" lon="1.00006">
        <ele>124</ele>
        <time>2025-07-17T09:11:42.071Z</time>
      </trkpt>
      <trkpt lat="44.39479" lon="1.00005">
        <ele>124</ele>
        <time>2025-07-17T09:11:43.072Z</time>
      </trkpt>
      <trkpt lat="44.3948" lon="1.00005">
        <ele>124</ele>
        <time>2025-07-17T09:11:44.071Z</time>
      </trkpt>
      <trkpt lat="44.39481" lon="1.00004">
        <ele>123</ele>
        <time>2025-07-17T09:11:45.071Z</time>
      </trkpt>
      <trkpt lat="44.39482" lon="1.00004">
        <ele>123</ele>
        <time>2025-07-17T09:11:46.071Z</time>
      </trkpt>
      <trkpt lat="44.39483" lon="1.00003">
        <ele>123</ele>
        <time>2025-07-17T09:11:47.071Z</time>
      </trkpt>
      <trkpt lat="44.39484" lon="1.00004">
        <ele>123</ele>
        <time>2025-07-17T09:11:48.071Z</time>
      </trkpt>
      <trkpt lat="44.39485" lon="1.00004">
        <ele>122</ele>
        <time>2025-07-17T09:11:49.071Z</time>
      </trkpt>
      <trkpt lat="44.39487" lon="1.00003">
        <ele>122</ele>
        <time>2025-07-17T09:11:50.071Z</time>
      </trkpt>
      <trkpt lat="44.39488" lon="1.00002">
        <ele>122</ele>
        <time>2025-07-17T09:11:51.071Z</time>
      </trkpt>
      <trkpt lat="44.39489" lon="1.00001">
        <ele>122</ele>
        <time>2025-07-17T09:11:52.071Z</time>
      </trkpt>
      <trkpt lat="44.3949" lon="1.00001">
        <ele>123</ele>
        <time>2025-07-17T09:11:53.071Z</time>
      </trkpt>
      <trkpt lat="44.39491" lon="1">
        <ele>123</ele>
        <time>2025-07-17T09:11:54.071Z</time>
      </trkpt>
      <trkpt lat="44.39493" lon="1">
        <ele>123</ele>
        <time>2025-07-17T09:11:55.071Z</time>
      </trkpt>
      <trkpt lat="44.39494" lon="1">
        <ele>123</ele>
        <time>2025-07-17T09:11:56.071Z</time>
      </trkpt>
      <trkpt lat="44.39496" lon="0.99999">
        <ele>123</ele>
        <time>2025-07-17T09:11:57.071Z</time>
      </trkpt>
      <trkpt lat="44.39497" lon="0.99999">
        <ele>123</ele>
        <time>2025-07-17T09:11:58.071Z</time>
      </trkpt>
      <trkpt lat="44.39498" lon="0.99998">
        <ele>123</ele>
        <time>2025-07-17T09:11:59.071Z</time>
      </trkpt>
      <trkpt lat="44.39499" lon="0.99997">
        <ele>123</ele>
        <time>2025-07-17T09:12:00.071Z</time>
      </trkpt>
      <trkpt lat="44.39501" lon="0.99997">
        <ele>123</ele>
        <time>2025-07-17T09:12:01.071Z</time>
      </trkpt>
      <trkpt lat="44.39502" lon="0.99996">
        <ele>123</ele>
        <time>2025-07-17T09:12:02.071Z</time>
      </trkpt>
      <trkpt lat="44.39503" lon="0.99996">
        <ele>123</ele>
        <time>2025-07-17T09:12:03.071Z</time>
      </trkpt>
      <trkpt lat="44.39504" lon="0.99995">
        <ele>123</ele>
        <time>2025-07-17T09:12:04.071Z</time>
      </trkpt>
      <trkpt lat="44.39505" lon="0.99995">
        <ele>123</ele>
        <time>2025-07-17T09:12:05.071Z</time>
      </trkpt>
      <trkpt lat="44.39506" lon="0.99994">
        <ele>123</ele>
        <time>2025-07-17T09:12:06.071Z</time>
      </trkpt>
      <trkpt lat="44.39507" lon="0.99994">
        <ele>123</ele>
        <time>2025-07-17T09:12:07.071Z</time>
      </trkpt>
      <trkpt lat="44.39508" lon="0.99993">
        <ele>123</ele>
        <time>2025-07-17T09:12:08.071Z</time>
      </trkpt>
      <trkpt lat="44.39509" lon="0.99992">
        <ele>123</ele>
        <time>2025-07-17T09:12:09.071Z</time>
      </trkpt>
      <trkpt lat="44.3951" lon="0.99992">
        <ele>123</ele>
        <time>2025-07-17T09:12:10.071Z</time>
      </trkpt>
      <trkpt lat="44.3951" lon="0.99991">
        <ele>123</ele>
        <time>2025-07-17T09:12:11.071Z</time>
      </trkpt>
      <trkpt lat="44.39511" lon="0.99991">
        <ele>123</ele>
        <time>2025-07-17T09:12:12.071Z</time>
      </trkpt>
      <trkpt lat="44.39511" lon="0.99991">
        <ele>123</ele>
        <time>2025-07-17T09:12:13.071Z</time>
      </trkpt>
      <trkpt lat="44.39511" lon="0.99991">
        <ele>123</ele>
        <time>2025-07-17T09:12:14.071Z</time>
      </trkpt>
      <trkpt lat="44.39511" lon="0.99991">
        <ele>123</ele>
        <time>2025-07-17T09:12:15.071Z</time>
      </trkpt>
      <trkpt lat="44.39511" lon="0.99991">
        <ele>123</ele>
        <time>2025-07-17T09:12:16.071Z</time>
      </trkpt>
      <trkpt lat="44.39511" lon="0.99991">
        <ele>123</ele>
        <time>2025-07-17T09:12:17.071Z</time>
      </trkpt>
      <trkpt lat="44.39511" lon="0.99991">
        <ele>123</ele>
        <time>2025-07-17T09:12:18.071Z</time>
      </trkpt>
      <trkpt lat="44.39511" lon="0.99991">
        <ele>123</ele>
        <time>2025-07-17T09:12:19.071Z</time>
      </trkpt>
      <trkpt lat="44.39511" lon="0.99991">
        <ele>123</ele>
        <time>2025-07-17T09:12:20.071Z</time>
      </trkpt>
      <trkpt lat="44.39511" lon="0.99991">
        <ele>123</ele>
        <time>2025-07-17T09:12:21.071Z</time>
      </trkpt>
      <trkpt lat="44.39511" lon="0.99991">
        <ele>123</ele>
        <time>2025-07-17T09:12:22.071Z</time>
      </trkpt>
      <trkpt lat="44.39511" lon="0.99991">
        <ele>123</ele>
        <time>2025-07-17T09:12:23.071Z</time>
      </trkpt>
      <trkpt lat="44.39511" lon="0.99991">
        <ele>122</ele>
        <time>2025-07-17T09:12:24.071Z</time>
      </trkpt>
      <trkpt lat="44.39511" lon="0.99991">
        <ele>122</ele>
        <time>2025-07-17T09:12:25.071Z</time>
      </trkpt>
      <trkpt lat="44.39511" lon="0.99991">
        <ele>123</ele>
        <time>2025-07-17T09:12:26.071Z</time>
      </trkpt>
      <trkpt lat="44.39511" lon="0.99991">
        <ele>123</ele>
        <time>2025-07-17T09:12:27.071Z</time>
      </trkpt>
      <trkpt lat="44.39511" lon="0.99991">
        <ele>123</ele>
        <time>2025-07-17T09:12:28.071Z</time>
      </trkpt>
      <trkpt lat="44.39511" lon="0.99991">
        <ele>123</ele>
        <time>2025-07-17T09:12:29.071Z</time>
      </trkpt>
      <trkpt lat="44.39511" lon="0.99991">
        <ele>123</ele>
        <time>2025-07-17T09:12:30.071Z</time>
      </trkpt>
      <trkpt lat="44.39511" lon="0.99991">
        <ele>123</ele>
        <time>2025-07-17T09:12:31.071Z</time>
      </trkpt>
      <trkpt lat="44.39512" lon="0.99991">
        <ele>123</ele>
        <time>2025-07-17T09:12:32.071Z</time>
      </trkpt>
      <trkpt lat="44.39512" lon="0.99991">
        <ele>123</ele>
        <time>2025-07-17T09:12:33.071Z</time>
      </trkpt>
      <trkpt lat="44.39512" lon="0.99991">
        <ele>123</ele>
        <time>2025-07-17T09:12:34.071Z</time>
      </trkpt>
      <trkpt lat="44.39512" lon="0.99991">
        <ele>123</ele>
        <time>2025-07-17T09:12:35.071Z</time>
      </trkpt>
      <trkpt lat="44.39512" lon="0.99991">
        <ele>123</ele>
        <time>2025-07-17T09:12:36.071Z</time>
      </trkpt>
      <trkpt lat="44.39512" lon="0.99991">
        <ele>123</ele>
        <time>2025-07-17T09:12:37.071Z</time>
      </trkpt>
      <trkpt lat="44.39512" lon="0.99991">
        <ele>123</ele>
        <time>2025-07-17T09:12:38.071Z</time>
      </trkpt>
      <trkpt lat="44.39512" lon="0.99991">
        <ele>123</ele>
        <time>2025-07-17T09:12:39.071Z</time>
      </trkpt>
      <trkpt lat="44.39512" lon="0.99991">
        <ele>124</ele>
        <time>2025-07-17T09:12:40.072Z</time>
      </trkpt>
      <trkpt lat="44.39512" lon="0.99991">
        <ele>124</ele>
        <time>2025-07-17T09:12:41.071Z</time>
      </trkpt>
      <trkpt lat="44.39512" lon="0.99991">
        <ele>123</ele>
        <time>2025-07-17T09:12:42.071Z</time>
      </trkpt>
      <trkpt lat="44.39512" lon="0.99991">
        <ele>123</ele>
        <time>2025-07-17T09:12:43.071Z</time>
      </trkpt>
      <trkpt lat="44.39513" lon="0.9999">
        <ele>123</ele>
        <time>2025-07-17T09:12:44.071Z</time>
      </trkpt>
      <trkpt lat="44.39513" lon="0.99989">
        <ele>123</ele>
        <time>2025-07-17T09:12:45.071Z</time>
      </trkpt>
      <trkpt lat="44.39514" lon="0.99989">
        <ele>123</ele>
        <time>2025-07-17T09:12:46.071Z</time>
      </trkpt>
      <trkpt lat="44.39515" lon="0.99988">
        <ele>123</ele>
        <time>2025-07-17T09:12:47.071Z</time>
      </trkpt>
      <trkpt lat="44.39517" lon="0.99987">
        <ele>123</ele>
        <time>2025-07-17T09:12:48.071Z</time>
      </trkpt>
      <trkpt lat="44.39518" lon="0.99986">
        <ele>123</ele>
        <time>2025-07-17T09:12:49.071Z</time>
      </trkpt>
      <trkpt lat="44.39519" lon="0.99985">
        <ele>123</ele>
        <time>2025-07-17T09:12:50.072Z</time>
      </trkpt>
      <trkpt lat="44.3952" lon="0.99985">
        <ele>123</ele>
        <time>2025-07-17T09:12:51.071Z</time>
      </trkpt>
      <trkpt lat="44.39521" lon="0.99984">
        <ele>124</ele>
        <time>2025-07-17T09:12:52.071Z</time>
      </trkpt>
      <trkpt lat="44.39523" lon="0.99983">
        <ele>124</ele>
        <time>2025-07-17T09:12:53.071Z</time>
      </trkpt>
      <trkpt lat="44.39524" lon="0.99983">
        <ele>124</ele>
        <time>2025-07-17T09:12:54.071Z</time>
      </trkpt>
      <trkpt lat="44.39525" lon="0.99982">
        <ele>124</ele>
        <time>2025-07-17T09:12:55.071Z</time>
      </trkpt>
      <trkpt lat="44.39526" lon="0.99982">
        <ele>124</ele>
        <time>2025-07-17T09:12:56.071Z</time>
      </trkpt>
      <trkpt lat="44.39527" lon="0.99981">
        <ele>125</ele>
        <time>2025-07-17T09:12:57.071Z</time>
      </trkpt>
      <trkpt lat="44.39529" lon="0.99981">
        <ele>125</ele>
        <time>2025-07-17T09:12:58.071Z</time>
      </trkpt>
      <trkpt lat="44.3953" lon="0.9998">
        <ele>125</ele>
        <time>2025-07-17T09:12:59.071Z</time>
      </trkpt>
      <trkpt lat="44.39531" lon="0.9998">
        <ele>125</ele>
        <time>2025-07-17T09:13:00.071Z</time>
      </trkpt>
      <trkpt lat="44.39532" lon="0.99979">
        <ele>125</ele>
        <time>2025-07-17T09:13:01.072Z</time>
      </trkpt>
      <trkpt lat="44.39534" lon="0.99978">
        <ele>125</ele>
        <time>2025-07-17T09:13:02.071Z</time>
      </trkpt>
      <trkpt lat="44.39535" lon="0.99977">
        <ele>126</ele>
        <time>2025-07-17T09:13:03.071Z</time>
      </trkpt>
      <trkpt lat="44.39537" lon="0.99976">
        <ele>126</ele>
        <time>2025-07-17T09:13:04.071Z</time>
      </trkpt>
      <trkpt lat="44.39538" lon="0.99976">
        <ele>126</ele>
        <time>2025-07-17T09:13:05.071Z</time>
      </trkpt>
      <trkpt lat="44.3954" lon="0.99975">
        <ele>125</ele>
        <time>2025-07-17T09:13:06.071Z</time>
      </trkpt>
      <trkpt lat="44.39541" lon="0.99975">
        <ele>125</ele>
        <time>2025-07-17T09:13:07.071Z</time>
      </trkpt>
      <trkpt lat="44.39542" lon="0.99974">
        <ele>125</ele>
        <time>2025-07-17T09:13:08.071Z</time>
      </trkpt>
      <trkpt lat="44.39544" lon="0.99974">
        <ele>126</ele>
        <time>2025-07-17T09:13:09.071Z</time>
      </trkpt>
      <trkpt lat="44.39545" lon="0.99973">
        <ele>126</ele>
        <time>2025-07-17T09:13:10.071Z</time>
      </trkpt>
      <trkpt lat="44.39546" lon="0.99973">
        <ele>126</ele>
        <time>2025-07-17T09:13:11.071Z</time>
      </trkpt>
      <trkpt lat="44.39548" lon="0.99972">
        <ele>126</ele>
        <time>2025-07-17T09:13:12.071Z</time>
      </trkpt>
      <trkpt lat="44.39549" lon="0.99972">
        <ele>126</ele>
        <time>2025-07-17T09:13:13.071Z</time>
      </trkpt>
      <trkpt lat="44.3955" lon="0.99971">
        <ele>126</ele>
        <time>2025-07-17T09:13:14.071Z</time>
      </trkpt>
      <trkpt lat="44.39551" lon="0.99971">
        <ele>126</ele>
        <time>2025-07-17T09:13:15.071Z</time>
      </trkpt>
      <trkpt lat="44.39552" lon="0.9997">
        <ele>126</ele>
        <time>2025-07-17T09:13:16.071Z</time>
      </trkpt>
      <trkpt lat="44.39554" lon="0.99969">
        <ele>126</ele>
        <time>2025-07-17T09:13:17.071Z</time>
      </trkpt>
      <trkpt lat="44.39555" lon="0.99969">
        <ele>126</ele>
        <time>2025-07-17T09:13:18.071Z</time>
      </trkpt>
      <trkpt lat="44.39556" lon="0.99968">
        <ele>126</ele>
        <time>2025-07-17T09:13:19.071Z</time>
      </trkpt>
      <trkpt lat="44.39557" lon="0.99967">
        <ele>126</ele>
        <time>2025-07-17T09:13:20.071Z</time>
      </trkpt>
      <trkpt lat="44.39559" lon="0.99967">
        <ele>126</ele>
        <time>2025-07-17T09:13:21.071Z</time>
      </trkpt>
      <trkpt lat="44.3956" lon="0.99966">
        <ele>126</ele>
        <time>2025-07-17T09:13:22.071Z</time>
      </trkpt>
      <trkpt lat="44.39562" lon="0.99965">
        <ele>126</ele>
        <time>2025-07-17T09:13:23.071Z</time>
      </trkpt>
      <trkpt lat="44.39563" lon="0.99964">
        <ele>126</ele>
        <time>2025-07-17T09:13:24.071Z</time>
      </trkpt>
      <trkpt lat="44.39564" lon="0.99963">
        <ele>126</ele>
        <time>2025-07-17T09:13:25.071Z</time>
      </trkpt>
      <trkpt lat="44.39566" lon="0.99962">
        <ele>127</ele>
        <time>2025-07-17T09:13:26.071Z</time>
      </trkpt>
      <trkpt lat="44.39567" lon="0.99961">
        <ele>126</ele>
        <time>2025-07-17T09:13:27.071Z</time>
      </trkpt>
      <trkpt lat="44.39569" lon="0.9996">
        <ele>126</ele>
        <time>2025-07-17T09:13:28.071Z</time>
      </trkpt>
      <trkpt lat="44.3957" lon="0.99959">
        <ele>126</ele>
        <time>2025-07-17T09:13:29.071Z</time>
      </trkpt>
      <trkpt lat="44.39571" lon="0.99959">
        <ele>126</ele>
        <time>2025-07-17T09:13:30.071Z</time>
      </trkpt>
      <trkpt lat="44.39573" lon="0.99958">
        <ele>126</ele>
        <time>2025-07-17T09:13:31.071Z</time>
      </trkpt>
      <trkpt lat="44.39574" lon="0.99957">
        <ele>126</ele>
        <time>2025-07-17T09:13:32.072Z</time>
      </trkpt>
      <trkpt lat="44.39575" lon="0.99957">
        <ele>126</ele>
        <time>2025-07-17T09:13:33.071Z</time>
      </trkpt>
      <trkpt lat="44.39576" lon="0.99956">
        <ele>126</ele>
        <time>2025-07-17T09:13:34.071Z</time>
      </trkpt>
      <trkpt lat="44.39577" lon="0.99955">
        <ele>126</ele>
        <time>2025-07-17T09:13:35.071Z</time>
      </trkpt>
      <trkpt lat="44.39578" lon="0.99955">
        <ele>126</ele>
        <time>2025-07-17T09:13:36.071Z</time>
      </trkpt>
      <trkpt lat="44.39579" lon="0.99954">
        <ele>126</ele>
        <time>2025-07-17T09:13:37.071Z</time>
      </trkpt>
      <trkpt lat="44.3958" lon="0.99953">
        <ele>125</ele>
        <time>2025-07-17T09:13:38.071Z</time>
      </trkpt>
      <trkpt lat="44.39581" lon="0.99952">
        <ele>124</ele>
        <time>2025-07-17T09:13:39.071Z</time>
      </trkpt>
      <trkpt lat="44.39582" lon="0.99952">
        <ele>124</ele>
        <time>2025-07-17T09:13:40.072Z</time>
      </trkpt>
      <trkpt lat="44.39583" lon="0.99951">
        <ele>123</ele>
        <time>2025-07-17T09:13:41.071Z</time>
      </trkpt>
      <trkpt lat="44.39584" lon="0.9995">
        <ele>123</ele>
        <time>2025-07-17T09:13:42.071Z</time>
      </trkpt>
      <trkpt lat="44.39585" lon="0.9995">
        <ele>122</ele>
        <time>2025-07-17T09:13:43.071Z</time>
      </trkpt>
      <trkpt lat="44.39586" lon="0.99949">
        <ele>122</ele>
        <time>2025-07-17T09:13:44.071Z</time>
      </trkpt>
      <trkpt lat="44.39587" lon="0.99949">
        <ele>122</ele>
        <time>2025-07-17T09:13:45.071Z</time>
      </trkpt>
      <trkpt lat="44.39588" lon="0.99948">
        <ele>121</ele>
        <time>2025-07-17T09:13:46.071Z</time>
      </trkpt>
      <trkpt lat="44.3959" lon="0.99947">
        <ele>121</ele>
        <time>2025-07-17T09:13:47.071Z</time>
      </trkpt>
      <trkpt lat="44.39591" lon="0.99947">
        <ele>121</ele>
        <time>2025-07-17T09:13:48.071Z</time>
      </trkpt>
      <trkpt lat="44.39592" lon="0.99946">
        <ele>121</ele>
        <time>2025-07-17T09:13:49.071Z</time>
      </trkpt>
      <trkpt lat="44.39593" lon="0.99945">
        <ele>121</ele>
        <time>2025-07-17T09:13:50.071Z</time>
      </trkpt>
      <trkpt lat="44.39594" lon="0.99944">
        <ele>122</ele>
        <time>2025-07-17T09:13:51.071Z</time>
      </trkpt>
      <trkpt lat="44.39595" lon="0.99943">
        <ele>122</ele>
        <time>2025-07-17T09:13:52.071Z</time>
      </trkpt>
      <trkpt lat="44.39596" lon="0.99943">
        <ele>121</ele>
        <time>2025-07-17T09:13:53.071Z</time>
      </trkpt>
      <trkpt lat="44.39597" lon="0.99942">
        <ele>121</ele>
        <time>2025-07-17T09:13:54.071Z</time>
      </trkpt>
      <trkpt lat="44.39598" lon="0.99941">
        <ele>121</ele>
        <time>2025-07-17T09:13:55.071Z</time>
      </trkpt>
      <trkpt lat="44.39598" lon="0.99941">
        <ele>120</ele>
        <time>2025-07-17T09:13:56.071Z</time>
      </trkpt>
      <trkpt lat="44.39599" lon="0.9994">
        <ele>120</ele>
        <time>2025-07-17T09:13:57.071Z</time>
      </trkpt>
      <trkpt lat="44.396" lon="0.9994">
        <ele>120</ele>
        <time>2025-07-17T09:13:58.071Z</time>
      </trkpt>
      <trkpt lat="44.39601" lon="0.99939">
        <ele>119</ele>
        <time>2025-07-17T09:13:59.071Z</time>
      </trkpt>
      <trkpt lat="44.39602" lon="0.99939">
        <ele>119</ele>
        <time>2025-07-17T09:14:00.071Z</time>
      </trkpt>
      <trkpt lat="44.39603" lon="0.99938">
        <ele>119</ele>
        <time>2025-07-17T09:14:01.071Z</time>
      </trkpt>
      <trkpt lat="44.39604" lon="0.99937">
        <ele>119</ele>
        <time>2025-07-17T09:14:02.071Z</time>
      </trkpt>
      <trkpt lat="44.39605" lon="0.99936">
        <ele>118</ele>
        <time>2025-07-17T09:14:03.071Z</time>
      </trkpt>
      <trkpt lat="44.39607" lon="0.99935">
        <ele>118</ele>
        <time>2025-07-17T09:14:04.071Z</time>
      </trkpt>
      <trkpt lat="44.39608" lon="0.99935">
        <ele>118</ele>
        <time>2025-07-17T09:14:05.071Z</time>
      </trkpt>
      <trkpt lat="44.39609" lon="0.99933">
        <ele>117</ele>
        <time>2025-07-17T09:14:06.071Z</time>
      </trkpt>
      <trkpt lat="44.3961" lon="0.99932">
        <ele>117</ele>
        <time>2025-07-17T09:14:07.071Z</time>
      </trkpt>
      <trkpt lat="44.39611" lon="0.99932">
        <ele>117</ele>
        <time>2025-07-17T09:14:08.071Z</time>
      </trkpt>
      <trkpt lat="44.39612" lon="0.99931">
        <ele>116</ele>
        <time>2025-07-17T09:14:09.071Z</time>
      </trkpt>
      <trkpt lat="44.39612" lon="0.9993">
        <ele>116</ele>
        <time>2025-07-17T09:14:10.071Z</time>
      </trkpt>
      <trkpt lat="44.39613" lon="0.99929">
        <ele>116</ele>
        <time>2025-07-17T09:14:11.071Z</time>
      </trkpt>
      <trkpt lat="44.39614" lon="0.99928">
        <ele>116</ele>
        <time>2025-07-17T09:14:12.071Z</time>
      </trkpt>
      <trkpt lat="44.39615" lon="0.99927">
        <ele>116</ele>
        <time>2025-07-17T09:14:13.071Z</time>
      </trkpt>
      <trkpt lat="44.39616" lon="0.99926">
        <ele>117</ele>
        <time>2025-07-17T09:14:14.071Z</time>
      </trkpt>
      <trkpt lat="44.39617" lon="0.99926">
        <ele>118</ele>
        <time>2025-07-17T09:14:15.071Z</time>
      </trkpt>
      <trkpt lat="44.39618" lon="0.99925">
        <ele>118</ele>
        <time>2025-07-17T09:14:16.072Z</time>
      </trkpt>
      <trkpt lat="44.39619" lon="0.99924">
        <ele>119</ele>
        <time>2025-07-17T09:14:17.071Z</time>
      </trkpt>
      <trkpt lat="44.3962" lon="0.99923">
        <ele>120</ele>
        <time>2025-07-17T09:14:18.071Z</time>
      </trkpt>
      <trkpt lat="44.39621" lon="0.99922">
        <ele>120</ele>
        <time>2025-07-17T09:14:19.071Z</time>
      </trkpt>
      <trkpt lat="44.39622" lon="0.99922">
        <ele>121</ele>
        <time>2025-07-17T09:14:20.071Z</time>
      </trkpt>
      <trkpt lat="44.39622" lon="0.99921">
        <ele>121</ele>
        <time>2025-07-17T09:14:21.071Z</time>
      </trkpt>
      <trkpt lat="44.39623" lon="0.99921">
        <ele>122</ele>
        <time>2025-07-17T09:14:22.072Z</time>
      </trkpt>
      <trkpt lat="44.39623" lon="0.99921">
        <ele>122</ele>
        <time>2025-07-17T09:14:23.071Z</time>
      </trkpt>
      <trkpt lat="44.39623" lon="0.99921">
        <ele>122</ele>
        <time>2025-07-17T09:14:24.071Z</time>
      </trkpt>
      <trkpt lat="44.39623" lon="0.9992">
        <ele>123</ele>
        <time>2025-07-17T09:14:25.071Z</time>
      </trkpt>
      <trkpt lat="44.39624" lon="0.9992">
        <ele>123</ele>
        <time>2025-07-17T09:14:26.071Z</time>
      </trkpt>
      <trkpt lat="44.39625" lon="0.99919">
        <ele>123</ele>
        <time>2025-07-17T09:14:27.071Z</time>
      </trkpt>
      <trkpt lat="44.39625" lon="0.99918">
        <ele>123</ele>
        <time>2025-07-17T09:14:28.071Z</time>
      </trkpt>
      <trkpt lat="44.39626" lon="0.99917">
        <ele>123</ele>
        <time>2025-07-17T09:14:29.071Z</time>
      </trkpt>
      <trkpt lat="44.39627" lon="0.99916">
        <ele>123</ele>
        <time>2025-07-17T09:14:30.071Z</time>
      </trkpt>
      <trkpt lat="44.39628" lon="0.99915">
        <ele>123</ele>
        <time>2025-07-17T09:14:31.071Z</time>
      </trkpt>
      <trkpt lat="44.39629" lon="0.99914">
        <ele>123</ele>
        <time>2025-07-17T09:14:32.071Z</time>
      </trkpt>
      <trkpt lat="44.3963" lon="0.99913">
        <ele>123</ele>
        <time>2025-07-17T09:14:33.071Z</time>
      </trkpt>
      <trkpt lat="44.39631" lon="0.99912">
        <ele>123</ele>
        <time>2025-07-17T09:14:34.071Z</time>
      </trkpt>
      <trkpt lat="44.39632" lon="0.99911">
        <ele>123</ele>
        <time>2025-07-17T09:14:35.071Z</time>
      </trkpt>
      <trkpt lat="44.39633" lon="0.9991">
        <ele>123</ele>
        <time>2025-07-17T09:14:36.071Z</time>
      </trkpt>
      <trkpt lat="44.39634" lon="0.99909">
        <ele>123</ele>
        <time>2025-07-17T09:14:37.071Z</time>
      </trkpt>
      <trkpt lat="44.39634" lon="0.99908">
        <ele>123</ele>
        <time>2025-07-17T09:14:38.071Z</time>
      </trkpt>
      <trkpt lat="44.39636" lon="0.99908">
        <ele>123</ele>
        <time>2025-07-17T09:14:39.071Z</time>
      </trkpt>
      <trkpt lat="44.39637" lon="0.99907">
        <ele>123</ele>
        <time>2025-07-17T09:14:40.071Z</time>
      </trkpt>
      <trkpt lat="44.39637" lon="0.99906">
        <ele>123</ele>
        <time>2025-07-17T09:14:41.071Z</time>
      </trkpt>
      <trkpt lat="44.39638" lon="0.99905">
        <ele>123</ele>
        <time>2025-07-17T09:14:42.072Z</time>
      </trkpt>
      <trkpt lat="44.3964" lon="0.99904">
        <ele>123</ele>
        <time>2025-07-17T09:14:43.071Z</time>
      </trkpt>
      <trkpt lat="44.3964" lon="0.99902">
        <ele>124</ele>
        <time>2025-07-17T09:14:44.071Z</time>
      </trkpt>
      <trkpt lat="44.39641" lon="0.999">
        <ele>124</ele>
        <time>2025-07-17T09:14:45.071Z</time>
      </trkpt>
      <trkpt lat="44.39642" lon="0.99899">
        <ele>124</ele>
        <time>2025-07-17T09:14:46.071Z</time>
      </trkpt>
      <trkpt lat="44.39642" lon="0.99897">
        <ele>125</ele>
        <time>2025-07-17T09:14:47.071Z</time>
      </trkpt>
      <trkpt lat="44.39643" lon="0.99896">
        <ele>125</ele>
        <time>2025-07-17T09:14:48.071Z</time>
      </trkpt>
      <trkpt lat="44.39643" lon="0.99895">
        <ele>126</ele>
        <time>2025-07-17T09:14:49.071Z</time>
      </trkpt>
      <trkpt lat="44.39644" lon="0.99893">
        <ele>126</ele>
        <time>2025-07-17T09:14:50.071Z</time>
      </trkpt>
      <trkpt lat="44.39644" lon="0.99892">
        <ele>126</ele>
        <time>2025-07-17T09:14:51.071Z</time>
      </trkpt>
      <trkpt lat="44.39645" lon="0.9989">
        <ele>125</ele>
        <time>2025-07-17T09:14:52.071Z</time>
      </trkpt>
      <trkpt lat="44.39645" lon="0.99888">
        <ele>125</ele>
        <time>2025-07-17T09:14:53.071Z</time>
      </trkpt>
      <trkpt lat="44.39646" lon="0.99887">
        <ele>125</ele>
        <time>2025-07-17T09:14:54.071Z</time>
      </trkpt>
      <trkpt lat="44.39647" lon="0.99885">
        <ele>125</ele>
        <time>2025-07-17T09:14:55.071Z</time>
      </trkpt>
      <trkpt lat="44.39647" lon="0.99884">
        <ele>125</ele>
        <time>2025-07-17T09:14:56.071Z</time>
      </trkpt>
      <trkpt lat="44.39648" lon="0.99882">
        <ele>125</ele>
        <time>2025-07-17T09:14:57.071Z</time>
      </trkpt>
      <trkpt lat="44.39648" lon="0.9988">
        <ele>125</ele>
        <time>2025-07-17T09:14:58.071Z</time>
      </trkpt>
      <trkpt lat="44.39649" lon="0.99879">
        <ele>125</ele>
        <time>2025-07-17T09:14:59.071Z</time>
      </trkpt>
      <trkpt lat="44.3965" lon="0.99878">
        <ele>124</ele>
        <time>2025-07-17T09:15:00.071Z</time>
      </trkpt>
      <trkpt lat="44.3965" lon="0.99877">
        <ele>124</ele>
        <time>2025-07-17T09:15:01.071Z</time>
      </trkpt>
      <trkpt lat="44.39651" lon="0.99875">
        <ele>124</ele>
        <time>2025-07-17T09:15:02.071Z</time>
      </trkpt>
      <trkpt lat="44.39651" lon="0.99874">
        <ele>124</ele>
        <time>2025-07-17T09:15:03.071Z</time>
      </trkpt>
      <trkpt lat="44.39651" lon="0.99872">
        <ele>124</ele>
        <time>2025-07-17T09:15:04.071Z</time>
      </trkpt>
      <trkpt lat="44.39652" lon="0.99871">
        <ele>124</ele>
        <time>2025-07-17T09:15:05.071Z</time>
      </trkpt>
      <trkpt lat="44.39652" lon="0.99869">
        <ele>124</ele>
        <time>2025-07-17T09:15:06.071Z</time>
      </trkpt>
      <trkpt lat="44.39653" lon="0.99867">
        <ele>124</ele>
        <time>2025-07-17T09:15:07.071Z</time>
      </trkpt>
      <trkpt lat="44.39654" lon="0.99866">
        <ele>124</ele>
        <time>2025-07-17T09:15:08.072Z</time>
      </trkpt>
      <trkpt lat="44.39654" lon="0.99864">
        <ele>124</ele>
        <time>2025-07-17T09:15:09.071Z</time>
      </trkpt>
      <trkpt lat="44.39655" lon="0.99862">
        <ele>124</ele>
        <time>2025-07-17T09:15:10.071Z</time>
      </trkpt>
      <trkpt lat="44.39656" lon="0.99861">
        <ele>124</ele>
        <time>2025-07-17T09:15:11.071Z</time>
      </trkpt>
      <trkpt lat="44.39657" lon="0.9986">
        <ele>124</ele>
        <time>2025-07-17T09:15:12.071Z</time>
      </trkpt>
      <trkpt lat="44.39658" lon="0.99858">
        <ele>124</ele>
        <time>2025-07-17T09:15:13.071Z</time>
      </trkpt>
      <trkpt lat="44.39659" lon="0.99857">
        <ele>123</ele>
        <time>2025-07-17T09:15:14.071Z</time>
      </trkpt>
      <trkpt lat="44.39659" lon="0.99855">
        <ele>123</ele>
        <time>2025-07-17T09:15:15.072Z</time>
      </trkpt>
      <trkpt lat="44.3966" lon="0.99854">
        <ele>123</ele>
        <time>2025-07-17T09:15:16.071Z</time>
      </trkpt>
      <trkpt lat="44.39661" lon="0.99852">
        <ele>123</ele>
        <time>2025-07-17T09:15:17.071Z</time>
      </trkpt>
      <trkpt lat="44.39661" lon="0.99851">
        <ele>123</ele>
        <time>2025-07-17T09:15:18.071Z</time>
      </trkpt>
      <trkpt lat="44.39662" lon="0.99849">
        <ele>123</ele>
        <time>2025-07-17T09:15:19.071Z</time>
      </trkpt>
      <trkpt lat="44.39663" lon="0.99848">
        <ele>123</ele>
        <time>2025-07-17T09:15:20.071Z</time>
      </trkpt>
      <trkpt lat="44.39664" lon="0.99847">
        <ele>123</ele>
        <time>2025-07-17T09:15:21.071Z</time>
      </trkpt>
      <trkpt lat="44.39664" lon="0.99846">
        <ele>123</ele>
        <time>2025-07-17T09:15:22.071Z</time>
      </trkpt>
      <trkpt lat="44.39665" lon="0.99844">
        <ele>123</ele>
        <time>2025-07-17T09:15:23.071Z</time>
      </trkpt>
      <trkpt lat="44.39666" lon="0.99843">
        <ele>124</ele>
        <time>2025-07-17T09:15:24.071Z</time>
      </trkpt>
      <trkpt lat="44.39666" lon="0.99841">
        <ele>124</ele>
        <time>2025-07-17T09:15:25.071Z</time>
      </trkpt>
      <trkpt lat="44.39667" lon="0.9984">
        <ele>124</ele>
        <time>2025-07-17T09:15:26.071Z</time>
      </trkpt>
      <trkpt lat="44.39668" lon="0.99839">
        <ele>124</ele>
        <time>2025-07-17T09:15:27.071Z</time>
      </trkpt>
      <trkpt lat="44.39669" lon="0.99838">
        <ele>124</ele>
        <time>2025-07-17T09:15:28.071Z</time>
      </trkpt>
      <trkpt lat="44.3967" lon="0.99837">
        <ele>124</ele>
        <time>2025-07-17T09:15:29.071Z</time>
      </trkpt>
      <trkpt lat="44.39671" lon="0.99836">
        <ele>125</ele>
        <time>2025-07-17T09:15:30.071Z</time>
      </trkpt>
      <trkpt lat="44.39672" lon="0.99835">
        <ele>125</ele>
        <time>2025-07-17T09:15:31.072Z</time>
      </trkpt>
      <trkpt lat="44.39673" lon="0.99835">
        <ele>124</ele>
        <time>2025-07-17T09:15:32.071Z</time>
      </trkpt>
      <trkpt lat="44.39673" lon="0.99834">
        <ele>124</ele>
        <time>2025-07-17T09:15:33.071Z</time>
      </trkpt>
      <trkpt lat="44.39674" lon="0.99833">
        <ele>124</ele>
        <time>2025-07-17T09:15:34.071Z</time>
      </trkpt>
      <trkpt lat="44.39675" lon="0.99832">
        <ele>124</ele>
        <time>2025-07-17T09:15:35.071Z</time>
      </trkpt>
      <trkpt lat="44.39675" lon="0.99832">
        <ele>124</ele>
        <time>2025-07-17T09:15:36.071Z</time>
      </trkpt>
      <trkpt lat="44.39676" lon="0.99831">
        <ele>124</ele>
        <time>2025-07-17T09:15:37.071Z</time>
      </trkpt>
      <trkpt lat="44.39676" lon="0.99831">
        <ele>124</ele>
        <time>2025-07-17T09:15:38.071Z</time>
      </trkpt>
      <trkpt lat="44.39676" lon="0.9983">
        <ele>124</ele>
        <time>2025-07-17T09:15:39.072Z</time>
      </trkpt>
      <trkpt lat="44.39676" lon="0.99829">
        <ele>124</ele>
        <time>2025-07-17T09:15:40.071Z</time>
      </trkpt>
      <trkpt lat="44.39677" lon="0.99829">
        <ele>125</ele>
        <time>2025-07-17T09:15:41.071Z</time>
      </trkpt>
      <trkpt lat="44.39677" lon="0.99828">
        <ele>125</ele>
        <time>2025-07-17T09:15:42.071Z</time>
      </trkpt>
      <trkpt lat="44.39678" lon="0.99827">
        <ele>126</ele>
        <time>2025-07-17T09:15:43.071Z</time>
      </trkpt>
      <trkpt lat="44.3968" lon="0.99826">
        <ele>126</ele>
        <time>2025-07-17T09:15:44.071Z</time>
      </trkpt>
      <trkpt lat="44.39681" lon="0.99825">
        <ele>127</ele>
        <time>2025-07-17T09:15:45.071Z</time>
      </trkpt>
      <trkpt lat="44.39683" lon="0.99824">
        <ele>128</ele>
        <time>2025-07-17T09:15:46.071Z</time>
      </trkpt>
      <trkpt lat="44.39684" lon="0.99824">
        <ele>128</ele>
        <time>2025-07-17T09:15:47.072Z</time>
      </trkpt>
      <trkpt lat="44.39685" lon="0.99823">
        <ele>129</ele>
        <time>2025-07-17T09:15:48.071Z</time>
      </trkpt>
      <trkpt lat="44.39685" lon="0.99824">
        <ele>129</ele>
        <time>2025-07-17T09:15:49.072Z</time>
      </trkpt>
      <trkpt lat="44.39686" lon="0.99824">
        <ele>129</ele>
        <time>2025-07-17T09:15:50.071Z</time>
      </trkpt>
      <trkpt lat="44.39687" lon="0.99824">
        <ele>130</ele>
        <time>2025-07-17T09:15:51.071Z</time>
      </trkpt>
      <trkpt lat="44.39688" lon="0.99825">
        <ele>130</ele>
        <time>2025-07-17T09:15:52.071Z</time>
      </trkpt>
      <trkpt lat="44.39689" lon="0.99825">
        <ele>130</ele>
        <time>2025-07-17T09:15:53.071Z</time>
      </trkpt>
      <trkpt lat="44.39689" lon="0.99825">
        <ele>131</ele>
        <time>2025-07-17T09:15:54.071Z</time>
      </trkpt>
      <trkpt lat="44.3969" lon="0.99825">
        <ele>131</ele>
        <time>2025-07-17T09:15:55.071Z</time>
      </trkpt>
      <trkpt lat="44.3969" lon="0.99825">
        <ele>131</ele>
        <time>2025-07-17T09:15:56.071Z</time>
      </trkpt>
      <trkpt lat="44.3969" lon="0.99824">
        <ele>131</ele>
        <time>2025-07-17T09:15:57.071Z</time>
      </trkpt>
      <trkpt lat="44.3969" lon="0.99824">
        <ele>131</ele>
        <time>2025-07-17T09:15:58.071Z</time>
      </trkpt>
      <trkpt lat="44.3969" lon="0.99823">
        <ele>131</ele>
        <time>2025-07-17T09:15:59.071Z</time>
      </trkpt>
      <trkpt lat="44.39691" lon="0.99822">
        <ele>131</ele>
        <time>2025-07-17T09:16:00.071Z</time>
      </trkpt>
      <trkpt lat="44.39692" lon="0.99822">
        <ele>131</ele>
        <time>2025-07-17T09:16:01.071Z</time>
      </trkpt>
      <trkpt lat="44.39693" lon="0.99821">
        <ele>131</ele>
        <time>2025-07-17T09:16:02.071Z</time>
      </trkpt>
      <trkpt lat="44.39693" lon="0.99821">
        <ele>131</ele>
        <time>2025-07-17T09:16:03.071Z</time>
      </trkpt>
      <trkpt lat="44.39694" lon="0.99821">
        <ele>131</ele>
        <time>2025-07-17T09:16:04.071Z</time>
      </trkpt>
      <trkpt lat="44.39694" lon="0.9982">
        <ele>131</ele>
        <time>2025-07-17T09:16:05.071Z</time>
      </trkpt>
      <trkpt lat="44.39695" lon="0.99819">
        <ele>132</ele>
        <time>2025-07-17T09:16:06.071Z</time>
      </trkpt>
      <trkpt lat="44.39695" lon="0.99819">
        <ele>132</ele>
        <time>2025-07-17T09:16:07.071Z</time>
      </trkpt>
      <trkpt lat="44.39696" lon="0.99818">
        <ele>132</ele>
        <time>2025-07-17T09:16:08.071Z</time>
      </trkpt>
      <trkpt lat="44.39696" lon="0.99818">
        <ele>132</ele>
        <time>2025-07-17T09:16:09.071Z</time>
      </trkpt>
      <trkpt lat="44.39697" lon="0.99817">
        <ele>132</ele>
        <time>2025-07-17T09:16:10.071Z</time>
      </trkpt>
      <trkpt lat="44.39697" lon="0.99816">
        <ele>133</ele>
        <time>2025-07-17T09:16:11.071Z</time>
      </trkpt>
      <trkpt lat="44.39698" lon="0.99816">
        <ele>133</ele>
        <time>2025-07-17T09:16:12.071Z</time>
      </trkpt>
      <trkpt lat="44.39698" lon="0.99815">
        <ele>133</ele>
        <time>2025-07-17T09:16:13.071Z</time>
      </trkpt>
      <trkpt lat="44.39699" lon="0.99815">
        <ele>133</ele>
        <time>2025-07-17T09:16:14.071Z</time>
      </trkpt>
      <trkpt lat="44.39699" lon="0.99814">
        <ele>133</ele>
        <time>2025-07-17T09:16:15.071Z</time>
      </trkpt>
      <trkpt lat="44.397" lon="0.99814">
        <ele>133</ele>
        <time>2025-07-17T09:16:16.071Z</time>
      </trkpt>
      <trkpt lat="44.397" lon="0.99813">
        <ele>132</ele>
        <time>2025-07-17T09:16:17.071Z</time>
      </trkpt>
      <trkpt lat="44.397" lon="0.99814">
        <ele>132</ele>
        <time>2025-07-17T09:16:18.071Z</time>
      </trkpt>
      <trkpt lat="44.397" lon="0.99814">
        <ele>132</ele>
        <time>2025-07-17T09:16:19.071Z</time>
      </trkpt>
      <trkpt lat="44.397" lon="0.99813">
        <ele>132</ele>
        <time>2025-07-17T09:16:20.072Z</time>
      </trkpt>
      <trkpt lat="44.397" lon="0.99813">
        <ele>132</ele>
        <time>2025-07-17T09:16:21.071Z</time>
      </trkpt>
      <trkpt lat="44.397" lon="0.99813">
        <ele>133</ele>
        <time>2025-07-17T09:16:22.071Z</time>
      </trkpt>
      <trkpt lat="44.397" lon="0.99813">
        <ele>133</ele>
        <time>2025-07-17T09:16:23.071Z</time>
      </trkpt>
      <trkpt lat="44.397" lon="0.99813">
        <ele>133</ele>
        <time>2025-07-17T09:16:24.071Z</time>
      </trkpt>
      <trkpt lat="44.397" lon="0.99813">
        <ele>133</ele>
        <time>2025-07-17T09:16:25.071Z</time>
      </trkpt>
      <trkpt lat="44.397" lon="0.99813">
        <ele>133</ele>
        <time>2025-07-17T09:16:26.071Z</time>
      </trkpt>
      <trkpt lat="44.397" lon="0.99812">
        <ele>133</ele>
        <time>2025-07-17T09:16:27.071Z</time>
      </trkpt>
      <trkpt lat="44.39701" lon="0.99812">
        <ele>133</ele>
        <time>2025-07-17T09:16:28.071Z</time>
      </trkpt>
      <trkpt lat="44.39701" lon="0.99811">
        <ele>133</ele>
        <time>2025-07-17T09:16:29.071Z</time>
      </trkpt>
      <trkpt lat="44.39702" lon="0.9981">
        <ele>133</ele>
        <time>2025-07-17T09:16:30.071Z</time>
      </trkpt>
      <trkpt lat="44.39702" lon="0.9981">
        <ele>133</ele>
        <time>2025-07-17T09:16:31.071Z</time>
      </trkpt>
      <trkpt lat="44.39702" lon="0.9981">
        <ele>133</ele>
        <time>2025-07-17T09:16:32.071Z</time>
      </trkpt>
      <trkpt lat="44.39703" lon="0.99809">
        <ele>133</ele>
        <time>2025-07-17T09:16:33.071Z</time>
      </trkpt>
      <trkpt lat="44.39703" lon="0.99809">
        <ele>133</ele>
        <time>2025-07-17T09:16:34.071Z</time>
      </trkpt>
      <trkpt lat="44.39703" lon="0.99808">
        <ele>134</ele>
        <time>2025-07-17T09:16:35.071Z</time>
      </trkpt>
      <trkpt lat="44.39703" lon="0.99808">
        <ele>134</ele>
        <time>2025-07-17T09:16:36.071Z</time>
      </trkpt>
      <trkpt lat="44.39703" lon="0.99807">
        <ele>134</ele>
        <time>2025-07-17T09:16:37.072Z</time>
      </trkpt>
      <trkpt lat="44.39703" lon="0.99807">
        <ele>134</ele>
        <time>2025-07-17T09:16:38.071Z</time>
      </trkpt>
      <trkpt lat="44.39704" lon="0.99806">
        <ele>135</ele>
        <time>2025-07-17T09:16:39.071Z</time>
      </trkpt>
      <trkpt lat="44.39705" lon="0.99805">
        <ele>135</ele>
        <time>2025-07-17T09:16:40.071Z</time>
      </trkpt>
      <trkpt lat="44.39705" lon="0.99805">
        <ele>135</ele>
        <time>2025-07-17T09:16:41.071Z</time>
      </trkpt>
      <trkpt lat="44.39705" lon="0.99805">
        <ele>135</ele>
        <time>2025-07-17T09:16:42.071Z</time>
      </trkpt>
      <trkpt lat="44.39705" lon="0.99805">
        <ele>135</ele>
        <time>2025-07-17T09:16:43.071Z</time>
      </trkpt>
      <trkpt lat="44.39706" lon="0.99804">
        <ele>135</ele>
        <time>2025-07-17T09:16:44.071Z</time>
      </trkpt>
      <trkpt lat="44.39706" lon="0.99804">
        <ele>134</ele>
        <time>2025-07-17T09:16:45.071Z</time>
      </trkpt>
      <trkpt lat="44.39706" lon="0.99803">
        <ele>134</ele>
        <time>2025-07-17T09:16:46.071Z</time>
      </trkpt>
      <trkpt lat="44.39707" lon="0.99803">
        <ele>135</ele>
        <time>2025-07-17T09:16:47.071Z</time>
      </trkpt>
      <trkpt lat="44.39707" lon="0.99803">
        <ele>135</ele>
        <time>2025-07-17T09:16:48.071Z</time>
      </trkpt>
      <trkpt lat="44.39707" lon="0.99803">
        <ele>135</ele>
        <time>2025-07-17T09:16:49.071Z</time>
      </trkpt>
      <trkpt lat="44.39707" lon="0.99802">
        <ele>135</ele>
        <time>2025-07-17T09:16:50.071Z</time>
      </trkpt>
      <trkpt lat="44.39707" lon="0.99802">
        <ele>136</ele>
        <time>2025-07-17T09:16:51.071Z</time>
      </trkpt>
      <trkpt lat="44.39707" lon="0.99802">
        <ele>136</ele>
        <time>2025-07-17T09:16:52.071Z</time>
      </trkpt>
      <trkpt lat="44.39707" lon="0.99802">
        <ele>136</ele>
        <time>2025-07-17T09:16:53.071Z</time>
      </trkpt>
      <trkpt lat="44.39707" lon="0.99802">
        <ele>136</ele>
        <time>2025-07-17T09:16:54.071Z</time>
      </trkpt>
      <trkpt lat="44.39708" lon="0.99802">
        <ele>137</ele>
        <time>2025-07-17T09:16:55.071Z</time>
      </trkpt>
      <trkpt lat="44.39708" lon="0.99801">
        <ele>137</ele>
        <time>2025-07-17T09:16:56.071Z</time>
      </trkpt>
      <trkpt lat="44.39708" lon="0.99801">
        <ele>137</ele>
        <time>2025-07-17T09:16:57.071Z</time>
      </trkpt>
      <trkpt lat="44.39708" lon="0.99801">
        <ele>137</ele>
        <time>2025-07-17T09:16:58.071Z</time>
      </trkpt>
      <trkpt lat="44.39708" lon="0.99801">
        <ele>137</ele>
        <time>2025-07-17T09:16:59.071Z</time>
      </trkpt>
      <trkpt lat="44.39708" lon="0.998">
        <ele>136</ele>
        <time>2025-07-17T09:17:00.071Z</time>
      </trkpt>
      <trkpt lat="44.39709" lon="0.998">
        <ele>136</ele>
        <time>2025-07-17T09:17:01.071Z</time>
      </trkpt>
      <trkpt lat="44.39709" lon="0.99799">
        <ele>136</ele>
        <time>2025-07-17T09:17:02.071Z</time>
      </trkpt>
      <trkpt lat="44.39709" lon="0.99798">
        <ele>136</ele>
        <time>2025-07-17T09:17:03.071Z</time>
      </trkpt>
      <trkpt lat="44.3971" lon="0.99798">
        <ele>135</ele>
        <time>2025-07-17T09:17:04.071Z</time>
      </trkpt>
      <trkpt lat="44.3971" lon="0.99797">
        <ele>135</ele>
        <time>2025-07-17T09:17:05.071Z</time>
      </trkpt>
      <trkpt lat="44.39711" lon="0.99797">
        <ele>136</ele>
        <time>2025-07-17T09:17:06.071Z</time>
      </trkpt>
      <trkpt lat="44.39711" lon="0.99797">
        <ele>136</ele>
        <time>2025-07-17T09:17:07.071Z</time>
      </trkpt>
      <trkpt lat="44.39711" lon="0.99796">
        <ele>136</ele>
        <time>2025-07-17T09:17:08.071Z</time>
      </trkpt>
      <trkpt lat="44.39712" lon="0.99796">
        <ele>136</ele>
        <time>2025-07-17T09:17:09.071Z</time>
      </trkpt>
      <trkpt lat="44.39712" lon="0.99796">
        <ele>136</ele>
        <time>2025-07-17T09:17:10.071Z</time>
      </trkpt>
      <trkpt lat="44.39713" lon="0.99795">
        <ele>137</ele>
        <time>2025-07-17T09:17:11.071Z</time>
      </trkpt>
      <trkpt lat="44.39713" lon="0.99794">
        <ele>137</ele>
        <time>2025-07-17T09:17:12.071Z</time>
      </trkpt>
      <trkpt lat="44.39714" lon="0.99794">
        <ele>137</ele>
        <time>2025-07-17T09:17:13.071Z</time>
      </trkpt>
      <trkpt lat="44.39714" lon="0.99793">
        <ele>137</ele>
        <time>2025-07-17T09:17:14.072Z</time>
      </trkpt>
      <trkpt lat="44.39715" lon="0.99792">
        <ele>137</ele>
        <time>2025-07-17T09:17:15.071Z</time>
      </trkpt>
      <trkpt lat="44.39716" lon="0.99792">
        <ele>137</ele>
        <time>2025-07-17T09:17:16.071Z</time>
      </trkpt>
      <trkpt lat="44.39716" lon="0.99791">
        <ele>137</ele>
        <time>2025-07-17T09:17:17.071Z</time>
      </trkpt>
      <trkpt lat="44.39717" lon="0.9979">
        <ele>137</ele>
        <time>2025-07-17T09:17:18.071Z</time>
      </trkpt>
      <trkpt lat="44.39717" lon="0.99789">
        <ele>137</ele>
        <time>2025-07-17T09:17:19.071Z</time>
      </trkpt>
      <trkpt lat="44.39718" lon="0.99789">
        <ele>137</ele>
        <time>2025-07-17T09:17:20.071Z</time>
      </trkpt>
      <trkpt lat="44.39719" lon="0.99788">
        <ele>136</ele>
        <time>2025-07-17T09:17:21.071Z</time>
      </trkpt>
      <trkpt lat="44.3972" lon="0.99787">
        <ele>136</ele>
        <time>2025-07-17T09:17:22.071Z</time>
      </trkpt>
      <trkpt lat="44.39721" lon="0.99786">
        <ele>136</ele>
        <time>2025-07-17T09:17:23.071Z</time>
      </trkpt>
      <trkpt lat="44.39721" lon="0.99785">
        <ele>136</ele>
        <time>2025-07-17T09:17:24.071Z</time>
      </trkpt>
      <trkpt lat="44.39722" lon="0.99783">
        <ele>136</ele>
        <time>2025-07-17T09:17:25.071Z</time>
      </trkpt>
      <trkpt lat="44.39722" lon="0.99782">
        <ele>135</ele>
        <time>2025-07-17T09:17:26.071Z</time>
      </trkpt>
      <trkpt lat="44.39723" lon="0.99782">
        <ele>135</ele>
        <time>2025-07-17T09:17:27.071Z</time>
      </trkpt>
      <trkpt lat="44.39724" lon="0.99782">
        <ele>135</ele>
        <time>2025-07-17T09:17:28.071Z</time>
      </trkpt>
      <trkpt lat="44.39725" lon="0.99781">
        <ele>134</ele>
        <time>2025-07-17T09:17:29.071Z</time>
      </trkpt>
      <trkpt lat="44.39726" lon="0.99781">
        <ele>134</ele>
        <time>2025-07-17T09:17:30.071Z</time>
      </trkpt>
      <trkpt lat="44.39726" lon="0.99781">
        <ele>134</ele>
        <time>2025-07-17T09:17:31.071Z</time>
      </trkpt>
      <trkpt lat="44.39727" lon="0.9978">
        <ele>134</ele>
        <time>2025-07-17T09:17:32.071Z</time>
      </trkpt>
      <trkpt lat="44.39728" lon="0.99779">
        <ele>135</ele>
        <time>2025-07-17T09:17:33.071Z</time>
      </trkpt>
      <trkpt lat="44.39729" lon="0.99778">
        <ele>135</ele>
        <time>2025-07-17T09:17:34.071Z</time>
      </trkpt>
      <trkpt lat="44.39729" lon="0.99778">
        <ele>135</ele>
        <time>2025-07-17T09:17:35.071Z</time>
      </trkpt>
      <trkpt lat="44.3973" lon="0.99777">
        <ele>136</ele>
        <time>2025-07-17T09:17:36.071Z</time>
      </trkpt>
      <trkpt lat="44.3973" lon="0.99777">
        <ele>136</ele>
        <time>2025-07-17T09:17:37.071Z</time>
      </trkpt>
      <trkpt lat="44.39731" lon="0.99776">
        <ele>136</ele>
        <time>2025-07-17T09:17:38.071Z</time>
      </trkpt>
      <trkpt lat="44.39731" lon="0.99775">
        <ele>137</ele>
        <time>2025-07-17T09:17:39.071Z</time>
      </trkpt>
      <trkpt lat="44.39732" lon="0.99773">
        <ele>137</ele>
        <time>2025-07-17T09:17:40.071Z</time>
      </trkpt>
      <trkpt lat="44.39733" lon="0.99773">
        <ele>137</ele>
        <time>2025-07-17T09:17:41.071Z</time>
      </trkpt>
      <trkpt lat="44.39733" lon="0.99772">
        <ele>138</ele>
        <time>2025-07-17T09:17:42.071Z</time>
      </trkpt>
      <trkpt lat="44.39734" lon="0.99771">
        <ele>138</ele>
        <time>2025-07-17T09:17:43.071Z</time>
      </trkpt>
      <trkpt lat="44.39735" lon="0.9977">
        <ele>138</ele>
        <time>2025-07-17T09:17:44.071Z</time>
      </trkpt>
      <trkpt lat="44.39736" lon="0.9977">
        <ele>139</ele>
        <time>2025-07-17T09:17:45.071Z</time>
      </trkpt>
      <trkpt lat="44.39737" lon="0.99769">
        <ele>139</ele>
        <time>2025-07-17T09:17:46.071Z</time>
      </trkpt>
      <trkpt lat="44.39738" lon="0.99769">
        <ele>139</ele>
        <time>2025-07-17T09:17:47.071Z</time>
      </trkpt>
      <trkpt lat="44.39738" lon="0.99768">
        <ele>138</ele>
        <time>2025-07-17T09:17:48.071Z</time>
      </trkpt>
      <trkpt lat="44.39739" lon="0.99767">
        <ele>138</ele>
        <time>2025-07-17T09:17:49.071Z</time>
      </trkpt>
      <trkpt lat="44.3974" lon="0.99767">
        <ele>138</ele>
        <time>2025-07-17T09:17:50.071Z</time>
      </trkpt>
      <trkpt lat="44.39741" lon="0.99767">
        <ele>138</ele>
        <time>2025-07-17T09:17:51.072Z</time>
      </trkpt>
      <trkpt lat="44.39742" lon="0.99766">
        <ele>138</ele>
        <time>2025-07-17T09:17:52.071Z</time>
      </trkpt>
      <trkpt lat="44.39742" lon="0.99765">
        <ele>138</ele>
        <time>2025-07-17T09:17:53.071Z</time>
      </trkpt>
      <trkpt lat="44.39743" lon="0.99764">
        <ele>138</ele>
        <time>2025-07-17T09:17:54.071Z</time>
      </trkpt>
      <trkpt lat="44.39743" lon="0.99764">
        <ele>138</ele>
        <time>2025-07-17T09:17:55.071Z</time>
      </trkpt>
      <trkpt lat="44.39744" lon="0.99764">
        <ele>138</ele>
        <time>2025-07-17T09:17:56.071Z</time>
      </trkpt>
      <trkpt lat="44.39745" lon="0.99763">
        <ele>139</ele>
        <time>2025-07-17T09:17:57.071Z</time>
      </trkpt>
      <trkpt lat="44.39745" lon="0.99763">
        <ele>139</ele>
        <time>2025-07-17T09:17:58.072Z</time>
      </trkpt>
      <trkpt lat="44.39746" lon="0.99762">
        <ele>139</ele>
        <time>2025-07-17T09:17:59.071Z</time>
      </trkpt>
      <trkpt lat="44.39747" lon="0.99762">
        <ele>139</ele>
        <time>2025-07-17T09:18:00.071Z</time>
      </trkpt>
      <trkpt lat="44.39747" lon="0.99761">
        <ele>139</ele>
        <time>2025-07-17T09:18:01.071Z</time>
      </trkpt>
      <trkpt lat="44.39748" lon="0.99761">
        <ele>139</ele>
        <time>2025-07-17T09:18:02.071Z</time>
      </trkpt>
      <trkpt lat="44.39748" lon="0.99761">
        <ele>139</ele>
        <time>2025-07-17T09:18:03.071Z</time>
      </trkpt>
      <trkpt lat="44.39749" lon="0.9976">
        <ele>139</ele>
        <time>2025-07-17T09:18:04.071Z</time>
      </trkpt>
      <trkpt lat="44.3975" lon="0.99759">
        <ele>139</ele>
        <time>2025-07-17T09:18:05.071Z</time>
      </trkpt>
      <trkpt lat="44.39751" lon="0.99758">
        <ele>139</ele>
        <time>2025-07-17T09:18:06.071Z</time>
      </trkpt>
      <trkpt lat="44.39751" lon="0.99758">
        <ele>139</ele>
        <time>2025-07-17T09:18:07.071Z</time>
      </trkpt>
      <trkpt lat="44.39751" lon="0.99757">
        <ele>139</ele>
        <time>2025-07-17T09:18:08.071Z</time>
      </trkpt>
      <trkpt lat="44.39751" lon="0.99757">
        <ele>139</ele>
        <time>2025-07-17T09:18:09.071Z</time>
      </trkpt>
      <trkpt lat="44.39752" lon="0.99757">
        <ele>139</ele>
        <time>2025-07-17T09:18:10.071Z</time>
      </trkpt>
      <trkpt lat="44.39752" lon="0.99757">
        <ele>139</ele>
        <time>2025-07-17T09:18:11.071Z</time>
      </trkpt>
      <trkpt lat="44.39752" lon="0.99757">
        <ele>139</ele>
        <time>2025-07-17T09:18:12.071Z</time>
      </trkpt>
      <trkpt lat="44.39752" lon="0.99757">
        <ele>139</ele>
        <time>2025-07-17T09:18:13.071Z</time>
      </trkpt>
      <trkpt lat="44.39751" lon="0.99757">
        <ele>139</ele>
        <time>2025-07-17T09:18:14.071Z</time>
      </trkpt>
      <trkpt lat="44.39751" lon="0.99757">
        <ele>139</ele>
        <time>2025-07-17T09:18:15.071Z</time>
      </trkpt>
      <trkpt lat="44.39751" lon="0.99757">
        <ele>139</ele>
        <time>2025-07-17T09:18:16.071Z</time>
      </trkpt>
      <trkpt lat="44.39752" lon="0.99757">
        <ele>139</ele>
        <time>2025-07-17T09:18:17.071Z</time>
      </trkpt>
      <trkpt lat="44.39752" lon="0.99757">
        <ele>139</ele>
        <time>2025-07-17T09:18:18.071Z</time>
      </trkpt>
      <trkpt lat="44.39752" lon="0.99757">
        <ele>140</ele>
        <time>2025-07-17T09:18:19.071Z</time>
      </trkpt>
      <trkpt lat="44.39752" lon="0.99758">
        <ele>140</ele>
        <time>2025-07-17T09:18:20.071Z</time>
      </trkpt>
      <trkpt lat="44.39752" lon="0.99758">
        <ele>141</ele>
        <time>2025-07-17T09:18:21.071Z</time>
      </trkpt>
      <trkpt lat="44.39752" lon="0.99758">
        <ele>141</ele>
        <time>2025-07-17T09:18:22.071Z</time>
      </trkpt>
      <trkpt lat="44.39752" lon="0.99759">
        <ele>141</ele>
        <time>2025-07-17T09:18:23.071Z</time>
      </trkpt>
      <trkpt lat="44.39751" lon="0.99759">
        <ele>142</ele>
        <time>2025-07-17T09:18:24.071Z</time>
      </trkpt>
      <trkpt lat="44.39751" lon="0.99759">
        <ele>142</ele>
        <time>2025-07-17T09:18:25.071Z</time>
      </trkpt>
      <trkpt lat="44.39751" lon="0.99759">
        <ele>142</ele>
        <time>2025-07-17T09:18:26.071Z</time>
      </trkpt>
      <trkpt lat="44.39751" lon="0.99759">
        <ele>142</ele>
        <time>2025-07-17T09:18:27.071Z</time>
      </trkpt>
      <trkpt lat="44.39751" lon="0.99759">
        <ele>141</ele>
        <time>2025-07-17T09:18:28.071Z</time>
      </trkpt>
      <trkpt lat="44.39751" lon="0.99759">
        <ele>141</ele>
        <time>2025-07-17T09:18:29.071Z</time>
      </trkpt>
      <trkpt lat="44.39751" lon="0.99759">
        <ele>141</ele>
        <time>2025-07-17T09:18:30.071Z</time>
      </trkpt>
      <trkpt lat="44.39751" lon="0.99759">
        <ele>140</ele>
        <time>2025-07-17T09:18:31.071Z</time>
      </trkpt>
      <trkpt lat="44.39751" lon="0.99759">
        <ele>141</ele>
        <time>2025-07-17T09:18:32.071Z</time>
      </trkpt>
      <trkpt lat="44.39751" lon="0.99759">
        <ele>141</ele>
        <time>2025-07-17T09:18:33.071Z</time>
      </trkpt>
      <trkpt lat="44.39751" lon="0.99759">
        <ele>141</ele>
        <time>2025-07-17T09:18:34.071Z</time>
      </trkpt>
      <trkpt lat="44.39751" lon="0.99759">
        <ele>141</ele>
        <time>2025-07-17T09:18:35.071Z</time>
      </trkpt>
      <trkpt lat="44.39751" lon="0.99759">
        <ele>140</ele>
        <time>2025-07-17T09:18:36.071Z</time>
      </trkpt>
      <trkpt lat="44.39751" lon="0.99759">
        <ele>140</ele>
        <time>2025-07-17T09:18:37.071Z</time>
      </trkpt>
      <trkpt lat="44.39751" lon="0.99759">
        <ele>139</ele>
        <time>2025-07-17T09:18:38.071Z</time>
      </trkpt>
      <trkpt lat="44.39751" lon="0.99759">
        <ele>139</ele>
        <time>2025-07-17T09:18:39.071Z</time>
      </trkpt>
      <trkpt lat="44.39751" lon="0.99759">
        <ele>138</ele>
        <time>2025-07-17T09:18:40.071Z</time>
      </trkpt>
      <trkpt lat="44.39751" lon="0.99758">
        <ele>138</ele>
        <time>2025-07-17T09:18:41.071Z</time>
      </trkpt>
      <trkpt lat="44.39752" lon="0.99758">
        <ele>138</ele>
        <time>2025-07-17T09:18:42.071Z</time>
      </trkpt>
      <trkpt lat="44.39752" lon="0.99757">
        <ele>139</ele>
        <time>2025-07-17T09:18:43.071Z</time>
      </trkpt>
      <trkpt lat="44.39752" lon="0.99756">
        <ele>139</ele>
        <time>2025-07-17T09:18:44.071Z</time>
      </trkpt>
      <trkpt lat="44.39752" lon="0.99755">
        <ele>139</ele>
        <time>2025-07-17T09:18:45.071Z</time>
      </trkpt>
      <trkpt lat="44.39753" lon="0.99754">
        <ele>140</ele>
        <time>2025-07-17T09:18:46.071Z</time>
      </trkpt>
      <trkpt lat="44.39753" lon="0.99753">
        <ele>140</ele>
        <time>2025-07-17T09:18:47.071Z</time>
      </trkpt>
      <trkpt lat="44.39754" lon="0.99752">
        <ele>140</ele>
        <time>2025-07-17T09:18:48.071Z</time>
      </trkpt>
      <trkpt lat="44.39754" lon="0.99752">
        <ele>141</ele>
        <time>2025-07-17T09:18:49.071Z</time>
      </trkpt>
      <trkpt lat="44.39754" lon="0.99751">
        <ele>141</ele>
        <time>2025-07-17T09:18:50.071Z</time>
      </trkpt>
      <trkpt lat="44.39753" lon="0.9975">
        <ele>142</ele>
        <time>2025-07-17T09:18:51.071Z</time>
      </trkpt>
      <trkpt lat="44.39753" lon="0.99749">
        <ele>142</ele>
        <time>2025-07-17T09:18:52.072Z</time>
      </trkpt>
      <trkpt lat="44.39753" lon="0.99748">
        <ele>142</ele>
        <time>2025-07-17T09:18:53.071Z</time>
      </trkpt>
      <trkpt lat="44.39753" lon="0.99747">
        <ele>142</ele>
        <time>2025-07-17T09:18:54.071Z</time>
      </trkpt>
      <trkpt lat="44.39753" lon="0.99746">
        <ele>142</ele>
        <time>2025-07-17T09:18:55.071Z</time>
      </trkpt>
      <trkpt lat="44.39753" lon="0.99744">
        <ele>142</ele>
        <time>2025-07-17T09:18:56.071Z</time>
      </trkpt>
      <trkpt lat="44.39754" lon="0.99743">
        <ele>142</ele>
        <time>2025-07-17T09:18:57.071Z</time>
      </trkpt>
      <trkpt lat="44.39753" lon="0.99742">
        <ele>142</ele>
        <time>2025-07-17T09:18:58.071Z</time>
      </trkpt>
      <trkpt lat="44.39753" lon="0.99741">
        <ele>143</ele>
        <time>2025-07-17T09:18:59.071Z</time>
      </trkpt>
      <trkpt lat="44.39753" lon="0.99739">
        <ele>143</ele>
        <time>2025-07-17T09:19:00.071Z</time>
      </trkpt>
      <trkpt lat="44.39753" lon="0.99738">
        <ele>143</ele>
        <time>2025-07-17T09:19:01.071Z</time>
      </trkpt>
      <trkpt lat="44.39753" lon="0.99738">
        <ele>143</ele>
        <time>2025-07-17T09:19:02.071Z</time>
      </trkpt>
      <trkpt lat="44.39753" lon="0.99738">
        <ele>143</ele>
        <time>2025-07-17T09:19:03.071Z</time>
      </trkpt>
      <trkpt lat="44.39753" lon="0.99738">
        <ele>143</ele>
        <time>2025-07-17T09:19:04.071Z</time>
      </trkpt>
      <trkpt lat="44.39753" lon="0.99738">
        <ele>143</ele>
        <time>2025-07-17T09:19:05.071Z</time>
      </trkpt>
      <trkpt lat="44.39753" lon="0.99738">
        <ele>143</ele>
        <time>2025-07-17T09:19:06.071Z</time>
      </trkpt>
      <trkpt lat="44.39753" lon="0.99738">
        <ele>143</ele>
        <time>2025-07-17T09:19:07.071Z</time>
      </trkpt>
      <trkpt lat="44.39753" lon="0.99738">
        <ele>142</ele>
        <time>2025-07-17T09:19:08.071Z</time>
      </trkpt>
      <trkpt lat="44.39753" lon="0.99738">
        <ele>142</ele>
        <time>2025-07-17T09:19:09.071Z</time>
      </trkpt>
      <trkpt lat="44.39753" lon="0.99738">
        <ele>142</ele>
        <time>2025-07-17T09:19:10.071Z</time>
      </trkpt>
      <trkpt lat="44.39753" lon="0.99738">
        <ele>142</ele>
        <time>2025-07-17T09:19:11.071Z</time>
      </trkpt>
      <trkpt lat="44.39753" lon="0.99737">
        <ele>142</ele>
        <time>2025-07-17T09:19:12.071Z</time>
      </trkpt>
      <trkpt lat="44.39754" lon="0.99737">
        <ele>143</ele>
        <time>2025-07-17T09:19:13.071Z</time>
      </trkpt>
      <trkpt lat="44.39754" lon="0.99737">
        <ele>143</ele>
        <time>2025-07-17T09:19:14.071Z</time>
      </trkpt>
      <trkpt lat="44.39754" lon="0.99736">
        <ele>143</ele>
        <time>2025-07-17T09:19:15.072Z</time>
      </trkpt>
      <trkpt lat="44.39754" lon="0.99735">
        <ele>144</ele>
        <time>2025-07-17T09:19:16.071Z</time>
      </trkpt>
      <trkpt lat="44.39754" lon="0.99733">
        <ele>144</ele>
        <time>2025-07-17T09:19:17.071Z</time>
      </trkpt>
      <trkpt lat="44.39754" lon="0.99731">
        <ele>144</ele>
        <time>2025-07-17T09:19:18.071Z</time>
      </trkpt>
      <trkpt lat="44.39754" lon="0.9973">
        <ele>145</ele>
        <time>2025-07-17T09:19:19.071Z</time>
      </trkpt>
      <trkpt lat="44.39755" lon="0.99728">
        <ele>145</ele>
        <time>2025-07-17T09:19:20.071Z</time>
      </trkpt>
      <trkpt lat="44.39755" lon="0.99727">
        <ele>145</ele>
        <time>2025-07-17T09:19:21.071Z</time>
      </trkpt>
      <trkpt lat="44.39755" lon="0.99725">
        <ele>145</ele>
        <time>2025-07-17T09:19:22.071Z</time>
      </trkpt>
      <trkpt lat="44.39756" lon="0.99724">
        <ele>145</ele>
        <time>2025-07-17T09:19:23.071Z</time>
      </trkpt>
      <trkpt lat="44.39756" lon="0.99723">
        <ele>145</ele>
        <time>2025-07-17T09:19:24.071Z</time>
      </trkpt>
      <trkpt lat="44.39756" lon="0.99721">
        <ele>145</ele>
        <time>2025-07-17T09:19:25.071Z</time>
      </trkpt>
      <trkpt lat="44.39756" lon="0.9972">
        <ele>144</ele>
        <time>2025-07-17T09:19:26.071Z</time>
      </trkpt>
      <trkpt lat="44.39756" lon="0.99718">
        <ele>144</ele>
        <time>2025-07-17T09:19:27.071Z</time>
      </trkpt>
      <trkpt lat="44.39756" lon="0.99718">
        <ele>145</ele>
        <time>2025-07-17T09:19:28.071Z</time>
      </trkpt>
      <trkpt lat="44.39756" lon="0.99717">
        <ele>145</ele>
        <time>2025-07-17T09:19:29.071Z</time>
      </trkpt>
      <trkpt lat="44.39756" lon="0.99716">
        <ele>145</ele>
        <time>2025-07-17T09:19:30.072Z</time>
      </trkpt>
      <trkpt lat="44.39756" lon="0.99715">
        <ele>145</ele>
        <time>2025-07-17T09:19:31.072Z</time>
      </trkpt>
      <trkpt lat="44.39755" lon="0.99713">
        <ele>145</ele>
        <time>2025-07-17T09:19:32.071Z</time>
      </trkpt>
      <trkpt lat="44.39755" lon="0.99712">
        <ele>145</ele>
        <time>2025-07-17T09:19:33.071Z</time>
      </trkpt>
      <trkpt lat="44.39755" lon="0.99711">
        <ele>145</ele>
        <time>2025-07-17T09:19:34.071Z</time>
      </trkpt>
      <trkpt lat="44.39756" lon="0.99709">
        <ele>145</ele>
        <time>2025-07-17T09:19:35.071Z</time>
      </trkpt>
      <trkpt lat="44.39756" lon="0.99708">
        <ele>146</ele>
        <time>2025-07-17T09:19:36.071Z</time>
      </trkpt>
      <trkpt lat="44.39756" lon="0.99707">
        <ele>146</ele>
        <time>2025-07-17T09:19:37.071Z</time>
      </trkpt>
      <trkpt lat="44.39756" lon="0.99705">
        <ele>146</ele>
        <time>2025-07-17T09:19:38.071Z</time>
      </trkpt>
      <trkpt lat="44.39757" lon="0.99704">
        <ele>147</ele>
        <time>2025-07-17T09:19:39.071Z</time>
      </trkpt>
      <trkpt lat="44.39756" lon="0.99704">
        <ele>148</ele>
        <time>2025-07-17T09:19:40.072Z</time>
      </trkpt>
      <trkpt lat="44.39757" lon="0.99702">
        <ele>148</ele>
        <time>2025-07-17T09:19:41.071Z</time>
      </trkpt>
      <trkpt lat="44.39757" lon="0.99701">
        <ele>148</ele>
        <time>2025-07-17T09:19:42.071Z</time>
      </trkpt>
      <trkpt lat="44.39757" lon="0.997">
        <ele>148</ele>
        <time>2025-07-17T09:19:43.071Z</time>
      </trkpt>
      <trkpt lat="44.39757" lon="0.99699">
        <ele>149</ele>
        <time>2025-07-17T09:19:44.071Z</time>
      </trkpt>
      <trkpt lat="44.39757" lon="0.99697">
        <ele>149</ele>
        <time>2025-07-17T09:19:45.071Z</time>
      </trkpt>
      <trkpt lat="44.39757" lon="0.99696">
        <ele>149</ele>
        <time>2025-07-17T09:19:46.071Z</time>
      </trkpt>
      <trkpt lat="44.39757" lon="0.99694">
        <ele>149</ele>
        <time>2025-07-17T09:19:47.071Z</time>
      </trkpt>
      <trkpt lat="44.39757" lon="0.99693">
        <ele>149</ele>
        <time>2025-07-17T09:19:48.071Z</time>
      </trkpt>
      <trkpt lat="44.39757" lon="0.99692">
        <ele>149</ele>
        <time>2025-07-17T09:19:49.072Z</time>
      </trkpt>
      <trkpt lat="44.39758" lon="0.99691">
        <ele>149</ele>
        <time>2025-07-17T09:19:50.071Z</time>
      </trkpt>
      <trkpt lat="44.39757" lon="0.9969">
        <ele>149</ele>
        <time>2025-07-17T09:19:51.071Z</time>
      </trkpt>
      <trkpt lat="44.39758" lon="0.99688">
        <ele>149</ele>
        <time>2025-07-17T09:19:52.071Z</time>
      </trkpt>
      <trkpt lat="44.39759" lon="0.99687">
        <ele>149</ele>
        <time>2025-07-17T09:19:53.071Z</time>
      </trkpt>
      <trkpt lat="44.39759" lon="0.99686">
        <ele>149</ele>
        <time>2025-07-17T09:19:54.071Z</time>
      </trkpt>
      <trkpt lat="44.39759" lon="0.99685">
        <ele>149</ele>
        <time>2025-07-17T09:19:55.071Z</time>
      </trkpt>
      <trkpt lat="44.39759" lon="0.99683">
        <ele>149</ele>
        <time>2025-07-17T09:19:56.071Z</time>
      </trkpt>
      <trkpt lat="44.39759" lon="0.99682">
        <ele>149</ele>
        <time>2025-07-17T09:19:57.071Z</time>
      </trkpt>
      <trkpt lat="44.3976" lon="0.9968">
        <ele>149</ele>
        <time>2025-07-17T09:19:58.071Z</time>
      </trkpt>
      <trkpt lat="44.3976" lon="0.99678">
        <ele>149</ele>
        <time>2025-07-17T09:19:59.071Z</time>
      </trkpt>
      <trkpt lat="44.3976" lon="0.99677">
        <ele>149</ele>
        <time>2025-07-17T09:20:00.071Z</time>
      </trkpt>
      <trkpt lat="44.3976" lon="0.99675">
        <ele>148</ele>
        <time>2025-07-17T09:20:01.071Z</time>
      </trkpt>
      <trkpt lat="44.3976" lon="0.99674">
        <ele>148</ele>
        <time>2025-07-17T09:20:02.071Z</time>
      </trkpt>
      <trkpt lat="44.3976" lon="0.99673">
        <ele>148</ele>
        <time>2025-07-17T09:20:03.071Z</time>
      </trkpt>
      <trkpt lat="44.39761" lon="0.99672">
        <ele>148</ele>
        <time>2025-07-17T09:20:04.071Z</time>
      </trkpt>
      <trkpt lat="44.39761" lon="0.9967">
        <ele>148</ele>
        <time>2025-07-17T09:20:05.071Z</time>
      </trkpt>
      <trkpt lat="44.39761" lon="0.99669">
        <ele>148</ele>
        <time>2025-07-17T09:20:06.071Z</time>
      </trkpt>
      <trkpt lat="44.39761" lon="0.99668">
        <ele>148</ele>
        <time>2025-07-17T09:20:07.071Z</time>
      </trkpt>
      <trkpt lat="44.39762" lon="0.99667">
        <ele>148</ele>
        <time>2025-07-17T09:20:08.071Z</time>
      </trkpt>
      <trkpt lat="44.39762" lon="0.99665">
        <ele>148</ele>
        <time>2025-07-17T09:20:09.071Z</time>
      </trkpt>
      <trkpt lat="44.39762" lon="0.99664">
        <ele>147</ele>
        <time>2025-07-17T09:20:10.071Z</time>
      </trkpt>
      <trkpt lat="44.39762" lon="0.99663">
        <ele>147</ele>
        <time>2025-07-17T09:20:11.071Z</time>
      </trkpt>
      <trkpt lat="44.39763" lon="0.99661">
        <ele>147</ele>
        <time>2025-07-17T09:20:12.072Z</time>
      </trkpt>
      <trkpt lat="44.39763" lon="0.99661">
        <ele>147</ele>
        <time>2025-07-17T09:20:13.071Z</time>
      </trkpt>
      <trkpt lat="44.39763" lon="0.9966">
        <ele>147</ele>
        <time>2025-07-17T09:20:14.071Z</time>
      </trkpt>
      <trkpt lat="44.39763" lon="0.99659">
        <ele>148</ele>
        <time>2025-07-17T09:20:15.071Z</time>
      </trkpt>
      <trkpt lat="44.39763" lon="0.99658">
        <ele>148</ele>
        <time>2025-07-17T09:20:16.071Z</time>
      </trkpt>
      <trkpt lat="44.39764" lon="0.99657">
        <ele>149</ele>
        <time>2025-07-17T09:20:17.071Z</time>
      </trkpt>
      <trkpt lat="44.39764" lon="0.99655">
        <ele>149</ele>
        <time>2025-07-17T09:20:18.071Z</time>
      </trkpt>
      <trkpt lat="44.39764" lon="0.99654">
        <ele>150</ele>
        <time>2025-07-17T09:20:19.072Z</time>
      </trkpt>
      <trkpt lat="44.39764" lon="0.99653">
        <ele>150</ele>
        <time>2025-07-17T09:20:20.071Z</time>
      </trkpt>
      <trkpt lat="44.39764" lon="0.99652">
        <ele>150</ele>
        <time>2025-07-17T09:20:21.071Z</time>
      </trkpt>
      <trkpt lat="44.39764" lon="0.9965">
        <ele>150</ele>
        <time>2025-07-17T09:20:22.071Z</time>
      </trkpt>
      <trkpt lat="44.39763" lon="0.99648">
        <ele>150</ele>
        <time>2025-07-17T09:20:23.071Z</time>
      </trkpt>
      <trkpt lat="44.39764" lon="0.99647">
        <ele>150</ele>
        <time>2025-07-17T09:20:24.071Z</time>
      </trkpt>
      <trkpt lat="44.39764" lon="0.99645">
        <ele>150</ele>
        <time>2025-07-17T09:20:25.071Z</time>
      </trkpt>
      <trkpt lat="44.39764" lon="0.99644">
        <ele>150</ele>
        <time>2025-07-17T09:20:26.071Z</time>
      </trkpt>
      <trkpt lat="44.39765" lon="0.99642">
        <ele>150</ele>
        <time>2025-07-17T09:20:27.071Z</time>
      </trkpt>
      <trkpt lat="44.39765" lon="0.9964">
        <ele>150</ele>
        <time>2025-07-17T09:20:28.071Z</time>
      </trkpt>
      <trkpt lat="44.39765" lon="0.99639">
        <ele>150</ele>
        <time>2025-07-17T09:20:29.071Z</time>
      </trkpt>
      <trkpt lat="44.39766" lon="0.99638">
        <ele>150</ele>
        <time>2025-07-17T09:20:30.071Z</time>
      </trkpt>
      <trkpt lat="44.39766" lon="0.99636">
        <ele>150</ele>
        <time>2025-07-17T09:20:31.071Z</time>
      </trkpt>
      <trkpt lat="44.39766" lon="0.99635">
        <ele>150</ele>
        <time>2025-07-17T09:20:32.071Z</time>
      </trkpt>
      <trkpt lat="44.39766" lon="0.99634">
        <ele>150</ele>
        <time>2025-07-17T09:20:33.071Z</time>
      </trkpt>
      <trkpt lat="44.39766" lon="0.99632">
        <ele>150</ele>
        <time>2025-07-17T09:20:34.071Z</time>
      </trkpt>
      <trkpt lat="44.39766" lon="0.99631">
        <ele>150</ele>
        <time>2025-07-17T09:20:35.071Z</time>
      </trkpt>
      <trkpt lat="44.39767" lon="0.99629">
        <ele>150</ele>
        <time>2025-07-17T09:20:36.071Z</time>
      </trkpt>
      <trkpt lat="44.39767" lon="0.99628">
        <ele>150</ele>
        <time>2025-07-17T09:20:37.071Z</time>
      </trkpt>
      <trkpt lat="44.39768" lon="0.99626">
        <ele>151</ele>
        <time>2025-07-17T09:20:38.071Z</time>
      </trkpt>
      <trkpt lat="44.39769" lon="0.99625">
        <ele>151</ele>
        <time>2025-07-17T09:20:39.071Z</time>
      </trkpt>
      <trkpt lat="44.39769" lon="0.99623">
        <ele>151</ele>
        <time>2025-07-17T09:20:40.071Z</time>
      </trkpt>
      <trkpt lat="44.3977" lon="0.99621">
        <ele>151</ele>
        <time>2025-07-17T09:20:41.071Z</time>
      </trkpt>
      <trkpt lat="44.3977" lon="0.9962">
        <ele>151</ele>
        <time>2025-07-17T09:20:42.071Z</time>
      </trkpt>
      <trkpt lat="44.39771" lon="0.99618">
        <ele>152</ele>
        <time>2025-07-17T09:20:43.071Z</time>
      </trkpt>
      <trkpt lat="44.39771" lon="0.99617">
        <ele>152</ele>
        <time>2025-07-17T09:20:44.071Z</time>
      </trkpt>
      <trkpt lat="44.39772" lon="0.99616">
        <ele>152</ele>
        <time>2025-07-17T09:20:45.071Z</time>
      </trkpt>
      <trkpt lat="44.39772" lon="0.99616">
        <ele>152</ele>
        <time>2025-07-17T09:20:46.072Z</time>
      </trkpt>
      <trkpt lat="44.39773" lon="0.99615">
        <ele>153</ele>
        <time>2025-07-17T09:20:47.071Z</time>
      </trkpt>
      <trkpt lat="44.39773" lon="0.99615">
        <ele>153</ele>
        <time>2025-07-17T09:20:48.071Z</time>
      </trkpt>
      <trkpt lat="44.39773" lon="0.99614">
        <ele>154</ele>
        <time>2025-07-17T09:20:49.071Z</time>
      </trkpt>
      <trkpt lat="44.39774" lon="0.99614">
        <ele>154</ele>
        <time>2025-07-17T09:20:50.071Z</time>
      </trkpt>
      <trkpt lat="44.39774" lon="0.99614">
        <ele>154</ele>
        <time>2025-07-17T09:20:51.071Z</time>
      </trkpt>
      <trkpt lat="44.39775" lon="0.99613">
        <ele>154</ele>
        <time>2025-07-17T09:20:52.071Z</time>
      </trkpt>
      <trkpt lat="44.39775" lon="0.99612">
        <ele>154</ele>
        <time>2025-07-17T09:20:53.071Z</time>
      </trkpt>
      <trkpt lat="44.39776" lon="0.99611">
        <ele>154</ele>
        <time>2025-07-17T09:20:54.071Z</time>
      </trkpt>
      <trkpt lat="44.39776" lon="0.9961">
        <ele>154</ele>
        <time>2025-07-17T09:20:55.071Z</time>
      </trkpt>
      <trkpt lat="44.39777" lon="0.99609">
        <ele>154</ele>
        <time>2025-07-17T09:20:56.071Z</time>
      </trkpt>
      <trkpt lat="44.39777" lon="0.99608">
        <ele>154</ele>
        <time>2025-07-17T09:20:57.071Z</time>
      </trkpt>
      <trkpt lat="44.39778" lon="0.99608">
        <ele>154</ele>
        <time>2025-07-17T09:20:58.071Z</time>
      </trkpt>
      <trkpt lat="44.39778" lon="0.99607">
        <ele>154</ele>
        <time>2025-07-17T09:20:59.071Z</time>
      </trkpt>
      <trkpt lat="44.39779" lon="0.99606">
        <ele>154</ele>
        <time>2025-07-17T09:21:00.071Z</time>
      </trkpt>
      <trkpt lat="44.39779" lon="0.99605">
        <ele>154</ele>
        <time>2025-07-17T09:21:01.071Z</time>
      </trkpt>
      <trkpt lat="44.3978" lon="0.99604">
        <ele>154</ele>
        <time>2025-07-17T09:21:02.071Z</time>
      </trkpt>
      <trkpt lat="44.3978" lon="0.99603">
        <ele>154</ele>
        <time>2025-07-17T09:21:03.071Z</time>
      </trkpt>
      <trkpt lat="44.3978" lon="0.99601">
        <ele>154</ele>
        <time>2025-07-17T09:21:04.071Z</time>
      </trkpt>
      <trkpt lat="44.3978" lon="0.996">
        <ele>154</ele>
        <time>2025-07-17T09:21:05.071Z</time>
      </trkpt>
      <trkpt lat="44.39781" lon="0.99598">
        <ele>154</ele>
        <time>2025-07-17T09:21:06.071Z</time>
      </trkpt>
      <trkpt lat="44.39782" lon="0.99596">
        <ele>155</ele>
        <time>2025-07-17T09:21:07.071Z</time>
      </trkpt>
      <trkpt lat="44.39782" lon="0.99595">
        <ele>155</ele>
        <time>2025-07-17T09:21:08.071Z</time>
      </trkpt>
      <trkpt lat="44.39783" lon="0.99593">
        <ele>155</ele>
        <time>2025-07-17T09:21:09.071Z</time>
      </trkpt>
      <trkpt lat="44.39783" lon="0.99591">
        <ele>155</ele>
        <time>2025-07-17T09:21:10.071Z</time>
      </trkpt>
      <trkpt lat="44.39784" lon="0.99589">
        <ele>156</ele>
        <time>2025-07-17T09:21:11.072Z</time>
      </trkpt>
      <trkpt lat="44.39784" lon="0.99588">
        <ele>156</ele>
        <time>2025-07-17T09:21:12.072Z</time>
      </trkpt>
      <trkpt lat="44.39785" lon="0.99586">
        <ele>156</ele>
        <time>2025-07-17T09:21:13.071Z</time>
      </trkpt>
      <trkpt lat="44.39785" lon="0.99585">
        <ele>156</ele>
        <time>2025-07-17T09:21:14.071Z</time>
      </trkpt>
      <trkpt lat="44.39786" lon="0.99584">
        <ele>156</ele>
        <time>2025-07-17T09:21:15.071Z</time>
      </trkpt>
      <trkpt lat="44.39786" lon="0.99582">
        <ele>156</ele>
        <time>2025-07-17T09:21:16.071Z</time>
      </trkpt>
      <trkpt lat="44.39787" lon="0.99581">
        <ele>156</ele>
        <time>2025-07-17T09:21:17.071Z</time>
      </trkpt>
      <trkpt lat="44.39787" lon="0.9958">
        <ele>156</ele>
        <time>2025-07-17T09:21:18.071Z</time>
      </trkpt>
      <trkpt lat="44.39788" lon="0.99578">
        <ele>156</ele>
        <time>2025-07-17T09:21:19.071Z</time>
      </trkpt>
      <trkpt lat="44.39788" lon="0.99577">
        <ele>156</ele>
        <time>2025-07-17T09:21:20.071Z</time>
      </trkpt>
      <trkpt lat="44.39789" lon="0.99576">
        <ele>156</ele>
        <time>2025-07-17T09:21:21.071Z</time>
      </trkpt>
      <trkpt lat="44.39789" lon="0.99574">
        <ele>155</ele>
        <time>2025-07-17T09:21:22.071Z</time>
      </trkpt>
      <trkpt lat="44.3979" lon="0.99573">
        <ele>155</ele>
        <time>2025-07-17T09:21:23.071Z</time>
      </trkpt>
      <trkpt lat="44.3979" lon="0.99571">
        <ele>155</ele>
        <time>2025-07-17T09:21:24.072Z</time>
      </trkpt>
      <trkpt lat="44.39791" lon="0.9957">
        <ele>155</ele>
        <time>2025-07-17T09:21:25.072Z</time>
      </trkpt>
      <trkpt lat="44.39792" lon="0.99569">
        <ele>155</ele>
        <time>2025-07-17T09:21:26.071Z</time>
      </trkpt>
      <trkpt lat="44.39793" lon="0.99568">
        <ele>155</ele>
        <time>2025-07-17T09:21:27.071Z</time>
      </trkpt>
      <trkpt lat="44.39793" lon="0.99567">
        <ele>155</ele>
        <time>2025-07-17T09:21:28.071Z</time>
      </trkpt>
      <trkpt lat="44.39795" lon="0.99566">
        <ele>156</ele>
        <time>2025-07-17T09:21:29.071Z</time>
      </trkpt>
      <trkpt lat="44.39795" lon="0.99565">
        <ele>156</ele>
        <time>2025-07-17T09:21:30.071Z</time>
      </trkpt>
      <trkpt lat="44.39796" lon="0.99564">
        <ele>156</ele>
        <time>2025-07-17T09:21:31.071Z</time>
      </trkpt>
      <trkpt lat="44.39797" lon="0.99563">
        <ele>157</ele>
        <time>2025-07-17T09:21:32.071Z</time>
      </trkpt>
      <trkpt lat="44.39798" lon="0.99562">
        <ele>157</ele>
        <time>2025-07-17T09:21:33.071Z</time>
      </trkpt>
      <trkpt lat="44.39798" lon="0.99561">
        <ele>158</ele>
        <time>2025-07-17T09:21:34.071Z</time>
      </trkpt>
      <trkpt lat="44.39799" lon="0.9956">
        <ele>158</ele>
        <time>2025-07-17T09:21:35.071Z</time>
      </trkpt>
      <trkpt lat="44.398" lon="0.99559">
        <ele>158</ele>
        <time>2025-07-17T09:21:36.071Z</time>
      </trkpt>
      <trkpt lat="44.39801" lon="0.99558">
        <ele>157</ele>
        <time>2025-07-17T09:21:37.071Z</time>
      </trkpt>
      <trkpt lat="44.39802" lon="0.99557">
        <ele>157</ele>
        <time>2025-07-17T09:21:38.071Z</time>
      </trkpt>
      <trkpt lat="44.39803" lon="0.99557">
        <ele>157</ele>
        <time>2025-07-17T09:21:39.071Z</time>
      </trkpt>
      <trkpt lat="44.39803" lon="0.99555">
        <ele>157</ele>
        <time>2025-07-17T09:21:40.071Z</time>
      </trkpt>
      <trkpt lat="44.39804" lon="0.99554">
        <ele>158</ele>
        <time>2025-07-17T09:21:41.071Z</time>
      </trkpt>
      <trkpt lat="44.39805" lon="0.99554">
        <ele>158</ele>
        <time>2025-07-17T09:21:42.071Z</time>
      </trkpt>
      <trkpt lat="44.39806" lon="0.99553">
        <ele>158</ele>
        <time>2025-07-17T09:21:43.071Z</time>
      </trkpt>
      <trkpt lat="44.39807" lon="0.99552">
        <ele>158</ele>
        <time>2025-07-17T09:21:44.071Z</time>
      </trkpt>
      <trkpt lat="44.39807" lon="0.99552">
        <ele>158</ele>
        <time>2025-07-17T09:21:45.071Z</time>
      </trkpt>
      <trkpt lat="44.39808" lon="0.99551">
        <ele>158</ele>
        <time>2025-07-17T09:21:46.071Z</time>
      </trkpt>
      <trkpt lat="44.39808" lon="0.9955">
        <ele>158</ele>
        <time>2025-07-17T09:21:47.071Z</time>
      </trkpt>
      <trkpt lat="44.39809" lon="0.9955">
        <ele>158</ele>
        <time>2025-07-17T09:21:48.071Z</time>
      </trkpt>
      <trkpt lat="44.39809" lon="0.99549">
        <ele>158</ele>
        <time>2025-07-17T09:21:49.071Z</time>
      </trkpt>
      <trkpt lat="44.3981" lon="0.99549">
        <ele>157</ele>
        <time>2025-07-17T09:21:50.071Z</time>
      </trkpt>
      <trkpt lat="44.39811" lon="0.99548">
        <ele>157</ele>
        <time>2025-07-17T09:21:51.071Z</time>
      </trkpt>
      <trkpt lat="44.39811" lon="0.99548">
        <ele>157</ele>
        <time>2025-07-17T09:21:52.071Z</time>
      </trkpt>
      <trkpt lat="44.39812" lon="0.99548">
        <ele>157</ele>
        <time>2025-07-17T09:21:53.071Z</time>
      </trkpt>
      <trkpt lat="44.39812" lon="0.99547">
        <ele>157</ele>
        <time>2025-07-17T09:21:54.071Z</time>
      </trkpt>
      <trkpt lat="44.39813" lon="0.99546">
        <ele>157</ele>
        <time>2025-07-17T09:21:55.071Z</time>
      </trkpt>
      <trkpt lat="44.39813" lon="0.99545">
        <ele>157</ele>
        <time>2025-07-17T09:21:56.071Z</time>
      </trkpt>
      <trkpt lat="44.39813" lon="0.99544">
        <ele>158</ele>
        <time>2025-07-17T09:21:57.071Z</time>
      </trkpt>
      <trkpt lat="44.39814" lon="0.99543">
        <ele>158</ele>
        <time>2025-07-17T09:21:58.071Z</time>
      </trkpt>
      <trkpt lat="44.39814" lon="0.99542">
        <ele>158</ele>
        <time>2025-07-17T09:21:59.071Z</time>
      </trkpt>
      <trkpt lat="44.39815" lon="0.99541">
        <ele>157</ele>
        <time>2025-07-17T09:22:00.071Z</time>
      </trkpt>
      <trkpt lat="44.39816" lon="0.9954">
        <ele>157</ele>
        <time>2025-07-17T09:22:01.071Z</time>
      </trkpt>
      <trkpt lat="44.39817" lon="0.99539">
        <ele>157</ele>
        <time>2025-07-17T09:22:02.071Z</time>
      </trkpt>
      <trkpt lat="44.39818" lon="0.99538">
        <ele>157</ele>
        <time>2025-07-17T09:22:03.071Z</time>
      </trkpt>
      <trkpt lat="44.39818" lon="0.99538">
        <ele>157</ele>
        <time>2025-07-17T09:22:04.072Z</time>
      </trkpt>
      <trkpt lat="44.39819" lon="0.99537">
        <ele>157</ele>
        <time>2025-07-17T09:22:05.071Z</time>
      </trkpt>
      <trkpt lat="44.39819" lon="0.99536">
        <ele>157</ele>
        <time>2025-07-17T09:22:06.071Z</time>
      </trkpt>
      <trkpt lat="44.39819" lon="0.99535">
        <ele>157</ele>
        <time>2025-07-17T09:22:07.071Z</time>
      </trkpt>
      <trkpt lat="44.3982" lon="0.99534">
        <ele>157</ele>
        <time>2025-07-17T09:22:08.071Z</time>
      </trkpt>
      <trkpt lat="44.3982" lon="0.99532">
        <ele>157</ele>
        <time>2025-07-17T09:22:09.071Z</time>
      </trkpt>
      <trkpt lat="44.39821" lon="0.99531">
        <ele>158</ele>
        <time>2025-07-17T09:22:10.071Z</time>
      </trkpt>
      <trkpt lat="44.39821" lon="0.9953">
        <ele>158</ele>
        <time>2025-07-17T09:22:11.071Z</time>
      </trkpt>
      <trkpt lat="44.39821" lon="0.9953">
        <ele>158</ele>
        <time>2025-07-17T09:22:12.071Z</time>
      </trkpt>
      <trkpt lat="44.39821" lon="0.9953">
        <ele>158</ele>
        <time>2025-07-17T09:22:13.071Z</time>
      </trkpt>
      <trkpt lat="44.39821" lon="0.99529">
        <ele>159</ele>
        <time>2025-07-17T09:22:14.072Z</time>
      </trkpt>
      <trkpt lat="44.39822" lon="0.99529">
        <ele>159</ele>
        <time>2025-07-17T09:22:15.071Z</time>
      </trkpt>
      <trkpt lat="44.39822" lon="0.99528">
        <ele>159</ele>
        <time>2025-07-17T09:22:16.072Z</time>
      </trkpt>
      <trkpt lat="44.39823" lon="0.99527">
        <ele>159</ele>
        <time>2025-07-17T09:22:17.071Z</time>
      </trkpt>
      <trkpt lat="44.39823" lon="0.99526">
        <ele>159</ele>
        <time>2025-07-17T09:22:18.071Z</time>
      </trkpt>
      <trkpt lat="44.39824" lon="0.99525">
        <ele>159</ele>
        <time>2025-07-17T09:22:19.071Z</time>
      </trkpt>
      <trkpt lat="44.39824" lon="0.99524">
        <ele>159</ele>
        <time>2025-07-17T09:22:20.071Z</time>
      </trkpt>
      <trkpt lat="44.39825" lon="0.99523">
        <ele>159</ele>
        <time>2025-07-17T09:22:21.071Z</time>
      </trkpt>
      <trkpt lat="44.39825" lon="0.99522">
        <ele>159</ele>
        <time>2025-07-17T09:22:22.071Z</time>
      </trkpt>
      <trkpt lat="44.39826" lon="0.99521">
        <ele>159</ele>
        <time>2025-07-17T09:22:23.071Z</time>
      </trkpt>
      <trkpt lat="44.39826" lon="0.9952">
        <ele>160</ele>
        <time>2025-07-17T09:22:24.071Z</time>
      </trkpt>
      <trkpt lat="44.39827" lon="0.99519">
        <ele>160</ele>
        <time>2025-07-17T09:22:25.071Z</time>
      </trkpt>
      <trkpt lat="44.39827" lon="0.99518">
        <ele>160</ele>
        <time>2025-07-17T09:22:26.071Z</time>
      </trkpt>
      <trkpt lat="44.39827" lon="0.99517">
        <ele>160</ele>
        <time>2025-07-17T09:22:27.071Z</time>
      </trkpt>
      <trkpt lat="44.39827" lon="0.99516">
        <ele>160</ele>
        <time>2025-07-17T09:22:28.071Z</time>
      </trkpt>
      <trkpt lat="44.39828" lon="0.99515">
        <ele>160</ele>
        <time>2025-07-17T09:22:29.071Z</time>
      </trkpt>
      <trkpt lat="44.39828" lon="0.99514">
        <ele>160</ele>
        <time>2025-07-17T09:22:30.071Z</time>
      </trkpt>
      <trkpt lat="44.39829" lon="0.99513">
        <ele>160</ele>
        <time>2025-07-17T09:22:31.071Z</time>
      </trkpt>
      <trkpt lat="44.39829" lon="0.99512">
        <ele>161</ele>
        <time>2025-07-17T09:22:32.071Z</time>
      </trkpt>
      <trkpt lat="44.39829" lon="0.99511">
        <ele>161</ele>
        <time>2025-07-17T09:22:33.071Z</time>
      </trkpt>
      <trkpt lat="44.39829" lon="0.9951">
        <ele>161</ele>
        <time>2025-07-17T09:22:34.071Z</time>
      </trkpt>
      <trkpt lat="44.3983" lon="0.99509">
        <ele>161</ele>
        <time>2025-07-17T09:22:35.072Z</time>
      </trkpt>
      <trkpt lat="44.3983" lon="0.99508">
        <ele>161</ele>
        <time>2025-07-17T09:22:36.072Z</time>
      </trkpt>
      <trkpt lat="44.39831" lon="0.99507">
        <ele>162</ele>
        <time>2025-07-17T09:22:37.071Z</time>
      </trkpt>
      <trkpt lat="44.39831" lon="0.99506">
        <ele>162</ele>
        <time>2025-07-17T09:22:38.071Z</time>
      </trkpt>
      <trkpt lat="44.39831" lon="0.99505">
        <ele>162</ele>
        <time>2025-07-17T09:22:39.071Z</time>
      </trkpt>
      <trkpt lat="44.39831" lon="0.99504">
        <ele>162</ele>
        <time>2025-07-17T09:22:40.071Z</time>
      </trkpt>
      <trkpt lat="44.39832" lon="0.99504">
        <ele>163</ele>
        <time>2025-07-17T09:22:41.071Z</time>
      </trkpt>
      <trkpt lat="44.39832" lon="0.99503">
        <ele>163</ele>
        <time>2025-07-17T09:22:42.071Z</time>
      </trkpt>
      <trkpt lat="44.39832" lon="0.99502">
        <ele>163</ele>
        <time>2025-07-17T09:22:43.071Z</time>
      </trkpt>
      <trkpt lat="44.39833" lon="0.99501">
        <ele>163</ele>
        <time>2025-07-17T09:22:44.071Z</time>
      </trkpt>
      <trkpt lat="44.39833" lon="0.995">
        <ele>163</ele>
        <time>2025-07-17T09:22:45.071Z</time>
      </trkpt>
      <trkpt lat="44.39834" lon="0.99499">
        <ele>164</ele>
        <time>2025-07-17T09:22:46.071Z</time>
      </trkpt>
      <trkpt lat="44.39834" lon="0.99498">
        <ele>164</ele>
        <time>2025-07-17T09:22:47.072Z</time>
      </trkpt>
      <trkpt lat="44.39835" lon="0.99497">
        <ele>164</ele>
        <time>2025-07-17T09:22:48.071Z</time>
      </trkpt>
      <trkpt lat="44.39835" lon="0.99496">
        <ele>165</ele>
        <time>2025-07-17T09:22:49.071Z</time>
      </trkpt>
      <trkpt lat="44.39835" lon="0.99495">
        <ele>165</ele>
        <time>2025-07-17T09:22:50.071Z</time>
      </trkpt>
      <trkpt lat="44.39836" lon="0.99493">
        <ele>165</ele>
        <time>2025-07-17T09:22:51.071Z</time>
      </trkpt>
      <trkpt lat="44.39836" lon="0.99493">
        <ele>165</ele>
        <time>2025-07-17T09:22:52.071Z</time>
      </trkpt>
      <trkpt lat="44.39837" lon="0.99492">
        <ele>166</ele>
        <time>2025-07-17T09:22:53.071Z</time>
      </trkpt>
      <trkpt lat="44.39837" lon="0.99491">
        <ele>166</ele>
        <time>2025-07-17T09:22:54.071Z</time>
      </trkpt>
      <trkpt lat="44.39838" lon="0.9949">
        <ele>166</ele>
        <time>2025-07-17T09:22:55.072Z</time>
      </trkpt>
      <trkpt lat="44.39838" lon="0.99488">
        <ele>167</ele>
        <time>2025-07-17T09:22:56.071Z</time>
      </trkpt>
      <trkpt lat="44.39839" lon="0.99487">
        <ele>167</ele>
        <time>2025-07-17T09:22:57.071Z</time>
      </trkpt>
      <trkpt lat="44.3984" lon="0.99486">
        <ele>167</ele>
        <time>2025-07-17T09:22:58.071Z</time>
      </trkpt>
      <trkpt lat="44.3984" lon="0.99485">
        <ele>167</ele>
        <time>2025-07-17T09:22:59.071Z</time>
      </trkpt>
      <trkpt lat="44.39841" lon="0.99484">
        <ele>168</ele>
        <time>2025-07-17T09:23:00.071Z</time>
      </trkpt>
      <trkpt lat="44.39843" lon="0.99483">
        <ele>168</ele>
        <time>2025-07-17T09:23:01.071Z</time>
      </trkpt>
      <trkpt lat="44.39843" lon="0.99482">
        <ele>168</ele>
        <time>2025-07-17T09:23:02.071Z</time>
      </trkpt>
      <trkpt lat="44.39844" lon="0.99481">
        <ele>168</ele>
        <time>2025-07-17T09:23:03.071Z</time>
      </trkpt>
      <trkpt lat="44.39845" lon="0.9948">
        <ele>168</ele>
        <time>2025-07-17T09:23:04.071Z</time>
      </trkpt>
      <trkpt lat="44.39845" lon="0.99479">
        <ele>168</ele>
        <time>2025-07-17T09:23:05.071Z</time>
      </trkpt>
      <trkpt lat="44.39846" lon="0.99478">
        <ele>168</ele>
        <time>2025-07-17T09:23:06.071Z</time>
      </trkpt>
      <trkpt lat="44.39846" lon="0.99477">
        <ele>168</ele>
        <time>2025-07-17T09:23:07.071Z</time>
      </trkpt>
      <trkpt lat="44.39847" lon="0.99476">
        <ele>168</ele>
        <time>2025-07-17T09:23:08.072Z</time>
      </trkpt>
      <trkpt lat="44.39848" lon="0.99475">
        <ele>169</ele>
        <time>2025-07-17T09:23:09.071Z</time>
      </trkpt>
      <trkpt lat="44.39848" lon="0.99474">
        <ele>169</ele>
        <time>2025-07-17T09:23:10.071Z</time>
      </trkpt>
      <trkpt lat="44.39849" lon="0.99474">
        <ele>169</ele>
        <time>2025-07-17T09:23:11.071Z</time>
      </trkpt>
      <trkpt lat="44.3985" lon="0.99473">
        <ele>169</ele>
        <time>2025-07-17T09:23:12.071Z</time>
      </trkpt>
      <trkpt lat="44.39851" lon="0.99472">
        <ele>169</ele>
        <time>2025-07-17T09:23:13.071Z</time>
      </trkpt>
      <trkpt lat="44.39852" lon="0.99472">
        <ele>169</ele>
        <time>2025-07-17T09:23:14.071Z</time>
      </trkpt>
      <trkpt lat="44.39852" lon="0.99471">
        <ele>169</ele>
        <time>2025-07-17T09:23:15.071Z</time>
      </trkpt>
      <trkpt lat="44.39853" lon="0.9947">
        <ele>168</ele>
        <time>2025-07-17T09:23:16.071Z</time>
      </trkpt>
      <trkpt lat="44.39853" lon="0.99469">
        <ele>169</ele>
        <time>2025-07-17T09:23:17.072Z</time>
      </trkpt>
      <trkpt lat="44.39853" lon="0.99468">
        <ele>169</ele>
        <time>2025-07-17T09:23:18.071Z</time>
      </trkpt>
      <trkpt lat="44.39853" lon="0.99467">
        <ele>169</ele>
        <time>2025-07-17T09:23:19.071Z</time>
      </trkpt>
      <trkpt lat="44.39853" lon="0.99466">
        <ele>170</ele>
        <time>2025-07-17T09:23:20.071Z</time>
      </trkpt>
      <trkpt lat="44.39854" lon="0.99465">
        <ele>170</ele>
        <time>2025-07-17T09:23:21.071Z</time>
      </trkpt>
      <trkpt lat="44.39856" lon="0.99465">
        <ele>170</ele>
        <time>2025-07-17T09:23:22.071Z</time>
      </trkpt>
      <trkpt lat="44.39857" lon="0.99464">
        <ele>170</ele>
        <time>2025-07-17T09:23:23.071Z</time>
      </trkpt>
      <trkpt lat="44.39857" lon="0.99461">
        <ele>170</ele>
        <time>2025-07-17T09:23:24.071Z</time>
      </trkpt>
      <trkpt lat="44.39858" lon="0.9946">
        <ele>170</ele>
        <time>2025-07-17T09:23:25.071Z</time>
      </trkpt>
      <trkpt lat="44.39859" lon="0.9946">
        <ele>170</ele>
        <time>2025-07-17T09:23:26.071Z</time>
      </trkpt>
      <trkpt lat="44.39859" lon="0.99459">
        <ele>170</ele>
        <time>2025-07-17T09:23:27.071Z</time>
      </trkpt>
      <trkpt lat="44.3986" lon="0.99458">
        <ele>170</ele>
        <time>2025-07-17T09:23:28.071Z</time>
      </trkpt>
      <trkpt lat="44.39861" lon="0.99457">
        <ele>171</ele>
        <time>2025-07-17T09:23:29.071Z</time>
      </trkpt>
      <trkpt lat="44.39862" lon="0.99456">
        <ele>171</ele>
        <time>2025-07-17T09:23:30.071Z</time>
      </trkpt>
      <trkpt lat="44.39863" lon="0.99455">
        <ele>170</ele>
        <time>2025-07-17T09:23:31.071Z</time>
      </trkpt>
      <trkpt lat="44.39863" lon="0.99455">
        <ele>170</ele>
        <time>2025-07-17T09:23:32.071Z</time>
      </trkpt>
      <trkpt lat="44.39863" lon="0.99454">
        <ele>170</ele>
        <time>2025-07-17T09:23:33.071Z</time>
      </trkpt>
      <trkpt lat="44.39864" lon="0.99454">
        <ele>170</ele>
        <time>2025-07-17T09:23:34.071Z</time>
      </trkpt>
      <trkpt lat="44.39864" lon="0.99453">
        <ele>170</ele>
        <time>2025-07-17T09:23:35.071Z</time>
      </trkpt>
      <trkpt lat="44.39865" lon="0.99452">
        <ele>170</ele>
        <time>2025-07-17T09:23:36.071Z</time>
      </trkpt>
      <trkpt lat="44.39866" lon="0.99451">
        <ele>171</ele>
        <time>2025-07-17T09:23:37.071Z</time>
      </trkpt>
      <trkpt lat="44.39866" lon="0.99451">
        <ele>171</ele>
        <time>2025-07-17T09:23:38.071Z</time>
      </trkpt>
      <trkpt lat="44.39867" lon="0.99449">
        <ele>171</ele>
        <time>2025-07-17T09:23:39.071Z</time>
      </trkpt>
      <trkpt lat="44.39868" lon="0.99448">
        <ele>171</ele>
        <time>2025-07-17T09:23:40.071Z</time>
      </trkpt>
      <trkpt lat="44.39869" lon="0.99448">
        <ele>172</ele>
        <time>2025-07-17T09:23:41.071Z</time>
      </trkpt>
      <trkpt lat="44.3987" lon="0.99447">
        <ele>172</ele>
        <time>2025-07-17T09:23:42.071Z</time>
      </trkpt>
      <trkpt lat="44.3987" lon="0.99446">
        <ele>172</ele>
        <time>2025-07-17T09:23:43.071Z</time>
      </trkpt>
      <trkpt lat="44.3987" lon="0.99445">
        <ele>172</ele>
        <time>2025-07-17T09:23:44.071Z</time>
      </trkpt>
      <trkpt lat="44.39871" lon="0.99444">
        <ele>173</ele>
        <time>2025-07-17T09:23:45.071Z</time>
      </trkpt>
      <trkpt lat="44.39872" lon="0.99442">
        <ele>173</ele>
        <time>2025-07-17T09:23:46.071Z</time>
      </trkpt>
      <trkpt lat="44.39873" lon="0.99441">
        <ele>173</ele>
        <time>2025-07-17T09:23:47.071Z</time>
      </trkpt>
      <trkpt lat="44.39874" lon="0.9944">
        <ele>174</ele>
        <time>2025-07-17T09:23:48.071Z</time>
      </trkpt>
      <trkpt lat="44.39875" lon="0.99439">
        <ele>174</ele>
        <time>2025-07-17T09:23:49.071Z</time>
      </trkpt>
      <trkpt lat="44.39875" lon="0.99438">
        <ele>174</ele>
        <time>2025-07-17T09:23:50.071Z</time>
      </trkpt>
      <trkpt lat="44.39876" lon="0.99437">
        <ele>174</ele>
        <time>2025-07-17T09:23:51.072Z</time>
      </trkpt>
      <trkpt lat="44.39877" lon="0.99436">
        <ele>175</ele>
        <time>2025-07-17T09:23:52.072Z</time>
      </trkpt>
      <trkpt lat="44.39877" lon="0.99435">
        <ele>175</ele>
        <time>2025-07-17T09:23:53.072Z</time>
      </trkpt>
      <trkpt lat="44.39878" lon="0.99435">
        <ele>175</ele>
        <time>2025-07-17T09:23:54.072Z</time>
      </trkpt>
      <trkpt lat="44.39879" lon="0.99434">
        <ele>175</ele>
        <time>2025-07-17T09:23:55.072Z</time>
      </trkpt>
      <trkpt lat="44.3988" lon="0.99433">
        <ele>175</ele>
        <time>2025-07-17T09:23:56.071Z</time>
      </trkpt>
      <trkpt lat="44.39881" lon="0.99432">
        <ele>175</ele>
        <time>2025-07-17T09:23:57.071Z</time>
      </trkpt>
      <trkpt lat="44.39882" lon="0.9943">
        <ele>175</ele>
        <time>2025-07-17T09:23:58.071Z</time>
      </trkpt>
      <trkpt lat="44.39883" lon="0.9943">
        <ele>174</ele>
        <time>2025-07-17T09:23:59.071Z</time>
      </trkpt>
      <trkpt lat="44.39884" lon="0.99429">
        <ele>174</ele>
        <time>2025-07-17T09:24:00.071Z</time>
      </trkpt>
      <trkpt lat="44.39884" lon="0.99428">
        <ele>174</ele>
        <time>2025-07-17T09:24:01.071Z</time>
      </trkpt>
      <trkpt lat="44.39885" lon="0.99427">
        <ele>175</ele>
        <time>2025-07-17T09:24:02.071Z</time>
      </trkpt>
      <trkpt lat="44.39886" lon="0.99425">
        <ele>175</ele>
        <time>2025-07-17T09:24:03.071Z</time>
      </trkpt>
      <trkpt lat="44.39887" lon="0.99424">
        <ele>175</ele>
        <time>2025-07-17T09:24:04.071Z</time>
      </trkpt>
      <trkpt lat="44.39887" lon="0.99423">
        <ele>175</ele>
        <time>2025-07-17T09:24:05.071Z</time>
      </trkpt>
      <trkpt lat="44.39887" lon="0.99422">
        <ele>175</ele>
        <time>2025-07-17T09:24:06.071Z</time>
      </trkpt>
      <trkpt lat="44.39888" lon="0.99421">
        <ele>175</ele>
        <time>2025-07-17T09:24:07.071Z</time>
      </trkpt>
      <trkpt lat="44.39889" lon="0.9942">
        <ele>175</ele>
        <time>2025-07-17T09:24:08.071Z</time>
      </trkpt>
      <trkpt lat="44.3989" lon="0.99419">
        <ele>175</ele>
        <time>2025-07-17T09:24:09.071Z</time>
      </trkpt>
      <trkpt lat="44.39891" lon="0.99419">
        <ele>175</ele>
        <time>2025-07-17T09:24:10.071Z</time>
      </trkpt>
      <trkpt lat="44.39892" lon="0.99419">
        <ele>175</ele>
        <time>2025-07-17T09:24:11.071Z</time>
      </trkpt>
      <trkpt lat="44.39894" lon="0.99419">
        <ele>175</ele>
        <time>2025-07-17T09:24:12.071Z</time>
      </trkpt>
      <trkpt lat="44.39895" lon="0.99418">
        <ele>175</ele>
        <time>2025-07-17T09:24:13.071Z</time>
      </trkpt>
      <trkpt lat="44.39896" lon="0.99418">
        <ele>175</ele>
        <time>2025-07-17T09:24:14.071Z</time>
      </trkpt>
      <trkpt lat="44.39897" lon="0.99418">
        <ele>175</ele>
        <time>2025-07-17T09:24:15.071Z</time>
      </trkpt>
      <trkpt lat="44.39898" lon="0.99417">
        <ele>175</ele>
        <time>2025-07-17T09:24:16.071Z</time>
      </trkpt>
      <trkpt lat="44.39899" lon="0.99416">
        <ele>175</ele>
        <time>2025-07-17T09:24:17.071Z</time>
      </trkpt>
      <trkpt lat="44.399" lon="0.99415">
        <ele>175</ele>
        <time>2025-07-17T09:24:18.071Z</time>
      </trkpt>
      <trkpt lat="44.39901" lon="0.99414">
        <ele>175</ele>
        <time>2025-07-17T09:24:19.071Z</time>
      </trkpt>
      <trkpt lat="44.39901" lon="0.99414">
        <ele>175</ele>
        <time>2025-07-17T09:24:20.071Z</time>
      </trkpt>
      <trkpt lat="44.39902" lon="0.99413">
        <ele>174</ele>
        <time>2025-07-17T09:24:21.071Z</time>
      </trkpt>
      <trkpt lat="44.39903" lon="0.99412">
        <ele>174</ele>
        <time>2025-07-17T09:24:22.071Z</time>
      </trkpt>
      <trkpt lat="44.39904" lon="0.99411">
        <ele>174</ele>
        <time>2025-07-17T09:24:23.071Z</time>
      </trkpt>
      <trkpt lat="44.39905" lon="0.9941">
        <ele>174</ele>
        <time>2025-07-17T09:24:24.071Z</time>
      </trkpt>
      <trkpt lat="44.39906" lon="0.99408">
        <ele>174</ele>
        <time>2025-07-17T09:24:25.071Z</time>
      </trkpt>
      <trkpt lat="44.39907" lon="0.99407">
        <ele>175</ele>
        <time>2025-07-17T09:24:26.071Z</time>
      </trkpt>
      <trkpt lat="44.39908" lon="0.99405">
        <ele>175</ele>
        <time>2025-07-17T09:24:27.071Z</time>
      </trkpt>
      <trkpt lat="44.39909" lon="0.99404">
        <ele>175</ele>
        <time>2025-07-17T09:24:28.071Z</time>
      </trkpt>
      <trkpt lat="44.3991" lon="0.99403">
        <ele>176</ele>
        <time>2025-07-17T09:24:29.072Z</time>
      </trkpt>
      <trkpt lat="44.39911" lon="0.99402">
        <ele>176</ele>
        <time>2025-07-17T09:24:30.071Z</time>
      </trkpt>
      <trkpt lat="44.39911" lon="0.99401">
        <ele>176</ele>
        <time>2025-07-17T09:24:31.071Z</time>
      </trkpt>
      <trkpt lat="44.39912" lon="0.99399">
        <ele>176</ele>
        <time>2025-07-17T09:24:32.071Z</time>
      </trkpt>
      <trkpt lat="44.39913" lon="0.99399">
        <ele>176</ele>
        <time>2025-07-17T09:24:33.071Z</time>
      </trkpt>
      <trkpt lat="44.39913" lon="0.99397">
        <ele>177</ele>
        <time>2025-07-17T09:24:34.071Z</time>
      </trkpt>
      <trkpt lat="44.39914" lon="0.99396">
        <ele>177</ele>
        <time>2025-07-17T09:24:35.071Z</time>
      </trkpt>
      <trkpt lat="44.39915" lon="0.99395">
        <ele>177</ele>
        <time>2025-07-17T09:24:36.071Z</time>
      </trkpt>
      <trkpt lat="44.39916" lon="0.99395">
        <ele>177</ele>
        <time>2025-07-17T09:24:37.071Z</time>
      </trkpt>
      <trkpt lat="44.39916" lon="0.99394">
        <ele>177</ele>
        <time>2025-07-17T09:24:38.071Z</time>
      </trkpt>
      <trkpt lat="44.39917" lon="0.99393">
        <ele>177</ele>
        <time>2025-07-17T09:24:39.071Z</time>
      </trkpt>
      <trkpt lat="44.39918" lon="0.99392">
        <ele>177</ele>
        <time>2025-07-17T09:24:40.071Z</time>
      </trkpt>
      <trkpt lat="44.39918" lon="0.99391">
        <ele>177</ele>
        <time>2025-07-17T09:24:41.071Z</time>
      </trkpt>
      <trkpt lat="44.39918" lon="0.9939">
        <ele>177</ele>
        <time>2025-07-17T09:24:42.071Z</time>
      </trkpt>
      <trkpt lat="44.39918" lon="0.9939">
        <ele>178</ele>
        <time>2025-07-17T09:24:43.071Z</time>
      </trkpt>
      <trkpt lat="44.39918" lon="0.9939">
        <ele>178</ele>
        <time>2025-07-17T09:24:44.071Z</time>
      </trkpt>
      <trkpt lat="44.39919" lon="0.9939">
        <ele>178</ele>
        <time>2025-07-17T09:24:45.071Z</time>
      </trkpt>
      <trkpt lat="44.39919" lon="0.9939">
        <ele>178</ele>
        <time>2025-07-17T09:24:46.071Z</time>
      </trkpt>
      <trkpt lat="44.39919" lon="0.9939">
        <ele>178</ele>
        <time>2025-07-17T09:24:47.071Z</time>
      </trkpt>
      <trkpt lat="44.39919" lon="0.9939">
        <ele>178</ele>
        <time>2025-07-17T09:24:48.071Z</time>
      </trkpt>
      <trkpt lat="44.39919" lon="0.9939">
        <ele>178</ele>
        <time>2025-07-17T09:24:49.071Z</time>
      </trkpt>
      <trkpt lat="44.3992" lon="0.99391">
        <ele>178</ele>
        <time>2025-07-17T09:24:50.071Z</time>
      </trkpt>
      <trkpt lat="44.39921" lon="0.99391">
        <ele>178</ele>
        <time>2025-07-17T09:24:51.071Z</time>
      </trkpt>
      <trkpt lat="44.39921" lon="0.99391">
        <ele>178</ele>
        <time>2025-07-17T09:24:52.071Z</time>
      </trkpt>
      <trkpt lat="44.39921" lon="0.99391">
        <ele>178</ele>
        <time>2025-07-17T09:24:53.071Z</time>
      </trkpt>
      <trkpt lat="44.39921" lon="0.99391">
        <ele>178</ele>
        <time>2025-07-17T09:24:54.071Z</time>
      </trkpt>
      <trkpt lat="44.39921" lon="0.99391">
        <ele>178</ele>
        <time>2025-07-17T09:24:55.071Z</time>
      </trkpt>
      <trkpt lat="44.39921" lon="0.99391">
        <ele>178</ele>
        <time>2025-07-17T09:24:56.071Z</time>
      </trkpt>
      <trkpt lat="44.39921" lon="0.99391">
        <ele>178</ele>
        <time>2025-07-17T09:24:57.071Z</time>
      </trkpt>
      <trkpt lat="44.39922" lon="0.99391">
        <ele>179</ele>
        <time>2025-07-17T09:24:58.071Z</time>
      </trkpt>
      <trkpt lat="44.39923" lon="0.9939">
        <ele>179</ele>
        <time>2025-07-17T09:24:59.071Z</time>
      </trkpt>
      <trkpt lat="44.39923" lon="0.9939">
        <ele>179</ele>
        <time>2025-07-17T09:25:00.071Z</time>
      </trkpt>
      <trkpt lat="44.39923" lon="0.9939">
        <ele>179</ele>
        <time>2025-07-17T09:25:01.071Z</time>
      </trkpt>
      <trkpt lat="44.39923" lon="0.9939">
        <ele>179</ele>
        <time>2025-07-17T09:25:02.071Z</time>
      </trkpt>
      <trkpt lat="44.39923" lon="0.9939">
        <ele>179</ele>
        <time>2025-07-17T09:25:03.071Z</time>
      </trkpt>
      <trkpt lat="44.39923" lon="0.9939">
        <ele>179</ele>
        <time>2025-07-17T09:25:04.071Z</time>
      </trkpt>
      <trkpt lat="44.39923" lon="0.9939">
        <ele>179</ele>
        <time>2025-07-17T09:25:05.071Z</time>
      </trkpt>
      <trkpt lat="44.39923" lon="0.9939">
        <ele>179</ele>
        <time>2025-07-17T09:25:06.071Z</time>
      </trkpt>
      <trkpt lat="44.39923" lon="0.9939">
        <ele>179</ele>
        <time>2025-07-17T09:25:07.071Z</time>
      </trkpt>
      <trkpt lat="44.39923" lon="0.99389">
        <ele>179</ele>
        <time>2025-07-17T09:25:08.071Z</time>
      </trkpt>
      <trkpt lat="44.39922" lon="0.99389">
        <ele>179</ele>
        <time>2025-07-17T09:25:09.071Z</time>
      </trkpt>
      <trkpt lat="44.39922" lon="0.99389">
        <ele>179</ele>
        <time>2025-07-17T09:25:10.071Z</time>
      </trkpt>
      <trkpt lat="44.39922" lon="0.99389">
        <ele>179</ele>
        <time>2025-07-17T09:25:11.071Z</time>
      </trkpt>
      <trkpt lat="44.39922" lon="0.99389">
        <ele>179</ele>
        <time>2025-07-17T09:25:12.071Z</time>
      </trkpt>
      <trkpt lat="44.39922" lon="0.99389">
        <ele>180</ele>
        <time>2025-07-17T09:25:13.071Z</time>
      </trkpt>
      <trkpt lat="44.39922" lon="0.99389">
        <ele>180</ele>
        <time>2025-07-17T09:25:14.071Z</time>
      </trkpt>
      <trkpt lat="44.39922" lon="0.99389">
        <ele>180</ele>
        <time>2025-07-17T09:25:15.071Z</time>
      </trkpt>
      <trkpt lat="44.39922" lon="0.99388">
        <ele>180</ele>
        <time>2025-07-17T09:25:16.071Z</time>
      </trkpt>
      <trkpt lat="44.39922" lon="0.99388">
        <ele>180</ele>
        <time>2025-07-17T09:25:17.071Z</time>
      </trkpt>
      <trkpt lat="44.39922" lon="0.99388">
        <ele>180</ele>
        <time>2025-07-17T09:25:18.071Z</time>
      </trkpt>
      <trkpt lat="44.39922" lon="0.99388">
        <ele>180</ele>
        <time>2025-07-17T09:25:19.071Z</time>
      </trkpt>
      <trkpt lat="44.39922" lon="0.99388">
        <ele>180</ele>
        <time>2025-07-17T09:25:20.071Z</time>
      </trkpt>
      <trkpt lat="44.39922" lon="0.99388">
        <ele>181</ele>
        <time>2025-07-17T09:25:21.071Z</time>
      </trkpt>
      <trkpt lat="44.39922" lon="0.99388">
        <ele>181</ele>
        <time>2025-07-17T09:25:22.071Z</time>
      </trkpt>
      <trkpt lat="44.39922" lon="0.99388">
        <ele>182</ele>
        <time>2025-07-17T09:25:23.071Z</time>
      </trkpt>
      <trkpt lat="44.39922" lon="0.99388">
        <ele>182</ele>
        <time>2025-07-17T09:25:24.071Z</time>
      </trkpt>
      <trkpt lat="44.39923" lon="0.99387">
        <ele>182</ele>
        <time>2025-07-17T09:25:25.071Z</time>
      </trkpt>
      <trkpt lat="44.39923" lon="0.99387">
        <ele>182</ele>
        <time>2025-07-17T09:25:26.071Z</time>
      </trkpt>
      <trkpt lat="44.39923" lon="0.99386">
        <ele>182</ele>
        <time>2025-07-17T09:25:27.071Z</time>
      </trkpt>
      <trkpt lat="44.39924" lon="0.99385">
        <ele>182</ele>
        <time>2025-07-17T09:25:28.071Z</time>
      </trkpt>
      <trkpt lat="44.39925" lon="0.99384">
        <ele>182</ele>
        <time>2025-07-17T09:25:29.071Z</time>
      </trkpt>
      <trkpt lat="44.39926" lon="0.99383">
        <ele>182</ele>
        <time>2025-07-17T09:25:30.071Z</time>
      </trkpt>
      <trkpt lat="44.39926" lon="0.99382">
        <ele>181</ele>
        <time>2025-07-17T09:25:31.071Z</time>
      </trkpt>
      <trkpt lat="44.39927" lon="0.99381">
        <ele>181</ele>
        <time>2025-07-17T09:25:32.071Z</time>
      </trkpt>
      <trkpt lat="44.39927" lon="0.9938">
        <ele>181</ele>
        <time>2025-07-17T09:25:33.073Z</time>
      </trkpt>
      <trkpt lat="44.39928" lon="0.99379">
        <ele>181</ele>
        <time>2025-07-17T09:25:34.071Z</time>
      </trkpt>
      <trkpt lat="44.39928" lon="0.99378">
        <ele>180</ele>
        <time>2025-07-17T09:25:35.071Z</time>
      </trkpt>
      <trkpt lat="44.39929" lon="0.99377">
        <ele>180</ele>
        <time>2025-07-17T09:25:36.071Z</time>
      </trkpt>
      <trkpt lat="44.3993" lon="0.99376">
        <ele>179</ele>
        <time>2025-07-17T09:25:37.071Z</time>
      </trkpt>
      <trkpt lat="44.39931" lon="0.99375">
        <ele>179</ele>
        <time>2025-07-17T09:25:38.071Z</time>
      </trkpt>
      <trkpt lat="44.39931" lon="0.99374">
        <ele>178</ele>
        <time>2025-07-17T09:25:39.071Z</time>
      </trkpt>
      <trkpt lat="44.39932" lon="0.99372">
        <ele>178</ele>
        <time>2025-07-17T09:25:40.071Z</time>
      </trkpt>
      <trkpt lat="44.39933" lon="0.99371">
        <ele>178</ele>
        <time>2025-07-17T09:25:41.071Z</time>
      </trkpt>
      <trkpt lat="44.39934" lon="0.9937">
        <ele>177</ele>
        <time>2025-07-17T09:25:42.071Z</time>
      </trkpt>
      <trkpt lat="44.39934" lon="0.99369">
        <ele>177</ele>
        <time>2025-07-17T09:25:43.071Z</time>
      </trkpt>
      <trkpt lat="44.39935" lon="0.99368">
        <ele>177</ele>
        <time>2025-07-17T09:25:44.071Z</time>
      </trkpt>
      <trkpt lat="44.39936" lon="0.99367">
        <ele>176</ele>
        <time>2025-07-17T09:25:45.071Z</time>
      </trkpt>
      <trkpt lat="44.39937" lon="0.99367">
        <ele>176</ele>
        <time>2025-07-17T09:25:46.071Z</time>
      </trkpt>
      <trkpt lat="44.39937" lon="0.99366">
        <ele>176</ele>
        <time>2025-07-17T09:25:47.071Z</time>
      </trkpt>
      <trkpt lat="44.39938" lon="0.99366">
        <ele>175</ele>
        <time>2025-07-17T09:25:48.071Z</time>
      </trkpt>
      <trkpt lat="44.39938" lon="0.99365">
        <ele>175</ele>
        <time>2025-07-17T09:25:49.071Z</time>
      </trkpt>
      <trkpt lat="44.39939" lon="0.99364">
        <ele>175</ele>
        <time>2025-07-17T09:25:50.071Z</time>
      </trkpt>
      <trkpt lat="44.39939" lon="0.99363">
        <ele>175</ele>
        <time>2025-07-17T09:25:51.071Z</time>
      </trkpt>
      <trkpt lat="44.39939" lon="0.99362">
        <ele>175</ele>
        <time>2025-07-17T09:25:52.071Z</time>
      </trkpt>
      <trkpt lat="44.3994" lon="0.99361">
        <ele>174</ele>
        <time>2025-07-17T09:25:53.071Z</time>
      </trkpt>
      <trkpt lat="44.3994" lon="0.9936">
        <ele>174</ele>
        <time>2025-07-17T09:25:54.071Z</time>
      </trkpt>
      <trkpt lat="44.39941" lon="0.99359">
        <ele>174</ele>
        <time>2025-07-17T09:25:55.071Z</time>
      </trkpt>
      <trkpt lat="44.39942" lon="0.99358">
        <ele>174</ele>
        <time>2025-07-17T09:25:56.072Z</time>
      </trkpt>
      <trkpt lat="44.39942" lon="0.99357">
        <ele>174</ele>
        <time>2025-07-17T09:25:57.071Z</time>
      </trkpt>
      <trkpt lat="44.39942" lon="0.99356">
        <ele>174</ele>
        <time>2025-07-17T09:25:58.071Z</time>
      </trkpt>
      <trkpt lat="44.39943" lon="0.99354">
        <ele>174</ele>
        <time>2025-07-17T09:25:59.071Z</time>
      </trkpt>
      <trkpt lat="44.39943" lon="0.99353">
        <ele>174</ele>
        <time>2025-07-17T09:26:00.071Z</time>
      </trkpt>
      <trkpt lat="44.39943" lon="0.99352">
        <ele>174</ele>
        <time>2025-07-17T09:26:01.071Z</time>
      </trkpt>
      <trkpt lat="44.39944" lon="0.99351">
        <ele>174</ele>
        <time>2025-07-17T09:26:02.071Z</time>
      </trkpt>
      <trkpt lat="44.39945" lon="0.99349">
        <ele>174</ele>
        <time>2025-07-17T09:26:03.071Z</time>
      </trkpt>
      <trkpt lat="44.39946" lon="0.99348">
        <ele>174</ele>
        <time>2025-07-17T09:26:04.071Z</time>
      </trkpt>
      <trkpt lat="44.39947" lon="0.99346">
        <ele>175</ele>
        <time>2025-07-17T09:26:05.071Z</time>
      </trkpt>
      <trkpt lat="44.39947" lon="0.99346">
        <ele>175</ele>
        <time>2025-07-17T09:26:06.071Z</time>
      </trkpt>
      <trkpt lat="44.39948" lon="0.99344">
        <ele>175</ele>
        <time>2025-07-17T09:26:07.071Z</time>
      </trkpt>
      <trkpt lat="44.39949" lon="0.99343">
        <ele>176</ele>
        <time>2025-07-17T09:26:08.071Z</time>
      </trkpt>
      <trkpt lat="44.3995" lon="0.99342">
        <ele>176</ele>
        <time>2025-07-17T09:26:09.071Z</time>
      </trkpt>
      <trkpt lat="44.3995" lon="0.99341">
        <ele>177</ele>
        <time>2025-07-17T09:26:10.071Z</time>
      </trkpt>
      <trkpt lat="44.39951" lon="0.99339">
        <ele>177</ele>
        <time>2025-07-17T09:26:11.071Z</time>
      </trkpt>
      <trkpt lat="44.39951" lon="0.99338">
        <ele>177</ele>
        <time>2025-07-17T09:26:12.071Z</time>
      </trkpt>
      <trkpt lat="44.39952" lon="0.99337">
        <ele>177</ele>
        <time>2025-07-17T09:26:13.071Z</time>
      </trkpt>
      <trkpt lat="44.39952" lon="0.99336">
        <ele>177</ele>
        <time>2025-07-17T09:26:14.071Z</time>
      </trkpt>
      <trkpt lat="44.39952" lon="0.99334">
        <ele>177</ele>
        <time>2025-07-17T09:26:15.071Z</time>
      </trkpt>
      <trkpt lat="44.39953" lon="0.99333">
        <ele>177</ele>
        <time>2025-07-17T09:26:16.071Z</time>
      </trkpt>
      <trkpt lat="44.39953" lon="0.99331">
        <ele>176</ele>
        <time>2025-07-17T09:26:17.072Z</time>
      </trkpt>
      <trkpt lat="44.39954" lon="0.9933">
        <ele>176</ele>
        <time>2025-07-17T09:26:18.071Z</time>
      </trkpt>
      <trkpt lat="44.39954" lon="0.99329">
        <ele>176</ele>
        <time>2025-07-17T09:26:19.071Z</time>
      </trkpt>
      <trkpt lat="44.39955" lon="0.99328">
        <ele>176</ele>
        <time>2025-07-17T09:26:20.072Z</time>
      </trkpt>
      <trkpt lat="44.39956" lon="0.99328">
        <ele>175</ele>
        <time>2025-07-17T09:26:21.071Z</time>
      </trkpt>
      <trkpt lat="44.39957" lon="0.99328">
        <ele>175</ele>
        <time>2025-07-17T09:26:22.071Z</time>
      </trkpt>
      <trkpt lat="44.39958" lon="0.99327">
        <ele>175</ele>
        <time>2025-07-17T09:26:23.071Z</time>
      </trkpt>
      <trkpt lat="44.39959" lon="0.99326">
        <ele>175</ele>
        <time>2025-07-17T09:26:24.071Z</time>
      </trkpt>
      <trkpt lat="44.3996" lon="0.99326">
        <ele>175</ele>
        <time>2025-07-17T09:26:25.071Z</time>
      </trkpt>
      <trkpt lat="44.3996" lon="0.99324">
        <ele>175</ele>
        <time>2025-07-17T09:26:26.071Z</time>
      </trkpt>
      <trkpt lat="44.39961" lon="0.99323">
        <ele>175</ele>
        <time>2025-07-17T09:26:27.071Z</time>
      </trkpt>
      <trkpt lat="44.39962" lon="0.99322">
        <ele>175</ele>
        <time>2025-07-17T09:26:28.072Z</time>
      </trkpt>
      <trkpt lat="44.39963" lon="0.99321">
        <ele>174</ele>
        <time>2025-07-17T09:26:29.071Z</time>
      </trkpt>
      <trkpt lat="44.39963" lon="0.9932">
        <ele>174</ele>
        <time>2025-07-17T09:26:30.071Z</time>
      </trkpt>
      <trkpt lat="44.39964" lon="0.99318">
        <ele>174</ele>
        <time>2025-07-17T09:26:31.071Z</time>
      </trkpt>
      <trkpt lat="44.39965" lon="0.99317">
        <ele>173</ele>
        <time>2025-07-17T09:26:32.071Z</time>
      </trkpt>
      <trkpt lat="44.39965" lon="0.99316">
        <ele>173</ele>
        <time>2025-07-17T09:26:33.071Z</time>
      </trkpt>
      <trkpt lat="44.39966" lon="0.99315">
        <ele>173</ele>
        <time>2025-07-17T09:26:34.071Z</time>
      </trkpt>
      <trkpt lat="44.39967" lon="0.99314">
        <ele>173</ele>
        <time>2025-07-17T09:26:35.071Z</time>
      </trkpt>
      <trkpt lat="44.39968" lon="0.99313">
        <ele>172</ele>
        <time>2025-07-17T09:26:36.071Z</time>
      </trkpt>
      <trkpt lat="44.39969" lon="0.99312">
        <ele>172</ele>
        <time>2025-07-17T09:26:37.071Z</time>
      </trkpt>
      <trkpt lat="44.3997" lon="0.9931">
        <ele>172</ele>
        <time>2025-07-17T09:26:38.071Z</time>
      </trkpt>
      <trkpt lat="44.39971" lon="0.99309">
        <ele>171</ele>
        <time>2025-07-17T09:26:39.071Z</time>
      </trkpt>
      <trkpt lat="44.39972" lon="0.99308">
        <ele>171</ele>
        <time>2025-07-17T09:26:40.071Z</time>
      </trkpt>
      <trkpt lat="44.39974" lon="0.99307">
        <ele>171</ele>
        <time>2025-07-17T09:26:41.071Z</time>
      </trkpt>
      <trkpt lat="44.39976" lon="0.99306">
        <ele>171</ele>
        <time>2025-07-17T09:26:42.071Z</time>
      </trkpt>
      <trkpt lat="44.39977" lon="0.99305">
        <ele>170</ele>
        <time>2025-07-17T09:26:43.071Z</time>
      </trkpt>
      <trkpt lat="44.39979" lon="0.99305">
        <ele>170</ele>
        <time>2025-07-17T09:26:44.071Z</time>
      </trkpt>
      <trkpt lat="44.3998" lon="0.99304">
        <ele>170</ele>
        <time>2025-07-17T09:26:45.071Z</time>
      </trkpt>
      <trkpt lat="44.39982" lon="0.99302">
        <ele>170</ele>
        <time>2025-07-17T09:26:46.071Z</time>
      </trkpt>
      <trkpt lat="44.39983" lon="0.99302">
        <ele>170</ele>
        <time>2025-07-17T09:26:47.071Z</time>
      </trkpt>
      <trkpt lat="44.39984" lon="0.99301">
        <ele>170</ele>
        <time>2025-07-17T09:26:48.071Z</time>
      </trkpt>
      <trkpt lat="44.39985" lon="0.993">
        <ele>170</ele>
        <time>2025-07-17T09:26:49.071Z</time>
      </trkpt>
      <trkpt lat="44.39986" lon="0.99299">
        <ele>170</ele>
        <time>2025-07-17T09:26:50.071Z</time>
      </trkpt>
      <trkpt lat="44.39987" lon="0.99297">
        <ele>169</ele>
        <time>2025-07-17T09:26:51.072Z</time>
      </trkpt>
      <trkpt lat="44.39988" lon="0.99296">
        <ele>169</ele>
        <time>2025-07-17T09:26:52.071Z</time>
      </trkpt>
      <trkpt lat="44.39988" lon="0.99294">
        <ele>169</ele>
        <time>2025-07-17T09:26:53.072Z</time>
      </trkpt>
      <trkpt lat="44.39989" lon="0.99294">
        <ele>169</ele>
        <time>2025-07-17T09:26:54.071Z</time>
      </trkpt>
      <trkpt lat="44.3999" lon="0.99293">
        <ele>169</ele>
        <time>2025-07-17T09:26:55.071Z</time>
      </trkpt>
      <trkpt lat="44.39991" lon="0.99293">
        <ele>169</ele>
        <time>2025-07-17T09:26:56.071Z</time>
      </trkpt>
      <trkpt lat="44.39992" lon="0.99292">
        <ele>169</ele>
        <time>2025-07-17T09:26:57.071Z</time>
      </trkpt>
      <trkpt lat="44.39993" lon="0.99292">
        <ele>169</ele>
        <time>2025-07-17T09:26:58.071Z</time>
      </trkpt>
      <trkpt lat="44.39994" lon="0.99291">
        <ele>168</ele>
        <time>2025-07-17T09:26:59.071Z</time>
      </trkpt>
      <trkpt lat="44.39994" lon="0.99289">
        <ele>168</ele>
        <time>2025-07-17T09:27:00.071Z</time>
      </trkpt>
      <trkpt lat="44.39995" lon="0.99288">
        <ele>168</ele>
        <time>2025-07-17T09:27:01.071Z</time>
      </trkpt>
      <trkpt lat="44.39996" lon="0.99287">
        <ele>168</ele>
        <time>2025-07-17T09:27:02.071Z</time>
      </trkpt>
      <trkpt lat="44.39997" lon="0.99286">
        <ele>168</ele>
        <time>2025-07-17T09:27:03.071Z</time>
      </trkpt>
      <trkpt lat="44.39998" lon="0.99285">
        <ele>167</ele>
        <time>2025-07-17T09:27:04.071Z</time>
      </trkpt>
      <trkpt lat="44.39999" lon="0.99285">
        <ele>167</ele>
        <time>2025-07-17T09:27:05.071Z</time>
      </trkpt>
      <trkpt lat="44.39999" lon="0.99284">
        <ele>166</ele>
        <time>2025-07-17T09:27:06.071Z</time>
      </trkpt>
      <trkpt lat="44.4" lon="0.99283">
        <ele>166</ele>
        <time>2025-07-17T09:27:07.071Z</time>
      </trkpt>
      <trkpt lat="44.40001" lon="0.99282">
        <ele>166</ele>
        <time>2025-07-17T09:27:08.071Z</time>
      </trkpt>
      <trkpt lat="44.40001" lon="0.9928">
        <ele>165</ele>
        <time>2025-07-17T09:27:09.071Z</time>
      </trkpt>
      <trkpt lat="44.40002" lon="0.99279">
        <ele>165</ele>
        <time>2025-07-17T09:27:10.071Z</time>
      </trkpt>
      <trkpt lat="44.40003" lon="0.99278">
        <ele>166</ele>
        <time>2025-07-17T09:27:11.071Z</time>
      </trkpt>
      <trkpt lat="44.40004" lon="0.99277">
        <ele>166</ele>
        <time>2025-07-17T09:27:12.071Z</time>
      </trkpt>
      <trkpt lat="44.40005" lon="0.99276">
        <ele>167</ele>
        <time>2025-07-17T09:27:13.071Z</time>
      </trkpt>
      <trkpt lat="44.40005" lon="0.99276">
        <ele>167</ele>
        <time>2025-07-17T09:27:14.071Z</time>
      </trkpt>
      <trkpt lat="44.40006" lon="0.99275">
        <ele>167</ele>
        <time>2025-07-17T09:27:15.071Z</time>
      </trkpt>
      <trkpt lat="44.40007" lon="0.99274">
        <ele>168</ele>
        <time>2025-07-17T09:27:16.071Z</time>
      </trkpt>
      <trkpt lat="44.40007" lon="0.99273">
        <ele>168</ele>
        <time>2025-07-17T09:27:17.071Z</time>
      </trkpt>
      <trkpt lat="44.40008" lon="0.99272">
        <ele>168</ele>
        <time>2025-07-17T09:27:18.071Z</time>
      </trkpt>
      <trkpt lat="44.40009" lon="0.99272">
        <ele>169</ele>
        <time>2025-07-17T09:27:19.071Z</time>
      </trkpt>
      <trkpt lat="44.40009" lon="0.99272">
        <ele>169</ele>
        <time>2025-07-17T09:27:20.071Z</time>
      </trkpt>
      <trkpt lat="44.4001" lon="0.99272">
        <ele>169</ele>
        <time>2025-07-17T09:27:21.071Z</time>
      </trkpt>
      <trkpt lat="44.4001" lon="0.99272">
        <ele>169</ele>
        <time>2025-07-17T09:27:22.071Z</time>
      </trkpt>
      <trkpt lat="44.4001" lon="0.99272">
        <ele>169</ele>
        <time>2025-07-17T09:27:23.071Z</time>
      </trkpt>
      <trkpt lat="44.4001" lon="0.99272">
        <ele>169</ele>
        <time>2025-07-17T09:27:24.071Z</time>
      </trkpt>
      <trkpt lat="44.40009" lon="0.99272">
        <ele>170</ele>
        <time>2025-07-17T09:27:25.072Z</time>
      </trkpt>
      <trkpt lat="44.40009" lon="0.99272">
        <ele>170</ele>
        <time>2025-07-17T09:27:26.071Z</time>
      </trkpt>
      <trkpt lat="44.40009" lon="0.99272">
        <ele>170</ele>
        <time>2025-07-17T09:27:27.071Z</time>
      </trkpt>
      <trkpt lat="44.40009" lon="0.99272">
        <ele>171</ele>
        <time>2025-07-17T09:27:28.071Z</time>
      </trkpt>
      <trkpt lat="44.40009" lon="0.99272">
        <ele>171</ele>
        <time>2025-07-17T09:27:29.071Z</time>
      </trkpt>
      <trkpt lat="44.40009" lon="0.99272">
        <ele>171</ele>
        <time>2025-07-17T09:27:30.071Z</time>
      </trkpt>
      <trkpt lat="44.4001" lon="0.99272">
        <ele>171</ele>
        <time>2025-07-17T09:27:31.071Z</time>
      </trkpt>
      <trkpt lat="44.4001" lon="0.99272">
        <ele>171</ele>
        <time>2025-07-17T09:27:32.071Z</time>
      </trkpt>
      <trkpt lat="44.4001" lon="0.99272">
        <ele>171</ele>
        <time>2025-07-17T09:27:33.072Z</time>
      </trkpt>
      <trkpt lat="44.4001" lon="0.99272">
        <ele>170</ele>
        <time>2025-07-17T09:27:34.071Z</time>
      </trkpt>
      <trkpt lat="44.4001" lon="0.99272">
        <ele>171</ele>
        <time>2025-07-17T09:27:35.072Z</time>
      </trkpt>
      <trkpt lat="44.4001" lon="0.99272">
        <ele>171</ele>
        <time>2025-07-17T09:27:36.072Z</time>
      </trkpt>
      <trkpt lat="44.4001" lon="0.99272">
        <ele>171</ele>
        <time>2025-07-17T09:27:37.071Z</time>
      </trkpt>
      <trkpt lat="44.4001" lon="0.99272">
        <ele>171</ele>
        <time>2025-07-17T09:27:38.071Z</time>
      </trkpt>
      <trkpt lat="44.4001" lon="0.99272">
        <ele>171</ele>
        <time>2025-07-17T09:27:39.071Z</time>
      </trkpt>
      <trkpt lat="44.40011" lon="0.99272">
        <ele>171</ele>
        <time>2025-07-17T09:27:40.071Z</time>
      </trkpt>
      <trkpt lat="44.40011" lon="0.99271">
        <ele>171</ele>
        <time>2025-07-17T09:27:41.071Z</time>
      </trkpt>
      <trkpt lat="44.40012" lon="0.99271">
        <ele>171</ele>
        <time>2025-07-17T09:27:42.071Z</time>
      </trkpt>
      <trkpt lat="44.40013" lon="0.99271">
        <ele>171</ele>
        <time>2025-07-17T09:27:43.071Z</time>
      </trkpt>
      <trkpt lat="44.40014" lon="0.9927">
        <ele>171</ele>
        <time>2025-07-17T09:27:44.071Z</time>
      </trkpt>
      <trkpt lat="44.40014" lon="0.99269">
        <ele>171</ele>
        <time>2025-07-17T09:27:45.071Z</time>
      </trkpt>
      <trkpt lat="44.40015" lon="0.99269">
        <ele>171</ele>
        <time>2025-07-17T09:27:46.071Z</time>
      </trkpt>
      <trkpt lat="44.40015" lon="0.99268">
        <ele>171</ele>
        <time>2025-07-17T09:27:47.072Z</time>
      </trkpt>
      <trkpt lat="44.40016" lon="0.99267">
        <ele>171</ele>
        <time>2025-07-17T09:27:48.071Z</time>
      </trkpt>
      <trkpt lat="44.40017" lon="0.99266">
        <ele>171</ele>
        <time>2025-07-17T09:27:49.071Z</time>
      </trkpt>
      <trkpt lat="44.40018" lon="0.99265">
        <ele>170</ele>
        <time>2025-07-17T09:27:50.071Z</time>
      </trkpt>
      <trkpt lat="44.40019" lon="0.99265">
        <ele>170</ele>
        <time>2025-07-17T09:27:51.071Z</time>
      </trkpt>
      <trkpt lat="44.4002" lon="0.99265">
        <ele>170</ele>
        <time>2025-07-17T09:27:52.071Z</time>
      </trkpt>
      <trkpt lat="44.40021" lon="0.99265">
        <ele>169</ele>
        <time>2025-07-17T09:27:53.071Z</time>
      </trkpt>
      <trkpt lat="44.40022" lon="0.99265">
        <ele>169</ele>
        <time>2025-07-17T09:27:54.071Z</time>
      </trkpt>
      <trkpt lat="44.40023" lon="0.99264">
        <ele>169</ele>
        <time>2025-07-17T09:27:55.071Z</time>
      </trkpt>
      <trkpt lat="44.40024" lon="0.99264">
        <ele>169</ele>
        <time>2025-07-17T09:27:56.072Z</time>
      </trkpt>
      <trkpt lat="44.40025" lon="0.99263">
        <ele>169</ele>
        <time>2025-07-17T09:27:57.071Z</time>
      </trkpt>
      <trkpt lat="44.40026" lon="0.99262">
        <ele>169</ele>
        <time>2025-07-17T09:27:58.072Z</time>
      </trkpt>
      <trkpt lat="44.40027" lon="0.99261">
        <ele>169</ele>
        <time>2025-07-17T09:27:59.071Z</time>
      </trkpt>
      <trkpt lat="44.40028" lon="0.99261">
        <ele>169</ele>
        <time>2025-07-17T09:28:00.071Z</time>
      </trkpt>
      <trkpt lat="44.40029" lon="0.9926">
        <ele>168</ele>
        <time>2025-07-17T09:28:01.071Z</time>
      </trkpt>
      <trkpt lat="44.40029" lon="0.99259">
        <ele>168</ele>
        <time>2025-07-17T09:28:02.071Z</time>
      </trkpt>
      <trkpt lat="44.40029" lon="0.99258">
        <ele>168</ele>
        <time>2025-07-17T09:28:03.071Z</time>
      </trkpt>
      <trkpt lat="44.4003" lon="0.99258">
        <ele>168</ele>
        <time>2025-07-17T09:28:04.071Z</time>
      </trkpt>
      <trkpt lat="44.4003" lon="0.99257">
        <ele>168</ele>
        <time>2025-07-17T09:28:05.071Z</time>
      </trkpt>
      <trkpt lat="44.40031" lon="0.99257">
        <ele>168</ele>
        <time>2025-07-17T09:28:06.071Z</time>
      </trkpt>
      <trkpt lat="44.40031" lon="0.99256">
        <ele>168</ele>
        <time>2025-07-17T09:28:07.071Z</time>
      </trkpt>
      <trkpt lat="44.40032" lon="0.99256">
        <ele>169</ele>
        <time>2025-07-17T09:28:08.071Z</time>
      </trkpt>
      <trkpt lat="44.40033" lon="0.99256">
        <ele>169</ele>
        <time>2025-07-17T09:28:09.071Z</time>
      </trkpt>
      <trkpt lat="44.40034" lon="0.99256">
        <ele>169</ele>
        <time>2025-07-17T09:28:10.071Z</time>
      </trkpt>
      <trkpt lat="44.40035" lon="0.99257">
        <ele>169</ele>
        <time>2025-07-17T09:28:11.071Z</time>
      </trkpt>
      <trkpt lat="44.40035" lon="0.99257">
        <ele>169</ele>
        <time>2025-07-17T09:28:12.071Z</time>
      </trkpt>
      <trkpt lat="44.40036" lon="0.99257">
        <ele>169</ele>
        <time>2025-07-17T09:28:13.071Z</time>
      </trkpt>
      <trkpt lat="44.40036" lon="0.99257">
        <ele>170</ele>
        <time>2025-07-17T09:28:14.071Z</time>
      </trkpt>
      <trkpt lat="44.40037" lon="0.99257">
        <ele>170</ele>
        <time>2025-07-17T09:28:15.071Z</time>
      </trkpt>
      <trkpt lat="44.40038" lon="0.99257">
        <ele>170</ele>
        <time>2025-07-17T09:28:16.071Z</time>
      </trkpt>
      <trkpt lat="44.40039" lon="0.99256">
        <ele>170</ele>
        <time>2025-07-17T09:28:17.071Z</time>
      </trkpt>
      <trkpt lat="44.4004" lon="0.99256">
        <ele>170</ele>
        <time>2025-07-17T09:28:18.071Z</time>
      </trkpt>
      <trkpt lat="44.4004" lon="0.99256">
        <ele>169</ele>
        <time>2025-07-17T09:28:19.071Z</time>
      </trkpt>
      <trkpt lat="44.40041" lon="0.99256">
        <ele>169</ele>
        <time>2025-07-17T09:28:20.071Z</time>
      </trkpt>
      <trkpt lat="44.40042" lon="0.99257">
        <ele>169</ele>
        <time>2025-07-17T09:28:21.071Z</time>
      </trkpt>
      <trkpt lat="44.40043" lon="0.99257">
        <ele>169</ele>
        <time>2025-07-17T09:28:22.071Z</time>
      </trkpt>
      <trkpt lat="44.40044" lon="0.99258">
        <ele>169</ele>
        <time>2025-07-17T09:28:23.072Z</time>
      </trkpt>
      <trkpt lat="44.40045" lon="0.99257">
        <ele>169</ele>
        <time>2025-07-17T09:28:24.071Z</time>
      </trkpt>
      <trkpt lat="44.40046" lon="0.99257">
        <ele>169</ele>
        <time>2025-07-17T09:28:25.071Z</time>
      </trkpt>
      <trkpt lat="44.40046" lon="0.99257">
        <ele>169</ele>
        <time>2025-07-17T09:28:26.071Z</time>
      </trkpt>
      <trkpt lat="44.40047" lon="0.99257">
        <ele>169</ele>
        <time>2025-07-17T09:28:27.071Z</time>
      </trkpt>
      <trkpt lat="44.40048" lon="0.99257">
        <ele>169</ele>
        <time>2025-07-17T09:28:28.072Z</time>
      </trkpt>
      <trkpt lat="44.40049" lon="0.99257">
        <ele>169</ele>
        <time>2025-07-17T09:28:29.071Z</time>
      </trkpt>
      <trkpt lat="44.4005" lon="0.99256">
        <ele>169</ele>
        <time>2025-07-17T09:28:30.071Z</time>
      </trkpt>
      <trkpt lat="44.40051" lon="0.99256">
        <ele>169</ele>
        <time>2025-07-17T09:28:31.071Z</time>
      </trkpt>
      <trkpt lat="44.40052" lon="0.99257">
        <ele>169</ele>
        <time>2025-07-17T09:28:32.071Z</time>
      </trkpt>
      <trkpt lat="44.40053" lon="0.99257">
        <ele>169</ele>
        <time>2025-07-17T09:28:33.071Z</time>
      </trkpt>
      <trkpt lat="44.40054" lon="0.99256">
        <ele>169</ele>
        <time>2025-07-17T09:28:34.071Z</time>
      </trkpt>
      <trkpt lat="44.40055" lon="0.99256">
        <ele>169</ele>
        <time>2025-07-17T09:28:35.071Z</time>
      </trkpt>
      <trkpt lat="44.40055" lon="0.99256">
        <ele>170</ele>
        <time>2025-07-17T09:28:36.071Z</time>
      </trkpt>
      <trkpt lat="44.40057" lon="0.99256">
        <ele>170</ele>
        <time>2025-07-17T09:28:37.071Z</time>
      </trkpt>
      <trkpt lat="44.40057" lon="0.99256">
        <ele>171</ele>
        <time>2025-07-17T09:28:38.071Z</time>
      </trkpt>
      <trkpt lat="44.40058" lon="0.99255">
        <ele>171</ele>
        <time>2025-07-17T09:28:39.071Z</time>
      </trkpt>
      <trkpt lat="44.40059" lon="0.99254">
        <ele>171</ele>
        <time>2025-07-17T09:28:40.071Z</time>
      </trkpt>
      <trkpt lat="44.4006" lon="0.99254">
        <ele>171</ele>
        <time>2025-07-17T09:28:41.071Z</time>
      </trkpt>
      <trkpt lat="44.40062" lon="0.99253">
        <ele>171</ele>
        <time>2025-07-17T09:28:42.072Z</time>
      </trkpt>
      <trkpt lat="44.40063" lon="0.99254">
        <ele>171</ele>
        <time>2025-07-17T09:28:43.071Z</time>
      </trkpt>
      <trkpt lat="44.40064" lon="0.99254">
        <ele>172</ele>
        <time>2025-07-17T09:28:44.071Z</time>
      </trkpt>
      <trkpt lat="44.40065" lon="0.99254">
        <ele>172</ele>
        <time>2025-07-17T09:28:45.071Z</time>
      </trkpt>
      <trkpt lat="44.40066" lon="0.99254">
        <ele>172</ele>
        <time>2025-07-17T09:28:46.071Z</time>
      </trkpt>
      <trkpt lat="44.40067" lon="0.99253">
        <ele>172</ele>
        <time>2025-07-17T09:28:47.071Z</time>
      </trkpt>
      <trkpt lat="44.40068" lon="0.99253">
        <ele>172</ele>
        <time>2025-07-17T09:28:48.071Z</time>
      </trkpt>
      <trkpt lat="44.40068" lon="0.99253">
        <ele>171</ele>
        <time>2025-07-17T09:28:49.071Z</time>
      </trkpt>
      <trkpt lat="44.40069" lon="0.99253">
        <ele>171</ele>
        <time>2025-07-17T09:28:50.071Z</time>
      </trkpt>
      <trkpt lat="44.4007" lon="0.99253">
        <ele>171</ele>
        <time>2025-07-17T09:28:51.071Z</time>
      </trkpt>
      <trkpt lat="44.4007" lon="0.99253">
        <ele>171</ele>
        <time>2025-07-17T09:28:52.071Z</time>
      </trkpt>
      <trkpt lat="44.4007" lon="0.99253">
        <ele>171</ele>
        <time>2025-07-17T09:28:53.071Z</time>
      </trkpt>
      <trkpt lat="44.4007" lon="0.99253">
        <ele>171</ele>
        <time>2025-07-17T09:28:54.071Z</time>
      </trkpt>
      <trkpt lat="44.4007" lon="0.99253">
        <ele>171</ele>
        <time>2025-07-17T09:28:55.071Z</time>
      </trkpt>
      <trkpt lat="44.4007" lon="0.99253">
        <ele>171</ele>
        <time>2025-07-17T09:28:56.071Z</time>
      </trkpt>
      <trkpt lat="44.4007" lon="0.99253">
        <ele>170</ele>
        <time>2025-07-17T09:28:57.072Z</time>
      </trkpt>
      <trkpt lat="44.40071" lon="0.99253">
        <ele>170</ele>
        <time>2025-07-17T09:28:58.071Z</time>
      </trkpt>
      <trkpt lat="44.40071" lon="0.99253">
        <ele>169</ele>
        <time>2025-07-17T09:28:59.071Z</time>
      </trkpt>
      <trkpt lat="44.40071" lon="0.99253">
        <ele>169</ele>
        <time>2025-07-17T09:29:00.071Z</time>
      </trkpt>
      <trkpt lat="44.40071" lon="0.99253">
        <ele>169</ele>
        <time>2025-07-17T09:29:01.071Z</time>
      </trkpt>
      <trkpt lat="44.40072" lon="0.99252">
        <ele>169</ele>
        <time>2025-07-17T09:29:02.071Z</time>
      </trkpt>
      <trkpt lat="44.40072" lon="0.99251">
        <ele>169</ele>
        <time>2025-07-17T09:29:03.071Z</time>
      </trkpt>
      <trkpt lat="44.40073" lon="0.99251">
        <ele>169</ele>
        <time>2025-07-17T09:29:04.071Z</time>
      </trkpt>
      <trkpt lat="44.40073" lon="0.9925">
        <ele>168</ele>
        <time>2025-07-17T09:29:05.071Z</time>
      </trkpt>
      <trkpt lat="44.40074" lon="0.9925">
        <ele>168</ele>
        <time>2025-07-17T09:29:06.071Z</time>
      </trkpt>
      <trkpt lat="44.40074" lon="0.99251">
        <ele>169</ele>
        <time>2025-07-17T09:29:07.071Z</time>
      </trkpt>
      <trkpt lat="44.40075" lon="0.99251">
        <ele>169</ele>
        <time>2025-07-17T09:29:08.071Z</time>
      </trkpt>
      <trkpt lat="44.40076" lon="0.99252">
        <ele>169</ele>
        <time>2025-07-17T09:29:09.071Z</time>
      </trkpt>
      <trkpt lat="44.40076" lon="0.99252">
        <ele>169</ele>
        <time>2025-07-17T09:29:10.071Z</time>
      </trkpt>
      <trkpt lat="44.40077" lon="0.99253">
        <ele>169</ele>
        <time>2025-07-17T09:29:11.071Z</time>
      </trkpt>
      <trkpt lat="44.40078" lon="0.99253">
        <ele>170</ele>
        <time>2025-07-17T09:29:12.071Z</time>
      </trkpt>
      <trkpt lat="44.40078" lon="0.99253">
        <ele>170</ele>
        <time>2025-07-17T09:29:13.071Z</time>
      </trkpt>
      <trkpt lat="44.40079" lon="0.99254">
        <ele>170</ele>
        <time>2025-07-17T09:29:14.071Z</time>
      </trkpt>
      <trkpt lat="44.4008" lon="0.99255">
        <ele>171</ele>
        <time>2025-07-17T09:29:15.071Z</time>
      </trkpt>
      <trkpt lat="44.40081" lon="0.99256">
        <ele>171</ele>
        <time>2025-07-17T09:29:16.071Z</time>
      </trkpt>
      <trkpt lat="44.40081" lon="0.99257">
        <ele>171</ele>
        <time>2025-07-17T09:29:17.071Z</time>
      </trkpt>
      <trkpt lat="44.40081" lon="0.99257">
        <ele>171</ele>
        <time>2025-07-17T09:29:18.071Z</time>
      </trkpt>
      <trkpt lat="44.40082" lon="0.99259">
        <ele>171</ele>
        <time>2025-07-17T09:29:19.071Z</time>
      </trkpt>
      <trkpt lat="44.40083" lon="0.99261">
        <ele>171</ele>
        <time>2025-07-17T09:29:20.071Z</time>
      </trkpt>
      <trkpt lat="44.40084" lon="0.99262">
        <ele>172</ele>
        <time>2025-07-17T09:29:21.071Z</time>
      </trkpt>
      <trkpt lat="44.40084" lon="0.99262">
        <ele>172</ele>
        <time>2025-07-17T09:29:22.071Z</time>
      </trkpt>
      <trkpt lat="44.40085" lon="0.99263">
        <ele>172</ele>
        <time>2025-07-17T09:29:23.071Z</time>
      </trkpt>
      <trkpt lat="44.40086" lon="0.99263">
        <ele>172</ele>
        <time>2025-07-17T09:29:24.072Z</time>
      </trkpt>
      <trkpt lat="44.40087" lon="0.99264">
        <ele>172</ele>
        <time>2025-07-17T09:29:25.071Z</time>
      </trkpt>
      <trkpt lat="44.40088" lon="0.99266">
        <ele>173</ele>
        <time>2025-07-17T09:29:26.071Z</time>
      </trkpt>
      <trkpt lat="44.40089" lon="0.99267">
        <ele>173</ele>
        <time>2025-07-17T09:29:27.071Z</time>
      </trkpt>
      <trkpt lat="44.40089" lon="0.99268">
        <ele>173</ele>
        <time>2025-07-17T09:29:28.071Z</time>
      </trkpt>
      <trkpt lat="44.40089" lon="0.99269">
        <ele>173</ele>
        <time>2025-07-17T09:29:29.071Z</time>
      </trkpt>
      <trkpt lat="44.4009" lon="0.99269">
        <ele>173</ele>
        <time>2025-07-17T09:29:30.071Z</time>
      </trkpt>
      <trkpt lat="44.4009" lon="0.9927">
        <ele>173</ele>
        <time>2025-07-17T09:29:31.071Z</time>
      </trkpt>
      <trkpt lat="44.40091" lon="0.99271">
        <ele>174</ele>
        <time>2025-07-17T09:29:32.071Z</time>
      </trkpt>
      <trkpt lat="44.40092" lon="0.99272">
        <ele>174</ele>
        <time>2025-07-17T09:29:33.071Z</time>
      </trkpt>
      <trkpt lat="44.40093" lon="0.99272">
        <ele>174</ele>
        <time>2025-07-17T09:29:34.071Z</time>
      </trkpt>
      <trkpt lat="44.40094" lon="0.99272">
        <ele>175</ele>
        <time>2025-07-17T09:29:35.072Z</time>
      </trkpt>
      <trkpt lat="44.40094" lon="0.99273">
        <ele>175</ele>
        <time>2025-07-17T09:29:36.071Z</time>
      </trkpt>
      <trkpt lat="44.40095" lon="0.99274">
        <ele>175</ele>
        <time>2025-07-17T09:29:37.072Z</time>
      </trkpt>
      <trkpt lat="44.40095" lon="0.99275">
        <ele>175</ele>
        <time>2025-07-17T09:29:38.071Z</time>
      </trkpt>
      <trkpt lat="44.40095" lon="0.99276">
        <ele>176</ele>
        <time>2025-07-17T09:29:39.071Z</time>
      </trkpt>
      <trkpt lat="44.40096" lon="0.99276">
        <ele>176</ele>
        <time>2025-07-17T09:29:40.071Z</time>
      </trkpt>
      <trkpt lat="44.40096" lon="0.99277">
        <ele>176</ele>
        <time>2025-07-17T09:29:41.072Z</time>
      </trkpt>
      <trkpt lat="44.40096" lon="0.99278">
        <ele>176</ele>
        <time>2025-07-17T09:29:42.071Z</time>
      </trkpt>
      <trkpt lat="44.40097" lon="0.99279">
        <ele>176</ele>
        <time>2025-07-17T09:29:43.072Z</time>
      </trkpt>
      <trkpt lat="44.40098" lon="0.9928">
        <ele>176</ele>
        <time>2025-07-17T09:29:44.072Z</time>
      </trkpt>
      <trkpt lat="44.40098" lon="0.99281">
        <ele>176</ele>
        <time>2025-07-17T09:29:45.071Z</time>
      </trkpt>
      <trkpt lat="44.40099" lon="0.99281">
        <ele>176</ele>
        <time>2025-07-17T09:29:46.071Z</time>
      </trkpt>
      <trkpt lat="44.401" lon="0.99282">
        <ele>176</ele>
        <time>2025-07-17T09:29:47.071Z</time>
      </trkpt>
      <trkpt lat="44.401" lon="0.99283">
        <ele>176</ele>
        <time>2025-07-17T09:29:48.071Z</time>
      </trkpt>
      <trkpt lat="44.40101" lon="0.99284">
        <ele>176</ele>
        <time>2025-07-17T09:29:49.071Z</time>
      </trkpt>
      <trkpt lat="44.40101" lon="0.99284">
        <ele>177</ele>
        <time>2025-07-17T09:29:50.071Z</time>
      </trkpt>
      <trkpt lat="44.40102" lon="0.99285">
        <ele>177</ele>
        <time>2025-07-17T09:29:51.071Z</time>
      </trkpt>
      <trkpt lat="44.40102" lon="0.99285">
        <ele>177</ele>
        <time>2025-07-17T09:29:52.071Z</time>
      </trkpt>
      <trkpt lat="44.40103" lon="0.99286">
        <ele>178</ele>
        <time>2025-07-17T09:29:53.071Z</time>
      </trkpt>
      <trkpt lat="44.40103" lon="0.99286">
        <ele>178</ele>
        <time>2025-07-17T09:29:54.071Z</time>
      </trkpt>
      <trkpt lat="44.40104" lon="0.99287">
        <ele>178</ele>
        <time>2025-07-17T09:29:55.071Z</time>
      </trkpt>
      <trkpt lat="44.40104" lon="0.99287">
        <ele>179</ele>
        <time>2025-07-17T09:29:56.071Z</time>
      </trkpt>
      <trkpt lat="44.40104" lon="0.99288">
        <ele>179</ele>
        <time>2025-07-17T09:29:57.071Z</time>
      </trkpt>
      <trkpt lat="44.40105" lon="0.99288">
        <ele>179</ele>
        <time>2025-07-17T09:29:58.071Z</time>
      </trkpt>
      <trkpt lat="44.40106" lon="0.99289">
        <ele>179</ele>
        <time>2025-07-17T09:29:59.071Z</time>
      </trkpt>
      <trkpt lat="44.40107" lon="0.99289">
        <ele>179</ele>
        <time>2025-07-17T09:30:00.071Z</time>
      </trkpt>
      <trkpt lat="44.40107" lon="0.9929">
        <ele>179</ele>
        <time>2025-07-17T09:30:01.072Z</time>
      </trkpt>
      <trkpt lat="44.40108" lon="0.99291">
        <ele>178</ele>
        <time>2025-07-17T09:30:02.071Z</time>
      </trkpt>
      <trkpt lat="44.40109" lon="0.99292">
        <ele>178</ele>
        <time>2025-07-17T09:30:03.071Z</time>
      </trkpt>
      <trkpt lat="44.4011" lon="0.99293">
        <ele>179</ele>
        <time>2025-07-17T09:30:04.071Z</time>
      </trkpt>
      <trkpt lat="44.4011" lon="0.99293">
        <ele>178</ele>
        <time>2025-07-17T09:30:05.071Z</time>
      </trkpt>
      <trkpt lat="44.40111" lon="0.99294">
        <ele>178</ele>
        <time>2025-07-17T09:30:06.071Z</time>
      </trkpt>
      <trkpt lat="44.40111" lon="0.99295">
        <ele>179</ele>
        <time>2025-07-17T09:30:07.071Z</time>
      </trkpt>
      <trkpt lat="44.40111" lon="0.99296">
        <ele>179</ele>
        <time>2025-07-17T09:30:08.071Z</time>
      </trkpt>
      <trkpt lat="44.40111" lon="0.99298">
        <ele>179</ele>
        <time>2025-07-17T09:30:09.071Z</time>
      </trkpt>
      <trkpt lat="44.40111" lon="0.99299">
        <ele>179</ele>
        <time>2025-07-17T09:30:10.071Z</time>
      </trkpt>
      <trkpt lat="44.4011" lon="0.99299">
        <ele>179</ele>
        <time>2025-07-17T09:30:11.071Z</time>
      </trkpt>
      <trkpt lat="44.40109" lon="0.993">
        <ele>180</ele>
        <time>2025-07-17T09:30:12.071Z</time>
      </trkpt>
      <trkpt lat="44.40108" lon="0.993">
        <ele>180</ele>
        <time>2025-07-17T09:30:13.071Z</time>
      </trkpt>
      <trkpt lat="44.40107" lon="0.993">
        <ele>181</ele>
        <time>2025-07-17T09:30:14.071Z</time>
      </trkpt>
      <trkpt lat="44.40106" lon="0.99299">
        <ele>181</ele>
        <time>2025-07-17T09:30:15.071Z</time>
      </trkpt>
      <trkpt lat="44.40105" lon="0.99298">
        <ele>181</ele>
        <time>2025-07-17T09:30:16.071Z</time>
      </trkpt>
      <trkpt lat="44.40104" lon="0.99298">
        <ele>182</ele>
        <time>2025-07-17T09:30:17.071Z</time>
      </trkpt>
      <trkpt lat="44.40103" lon="0.99297">
        <ele>182</ele>
        <time>2025-07-17T09:30:18.071Z</time>
      </trkpt>
      <trkpt lat="44.40102" lon="0.99297">
        <ele>182</ele>
        <time>2025-07-17T09:30:19.071Z</time>
      </trkpt>
      <trkpt lat="44.40102" lon="0.99297">
        <ele>182</ele>
        <time>2025-07-17T09:30:20.071Z</time>
      </trkpt>
      <trkpt lat="44.40101" lon="0.99296">
        <ele>182</ele>
        <time>2025-07-17T09:30:21.071Z</time>
      </trkpt>
      <trkpt lat="44.401" lon="0.99296">
        <ele>183</ele>
        <time>2025-07-17T09:30:22.071Z</time>
      </trkpt>
      <trkpt lat="44.40099" lon="0.99296">
        <ele>183</ele>
        <time>2025-07-17T09:30:23.071Z</time>
      </trkpt>
      <trkpt lat="44.40097" lon="0.99295">
        <ele>183</ele>
        <time>2025-07-17T09:30:24.071Z</time>
      </trkpt>
      <trkpt lat="44.40096" lon="0.99294">
        <ele>183</ele>
        <time>2025-07-17T09:30:25.071Z</time>
      </trkpt>
      <trkpt lat="44.40095" lon="0.99293">
        <ele>183</ele>
        <time>2025-07-17T09:30:26.071Z</time>
      </trkpt>
      <trkpt lat="44.40094" lon="0.99292">
        <ele>184</ele>
        <time>2025-07-17T09:30:27.071Z</time>
      </trkpt>
      <trkpt lat="44.40094" lon="0.99292">
        <ele>184</ele>
        <time>2025-07-17T09:30:28.071Z</time>
      </trkpt>
      <trkpt lat="44.40094" lon="0.99291">
        <ele>184</ele>
        <time>2025-07-17T09:30:29.071Z</time>
      </trkpt>
      <trkpt lat="44.40095" lon="0.99291">
        <ele>185</ele>
        <time>2025-07-17T09:30:30.071Z</time>
      </trkpt>
      <trkpt lat="44.40095" lon="0.99291">
        <ele>185</ele>
        <time>2025-07-17T09:30:31.071Z</time>
      </trkpt>
      <trkpt lat="44.40095" lon="0.99292">
        <ele>186</ele>
        <time>2025-07-17T09:30:32.071Z</time>
      </trkpt>
      <trkpt lat="44.40096" lon="0.99292">
        <ele>186</ele>
        <time>2025-07-17T09:30:33.071Z</time>
      </trkpt>
      <trkpt lat="44.40096" lon="0.99293">
        <ele>186</ele>
        <time>2025-07-17T09:30:34.071Z</time>
      </trkpt>
      <trkpt lat="44.40096" lon="0.99293">
        <ele>187</ele>
        <time>2025-07-17T09:30:35.071Z</time>
      </trkpt>
      <trkpt lat="44.40096" lon="0.99293">
        <ele>187</ele>
        <time>2025-07-17T09:30:36.071Z</time>
      </trkpt>
      <trkpt lat="44.40095" lon="0.99292">
        <ele>187</ele>
        <time>2025-07-17T09:30:37.071Z</time>
      </trkpt>
      <trkpt lat="44.40095" lon="0.99292">
        <ele>187</ele>
        <time>2025-07-17T09:30:38.071Z</time>
      </trkpt>
      <trkpt lat="44.40095" lon="0.99292">
        <ele>187</ele>
        <time>2025-07-17T09:30:39.071Z</time>
      </trkpt>
      <trkpt lat="44.40095" lon="0.99292">
        <ele>186</ele>
        <time>2025-07-17T09:30:40.071Z</time>
      </trkpt>
      <trkpt lat="44.40095" lon="0.99292">
        <ele>186</ele>
        <time>2025-07-17T09:30:41.071Z</time>
      </trkpt>
      <trkpt lat="44.40095" lon="0.99293">
        <ele>186</ele>
        <time>2025-07-17T09:30:42.071Z</time>
      </trkpt>
      <trkpt lat="44.40095" lon="0.99292">
        <ele>186</ele>
        <time>2025-07-17T09:30:43.071Z</time>
      </trkpt>
      <trkpt lat="44.40095" lon="0.99293">
        <ele>186</ele>
        <time>2025-07-17T09:30:44.071Z</time>
      </trkpt>
      <trkpt lat="44.40096" lon="0.99293">
        <ele>186</ele>
        <time>2025-07-17T09:30:45.071Z</time>
      </trkpt>
      <trkpt lat="44.40097" lon="0.99293">
        <ele>186</ele>
        <time>2025-07-17T09:30:46.071Z</time>
      </trkpt>
      <trkpt lat="44.40097" lon="0.99292">
        <ele>187</ele>
        <time>2025-07-17T09:30:47.071Z</time>
      </trkpt>
      <trkpt lat="44.40098" lon="0.99292">
        <ele>187</ele>
        <time>2025-07-17T09:30:48.071Z</time>
      </trkpt>
      <trkpt lat="44.40099" lon="0.99292">
        <ele>187</ele>
        <time>2025-07-17T09:30:49.071Z</time>
      </trkpt>
      <trkpt lat="44.401" lon="0.99292">
        <ele>188</ele>
        <time>2025-07-17T09:30:50.071Z</time>
      </trkpt>
      <trkpt lat="44.401" lon="0.99292">
        <ele>188</ele>
        <time>2025-07-17T09:30:51.071Z</time>
      </trkpt>
      <trkpt lat="44.40101" lon="0.99292">
        <ele>188</ele>
        <time>2025-07-17T09:30:52.071Z</time>
      </trkpt>
      <trkpt lat="44.40102" lon="0.99292">
        <ele>188</ele>
        <time>2025-07-17T09:30:53.071Z</time>
      </trkpt>
      <trkpt lat="44.40102" lon="0.99292">
        <ele>188</ele>
        <time>2025-07-17T09:30:54.071Z</time>
      </trkpt>
      <trkpt lat="44.40102" lon="0.99292">
        <ele>188</ele>
        <time>2025-07-17T09:30:55.071Z</time>
      </trkpt>
      <trkpt lat="44.40102" lon="0.99293">
        <ele>188</ele>
        <time>2025-07-17T09:30:56.071Z</time>
      </trkpt>
      <trkpt lat="44.40103" lon="0.99294">
        <ele>188</ele>
        <time>2025-07-17T09:30:57.071Z</time>
      </trkpt>
      <trkpt lat="44.40104" lon="0.99295">
        <ele>188</ele>
        <time>2025-07-17T09:30:58.071Z</time>
      </trkpt>
      <trkpt lat="44.40104" lon="0.99296">
        <ele>188</ele>
        <time>2025-07-17T09:30:59.072Z</time>
      </trkpt>
      <trkpt lat="44.40104" lon="0.99296">
        <ele>187</ele>
        <time>2025-07-17T09:31:00.071Z</time>
      </trkpt>
      <trkpt lat="44.40105" lon="0.99296">
        <ele>187</ele>
        <time>2025-07-17T09:31:01.071Z</time>
      </trkpt>
      <trkpt lat="44.40105" lon="0.99296">
        <ele>187</ele>
        <time>2025-07-17T09:31:02.071Z</time>
      </trkpt>
      <trkpt lat="44.40106" lon="0.99296">
        <ele>187</ele>
        <time>2025-07-17T09:31:03.072Z</time>
      </trkpt>
      <trkpt lat="44.40107" lon="0.99296">
        <ele>186</ele>
        <time>2025-07-17T09:31:04.071Z</time>
      </trkpt>
      <trkpt lat="44.40108" lon="0.99297">
        <ele>186</ele>
        <time>2025-07-17T09:31:05.071Z</time>
      </trkpt>
      <trkpt lat="44.40109" lon="0.99297">
        <ele>186</ele>
        <time>2025-07-17T09:31:06.071Z</time>
      </trkpt>
      <trkpt lat="44.4011" lon="0.99298">
        <ele>185</ele>
        <time>2025-07-17T09:31:07.071Z</time>
      </trkpt>
      <trkpt lat="44.40111" lon="0.99298">
        <ele>185</ele>
        <time>2025-07-17T09:31:08.071Z</time>
      </trkpt>
      <trkpt lat="44.40112" lon="0.99299">
        <ele>185</ele>
        <time>2025-07-17T09:31:09.071Z</time>
      </trkpt>
      <trkpt lat="44.40113" lon="0.99299">
        <ele>184</ele>
        <time>2025-07-17T09:31:10.071Z</time>
      </trkpt>
      <trkpt lat="44.40114" lon="0.993">
        <ele>184</ele>
        <time>2025-07-17T09:31:11.071Z</time>
      </trkpt>
      <trkpt lat="44.40115" lon="0.993">
        <ele>184</ele>
        <time>2025-07-17T09:31:12.071Z</time>
      </trkpt>
      <trkpt lat="44.40116" lon="0.99301">
        <ele>184</ele>
        <time>2025-07-17T09:31:13.071Z</time>
      </trkpt>
      <trkpt lat="44.40117" lon="0.99302">
        <ele>184</ele>
        <time>2025-07-17T09:31:14.072Z</time>
      </trkpt>
      <trkpt lat="44.40118" lon="0.99303">
        <ele>184</ele>
        <time>2025-07-17T09:31:15.071Z</time>
      </trkpt>
      <trkpt lat="44.40118" lon="0.99304">
        <ele>184</ele>
        <time>2025-07-17T09:31:16.071Z</time>
      </trkpt>
      <trkpt lat="44.40119" lon="0.99304">
        <ele>185</ele>
        <time>2025-07-17T09:31:17.071Z</time>
      </trkpt>
      <trkpt lat="44.4012" lon="0.99304">
        <ele>185</ele>
        <time>2025-07-17T09:31:18.071Z</time>
      </trkpt>
      <trkpt lat="44.40122" lon="0.99304">
        <ele>186</ele>
        <time>2025-07-17T09:31:19.071Z</time>
      </trkpt>
      <trkpt lat="44.40123" lon="0.99304">
        <ele>186</ele>
        <time>2025-07-17T09:31:20.071Z</time>
      </trkpt>
      <trkpt lat="44.40123" lon="0.99305">
        <ele>186</ele>
        <time>2025-07-17T09:31:21.071Z</time>
      </trkpt>
      <trkpt lat="44.40124" lon="0.99306">
        <ele>187</ele>
        <time>2025-07-17T09:31:22.071Z</time>
      </trkpt>
      <trkpt lat="44.40124" lon="0.99306">
        <ele>186</ele>
        <time>2025-07-17T09:31:23.071Z</time>
      </trkpt>
      <trkpt lat="44.40124" lon="0.99307">
        <ele>186</ele>
        <time>2025-07-17T09:31:24.071Z</time>
      </trkpt>
      <trkpt lat="44.40124" lon="0.99308">
        <ele>185</ele>
        <time>2025-07-17T09:31:25.071Z</time>
      </trkpt>
      <trkpt lat="44.40125" lon="0.99309">
        <ele>185</ele>
        <time>2025-07-17T09:31:26.071Z</time>
      </trkpt>
      <trkpt lat="44.40126" lon="0.99309">
        <ele>184</ele>
        <time>2025-07-17T09:31:27.071Z</time>
      </trkpt>
      <trkpt lat="44.40126" lon="0.9931">
        <ele>184</ele>
        <time>2025-07-17T09:31:28.071Z</time>
      </trkpt>
      <trkpt lat="44.40127" lon="0.99312">
        <ele>184</ele>
        <time>2025-07-17T09:31:29.071Z</time>
      </trkpt>
      <trkpt lat="44.40128" lon="0.99312">
        <ele>184</ele>
        <time>2025-07-17T09:31:30.071Z</time>
      </trkpt>
      <trkpt lat="44.40129" lon="0.99312">
        <ele>183</ele>
        <time>2025-07-17T09:31:31.071Z</time>
      </trkpt>
      <trkpt lat="44.4013" lon="0.99313">
        <ele>183</ele>
        <time>2025-07-17T09:31:32.071Z</time>
      </trkpt>
      <trkpt lat="44.40132" lon="0.99313">
        <ele>183</ele>
        <time>2025-07-17T09:31:33.072Z</time>
      </trkpt>
      <trkpt lat="44.40133" lon="0.99314">
        <ele>183</ele>
        <time>2025-07-17T09:31:34.071Z</time>
      </trkpt>
      <trkpt lat="44.40134" lon="0.99315">
        <ele>182</ele>
        <time>2025-07-17T09:31:35.071Z</time>
      </trkpt>
      <trkpt lat="44.40134" lon="0.99316">
        <ele>182</ele>
        <time>2025-07-17T09:31:36.071Z</time>
      </trkpt>
      <trkpt lat="44.40135" lon="0.99317">
        <ele>182</ele>
        <time>2025-07-17T09:31:37.071Z</time>
      </trkpt>
      <trkpt lat="44.40136" lon="0.99318">
        <ele>182</ele>
        <time>2025-07-17T09:31:38.071Z</time>
      </trkpt>
      <trkpt lat="44.40136" lon="0.9932">
        <ele>182</ele>
        <time>2025-07-17T09:31:39.071Z</time>
      </trkpt>
      <trkpt lat="44.40137" lon="0.99321">
        <ele>182</ele>
        <time>2025-07-17T09:31:40.071Z</time>
      </trkpt>
      <trkpt lat="44.40138" lon="0.99322">
        <ele>182</ele>
        <time>2025-07-17T09:31:41.071Z</time>
      </trkpt>
      <trkpt lat="44.40139" lon="0.99324">
        <ele>182</ele>
        <time>2025-07-17T09:31:42.071Z</time>
      </trkpt>
      <trkpt lat="44.4014" lon="0.99326">
        <ele>182</ele>
        <time>2025-07-17T09:31:43.071Z</time>
      </trkpt>
      <trkpt lat="44.40141" lon="0.99327">
        <ele>182</ele>
        <time>2025-07-17T09:31:44.071Z</time>
      </trkpt>
      <trkpt lat="44.40142" lon="0.99329">
        <ele>182</ele>
        <time>2025-07-17T09:31:45.071Z</time>
      </trkpt>
      <trkpt lat="44.40143" lon="0.9933">
        <ele>182</ele>
        <time>2025-07-17T09:31:46.071Z</time>
      </trkpt>
      <trkpt lat="44.40144" lon="0.99332">
        <ele>182</ele>
        <time>2025-07-17T09:31:47.071Z</time>
      </trkpt>
      <trkpt lat="44.40145" lon="0.99333">
        <ele>181</ele>
        <time>2025-07-17T09:31:48.071Z</time>
      </trkpt>
      <trkpt lat="44.40146" lon="0.99334">
        <ele>181</ele>
        <time>2025-07-17T09:31:49.071Z</time>
      </trkpt>
      <trkpt lat="44.40147" lon="0.99336">
        <ele>181</ele>
        <time>2025-07-17T09:31:50.071Z</time>
      </trkpt>
      <trkpt lat="44.40148" lon="0.99337">
        <ele>181</ele>
        <time>2025-07-17T09:31:51.071Z</time>
      </trkpt>
      <trkpt lat="44.40149" lon="0.99339">
        <ele>181</ele>
        <time>2025-07-17T09:31:52.071Z</time>
      </trkpt>
      <trkpt lat="44.40149" lon="0.9934">
        <ele>181</ele>
        <time>2025-07-17T09:31:53.071Z</time>
      </trkpt>
      <trkpt lat="44.4015" lon="0.99342">
        <ele>181</ele>
        <time>2025-07-17T09:31:54.071Z</time>
      </trkpt>
      <trkpt lat="44.40151" lon="0.99343">
        <ele>181</ele>
        <time>2025-07-17T09:31:55.071Z</time>
      </trkpt>
      <trkpt lat="44.40151" lon="0.99345">
        <ele>181</ele>
        <time>2025-07-17T09:31:56.071Z</time>
      </trkpt>
      <trkpt lat="44.40152" lon="0.99347">
        <ele>181</ele>
        <time>2025-07-17T09:31:57.071Z</time>
      </trkpt>
      <trkpt lat="44.40152" lon="0.99349">
        <ele>181</ele>
        <time>2025-07-17T09:31:58.071Z</time>
      </trkpt>
      <trkpt lat="44.40152" lon="0.99351">
        <ele>181</ele>
        <time>2025-07-17T09:31:59.071Z</time>
      </trkpt>
      <trkpt lat="44.40152" lon="0.99353">
        <ele>181</ele>
        <time>2025-07-17T09:32:00.071Z</time>
      </trkpt>
      <trkpt lat="44.40152" lon="0.99355">
        <ele>181</ele>
        <time>2025-07-17T09:32:01.071Z</time>
      </trkpt>
      <trkpt lat="44.40153" lon="0.99357">
        <ele>181</ele>
        <time>2025-07-17T09:32:02.071Z</time>
      </trkpt>
      <trkpt lat="44.40153" lon="0.99359">
        <ele>182</ele>
        <time>2025-07-17T09:32:03.071Z</time>
      </trkpt>
      <trkpt lat="44.40152" lon="0.9936">
        <ele>182</ele>
        <time>2025-07-17T09:32:04.071Z</time>
      </trkpt>
      <trkpt lat="44.40152" lon="0.99362">
        <ele>182</ele>
        <time>2025-07-17T09:32:05.071Z</time>
      </trkpt>
      <trkpt lat="44.40152" lon="0.99364">
        <ele>182</ele>
        <time>2025-07-17T09:32:06.071Z</time>
      </trkpt>
      <trkpt lat="44.40152" lon="0.99366">
        <ele>181</ele>
        <time>2025-07-17T09:32:07.071Z</time>
      </trkpt>
      <trkpt lat="44.40152" lon="0.99368">
        <ele>181</ele>
        <time>2025-07-17T09:32:08.071Z</time>
      </trkpt>
      <trkpt lat="44.40152" lon="0.9937">
        <ele>181</ele>
        <time>2025-07-17T09:32:09.071Z</time>
      </trkpt>
      <trkpt lat="44.40152" lon="0.99372">
        <ele>182</ele>
        <time>2025-07-17T09:32:10.071Z</time>
      </trkpt>
      <trkpt lat="44.40152" lon="0.99374">
        <ele>182</ele>
        <time>2025-07-17T09:32:11.071Z</time>
      </trkpt>
      <trkpt lat="44.40152" lon="0.99375">
        <ele>182</ele>
        <time>2025-07-17T09:32:12.071Z</time>
      </trkpt>
      <trkpt lat="44.40153" lon="0.99377">
        <ele>182</ele>
        <time>2025-07-17T09:32:13.071Z</time>
      </trkpt>
      <trkpt lat="44.40153" lon="0.99379">
        <ele>182</ele>
        <time>2025-07-17T09:32:14.071Z</time>
      </trkpt>
      <trkpt lat="44.40153" lon="0.9938">
        <ele>182</ele>
        <time>2025-07-17T09:32:15.071Z</time>
      </trkpt>
      <trkpt lat="44.40153" lon="0.99382">
        <ele>182</ele>
        <time>2025-07-17T09:32:16.071Z</time>
      </trkpt>
      <trkpt lat="44.40152" lon="0.99384">
        <ele>182</ele>
        <time>2025-07-17T09:32:17.071Z</time>
      </trkpt>
      <trkpt lat="44.40152" lon="0.99386">
        <ele>182</ele>
        <time>2025-07-17T09:32:18.071Z</time>
      </trkpt>
      <trkpt lat="44.40152" lon="0.99388">
        <ele>182</ele>
        <time>2025-07-17T09:32:19.071Z</time>
      </trkpt>
      <trkpt lat="44.40151" lon="0.99389">
        <ele>182</ele>
        <time>2025-07-17T09:32:20.071Z</time>
      </trkpt>
      <trkpt lat="44.40152" lon="0.9939">
        <ele>182</ele>
        <time>2025-07-17T09:32:21.071Z</time>
      </trkpt>
      <trkpt lat="44.40151" lon="0.99392">
        <ele>182</ele>
        <time>2025-07-17T09:32:22.071Z</time>
      </trkpt>
      <trkpt lat="44.40151" lon="0.99394">
        <ele>182</ele>
        <time>2025-07-17T09:32:23.071Z</time>
      </trkpt>
      <trkpt lat="44.40151" lon="0.99395">
        <ele>182</ele>
        <time>2025-07-17T09:32:24.071Z</time>
      </trkpt>
      <trkpt lat="44.40151" lon="0.99397">
        <ele>182</ele>
        <time>2025-07-17T09:32:25.071Z</time>
      </trkpt>
      <trkpt lat="44.40151" lon="0.99399">
        <ele>182</ele>
        <time>2025-07-17T09:32:26.071Z</time>
      </trkpt>
      <trkpt lat="44.4015" lon="0.99401">
        <ele>182</ele>
        <time>2025-07-17T09:32:27.071Z</time>
      </trkpt>
      <trkpt lat="44.4015" lon="0.99402">
        <ele>183</ele>
        <time>2025-07-17T09:32:28.071Z</time>
      </trkpt>
      <trkpt lat="44.4015" lon="0.99404">
        <ele>183</ele>
        <time>2025-07-17T09:32:29.071Z</time>
      </trkpt>
      <trkpt lat="44.4015" lon="0.99405">
        <ele>183</ele>
        <time>2025-07-17T09:32:30.071Z</time>
      </trkpt>
      <trkpt lat="44.40149" lon="0.99407">
        <ele>184</ele>
        <time>2025-07-17T09:32:31.071Z</time>
      </trkpt>
      <trkpt lat="44.40149" lon="0.99408">
        <ele>184</ele>
        <time>2025-07-17T09:32:32.071Z</time>
      </trkpt>
      <trkpt lat="44.40148" lon="0.9941">
        <ele>184</ele>
        <time>2025-07-17T09:32:33.071Z</time>
      </trkpt>
      <trkpt lat="44.40148" lon="0.99411">
        <ele>184</ele>
        <time>2025-07-17T09:32:34.071Z</time>
      </trkpt>
      <trkpt lat="44.40148" lon="0.99413">
        <ele>185</ele>
        <time>2025-07-17T09:32:35.071Z</time>
      </trkpt>
      <trkpt lat="44.40148" lon="0.99414">
        <ele>185</ele>
        <time>2025-07-17T09:32:36.071Z</time>
      </trkpt>
      <trkpt lat="44.40147" lon="0.99416">
        <ele>186</ele>
        <time>2025-07-17T09:32:37.071Z</time>
      </trkpt>
      <trkpt lat="44.40147" lon="0.99417">
        <ele>186</ele>
        <time>2025-07-17T09:32:38.071Z</time>
      </trkpt>
      <trkpt lat="44.40147" lon="0.99419">
        <ele>186</ele>
        <time>2025-07-17T09:32:39.071Z</time>
      </trkpt>
      <trkpt lat="44.40146" lon="0.9942">
        <ele>186</ele>
        <time>2025-07-17T09:32:40.071Z</time>
      </trkpt>
      <trkpt lat="44.40146" lon="0.99422">
        <ele>187</ele>
        <time>2025-07-17T09:32:41.071Z</time>
      </trkpt>
      <trkpt lat="44.40145" lon="0.99423">
        <ele>187</ele>
        <time>2025-07-17T09:32:42.072Z</time>
      </trkpt>
      <trkpt lat="44.40144" lon="0.99424">
        <ele>187</ele>
        <time>2025-07-17T09:32:43.071Z</time>
      </trkpt>
      <trkpt lat="44.40144" lon="0.99426">
        <ele>186</ele>
        <time>2025-07-17T09:32:44.071Z</time>
      </trkpt>
      <trkpt lat="44.40143" lon="0.99427">
        <ele>186</ele>
        <time>2025-07-17T09:32:45.071Z</time>
      </trkpt>
      <trkpt lat="44.40142" lon="0.99429">
        <ele>186</ele>
        <time>2025-07-17T09:32:46.071Z</time>
      </trkpt>
      <trkpt lat="44.40142" lon="0.9943">
        <ele>186</ele>
        <time>2025-07-17T09:32:47.071Z</time>
      </trkpt>
      <trkpt lat="44.40142" lon="0.99431">
        <ele>186</ele>
        <time>2025-07-17T09:32:48.071Z</time>
      </trkpt>
      <trkpt lat="44.40142" lon="0.99432">
        <ele>186</ele>
        <time>2025-07-17T09:32:49.071Z</time>
      </trkpt>
      <trkpt lat="44.40142" lon="0.99434">
        <ele>186</ele>
        <time>2025-07-17T09:32:50.071Z</time>
      </trkpt>
      <trkpt lat="44.40142" lon="0.99435">
        <ele>186</ele>
        <time>2025-07-17T09:32:51.071Z</time>
      </trkpt>
      <trkpt lat="44.40141" lon="0.99437">
        <ele>186</ele>
        <time>2025-07-17T09:32:52.071Z</time>
      </trkpt>
      <trkpt lat="44.4014" lon="0.99439">
        <ele>186</ele>
        <time>2025-07-17T09:32:53.071Z</time>
      </trkpt>
      <trkpt lat="44.4014" lon="0.9944">
        <ele>186</ele>
        <time>2025-07-17T09:32:54.071Z</time>
      </trkpt>
      <trkpt lat="44.4014" lon="0.99441">
        <ele>186</ele>
        <time>2025-07-17T09:32:55.071Z</time>
      </trkpt>
      <trkpt lat="44.40139" lon="0.99442">
        <ele>186</ele>
        <time>2025-07-17T09:32:56.071Z</time>
      </trkpt>
      <trkpt lat="44.40139" lon="0.99443">
        <ele>186</ele>
        <time>2025-07-17T09:32:57.071Z</time>
      </trkpt>
      <trkpt lat="44.40138" lon="0.99444">
        <ele>186</ele>
        <time>2025-07-17T09:32:58.071Z</time>
      </trkpt>
      <trkpt lat="44.40137" lon="0.99445">
        <ele>186</ele>
        <time>2025-07-17T09:32:59.071Z</time>
      </trkpt>
      <trkpt lat="44.40136" lon="0.99446">
        <ele>187</ele>
        <time>2025-07-17T09:33:00.071Z</time>
      </trkpt>
      <trkpt lat="44.40136" lon="0.99447">
        <ele>187</ele>
        <time>2025-07-17T09:33:01.071Z</time>
      </trkpt>
      <trkpt lat="44.40135" lon="0.99448">
        <ele>187</ele>
        <time>2025-07-17T09:33:02.071Z</time>
      </trkpt>
      <trkpt lat="44.40135" lon="0.99449">
        <ele>187</ele>
        <time>2025-07-17T09:33:03.071Z</time>
      </trkpt>
      <trkpt lat="44.40134" lon="0.9945">
        <ele>187</ele>
        <time>2025-07-17T09:33:04.071Z</time>
      </trkpt>
      <trkpt lat="44.40133" lon="0.99452">
        <ele>188</ele>
        <time>2025-07-17T09:33:05.071Z</time>
      </trkpt>
      <trkpt lat="44.40132" lon="0.99453">
        <ele>188</ele>
        <time>2025-07-17T09:33:06.072Z</time>
      </trkpt>
      <trkpt lat="44.40132" lon="0.99454">
        <ele>188</ele>
        <time>2025-07-17T09:33:07.071Z</time>
      </trkpt>
      <trkpt lat="44.40131" lon="0.99456">
        <ele>188</ele>
        <time>2025-07-17T09:33:08.071Z</time>
      </trkpt>
      <trkpt lat="44.4013" lon="0.99457">
        <ele>189</ele>
        <time>2025-07-17T09:33:09.071Z</time>
      </trkpt>
      <trkpt lat="44.40129" lon="0.99459">
        <ele>189</ele>
        <time>2025-07-17T09:33:10.071Z</time>
      </trkpt>
      <trkpt lat="44.40129" lon="0.9946">
        <ele>189</ele>
        <time>2025-07-17T09:33:11.071Z</time>
      </trkpt>
      <trkpt lat="44.40128" lon="0.99461">
        <ele>189</ele>
        <time>2025-07-17T09:33:12.071Z</time>
      </trkpt>
      <trkpt lat="44.40127" lon="0.99463">
        <ele>189</ele>
        <time>2025-07-17T09:33:13.071Z</time>
      </trkpt>
      <trkpt lat="44.40127" lon="0.99464">
        <ele>189</ele>
        <time>2025-07-17T09:33:14.071Z</time>
      </trkpt>
      <trkpt lat="44.40126" lon="0.99466">
        <ele>189</ele>
        <time>2025-07-17T09:33:15.071Z</time>
      </trkpt>
      <trkpt lat="44.40125" lon="0.99467">
        <ele>189</ele>
        <time>2025-07-17T09:33:16.071Z</time>
      </trkpt>
      <trkpt lat="44.40125" lon="0.99468">
        <ele>189</ele>
        <time>2025-07-17T09:33:17.071Z</time>
      </trkpt>
      <trkpt lat="44.40124" lon="0.9947">
        <ele>189</ele>
        <time>2025-07-17T09:33:18.071Z</time>
      </trkpt>
      <trkpt lat="44.40124" lon="0.99471">
        <ele>189</ele>
        <time>2025-07-17T09:33:19.071Z</time>
      </trkpt>
      <trkpt lat="44.40123" lon="0.99472">
        <ele>188</ele>
        <time>2025-07-17T09:33:20.071Z</time>
      </trkpt>
      <trkpt lat="44.40122" lon="0.99473">
        <ele>189</ele>
        <time>2025-07-17T09:33:21.071Z</time>
      </trkpt>
      <trkpt lat="44.40121" lon="0.99474">
        <ele>189</ele>
        <time>2025-07-17T09:33:22.071Z</time>
      </trkpt>
      <trkpt lat="44.4012" lon="0.99475">
        <ele>189</ele>
        <time>2025-07-17T09:33:23.071Z</time>
      </trkpt>
      <trkpt lat="44.4012" lon="0.99477">
        <ele>189</ele>
        <time>2025-07-17T09:33:24.072Z</time>
      </trkpt>
      <trkpt lat="44.40119" lon="0.99478">
        <ele>189</ele>
        <time>2025-07-17T09:33:25.071Z</time>
      </trkpt>
      <trkpt lat="44.40118" lon="0.99479">
        <ele>189</ele>
        <time>2025-07-17T09:33:26.071Z</time>
      </trkpt>
      <trkpt lat="44.40117" lon="0.9948">
        <ele>189</ele>
        <time>2025-07-17T09:33:27.072Z</time>
      </trkpt>
      <trkpt lat="44.40116" lon="0.99481">
        <ele>189</ele>
        <time>2025-07-17T09:33:28.071Z</time>
      </trkpt>
      <trkpt lat="44.40116" lon="0.99482">
        <ele>189</ele>
        <time>2025-07-17T09:33:29.071Z</time>
      </trkpt>
      <trkpt lat="44.40115" lon="0.99483">
        <ele>189</ele>
        <time>2025-07-17T09:33:30.071Z</time>
      </trkpt>
      <trkpt lat="44.40115" lon="0.99484">
        <ele>190</ele>
        <time>2025-07-17T09:33:31.071Z</time>
      </trkpt>
      <trkpt lat="44.40115" lon="0.99485">
        <ele>190</ele>
        <time>2025-07-17T09:33:32.071Z</time>
      </trkpt>
      <trkpt lat="44.40114" lon="0.99486">
        <ele>191</ele>
        <time>2025-07-17T09:33:33.071Z</time>
      </trkpt>
      <trkpt lat="44.40113" lon="0.99488">
        <ele>191</ele>
        <time>2025-07-17T09:33:34.071Z</time>
      </trkpt>
      <trkpt lat="44.40112" lon="0.99489">
        <ele>191</ele>
        <time>2025-07-17T09:33:35.071Z</time>
      </trkpt>
      <trkpt lat="44.40112" lon="0.9949">
        <ele>191</ele>
        <time>2025-07-17T09:33:36.071Z</time>
      </trkpt>
      <trkpt lat="44.40111" lon="0.99491">
        <ele>191</ele>
        <time>2025-07-17T09:33:37.071Z</time>
      </trkpt>
      <trkpt lat="44.4011" lon="0.99492">
        <ele>191</ele>
        <time>2025-07-17T09:33:38.071Z</time>
      </trkpt>
      <trkpt lat="44.40109" lon="0.99493">
        <ele>191</ele>
        <time>2025-07-17T09:33:39.071Z</time>
      </trkpt>
      <trkpt lat="44.40108" lon="0.99494">
        <ele>191</ele>
        <time>2025-07-17T09:33:40.071Z</time>
      </trkpt>
      <trkpt lat="44.40107" lon="0.99495">
        <ele>191</ele>
        <time>2025-07-17T09:33:41.071Z</time>
      </trkpt>
      <trkpt lat="44.40106" lon="0.99495">
        <ele>191</ele>
        <time>2025-07-17T09:33:42.071Z</time>
      </trkpt>
      <trkpt lat="44.40106" lon="0.99496">
        <ele>191</ele>
        <time>2025-07-17T09:33:43.071Z</time>
      </trkpt>
      <trkpt lat="44.40105" lon="0.99497">
        <ele>191</ele>
        <time>2025-07-17T09:33:44.071Z</time>
      </trkpt>
      <trkpt lat="44.40104" lon="0.99499">
        <ele>191</ele>
        <time>2025-07-17T09:33:45.071Z</time>
      </trkpt>
      <trkpt lat="44.40103" lon="0.995">
        <ele>191</ele>
        <time>2025-07-17T09:33:46.071Z</time>
      </trkpt>
      <trkpt lat="44.40102" lon="0.99501">
        <ele>191</ele>
        <time>2025-07-17T09:33:47.071Z</time>
      </trkpt>
      <trkpt lat="44.40102" lon="0.99502">
        <ele>191</ele>
        <time>2025-07-17T09:33:48.071Z</time>
      </trkpt>
      <trkpt lat="44.40101" lon="0.99503">
        <ele>192</ele>
        <time>2025-07-17T09:33:49.071Z</time>
      </trkpt>
      <trkpt lat="44.401" lon="0.99504">
        <ele>192</ele>
        <time>2025-07-17T09:33:50.071Z</time>
      </trkpt>
      <trkpt lat="44.40099" lon="0.99505">
        <ele>192</ele>
        <time>2025-07-17T09:33:51.071Z</time>
      </trkpt>
      <trkpt lat="44.40098" lon="0.99506">
        <ele>192</ele>
        <time>2025-07-17T09:33:52.071Z</time>
      </trkpt>
      <trkpt lat="44.40097" lon="0.99506">
        <ele>192</ele>
        <time>2025-07-17T09:33:53.071Z</time>
      </trkpt>
      <trkpt lat="44.40096" lon="0.99507">
        <ele>191</ele>
        <time>2025-07-17T09:33:54.071Z</time>
      </trkpt>
      <trkpt lat="44.40095" lon="0.99508">
        <ele>191</ele>
        <time>2025-07-17T09:33:55.071Z</time>
      </trkpt>
      <trkpt lat="44.40095" lon="0.99508">
        <ele>191</ele>
        <time>2025-07-17T09:33:56.071Z</time>
      </trkpt>
      <trkpt lat="44.40094" lon="0.99509">
        <ele>191</ele>
        <time>2025-07-17T09:33:57.071Z</time>
      </trkpt>
      <trkpt lat="44.40093" lon="0.99509">
        <ele>191</ele>
        <time>2025-07-17T09:33:58.071Z</time>
      </trkpt>
      <trkpt lat="44.40093" lon="0.9951">
        <ele>191</ele>
        <time>2025-07-17T09:33:59.071Z</time>
      </trkpt>
      <trkpt lat="44.40092" lon="0.99511">
        <ele>191</ele>
        <time>2025-07-17T09:34:00.071Z</time>
      </trkpt>
      <trkpt lat="44.40091" lon="0.99512">
        <ele>192</ele>
        <time>2025-07-17T09:34:01.071Z</time>
      </trkpt>
      <trkpt lat="44.4009" lon="0.99513">
        <ele>192</ele>
        <time>2025-07-17T09:34:02.071Z</time>
      </trkpt>
      <trkpt lat="44.40089" lon="0.99513">
        <ele>192</ele>
        <time>2025-07-17T09:34:03.071Z</time>
      </trkpt>
      <trkpt lat="44.40089" lon="0.99514">
        <ele>192</ele>
        <time>2025-07-17T09:34:04.071Z</time>
      </trkpt>
      <trkpt lat="44.40087" lon="0.99515">
        <ele>193</ele>
        <time>2025-07-17T09:34:05.071Z</time>
      </trkpt>
      <trkpt lat="44.40087" lon="0.99515">
        <ele>193</ele>
        <time>2025-07-17T09:34:06.071Z</time>
      </trkpt>
      <trkpt lat="44.40086" lon="0.99516">
        <ele>193</ele>
        <time>2025-07-17T09:34:07.071Z</time>
      </trkpt>
      <trkpt lat="44.40085" lon="0.99517">
        <ele>194</ele>
        <time>2025-07-17T09:34:08.071Z</time>
      </trkpt>
      <trkpt lat="44.40084" lon="0.99518">
        <ele>194</ele>
        <time>2025-07-17T09:34:09.071Z</time>
      </trkpt>
      <trkpt lat="44.40083" lon="0.99519">
        <ele>194</ele>
        <time>2025-07-17T09:34:10.071Z</time>
      </trkpt>
      <trkpt lat="44.40082" lon="0.9952">
        <ele>194</ele>
        <time>2025-07-17T09:34:11.071Z</time>
      </trkpt>
      <trkpt lat="44.40082" lon="0.99522">
        <ele>195</ele>
        <time>2025-07-17T09:34:12.071Z</time>
      </trkpt>
      <trkpt lat="44.4008" lon="0.99523">
        <ele>195</ele>
        <time>2025-07-17T09:34:13.071Z</time>
      </trkpt>
      <trkpt lat="44.40079" lon="0.99524">
        <ele>196</ele>
        <time>2025-07-17T09:34:14.071Z</time>
      </trkpt>
      <trkpt lat="44.40078" lon="0.99525">
        <ele>196</ele>
        <time>2025-07-17T09:34:15.071Z</time>
      </trkpt>
      <trkpt lat="44.40078" lon="0.99526">
        <ele>196</ele>
        <time>2025-07-17T09:34:16.071Z</time>
      </trkpt>
      <trkpt lat="44.40077" lon="0.99527">
        <ele>197</ele>
        <time>2025-07-17T09:34:17.071Z</time>
      </trkpt>
      <trkpt lat="44.40076" lon="0.99528">
        <ele>197</ele>
        <time>2025-07-17T09:34:18.071Z</time>
      </trkpt>
      <trkpt lat="44.40075" lon="0.99529">
        <ele>197</ele>
        <time>2025-07-17T09:34:19.071Z</time>
      </trkpt>
      <trkpt lat="44.40074" lon="0.99531">
        <ele>198</ele>
        <time>2025-07-17T09:34:20.071Z</time>
      </trkpt>
      <trkpt lat="44.40074" lon="0.99532">
        <ele>198</ele>
        <time>2025-07-17T09:34:21.071Z</time>
      </trkpt>
      <trkpt lat="44.40072" lon="0.99533">
        <ele>198</ele>
        <time>2025-07-17T09:34:22.071Z</time>
      </trkpt>
      <trkpt lat="44.40072" lon="0.99534">
        <ele>198</ele>
        <time>2025-07-17T09:34:23.071Z</time>
      </trkpt>
      <trkpt lat="44.40071" lon="0.99535">
        <ele>198</ele>
        <time>2025-07-17T09:34:24.071Z</time>
      </trkpt>
      <trkpt lat="44.4007" lon="0.99536">
        <ele>199</ele>
        <time>2025-07-17T09:34:25.071Z</time>
      </trkpt>
      <trkpt lat="44.4007" lon="0.99537">
        <ele>199</ele>
        <time>2025-07-17T09:34:26.071Z</time>
      </trkpt>
      <trkpt lat="44.40069" lon="0.99538">
        <ele>199</ele>
        <time>2025-07-17T09:34:27.071Z</time>
      </trkpt>
      <trkpt lat="44.40068" lon="0.99539">
        <ele>199</ele>
        <time>2025-07-17T09:34:28.071Z</time>
      </trkpt>
      <trkpt lat="44.40067" lon="0.9954">
        <ele>200</ele>
        <time>2025-07-17T09:34:29.071Z</time>
      </trkpt>
      <trkpt lat="44.40067" lon="0.99541">
        <ele>200</ele>
        <time>2025-07-17T09:34:30.072Z</time>
      </trkpt>
      <trkpt lat="44.40066" lon="0.99542">
        <ele>200</ele>
        <time>2025-07-17T09:34:31.071Z</time>
      </trkpt>
      <trkpt lat="44.40066" lon="0.99543">
        <ele>201</ele>
        <time>2025-07-17T09:34:32.071Z</time>
      </trkpt>
      <trkpt lat="44.40065" lon="0.99545">
        <ele>201</ele>
        <time>2025-07-17T09:34:33.071Z</time>
      </trkpt>
      <trkpt lat="44.40065" lon="0.99546">
        <ele>201</ele>
        <time>2025-07-17T09:34:34.071Z</time>
      </trkpt>
      <trkpt lat="44.40064" lon="0.99547">
        <ele>201</ele>
        <time>2025-07-17T09:34:35.071Z</time>
      </trkpt>
      <trkpt lat="44.40063" lon="0.99548">
        <ele>201</ele>
        <time>2025-07-17T09:34:36.071Z</time>
      </trkpt>
      <trkpt lat="44.40062" lon="0.99549">
        <ele>202</ele>
        <time>2025-07-17T09:34:37.071Z</time>
      </trkpt>
      <trkpt lat="44.40062" lon="0.99551">
        <ele>202</ele>
        <time>2025-07-17T09:34:38.071Z</time>
      </trkpt>
      <trkpt lat="44.40061" lon="0.99552">
        <ele>202</ele>
        <time>2025-07-17T09:34:39.071Z</time>
      </trkpt>
      <trkpt lat="44.4006" lon="0.99553">
        <ele>202</ele>
        <time>2025-07-17T09:34:40.071Z</time>
      </trkpt>
      <trkpt lat="44.40059" lon="0.99554">
        <ele>202</ele>
        <time>2025-07-17T09:34:41.071Z</time>
      </trkpt>
      <trkpt lat="44.40059" lon="0.99555">
        <ele>202</ele>
        <time>2025-07-17T09:34:42.071Z</time>
      </trkpt>
      <trkpt lat="44.40058" lon="0.99556">
        <ele>202</ele>
        <time>2025-07-17T09:34:43.071Z</time>
      </trkpt>
      <trkpt lat="44.40058" lon="0.99557">
        <ele>202</ele>
        <time>2025-07-17T09:34:44.071Z</time>
      </trkpt>
      <trkpt lat="44.40057" lon="0.99558">
        <ele>202</ele>
        <time>2025-07-17T09:34:45.071Z</time>
      </trkpt>
      <trkpt lat="44.40056" lon="0.99559">
        <ele>202</ele>
        <time>2025-07-17T09:34:46.071Z</time>
      </trkpt>
      <trkpt lat="44.40056" lon="0.9956">
        <ele>202</ele>
        <time>2025-07-17T09:34:47.071Z</time>
      </trkpt>
      <trkpt lat="44.40055" lon="0.99561">
        <ele>202</ele>
        <time>2025-07-17T09:34:48.071Z</time>
      </trkpt>
      <trkpt lat="44.40054" lon="0.99562">
        <ele>202</ele>
        <time>2025-07-17T09:34:49.071Z</time>
      </trkpt>
      <trkpt lat="44.40053" lon="0.99563">
        <ele>202</ele>
        <time>2025-07-17T09:34:50.071Z</time>
      </trkpt>
      <trkpt lat="44.40052" lon="0.99564">
        <ele>202</ele>
        <time>2025-07-17T09:34:51.071Z</time>
      </trkpt>
      <trkpt lat="44.40051" lon="0.99564">
        <ele>202</ele>
        <time>2025-07-17T09:34:52.071Z</time>
      </trkpt>
      <trkpt lat="44.4005" lon="0.99564">
        <ele>202</ele>
        <time>2025-07-17T09:34:53.071Z</time>
      </trkpt>
      <trkpt lat="44.4005" lon="0.99564">
        <ele>203</ele>
        <time>2025-07-17T09:34:54.071Z</time>
      </trkpt>
      <trkpt lat="44.4005" lon="0.99563">
        <ele>203</ele>
        <time>2025-07-17T09:34:55.071Z</time>
      </trkpt>
      <trkpt lat="44.4005" lon="0.99562">
        <ele>203</ele>
        <time>2025-07-17T09:34:56.071Z</time>
      </trkpt>
      <trkpt lat="44.4005" lon="0.99561">
        <ele>203</ele>
        <time>2025-07-17T09:34:57.071Z</time>
      </trkpt>
      <trkpt lat="44.40051" lon="0.99559">
        <ele>203</ele>
        <time>2025-07-17T09:34:58.071Z</time>
      </trkpt>
      <trkpt lat="44.40051" lon="0.99558">
        <ele>204</ele>
        <time>2025-07-17T09:34:59.071Z</time>
      </trkpt>
      <trkpt lat="44.40053" lon="0.99556">
        <ele>204</ele>
        <time>2025-07-17T09:35:00.071Z</time>
      </trkpt>
      <trkpt lat="44.40053" lon="0.99554">
        <ele>204</ele>
        <time>2025-07-17T09:35:01.071Z</time>
      </trkpt>
      <trkpt lat="44.40054" lon="0.99553">
        <ele>204</ele>
        <time>2025-07-17T09:35:02.071Z</time>
      </trkpt>
      <trkpt lat="44.40054" lon="0.99551">
        <ele>204</ele>
        <time>2025-07-17T09:35:03.071Z</time>
      </trkpt>
      <trkpt lat="44.40054" lon="0.9955">
        <ele>204</ele>
        <time>2025-07-17T09:35:04.071Z</time>
      </trkpt>
      <trkpt lat="44.40055" lon="0.99548">
        <ele>204</ele>
        <time>2025-07-17T09:35:05.071Z</time>
      </trkpt>
      <trkpt lat="44.40056" lon="0.99546">
        <ele>205</ele>
        <time>2025-07-17T09:35:06.071Z</time>
      </trkpt>
      <trkpt lat="44.40055" lon="0.99545">
        <ele>205</ele>
        <time>2025-07-17T09:35:07.071Z</time>
      </trkpt>
      <trkpt lat="44.40056" lon="0.99543">
        <ele>205</ele>
        <time>2025-07-17T09:35:08.071Z</time>
      </trkpt>
      <trkpt lat="44.40056" lon="0.9954">
        <ele>205</ele>
        <time>2025-07-17T09:35:09.071Z</time>
      </trkpt>
      <trkpt lat="44.40056" lon="0.99538">
        <ele>205</ele>
        <time>2025-07-17T09:35:10.071Z</time>
      </trkpt>
      <trkpt lat="44.40056" lon="0.99536">
        <ele>206</ele>
        <time>2025-07-17T09:35:11.071Z</time>
      </trkpt>
      <trkpt lat="44.40056" lon="0.99534">
        <ele>206</ele>
        <time>2025-07-17T09:35:12.071Z</time>
      </trkpt>
      <trkpt lat="44.40057" lon="0.99532">
        <ele>206</ele>
        <time>2025-07-17T09:35:13.071Z</time>
      </trkpt>
      <trkpt lat="44.40058" lon="0.99531">
        <ele>207</ele>
        <time>2025-07-17T09:35:14.071Z</time>
      </trkpt>
      <trkpt lat="44.40059" lon="0.9953">
        <ele>207</ele>
        <time>2025-07-17T09:35:15.071Z</time>
      </trkpt>
      <trkpt lat="44.40059" lon="0.99529">
        <ele>207</ele>
        <time>2025-07-17T09:35:16.072Z</time>
      </trkpt>
      <trkpt lat="44.40059" lon="0.99528">
        <ele>206</ele>
        <time>2025-07-17T09:35:17.071Z</time>
      </trkpt>
      <trkpt lat="44.4006" lon="0.99527">
        <ele>206</ele>
        <time>2025-07-17T09:35:18.071Z</time>
      </trkpt>
      <trkpt lat="44.4006" lon="0.99525">
        <ele>206</ele>
        <time>2025-07-17T09:35:19.071Z</time>
      </trkpt>
      <trkpt lat="44.4006" lon="0.99523">
        <ele>206</ele>
        <time>2025-07-17T09:35:20.071Z</time>
      </trkpt>
      <trkpt lat="44.4006" lon="0.9952">
        <ele>206</ele>
        <time>2025-07-17T09:35:21.071Z</time>
      </trkpt>
      <trkpt lat="44.40061" lon="0.99519">
        <ele>206</ele>
        <time>2025-07-17T09:35:22.071Z</time>
      </trkpt>
      <trkpt lat="44.40063" lon="0.99517">
        <ele>207</ele>
        <time>2025-07-17T09:35:23.072Z</time>
      </trkpt>
      <trkpt lat="44.40064" lon="0.99516">
        <ele>207</ele>
        <time>2025-07-17T09:35:24.071Z</time>
      </trkpt>
      <trkpt lat="44.40065" lon="0.99514">
        <ele>207</ele>
        <time>2025-07-17T09:35:25.071Z</time>
      </trkpt>
      <trkpt lat="44.40065" lon="0.99513">
        <ele>207</ele>
        <time>2025-07-17T09:35:26.071Z</time>
      </trkpt>
      <trkpt lat="44.40066" lon="0.99512">
        <ele>207</ele>
        <time>2025-07-17T09:35:27.071Z</time>
      </trkpt>
      <trkpt lat="44.40065" lon="0.99511">
        <ele>207</ele>
        <time>2025-07-17T09:35:28.071Z</time>
      </trkpt>
      <trkpt lat="44.40065" lon="0.9951">
        <ele>207</ele>
        <time>2025-07-17T09:35:29.071Z</time>
      </trkpt>
      <trkpt lat="44.40065" lon="0.99508">
        <ele>207</ele>
        <time>2025-07-17T09:35:30.071Z</time>
      </trkpt>
      <trkpt lat="44.40065" lon="0.99507">
        <ele>207</ele>
        <time>2025-07-17T09:35:31.071Z</time>
      </trkpt>
      <trkpt lat="44.40064" lon="0.99506">
        <ele>207</ele>
        <time>2025-07-17T09:35:32.071Z</time>
      </trkpt>
      <trkpt lat="44.40065" lon="0.99505">
        <ele>207</ele>
        <time>2025-07-17T09:35:33.071Z</time>
      </trkpt>
      <trkpt lat="44.40066" lon="0.99504">
        <ele>207</ele>
        <time>2025-07-17T09:35:34.072Z</time>
      </trkpt>
      <trkpt lat="44.40067" lon="0.99503">
        <ele>207</ele>
        <time>2025-07-17T09:35:35.071Z</time>
      </trkpt>
      <trkpt lat="44.40067" lon="0.99502">
        <ele>207</ele>
        <time>2025-07-17T09:35:36.071Z</time>
      </trkpt>
      <trkpt lat="44.40068" lon="0.995">
        <ele>207</ele>
        <time>2025-07-17T09:35:37.071Z</time>
      </trkpt>
      <trkpt lat="44.40068" lon="0.99499">
        <ele>207</ele>
        <time>2025-07-17T09:35:38.071Z</time>
      </trkpt>
      <trkpt lat="44.40069" lon="0.99497">
        <ele>207</ele>
        <time>2025-07-17T09:35:39.071Z</time>
      </trkpt>
      <trkpt lat="44.40069" lon="0.99496">
        <ele>207</ele>
        <time>2025-07-17T09:35:40.071Z</time>
      </trkpt>
      <trkpt lat="44.4007" lon="0.99495">
        <ele>207</ele>
        <time>2025-07-17T09:35:41.071Z</time>
      </trkpt>
      <trkpt lat="44.40071" lon="0.99494">
        <ele>207</ele>
        <time>2025-07-17T09:35:42.072Z</time>
      </trkpt>
      <trkpt lat="44.40072" lon="0.99493">
        <ele>207</ele>
        <time>2025-07-17T09:35:43.071Z</time>
      </trkpt>
      <trkpt lat="44.40072" lon="0.99492">
        <ele>207</ele>
        <time>2025-07-17T09:35:44.071Z</time>
      </trkpt>
      <trkpt lat="44.40073" lon="0.9949">
        <ele>208</ele>
        <time>2025-07-17T09:35:45.071Z</time>
      </trkpt>
      <trkpt lat="44.40074" lon="0.99489">
        <ele>208</ele>
        <time>2025-07-17T09:35:46.071Z</time>
      </trkpt>
      <trkpt lat="44.40075" lon="0.99488">
        <ele>208</ele>
        <time>2025-07-17T09:35:47.071Z</time>
      </trkpt>
      <trkpt lat="44.40074" lon="0.99486">
        <ele>208</ele>
        <time>2025-07-17T09:35:48.071Z</time>
      </trkpt>
      <trkpt lat="44.40074" lon="0.99485">
        <ele>208</ele>
        <time>2025-07-17T09:35:49.071Z</time>
      </trkpt>
      <trkpt lat="44.40074" lon="0.99483">
        <ele>208</ele>
        <time>2025-07-17T09:35:50.071Z</time>
      </trkpt>
      <trkpt lat="44.40075" lon="0.99481">
        <ele>208</ele>
        <time>2025-07-17T09:35:51.071Z</time>
      </trkpt>
      <trkpt lat="44.40075" lon="0.9948">
        <ele>209</ele>
        <time>2025-07-17T09:35:52.071Z</time>
      </trkpt>
      <trkpt lat="44.40076" lon="0.99478">
        <ele>209</ele>
        <time>2025-07-17T09:35:53.071Z</time>
      </trkpt>
      <trkpt lat="44.40077" lon="0.99477">
        <ele>209</ele>
        <time>2025-07-17T09:35:54.071Z</time>
      </trkpt>
      <trkpt lat="44.40077" lon="0.99476">
        <ele>209</ele>
        <time>2025-07-17T09:35:55.071Z</time>
      </trkpt>
      <trkpt lat="44.40078" lon="0.99475">
        <ele>209</ele>
        <time>2025-07-17T09:35:56.071Z</time>
      </trkpt>
      <trkpt lat="44.40078" lon="0.99473">
        <ele>209</ele>
        <time>2025-07-17T09:35:57.071Z</time>
      </trkpt>
      <trkpt lat="44.40078" lon="0.99472">
        <ele>209</ele>
        <time>2025-07-17T09:35:58.071Z</time>
      </trkpt>
      <trkpt lat="44.40078" lon="0.9947">
        <ele>209</ele>
        <time>2025-07-17T09:35:59.071Z</time>
      </trkpt>
      <trkpt lat="44.40078" lon="0.99469">
        <ele>209</ele>
        <time>2025-07-17T09:36:00.071Z</time>
      </trkpt>
      <trkpt lat="44.40079" lon="0.99468">
        <ele>209</ele>
        <time>2025-07-17T09:36:01.071Z</time>
      </trkpt>
      <trkpt lat="44.40079" lon="0.99466">
        <ele>210</ele>
        <time>2025-07-17T09:36:02.071Z</time>
      </trkpt>
      <trkpt lat="44.4008" lon="0.99465">
        <ele>210</ele>
        <time>2025-07-17T09:36:03.071Z</time>
      </trkpt>
      <trkpt lat="44.40079" lon="0.99463">
        <ele>210</ele>
        <time>2025-07-17T09:36:04.071Z</time>
      </trkpt>
      <trkpt lat="44.40079" lon="0.99461">
        <ele>210</ele>
        <time>2025-07-17T09:36:05.072Z</time>
      </trkpt>
      <trkpt lat="44.40078" lon="0.9946">
        <ele>210</ele>
        <time>2025-07-17T09:36:06.072Z</time>
      </trkpt>
      <trkpt lat="44.40077" lon="0.99459">
        <ele>210</ele>
        <time>2025-07-17T09:36:07.071Z</time>
      </trkpt>
      <trkpt lat="44.40077" lon="0.99457">
        <ele>211</ele>
        <time>2025-07-17T09:36:08.071Z</time>
      </trkpt>
      <trkpt lat="44.40078" lon="0.99456">
        <ele>211</ele>
        <time>2025-07-17T09:36:09.071Z</time>
      </trkpt>
      <trkpt lat="44.40079" lon="0.99454">
        <ele>210</ele>
        <time>2025-07-17T09:36:10.071Z</time>
      </trkpt>
      <trkpt lat="44.40079" lon="0.99452">
        <ele>210</ele>
        <time>2025-07-17T09:36:11.071Z</time>
      </trkpt>
      <trkpt lat="44.4008" lon="0.9945">
        <ele>210</ele>
        <time>2025-07-17T09:36:12.071Z</time>
      </trkpt>
      <trkpt lat="44.40081" lon="0.99449">
        <ele>210</ele>
        <time>2025-07-17T09:36:13.071Z</time>
      </trkpt>
      <trkpt lat="44.40081" lon="0.99447">
        <ele>209</ele>
        <time>2025-07-17T09:36:14.071Z</time>
      </trkpt>
      <trkpt lat="44.40081" lon="0.99446">
        <ele>209</ele>
        <time>2025-07-17T09:36:15.071Z</time>
      </trkpt>
      <trkpt lat="44.40081" lon="0.99445">
        <ele>209</ele>
        <time>2025-07-17T09:36:16.071Z</time>
      </trkpt>
      <trkpt lat="44.40082" lon="0.99443">
        <ele>208</ele>
        <time>2025-07-17T09:36:17.071Z</time>
      </trkpt>
      <trkpt lat="44.40082" lon="0.9944">
        <ele>208</ele>
        <time>2025-07-17T09:36:18.071Z</time>
      </trkpt>
      <trkpt lat="44.40082" lon="0.99438">
        <ele>208</ele>
        <time>2025-07-17T09:36:19.071Z</time>
      </trkpt>
      <trkpt lat="44.40083" lon="0.99437">
        <ele>208</ele>
        <time>2025-07-17T09:36:20.071Z</time>
      </trkpt>
      <trkpt lat="44.40083" lon="0.99436">
        <ele>208</ele>
        <time>2025-07-17T09:36:21.072Z</time>
      </trkpt>
      <trkpt lat="44.40083" lon="0.99435">
        <ele>208</ele>
        <time>2025-07-17T09:36:22.071Z</time>
      </trkpt>
      <trkpt lat="44.40083" lon="0.99433">
        <ele>208</ele>
        <time>2025-07-17T09:36:23.071Z</time>
      </trkpt>
      <trkpt lat="44.40083" lon="0.99432">
        <ele>208</ele>
        <time>2025-07-17T09:36:24.071Z</time>
      </trkpt>
      <trkpt lat="44.40083" lon="0.9943">
        <ele>208</ele>
        <time>2025-07-17T09:36:25.071Z</time>
      </trkpt>
      <trkpt lat="44.40083" lon="0.99429">
        <ele>208</ele>
        <time>2025-07-17T09:36:26.071Z</time>
      </trkpt>
      <trkpt lat="44.40083" lon="0.99428">
        <ele>208</ele>
        <time>2025-07-17T09:36:27.071Z</time>
      </trkpt>
      <trkpt lat="44.40083" lon="0.99427">
        <ele>208</ele>
        <time>2025-07-17T09:36:28.071Z</time>
      </trkpt>
      <trkpt lat="44.40083" lon="0.99425">
        <ele>208</ele>
        <time>2025-07-17T09:36:29.071Z</time>
      </trkpt>
      <trkpt lat="44.40083" lon="0.99424">
        <ele>208</ele>
        <time>2025-07-17T09:36:30.071Z</time>
      </trkpt>
      <trkpt lat="44.40083" lon="0.99422">
        <ele>208</ele>
        <time>2025-07-17T09:36:31.071Z</time>
      </trkpt>
      <trkpt lat="44.40083" lon="0.99421">
        <ele>208</ele>
        <time>2025-07-17T09:36:32.071Z</time>
      </trkpt>
      <trkpt lat="44.40083" lon="0.99419">
        <ele>208</ele>
        <time>2025-07-17T09:36:33.071Z</time>
      </trkpt>
      <trkpt lat="44.40084" lon="0.99418">
        <ele>208</ele>
        <time>2025-07-17T09:36:34.071Z</time>
      </trkpt>
      <trkpt lat="44.40084" lon="0.99417">
        <ele>208</ele>
        <time>2025-07-17T09:36:35.071Z</time>
      </trkpt>
      <trkpt lat="44.40085" lon="0.99415">
        <ele>208</ele>
        <time>2025-07-17T09:36:36.071Z</time>
      </trkpt>
      <trkpt lat="44.40085" lon="0.99413">
        <ele>208</ele>
        <time>2025-07-17T09:36:37.071Z</time>
      </trkpt>
      <trkpt lat="44.40085" lon="0.99412">
        <ele>208</ele>
        <time>2025-07-17T09:36:38.071Z</time>
      </trkpt>
      <trkpt lat="44.40085" lon="0.99411">
        <ele>208</ele>
        <time>2025-07-17T09:36:39.071Z</time>
      </trkpt>
      <trkpt lat="44.40085" lon="0.99409">
        <ele>207</ele>
        <time>2025-07-17T09:36:40.071Z</time>
      </trkpt>
      <trkpt lat="44.40085" lon="0.99408">
        <ele>207</ele>
        <time>2025-07-17T09:36:41.071Z</time>
      </trkpt>
      <trkpt lat="44.40085" lon="0.99406">
        <ele>206</ele>
        <time>2025-07-17T09:36:42.071Z</time>
      </trkpt>
      <trkpt lat="44.40084" lon="0.99404">
        <ele>206</ele>
        <time>2025-07-17T09:36:43.072Z</time>
      </trkpt>
      <trkpt lat="44.40084" lon="0.99403">
        <ele>206</ele>
        <time>2025-07-17T09:36:44.072Z</time>
      </trkpt>
      <trkpt lat="44.40085" lon="0.99401">
        <ele>206</ele>
        <time>2025-07-17T09:36:45.071Z</time>
      </trkpt>
      <trkpt lat="44.40084" lon="0.994">
        <ele>206</ele>
        <time>2025-07-17T09:36:46.071Z</time>
      </trkpt>
      <trkpt lat="44.40084" lon="0.99399">
        <ele>206</ele>
        <time>2025-07-17T09:36:47.071Z</time>
      </trkpt>
      <trkpt lat="44.40083" lon="0.99398">
        <ele>206</ele>
        <time>2025-07-17T09:36:48.071Z</time>
      </trkpt>
      <trkpt lat="44.40083" lon="0.99396">
        <ele>206</ele>
        <time>2025-07-17T09:36:49.071Z</time>
      </trkpt>
      <trkpt lat="44.40082" lon="0.99394">
        <ele>207</ele>
        <time>2025-07-17T09:36:50.072Z</time>
      </trkpt>
      <trkpt lat="44.4008" lon="0.99393">
        <ele>207</ele>
        <time>2025-07-17T09:36:51.071Z</time>
      </trkpt>
      <trkpt lat="44.40079" lon="0.99392">
        <ele>207</ele>
        <time>2025-07-17T09:36:52.071Z</time>
      </trkpt>
      <trkpt lat="44.40079" lon="0.99391">
        <ele>207</ele>
        <time>2025-07-17T09:36:53.071Z</time>
      </trkpt>
      <trkpt lat="44.40078" lon="0.9939">
        <ele>207</ele>
        <time>2025-07-17T09:36:54.071Z</time>
      </trkpt>
      <trkpt lat="44.40076" lon="0.9939">
        <ele>207</ele>
        <time>2025-07-17T09:36:55.071Z</time>
      </trkpt>
      <trkpt lat="44.40076" lon="0.9939">
        <ele>207</ele>
        <time>2025-07-17T09:36:56.071Z</time>
      </trkpt>
      <trkpt lat="44.40075" lon="0.99389">
        <ele>207</ele>
        <time>2025-07-17T09:36:57.071Z</time>
      </trkpt>
      <trkpt lat="44.40074" lon="0.99388">
        <ele>207</ele>
        <time>2025-07-17T09:36:58.071Z</time>
      </trkpt>
      <trkpt lat="44.40073" lon="0.99387">
        <ele>207</ele>
        <time>2025-07-17T09:36:59.071Z</time>
      </trkpt>
      <trkpt lat="44.40072" lon="0.99386">
        <ele>207</ele>
        <time>2025-07-17T09:37:00.071Z</time>
      </trkpt>
      <trkpt lat="44.40071" lon="0.99384">
        <ele>207</ele>
        <time>2025-07-17T09:37:01.071Z</time>
      </trkpt>
      <trkpt lat="44.40071" lon="0.99384">
        <ele>207</ele>
        <time>2025-07-17T09:37:02.071Z</time>
      </trkpt>
      <trkpt lat="44.40071" lon="0.99383">
        <ele>207</ele>
        <time>2025-07-17T09:37:03.071Z</time>
      </trkpt>
      <trkpt lat="44.40071" lon="0.99383">
        <ele>207</ele>
        <time>2025-07-17T09:37:04.071Z</time>
      </trkpt>
      <trkpt lat="44.40071" lon="0.99383">
        <ele>207</ele>
        <time>2025-07-17T09:37:05.071Z</time>
      </trkpt>
      <trkpt lat="44.40071" lon="0.99383">
        <ele>207</ele>
        <time>2025-07-17T09:37:06.071Z</time>
      </trkpt>
      <trkpt lat="44.40071" lon="0.99383">
        <ele>208</ele>
        <time>2025-07-17T09:37:07.071Z</time>
      </trkpt>
      <trkpt lat="44.40071" lon="0.99383">
        <ele>208</ele>
        <time>2025-07-17T09:37:08.071Z</time>
      </trkpt>
      <trkpt lat="44.40071" lon="0.99383">
        <ele>208</ele>
        <time>2025-07-17T09:37:09.071Z</time>
      </trkpt>
      <trkpt lat="44.4007" lon="0.99382">
        <ele>208</ele>
        <time>2025-07-17T09:37:10.071Z</time>
      </trkpt>
      <trkpt lat="44.40071" lon="0.99382">
        <ele>208</ele>
        <time>2025-07-17T09:37:11.071Z</time>
      </trkpt>
      <trkpt lat="44.40071" lon="0.99381">
        <ele>208</ele>
        <time>2025-07-17T09:37:12.071Z</time>
      </trkpt>
      <trkpt lat="44.40071" lon="0.99381">
        <ele>208</ele>
        <time>2025-07-17T09:37:13.071Z</time>
      </trkpt>
      <trkpt lat="44.40071" lon="0.99381">
        <ele>209</ele>
        <time>2025-07-17T09:37:14.071Z</time>
      </trkpt>
      <trkpt lat="44.40071" lon="0.99381">
        <ele>209</ele>
        <time>2025-07-17T09:37:15.071Z</time>
      </trkpt>
      <trkpt lat="44.4007" lon="0.9938">
        <ele>209</ele>
        <time>2025-07-17T09:37:16.071Z</time>
      </trkpt>
      <trkpt lat="44.4007" lon="0.9938">
        <ele>209</ele>
        <time>2025-07-17T09:37:17.071Z</time>
      </trkpt>
      <trkpt lat="44.40069" lon="0.9938">
        <ele>210</ele>
        <time>2025-07-17T09:37:18.071Z</time>
      </trkpt>
      <trkpt lat="44.40069" lon="0.99379">
        <ele>210</ele>
        <time>2025-07-17T09:37:19.071Z</time>
      </trkpt>
      <trkpt lat="44.40068" lon="0.99379">
        <ele>210</ele>
        <time>2025-07-17T09:37:20.071Z</time>
      </trkpt>
      <trkpt lat="44.40068" lon="0.99379">
        <ele>211</ele>
        <time>2025-07-17T09:37:21.071Z</time>
      </trkpt>
      <trkpt lat="44.40067" lon="0.99378">
        <ele>211</ele>
        <time>2025-07-17T09:37:22.071Z</time>
      </trkpt>
      <trkpt lat="44.40067" lon="0.99378">
        <ele>211</ele>
        <time>2025-07-17T09:37:23.071Z</time>
      </trkpt>
      <trkpt lat="44.40067" lon="0.99378">
        <ele>211</ele>
        <time>2025-07-17T09:37:24.071Z</time>
      </trkpt>
      <trkpt lat="44.40067" lon="0.99378">
        <ele>211</ele>
        <time>2025-07-17T09:37:25.071Z</time>
      </trkpt>
      <trkpt lat="44.40066" lon="0.99379">
        <ele>210</ele>
        <time>2025-07-17T09:37:26.071Z</time>
      </trkpt>
      <trkpt lat="44.40066" lon="0.99379">
        <ele>210</ele>
        <time>2025-07-17T09:37:27.071Z</time>
      </trkpt>
      <trkpt lat="44.40065" lon="0.99379">
        <ele>210</ele>
        <time>2025-07-17T09:37:28.071Z</time>
      </trkpt>
      <trkpt lat="44.40064" lon="0.99379">
        <ele>210</ele>
        <time>2025-07-17T09:37:29.071Z</time>
      </trkpt>
      <trkpt lat="44.40064" lon="0.99379">
        <ele>210</ele>
        <time>2025-07-17T09:37:30.071Z</time>
      </trkpt>
      <trkpt lat="44.40064" lon="0.99379">
        <ele>209</ele>
        <time>2025-07-17T09:37:31.071Z</time>
      </trkpt>
      <trkpt lat="44.40064" lon="0.99379">
        <ele>209</ele>
        <time>2025-07-17T09:37:32.071Z</time>
      </trkpt>
      <trkpt lat="44.40064" lon="0.99379">
        <ele>209</ele>
        <time>2025-07-17T09:37:33.071Z</time>
      </trkpt>
      <trkpt lat="44.40064" lon="0.99379">
        <ele>209</ele>
        <time>2025-07-17T09:37:34.071Z</time>
      </trkpt>
      <trkpt lat="44.40064" lon="0.9938">
        <ele>209</ele>
        <time>2025-07-17T09:37:35.071Z</time>
      </trkpt>
      <trkpt lat="44.40064" lon="0.9938">
        <ele>209</ele>
        <time>2025-07-17T09:37:36.071Z</time>
      </trkpt>
      <trkpt lat="44.40063" lon="0.9938">
        <ele>209</ele>
        <time>2025-07-17T09:37:37.071Z</time>
      </trkpt>
      <trkpt lat="44.40062" lon="0.99379">
        <ele>209</ele>
        <time>2025-07-17T09:37:38.071Z</time>
      </trkpt>
      <trkpt lat="44.40061" lon="0.9938">
        <ele>209</ele>
        <time>2025-07-17T09:37:39.071Z</time>
      </trkpt>
      <trkpt lat="44.4006" lon="0.9938">
        <ele>209</ele>
        <time>2025-07-17T09:37:40.071Z</time>
      </trkpt>
      <trkpt lat="44.40059" lon="0.99381">
        <ele>209</ele>
        <time>2025-07-17T09:37:41.071Z</time>
      </trkpt>
      <trkpt lat="44.40058" lon="0.99381">
        <ele>209</ele>
        <time>2025-07-17T09:37:42.071Z</time>
      </trkpt>
      <trkpt lat="44.40057" lon="0.99382">
        <ele>208</ele>
        <time>2025-07-17T09:37:43.071Z</time>
      </trkpt>
      <trkpt lat="44.40056" lon="0.99382">
        <ele>208</ele>
        <time>2025-07-17T09:37:44.071Z</time>
      </trkpt>
      <trkpt lat="44.40055" lon="0.99383">
        <ele>208</ele>
        <time>2025-07-17T09:37:45.071Z</time>
      </trkpt>
      <trkpt lat="44.40054" lon="0.99384">
        <ele>208</ele>
        <time>2025-07-17T09:37:46.071Z</time>
      </trkpt>
      <trkpt lat="44.40053" lon="0.99384">
        <ele>207</ele>
        <time>2025-07-17T09:37:47.071Z</time>
      </trkpt>
      <trkpt lat="44.40052" lon="0.99384">
        <ele>207</ele>
        <time>2025-07-17T09:37:48.071Z</time>
      </trkpt>
      <trkpt lat="44.40052" lon="0.99385">
        <ele>208</ele>
        <time>2025-07-17T09:37:49.071Z</time>
      </trkpt>
      <trkpt lat="44.40051" lon="0.99387">
        <ele>208</ele>
        <time>2025-07-17T09:37:50.071Z</time>
      </trkpt>
      <trkpt lat="44.4005" lon="0.99388">
        <ele>208</ele>
        <time>2025-07-17T09:37:51.071Z</time>
      </trkpt>
      <trkpt lat="44.40049" lon="0.99388">
        <ele>208</ele>
        <time>2025-07-17T09:37:52.071Z</time>
      </trkpt>
      <trkpt lat="44.40049" lon="0.99388">
        <ele>208</ele>
        <time>2025-07-17T09:37:53.071Z</time>
      </trkpt>
      <trkpt lat="44.40048" lon="0.99388">
        <ele>209</ele>
        <time>2025-07-17T09:37:54.071Z</time>
      </trkpt>
      <trkpt lat="44.40048" lon="0.99388">
        <ele>209</ele>
        <time>2025-07-17T09:37:55.071Z</time>
      </trkpt>
      <trkpt lat="44.40048" lon="0.99389">
        <ele>210</ele>
        <time>2025-07-17T09:37:56.071Z</time>
      </trkpt>
      <trkpt lat="44.40047" lon="0.99389">
        <ele>210</ele>
        <time>2025-07-17T09:37:57.071Z</time>
      </trkpt>
      <trkpt lat="44.40047" lon="0.99389">
        <ele>210</ele>
        <time>2025-07-17T09:37:58.071Z</time>
      </trkpt>
      <trkpt lat="44.40047" lon="0.99389">
        <ele>211</ele>
        <time>2025-07-17T09:37:59.071Z</time>
      </trkpt>
      <trkpt lat="44.40046" lon="0.99389">
        <ele>211</ele>
        <time>2025-07-17T09:38:00.071Z</time>
      </trkpt>
      <trkpt lat="44.40046" lon="0.99389">
        <ele>212</ele>
        <time>2025-07-17T09:38:01.071Z</time>
      </trkpt>
      <trkpt lat="44.40046" lon="0.99389">
        <ele>212</ele>
        <time>2025-07-17T09:38:02.071Z</time>
      </trkpt>
      <trkpt lat="44.40046" lon="0.99389">
        <ele>212</ele>
        <time>2025-07-17T09:38:03.071Z</time>
      </trkpt>
      <trkpt lat="44.40046" lon="0.99389">
        <ele>213</ele>
        <time>2025-07-17T09:38:04.071Z</time>
      </trkpt>
      <trkpt lat="44.40047" lon="0.99389">
        <ele>213</ele>
        <time>2025-07-17T09:38:05.071Z</time>
      </trkpt>
      <trkpt lat="44.40047" lon="0.99389">
        <ele>213</ele>
        <time>2025-07-17T09:38:06.071Z</time>
      </trkpt>
      <trkpt lat="44.40046" lon="0.99389">
        <ele>213</ele>
        <time>2025-07-17T09:38:07.071Z</time>
      </trkpt>
      <trkpt lat="44.40046" lon="0.9939">
        <ele>213</ele>
        <time>2025-07-17T09:38:08.071Z</time>
      </trkpt>
      <trkpt lat="44.40046" lon="0.99391">
        <ele>213</ele>
        <time>2025-07-17T09:38:09.071Z</time>
      </trkpt>
      <trkpt lat="44.40045" lon="0.99391">
        <ele>213</ele>
        <time>2025-07-17T09:38:10.071Z</time>
      </trkpt>
      <trkpt lat="44.40044" lon="0.99392">
        <ele>213</ele>
        <time>2025-07-17T09:38:11.071Z</time>
      </trkpt>
      <trkpt lat="44.40043" lon="0.99392">
        <ele>213</ele>
        <time>2025-07-17T09:38:12.071Z</time>
      </trkpt>
      <trkpt lat="44.40043" lon="0.99393">
        <ele>213</ele>
        <time>2025-07-17T09:38:13.071Z</time>
      </trkpt>
      <trkpt lat="44.40043" lon="0.99394">
        <ele>213</ele>
        <time>2025-07-17T09:38:14.071Z</time>
      </trkpt>
      <trkpt lat="44.40043" lon="0.99396">
        <ele>212</ele>
        <time>2025-07-17T09:38:15.071Z</time>
      </trkpt>
      <trkpt lat="44.40042" lon="0.99397">
        <ele>212</ele>
        <time>2025-07-17T09:38:16.071Z</time>
      </trkpt>
      <trkpt lat="44.40041" lon="0.99398">
        <ele>212</ele>
        <time>2025-07-17T09:38:17.071Z</time>
      </trkpt>
      <trkpt lat="44.40041" lon="0.99398">
        <ele>212</ele>
        <time>2025-07-17T09:38:18.071Z</time>
      </trkpt>
      <trkpt lat="44.4004" lon="0.99399">
        <ele>212</ele>
        <time>2025-07-17T09:38:19.072Z</time>
      </trkpt>
      <trkpt lat="44.4004" lon="0.994">
        <ele>212</ele>
        <time>2025-07-17T09:38:20.071Z</time>
      </trkpt>
      <trkpt lat="44.40039" lon="0.99401">
        <ele>211</ele>
        <time>2025-07-17T09:38:21.071Z</time>
      </trkpt>
      <trkpt lat="44.40038" lon="0.99402">
        <ele>211</ele>
        <time>2025-07-17T09:38:22.071Z</time>
      </trkpt>
      <trkpt lat="44.40038" lon="0.99402">
        <ele>211</ele>
        <time>2025-07-17T09:38:23.071Z</time>
      </trkpt>
      <trkpt lat="44.40037" lon="0.99403">
        <ele>211</ele>
        <time>2025-07-17T09:38:24.071Z</time>
      </trkpt>
      <trkpt lat="44.40036" lon="0.99404">
        <ele>211</ele>
        <time>2025-07-17T09:38:25.071Z</time>
      </trkpt>
      <trkpt lat="44.40036" lon="0.99405">
        <ele>211</ele>
        <time>2025-07-17T09:38:26.071Z</time>
      </trkpt>
      <trkpt lat="44.40036" lon="0.99406">
        <ele>211</ele>
        <time>2025-07-17T09:38:27.071Z</time>
      </trkpt>
      <trkpt lat="44.40035" lon="0.99407">
        <ele>211</ele>
        <time>2025-07-17T09:38:28.071Z</time>
      </trkpt>
      <trkpt lat="44.40035" lon="0.99406">
        <ele>211</ele>
        <time>2025-07-17T09:38:29.071Z</time>
      </trkpt>
      <trkpt lat="44.40034" lon="0.99406">
        <ele>212</ele>
        <time>2025-07-17T09:38:30.071Z</time>
      </trkpt>
      <trkpt lat="44.40034" lon="0.99407">
        <ele>212</ele>
        <time>2025-07-17T09:38:31.071Z</time>
      </trkpt>
      <trkpt lat="44.40034" lon="0.99408">
        <ele>212</ele>
        <time>2025-07-17T09:38:32.071Z</time>
      </trkpt>
      <trkpt lat="44.40035" lon="0.9941">
        <ele>212</ele>
        <time>2025-07-17T09:38:33.071Z</time>
      </trkpt>
      <trkpt lat="44.40035" lon="0.99411">
        <ele>212</ele>
        <time>2025-07-17T09:38:34.071Z</time>
      </trkpt>
      <trkpt lat="44.40036" lon="0.99411">
        <ele>212</ele>
        <time>2025-07-17T09:38:35.071Z</time>
      </trkpt>
      <trkpt lat="44.40036" lon="0.99412">
        <ele>212</ele>
        <time>2025-07-17T09:38:36.071Z</time>
      </trkpt>
      <trkpt lat="44.40036" lon="0.99414">
        <ele>212</ele>
        <time>2025-07-17T09:38:37.071Z</time>
      </trkpt>
      <trkpt lat="44.40036" lon="0.99415">
        <ele>212</ele>
        <time>2025-07-17T09:38:38.071Z</time>
      </trkpt>
      <trkpt lat="44.40036" lon="0.99416">
        <ele>212</ele>
        <time>2025-07-17T09:38:39.071Z</time>
      </trkpt>
      <trkpt lat="44.40037" lon="0.99417">
        <ele>212</ele>
        <time>2025-07-17T09:38:40.071Z</time>
      </trkpt>
      <trkpt lat="44.40039" lon="0.99416">
        <ele>212</ele>
        <time>2025-07-17T09:38:41.071Z</time>
      </trkpt>
      <trkpt lat="44.40039" lon="0.99417">
        <ele>212</ele>
        <time>2025-07-17T09:38:42.071Z</time>
      </trkpt>
      <trkpt lat="44.40039" lon="0.99419">
        <ele>211</ele>
        <time>2025-07-17T09:38:43.072Z</time>
      </trkpt>
      <trkpt lat="44.4004" lon="0.9942">
        <ele>211</ele>
        <time>2025-07-17T09:38:44.071Z</time>
      </trkpt>
      <trkpt lat="44.4004" lon="0.99421">
        <ele>211</ele>
        <time>2025-07-17T09:38:45.071Z</time>
      </trkpt>
      <trkpt lat="44.40041" lon="0.99423">
        <ele>211</ele>
        <time>2025-07-17T09:38:46.071Z</time>
      </trkpt>
      <trkpt lat="44.40041" lon="0.99424">
        <ele>211</ele>
        <time>2025-07-17T09:38:47.072Z</time>
      </trkpt>
      <trkpt lat="44.40041" lon="0.99425">
        <ele>211</ele>
        <time>2025-07-17T09:38:48.071Z</time>
      </trkpt>
      <trkpt lat="44.40042" lon="0.99425">
        <ele>211</ele>
        <time>2025-07-17T09:38:49.071Z</time>
      </trkpt>
      <trkpt lat="44.40042" lon="0.99426">
        <ele>211</ele>
        <time>2025-07-17T09:38:50.072Z</time>
      </trkpt>
      <trkpt lat="44.40042" lon="0.99427">
        <ele>212</ele>
        <time>2025-07-17T09:38:51.071Z</time>
      </trkpt>
      <trkpt lat="44.40042" lon="0.99428">
        <ele>212</ele>
        <time>2025-07-17T09:38:52.071Z</time>
      </trkpt>
      <trkpt lat="44.40042" lon="0.99428">
        <ele>212</ele>
        <time>2025-07-17T09:38:53.071Z</time>
      </trkpt>
      <trkpt lat="44.40042" lon="0.99428">
        <ele>212</ele>
        <time>2025-07-17T09:38:54.071Z</time>
      </trkpt>
      <trkpt lat="44.40042" lon="0.99428">
        <ele>213</ele>
        <time>2025-07-17T09:38:55.071Z</time>
      </trkpt>
      <trkpt lat="44.40042" lon="0.99427">
        <ele>213</ele>
        <time>2025-07-17T09:38:56.071Z</time>
      </trkpt>
      <trkpt lat="44.40042" lon="0.99427">
        <ele>214</ele>
        <time>2025-07-17T09:38:57.071Z</time>
      </trkpt>
      <trkpt lat="44.40043" lon="0.99427">
        <ele>215</ele>
        <time>2025-07-17T09:38:58.071Z</time>
      </trkpt>
      <trkpt lat="44.40042" lon="0.99428">
        <ele>216</ele>
        <time>2025-07-17T09:38:59.071Z</time>
      </trkpt>
      <trkpt lat="44.40042" lon="0.99428">
        <ele>216</ele>
        <time>2025-07-17T09:39:00.071Z</time>
      </trkpt>
      <trkpt lat="44.40042" lon="0.99428">
        <ele>217</ele>
        <time>2025-07-17T09:39:01.071Z</time>
      </trkpt>
      <trkpt lat="44.40042" lon="0.99428">
        <ele>217</ele>
        <time>2025-07-17T09:39:02.071Z</time>
      </trkpt>
      <trkpt lat="44.40042" lon="0.99429">
        <ele>217</ele>
        <time>2025-07-17T09:39:03.071Z</time>
      </trkpt>
      <trkpt lat="44.40042" lon="0.99429">
        <ele>218</ele>
        <time>2025-07-17T09:39:04.071Z</time>
      </trkpt>
      <trkpt lat="44.40041" lon="0.9943">
        <ele>218</ele>
        <time>2025-07-17T09:39:05.071Z</time>
      </trkpt>
      <trkpt lat="44.4004" lon="0.99432">
        <ele>218</ele>
        <time>2025-07-17T09:39:06.071Z</time>
      </trkpt>
      <trkpt lat="44.40039" lon="0.99435">
        <ele>218</ele>
        <time>2025-07-17T09:39:07.071Z</time>
      </trkpt>
      <trkpt lat="44.40039" lon="0.99437">
        <ele>218</ele>
        <time>2025-07-17T09:39:08.071Z</time>
      </trkpt>
      <trkpt lat="44.40039" lon="0.99439">
        <ele>217</ele>
        <time>2025-07-17T09:39:09.071Z</time>
      </trkpt>
      <trkpt lat="44.40039" lon="0.99441">
        <ele>217</ele>
        <time>2025-07-17T09:39:10.071Z</time>
      </trkpt>
      <trkpt lat="44.40039" lon="0.99443">
        <ele>217</ele>
        <time>2025-07-17T09:39:11.071Z</time>
      </trkpt>
      <trkpt lat="44.40038" lon="0.99445">
        <ele>216</ele>
        <time>2025-07-17T09:39:12.071Z</time>
      </trkpt>
      <trkpt lat="44.40039" lon="0.99447">
        <ele>216</ele>
        <time>2025-07-17T09:39:13.072Z</time>
      </trkpt>
      <trkpt lat="44.4004" lon="0.99448">
        <ele>216</ele>
        <time>2025-07-17T09:39:14.071Z</time>
      </trkpt>
      <trkpt lat="44.4004" lon="0.99449">
        <ele>216</ele>
        <time>2025-07-17T09:39:15.071Z</time>
      </trkpt>
      <trkpt lat="44.40041" lon="0.99451">
        <ele>216</ele>
        <time>2025-07-17T09:39:16.071Z</time>
      </trkpt>
      <trkpt lat="44.40042" lon="0.99452">
        <ele>216</ele>
        <time>2025-07-17T09:39:17.071Z</time>
      </trkpt>
      <trkpt lat="44.40042" lon="0.99454">
        <ele>216</ele>
        <time>2025-07-17T09:39:18.071Z</time>
      </trkpt>
      <trkpt lat="44.40042" lon="0.99456">
        <ele>216</ele>
        <time>2025-07-17T09:39:19.071Z</time>
      </trkpt>
      <trkpt lat="44.40042" lon="0.99458">
        <ele>215</ele>
        <time>2025-07-17T09:39:20.071Z</time>
      </trkpt>
      <trkpt lat="44.40042" lon="0.99459">
        <ele>215</ele>
        <time>2025-07-17T09:39:21.071Z</time>
      </trkpt>
      <trkpt lat="44.40042" lon="0.99461">
        <ele>215</ele>
        <time>2025-07-17T09:39:22.071Z</time>
      </trkpt>
      <trkpt lat="44.40041" lon="0.99463">
        <ele>214</ele>
        <time>2025-07-17T09:39:23.071Z</time>
      </trkpt>
      <trkpt lat="44.4004" lon="0.99465">
        <ele>214</ele>
        <time>2025-07-17T09:39:24.071Z</time>
      </trkpt>
      <trkpt lat="44.40039" lon="0.99467">
        <ele>214</ele>
        <time>2025-07-17T09:39:25.071Z</time>
      </trkpt>
      <trkpt lat="44.40039" lon="0.99468">
        <ele>214</ele>
        <time>2025-07-17T09:39:26.071Z</time>
      </trkpt>
      <trkpt lat="44.40038" lon="0.99469">
        <ele>213</ele>
        <time>2025-07-17T09:39:27.071Z</time>
      </trkpt>
      <trkpt lat="44.40038" lon="0.9947">
        <ele>213</ele>
        <time>2025-07-17T09:39:28.071Z</time>
      </trkpt>
      <trkpt lat="44.40037" lon="0.9947">
        <ele>213</ele>
        <time>2025-07-17T09:39:29.071Z</time>
      </trkpt>
      <trkpt lat="44.40037" lon="0.99471">
        <ele>213</ele>
        <time>2025-07-17T09:39:30.071Z</time>
      </trkpt>
      <trkpt lat="44.40036" lon="0.99472">
        <ele>213</ele>
        <time>2025-07-17T09:39:31.071Z</time>
      </trkpt>
      <trkpt lat="44.40035" lon="0.99473">
        <ele>214</ele>
        <time>2025-07-17T09:39:32.071Z</time>
      </trkpt>
      <trkpt lat="44.40034" lon="0.99474">
        <ele>214</ele>
        <time>2025-07-17T09:39:33.071Z</time>
      </trkpt>
      <trkpt lat="44.40033" lon="0.99475">
        <ele>214</ele>
        <time>2025-07-17T09:39:34.071Z</time>
      </trkpt>
      <trkpt lat="44.40032" lon="0.99477">
        <ele>214</ele>
        <time>2025-07-17T09:39:35.071Z</time>
      </trkpt>
      <trkpt lat="44.40031" lon="0.99479">
        <ele>214</ele>
        <time>2025-07-17T09:39:36.071Z</time>
      </trkpt>
      <trkpt lat="44.4003" lon="0.9948">
        <ele>214</ele>
        <time>2025-07-17T09:39:37.072Z</time>
      </trkpt>
      <trkpt lat="44.40029" lon="0.99481">
        <ele>213</ele>
        <time>2025-07-17T09:39:38.071Z</time>
      </trkpt>
      <trkpt lat="44.40028" lon="0.99483">
        <ele>213</ele>
        <time>2025-07-17T09:39:39.071Z</time>
      </trkpt>
      <trkpt lat="44.40027" lon="0.99484">
        <ele>214</ele>
        <time>2025-07-17T09:39:40.071Z</time>
      </trkpt>
      <trkpt lat="44.40027" lon="0.99486">
        <ele>214</ele>
        <time>2025-07-17T09:39:41.071Z</time>
      </trkpt>
      <trkpt lat="44.40026" lon="0.99487">
        <ele>214</ele>
        <time>2025-07-17T09:39:42.071Z</time>
      </trkpt>
      <trkpt lat="44.40025" lon="0.99488">
        <ele>214</ele>
        <time>2025-07-17T09:39:43.071Z</time>
      </trkpt>
      <trkpt lat="44.40024" lon="0.9949">
        <ele>214</ele>
        <time>2025-07-17T09:39:44.071Z</time>
      </trkpt>
      <trkpt lat="44.40024" lon="0.99491">
        <ele>214</ele>
        <time>2025-07-17T09:39:45.071Z</time>
      </trkpt>
      <trkpt lat="44.40023" lon="0.99491">
        <ele>214</ele>
        <time>2025-07-17T09:39:46.071Z</time>
      </trkpt>
      <trkpt lat="44.40022" lon="0.99493">
        <ele>214</ele>
        <time>2025-07-17T09:39:47.071Z</time>
      </trkpt>
      <trkpt lat="44.40021" lon="0.99494">
        <ele>214</ele>
        <time>2025-07-17T09:39:48.071Z</time>
      </trkpt>
      <trkpt lat="44.40021" lon="0.99496">
        <ele>214</ele>
        <time>2025-07-17T09:39:49.071Z</time>
      </trkpt>
      <trkpt lat="44.40021" lon="0.99497">
        <ele>214</ele>
        <time>2025-07-17T09:39:50.071Z</time>
      </trkpt>
      <trkpt lat="44.4002" lon="0.99498">
        <ele>214</ele>
        <time>2025-07-17T09:39:51.071Z</time>
      </trkpt>
      <trkpt lat="44.40019" lon="0.995">
        <ele>214</ele>
        <time>2025-07-17T09:39:52.071Z</time>
      </trkpt>
      <trkpt lat="44.40019" lon="0.99501">
        <ele>213</ele>
        <time>2025-07-17T09:39:53.071Z</time>
      </trkpt>
      <trkpt lat="44.40018" lon="0.99502">
        <ele>213</ele>
        <time>2025-07-17T09:39:54.071Z</time>
      </trkpt>
      <trkpt lat="44.40017" lon="0.99503">
        <ele>213</ele>
        <time>2025-07-17T09:39:55.071Z</time>
      </trkpt>
      <trkpt lat="44.40016" lon="0.99505">
        <ele>213</ele>
        <time>2025-07-17T09:39:56.071Z</time>
      </trkpt>
      <trkpt lat="44.40015" lon="0.99506">
        <ele>213</ele>
        <time>2025-07-17T09:39:57.071Z</time>
      </trkpt>
      <trkpt lat="44.40014" lon="0.99506">
        <ele>213</ele>
        <time>2025-07-17T09:39:58.071Z</time>
      </trkpt>
      <trkpt lat="44.40013" lon="0.99507">
        <ele>213</ele>
        <time>2025-07-17T09:39:59.071Z</time>
      </trkpt>
      <trkpt lat="44.40013" lon="0.99508">
        <ele>213</ele>
        <time>2025-07-17T09:40:00.071Z</time>
      </trkpt>
      <trkpt lat="44.40013" lon="0.9951">
        <ele>213</ele>
        <time>2025-07-17T09:40:01.071Z</time>
      </trkpt>
      <trkpt lat="44.40013" lon="0.99511">
        <ele>213</ele>
        <time>2025-07-17T09:40:02.071Z</time>
      </trkpt>
      <trkpt lat="44.40012" lon="0.99513">
        <ele>213</ele>
        <time>2025-07-17T09:40:03.071Z</time>
      </trkpt>
      <trkpt lat="44.40011" lon="0.99514">
        <ele>213</ele>
        <time>2025-07-17T09:40:04.071Z</time>
      </trkpt>
      <trkpt lat="44.4001" lon="0.99514">
        <ele>213</ele>
        <time>2025-07-17T09:40:05.071Z</time>
      </trkpt>
      <trkpt lat="44.40009" lon="0.99515">
        <ele>213</ele>
        <time>2025-07-17T09:40:06.071Z</time>
      </trkpt>
      <trkpt lat="44.40009" lon="0.99517">
        <ele>213</ele>
        <time>2025-07-17T09:40:07.071Z</time>
      </trkpt>
      <trkpt lat="44.40008" lon="0.99518">
        <ele>213</ele>
        <time>2025-07-17T09:40:08.071Z</time>
      </trkpt>
      <trkpt lat="44.40008" lon="0.9952">
        <ele>214</ele>
        <time>2025-07-17T09:40:09.071Z</time>
      </trkpt>
      <trkpt lat="44.40008" lon="0.99521">
        <ele>214</ele>
        <time>2025-07-17T09:40:10.071Z</time>
      </trkpt>
      <trkpt lat="44.40006" lon="0.9952">
        <ele>214</ele>
        <time>2025-07-17T09:40:11.071Z</time>
      </trkpt>
      <trkpt lat="44.40005" lon="0.9952">
        <ele>214</ele>
        <time>2025-07-17T09:40:12.071Z</time>
      </trkpt>
      <trkpt lat="44.40004" lon="0.99521">
        <ele>215</ele>
        <time>2025-07-17T09:40:13.071Z</time>
      </trkpt>
      <trkpt lat="44.40003" lon="0.99523">
        <ele>215</ele>
        <time>2025-07-17T09:40:14.071Z</time>
      </trkpt>
      <trkpt lat="44.40002" lon="0.99525">
        <ele>215</ele>
        <time>2025-07-17T09:40:15.071Z</time>
      </trkpt>
      <trkpt lat="44.40002" lon="0.99526">
        <ele>215</ele>
        <time>2025-07-17T09:40:16.071Z</time>
      </trkpt>
      <trkpt lat="44.40002" lon="0.99528">
        <ele>215</ele>
        <time>2025-07-17T09:40:17.071Z</time>
      </trkpt>
      <trkpt lat="44.40001" lon="0.99529">
        <ele>215</ele>
        <time>2025-07-17T09:40:18.071Z</time>
      </trkpt>
      <trkpt lat="44.40001" lon="0.9953">
        <ele>215</ele>
        <time>2025-07-17T09:40:19.071Z</time>
      </trkpt>
      <trkpt lat="44.40001" lon="0.99531">
        <ele>215</ele>
        <time>2025-07-17T09:40:20.071Z</time>
      </trkpt>
      <trkpt lat="44.40001" lon="0.99532">
        <ele>215</ele>
        <time>2025-07-17T09:40:21.072Z</time>
      </trkpt>
      <trkpt lat="44.4" lon="0.99533">
        <ele>215</ele>
        <time>2025-07-17T09:40:22.071Z</time>
      </trkpt>
      <trkpt lat="44.4" lon="0.99534">
        <ele>214</ele>
        <time>2025-07-17T09:40:23.071Z</time>
      </trkpt>
      <trkpt lat="44.4" lon="0.99536">
        <ele>214</ele>
        <time>2025-07-17T09:40:24.071Z</time>
      </trkpt>
      <trkpt lat="44.39999" lon="0.99538">
        <ele>214</ele>
        <time>2025-07-17T09:40:25.071Z</time>
      </trkpt>
      <trkpt lat="44.39998" lon="0.9954">
        <ele>213</ele>
        <time>2025-07-17T09:40:26.071Z</time>
      </trkpt>
      <trkpt lat="44.39998" lon="0.99542">
        <ele>213</ele>
        <time>2025-07-17T09:40:27.071Z</time>
      </trkpt>
      <trkpt lat="44.39998" lon="0.99544">
        <ele>213</ele>
        <time>2025-07-17T09:40:28.071Z</time>
      </trkpt>
      <trkpt lat="44.39998" lon="0.99546">
        <ele>213</ele>
        <time>2025-07-17T09:40:29.071Z</time>
      </trkpt>
      <trkpt lat="44.39998" lon="0.99548">
        <ele>213</ele>
        <time>2025-07-17T09:40:30.071Z</time>
      </trkpt>
      <trkpt lat="44.39998" lon="0.9955">
        <ele>213</ele>
        <time>2025-07-17T09:40:31.071Z</time>
      </trkpt>
      <trkpt lat="44.39998" lon="0.99552">
        <ele>213</ele>
        <time>2025-07-17T09:40:32.071Z</time>
      </trkpt>
      <trkpt lat="44.39998" lon="0.99554">
        <ele>213</ele>
        <time>2025-07-17T09:40:33.071Z</time>
      </trkpt>
      <trkpt lat="44.39999" lon="0.99555">
        <ele>213</ele>
        <time>2025-07-17T09:40:34.071Z</time>
      </trkpt>
      <trkpt lat="44.39999" lon="0.99556">
        <ele>214</ele>
        <time>2025-07-17T09:40:35.071Z</time>
      </trkpt>
      <trkpt lat="44.39998" lon="0.99556">
        <ele>214</ele>
        <time>2025-07-17T09:40:36.071Z</time>
      </trkpt>
      <trkpt lat="44.39998" lon="0.99557">
        <ele>214</ele>
        <time>2025-07-17T09:40:37.071Z</time>
      </trkpt>
      <trkpt lat="44.39998" lon="0.99557">
        <ele>214</ele>
        <time>2025-07-17T09:40:38.071Z</time>
      </trkpt>
      <trkpt lat="44.39998" lon="0.99557">
        <ele>215</ele>
        <time>2025-07-17T09:40:39.071Z</time>
      </trkpt>
      <trkpt lat="44.39998" lon="0.99557">
        <ele>215</ele>
        <time>2025-07-17T09:40:40.071Z</time>
      </trkpt>
      <trkpt lat="44.39998" lon="0.99558">
        <ele>215</ele>
        <time>2025-07-17T09:40:41.072Z</time>
      </trkpt>
      <trkpt lat="44.39998" lon="0.99558">
        <ele>216</ele>
        <time>2025-07-17T09:40:42.071Z</time>
      </trkpt>
      <trkpt lat="44.39997" lon="0.99557">
        <ele>216</ele>
        <time>2025-07-17T09:40:43.071Z</time>
      </trkpt>
      <trkpt lat="44.39997" lon="0.99557">
        <ele>216</ele>
        <time>2025-07-17T09:40:44.071Z</time>
      </trkpt>
      <trkpt lat="44.39996" lon="0.99557">
        <ele>215</ele>
        <time>2025-07-17T09:40:45.072Z</time>
      </trkpt>
      <trkpt lat="44.39996" lon="0.99559">
        <ele>215</ele>
        <time>2025-07-17T09:40:46.071Z</time>
      </trkpt>
      <trkpt lat="44.39996" lon="0.99559">
        <ele>214</ele>
        <time>2025-07-17T09:40:47.071Z</time>
      </trkpt>
      <trkpt lat="44.39996" lon="0.9956">
        <ele>214</ele>
        <time>2025-07-17T09:40:48.071Z</time>
      </trkpt>
      <trkpt lat="44.39996" lon="0.99562">
        <ele>214</ele>
        <time>2025-07-17T09:40:49.071Z</time>
      </trkpt>
      <trkpt lat="44.39996" lon="0.99563">
        <ele>214</ele>
        <time>2025-07-17T09:40:50.071Z</time>
      </trkpt>
      <trkpt lat="44.39996" lon="0.99564">
        <ele>214</ele>
        <time>2025-07-17T09:40:51.071Z</time>
      </trkpt>
      <trkpt lat="44.39997" lon="0.99565">
        <ele>214</ele>
        <time>2025-07-17T09:40:52.071Z</time>
      </trkpt>
      <trkpt lat="44.39996" lon="0.99566">
        <ele>213</ele>
        <time>2025-07-17T09:40:53.071Z</time>
      </trkpt>
      <trkpt lat="44.39996" lon="0.99566">
        <ele>213</ele>
        <time>2025-07-17T09:40:54.071Z</time>
      </trkpt>
      <trkpt lat="44.39996" lon="0.99568">
        <ele>213</ele>
        <time>2025-07-17T09:40:55.071Z</time>
      </trkpt>
      <trkpt lat="44.39996" lon="0.99568">
        <ele>213</ele>
        <time>2025-07-17T09:40:56.071Z</time>
      </trkpt>
      <trkpt lat="44.39997" lon="0.99568">
        <ele>213</ele>
        <time>2025-07-17T09:40:57.071Z</time>
      </trkpt>
      <trkpt lat="44.39997" lon="0.99568">
        <ele>213</ele>
        <time>2025-07-17T09:40:58.071Z</time>
      </trkpt>
      <trkpt lat="44.39997" lon="0.99568">
        <ele>213</ele>
        <time>2025-07-17T09:40:59.071Z</time>
      </trkpt>
      <trkpt lat="44.39997" lon="0.99568">
        <ele>214</ele>
        <time>2025-07-17T09:41:00.071Z</time>
      </trkpt>
      <trkpt lat="44.39997" lon="0.99568">
        <ele>214</ele>
        <time>2025-07-17T09:41:01.071Z</time>
      </trkpt>
      <trkpt lat="44.39997" lon="0.99568">
        <ele>214</ele>
        <time>2025-07-17T09:41:02.071Z</time>
      </trkpt>
      <trkpt lat="44.39997" lon="0.99568">
        <ele>214</ele>
        <time>2025-07-17T09:41:03.071Z</time>
      </trkpt>
      <trkpt lat="44.39997" lon="0.99568">
        <ele>214</ele>
        <time>2025-07-17T09:41:04.071Z</time>
      </trkpt>
      <trkpt lat="44.39997" lon="0.99568">
        <ele>214</ele>
        <time>2025-07-17T09:41:05.071Z</time>
      </trkpt>
      <trkpt lat="44.39997" lon="0.99568">
        <ele>214</ele>
        <time>2025-07-17T09:41:06.071Z</time>
      </trkpt>
      <trkpt lat="44.39997" lon="0.99568">
        <ele>214</ele>
        <time>2025-07-17T09:41:07.071Z</time>
      </trkpt>
      <trkpt lat="44.39996" lon="0.99568">
        <ele>214</ele>
        <time>2025-07-17T09:41:08.071Z</time>
      </trkpt>
      <trkpt lat="44.39996" lon="0.99567">
        <ele>214</ele>
        <time>2025-07-17T09:41:09.071Z</time>
      </trkpt>
      <trkpt lat="44.39996" lon="0.99567">
        <ele>214</ele>
        <time>2025-07-17T09:41:10.071Z</time>
      </trkpt>
      <trkpt lat="44.39996" lon="0.99567">
        <ele>214</ele>
        <time>2025-07-17T09:41:11.071Z</time>
      </trkpt>
      <trkpt lat="44.39995" lon="0.99566">
        <ele>214</ele>
        <time>2025-07-17T09:41:12.071Z</time>
      </trkpt>
      <trkpt lat="44.39996" lon="0.99566">
        <ele>214</ele>
        <time>2025-07-17T09:41:13.071Z</time>
      </trkpt>
      <trkpt lat="44.39996" lon="0.99566">
        <ele>214</ele>
        <time>2025-07-17T09:41:14.071Z</time>
      </trkpt>
      <trkpt lat="44.39996" lon="0.99567">
        <ele>215</ele>
        <time>2025-07-17T09:41:15.071Z</time>
      </trkpt>
      <trkpt lat="44.39997" lon="0.99567">
        <ele>215</ele>
        <time>2025-07-17T09:41:16.071Z</time>
      </trkpt>
      <trkpt lat="44.39997" lon="0.99567">
        <ele>215</ele>
        <time>2025-07-17T09:41:17.071Z</time>
      </trkpt>
      <trkpt lat="44.39997" lon="0.99567">
        <ele>215</ele>
        <time>2025-07-17T09:41:18.071Z</time>
      </trkpt>
      <trkpt lat="44.39997" lon="0.99567">
        <ele>215</ele>
        <time>2025-07-17T09:41:19.071Z</time>
      </trkpt>
      <trkpt lat="44.39997" lon="0.99567">
        <ele>215</ele>
        <time>2025-07-17T09:41:20.071Z</time>
      </trkpt>
      <trkpt lat="44.39997" lon="0.99567">
        <ele>215</ele>
        <time>2025-07-17T09:41:21.071Z</time>
      </trkpt>
      <trkpt lat="44.39997" lon="0.99567">
        <ele>215</ele>
        <time>2025-07-17T09:41:22.071Z</time>
      </trkpt>
      <trkpt lat="44.39997" lon="0.99566">
        <ele>215</ele>
        <time>2025-07-17T09:41:23.071Z</time>
      </trkpt>
      <trkpt lat="44.39997" lon="0.99566">
        <ele>216</ele>
        <time>2025-07-17T09:41:24.071Z</time>
      </trkpt>
      <trkpt lat="44.39997" lon="0.99566">
        <ele>216</ele>
        <time>2025-07-17T09:41:25.071Z</time>
      </trkpt>
      <trkpt lat="44.39996" lon="0.99566">
        <ele>217</ele>
        <time>2025-07-17T09:41:26.072Z</time>
      </trkpt>
      <trkpt lat="44.39996" lon="0.99565">
        <ele>217</ele>
        <time>2025-07-17T09:41:27.072Z</time>
      </trkpt>
      <trkpt lat="44.39996" lon="0.99565">
        <ele>217</ele>
        <time>2025-07-17T09:41:28.071Z</time>
      </trkpt>
      <trkpt lat="44.39996" lon="0.99565">
        <ele>217</ele>
        <time>2025-07-17T09:41:29.071Z</time>
      </trkpt>
      <trkpt lat="44.39996" lon="0.99565">
        <ele>217</ele>
        <time>2025-07-17T09:41:30.071Z</time>
      </trkpt>
      <trkpt lat="44.39996" lon="0.99565">
        <ele>217</ele>
        <time>2025-07-17T09:41:31.071Z</time>
      </trkpt>
      <trkpt lat="44.39996" lon="0.99565">
        <ele>217</ele>
        <time>2025-07-17T09:41:32.071Z</time>
      </trkpt>
      <trkpt lat="44.39996" lon="0.99565">
        <ele>216</ele>
        <time>2025-07-17T09:41:33.071Z</time>
      </trkpt>
      <trkpt lat="44.39996" lon="0.99565">
        <ele>216</ele>
        <time>2025-07-17T09:41:34.071Z</time>
      </trkpt>
      <trkpt lat="44.39996" lon="0.99565">
        <ele>216</ele>
        <time>2025-07-17T09:41:35.071Z</time>
      </trkpt>
      <trkpt lat="44.39996" lon="0.99564">
        <ele>216</ele>
        <time>2025-07-17T09:41:36.071Z</time>
      </trkpt>
      <trkpt lat="44.39996" lon="0.99564">
        <ele>216</ele>
        <time>2025-07-17T09:41:37.071Z</time>
      </trkpt>
      <trkpt lat="44.39996" lon="0.99564">
        <ele>217</ele>
        <time>2025-07-17T09:41:38.071Z</time>
      </trkpt>
      <trkpt lat="44.39996" lon="0.99564">
        <ele>217</ele>
        <time>2025-07-17T09:41:39.071Z</time>
      </trkpt>
      <trkpt lat="44.39996" lon="0.99565">
        <ele>217</ele>
        <time>2025-07-17T09:41:40.071Z</time>
      </trkpt>
      <trkpt lat="44.39996" lon="0.99565">
        <ele>217</ele>
        <time>2025-07-17T09:41:41.071Z</time>
      </trkpt>
      <trkpt lat="44.39996" lon="0.99565">
        <ele>217</ele>
        <time>2025-07-17T09:41:42.071Z</time>
      </trkpt>
      <trkpt lat="44.39995" lon="0.99565">
        <ele>217</ele>
        <time>2025-07-17T09:41:43.071Z</time>
      </trkpt>
      <trkpt lat="44.39995" lon="0.99565">
        <ele>218</ele>
        <time>2025-07-17T09:41:44.071Z</time>
      </trkpt>
      <trkpt lat="44.39995" lon="0.99565">
        <ele>218</ele>
        <time>2025-07-17T09:41:45.071Z</time>
      </trkpt>
      <trkpt lat="44.39995" lon="0.99565">
        <ele>218</ele>
        <time>2025-07-17T09:41:46.071Z</time>
      </trkpt>
      <trkpt lat="44.39995" lon="0.99565">
        <ele>219</ele>
        <time>2025-07-17T09:41:47.071Z</time>
      </trkpt>
      <trkpt lat="44.39995" lon="0.99565">
        <ele>219</ele>
        <time>2025-07-17T09:41:48.071Z</time>
      </trkpt>
      <trkpt lat="44.39995" lon="0.99565">
        <ele>219</ele>
        <time>2025-07-17T09:41:49.071Z</time>
      </trkpt>
      <trkpt lat="44.39995" lon="0.99565">
        <ele>218</ele>
        <time>2025-07-17T09:41:50.071Z</time>
      </trkpt>
      <trkpt lat="44.39995" lon="0.99565">
        <ele>218</ele>
        <time>2025-07-17T09:41:51.071Z</time>
      </trkpt>
      <trkpt lat="44.39995" lon="0.99565">
        <ele>218</ele>
        <time>2025-07-17T09:41:52.071Z</time>
      </trkpt>
      <trkpt lat="44.39995" lon="0.99565">
        <ele>218</ele>
        <time>2025-07-17T09:41:53.071Z</time>
      </trkpt>
      <trkpt lat="44.39995" lon="0.99565">
        <ele>218</ele>
        <time>2025-07-17T09:41:54.071Z</time>
      </trkpt>
      <trkpt lat="44.39995" lon="0.99565">
        <ele>217</ele>
        <time>2025-07-17T09:41:55.071Z</time>
      </trkpt>
      <trkpt lat="44.39995" lon="0.99565">
        <ele>217</ele>
        <time>2025-07-17T09:41:56.071Z</time>
      </trkpt>
      <trkpt lat="44.39995" lon="0.99565">
        <ele>217</ele>
        <time>2025-07-17T09:41:57.072Z</time>
      </trkpt>
      <trkpt lat="44.39995" lon="0.99565">
        <ele>217</ele>
        <time>2025-07-17T09:41:58.071Z</time>
      </trkpt>
      <trkpt lat="44.39995" lon="0.99566">
        <ele>217</ele>
        <time>2025-07-17T09:41:59.071Z</time>
      </trkpt>
      <trkpt lat="44.39995" lon="0.99566">
        <ele>217</ele>
        <time>2025-07-17T09:42:00.072Z</time>
      </trkpt>
      <trkpt lat="44.39995" lon="0.99566">
        <ele>217</ele>
        <time>2025-07-17T09:42:01.071Z</time>
      </trkpt>
      <trkpt lat="44.39995" lon="0.99566">
        <ele>217</ele>
        <time>2025-07-17T09:42:02.071Z</time>
      </trkpt>
      <trkpt lat="44.39995" lon="0.99566">
        <ele>217</ele>
        <time>2025-07-17T09:42:03.072Z</time>
      </trkpt>
      <trkpt lat="44.39995" lon="0.99565">
        <ele>217</ele>
        <time>2025-07-17T09:42:04.071Z</time>
      </trkpt>
      <trkpt lat="44.39995" lon="0.99565">
        <ele>216</ele>
        <time>2025-07-17T09:42:05.071Z</time>
      </trkpt>
      <trkpt lat="44.39995" lon="0.99565">
        <ele>215</ele>
        <time>2025-07-17T09:42:06.071Z</time>
      </trkpt>
      <trkpt lat="44.39995" lon="0.99565">
        <ele>215</ele>
        <time>2025-07-17T09:42:07.071Z</time>
      </trkpt>
      <trkpt lat="44.39995" lon="0.99564">
        <ele>214</ele>
        <time>2025-07-17T09:42:08.071Z</time>
      </trkpt>
      <trkpt lat="44.39995" lon="0.99564">
        <ele>213</ele>
        <time>2025-07-17T09:42:09.071Z</time>
      </trkpt>
      <trkpt lat="44.39995" lon="0.99564">
        <ele>213</ele>
        <time>2025-07-17T09:42:10.071Z</time>
      </trkpt>
      <trkpt lat="44.39995" lon="0.99564">
        <ele>213</ele>
        <time>2025-07-17T09:42:11.071Z</time>
      </trkpt>
      <trkpt lat="44.39995" lon="0.99564">
        <ele>213</ele>
        <time>2025-07-17T09:42:12.071Z</time>
      </trkpt>
      <trkpt lat="44.39995" lon="0.99563">
        <ele>213</ele>
        <time>2025-07-17T09:42:13.071Z</time>
      </trkpt>
      <trkpt lat="44.39994" lon="0.99563">
        <ele>213</ele>
        <time>2025-07-17T09:42:14.071Z</time>
      </trkpt>
      <trkpt lat="44.39994" lon="0.99563">
        <ele>213</ele>
        <time>2025-07-17T09:42:15.071Z</time>
      </trkpt>
      <trkpt lat="44.39994" lon="0.99563">
        <ele>213</ele>
        <time>2025-07-17T09:42:16.072Z</time>
      </trkpt>
      <trkpt lat="44.39994" lon="0.99563">
        <ele>213</ele>
        <time>2025-07-17T09:42:17.071Z</time>
      </trkpt>
      <trkpt lat="44.39993" lon="0.99563">
        <ele>213</ele>
        <time>2025-07-17T09:42:18.072Z</time>
      </trkpt>
      <trkpt lat="44.39993" lon="0.99563">
        <ele>213</ele>
        <time>2025-07-17T09:42:19.071Z</time>
      </trkpt>
      <trkpt lat="44.39993" lon="0.99563">
        <ele>213</ele>
        <time>2025-07-17T09:42:20.071Z</time>
      </trkpt>
      <trkpt lat="44.39993" lon="0.99563">
        <ele>213</ele>
        <time>2025-07-17T09:42:21.071Z</time>
      </trkpt>
      <trkpt lat="44.39993" lon="0.99563">
        <ele>213</ele>
        <time>2025-07-17T09:42:22.071Z</time>
      </trkpt>
      <trkpt lat="44.39993" lon="0.99563">
        <ele>213</ele>
        <time>2025-07-17T09:42:23.071Z</time>
      </trkpt>
      <trkpt lat="44.39993" lon="0.99563">
        <ele>213</ele>
        <time>2025-07-17T09:42:24.071Z</time>
      </trkpt>
      <trkpt lat="44.39993" lon="0.99563">
        <ele>213</ele>
        <time>2025-07-17T09:42:25.072Z</time>
      </trkpt>
      <trkpt lat="44.39993" lon="0.99563">
        <ele>213</ele>
        <time>2025-07-17T09:42:26.071Z</time>
      </trkpt>
      <trkpt lat="44.39993" lon="0.99563">
        <ele>214</ele>
        <time>2025-07-17T09:42:27.071Z</time>
      </trkpt>
      <trkpt lat="44.39993" lon="0.99563">
        <ele>214</ele>
        <time>2025-07-17T09:42:28.071Z</time>
      </trkpt>
      <trkpt lat="44.39993" lon="0.99563">
        <ele>214</ele>
        <time>2025-07-17T09:42:29.071Z</time>
      </trkpt>
      <trkpt lat="44.39993" lon="0.99563">
        <ele>215</ele>
        <time>2025-07-17T09:42:30.071Z</time>
      </trkpt>
      <trkpt lat="44.39993" lon="0.99563">
        <ele>215</ele>
        <time>2025-07-17T09:42:31.072Z</time>
      </trkpt>
      <trkpt lat="44.39993" lon="0.99563">
        <ele>215</ele>
        <time>2025-07-17T09:42:32.071Z</time>
      </trkpt>
      <trkpt lat="44.39993" lon="0.99563">
        <ele>215</ele>
        <time>2025-07-17T09:42:33.071Z</time>
      </trkpt>
      <trkpt lat="44.39993" lon="0.99563">
        <ele>215</ele>
        <time>2025-07-17T09:42:34.071Z</time>
      </trkpt>
      <trkpt lat="44.39993" lon="0.99563">
        <ele>215</ele>
        <time>2025-07-17T09:42:35.071Z</time>
      </trkpt>
      <trkpt lat="44.39993" lon="0.99563">
        <ele>214</ele>
        <time>2025-07-17T09:42:36.071Z</time>
      </trkpt>
      <trkpt lat="44.39993" lon="0.99564">
        <ele>214</ele>
        <time>2025-07-17T09:42:37.071Z</time>
      </trkpt>
      <trkpt lat="44.39993" lon="0.99564">
        <ele>214</ele>
        <time>2025-07-17T09:42:38.071Z</time>
      </trkpt>
      <trkpt lat="44.39993" lon="0.99564">
        <ele>214</ele>
        <time>2025-07-17T09:42:39.071Z</time>
      </trkpt>
      <trkpt lat="44.39993" lon="0.99564">
        <ele>214</ele>
        <time>2025-07-17T09:42:40.071Z</time>
      </trkpt>
      <trkpt lat="44.39994" lon="0.99564">
        <ele>214</ele>
        <time>2025-07-17T09:42:41.071Z</time>
      </trkpt>
      <trkpt lat="44.39994" lon="0.99564">
        <ele>214</ele>
        <time>2025-07-17T09:42:42.071Z</time>
      </trkpt>
      <trkpt lat="44.39994" lon="0.99564">
        <ele>214</ele>
        <time>2025-07-17T09:42:43.071Z</time>
      </trkpt>
      <trkpt lat="44.39994" lon="0.99564">
        <ele>214</ele>
        <time>2025-07-17T09:42:44.071Z</time>
      </trkpt>
      <trkpt lat="44.39994" lon="0.99564">
        <ele>214</ele>
        <time>2025-07-17T09:42:45.072Z</time>
      </trkpt>
      <trkpt lat="44.39994" lon="0.99564">
        <ele>213</ele>
        <time>2025-07-17T09:42:46.071Z</time>
      </trkpt>
      <trkpt lat="44.39994" lon="0.99564">
        <ele>213</ele>
        <time>2025-07-17T09:42:47.071Z</time>
      </trkpt>
      <trkpt lat="44.39994" lon="0.99564">
        <ele>213</ele>
        <time>2025-07-17T09:42:48.071Z</time>
      </trkpt>
      <trkpt lat="44.39994" lon="0.99564">
        <ele>212</ele>
        <time>2025-07-17T09:42:49.071Z</time>
      </trkpt>
      <trkpt lat="44.39994" lon="0.99564">
        <ele>212</ele>
        <time>2025-07-17T09:42:50.071Z</time>
      </trkpt>
      <trkpt lat="44.39994" lon="0.99564">
        <ele>211</ele>
        <time>2025-07-17T09:42:51.071Z</time>
      </trkpt>
      <trkpt lat="44.39994" lon="0.99565">
        <ele>211</ele>
        <time>2025-07-17T09:42:52.071Z</time>
      </trkpt>
      <trkpt lat="44.39993" lon="0.99566">
        <ele>211</ele>
        <time>2025-07-17T09:42:53.071Z</time>
      </trkpt>
      <trkpt lat="44.39993" lon="0.99567">
        <ele>211</ele>
        <time>2025-07-17T09:42:54.071Z</time>
      </trkpt>
      <trkpt lat="44.39992" lon="0.99567">
        <ele>211</ele>
        <time>2025-07-17T09:42:55.071Z</time>
      </trkpt>
      <trkpt lat="44.39991" lon="0.99568">
        <ele>211</ele>
        <time>2025-07-17T09:42:56.071Z</time>
      </trkpt>
      <trkpt lat="44.39991" lon="0.99568">
        <ele>211</ele>
        <time>2025-07-17T09:42:57.072Z</time>
      </trkpt>
      <trkpt lat="44.39992" lon="0.99569">
        <ele>211</ele>
        <time>2025-07-17T09:42:58.071Z</time>
      </trkpt>
      <trkpt lat="44.39992" lon="0.99569">
        <ele>212</ele>
        <time>2025-07-17T09:42:59.071Z</time>
      </trkpt>
      <trkpt lat="44.39992" lon="0.99568">
        <ele>212</ele>
        <time>2025-07-17T09:43:00.071Z</time>
      </trkpt>
      <trkpt lat="44.39992" lon="0.99568">
        <ele>212</ele>
        <time>2025-07-17T09:43:01.071Z</time>
      </trkpt>
      <trkpt lat="44.39991" lon="0.99568">
        <ele>212</ele>
        <time>2025-07-17T09:43:02.071Z</time>
      </trkpt>
      <trkpt lat="44.39991" lon="0.99567">
        <ele>212</ele>
        <time>2025-07-17T09:43:03.071Z</time>
      </trkpt>
      <trkpt lat="44.39991" lon="0.99566">
        <ele>212</ele>
        <time>2025-07-17T09:43:04.071Z</time>
      </trkpt>
      <trkpt lat="44.3999" lon="0.99566">
        <ele>211</ele>
        <time>2025-07-17T09:43:05.071Z</time>
      </trkpt>
      <trkpt lat="44.3999" lon="0.99566">
        <ele>211</ele>
        <time>2025-07-17T09:43:06.072Z</time>
      </trkpt>
      <trkpt lat="44.3999" lon="0.99566">
        <ele>211</ele>
        <time>2025-07-17T09:43:07.071Z</time>
      </trkpt>
      <trkpt lat="44.3999" lon="0.99566">
        <ele>211</ele>
        <time>2025-07-17T09:43:08.071Z</time>
      </trkpt>
      <trkpt lat="44.3999" lon="0.99566">
        <ele>211</ele>
        <time>2025-07-17T09:43:09.071Z</time>
      </trkpt>
      <trkpt lat="44.3999" lon="0.99566">
        <ele>211</ele>
        <time>2025-07-17T09:43:10.071Z</time>
      </trkpt>
      <trkpt lat="44.3999" lon="0.99566">
        <ele>211</ele>
        <time>2025-07-17T09:43:11.071Z</time>
      </trkpt>
      <trkpt lat="44.39991" lon="0.99567">
        <ele>211</ele>
        <time>2025-07-17T09:43:12.071Z</time>
      </trkpt>
      <trkpt lat="44.39991" lon="0.99566">
        <ele>211</ele>
        <time>2025-07-17T09:43:13.071Z</time>
      </trkpt>
      <trkpt lat="44.39991" lon="0.99566">
        <ele>211</ele>
        <time>2025-07-17T09:43:14.071Z</time>
      </trkpt>
      <trkpt lat="44.39991" lon="0.99566">
        <ele>211</ele>
        <time>2025-07-17T09:43:15.071Z</time>
      </trkpt>
      <trkpt lat="44.39991" lon="0.99567">
        <ele>211</ele>
        <time>2025-07-17T09:43:16.071Z</time>
      </trkpt>
      <trkpt lat="44.39991" lon="0.99567">
        <ele>210</ele>
        <time>2025-07-17T09:43:17.071Z</time>
      </trkpt>
      <trkpt lat="44.39991" lon="0.99566">
        <ele>210</ele>
        <time>2025-07-17T09:43:18.071Z</time>
      </trkpt>
      <trkpt lat="44.39991" lon="0.99566">
        <ele>210</ele>
        <time>2025-07-17T09:43:19.071Z</time>
      </trkpt>
      <trkpt lat="44.39991" lon="0.99566">
        <ele>210</ele>
        <time>2025-07-17T09:43:20.071Z</time>
      </trkpt>
      <trkpt lat="44.39991" lon="0.99566">
        <ele>210</ele>
        <time>2025-07-17T09:43:21.071Z</time>
      </trkpt>
      <trkpt lat="44.39991" lon="0.99566">
        <ele>211</ele>
        <time>2025-07-17T09:43:22.071Z</time>
      </trkpt>
      <trkpt lat="44.39991" lon="0.99566">
        <ele>211</ele>
        <time>2025-07-17T09:43:23.071Z</time>
      </trkpt>
      <trkpt lat="44.39991" lon="0.99567">
        <ele>211</ele>
        <time>2025-07-17T09:43:24.071Z</time>
      </trkpt>
      <trkpt lat="44.39991" lon="0.99568">
        <ele>211</ele>
        <time>2025-07-17T09:43:25.071Z</time>
      </trkpt>
      <trkpt lat="44.39991" lon="0.99568">
        <ele>211</ele>
        <time>2025-07-17T09:43:26.071Z</time>
      </trkpt>
      <trkpt lat="44.39991" lon="0.99568">
        <ele>212</ele>
        <time>2025-07-17T09:43:27.071Z</time>
      </trkpt>
      <trkpt lat="44.39991" lon="0.99568">
        <ele>212</ele>
        <time>2025-07-17T09:43:28.071Z</time>
      </trkpt>
      <trkpt lat="44.39991" lon="0.99568">
        <ele>213</ele>
        <time>2025-07-17T09:43:29.071Z</time>
      </trkpt>
      <trkpt lat="44.39991" lon="0.99568">
        <ele>213</ele>
        <time>2025-07-17T09:43:30.071Z</time>
      </trkpt>
      <trkpt lat="44.39991" lon="0.99567">
        <ele>214</ele>
        <time>2025-07-17T09:43:31.071Z</time>
      </trkpt>
      <trkpt lat="44.39991" lon="0.99567">
        <ele>215</ele>
        <time>2025-07-17T09:43:32.071Z</time>
      </trkpt>
      <trkpt lat="44.39991" lon="0.99567">
        <ele>216</ele>
        <time>2025-07-17T09:43:33.071Z</time>
      </trkpt>
      <trkpt lat="44.39991" lon="0.99567">
        <ele>217</ele>
        <time>2025-07-17T09:43:34.071Z</time>
      </trkpt>
      <trkpt lat="44.39991" lon="0.99567">
        <ele>217</ele>
        <time>2025-07-17T09:43:35.071Z</time>
      </trkpt>
      <trkpt lat="44.39991" lon="0.99567">
        <ele>218</ele>
        <time>2025-07-17T09:43:36.071Z</time>
      </trkpt>
      <trkpt lat="44.39991" lon="0.99567">
        <ele>218</ele>
        <time>2025-07-17T09:43:37.071Z</time>
      </trkpt>
      <trkpt lat="44.39991" lon="0.99567">
        <ele>218</ele>
        <time>2025-07-17T09:43:38.071Z</time>
      </trkpt>
      <trkpt lat="44.39991" lon="0.99567">
        <ele>218</ele>
        <time>2025-07-17T09:43:39.071Z</time>
      </trkpt>
      <trkpt lat="44.39991" lon="0.99567">
        <ele>218</ele>
        <time>2025-07-17T09:43:40.071Z</time>
      </trkpt>
      <trkpt lat="44.39991" lon="0.99568">
        <ele>218</ele>
        <time>2025-07-17T09:43:41.071Z</time>
      </trkpt>
      <trkpt lat="44.39991" lon="0.99568">
        <ele>218</ele>
        <time>2025-07-17T09:43:42.071Z</time>
      </trkpt>
      <trkpt lat="44.39991" lon="0.99567">
        <ele>219</ele>
        <time>2025-07-17T09:43:43.071Z</time>
      </trkpt>
      <trkpt lat="44.39991" lon="0.99568">
        <ele>219</ele>
        <time>2025-07-17T09:43:44.071Z</time>
      </trkpt>
      <trkpt lat="44.39991" lon="0.99568">
        <ele>219</ele>
        <time>2025-07-17T09:43:45.071Z</time>
      </trkpt>
      <trkpt lat="44.39991" lon="0.99568">
        <ele>220</ele>
        <time>2025-07-17T09:43:46.072Z</time>
      </trkpt>
      <trkpt lat="44.39991" lon="0.99568">
        <ele>220</ele>
        <time>2025-07-17T09:43:47.071Z</time>
      </trkpt>
      <trkpt lat="44.3999" lon="0.99568">
        <ele>220</ele>
        <time>2025-07-17T09:43:48.071Z</time>
      </trkpt>
      <trkpt lat="44.3999" lon="0.99568">
        <ele>220</ele>
        <time>2025-07-17T09:43:49.071Z</time>
      </trkpt>
      <trkpt lat="44.3999" lon="0.99569">
        <ele>220</ele>
        <time>2025-07-17T09:43:50.071Z</time>
      </trkpt>
      <trkpt lat="44.3999" lon="0.99571">
        <ele>219</ele>
        <time>2025-07-17T09:43:51.071Z</time>
      </trkpt>
      <trkpt lat="44.39989" lon="0.99572">
        <ele>219</ele>
        <time>2025-07-17T09:43:52.071Z</time>
      </trkpt>
      <trkpt lat="44.39988" lon="0.99573">
        <ele>219</ele>
        <time>2025-07-17T09:43:53.071Z</time>
      </trkpt>
      <trkpt lat="44.39988" lon="0.99575">
        <ele>218</ele>
        <time>2025-07-17T09:43:54.071Z</time>
      </trkpt>
      <trkpt lat="44.39987" lon="0.99576">
        <ele>218</ele>
        <time>2025-07-17T09:43:55.071Z</time>
      </trkpt>
      <trkpt lat="44.39986" lon="0.99577">
        <ele>218</ele>
        <time>2025-07-17T09:43:56.071Z</time>
      </trkpt>
      <trkpt lat="44.39986" lon="0.99578">
        <ele>218</ele>
        <time>2025-07-17T09:43:57.071Z</time>
      </trkpt>
      <trkpt lat="44.39985" lon="0.99579">
        <ele>218</ele>
        <time>2025-07-17T09:43:58.071Z</time>
      </trkpt>
      <trkpt lat="44.39984" lon="0.9958">
        <ele>217</ele>
        <time>2025-07-17T09:43:59.071Z</time>
      </trkpt>
      <trkpt lat="44.39984" lon="0.99582">
        <ele>217</ele>
        <time>2025-07-17T09:44:00.071Z</time>
      </trkpt>
      <trkpt lat="44.39983" lon="0.99582">
        <ele>217</ele>
        <time>2025-07-17T09:44:01.071Z</time>
      </trkpt>
      <trkpt lat="44.39983" lon="0.99582">
        <ele>217</ele>
        <time>2025-07-17T09:44:02.071Z</time>
      </trkpt>
      <trkpt lat="44.39983" lon="0.99583">
        <ele>217</ele>
        <time>2025-07-17T09:44:03.071Z</time>
      </trkpt>
      <trkpt lat="44.39983" lon="0.99582">
        <ele>217</ele>
        <time>2025-07-17T09:44:04.071Z</time>
      </trkpt>
      <trkpt lat="44.39983" lon="0.99582">
        <ele>217</ele>
        <time>2025-07-17T09:44:05.071Z</time>
      </trkpt>
      <trkpt lat="44.39983" lon="0.99582">
        <ele>217</ele>
        <time>2025-07-17T09:44:06.071Z</time>
      </trkpt>
      <trkpt lat="44.39983" lon="0.99581">
        <ele>218</ele>
        <time>2025-07-17T09:44:07.071Z</time>
      </trkpt>
      <trkpt lat="44.39983" lon="0.99582">
        <ele>218</ele>
        <time>2025-07-17T09:44:08.071Z</time>
      </trkpt>
      <trkpt lat="44.39983" lon="0.99581">
        <ele>218</ele>
        <time>2025-07-17T09:44:09.071Z</time>
      </trkpt>
      <trkpt lat="44.39983" lon="0.99581">
        <ele>218</ele>
        <time>2025-07-17T09:44:10.071Z</time>
      </trkpt>
      <trkpt lat="44.39983" lon="0.99581">
        <ele>218</ele>
        <time>2025-07-17T09:44:11.071Z</time>
      </trkpt>
      <trkpt lat="44.39982" lon="0.99581">
        <ele>218</ele>
        <time>2025-07-17T09:44:12.071Z</time>
      </trkpt>
      <trkpt lat="44.39982" lon="0.9958">
        <ele>218</ele>
        <time>2025-07-17T09:44:13.071Z</time>
      </trkpt>
      <trkpt lat="44.39981" lon="0.9958">
        <ele>218</ele>
        <time>2025-07-17T09:44:14.071Z</time>
      </trkpt>
      <trkpt lat="44.3998" lon="0.99579">
        <ele>219</ele>
        <time>2025-07-17T09:44:15.071Z</time>
      </trkpt>
      <trkpt lat="44.3998" lon="0.99578">
        <ele>219</ele>
        <time>2025-07-17T09:44:16.071Z</time>
      </trkpt>
      <trkpt lat="44.39979" lon="0.99578">
        <ele>220</ele>
        <time>2025-07-17T09:44:17.071Z</time>
      </trkpt>
      <trkpt lat="44.39979" lon="0.99577">
        <ele>220</ele>
        <time>2025-07-17T09:44:18.071Z</time>
      </trkpt>
      <trkpt lat="44.39979" lon="0.99577">
        <ele>219</ele>
        <time>2025-07-17T09:44:19.071Z</time>
      </trkpt>
      <trkpt lat="44.39979" lon="0.99577">
        <ele>219</ele>
        <time>2025-07-17T09:44:20.071Z</time>
      </trkpt>
      <trkpt lat="44.39979" lon="0.99577">
        <ele>219</ele>
        <time>2025-07-17T09:44:21.071Z</time>
      </trkpt>
      <trkpt lat="44.39979" lon="0.99577">
        <ele>219</ele>
        <time>2025-07-17T09:44:22.071Z</time>
      </trkpt>
      <trkpt lat="44.39979" lon="0.99577">
        <ele>219</ele>
        <time>2025-07-17T09:44:23.071Z</time>
      </trkpt>
      <trkpt lat="44.39979" lon="0.99577">
        <ele>218</ele>
        <time>2025-07-17T09:44:24.071Z</time>
      </trkpt>
      <trkpt lat="44.39979" lon="0.99577">
        <ele>218</ele>
        <time>2025-07-17T09:44:25.071Z</time>
      </trkpt>
      <trkpt lat="44.39979" lon="0.99577">
        <ele>218</ele>
        <time>2025-07-17T09:44:26.071Z</time>
      </trkpt>
      <trkpt lat="44.39979" lon="0.99577">
        <ele>218</ele>
        <time>2025-07-17T09:44:27.071Z</time>
      </trkpt>
      <trkpt lat="44.39979" lon="0.99577">
        <ele>217</ele>
        <time>2025-07-17T09:44:28.071Z</time>
      </trkpt>
      <trkpt lat="44.39979" lon="0.99577">
        <ele>217</ele>
        <time>2025-07-17T09:44:29.071Z</time>
      </trkpt>
      <trkpt lat="44.39979" lon="0.99577">
        <ele>216</ele>
        <time>2025-07-17T09:44:30.071Z</time>
      </trkpt>
      <trkpt lat="44.39979" lon="0.99577">
        <ele>215</ele>
        <time>2025-07-17T09:44:31.071Z</time>
      </trkpt>
      <trkpt lat="44.39979" lon="0.99577">
        <ele>215</ele>
        <time>2025-07-17T09:44:32.071Z</time>
      </trkpt>
      <trkpt lat="44.39979" lon="0.99577">
        <ele>215</ele>
        <time>2025-07-17T09:44:33.071Z</time>
      </trkpt>
      <trkpt lat="44.39979" lon="0.99577">
        <ele>215</ele>
        <time>2025-07-17T09:44:34.071Z</time>
      </trkpt>
      <trkpt lat="44.39979" lon="0.99577">
        <ele>215</ele>
        <time>2025-07-17T09:44:35.071Z</time>
      </trkpt>
      <trkpt lat="44.39979" lon="0.99577">
        <ele>215</ele>
        <time>2025-07-17T09:44:36.071Z</time>
      </trkpt>
      <trkpt lat="44.39979" lon="0.99577">
        <ele>215</ele>
        <time>2025-07-17T09:44:37.071Z</time>
      </trkpt>
      <trkpt lat="44.39978" lon="0.99577">
        <ele>215</ele>
        <time>2025-07-17T09:44:38.071Z</time>
      </trkpt>
      <trkpt lat="44.39978" lon="0.99577">
        <ele>216</ele>
        <time>2025-07-17T09:44:39.071Z</time>
      </trkpt>
      <trkpt lat="44.39978" lon="0.99577">
        <ele>217</ele>
        <time>2025-07-17T09:44:40.072Z</time>
      </trkpt>
      <trkpt lat="44.39979" lon="0.99577">
        <ele>217</ele>
        <time>2025-07-17T09:44:41.071Z</time>
      </trkpt>
      <trkpt lat="44.39979" lon="0.99577">
        <ele>218</ele>
        <time>2025-07-17T09:44:42.071Z</time>
      </trkpt>
      <trkpt lat="44.39979" lon="0.99578">
        <ele>218</ele>
        <time>2025-07-17T09:44:43.071Z</time>
      </trkpt>
      <trkpt lat="44.39979" lon="0.99578">
        <ele>218</ele>
        <time>2025-07-17T09:44:44.071Z</time>
      </trkpt>
      <trkpt lat="44.39979" lon="0.99578">
        <ele>219</ele>
        <time>2025-07-17T09:44:45.071Z</time>
      </trkpt>
      <trkpt lat="44.39979" lon="0.99578">
        <ele>219</ele>
        <time>2025-07-17T09:44:46.071Z</time>
      </trkpt>
      <trkpt lat="44.39979" lon="0.99578">
        <ele>219</ele>
        <time>2025-07-17T09:44:47.071Z</time>
      </trkpt>
      <trkpt lat="44.39979" lon="0.99578">
        <ele>218</ele>
        <time>2025-07-17T09:44:48.071Z</time>
      </trkpt>
      <trkpt lat="44.39979" lon="0.99578">
        <ele>218</ele>
        <time>2025-07-17T09:44:49.071Z</time>
      </trkpt>
      <trkpt lat="44.39979" lon="0.99579">
        <ele>218</ele>
        <time>2025-07-17T09:44:50.071Z</time>
      </trkpt>
      <trkpt lat="44.3998" lon="0.99579">
        <ele>218</ele>
        <time>2025-07-17T09:44:51.071Z</time>
      </trkpt>
      <trkpt lat="44.3998" lon="0.99579">
        <ele>218</ele>
        <time>2025-07-17T09:44:52.071Z</time>
      </trkpt>
      <trkpt lat="44.3998" lon="0.9958">
        <ele>218</ele>
        <time>2025-07-17T09:44:53.071Z</time>
      </trkpt>
      <trkpt lat="44.3998" lon="0.9958">
        <ele>218</ele>
        <time>2025-07-17T09:44:54.071Z</time>
      </trkpt>
      <trkpt lat="44.3998" lon="0.9958">
        <ele>218</ele>
        <time>2025-07-17T09:44:55.071Z</time>
      </trkpt>
      <trkpt lat="44.3998" lon="0.9958">
        <ele>217</ele>
        <time>2025-07-17T09:44:56.071Z</time>
      </trkpt>
      <trkpt lat="44.3998" lon="0.9958">
        <ele>217</ele>
        <time>2025-07-17T09:44:57.072Z</time>
      </trkpt>
      <trkpt lat="44.3998" lon="0.9958">
        <ele>217</ele>
        <time>2025-07-17T09:44:58.071Z</time>
      </trkpt>
      <trkpt lat="44.3998" lon="0.9958">
        <ele>217</ele>
        <time>2025-07-17T09:44:59.071Z</time>
      </trkpt>
      <trkpt lat="44.3998" lon="0.9958">
        <ele>216</ele>
        <time>2025-07-17T09:45:00.071Z</time>
      </trkpt>
      <trkpt lat="44.3998" lon="0.9958">
        <ele>216</ele>
        <time>2025-07-17T09:45:01.071Z</time>
      </trkpt>
      <trkpt lat="44.3998" lon="0.9958">
        <ele>215</ele>
        <time>2025-07-17T09:45:02.071Z</time>
      </trkpt>
      <trkpt lat="44.39981" lon="0.9958">
        <ele>214</ele>
        <time>2025-07-17T09:45:03.071Z</time>
      </trkpt>
      <trkpt lat="44.3998" lon="0.9958">
        <ele>214</ele>
        <time>2025-07-17T09:45:04.071Z</time>
      </trkpt>
      <trkpt lat="44.3998" lon="0.9958">
        <ele>214</ele>
        <time>2025-07-17T09:45:05.071Z</time>
      </trkpt>
      <trkpt lat="44.3998" lon="0.9958">
        <ele>214</ele>
        <time>2025-07-17T09:45:06.071Z</time>
      </trkpt>
      <trkpt lat="44.3998" lon="0.9958">
        <ele>214</ele>
        <time>2025-07-17T09:45:07.071Z</time>
      </trkpt>
      <trkpt lat="44.3998" lon="0.9958">
        <ele>214</ele>
        <time>2025-07-17T09:45:08.071Z</time>
      </trkpt>
      <trkpt lat="44.3998" lon="0.9958">
        <ele>214</ele>
        <time>2025-07-17T09:45:09.071Z</time>
      </trkpt>
      <trkpt lat="44.39981" lon="0.9958">
        <ele>214</ele>
        <time>2025-07-17T09:45:10.071Z</time>
      </trkpt>
      <trkpt lat="44.39981" lon="0.9958">
        <ele>214</ele>
        <time>2025-07-17T09:45:11.071Z</time>
      </trkpt>
      <trkpt lat="44.39981" lon="0.99581">
        <ele>214</ele>
        <time>2025-07-17T09:45:12.072Z</time>
      </trkpt>
      <trkpt lat="44.39981" lon="0.99581">
        <ele>214</ele>
        <time>2025-07-17T09:45:13.071Z</time>
      </trkpt>
      <trkpt lat="44.39981" lon="0.99581">
        <ele>214</ele>
        <time>2025-07-17T09:45:14.072Z</time>
      </trkpt>
      <trkpt lat="44.39981" lon="0.99581">
        <ele>214</ele>
        <time>2025-07-17T09:45:15.071Z</time>
      </trkpt>
      <trkpt lat="44.39981" lon="0.99581">
        <ele>214</ele>
        <time>2025-07-17T09:45:16.071Z</time>
      </trkpt>
      <trkpt lat="44.39982" lon="0.99581">
        <ele>214</ele>
        <time>2025-07-17T09:45:17.071Z</time>
      </trkpt>
      <trkpt lat="44.39982" lon="0.99581">
        <ele>214</ele>
        <time>2025-07-17T09:45:18.071Z</time>
      </trkpt>
      <trkpt lat="44.39982" lon="0.99581">
        <ele>214</ele>
        <time>2025-07-17T09:45:19.071Z</time>
      </trkpt>
      <trkpt lat="44.39982" lon="0.99581">
        <ele>214</ele>
        <time>2025-07-17T09:45:20.071Z</time>
      </trkpt>
      <trkpt lat="44.39982" lon="0.99581">
        <ele>214</ele>
        <time>2025-07-17T09:45:21.071Z</time>
      </trkpt>
      <trkpt lat="44.39982" lon="0.99581">
        <ele>214</ele>
        <time>2025-07-17T09:45:22.071Z</time>
      </trkpt>
      <trkpt lat="44.39982" lon="0.99581">
        <ele>214</ele>
        <time>2025-07-17T09:45:23.071Z</time>
      </trkpt>
      <trkpt lat="44.39982" lon="0.99581">
        <ele>214</ele>
        <time>2025-07-17T09:45:24.071Z</time>
      </trkpt>
      <trkpt lat="44.39982" lon="0.99581">
        <ele>213</ele>
        <time>2025-07-17T09:45:25.071Z</time>
      </trkpt>
      <trkpt lat="44.39982" lon="0.99581">
        <ele>213</ele>
        <time>2025-07-17T09:45:26.071Z</time>
      </trkpt>
      <trkpt lat="44.39982" lon="0.99581">
        <ele>213</ele>
        <time>2025-07-17T09:45:27.071Z</time>
      </trkpt>
      <trkpt lat="44.39982" lon="0.99581">
        <ele>213</ele>
        <time>2025-07-17T09:45:28.072Z</time>
      </trkpt>
      <trkpt lat="44.39982" lon="0.99581">
        <ele>213</ele>
        <time>2025-07-17T09:45:29.071Z</time>
      </trkpt>
      <trkpt lat="44.39982" lon="0.99581">
        <ele>213</ele>
        <time>2025-07-17T09:45:30.071Z</time>
      </trkpt>
      <trkpt lat="44.39982" lon="0.99582">
        <ele>213</ele>
        <time>2025-07-17T09:45:31.071Z</time>
      </trkpt>
      <trkpt lat="44.39982" lon="0.99582">
        <ele>213</ele>
        <time>2025-07-17T09:45:32.071Z</time>
      </trkpt>
      <trkpt lat="44.39982" lon="0.99581">
        <ele>213</ele>
        <time>2025-07-17T09:45:33.071Z</time>
      </trkpt>
      <trkpt lat="44.39982" lon="0.99581">
        <ele>213</ele>
        <time>2025-07-17T09:45:34.071Z</time>
      </trkpt>
      <trkpt lat="44.39982" lon="0.99582">
        <ele>213</ele>
        <time>2025-07-17T09:45:35.071Z</time>
      </trkpt>
      <trkpt lat="44.39982" lon="0.99582">
        <ele>214</ele>
        <time>2025-07-17T09:45:36.071Z</time>
      </trkpt>
      <trkpt lat="44.39982" lon="0.99582">
        <ele>214</ele>
        <time>2025-07-17T09:45:37.071Z</time>
      </trkpt>
      <trkpt lat="44.39982" lon="0.99582">
        <ele>214</ele>
        <time>2025-07-17T09:45:38.071Z</time>
      </trkpt>
      <trkpt lat="44.39982" lon="0.99582">
        <ele>214</ele>
        <time>2025-07-17T09:45:39.071Z</time>
      </trkpt>
      <trkpt lat="44.39982" lon="0.99582">
        <ele>214</ele>
        <time>2025-07-17T09:45:40.071Z</time>
      </trkpt>
      <trkpt lat="44.39982" lon="0.99582">
        <ele>214</ele>
        <time>2025-07-17T09:45:41.071Z</time>
      </trkpt>
      <trkpt lat="44.39982" lon="0.99582">
        <ele>215</ele>
        <time>2025-07-17T09:45:42.071Z</time>
      </trkpt>
      <trkpt lat="44.39982" lon="0.99582">
        <ele>215</ele>
        <time>2025-07-17T09:45:43.071Z</time>
      </trkpt>
      <trkpt lat="44.39981" lon="0.99583">
        <ele>215</ele>
        <time>2025-07-17T09:45:44.071Z</time>
      </trkpt>
      <trkpt lat="44.3998" lon="0.99583">
        <ele>215</ele>
        <time>2025-07-17T09:45:45.071Z</time>
      </trkpt>
      <trkpt lat="44.39979" lon="0.99583">
        <ele>215</ele>
        <time>2025-07-17T09:45:46.071Z</time>
      </trkpt>
      <trkpt lat="44.39979" lon="0.99583">
        <ele>215</ele>
        <time>2025-07-17T09:45:47.071Z</time>
      </trkpt>
      <trkpt lat="44.39978" lon="0.99583">
        <ele>215</ele>
        <time>2025-07-17T09:45:48.071Z</time>
      </trkpt>
      <trkpt lat="44.39977" lon="0.99583">
        <ele>215</ele>
        <time>2025-07-17T09:45:49.071Z</time>
      </trkpt>
      <trkpt lat="44.39976" lon="0.99583">
        <ele>215</ele>
        <time>2025-07-17T09:45:50.072Z</time>
      </trkpt>
      <trkpt lat="44.39975" lon="0.99581">
        <ele>215</ele>
        <time>2025-07-17T09:45:51.071Z</time>
      </trkpt>
      <trkpt lat="44.39974" lon="0.99581">
        <ele>215</ele>
        <time>2025-07-17T09:45:52.071Z</time>
      </trkpt>
      <trkpt lat="44.39973" lon="0.9958">
        <ele>215</ele>
        <time>2025-07-17T09:45:53.071Z</time>
      </trkpt>
      <trkpt lat="44.39972" lon="0.99581">
        <ele>215</ele>
        <time>2025-07-17T09:45:54.071Z</time>
      </trkpt>
      <trkpt lat="44.39972" lon="0.99582">
        <ele>215</ele>
        <time>2025-07-17T09:45:55.071Z</time>
      </trkpt>
      <trkpt lat="44.39972" lon="0.99582">
        <ele>215</ele>
        <time>2025-07-17T09:45:56.071Z</time>
      </trkpt>
      <trkpt lat="44.39972" lon="0.99582">
        <ele>215</ele>
        <time>2025-07-17T09:45:57.071Z</time>
      </trkpt>
      <trkpt lat="44.39972" lon="0.99581">
        <ele>215</ele>
        <time>2025-07-17T09:45:58.071Z</time>
      </trkpt>
      <trkpt lat="44.39972" lon="0.9958">
        <ele>215</ele>
        <time>2025-07-17T09:45:59.071Z</time>
      </trkpt>
      <trkpt lat="44.39972" lon="0.99579">
        <ele>216</ele>
        <time>2025-07-17T09:46:00.071Z</time>
      </trkpt>
      <trkpt lat="44.39971" lon="0.99578">
        <ele>216</ele>
        <time>2025-07-17T09:46:01.071Z</time>
      </trkpt>
      <trkpt lat="44.39971" lon="0.99578">
        <ele>216</ele>
        <time>2025-07-17T09:46:02.071Z</time>
      </trkpt>
      <trkpt lat="44.3997" lon="0.99577">
        <ele>216</ele>
        <time>2025-07-17T09:46:03.071Z</time>
      </trkpt>
      <trkpt lat="44.39969" lon="0.99576">
        <ele>216</ele>
        <time>2025-07-17T09:46:04.071Z</time>
      </trkpt>
      <trkpt lat="44.39967" lon="0.99574">
        <ele>216</ele>
        <time>2025-07-17T09:46:05.071Z</time>
      </trkpt>
      <trkpt lat="44.39966" lon="0.99573">
        <ele>216</ele>
        <time>2025-07-17T09:46:06.072Z</time>
      </trkpt>
      <trkpt lat="44.39965" lon="0.99573">
        <ele>216</ele>
        <time>2025-07-17T09:46:07.071Z</time>
      </trkpt>
      <trkpt lat="44.39964" lon="0.99572">
        <ele>216</ele>
        <time>2025-07-17T09:46:08.071Z</time>
      </trkpt>
      <trkpt lat="44.39963" lon="0.99571">
        <ele>216</ele>
        <time>2025-07-17T09:46:09.071Z</time>
      </trkpt>
      <trkpt lat="44.39962" lon="0.9957">
        <ele>216</ele>
        <time>2025-07-17T09:46:10.071Z</time>
      </trkpt>
      <trkpt lat="44.39962" lon="0.99569">
        <ele>216</ele>
        <time>2025-07-17T09:46:11.071Z</time>
      </trkpt>
      <trkpt lat="44.39961" lon="0.99569">
        <ele>216</ele>
        <time>2025-07-17T09:46:12.071Z</time>
      </trkpt>
      <trkpt lat="44.39961" lon="0.99568">
        <ele>216</ele>
        <time>2025-07-17T09:46:13.071Z</time>
      </trkpt>
      <trkpt lat="44.3996" lon="0.99568">
        <ele>216</ele>
        <time>2025-07-17T09:46:14.071Z</time>
      </trkpt>
      <trkpt lat="44.3996" lon="0.99568">
        <ele>216</ele>
        <time>2025-07-17T09:46:15.072Z</time>
      </trkpt>
      <trkpt lat="44.39959" lon="0.99567">
        <ele>215</ele>
        <time>2025-07-17T09:46:16.071Z</time>
      </trkpt>
      <trkpt lat="44.39959" lon="0.99568">
        <ele>215</ele>
        <time>2025-07-17T09:46:17.071Z</time>
      </trkpt>
      <trkpt lat="44.39958" lon="0.99568">
        <ele>215</ele>
        <time>2025-07-17T09:46:18.071Z</time>
      </trkpt>
      <trkpt lat="44.39957" lon="0.99567">
        <ele>215</ele>
        <time>2025-07-17T09:46:19.071Z</time>
      </trkpt>
      <trkpt lat="44.39956" lon="0.99566">
        <ele>216</ele>
        <time>2025-07-17T09:46:20.071Z</time>
      </trkpt>
      <trkpt lat="44.39955" lon="0.99565">
        <ele>216</ele>
        <time>2025-07-17T09:46:21.071Z</time>
      </trkpt>
      <trkpt lat="44.39954" lon="0.99566">
        <ele>216</ele>
        <time>2025-07-17T09:46:22.071Z</time>
      </trkpt>
      <trkpt lat="44.39953" lon="0.99566">
        <ele>216</ele>
        <time>2025-07-17T09:46:23.071Z</time>
      </trkpt>
      <trkpt lat="44.39952" lon="0.99565">
        <ele>216</ele>
        <time>2025-07-17T09:46:24.071Z</time>
      </trkpt>
      <trkpt lat="44.39951" lon="0.99565">
        <ele>215</ele>
        <time>2025-07-17T09:46:25.071Z</time>
      </trkpt>
      <trkpt lat="44.3995" lon="0.99564">
        <ele>215</ele>
        <time>2025-07-17T09:46:26.071Z</time>
      </trkpt>
      <trkpt lat="44.3995" lon="0.99563">
        <ele>215</ele>
        <time>2025-07-17T09:46:27.071Z</time>
      </trkpt>
      <trkpt lat="44.3995" lon="0.99562">
        <ele>215</ele>
        <time>2025-07-17T09:46:28.071Z</time>
      </trkpt>
      <trkpt lat="44.3995" lon="0.9956">
        <ele>215</ele>
        <time>2025-07-17T09:46:29.072Z</time>
      </trkpt>
      <trkpt lat="44.39948" lon="0.9956">
        <ele>215</ele>
        <time>2025-07-17T09:46:30.071Z</time>
      </trkpt>
      <trkpt lat="44.39948" lon="0.99559">
        <ele>215</ele>
        <time>2025-07-17T09:46:31.071Z</time>
      </trkpt>
      <trkpt lat="44.39947" lon="0.99557">
        <ele>215</ele>
        <time>2025-07-17T09:46:32.071Z</time>
      </trkpt>
      <trkpt lat="44.39946" lon="0.99557">
        <ele>215</ele>
        <time>2025-07-17T09:46:33.071Z</time>
      </trkpt>
      <trkpt lat="44.39944" lon="0.99557">
        <ele>215</ele>
        <time>2025-07-17T09:46:34.071Z</time>
      </trkpt>
      <trkpt lat="44.39943" lon="0.99556">
        <ele>214</ele>
        <time>2025-07-17T09:46:35.071Z</time>
      </trkpt>
      <trkpt lat="44.39943" lon="0.99556">
        <ele>214</ele>
        <time>2025-07-17T09:46:36.071Z</time>
      </trkpt>
      <trkpt lat="44.39942" lon="0.99556">
        <ele>214</ele>
        <time>2025-07-17T09:46:37.071Z</time>
      </trkpt>
      <trkpt lat="44.39941" lon="0.99555">
        <ele>213</ele>
        <time>2025-07-17T09:46:38.071Z</time>
      </trkpt>
      <trkpt lat="44.3994" lon="0.99555">
        <ele>213</ele>
        <time>2025-07-17T09:46:39.071Z</time>
      </trkpt>
      <trkpt lat="44.39939" lon="0.99554">
        <ele>213</ele>
        <time>2025-07-17T09:46:40.071Z</time>
      </trkpt>
      <trkpt lat="44.39938" lon="0.99553">
        <ele>213</ele>
        <time>2025-07-17T09:46:41.071Z</time>
      </trkpt>
      <trkpt lat="44.39937" lon="0.99553">
        <ele>213</ele>
        <time>2025-07-17T09:46:42.071Z</time>
      </trkpt>
      <trkpt lat="44.39936" lon="0.99553">
        <ele>213</ele>
        <time>2025-07-17T09:46:43.071Z</time>
      </trkpt>
      <trkpt lat="44.39934" lon="0.99553">
        <ele>213</ele>
        <time>2025-07-17T09:46:44.071Z</time>
      </trkpt>
      <trkpt lat="44.39934" lon="0.99552">
        <ele>213</ele>
        <time>2025-07-17T09:46:45.071Z</time>
      </trkpt>
      <trkpt lat="44.39933" lon="0.99552">
        <ele>213</ele>
        <time>2025-07-17T09:46:46.071Z</time>
      </trkpt>
      <trkpt lat="44.39932" lon="0.99552">
        <ele>213</ele>
        <time>2025-07-17T09:46:47.071Z</time>
      </trkpt>
      <trkpt lat="44.39931" lon="0.99551">
        <ele>213</ele>
        <time>2025-07-17T09:46:48.071Z</time>
      </trkpt>
      <trkpt lat="44.39931" lon="0.99551">
        <ele>213</ele>
        <time>2025-07-17T09:46:49.071Z</time>
      </trkpt>
      <trkpt lat="44.39931" lon="0.99551">
        <ele>213</ele>
        <time>2025-07-17T09:46:50.071Z</time>
      </trkpt>
      <trkpt lat="44.3993" lon="0.99551">
        <ele>213</ele>
        <time>2025-07-17T09:46:51.071Z</time>
      </trkpt>
      <trkpt lat="44.3993" lon="0.99551">
        <ele>213</ele>
        <time>2025-07-17T09:46:52.071Z</time>
      </trkpt>
      <trkpt lat="44.39931" lon="0.99551">
        <ele>213</ele>
        <time>2025-07-17T09:46:53.071Z</time>
      </trkpt>
      <trkpt lat="44.3993" lon="0.99551">
        <ele>213</ele>
        <time>2025-07-17T09:46:54.071Z</time>
      </trkpt>
      <trkpt lat="44.3993" lon="0.99551">
        <ele>213</ele>
        <time>2025-07-17T09:46:55.071Z</time>
      </trkpt>
      <trkpt lat="44.3993" lon="0.99551">
        <ele>213</ele>
        <time>2025-07-17T09:46:56.071Z</time>
      </trkpt>
      <trkpt lat="44.3993" lon="0.99551">
        <ele>213</ele>
        <time>2025-07-17T09:46:57.071Z</time>
      </trkpt>
      <trkpt lat="44.3993" lon="0.99551">
        <ele>213</ele>
        <time>2025-07-17T09:46:58.071Z</time>
      </trkpt>
      <trkpt lat="44.3993" lon="0.99551">
        <ele>214</ele>
        <time>2025-07-17T09:46:59.071Z</time>
      </trkpt>
      <trkpt lat="44.3993" lon="0.99551">
        <ele>213</ele>
        <time>2025-07-17T09:47:00.071Z</time>
      </trkpt>
      <trkpt lat="44.3993" lon="0.99551">
        <ele>213</ele>
        <time>2025-07-17T09:47:01.071Z</time>
      </trkpt>
      <trkpt lat="44.3993" lon="0.99551">
        <ele>213</ele>
        <time>2025-07-17T09:47:02.071Z</time>
      </trkpt>
      <trkpt lat="44.3993" lon="0.99551">
        <ele>213</ele>
        <time>2025-07-17T09:47:03.071Z</time>
      </trkpt>
      <trkpt lat="44.3993" lon="0.99551">
        <ele>213</ele>
        <time>2025-07-17T09:47:04.071Z</time>
      </trkpt>
      <trkpt lat="44.3993" lon="0.99551">
        <ele>213</ele>
        <time>2025-07-17T09:47:05.071Z</time>
      </trkpt>
      <trkpt lat="44.3993" lon="0.99551">
        <ele>213</ele>
        <time>2025-07-17T09:47:06.071Z</time>
      </trkpt>
      <trkpt lat="44.3993" lon="0.9955">
        <ele>213</ele>
        <time>2025-07-17T09:47:07.071Z</time>
      </trkpt>
      <trkpt lat="44.3993" lon="0.9955">
        <ele>213</ele>
        <time>2025-07-17T09:47:08.071Z</time>
      </trkpt>
      <trkpt lat="44.3993" lon="0.9955">
        <ele>213</ele>
        <time>2025-07-17T09:47:09.071Z</time>
      </trkpt>
      <trkpt lat="44.3993" lon="0.9955">
        <ele>213</ele>
        <time>2025-07-17T09:47:10.071Z</time>
      </trkpt>
      <trkpt lat="44.39929" lon="0.99549">
        <ele>214</ele>
        <time>2025-07-17T09:47:11.071Z</time>
      </trkpt>
      <trkpt lat="44.39929" lon="0.99549">
        <ele>214</ele>
        <time>2025-07-17T09:47:12.071Z</time>
      </trkpt>
      <trkpt lat="44.39929" lon="0.99548">
        <ele>213</ele>
        <time>2025-07-17T09:47:13.071Z</time>
      </trkpt>
      <trkpt lat="44.3993" lon="0.99548">
        <ele>214</ele>
        <time>2025-07-17T09:47:14.071Z</time>
      </trkpt>
      <trkpt lat="44.39931" lon="0.99548">
        <ele>214</ele>
        <time>2025-07-17T09:47:15.071Z</time>
      </trkpt>
      <trkpt lat="44.39931" lon="0.99549">
        <ele>214</ele>
        <time>2025-07-17T09:47:16.071Z</time>
      </trkpt>
      <trkpt lat="44.39931" lon="0.99549">
        <ele>214</ele>
        <time>2025-07-17T09:47:17.071Z</time>
      </trkpt>
      <trkpt lat="44.39931" lon="0.99549">
        <ele>214</ele>
        <time>2025-07-17T09:47:18.071Z</time>
      </trkpt>
      <trkpt lat="44.39931" lon="0.99549">
        <ele>214</ele>
        <time>2025-07-17T09:47:19.071Z</time>
      </trkpt>
      <trkpt lat="44.39931" lon="0.99549">
        <ele>214</ele>
        <time>2025-07-17T09:47:20.071Z</time>
      </trkpt>
      <trkpt lat="44.39931" lon="0.99549">
        <ele>215</ele>
        <time>2025-07-17T09:47:21.071Z</time>
      </trkpt>
      <trkpt lat="44.39931" lon="0.99549">
        <ele>215</ele>
        <time>2025-07-17T09:47:22.071Z</time>
      </trkpt>
      <trkpt lat="44.39931" lon="0.99549">
        <ele>215</ele>
        <time>2025-07-17T09:47:23.071Z</time>
      </trkpt>
      <trkpt lat="44.39931" lon="0.99549">
        <ele>214</ele>
        <time>2025-07-17T09:47:24.071Z</time>
      </trkpt>
      <trkpt lat="44.39931" lon="0.9955">
        <ele>214</ele>
        <time>2025-07-17T09:47:25.071Z</time>
      </trkpt>
      <trkpt lat="44.39931" lon="0.9955">
        <ele>214</ele>
        <time>2025-07-17T09:47:26.071Z</time>
      </trkpt>
      <trkpt lat="44.39931" lon="0.9955">
        <ele>214</ele>
        <time>2025-07-17T09:47:27.071Z</time>
      </trkpt>
      <trkpt lat="44.39931" lon="0.9955">
        <ele>214</ele>
        <time>2025-07-17T09:47:28.072Z</time>
      </trkpt>
      <trkpt lat="44.39931" lon="0.9955">
        <ele>214</ele>
        <time>2025-07-17T09:47:29.071Z</time>
      </trkpt>
      <trkpt lat="44.39931" lon="0.9955">
        <ele>214</ele>
        <time>2025-07-17T09:47:30.071Z</time>
      </trkpt>
      <trkpt lat="44.39931" lon="0.9955">
        <ele>214</ele>
        <time>2025-07-17T09:47:31.071Z</time>
      </trkpt>
      <trkpt lat="44.39931" lon="0.9955">
        <ele>214</ele>
        <time>2025-07-17T09:47:32.071Z</time>
      </trkpt>
      <trkpt lat="44.39931" lon="0.9955">
        <ele>214</ele>
        <time>2025-07-17T09:47:33.071Z</time>
      </trkpt>
      <trkpt lat="44.39931" lon="0.99551">
        <ele>214</ele>
        <time>2025-07-17T09:47:34.071Z</time>
      </trkpt>
      <trkpt lat="44.3993" lon="0.99551">
        <ele>213</ele>
        <time>2025-07-17T09:47:35.071Z</time>
      </trkpt>
      <trkpt lat="44.3993" lon="0.99552">
        <ele>213</ele>
        <time>2025-07-17T09:47:36.071Z</time>
      </trkpt>
      <trkpt lat="44.3993" lon="0.99552">
        <ele>213</ele>
        <time>2025-07-17T09:47:37.071Z</time>
      </trkpt>
      <trkpt lat="44.3993" lon="0.99552">
        <ele>212</ele>
        <time>2025-07-17T09:47:38.071Z</time>
      </trkpt>
      <trkpt lat="44.3993" lon="0.99552">
        <ele>212</ele>
        <time>2025-07-17T09:47:39.071Z</time>
      </trkpt>
      <trkpt lat="44.3993" lon="0.99552">
        <ele>212</ele>
        <time>2025-07-17T09:47:40.072Z</time>
      </trkpt>
      <trkpt lat="44.3993" lon="0.99552">
        <ele>212</ele>
        <time>2025-07-17T09:47:41.071Z</time>
      </trkpt>
      <trkpt lat="44.3993" lon="0.99552">
        <ele>212</ele>
        <time>2025-07-17T09:47:42.071Z</time>
      </trkpt>
      <trkpt lat="44.3993" lon="0.99552">
        <ele>212</ele>
        <time>2025-07-17T09:47:43.071Z</time>
      </trkpt>
      <trkpt lat="44.3993" lon="0.99552">
        <ele>212</ele>
        <time>2025-07-17T09:47:44.071Z</time>
      </trkpt>
      <trkpt lat="44.3993" lon="0.99552">
        <ele>212</ele>
        <time>2025-07-17T09:47:45.071Z</time>
      </trkpt>
      <trkpt lat="44.3993" lon="0.99552">
        <ele>212</ele>
        <time>2025-07-17T09:47:46.071Z</time>
      </trkpt>
      <trkpt lat="44.3993" lon="0.99552">
        <ele>212</ele>
        <time>2025-07-17T09:47:47.071Z</time>
      </trkpt>
      <trkpt lat="44.39929" lon="0.99552">
        <ele>212</ele>
        <time>2025-07-17T09:47:48.071Z</time>
      </trkpt>
      <trkpt lat="44.39929" lon="0.99552">
        <ele>212</ele>
        <time>2025-07-17T09:47:49.071Z</time>
      </trkpt>
      <trkpt lat="44.39929" lon="0.99552">
        <ele>212</ele>
        <time>2025-07-17T09:47:50.071Z</time>
      </trkpt>
      <trkpt lat="44.39929" lon="0.99552">
        <ele>212</ele>
        <time>2025-07-17T09:47:51.071Z</time>
      </trkpt>
      <trkpt lat="44.39929" lon="0.99552">
        <ele>213</ele>
        <time>2025-07-17T09:47:52.071Z</time>
      </trkpt>
      <trkpt lat="44.39929" lon="0.99552">
        <ele>213</ele>
        <time>2025-07-17T09:47:53.071Z</time>
      </trkpt>
      <trkpt lat="44.39929" lon="0.99552">
        <ele>213</ele>
        <time>2025-07-17T09:47:54.071Z</time>
      </trkpt>
      <trkpt lat="44.39929" lon="0.99552">
        <ele>213</ele>
        <time>2025-07-17T09:47:55.071Z</time>
      </trkpt>
      <trkpt lat="44.39929" lon="0.99552">
        <ele>212</ele>
        <time>2025-07-17T09:47:56.071Z</time>
      </trkpt>
      <trkpt lat="44.39929" lon="0.99552">
        <ele>212</ele>
        <time>2025-07-17T09:47:57.071Z</time>
      </trkpt>
      <trkpt lat="44.3993" lon="0.99553">
        <ele>212</ele>
        <time>2025-07-17T09:47:58.071Z</time>
      </trkpt>
      <trkpt lat="44.3993" lon="0.99553">
        <ele>212</ele>
        <time>2025-07-17T09:47:59.071Z</time>
      </trkpt>
      <trkpt lat="44.3993" lon="0.99554">
        <ele>212</ele>
        <time>2025-07-17T09:48:00.071Z</time>
      </trkpt>
      <trkpt lat="44.3993" lon="0.99554">
        <ele>212</ele>
        <time>2025-07-17T09:48:01.071Z</time>
      </trkpt>
      <trkpt lat="44.3993" lon="0.99554">
        <ele>212</ele>
        <time>2025-07-17T09:48:02.071Z</time>
      </trkpt>
      <trkpt lat="44.39931" lon="0.99554">
        <ele>212</ele>
        <time>2025-07-17T09:48:03.071Z</time>
      </trkpt>
      <trkpt lat="44.39931" lon="0.99554">
        <ele>212</ele>
        <time>2025-07-17T09:48:04.071Z</time>
      </trkpt>
      <trkpt lat="44.39932" lon="0.99554">
        <ele>212</ele>
        <time>2025-07-17T09:48:05.071Z</time>
      </trkpt>
      <trkpt lat="44.39933" lon="0.99554">
        <ele>212</ele>
        <time>2025-07-17T09:48:06.071Z</time>
      </trkpt>
      <trkpt lat="44.39933" lon="0.99554">
        <ele>212</ele>
        <time>2025-07-17T09:48:07.072Z</time>
      </trkpt>
      <trkpt lat="44.39934" lon="0.99555">
        <ele>212</ele>
        <time>2025-07-17T09:48:08.071Z</time>
      </trkpt>
      <trkpt lat="44.39935" lon="0.99555">
        <ele>212</ele>
        <time>2025-07-17T09:48:09.071Z</time>
      </trkpt>
      <trkpt lat="44.39936" lon="0.99555">
        <ele>212</ele>
        <time>2025-07-17T09:48:10.071Z</time>
      </trkpt>
      <trkpt lat="44.39936" lon="0.99555">
        <ele>212</ele>
        <time>2025-07-17T09:48:11.071Z</time>
      </trkpt>
      <trkpt lat="44.39937" lon="0.99555">
        <ele>212</ele>
        <time>2025-07-17T09:48:12.071Z</time>
      </trkpt>
      <trkpt lat="44.39938" lon="0.99556">
        <ele>212</ele>
        <time>2025-07-17T09:48:13.071Z</time>
      </trkpt>
      <trkpt lat="44.39939" lon="0.99556">
        <ele>212</ele>
        <time>2025-07-17T09:48:14.071Z</time>
      </trkpt>
      <trkpt lat="44.3994" lon="0.99556">
        <ele>212</ele>
        <time>2025-07-17T09:48:15.071Z</time>
      </trkpt>
      <trkpt lat="44.39941" lon="0.99557">
        <ele>211</ele>
        <time>2025-07-17T09:48:16.071Z</time>
      </trkpt>
      <trkpt lat="44.39941" lon="0.99557">
        <ele>211</ele>
        <time>2025-07-17T09:48:17.071Z</time>
      </trkpt>
      <trkpt lat="44.39942" lon="0.99558">
        <ele>211</ele>
        <time>2025-07-17T09:48:18.071Z</time>
      </trkpt>
      <trkpt lat="44.39943" lon="0.99559">
        <ele>212</ele>
        <time>2025-07-17T09:48:19.071Z</time>
      </trkpt>
      <trkpt lat="44.39943" lon="0.99559">
        <ele>212</ele>
        <time>2025-07-17T09:48:20.071Z</time>
      </trkpt>
      <trkpt lat="44.39943" lon="0.9956">
        <ele>212</ele>
        <time>2025-07-17T09:48:21.071Z</time>
      </trkpt>
      <trkpt lat="44.39943" lon="0.9956">
        <ele>212</ele>
        <time>2025-07-17T09:48:22.071Z</time>
      </trkpt>
      <trkpt lat="44.39943" lon="0.9956">
        <ele>213</ele>
        <time>2025-07-17T09:48:23.071Z</time>
      </trkpt>
      <trkpt lat="44.39943" lon="0.99561">
        <ele>213</ele>
        <time>2025-07-17T09:48:24.071Z</time>
      </trkpt>
      <trkpt lat="44.39943" lon="0.99561">
        <ele>213</ele>
        <time>2025-07-17T09:48:25.071Z</time>
      </trkpt>
      <trkpt lat="44.39942" lon="0.99561">
        <ele>214</ele>
        <time>2025-07-17T09:48:26.071Z</time>
      </trkpt>
      <trkpt lat="44.39942" lon="0.99562">
        <ele>214</ele>
        <time>2025-07-17T09:48:27.071Z</time>
      </trkpt>
      <trkpt lat="44.39943" lon="0.99563">
        <ele>215</ele>
        <time>2025-07-17T09:48:28.071Z</time>
      </trkpt>
      <trkpt lat="44.39943" lon="0.99564">
        <ele>215</ele>
        <time>2025-07-17T09:48:29.071Z</time>
      </trkpt>
      <trkpt lat="44.39943" lon="0.99565">
        <ele>215</ele>
        <time>2025-07-17T09:48:30.071Z</time>
      </trkpt>
      <trkpt lat="44.39942" lon="0.99566">
        <ele>215</ele>
        <time>2025-07-17T09:48:31.071Z</time>
      </trkpt>
      <trkpt lat="44.39942" lon="0.99567">
        <ele>216</ele>
        <time>2025-07-17T09:48:32.071Z</time>
      </trkpt>
      <trkpt lat="44.39941" lon="0.99568">
        <ele>216</ele>
        <time>2025-07-17T09:48:33.071Z</time>
      </trkpt>
      <trkpt lat="44.39941" lon="0.99569">
        <ele>216</ele>
        <time>2025-07-17T09:48:34.072Z</time>
      </trkpt>
      <trkpt lat="44.3994" lon="0.9957">
        <ele>216</ele>
        <time>2025-07-17T09:48:35.071Z</time>
      </trkpt>
      <trkpt lat="44.39939" lon="0.99571">
        <ele>216</ele>
        <time>2025-07-17T09:48:36.071Z</time>
      </trkpt>
      <trkpt lat="44.39939" lon="0.99572">
        <ele>216</ele>
        <time>2025-07-17T09:48:37.071Z</time>
      </trkpt>
      <trkpt lat="44.39938" lon="0.99573">
        <ele>216</ele>
        <time>2025-07-17T09:48:38.071Z</time>
      </trkpt>
      <trkpt lat="44.39938" lon="0.99574">
        <ele>216</ele>
        <time>2025-07-17T09:48:39.071Z</time>
      </trkpt>
      <trkpt lat="44.39938" lon="0.99575">
        <ele>217</ele>
        <time>2025-07-17T09:48:40.071Z</time>
      </trkpt>
      <trkpt lat="44.39937" lon="0.99577">
        <ele>217</ele>
        <time>2025-07-17T09:48:41.071Z</time>
      </trkpt>
      <trkpt lat="44.39937" lon="0.99577">
        <ele>217</ele>
        <time>2025-07-17T09:48:42.071Z</time>
      </trkpt>
      <trkpt lat="44.39936" lon="0.99578">
        <ele>217</ele>
        <time>2025-07-17T09:48:43.071Z</time>
      </trkpt>
      <trkpt lat="44.39936" lon="0.99579">
        <ele>218</ele>
        <time>2025-07-17T09:48:44.071Z</time>
      </trkpt>
      <trkpt lat="44.39935" lon="0.9958">
        <ele>218</ele>
        <time>2025-07-17T09:48:45.071Z</time>
      </trkpt>
      <trkpt lat="44.39934" lon="0.99581">
        <ele>218</ele>
        <time>2025-07-17T09:48:46.071Z</time>
      </trkpt>
      <trkpt lat="44.39933" lon="0.99582">
        <ele>218</ele>
        <time>2025-07-17T09:48:47.071Z</time>
      </trkpt>
      <trkpt lat="44.39932" lon="0.99583">
        <ele>218</ele>
        <time>2025-07-17T09:48:48.071Z</time>
      </trkpt>
      <trkpt lat="44.39931" lon="0.99584">
        <ele>218</ele>
        <time>2025-07-17T09:48:49.071Z</time>
      </trkpt>
      <trkpt lat="44.39931" lon="0.99584">
        <ele>218</ele>
        <time>2025-07-17T09:48:50.071Z</time>
      </trkpt>
      <trkpt lat="44.3993" lon="0.99585">
        <ele>217</ele>
        <time>2025-07-17T09:48:51.071Z</time>
      </trkpt>
      <trkpt lat="44.3993" lon="0.99587">
        <ele>217</ele>
        <time>2025-07-17T09:48:52.072Z</time>
      </trkpt>
      <trkpt lat="44.39929" lon="0.99588">
        <ele>217</ele>
        <time>2025-07-17T09:48:53.071Z</time>
      </trkpt>
      <trkpt lat="44.39929" lon="0.9959">
        <ele>217</ele>
        <time>2025-07-17T09:48:54.071Z</time>
      </trkpt>
      <trkpt lat="44.39928" lon="0.9959">
        <ele>217</ele>
        <time>2025-07-17T09:48:55.071Z</time>
      </trkpt>
      <trkpt lat="44.39928" lon="0.9959">
        <ele>217</ele>
        <time>2025-07-17T09:48:56.071Z</time>
      </trkpt>
      <trkpt lat="44.39928" lon="0.99591">
        <ele>217</ele>
        <time>2025-07-17T09:48:57.071Z</time>
      </trkpt>
      <trkpt lat="44.39927" lon="0.99592">
        <ele>217</ele>
        <time>2025-07-17T09:48:58.071Z</time>
      </trkpt>
      <trkpt lat="44.39927" lon="0.99592">
        <ele>217</ele>
        <time>2025-07-17T09:48:59.071Z</time>
      </trkpt>
      <trkpt lat="44.39927" lon="0.99592">
        <ele>217</ele>
        <time>2025-07-17T09:49:00.071Z</time>
      </trkpt>
      <trkpt lat="44.39927" lon="0.99592">
        <ele>217</ele>
        <time>2025-07-17T09:49:01.071Z</time>
      </trkpt>
      <trkpt lat="44.39926" lon="0.99592">
        <ele>217</ele>
        <time>2025-07-17T09:49:02.071Z</time>
      </trkpt>
      <trkpt lat="44.39926" lon="0.99593">
        <ele>217</ele>
        <time>2025-07-17T09:49:03.071Z</time>
      </trkpt>
      <trkpt lat="44.39927" lon="0.99593">
        <ele>217</ele>
        <time>2025-07-17T09:49:04.071Z</time>
      </trkpt>
      <trkpt lat="44.39927" lon="0.99593">
        <ele>217</ele>
        <time>2025-07-17T09:49:05.071Z</time>
      </trkpt>
      <trkpt lat="44.39927" lon="0.99593">
        <ele>217</ele>
        <time>2025-07-17T09:49:06.071Z</time>
      </trkpt>
      <trkpt lat="44.39926" lon="0.99593">
        <ele>217</ele>
        <time>2025-07-17T09:49:07.071Z</time>
      </trkpt>
      <trkpt lat="44.39926" lon="0.99593">
        <ele>216</ele>
        <time>2025-07-17T09:49:08.071Z</time>
      </trkpt>
      <trkpt lat="44.39926" lon="0.99593">
        <ele>216</ele>
        <time>2025-07-17T09:49:09.071Z</time>
      </trkpt>
      <trkpt lat="44.39926" lon="0.99593">
        <ele>216</ele>
        <time>2025-07-17T09:49:10.071Z</time>
      </trkpt>
      <trkpt lat="44.39926" lon="0.99593">
        <ele>215</ele>
        <time>2025-07-17T09:49:11.071Z</time>
      </trkpt>
      <trkpt lat="44.39926" lon="0.99593">
        <ele>215</ele>
        <time>2025-07-17T09:49:12.071Z</time>
      </trkpt>
      <trkpt lat="44.39926" lon="0.99593">
        <ele>215</ele>
        <time>2025-07-17T09:49:13.071Z</time>
      </trkpt>
      <trkpt lat="44.39926" lon="0.99593">
        <ele>215</ele>
        <time>2025-07-17T09:49:14.071Z</time>
      </trkpt>
      <trkpt lat="44.39926" lon="0.99593">
        <ele>215</ele>
        <time>2025-07-17T09:49:15.071Z</time>
      </trkpt>
      <trkpt lat="44.39926" lon="0.99593">
        <ele>215</ele>
        <time>2025-07-17T09:49:16.071Z</time>
      </trkpt>
      <trkpt lat="44.39926" lon="0.99593">
        <ele>215</ele>
        <time>2025-07-17T09:49:17.071Z</time>
      </trkpt>
      <trkpt lat="44.39926" lon="0.99593">
        <ele>215</ele>
        <time>2025-07-17T09:49:18.071Z</time>
      </trkpt>
      <trkpt lat="44.39926" lon="0.99594">
        <ele>215</ele>
        <time>2025-07-17T09:49:19.071Z</time>
      </trkpt>
      <trkpt lat="44.39926" lon="0.99594">
        <ele>215</ele>
        <time>2025-07-17T09:49:20.071Z</time>
      </trkpt>
      <trkpt lat="44.39926" lon="0.99594">
        <ele>215</ele>
        <time>2025-07-17T09:49:21.071Z</time>
      </trkpt>
      <trkpt lat="44.39926" lon="0.99594">
        <ele>214</ele>
        <time>2025-07-17T09:49:22.071Z</time>
      </trkpt>
      <trkpt lat="44.39926" lon="0.99594">
        <ele>214</ele>
        <time>2025-07-17T09:49:23.071Z</time>
      </trkpt>
      <trkpt lat="44.39926" lon="0.99594">
        <ele>213</ele>
        <time>2025-07-17T09:49:24.071Z</time>
      </trkpt>
      <trkpt lat="44.39926" lon="0.99594">
        <ele>213</ele>
        <time>2025-07-17T09:49:25.071Z</time>
      </trkpt>
      <trkpt lat="44.39926" lon="0.99594">
        <ele>213</ele>
        <time>2025-07-17T09:49:26.071Z</time>
      </trkpt>
      <trkpt lat="44.39926" lon="0.99594">
        <ele>213</ele>
        <time>2025-07-17T09:49:27.071Z</time>
      </trkpt>
      <trkpt lat="44.39926" lon="0.99594">
        <ele>213</ele>
        <time>2025-07-17T09:49:28.071Z</time>
      </trkpt>
      <trkpt lat="44.39926" lon="0.99594">
        <ele>213</ele>
        <time>2025-07-17T09:49:29.071Z</time>
      </trkpt>
      <trkpt lat="44.39926" lon="0.99594">
        <ele>213</ele>
        <time>2025-07-17T09:49:30.071Z</time>
      </trkpt>
      <trkpt lat="44.39926" lon="0.99594">
        <ele>212</ele>
        <time>2025-07-17T09:49:31.071Z</time>
      </trkpt>
      <trkpt lat="44.39926" lon="0.99594">
        <ele>213</ele>
        <time>2025-07-17T09:49:32.071Z</time>
      </trkpt>
      <trkpt lat="44.39926" lon="0.99594">
        <ele>213</ele>
        <time>2025-07-17T09:49:33.071Z</time>
      </trkpt>
      <trkpt lat="44.39926" lon="0.99594">
        <ele>213</ele>
        <time>2025-07-17T09:49:34.071Z</time>
      </trkpt>
      <trkpt lat="44.39926" lon="0.99594">
        <ele>213</ele>
        <time>2025-07-17T09:49:35.071Z</time>
      </trkpt>
      <trkpt lat="44.39926" lon="0.99594">
        <ele>213</ele>
        <time>2025-07-17T09:49:36.071Z</time>
      </trkpt>
      <trkpt lat="44.39926" lon="0.99594">
        <ele>213</ele>
        <time>2025-07-17T09:49:37.071Z</time>
      </trkpt>
      <trkpt lat="44.39926" lon="0.99594">
        <ele>213</ele>
        <time>2025-07-17T09:49:38.071Z</time>
      </trkpt>
      <trkpt lat="44.39926" lon="0.99594">
        <ele>213</ele>
        <time>2025-07-17T09:49:39.071Z</time>
      </trkpt>
      <trkpt lat="44.39926" lon="0.99594">
        <ele>213</ele>
        <time>2025-07-17T09:49:40.071Z</time>
      </trkpt>
      <trkpt lat="44.39926" lon="0.99594">
        <ele>213</ele>
        <time>2025-07-17T09:49:41.071Z</time>
      </trkpt>
      <trkpt lat="44.39926" lon="0.99594">
        <ele>213</ele>
        <time>2025-07-17T09:49:42.071Z</time>
      </trkpt>
      <trkpt lat="44.39926" lon="0.99594">
        <ele>214</ele>
        <time>2025-07-17T09:49:43.071Z</time>
      </trkpt>
      <trkpt lat="44.39926" lon="0.99594">
        <ele>214</ele>
        <time>2025-07-17T09:49:44.072Z</time>
      </trkpt>
      <trkpt lat="44.39926" lon="0.99594">
        <ele>215</ele>
        <time>2025-07-17T09:49:45.071Z</time>
      </trkpt>
      <trkpt lat="44.39927" lon="0.99594">
        <ele>215</ele>
        <time>2025-07-17T09:49:46.071Z</time>
      </trkpt>
      <trkpt lat="44.39927" lon="0.99594">
        <ele>214</ele>
        <time>2025-07-17T09:49:47.071Z</time>
      </trkpt>
      <trkpt lat="44.39927" lon="0.99594">
        <ele>214</ele>
        <time>2025-07-17T09:49:48.071Z</time>
      </trkpt>
      <trkpt lat="44.39927" lon="0.99594">
        <ele>214</ele>
        <time>2025-07-17T09:49:49.071Z</time>
      </trkpt>
      <trkpt lat="44.39926" lon="0.99594">
        <ele>214</ele>
        <time>2025-07-17T09:49:50.071Z</time>
      </trkpt>
      <trkpt lat="44.39926" lon="0.99594">
        <ele>214</ele>
        <time>2025-07-17T09:49:51.071Z</time>
      </trkpt>
      <trkpt lat="44.39926" lon="0.99593">
        <ele>214</ele>
        <time>2025-07-17T09:49:52.071Z</time>
      </trkpt>
      <trkpt lat="44.39926" lon="0.99593">
        <ele>214</ele>
        <time>2025-07-17T09:49:53.071Z</time>
      </trkpt>
      <trkpt lat="44.39926" lon="0.99593">
        <ele>214</ele>
        <time>2025-07-17T09:49:54.072Z</time>
      </trkpt>
      <trkpt lat="44.39926" lon="0.99593">
        <ele>214</ele>
        <time>2025-07-17T09:49:55.071Z</time>
      </trkpt>
      <trkpt lat="44.39926" lon="0.99593">
        <ele>213</ele>
        <time>2025-07-17T09:49:56.071Z</time>
      </trkpt>
      <trkpt lat="44.39925" lon="0.99593">
        <ele>213</ele>
        <time>2025-07-17T09:49:57.071Z</time>
      </trkpt>
      <trkpt lat="44.39925" lon="0.99593">
        <ele>213</ele>
        <time>2025-07-17T09:49:58.071Z</time>
      </trkpt>
      <trkpt lat="44.39926" lon="0.99593">
        <ele>212</ele>
        <time>2025-07-17T09:49:59.071Z</time>
      </trkpt>
      <trkpt lat="44.39926" lon="0.99593">
        <ele>212</ele>
        <time>2025-07-17T09:50:00.071Z</time>
      </trkpt>
      <trkpt lat="44.39926" lon="0.99593">
        <ele>212</ele>
        <time>2025-07-17T09:50:01.071Z</time>
      </trkpt>
      <trkpt lat="44.39926" lon="0.99593">
        <ele>212</ele>
        <time>2025-07-17T09:50:02.072Z</time>
      </trkpt>
      <trkpt lat="44.39926" lon="0.99593">
        <ele>212</ele>
        <time>2025-07-17T09:50:03.072Z</time>
      </trkpt>
      <trkpt lat="44.39926" lon="0.99593">
        <ele>212</ele>
        <time>2025-07-17T09:50:04.071Z</time>
      </trkpt>
      <trkpt lat="44.39926" lon="0.99593">
        <ele>212</ele>
        <time>2025-07-17T09:50:05.071Z</time>
      </trkpt>
      <trkpt lat="44.39927" lon="0.99594">
        <ele>212</ele>
        <time>2025-07-17T09:50:06.071Z</time>
      </trkpt>
      <trkpt lat="44.39927" lon="0.99594">
        <ele>213</ele>
        <time>2025-07-17T09:50:07.071Z</time>
      </trkpt>
      <trkpt lat="44.39927" lon="0.99594">
        <ele>213</ele>
        <time>2025-07-17T09:50:08.071Z</time>
      </trkpt>
      <trkpt lat="44.39927" lon="0.99594">
        <ele>214</ele>
        <time>2025-07-17T09:50:09.071Z</time>
      </trkpt>
      <trkpt lat="44.39927" lon="0.99594">
        <ele>214</ele>
        <time>2025-07-17T09:50:10.071Z</time>
      </trkpt>
      <trkpt lat="44.39927" lon="0.99594">
        <ele>214</ele>
        <time>2025-07-17T09:50:11.071Z</time>
      </trkpt>
      <trkpt lat="44.39927" lon="0.99594">
        <ele>214</ele>
        <time>2025-07-17T09:50:12.071Z</time>
      </trkpt>
      <trkpt lat="44.39927" lon="0.99594">
        <ele>215</ele>
        <time>2025-07-17T09:50:13.071Z</time>
      </trkpt>
      <trkpt lat="44.39927" lon="0.99594">
        <ele>215</ele>
        <time>2025-07-17T09:50:14.071Z</time>
      </trkpt>
      <trkpt lat="44.39927" lon="0.99594">
        <ele>215</ele>
        <time>2025-07-17T09:50:15.071Z</time>
      </trkpt>
      <trkpt lat="44.39927" lon="0.99594">
        <ele>215</ele>
        <time>2025-07-17T09:50:16.071Z</time>
      </trkpt>
      <trkpt lat="44.39927" lon="0.99594">
        <ele>215</ele>
        <time>2025-07-17T09:50:17.071Z</time>
      </trkpt>
      <trkpt lat="44.39927" lon="0.99594">
        <ele>216</ele>
        <time>2025-07-17T09:50:18.071Z</time>
      </trkpt>
      <trkpt lat="44.39927" lon="0.99594">
        <ele>216</ele>
        <time>2025-07-17T09:50:19.071Z</time>
      </trkpt>
      <trkpt lat="44.39927" lon="0.99594">
        <ele>216</ele>
        <time>2025-07-17T09:50:20.071Z</time>
      </trkpt>
      <trkpt lat="44.39927" lon="0.99594">
        <ele>216</ele>
        <time>2025-07-17T09:50:21.071Z</time>
      </trkpt>
      <trkpt lat="44.39927" lon="0.99594">
        <ele>216</ele>
        <time>2025-07-17T09:50:22.071Z</time>
      </trkpt>
      <trkpt lat="44.39927" lon="0.99594">
        <ele>216</ele>
        <time>2025-07-17T09:50:23.071Z</time>
      </trkpt>
      <trkpt lat="44.39927" lon="0.99595">
        <ele>216</ele>
        <time>2025-07-17T09:50:24.072Z</time>
      </trkpt>
      <trkpt lat="44.39927" lon="0.99595">
        <ele>216</ele>
        <time>2025-07-17T09:50:25.071Z</time>
      </trkpt>
      <trkpt lat="44.39927" lon="0.99595">
        <ele>216</ele>
        <time>2025-07-17T09:50:26.071Z</time>
      </trkpt>
      <trkpt lat="44.39927" lon="0.99595">
        <ele>216</ele>
        <time>2025-07-17T09:50:27.071Z</time>
      </trkpt>
      <trkpt lat="44.39927" lon="0.99594">
        <ele>216</ele>
        <time>2025-07-17T09:50:28.071Z</time>
      </trkpt>
      <trkpt lat="44.39927" lon="0.99594">
        <ele>216</ele>
        <time>2025-07-17T09:50:29.071Z</time>
      </trkpt>
      <trkpt lat="44.39927" lon="0.99594">
        <ele>216</ele>
        <time>2025-07-17T09:50:30.071Z</time>
      </trkpt>
      <trkpt lat="44.39927" lon="0.99594">
        <ele>216</ele>
        <time>2025-07-17T09:50:31.071Z</time>
      </trkpt>
      <trkpt lat="44.39927" lon="0.99594">
        <ele>216</ele>
        <time>2025-07-17T09:50:32.071Z</time>
      </trkpt>
      <trkpt lat="44.39927" lon="0.99594">
        <ele>216</ele>
        <time>2025-07-17T09:50:33.071Z</time>
      </trkpt>
      <trkpt lat="44.39927" lon="0.99594">
        <ele>216</ele>
        <time>2025-07-17T09:50:34.071Z</time>
      </trkpt>
      <trkpt lat="44.39927" lon="0.99594">
        <ele>216</ele>
        <time>2025-07-17T09:50:35.071Z</time>
      </trkpt>
      <trkpt lat="44.39927" lon="0.99594">
        <ele>216</ele>
        <time>2025-07-17T09:50:36.071Z</time>
      </trkpt>
      <trkpt lat="44.39927" lon="0.99594">
        <ele>216</ele>
        <time>2025-07-17T09:50:37.072Z</time>
      </trkpt>
      <trkpt lat="44.39928" lon="0.99594">
        <ele>216</ele>
        <time>2025-07-17T09:50:38.071Z</time>
      </trkpt>
      <trkpt lat="44.39928" lon="0.99594">
        <ele>216</ele>
        <time>2025-07-17T09:50:39.071Z</time>
      </trkpt>
      <trkpt lat="44.39928" lon="0.99594">
        <ele>216</ele>
        <time>2025-07-17T09:50:40.071Z</time>
      </trkpt>
      <trkpt lat="44.39929" lon="0.99594">
        <ele>216</ele>
        <time>2025-07-17T09:50:41.071Z</time>
      </trkpt>
      <trkpt lat="44.39929" lon="0.99594">
        <ele>216</ele>
        <time>2025-07-17T09:50:42.071Z</time>
      </trkpt>
      <trkpt lat="44.39929" lon="0.99594">
        <ele>216</ele>
        <time>2025-07-17T09:50:43.071Z</time>
      </trkpt>
      <trkpt lat="44.39929" lon="0.99594">
        <ele>216</ele>
        <time>2025-07-17T09:50:44.071Z</time>
      </trkpt>
      <trkpt lat="44.39929" lon="0.99594">
        <ele>217</ele>
        <time>2025-07-17T09:50:45.071Z</time>
      </trkpt>
      <trkpt lat="44.39929" lon="0.99594">
        <ele>217</ele>
        <time>2025-07-17T09:50:46.071Z</time>
      </trkpt>
      <trkpt lat="44.39929" lon="0.99594">
        <ele>217</ele>
        <time>2025-07-17T09:50:47.071Z</time>
      </trkpt>
      <trkpt lat="44.39929" lon="0.99594">
        <ele>217</ele>
        <time>2025-07-17T09:50:48.071Z</time>
      </trkpt>
      <trkpt lat="44.39929" lon="0.99594">
        <ele>217</ele>
        <time>2025-07-17T09:50:49.071Z</time>
      </trkpt>
      <trkpt lat="44.39929" lon="0.99594">
        <ele>216</ele>
        <time>2025-07-17T09:50:50.071Z</time>
      </trkpt>
      <trkpt lat="44.39929" lon="0.99594">
        <ele>215</ele>
        <time>2025-07-17T09:50:51.071Z</time>
      </trkpt>
      <trkpt lat="44.39929" lon="0.99594">
        <ele>215</ele>
        <time>2025-07-17T09:50:52.071Z</time>
      </trkpt>
      <trkpt lat="44.39929" lon="0.99594">
        <ele>215</ele>
        <time>2025-07-17T09:50:53.071Z</time>
      </trkpt>
      <trkpt lat="44.39929" lon="0.99594">
        <ele>215</ele>
        <time>2025-07-17T09:50:54.071Z</time>
      </trkpt>
      <trkpt lat="44.39929" lon="0.99594">
        <ele>215</ele>
        <time>2025-07-17T09:50:55.071Z</time>
      </trkpt>
      <trkpt lat="44.39929" lon="0.99594">
        <ele>215</ele>
        <time>2025-07-17T09:50:56.071Z</time>
      </trkpt>
      <trkpt lat="44.39929" lon="0.99594">
        <ele>215</ele>
        <time>2025-07-17T09:50:57.071Z</time>
      </trkpt>
      <trkpt lat="44.39929" lon="0.99594">
        <ele>215</ele>
        <time>2025-07-17T09:50:58.071Z</time>
      </trkpt>
      <trkpt lat="44.39929" lon="0.99594">
        <ele>214</ele>
        <time>2025-07-17T09:50:59.071Z</time>
      </trkpt>
      <trkpt lat="44.39929" lon="0.99594">
        <ele>214</ele>
        <time>2025-07-17T09:51:00.071Z</time>
      </trkpt>
      <trkpt lat="44.3993" lon="0.99594">
        <ele>214</ele>
        <time>2025-07-17T09:51:01.071Z</time>
      </trkpt>
      <trkpt lat="44.3993" lon="0.99594">
        <ele>214</ele>
        <time>2025-07-17T09:51:02.071Z</time>
      </trkpt>
      <trkpt lat="44.3993" lon="0.99594">
        <ele>214</ele>
        <time>2025-07-17T09:51:03.071Z</time>
      </trkpt>
      <trkpt lat="44.3993" lon="0.99594">
        <ele>214</ele>
        <time>2025-07-17T09:51:04.071Z</time>
      </trkpt>
      <trkpt lat="44.39929" lon="0.99594">
        <ele>214</ele>
        <time>2025-07-17T09:51:05.071Z</time>
      </trkpt>
      <trkpt lat="44.39929" lon="0.99594">
        <ele>214</ele>
        <time>2025-07-17T09:51:06.071Z</time>
      </trkpt>
      <trkpt lat="44.39929" lon="0.99594">
        <ele>214</ele>
        <time>2025-07-17T09:51:07.071Z</time>
      </trkpt>
      <trkpt lat="44.3993" lon="0.99594">
        <ele>214</ele>
        <time>2025-07-17T09:51:08.071Z</time>
      </trkpt>
      <trkpt lat="44.3993" lon="0.99594">
        <ele>214</ele>
        <time>2025-07-17T09:51:09.071Z</time>
      </trkpt>
      <trkpt lat="44.39929" lon="0.99594">
        <ele>214</ele>
        <time>2025-07-17T09:51:10.071Z</time>
      </trkpt>
      <trkpt lat="44.3993" lon="0.99595">
        <ele>215</ele>
        <time>2025-07-17T09:51:11.071Z</time>
      </trkpt>
      <trkpt lat="44.3993" lon="0.99595">
        <ele>215</ele>
        <time>2025-07-17T09:51:12.071Z</time>
      </trkpt>
      <trkpt lat="44.3993" lon="0.99595">
        <ele>215</ele>
        <time>2025-07-17T09:51:13.071Z</time>
      </trkpt>
      <trkpt lat="44.3993" lon="0.99594">
        <ele>215</ele>
        <time>2025-07-17T09:51:14.071Z</time>
      </trkpt>
      <trkpt lat="44.3993" lon="0.99594">
        <ele>215</ele>
        <time>2025-07-17T09:51:15.071Z</time>
      </trkpt>
      <trkpt lat="44.3993" lon="0.99595">
        <ele>215</ele>
        <time>2025-07-17T09:51:16.071Z</time>
      </trkpt>
      <trkpt lat="44.3993" lon="0.99595">
        <ele>215</ele>
        <time>2025-07-17T09:51:17.071Z</time>
      </trkpt>
      <trkpt lat="44.3993" lon="0.99595">
        <ele>214</ele>
        <time>2025-07-17T09:51:18.071Z</time>
      </trkpt>
      <trkpt lat="44.3993" lon="0.99595">
        <ele>214</ele>
        <time>2025-07-17T09:51:19.071Z</time>
      </trkpt>
      <trkpt lat="44.3993" lon="0.99594">
        <ele>214</ele>
        <time>2025-07-17T09:51:20.071Z</time>
      </trkpt>
      <trkpt lat="44.3993" lon="0.99594">
        <ele>214</ele>
        <time>2025-07-17T09:51:21.071Z</time>
      </trkpt>
      <trkpt lat="44.3993" lon="0.99594">
        <ele>214</ele>
        <time>2025-07-17T09:51:22.071Z</time>
      </trkpt>
      <trkpt lat="44.3993" lon="0.99594">
        <ele>214</ele>
        <time>2025-07-17T09:51:23.071Z</time>
      </trkpt>
      <trkpt lat="44.3993" lon="0.99594">
        <ele>215</ele>
        <time>2025-07-17T09:51:24.071Z</time>
      </trkpt>
      <trkpt lat="44.3993" lon="0.99594">
        <ele>215</ele>
        <time>2025-07-17T09:51:25.072Z</time>
      </trkpt>
      <trkpt lat="44.3993" lon="0.99594">
        <ele>216</ele>
        <time>2025-07-17T09:51:26.071Z</time>
      </trkpt>
      <trkpt lat="44.3993" lon="0.99595">
        <ele>216</ele>
        <time>2025-07-17T09:51:27.071Z</time>
      </trkpt>
      <trkpt lat="44.3993" lon="0.99595">
        <ele>216</ele>
        <time>2025-07-17T09:51:28.071Z</time>
      </trkpt>
      <trkpt lat="44.3993" lon="0.99595">
        <ele>216</ele>
        <time>2025-07-17T09:51:29.071Z</time>
      </trkpt>
      <trkpt lat="44.3993" lon="0.99595">
        <ele>216</ele>
        <time>2025-07-17T09:51:30.071Z</time>
      </trkpt>
      <trkpt lat="44.39931" lon="0.99595">
        <ele>216</ele>
        <time>2025-07-17T09:51:31.071Z</time>
      </trkpt>
      <trkpt lat="44.39931" lon="0.99596">
        <ele>217</ele>
        <time>2025-07-17T09:51:32.071Z</time>
      </trkpt>
      <trkpt lat="44.39931" lon="0.99596">
        <ele>217</ele>
        <time>2025-07-17T09:51:33.071Z</time>
      </trkpt>
      <trkpt lat="44.39931" lon="0.99596">
        <ele>217</ele>
        <time>2025-07-17T09:51:34.071Z</time>
      </trkpt>
      <trkpt lat="44.39931" lon="0.99596">
        <ele>218</ele>
        <time>2025-07-17T09:51:35.071Z</time>
      </trkpt>
      <trkpt lat="44.39931" lon="0.99596">
        <ele>218</ele>
        <time>2025-07-17T09:51:36.071Z</time>
      </trkpt>
      <trkpt lat="44.39932" lon="0.99596">
        <ele>218</ele>
        <time>2025-07-17T09:51:37.071Z</time>
      </trkpt>
      <trkpt lat="44.39932" lon="0.99596">
        <ele>218</ele>
        <time>2025-07-17T09:51:38.071Z</time>
      </trkpt>
      <trkpt lat="44.39932" lon="0.99595">
        <ele>218</ele>
        <time>2025-07-17T09:51:39.071Z</time>
      </trkpt>
      <trkpt lat="44.39932" lon="0.99595">
        <ele>218</ele>
        <time>2025-07-17T09:51:40.071Z</time>
      </trkpt>
      <trkpt lat="44.39932" lon="0.99595">
        <ele>218</ele>
        <time>2025-07-17T09:51:41.071Z</time>
      </trkpt>
      <trkpt lat="44.39932" lon="0.99595">
        <ele>218</ele>
        <time>2025-07-17T09:51:42.072Z</time>
      </trkpt>
      <trkpt lat="44.39932" lon="0.99596">
        <ele>219</ele>
        <time>2025-07-17T09:51:43.071Z</time>
      </trkpt>
      <trkpt lat="44.39931" lon="0.99596">
        <ele>219</ele>
        <time>2025-07-17T09:51:44.071Z</time>
      </trkpt>
      <trkpt lat="44.39931" lon="0.99596">
        <ele>220</ele>
        <time>2025-07-17T09:51:45.071Z</time>
      </trkpt>
      <trkpt lat="44.39931" lon="0.99596">
        <ele>220</ele>
        <time>2025-07-17T09:51:46.071Z</time>
      </trkpt>
      <trkpt lat="44.39931" lon="0.99596">
        <ele>221</ele>
        <time>2025-07-17T09:51:47.071Z</time>
      </trkpt>
      <trkpt lat="44.39931" lon="0.99596">
        <ele>222</ele>
        <time>2025-07-17T09:51:48.071Z</time>
      </trkpt>
      <trkpt lat="44.39931" lon="0.99596">
        <ele>222</ele>
        <time>2025-07-17T09:51:49.071Z</time>
      </trkpt>
      <trkpt lat="44.39931" lon="0.99596">
        <ele>223</ele>
        <time>2025-07-17T09:51:50.071Z</time>
      </trkpt>
      <trkpt lat="44.3993" lon="0.99596">
        <ele>224</ele>
        <time>2025-07-17T09:51:51.071Z</time>
      </trkpt>
      <trkpt lat="44.3993" lon="0.99597">
        <ele>225</ele>
        <time>2025-07-17T09:51:52.071Z</time>
      </trkpt>
      <trkpt lat="44.3993" lon="0.99597">
        <ele>225</ele>
        <time>2025-07-17T09:51:53.072Z</time>
      </trkpt>
      <trkpt lat="44.3993" lon="0.99597">
        <ele>225</ele>
        <time>2025-07-17T09:51:54.071Z</time>
      </trkpt>
      <trkpt lat="44.3993" lon="0.99597">
        <ele>225</ele>
        <time>2025-07-17T09:51:55.071Z</time>
      </trkpt>
      <trkpt lat="44.39929" lon="0.99596">
        <ele>224</ele>
        <time>2025-07-17T09:51:56.071Z</time>
      </trkpt>
      <trkpt lat="44.39928" lon="0.99596">
        <ele>223</ele>
        <time>2025-07-17T09:51:57.071Z</time>
      </trkpt>
      <trkpt lat="44.39926" lon="0.99596">
        <ele>223</ele>
        <time>2025-07-17T09:51:58.072Z</time>
      </trkpt>
      <trkpt lat="44.39925" lon="0.99596">
        <ele>222</ele>
        <time>2025-07-17T09:51:59.071Z</time>
      </trkpt>
      <trkpt lat="44.39924" lon="0.99595">
        <ele>221</ele>
        <time>2025-07-17T09:52:00.071Z</time>
      </trkpt>
      <trkpt lat="44.39923" lon="0.99595">
        <ele>221</ele>
        <time>2025-07-17T09:52:01.071Z</time>
      </trkpt>
      <trkpt lat="44.39922" lon="0.99594">
        <ele>220</ele>
        <time>2025-07-17T09:52:02.071Z</time>
      </trkpt>
      <trkpt lat="44.3992" lon="0.99594">
        <ele>219</ele>
        <time>2025-07-17T09:52:03.071Z</time>
      </trkpt>
      <trkpt lat="44.3992" lon="0.99593">
        <ele>219</ele>
        <time>2025-07-17T09:52:04.071Z</time>
      </trkpt>
      <trkpt lat="44.39918" lon="0.99592">
        <ele>218</ele>
        <time>2025-07-17T09:52:05.071Z</time>
      </trkpt>
      <trkpt lat="44.39917" lon="0.99591">
        <ele>217</ele>
        <time>2025-07-17T09:52:06.071Z</time>
      </trkpt>
      <trkpt lat="44.39916" lon="0.9959">
        <ele>217</ele>
        <time>2025-07-17T09:52:07.071Z</time>
      </trkpt>
      <trkpt lat="44.39914" lon="0.99589">
        <ele>216</ele>
        <time>2025-07-17T09:52:08.071Z</time>
      </trkpt>
      <trkpt lat="44.39914" lon="0.99589">
        <ele>215</ele>
        <time>2025-07-17T09:52:09.071Z</time>
      </trkpt>
      <trkpt lat="44.39913" lon="0.99588">
        <ele>215</ele>
        <time>2025-07-17T09:52:10.071Z</time>
      </trkpt>
      <trkpt lat="44.39912" lon="0.99587">
        <ele>215</ele>
        <time>2025-07-17T09:52:11.071Z</time>
      </trkpt>
      <trkpt lat="44.39912" lon="0.99587">
        <ele>215</ele>
        <time>2025-07-17T09:52:12.072Z</time>
      </trkpt>
      <trkpt lat="44.39911" lon="0.99586">
        <ele>215</ele>
        <time>2025-07-17T09:52:13.071Z</time>
      </trkpt>
      <trkpt lat="44.3991" lon="0.99586">
        <ele>215</ele>
        <time>2025-07-17T09:52:14.071Z</time>
      </trkpt>
      <trkpt lat="44.3991" lon="0.99586">
        <ele>215</ele>
        <time>2025-07-17T09:52:15.071Z</time>
      </trkpt>
      <trkpt lat="44.39909" lon="0.99586">
        <ele>215</ele>
        <time>2025-07-17T09:52:16.071Z</time>
      </trkpt>
      <trkpt lat="44.39908" lon="0.99587">
        <ele>215</ele>
        <time>2025-07-17T09:52:17.071Z</time>
      </trkpt>
      <trkpt lat="44.39907" lon="0.99587">
        <ele>216</ele>
        <time>2025-07-17T09:52:18.071Z</time>
      </trkpt>
      <trkpt lat="44.39906" lon="0.99587">
        <ele>216</ele>
        <time>2025-07-17T09:52:19.071Z</time>
      </trkpt>
      <trkpt lat="44.39906" lon="0.99589">
        <ele>216</ele>
        <time>2025-07-17T09:52:20.071Z</time>
      </trkpt>
      <trkpt lat="44.39905" lon="0.9959">
        <ele>215</ele>
        <time>2025-07-17T09:52:21.071Z</time>
      </trkpt>
      <trkpt lat="44.39904" lon="0.9959">
        <ele>215</ele>
        <time>2025-07-17T09:52:22.071Z</time>
      </trkpt>
      <trkpt lat="44.39903" lon="0.9959">
        <ele>215</ele>
        <time>2025-07-17T09:52:23.071Z</time>
      </trkpt>
      <trkpt lat="44.39902" lon="0.99591">
        <ele>215</ele>
        <time>2025-07-17T09:52:24.071Z</time>
      </trkpt>
      <trkpt lat="44.39901" lon="0.99592">
        <ele>215</ele>
        <time>2025-07-17T09:52:25.071Z</time>
      </trkpt>
      <trkpt lat="44.399" lon="0.99593">
        <ele>214</ele>
        <time>2025-07-17T09:52:26.071Z</time>
      </trkpt>
      <trkpt lat="44.39899" lon="0.99593">
        <ele>214</ele>
        <time>2025-07-17T09:52:27.071Z</time>
      </trkpt>
      <trkpt lat="44.39898" lon="0.99594">
        <ele>214</ele>
        <time>2025-07-17T09:52:28.071Z</time>
      </trkpt>
      <trkpt lat="44.39897" lon="0.99595">
        <ele>213</ele>
        <time>2025-07-17T09:52:29.071Z</time>
      </trkpt>
      <trkpt lat="44.39897" lon="0.99597">
        <ele>213</ele>
        <time>2025-07-17T09:52:30.071Z</time>
      </trkpt>
      <trkpt lat="44.39897" lon="0.99598">
        <ele>213</ele>
        <time>2025-07-17T09:52:31.071Z</time>
      </trkpt>
      <trkpt lat="44.39896" lon="0.99599">
        <ele>213</ele>
        <time>2025-07-17T09:52:32.071Z</time>
      </trkpt>
      <trkpt lat="44.39896" lon="0.996">
        <ele>212</ele>
        <time>2025-07-17T09:52:33.071Z</time>
      </trkpt>
      <trkpt lat="44.39895" lon="0.99602">
        <ele>212</ele>
        <time>2025-07-17T09:52:34.071Z</time>
      </trkpt>
      <trkpt lat="44.39895" lon="0.99603">
        <ele>212</ele>
        <time>2025-07-17T09:52:35.071Z</time>
      </trkpt>
      <trkpt lat="44.39894" lon="0.99604">
        <ele>212</ele>
        <time>2025-07-17T09:52:36.071Z</time>
      </trkpt>
      <trkpt lat="44.39893" lon="0.99605">
        <ele>211</ele>
        <time>2025-07-17T09:52:37.071Z</time>
      </trkpt>
      <trkpt lat="44.39892" lon="0.99605">
        <ele>211</ele>
        <time>2025-07-17T09:52:38.071Z</time>
      </trkpt>
      <trkpt lat="44.39891" lon="0.99606">
        <ele>210</ele>
        <time>2025-07-17T09:52:39.071Z</time>
      </trkpt>
      <trkpt lat="44.39891" lon="0.99608">
        <ele>210</ele>
        <time>2025-07-17T09:52:40.071Z</time>
      </trkpt>
      <trkpt lat="44.3989" lon="0.9961">
        <ele>209</ele>
        <time>2025-07-17T09:52:41.071Z</time>
      </trkpt>
      <trkpt lat="44.3989" lon="0.99611">
        <ele>209</ele>
        <time>2025-07-17T09:52:42.071Z</time>
      </trkpt>
      <trkpt lat="44.39889" lon="0.99613">
        <ele>209</ele>
        <time>2025-07-17T09:52:43.071Z</time>
      </trkpt>
      <trkpt lat="44.39888" lon="0.99614">
        <ele>208</ele>
        <time>2025-07-17T09:52:44.071Z</time>
      </trkpt>
      <trkpt lat="44.39887" lon="0.99616">
        <ele>208</ele>
        <time>2025-07-17T09:52:45.071Z</time>
      </trkpt>
      <trkpt lat="44.39887" lon="0.99617">
        <ele>207</ele>
        <time>2025-07-17T09:52:46.071Z</time>
      </trkpt>
      <trkpt lat="44.39886" lon="0.99619">
        <ele>207</ele>
        <time>2025-07-17T09:52:47.071Z</time>
      </trkpt>
      <trkpt lat="44.39885" lon="0.99619">
        <ele>207</ele>
        <time>2025-07-17T09:52:48.071Z</time>
      </trkpt>
      <trkpt lat="44.39885" lon="0.99619">
        <ele>207</ele>
        <time>2025-07-17T09:52:49.072Z</time>
      </trkpt>
      <trkpt lat="44.39884" lon="0.99621">
        <ele>207</ele>
        <time>2025-07-17T09:52:50.071Z</time>
      </trkpt>
      <trkpt lat="44.39884" lon="0.99622">
        <ele>208</ele>
        <time>2025-07-17T09:52:51.071Z</time>
      </trkpt>
      <trkpt lat="44.39883" lon="0.99623">
        <ele>208</ele>
        <time>2025-07-17T09:52:52.071Z</time>
      </trkpt>
      <trkpt lat="44.39883" lon="0.99624">
        <ele>208</ele>
        <time>2025-07-17T09:52:53.071Z</time>
      </trkpt>
      <trkpt lat="44.39882" lon="0.99625">
        <ele>207</ele>
        <time>2025-07-17T09:52:54.071Z</time>
      </trkpt>
      <trkpt lat="44.39882" lon="0.99627">
        <ele>207</ele>
        <time>2025-07-17T09:52:55.071Z</time>
      </trkpt>
      <trkpt lat="44.39881" lon="0.99628">
        <ele>207</ele>
        <time>2025-07-17T09:52:56.071Z</time>
      </trkpt>
      <trkpt lat="44.39881" lon="0.99629">
        <ele>207</ele>
        <time>2025-07-17T09:52:57.071Z</time>
      </trkpt>
      <trkpt lat="44.39881" lon="0.99631">
        <ele>207</ele>
        <time>2025-07-17T09:52:58.071Z</time>
      </trkpt>
      <trkpt lat="44.39881" lon="0.99633">
        <ele>206</ele>
        <time>2025-07-17T09:52:59.071Z</time>
      </trkpt>
      <trkpt lat="44.3988" lon="0.99635">
        <ele>206</ele>
        <time>2025-07-17T09:53:00.071Z</time>
      </trkpt>
      <trkpt lat="44.3988" lon="0.99636">
        <ele>206</ele>
        <time>2025-07-17T09:53:01.071Z</time>
      </trkpt>
      <trkpt lat="44.39881" lon="0.99638">
        <ele>206</ele>
        <time>2025-07-17T09:53:02.071Z</time>
      </trkpt>
      <trkpt lat="44.39881" lon="0.99639">
        <ele>205</ele>
        <time>2025-07-17T09:53:03.072Z</time>
      </trkpt>
      <trkpt lat="44.39882" lon="0.99641">
        <ele>205</ele>
        <time>2025-07-17T09:53:04.072Z</time>
      </trkpt>
      <trkpt lat="44.39882" lon="0.99643">
        <ele>205</ele>
        <time>2025-07-17T09:53:05.071Z</time>
      </trkpt>
      <trkpt lat="44.39883" lon="0.99645">
        <ele>205</ele>
        <time>2025-07-17T09:53:06.071Z</time>
      </trkpt>
      <trkpt lat="44.39883" lon="0.99646">
        <ele>205</ele>
        <time>2025-07-17T09:53:07.071Z</time>
      </trkpt>
      <trkpt lat="44.39884" lon="0.99648">
        <ele>205</ele>
        <time>2025-07-17T09:53:08.071Z</time>
      </trkpt>
      <trkpt lat="44.39885" lon="0.99649">
        <ele>205</ele>
        <time>2025-07-17T09:53:09.071Z</time>
      </trkpt>
      <trkpt lat="44.39886" lon="0.9965">
        <ele>204</ele>
        <time>2025-07-17T09:53:10.071Z</time>
      </trkpt>
      <trkpt lat="44.39887" lon="0.99651">
        <ele>203</ele>
        <time>2025-07-17T09:53:11.071Z</time>
      </trkpt>
      <trkpt lat="44.39888" lon="0.99652">
        <ele>202</ele>
        <time>2025-07-17T09:53:12.071Z</time>
      </trkpt>
      <trkpt lat="44.39888" lon="0.99654">
        <ele>202</ele>
        <time>2025-07-17T09:53:13.071Z</time>
      </trkpt>
      <trkpt lat="44.39889" lon="0.99654">
        <ele>202</ele>
        <time>2025-07-17T09:53:14.071Z</time>
      </trkpt>
      <trkpt lat="44.3989" lon="0.99655">
        <ele>201</ele>
        <time>2025-07-17T09:53:15.071Z</time>
      </trkpt>
      <trkpt lat="44.3989" lon="0.99656">
        <ele>201</ele>
        <time>2025-07-17T09:53:16.071Z</time>
      </trkpt>
      <trkpt lat="44.39891" lon="0.99657">
        <ele>201</ele>
        <time>2025-07-17T09:53:17.071Z</time>
      </trkpt>
      <trkpt lat="44.39891" lon="0.99657">
        <ele>202</ele>
        <time>2025-07-17T09:53:18.071Z</time>
      </trkpt>
      <trkpt lat="44.39891" lon="0.99657">
        <ele>202</ele>
        <time>2025-07-17T09:53:19.071Z</time>
      </trkpt>
      <trkpt lat="44.39891" lon="0.99657">
        <ele>203</ele>
        <time>2025-07-17T09:53:20.071Z</time>
      </trkpt>
      <trkpt lat="44.39892" lon="0.99657">
        <ele>203</ele>
        <time>2025-07-17T09:53:21.071Z</time>
      </trkpt>
      <trkpt lat="44.39892" lon="0.99657">
        <ele>203</ele>
        <time>2025-07-17T09:53:22.071Z</time>
      </trkpt>
      <trkpt lat="44.39893" lon="0.99657">
        <ele>204</ele>
        <time>2025-07-17T09:53:23.071Z</time>
      </trkpt>
      <trkpt lat="44.39893" lon="0.99656">
        <ele>203</ele>
        <time>2025-07-17T09:53:24.071Z</time>
      </trkpt>
      <trkpt lat="44.39893" lon="0.99656">
        <ele>203</ele>
        <time>2025-07-17T09:53:25.071Z</time>
      </trkpt>
      <trkpt lat="44.39893" lon="0.99656">
        <ele>203</ele>
        <time>2025-07-17T09:53:26.071Z</time>
      </trkpt>
      <trkpt lat="44.39894" lon="0.99656">
        <ele>202</ele>
        <time>2025-07-17T09:53:27.071Z</time>
      </trkpt>
      <trkpt lat="44.39894" lon="0.99656">
        <ele>202</ele>
        <time>2025-07-17T09:53:28.071Z</time>
      </trkpt>
      <trkpt lat="44.39894" lon="0.99657">
        <ele>202</ele>
        <time>2025-07-17T09:53:29.071Z</time>
      </trkpt>
      <trkpt lat="44.39895" lon="0.99658">
        <ele>201</ele>
        <time>2025-07-17T09:53:30.071Z</time>
      </trkpt>
      <trkpt lat="44.39896" lon="0.99659">
        <ele>201</ele>
        <time>2025-07-17T09:53:31.071Z</time>
      </trkpt>
      <trkpt lat="44.39896" lon="0.9966">
        <ele>201</ele>
        <time>2025-07-17T09:53:32.071Z</time>
      </trkpt>
      <trkpt lat="44.39897" lon="0.9966">
        <ele>200</ele>
        <time>2025-07-17T09:53:33.071Z</time>
      </trkpt>
      <trkpt lat="44.39898" lon="0.99661">
        <ele>200</ele>
        <time>2025-07-17T09:53:34.071Z</time>
      </trkpt>
      <trkpt lat="44.39899" lon="0.99662">
        <ele>200</ele>
        <time>2025-07-17T09:53:35.071Z</time>
      </trkpt>
      <trkpt lat="44.399" lon="0.99663">
        <ele>199</ele>
        <time>2025-07-17T09:53:36.071Z</time>
      </trkpt>
      <trkpt lat="44.39901" lon="0.99665">
        <ele>199</ele>
        <time>2025-07-17T09:53:37.071Z</time>
      </trkpt>
      <trkpt lat="44.39902" lon="0.99666">
        <ele>199</ele>
        <time>2025-07-17T09:53:38.071Z</time>
      </trkpt>
      <trkpt lat="44.39903" lon="0.99667">
        <ele>199</ele>
        <time>2025-07-17T09:53:39.071Z</time>
      </trkpt>
      <trkpt lat="44.39904" lon="0.99668">
        <ele>199</ele>
        <time>2025-07-17T09:53:40.071Z</time>
      </trkpt>
      <trkpt lat="44.39906" lon="0.99669">
        <ele>199</ele>
        <time>2025-07-17T09:53:41.071Z</time>
      </trkpt>
      <trkpt lat="44.39907" lon="0.99671">
        <ele>200</ele>
        <time>2025-07-17T09:53:42.071Z</time>
      </trkpt>
      <trkpt lat="44.39908" lon="0.99672">
        <ele>200</ele>
        <time>2025-07-17T09:53:43.071Z</time>
      </trkpt>
      <trkpt lat="44.39909" lon="0.99673">
        <ele>200</ele>
        <time>2025-07-17T09:53:44.071Z</time>
      </trkpt>
      <trkpt lat="44.3991" lon="0.99675">
        <ele>200</ele>
        <time>2025-07-17T09:53:45.071Z</time>
      </trkpt>
      <trkpt lat="44.3991" lon="0.99676">
        <ele>200</ele>
        <time>2025-07-17T09:53:46.071Z</time>
      </trkpt>
      <trkpt lat="44.39911" lon="0.99677">
        <ele>200</ele>
        <time>2025-07-17T09:53:47.071Z</time>
      </trkpt>
      <trkpt lat="44.39912" lon="0.99678">
        <ele>200</ele>
        <time>2025-07-17T09:53:48.071Z</time>
      </trkpt>
      <trkpt lat="44.39913" lon="0.99679">
        <ele>200</ele>
        <time>2025-07-17T09:53:49.071Z</time>
      </trkpt>
      <trkpt lat="44.39914" lon="0.9968">
        <ele>199</ele>
        <time>2025-07-17T09:53:50.071Z</time>
      </trkpt>
      <trkpt lat="44.39915" lon="0.99681">
        <ele>199</ele>
        <time>2025-07-17T09:53:51.071Z</time>
      </trkpt>
      <trkpt lat="44.39916" lon="0.99684">
        <ele>199</ele>
        <time>2025-07-17T09:53:52.071Z</time>
      </trkpt>
      <trkpt lat="44.39917" lon="0.99686">
        <ele>200</ele>
        <time>2025-07-17T09:53:53.072Z</time>
      </trkpt>
      <trkpt lat="44.39918" lon="0.99688">
        <ele>200</ele>
        <time>2025-07-17T09:53:54.071Z</time>
      </trkpt>
      <trkpt lat="44.39918" lon="0.99689">
        <ele>200</ele>
        <time>2025-07-17T09:53:55.071Z</time>
      </trkpt>
      <trkpt lat="44.3992" lon="0.9969">
        <ele>200</ele>
        <time>2025-07-17T09:53:56.071Z</time>
      </trkpt>
      <trkpt lat="44.39921" lon="0.99691">
        <ele>200</ele>
        <time>2025-07-17T09:53:57.071Z</time>
      </trkpt>
      <trkpt lat="44.39922" lon="0.99692">
        <ele>200</ele>
        <time>2025-07-17T09:53:58.071Z</time>
      </trkpt>
      <trkpt lat="44.39923" lon="0.99693">
        <ele>200</ele>
        <time>2025-07-17T09:53:59.071Z</time>
      </trkpt>
      <trkpt lat="44.39924" lon="0.99694">
        <ele>201</ele>
        <time>2025-07-17T09:54:00.071Z</time>
      </trkpt>
      <trkpt lat="44.39925" lon="0.99694">
        <ele>201</ele>
        <time>2025-07-17T09:54:01.072Z</time>
      </trkpt>
      <trkpt lat="44.39926" lon="0.99695">
        <ele>201</ele>
        <time>2025-07-17T09:54:02.071Z</time>
      </trkpt>
      <trkpt lat="44.39927" lon="0.99696">
        <ele>201</ele>
        <time>2025-07-17T09:54:03.071Z</time>
      </trkpt>
      <trkpt lat="44.39928" lon="0.99697">
        <ele>200</ele>
        <time>2025-07-17T09:54:04.071Z</time>
      </trkpt>
      <trkpt lat="44.39928" lon="0.99698">
        <ele>200</ele>
        <time>2025-07-17T09:54:05.071Z</time>
      </trkpt>
      <trkpt lat="44.39929" lon="0.99699">
        <ele>200</ele>
        <time>2025-07-17T09:54:06.071Z</time>
      </trkpt>
      <trkpt lat="44.3993" lon="0.997">
        <ele>201</ele>
        <time>2025-07-17T09:54:07.071Z</time>
      </trkpt>
      <trkpt lat="44.39931" lon="0.99701">
        <ele>201</ele>
        <time>2025-07-17T09:54:08.071Z</time>
      </trkpt>
      <trkpt lat="44.39932" lon="0.99702">
        <ele>201</ele>
        <time>2025-07-17T09:54:09.071Z</time>
      </trkpt>
      <trkpt lat="44.39934" lon="0.99703">
        <ele>201</ele>
        <time>2025-07-17T09:54:10.071Z</time>
      </trkpt>
      <trkpt lat="44.39935" lon="0.99704">
        <ele>201</ele>
        <time>2025-07-17T09:54:11.071Z</time>
      </trkpt>
      <trkpt lat="44.39936" lon="0.99704">
        <ele>202</ele>
        <time>2025-07-17T09:54:12.071Z</time>
      </trkpt>
      <trkpt lat="44.39937" lon="0.99706">
        <ele>202</ele>
        <time>2025-07-17T09:54:13.071Z</time>
      </trkpt>
      <trkpt lat="44.39938" lon="0.99707">
        <ele>202</ele>
        <time>2025-07-17T09:54:14.071Z</time>
      </trkpt>
      <trkpt lat="44.39938" lon="0.99709">
        <ele>203</ele>
        <time>2025-07-17T09:54:15.071Z</time>
      </trkpt>
      <trkpt lat="44.39938" lon="0.99711">
        <ele>203</ele>
        <time>2025-07-17T09:54:16.071Z</time>
      </trkpt>
      <trkpt lat="44.39939" lon="0.99712">
        <ele>203</ele>
        <time>2025-07-17T09:54:17.071Z</time>
      </trkpt>
      <trkpt lat="44.39939" lon="0.99714">
        <ele>204</ele>
        <time>2025-07-17T09:54:18.071Z</time>
      </trkpt>
      <trkpt lat="44.3994" lon="0.99715">
        <ele>204</ele>
        <time>2025-07-17T09:54:19.071Z</time>
      </trkpt>
      <trkpt lat="44.39941" lon="0.99717">
        <ele>204</ele>
        <time>2025-07-17T09:54:20.072Z</time>
      </trkpt>
      <trkpt lat="44.39942" lon="0.99718">
        <ele>205</ele>
        <time>2025-07-17T09:54:21.071Z</time>
      </trkpt>
      <trkpt lat="44.39943" lon="0.99719">
        <ele>205</ele>
        <time>2025-07-17T09:54:22.071Z</time>
      </trkpt>
      <trkpt lat="44.39944" lon="0.99719">
        <ele>205</ele>
        <time>2025-07-17T09:54:23.071Z</time>
      </trkpt>
      <trkpt lat="44.39944" lon="0.9972">
        <ele>205</ele>
        <time>2025-07-17T09:54:24.071Z</time>
      </trkpt>
      <trkpt lat="44.39945" lon="0.99721">
        <ele>205</ele>
        <time>2025-07-17T09:54:25.071Z</time>
      </trkpt>
      <trkpt lat="44.39946" lon="0.99722">
        <ele>205</ele>
        <time>2025-07-17T09:54:26.071Z</time>
      </trkpt>
      <trkpt lat="44.39946" lon="0.99723">
        <ele>205</ele>
        <time>2025-07-17T09:54:27.071Z</time>
      </trkpt>
      <trkpt lat="44.39947" lon="0.99724">
        <ele>205</ele>
        <time>2025-07-17T09:54:28.071Z</time>
      </trkpt>
      <trkpt lat="44.39949" lon="0.99724">
        <ele>205</ele>
        <time>2025-07-17T09:54:29.071Z</time>
      </trkpt>
      <trkpt lat="44.3995" lon="0.99725">
        <ele>205</ele>
        <time>2025-07-17T09:54:30.071Z</time>
      </trkpt>
      <trkpt lat="44.39951" lon="0.99726">
        <ele>205</ele>
        <time>2025-07-17T09:54:31.071Z</time>
      </trkpt>
      <trkpt lat="44.39952" lon="0.99726">
        <ele>205</ele>
        <time>2025-07-17T09:54:32.071Z</time>
      </trkpt>
      <trkpt lat="44.39952" lon="0.99725">
        <ele>204</ele>
        <time>2025-07-17T09:54:33.071Z</time>
      </trkpt>
      <trkpt lat="44.39954" lon="0.99725">
        <ele>204</ele>
        <time>2025-07-17T09:54:34.071Z</time>
      </trkpt>
      <trkpt lat="44.39955" lon="0.99725">
        <ele>204</ele>
        <time>2025-07-17T09:54:35.071Z</time>
      </trkpt>
      <trkpt lat="44.39956" lon="0.99725">
        <ele>204</ele>
        <time>2025-07-17T09:54:36.071Z</time>
      </trkpt>
      <trkpt lat="44.39957" lon="0.99724">
        <ele>203</ele>
        <time>2025-07-17T09:54:37.071Z</time>
      </trkpt>
      <trkpt lat="44.39957" lon="0.99724">
        <ele>203</ele>
        <time>2025-07-17T09:54:38.072Z</time>
      </trkpt>
      <trkpt lat="44.39959" lon="0.99724">
        <ele>203</ele>
        <time>2025-07-17T09:54:39.072Z</time>
      </trkpt>
      <trkpt lat="44.3996" lon="0.99724">
        <ele>202</ele>
        <time>2025-07-17T09:54:40.071Z</time>
      </trkpt>
      <trkpt lat="44.39961" lon="0.99724">
        <ele>202</ele>
        <time>2025-07-17T09:54:41.071Z</time>
      </trkpt>
      <trkpt lat="44.39962" lon="0.99725">
        <ele>201</ele>
        <time>2025-07-17T09:54:42.071Z</time>
      </trkpt>
      <trkpt lat="44.39963" lon="0.99725">
        <ele>201</ele>
        <time>2025-07-17T09:54:43.071Z</time>
      </trkpt>
      <trkpt lat="44.39966" lon="0.99725">
        <ele>200</ele>
        <time>2025-07-17T09:54:44.071Z</time>
      </trkpt>
      <trkpt lat="44.39966" lon="0.99727">
        <ele>200</ele>
        <time>2025-07-17T09:54:45.072Z</time>
      </trkpt>
      <trkpt lat="44.39967" lon="0.99728">
        <ele>199</ele>
        <time>2025-07-17T09:54:46.071Z</time>
      </trkpt>
      <trkpt lat="44.39968" lon="0.99727">
        <ele>199</ele>
        <time>2025-07-17T09:54:47.072Z</time>
      </trkpt>
      <trkpt lat="44.39969" lon="0.99726">
        <ele>199</ele>
        <time>2025-07-17T09:54:48.071Z</time>
      </trkpt>
      <trkpt lat="44.39969" lon="0.99725">
        <ele>198</ele>
        <time>2025-07-17T09:54:49.072Z</time>
      </trkpt>
      <trkpt lat="44.3997" lon="0.99725">
        <ele>198</ele>
        <time>2025-07-17T09:54:50.072Z</time>
      </trkpt>
      <trkpt lat="44.39972" lon="0.99725">
        <ele>198</ele>
        <time>2025-07-17T09:54:51.072Z</time>
      </trkpt>
      <trkpt lat="44.39973" lon="0.99725">
        <ele>198</ele>
        <time>2025-07-17T09:54:52.071Z</time>
      </trkpt>
      <trkpt lat="44.39973" lon="0.99725">
        <ele>198</ele>
        <time>2025-07-17T09:54:53.071Z</time>
      </trkpt>
      <trkpt lat="44.39974" lon="0.99725">
        <ele>198</ele>
        <time>2025-07-17T09:54:54.071Z</time>
      </trkpt>
      <trkpt lat="44.39975" lon="0.99724">
        <ele>198</ele>
        <time>2025-07-17T09:54:55.071Z</time>
      </trkpt>
      <trkpt lat="44.39976" lon="0.99724">
        <ele>198</ele>
        <time>2025-07-17T09:54:56.071Z</time>
      </trkpt>
      <trkpt lat="44.39978" lon="0.99723">
        <ele>198</ele>
        <time>2025-07-17T09:54:57.071Z</time>
      </trkpt>
      <trkpt lat="44.39978" lon="0.99724">
        <ele>198</ele>
        <time>2025-07-17T09:54:58.071Z</time>
      </trkpt>
      <trkpt lat="44.39979" lon="0.99723">
        <ele>198</ele>
        <time>2025-07-17T09:54:59.071Z</time>
      </trkpt>
      <trkpt lat="44.3998" lon="0.99722">
        <ele>198</ele>
        <time>2025-07-17T09:55:00.071Z</time>
      </trkpt>
      <trkpt lat="44.39982" lon="0.99721">
        <ele>198</ele>
        <time>2025-07-17T09:55:01.071Z</time>
      </trkpt>
      <trkpt lat="44.39983" lon="0.99721">
        <ele>198</ele>
        <time>2025-07-17T09:55:02.071Z</time>
      </trkpt>
      <trkpt lat="44.39984" lon="0.99721">
        <ele>199</ele>
        <time>2025-07-17T09:55:03.071Z</time>
      </trkpt>
      <trkpt lat="44.39985" lon="0.99721">
        <ele>199</ele>
        <time>2025-07-17T09:55:04.071Z</time>
      </trkpt>
      <trkpt lat="44.39986" lon="0.9972">
        <ele>200</ele>
        <time>2025-07-17T09:55:05.071Z</time>
      </trkpt>
      <trkpt lat="44.39987" lon="0.9972">
        <ele>200</ele>
        <time>2025-07-17T09:55:06.071Z</time>
      </trkpt>
      <trkpt lat="44.39988" lon="0.99719">
        <ele>200</ele>
        <time>2025-07-17T09:55:07.071Z</time>
      </trkpt>
      <trkpt lat="44.39989" lon="0.99719">
        <ele>201</ele>
        <time>2025-07-17T09:55:08.072Z</time>
      </trkpt>
      <trkpt lat="44.39989" lon="0.99717">
        <ele>201</ele>
        <time>2025-07-17T09:55:09.071Z</time>
      </trkpt>
      <trkpt lat="44.3999" lon="0.99716">
        <ele>202</ele>
        <time>2025-07-17T09:55:10.071Z</time>
      </trkpt>
      <trkpt lat="44.39991" lon="0.99714">
        <ele>203</ele>
        <time>2025-07-17T09:55:11.071Z</time>
      </trkpt>
      <trkpt lat="44.39992" lon="0.99713">
        <ele>203</ele>
        <time>2025-07-17T09:55:12.071Z</time>
      </trkpt>
      <trkpt lat="44.39992" lon="0.99712">
        <ele>203</ele>
        <time>2025-07-17T09:55:13.071Z</time>
      </trkpt>
      <trkpt lat="44.39993" lon="0.99711">
        <ele>204</ele>
        <time>2025-07-17T09:55:14.071Z</time>
      </trkpt>
      <trkpt lat="44.39994" lon="0.9971">
        <ele>204</ele>
        <time>2025-07-17T09:55:15.071Z</time>
      </trkpt>
      <trkpt lat="44.39995" lon="0.99709">
        <ele>204</ele>
        <time>2025-07-17T09:55:16.071Z</time>
      </trkpt>
      <trkpt lat="44.39995" lon="0.99708">
        <ele>205</ele>
        <time>2025-07-17T09:55:17.071Z</time>
      </trkpt>
      <trkpt lat="44.39996" lon="0.99706">
        <ele>205</ele>
        <time>2025-07-17T09:55:18.072Z</time>
      </trkpt>
      <trkpt lat="44.39997" lon="0.99705">
        <ele>205</ele>
        <time>2025-07-17T09:55:19.071Z</time>
      </trkpt>
      <trkpt lat="44.39998" lon="0.99704">
        <ele>206</ele>
        <time>2025-07-17T09:55:20.071Z</time>
      </trkpt>
      <trkpt lat="44.39999" lon="0.99703">
        <ele>206</ele>
        <time>2025-07-17T09:55:21.072Z</time>
      </trkpt>
      <trkpt lat="44.4" lon="0.99701">
        <ele>206</ele>
        <time>2025-07-17T09:55:22.072Z</time>
      </trkpt>
      <trkpt lat="44.40001" lon="0.99699">
        <ele>206</ele>
        <time>2025-07-17T09:55:23.071Z</time>
      </trkpt>
      <trkpt lat="44.40003" lon="0.99698">
        <ele>206</ele>
        <time>2025-07-17T09:55:24.071Z</time>
      </trkpt>
      <trkpt lat="44.40004" lon="0.99697">
        <ele>206</ele>
        <time>2025-07-17T09:55:25.071Z</time>
      </trkpt>
      <trkpt lat="44.40005" lon="0.99696">
        <ele>206</ele>
        <time>2025-07-17T09:55:26.071Z</time>
      </trkpt>
      <trkpt lat="44.40007" lon="0.99696">
        <ele>206</ele>
        <time>2025-07-17T09:55:27.071Z</time>
      </trkpt>
      <trkpt lat="44.40008" lon="0.99695">
        <ele>207</ele>
        <time>2025-07-17T09:55:28.072Z</time>
      </trkpt>
      <trkpt lat="44.40009" lon="0.99694">
        <ele>207</ele>
        <time>2025-07-17T09:55:29.071Z</time>
      </trkpt>
      <trkpt lat="44.4001" lon="0.99694">
        <ele>208</ele>
        <time>2025-07-17T09:55:30.072Z</time>
      </trkpt>
      <trkpt lat="44.40012" lon="0.99693">
        <ele>208</ele>
        <time>2025-07-17T09:55:31.071Z</time>
      </trkpt>
      <trkpt lat="44.40012" lon="0.99693">
        <ele>208</ele>
        <time>2025-07-17T09:55:32.071Z</time>
      </trkpt>
      <trkpt lat="44.40014" lon="0.99692">
        <ele>208</ele>
        <time>2025-07-17T09:55:33.071Z</time>
      </trkpt>
      <trkpt lat="44.40015" lon="0.99691">
        <ele>208</ele>
        <time>2025-07-17T09:55:34.071Z</time>
      </trkpt>
      <trkpt lat="44.40017" lon="0.9969">
        <ele>208</ele>
        <time>2025-07-17T09:55:35.071Z</time>
      </trkpt>
      <trkpt lat="44.40017" lon="0.99689">
        <ele>208</ele>
        <time>2025-07-17T09:55:36.071Z</time>
      </trkpt>
      <trkpt lat="44.40018" lon="0.99689">
        <ele>208</ele>
        <time>2025-07-17T09:55:37.071Z</time>
      </trkpt>
      <trkpt lat="44.40019" lon="0.99688">
        <ele>208</ele>
        <time>2025-07-17T09:55:38.071Z</time>
      </trkpt>
      <trkpt lat="44.4002" lon="0.99686">
        <ele>208</ele>
        <time>2025-07-17T09:55:39.071Z</time>
      </trkpt>
      <trkpt lat="44.40021" lon="0.99685">
        <ele>207</ele>
        <time>2025-07-17T09:55:40.071Z</time>
      </trkpt>
      <trkpt lat="44.40021" lon="0.99684">
        <ele>207</ele>
        <time>2025-07-17T09:55:41.071Z</time>
      </trkpt>
      <trkpt lat="44.40021" lon="0.99684">
        <ele>207</ele>
        <time>2025-07-17T09:55:42.072Z</time>
      </trkpt>
      <trkpt lat="44.40021" lon="0.99683">
        <ele>207</ele>
        <time>2025-07-17T09:55:43.071Z</time>
      </trkpt>
      <trkpt lat="44.40022" lon="0.99682">
        <ele>207</ele>
        <time>2025-07-17T09:55:44.071Z</time>
      </trkpt>
      <trkpt lat="44.40022" lon="0.99681">
        <ele>207</ele>
        <time>2025-07-17T09:55:45.071Z</time>
      </trkpt>
      <trkpt lat="44.40023" lon="0.99681">
        <ele>206</ele>
        <time>2025-07-17T09:55:46.071Z</time>
      </trkpt>
      <trkpt lat="44.40024" lon="0.9968">
        <ele>206</ele>
        <time>2025-07-17T09:55:47.071Z</time>
      </trkpt>
      <trkpt lat="44.40025" lon="0.99679">
        <ele>206</ele>
        <time>2025-07-17T09:55:48.071Z</time>
      </trkpt>
      <trkpt lat="44.40026" lon="0.99677">
        <ele>206</ele>
        <time>2025-07-17T09:55:49.071Z</time>
      </trkpt>
      <trkpt lat="44.40026" lon="0.99676">
        <ele>207</ele>
        <time>2025-07-17T09:55:50.071Z</time>
      </trkpt>
      <trkpt lat="44.40027" lon="0.99675">
        <ele>207</ele>
        <time>2025-07-17T09:55:51.071Z</time>
      </trkpt>
      <trkpt lat="44.40027" lon="0.99675">
        <ele>207</ele>
        <time>2025-07-17T09:55:52.071Z</time>
      </trkpt>
      <trkpt lat="44.40028" lon="0.99674">
        <ele>207</ele>
        <time>2025-07-17T09:55:53.071Z</time>
      </trkpt>
      <trkpt lat="44.40028" lon="0.99674">
        <ele>207</ele>
        <time>2025-07-17T09:55:54.071Z</time>
      </trkpt>
      <trkpt lat="44.40028" lon="0.99674">
        <ele>206</ele>
        <time>2025-07-17T09:55:55.071Z</time>
      </trkpt>
      <trkpt lat="44.40029" lon="0.99674">
        <ele>206</ele>
        <time>2025-07-17T09:55:56.071Z</time>
      </trkpt>
      <trkpt lat="44.40029" lon="0.99674">
        <ele>206</ele>
        <time>2025-07-17T09:55:57.071Z</time>
      </trkpt>
      <trkpt lat="44.40029" lon="0.99674">
        <ele>206</ele>
        <time>2025-07-17T09:55:58.071Z</time>
      </trkpt>
      <trkpt lat="44.40029" lon="0.99674">
        <ele>206</ele>
        <time>2025-07-17T09:55:59.071Z</time>
      </trkpt>
      <trkpt lat="44.40029" lon="0.99674">
        <ele>206</ele>
        <time>2025-07-17T09:56:00.071Z</time>
      </trkpt>
      <trkpt lat="44.40029" lon="0.99674">
        <ele>205</ele>
        <time>2025-07-17T09:56:01.071Z</time>
      </trkpt>
      <trkpt lat="44.40028" lon="0.99674">
        <ele>205</ele>
        <time>2025-07-17T09:56:02.071Z</time>
      </trkpt>
      <trkpt lat="44.40028" lon="0.99674">
        <ele>204</ele>
        <time>2025-07-17T09:56:03.071Z</time>
      </trkpt>
      <trkpt lat="44.40028" lon="0.99674">
        <ele>204</ele>
        <time>2025-07-17T09:56:04.071Z</time>
      </trkpt>
      <trkpt lat="44.40028" lon="0.99674">
        <ele>204</ele>
        <time>2025-07-17T09:56:05.071Z</time>
      </trkpt>
      <trkpt lat="44.40029" lon="0.99674">
        <ele>204</ele>
        <time>2025-07-17T09:56:06.071Z</time>
      </trkpt>
      <trkpt lat="44.40029" lon="0.99674">
        <ele>204</ele>
        <time>2025-07-17T09:56:07.071Z</time>
      </trkpt>
      <trkpt lat="44.40029" lon="0.99675">
        <ele>204</ele>
        <time>2025-07-17T09:56:08.071Z</time>
      </trkpt>
      <trkpt lat="44.4003" lon="0.99675">
        <ele>204</ele>
        <time>2025-07-17T09:56:09.071Z</time>
      </trkpt>
      <trkpt lat="44.4003" lon="0.99675">
        <ele>204</ele>
        <time>2025-07-17T09:56:10.071Z</time>
      </trkpt>
      <trkpt lat="44.40031" lon="0.99676">
        <ele>205</ele>
        <time>2025-07-17T09:56:11.071Z</time>
      </trkpt>
      <trkpt lat="44.40031" lon="0.99676">
        <ele>205</ele>
        <time>2025-07-17T09:56:12.071Z</time>
      </trkpt>
      <trkpt lat="44.40031" lon="0.99676">
        <ele>205</ele>
        <time>2025-07-17T09:56:13.071Z</time>
      </trkpt>
      <trkpt lat="44.40031" lon="0.99675">
        <ele>205</ele>
        <time>2025-07-17T09:56:14.071Z</time>
      </trkpt>
      <trkpt lat="44.40032" lon="0.99675">
        <ele>205</ele>
        <time>2025-07-17T09:56:15.071Z</time>
      </trkpt>
      <trkpt lat="44.40032" lon="0.99675">
        <ele>205</ele>
        <time>2025-07-17T09:56:16.071Z</time>
      </trkpt>
      <trkpt lat="44.40033" lon="0.99675">
        <ele>205</ele>
        <time>2025-07-17T09:56:17.071Z</time>
      </trkpt>
      <trkpt lat="44.40034" lon="0.99675">
        <ele>205</ele>
        <time>2025-07-17T09:56:18.071Z</time>
      </trkpt>
      <trkpt lat="44.40035" lon="0.99675">
        <ele>205</ele>
        <time>2025-07-17T09:56:19.071Z</time>
      </trkpt>
      <trkpt lat="44.40035" lon="0.99675">
        <ele>205</ele>
        <time>2025-07-17T09:56:20.071Z</time>
      </trkpt>
      <trkpt lat="44.40036" lon="0.99675">
        <ele>205</ele>
        <time>2025-07-17T09:56:21.072Z</time>
      </trkpt>
      <trkpt lat="44.40036" lon="0.99675">
        <ele>205</ele>
        <time>2025-07-17T09:56:22.071Z</time>
      </trkpt>
      <trkpt lat="44.40036" lon="0.99674">
        <ele>205</ele>
        <time>2025-07-17T09:56:23.071Z</time>
      </trkpt>
      <trkpt lat="44.40037" lon="0.99674">
        <ele>205</ele>
        <time>2025-07-17T09:56:24.071Z</time>
      </trkpt>
      <trkpt lat="44.40036" lon="0.99673">
        <ele>205</ele>
        <time>2025-07-17T09:56:25.071Z</time>
      </trkpt>
      <trkpt lat="44.40037" lon="0.99672">
        <ele>205</ele>
        <time>2025-07-17T09:56:26.071Z</time>
      </trkpt>
      <trkpt lat="44.40038" lon="0.99672">
        <ele>205</ele>
        <time>2025-07-17T09:56:27.071Z</time>
      </trkpt>
      <trkpt lat="44.40038" lon="0.9967">
        <ele>205</ele>
        <time>2025-07-17T09:56:28.071Z</time>
      </trkpt>
      <trkpt lat="44.40038" lon="0.99669">
        <ele>205</ele>
        <time>2025-07-17T09:56:29.071Z</time>
      </trkpt>
      <trkpt lat="44.40038" lon="0.99668">
        <ele>205</ele>
        <time>2025-07-17T09:56:30.071Z</time>
      </trkpt>
      <trkpt lat="44.40039" lon="0.99668">
        <ele>205</ele>
        <time>2025-07-17T09:56:31.071Z</time>
      </trkpt>
      <trkpt lat="44.40039" lon="0.99668">
        <ele>206</ele>
        <time>2025-07-17T09:56:32.071Z</time>
      </trkpt>
      <trkpt lat="44.40039" lon="0.99667">
        <ele>206</ele>
        <time>2025-07-17T09:56:33.071Z</time>
      </trkpt>
      <trkpt lat="44.40039" lon="0.99667">
        <ele>206</ele>
        <time>2025-07-17T09:56:34.071Z</time>
      </trkpt>
      <trkpt lat="44.40039" lon="0.99667">
        <ele>206</ele>
        <time>2025-07-17T09:56:35.071Z</time>
      </trkpt>
      <trkpt lat="44.40039" lon="0.99667">
        <ele>206</ele>
        <time>2025-07-17T09:56:36.071Z</time>
      </trkpt>
      <trkpt lat="44.4004" lon="0.99667">
        <ele>206</ele>
        <time>2025-07-17T09:56:37.071Z</time>
      </trkpt>
      <trkpt lat="44.4004" lon="0.99667">
        <ele>206</ele>
        <time>2025-07-17T09:56:38.071Z</time>
      </trkpt>
      <trkpt lat="44.40041" lon="0.99666">
        <ele>206</ele>
        <time>2025-07-17T09:56:39.071Z</time>
      </trkpt>
      <trkpt lat="44.40042" lon="0.99666">
        <ele>206</ele>
        <time>2025-07-17T09:56:40.071Z</time>
      </trkpt>
      <trkpt lat="44.40042" lon="0.99666">
        <ele>206</ele>
        <time>2025-07-17T09:56:41.071Z</time>
      </trkpt>
      <trkpt lat="44.40043" lon="0.99665">
        <ele>205</ele>
        <time>2025-07-17T09:56:42.071Z</time>
      </trkpt>
      <trkpt lat="44.40044" lon="0.99664">
        <ele>205</ele>
        <time>2025-07-17T09:56:43.071Z</time>
      </trkpt>
      <trkpt lat="44.40045" lon="0.99664">
        <ele>205</ele>
        <time>2025-07-17T09:56:44.071Z</time>
      </trkpt>
      <trkpt lat="44.40045" lon="0.99663">
        <ele>205</ele>
        <time>2025-07-17T09:56:45.071Z</time>
      </trkpt>
      <trkpt lat="44.40046" lon="0.99663">
        <ele>205</ele>
        <time>2025-07-17T09:56:46.071Z</time>
      </trkpt>
      <trkpt lat="44.40046" lon="0.99663">
        <ele>205</ele>
        <time>2025-07-17T09:56:47.071Z</time>
      </trkpt>
      <trkpt lat="44.40047" lon="0.99663">
        <ele>204</ele>
        <time>2025-07-17T09:56:48.071Z</time>
      </trkpt>
      <trkpt lat="44.40048" lon="0.99663">
        <ele>204</ele>
        <time>2025-07-17T09:56:49.071Z</time>
      </trkpt>
      <trkpt lat="44.40049" lon="0.99663">
        <ele>204</ele>
        <time>2025-07-17T09:56:50.071Z</time>
      </trkpt>
      <trkpt lat="44.40049" lon="0.99663">
        <ele>204</ele>
        <time>2025-07-17T09:56:51.071Z</time>
      </trkpt>
      <trkpt lat="44.4005" lon="0.99664">
        <ele>203</ele>
        <time>2025-07-17T09:56:52.071Z</time>
      </trkpt>
      <trkpt lat="44.40052" lon="0.99665">
        <ele>203</ele>
        <time>2025-07-17T09:56:53.071Z</time>
      </trkpt>
      <trkpt lat="44.40053" lon="0.99665">
        <ele>202</ele>
        <time>2025-07-17T09:56:54.071Z</time>
      </trkpt>
      <trkpt lat="44.40054" lon="0.99665">
        <ele>202</ele>
        <time>2025-07-17T09:56:55.071Z</time>
      </trkpt>
      <trkpt lat="44.40054" lon="0.99664">
        <ele>201</ele>
        <time>2025-07-17T09:56:56.072Z</time>
      </trkpt>
      <trkpt lat="44.40054" lon="0.99664">
        <ele>201</ele>
        <time>2025-07-17T09:56:57.071Z</time>
      </trkpt>
      <trkpt lat="44.40054" lon="0.99664">
        <ele>200</ele>
        <time>2025-07-17T09:56:58.071Z</time>
      </trkpt>
      <trkpt lat="44.40055" lon="0.99664">
        <ele>200</ele>
        <time>2025-07-17T09:56:59.071Z</time>
      </trkpt>
      <trkpt lat="44.40055" lon="0.99664">
        <ele>199</ele>
        <time>2025-07-17T09:57:00.071Z</time>
      </trkpt>
      <trkpt lat="44.40056" lon="0.99664">
        <ele>199</ele>
        <time>2025-07-17T09:57:01.071Z</time>
      </trkpt>
      <trkpt lat="44.40056" lon="0.99664">
        <ele>199</ele>
        <time>2025-07-17T09:57:02.071Z</time>
      </trkpt>
      <trkpt lat="44.40055" lon="0.99663">
        <ele>198</ele>
        <time>2025-07-17T09:57:03.071Z</time>
      </trkpt>
      <trkpt lat="44.40055" lon="0.99663">
        <ele>198</ele>
        <time>2025-07-17T09:57:04.071Z</time>
      </trkpt>
      <trkpt lat="44.40056" lon="0.99663">
        <ele>198</ele>
        <time>2025-07-17T09:57:05.071Z</time>
      </trkpt>
      <trkpt lat="44.40056" lon="0.99664">
        <ele>198</ele>
        <time>2025-07-17T09:57:06.071Z</time>
      </trkpt>
      <trkpt lat="44.40057" lon="0.99663">
        <ele>198</ele>
        <time>2025-07-17T09:57:07.071Z</time>
      </trkpt>
      <trkpt lat="44.40058" lon="0.99663">
        <ele>198</ele>
        <time>2025-07-17T09:57:08.071Z</time>
      </trkpt>
      <trkpt lat="44.40059" lon="0.99664">
        <ele>198</ele>
        <time>2025-07-17T09:57:09.071Z</time>
      </trkpt>
      <trkpt lat="44.40059" lon="0.99664">
        <ele>198</ele>
        <time>2025-07-17T09:57:10.071Z</time>
      </trkpt>
      <trkpt lat="44.4006" lon="0.99665">
        <ele>198</ele>
        <time>2025-07-17T09:57:11.071Z</time>
      </trkpt>
      <trkpt lat="44.4006" lon="0.99665">
        <ele>197</ele>
        <time>2025-07-17T09:57:12.071Z</time>
      </trkpt>
      <trkpt lat="44.40061" lon="0.99665">
        <ele>197</ele>
        <time>2025-07-17T09:57:13.071Z</time>
      </trkpt>
      <trkpt lat="44.40061" lon="0.99666">
        <ele>197</ele>
        <time>2025-07-17T09:57:14.071Z</time>
      </trkpt>
      <trkpt lat="44.40062" lon="0.99667">
        <ele>196</ele>
        <time>2025-07-17T09:57:15.071Z</time>
      </trkpt>
      <trkpt lat="44.40063" lon="0.99668">
        <ele>195</ele>
        <time>2025-07-17T09:57:16.071Z</time>
      </trkpt>
      <trkpt lat="44.40064" lon="0.99668">
        <ele>195</ele>
        <time>2025-07-17T09:57:17.071Z</time>
      </trkpt>
      <trkpt lat="44.40064" lon="0.99668">
        <ele>194</ele>
        <time>2025-07-17T09:57:18.071Z</time>
      </trkpt>
      <trkpt lat="44.40064" lon="0.99668">
        <ele>194</ele>
        <time>2025-07-17T09:57:19.071Z</time>
      </trkpt>
      <trkpt lat="44.40065" lon="0.99669">
        <ele>193</ele>
        <time>2025-07-17T09:57:20.071Z</time>
      </trkpt>
      <trkpt lat="44.40065" lon="0.99669">
        <ele>193</ele>
        <time>2025-07-17T09:57:21.071Z</time>
      </trkpt>
      <trkpt lat="44.40066" lon="0.99669">
        <ele>192</ele>
        <time>2025-07-17T09:57:22.071Z</time>
      </trkpt>
      <trkpt lat="44.40066" lon="0.99669">
        <ele>192</ele>
        <time>2025-07-17T09:57:23.071Z</time>
      </trkpt>
      <trkpt lat="44.40067" lon="0.99669">
        <ele>191</ele>
        <time>2025-07-17T09:57:24.071Z</time>
      </trkpt>
      <trkpt lat="44.40067" lon="0.9967">
        <ele>191</ele>
        <time>2025-07-17T09:57:25.071Z</time>
      </trkpt>
      <trkpt lat="44.40068" lon="0.9967">
        <ele>190</ele>
        <time>2025-07-17T09:57:26.072Z</time>
      </trkpt>
      <trkpt lat="44.40068" lon="0.9967">
        <ele>190</ele>
        <time>2025-07-17T09:57:27.071Z</time>
      </trkpt>
      <trkpt lat="44.40068" lon="0.9967">
        <ele>190</ele>
        <time>2025-07-17T09:57:28.071Z</time>
      </trkpt>
      <trkpt lat="44.40069" lon="0.99671">
        <ele>190</ele>
        <time>2025-07-17T09:57:29.071Z</time>
      </trkpt>
      <trkpt lat="44.4007" lon="0.99672">
        <ele>189</ele>
        <time>2025-07-17T09:57:30.071Z</time>
      </trkpt>
      <trkpt lat="44.4007" lon="0.99673">
        <ele>189</ele>
        <time>2025-07-17T09:57:31.071Z</time>
      </trkpt>
      <trkpt lat="44.40071" lon="0.99673">
        <ele>189</ele>
        <time>2025-07-17T09:57:32.071Z</time>
      </trkpt>
      <trkpt lat="44.40071" lon="0.99674">
        <ele>189</ele>
        <time>2025-07-17T09:57:33.071Z</time>
      </trkpt>
      <trkpt lat="44.40072" lon="0.99674">
        <ele>188</ele>
        <time>2025-07-17T09:57:34.071Z</time>
      </trkpt>
      <trkpt lat="44.40072" lon="0.99674">
        <ele>188</ele>
        <time>2025-07-17T09:57:35.071Z</time>
      </trkpt>
      <trkpt lat="44.40073" lon="0.99674">
        <ele>188</ele>
        <time>2025-07-17T09:57:36.071Z</time>
      </trkpt>
      <trkpt lat="44.40073" lon="0.99675">
        <ele>187</ele>
        <time>2025-07-17T09:57:37.071Z</time>
      </trkpt>
      <trkpt lat="44.40073" lon="0.99675">
        <ele>187</ele>
        <time>2025-07-17T09:57:38.071Z</time>
      </trkpt>
      <trkpt lat="44.40074" lon="0.99675">
        <ele>186</ele>
        <time>2025-07-17T09:57:39.071Z</time>
      </trkpt>
      <trkpt lat="44.40075" lon="0.99674">
        <ele>187</ele>
        <time>2025-07-17T09:57:40.071Z</time>
      </trkpt>
      <trkpt lat="44.40076" lon="0.99675">
        <ele>187</ele>
        <time>2025-07-17T09:57:41.071Z</time>
      </trkpt>
      <trkpt lat="44.40076" lon="0.99675">
        <ele>187</ele>
        <time>2025-07-17T09:57:42.071Z</time>
      </trkpt>
      <trkpt lat="44.40077" lon="0.99676">
        <ele>187</ele>
        <time>2025-07-17T09:57:43.071Z</time>
      </trkpt>
      <trkpt lat="44.40077" lon="0.99676">
        <ele>187</ele>
        <time>2025-07-17T09:57:44.071Z</time>
      </trkpt>
      <trkpt lat="44.40078" lon="0.99677">
        <ele>187</ele>
        <time>2025-07-17T09:57:45.071Z</time>
      </trkpt>
      <trkpt lat="44.40078" lon="0.99677">
        <ele>187</ele>
        <time>2025-07-17T09:57:46.071Z</time>
      </trkpt>
      <trkpt lat="44.40079" lon="0.99677">
        <ele>186</ele>
        <time>2025-07-17T09:57:47.071Z</time>
      </trkpt>
      <trkpt lat="44.40079" lon="0.99678">
        <ele>186</ele>
        <time>2025-07-17T09:57:48.071Z</time>
      </trkpt>
      <trkpt lat="44.4008" lon="0.99678">
        <ele>186</ele>
        <time>2025-07-17T09:57:49.071Z</time>
      </trkpt>
      <trkpt lat="44.40081" lon="0.99679">
        <ele>186</ele>
        <time>2025-07-17T09:57:50.071Z</time>
      </trkpt>
      <trkpt lat="44.40082" lon="0.99679">
        <ele>186</ele>
        <time>2025-07-17T09:57:51.071Z</time>
      </trkpt>
      <trkpt lat="44.40083" lon="0.99679">
        <ele>186</ele>
        <time>2025-07-17T09:57:52.071Z</time>
      </trkpt>
      <trkpt lat="44.40083" lon="0.99678">
        <ele>186</ele>
        <time>2025-07-17T09:57:53.071Z</time>
      </trkpt>
      <trkpt lat="44.40083" lon="0.99678">
        <ele>186</ele>
        <time>2025-07-17T09:57:54.072Z</time>
      </trkpt>
      <trkpt lat="44.40083" lon="0.99678">
        <ele>186</ele>
        <time>2025-07-17T09:57:55.071Z</time>
      </trkpt>
      <trkpt lat="44.40084" lon="0.99678">
        <ele>187</ele>
        <time>2025-07-17T09:57:56.071Z</time>
      </trkpt>
      <trkpt lat="44.40084" lon="0.99678">
        <ele>187</ele>
        <time>2025-07-17T09:57:57.071Z</time>
      </trkpt>
      <trkpt lat="44.40085" lon="0.99678">
        <ele>187</ele>
        <time>2025-07-17T09:57:58.072Z</time>
      </trkpt>
      <trkpt lat="44.40085" lon="0.99678">
        <ele>187</ele>
        <time>2025-07-17T09:57:59.071Z</time>
      </trkpt>
      <trkpt lat="44.40086" lon="0.99678">
        <ele>187</ele>
        <time>2025-07-17T09:58:00.071Z</time>
      </trkpt>
      <trkpt lat="44.40086" lon="0.99678">
        <ele>186</ele>
        <time>2025-07-17T09:58:01.071Z</time>
      </trkpt>
      <trkpt lat="44.40087" lon="0.99678">
        <ele>186</ele>
        <time>2025-07-17T09:58:02.071Z</time>
      </trkpt>
      <trkpt lat="44.40088" lon="0.99678">
        <ele>185</ele>
        <time>2025-07-17T09:58:03.071Z</time>
      </trkpt>
      <trkpt lat="44.40088" lon="0.99678">
        <ele>185</ele>
        <time>2025-07-17T09:58:04.071Z</time>
      </trkpt>
      <trkpt lat="44.40089" lon="0.99678">
        <ele>185</ele>
        <time>2025-07-17T09:58:05.071Z</time>
      </trkpt>
      <trkpt lat="44.4009" lon="0.99679">
        <ele>185</ele>
        <time>2025-07-17T09:58:06.071Z</time>
      </trkpt>
      <trkpt lat="44.4009" lon="0.9968">
        <ele>185</ele>
        <time>2025-07-17T09:58:07.071Z</time>
      </trkpt>
      <trkpt lat="44.40091" lon="0.9968">
        <ele>185</ele>
        <time>2025-07-17T09:58:08.071Z</time>
      </trkpt>
      <trkpt lat="44.40091" lon="0.99681">
        <ele>184</ele>
        <time>2025-07-17T09:58:09.071Z</time>
      </trkpt>
      <trkpt lat="44.40092" lon="0.99681">
        <ele>184</ele>
        <time>2025-07-17T09:58:10.071Z</time>
      </trkpt>
      <trkpt lat="44.40092" lon="0.99682">
        <ele>183</ele>
        <time>2025-07-17T09:58:11.071Z</time>
      </trkpt>
      <trkpt lat="44.40093" lon="0.99682">
        <ele>183</ele>
        <time>2025-07-17T09:58:12.071Z</time>
      </trkpt>
      <trkpt lat="44.40093" lon="0.99682">
        <ele>183</ele>
        <time>2025-07-17T09:58:13.071Z</time>
      </trkpt>
      <trkpt lat="44.40094" lon="0.99683">
        <ele>183</ele>
        <time>2025-07-17T09:58:14.071Z</time>
      </trkpt>
      <trkpt lat="44.40095" lon="0.99683">
        <ele>183</ele>
        <time>2025-07-17T09:58:15.071Z</time>
      </trkpt>
      <trkpt lat="44.40095" lon="0.99684">
        <ele>182</ele>
        <time>2025-07-17T09:58:16.071Z</time>
      </trkpt>
      <trkpt lat="44.40095" lon="0.99684">
        <ele>182</ele>
        <time>2025-07-17T09:58:17.071Z</time>
      </trkpt>
      <trkpt lat="44.40095" lon="0.99684">
        <ele>181</ele>
        <time>2025-07-17T09:58:18.071Z</time>
      </trkpt>
      <trkpt lat="44.40095" lon="0.99685">
        <ele>181</ele>
        <time>2025-07-17T09:58:19.071Z</time>
      </trkpt>
      <trkpt lat="44.40095" lon="0.99685">
        <ele>180</ele>
        <time>2025-07-17T09:58:20.071Z</time>
      </trkpt>
      <trkpt lat="44.40095" lon="0.99685">
        <ele>180</ele>
        <time>2025-07-17T09:58:21.071Z</time>
      </trkpt>
      <trkpt lat="44.40096" lon="0.99686">
        <ele>179</ele>
        <time>2025-07-17T09:58:22.071Z</time>
      </trkpt>
      <trkpt lat="44.40096" lon="0.99687">
        <ele>179</ele>
        <time>2025-07-17T09:58:23.071Z</time>
      </trkpt>
      <trkpt lat="44.40097" lon="0.99687">
        <ele>179</ele>
        <time>2025-07-17T09:58:24.071Z</time>
      </trkpt>
      <trkpt lat="44.40098" lon="0.99687">
        <ele>178</ele>
        <time>2025-07-17T09:58:25.071Z</time>
      </trkpt>
      <trkpt lat="44.40098" lon="0.99687">
        <ele>178</ele>
        <time>2025-07-17T09:58:26.071Z</time>
      </trkpt>
      <trkpt lat="44.40099" lon="0.99687">
        <ele>178</ele>
        <time>2025-07-17T09:58:27.071Z</time>
      </trkpt>
      <trkpt lat="44.401" lon="0.99687">
        <ele>178</ele>
        <time>2025-07-17T09:58:28.071Z</time>
      </trkpt>
      <trkpt lat="44.40101" lon="0.99687">
        <ele>178</ele>
        <time>2025-07-17T09:58:29.071Z</time>
      </trkpt>
      <trkpt lat="44.40102" lon="0.99689">
        <ele>177</ele>
        <time>2025-07-17T09:58:30.071Z</time>
      </trkpt>
      <trkpt lat="44.40103" lon="0.99689">
        <ele>177</ele>
        <time>2025-07-17T09:58:31.071Z</time>
      </trkpt>
      <trkpt lat="44.40104" lon="0.99689">
        <ele>177</ele>
        <time>2025-07-17T09:58:32.071Z</time>
      </trkpt>
      <trkpt lat="44.40105" lon="0.99689">
        <ele>177</ele>
        <time>2025-07-17T09:58:33.071Z</time>
      </trkpt>
      <trkpt lat="44.40105" lon="0.99689">
        <ele>177</ele>
        <time>2025-07-17T09:58:34.071Z</time>
      </trkpt>
      <trkpt lat="44.40106" lon="0.99689">
        <ele>176</ele>
        <time>2025-07-17T09:58:35.071Z</time>
      </trkpt>
      <trkpt lat="44.40108" lon="0.99688">
        <ele>176</ele>
        <time>2025-07-17T09:58:36.071Z</time>
      </trkpt>
      <trkpt lat="44.40108" lon="0.99687">
        <ele>176</ele>
        <time>2025-07-17T09:58:37.071Z</time>
      </trkpt>
      <trkpt lat="44.40109" lon="0.99687">
        <ele>175</ele>
        <time>2025-07-17T09:58:38.071Z</time>
      </trkpt>
      <trkpt lat="44.40109" lon="0.99687">
        <ele>175</ele>
        <time>2025-07-17T09:58:39.071Z</time>
      </trkpt>
      <trkpt lat="44.40109" lon="0.99687">
        <ele>175</ele>
        <time>2025-07-17T09:58:40.072Z</time>
      </trkpt>
      <trkpt lat="44.4011" lon="0.99687">
        <ele>174</ele>
        <time>2025-07-17T09:58:41.071Z</time>
      </trkpt>
      <trkpt lat="44.4011" lon="0.99687">
        <ele>174</ele>
        <time>2025-07-17T09:58:42.071Z</time>
      </trkpt>
      <trkpt lat="44.4011" lon="0.99687">
        <ele>173</ele>
        <time>2025-07-17T09:58:43.072Z</time>
      </trkpt>
      <trkpt lat="44.4011" lon="0.99687">
        <ele>173</ele>
        <time>2025-07-17T09:58:44.071Z</time>
      </trkpt>
      <trkpt lat="44.4011" lon="0.99686">
        <ele>173</ele>
        <time>2025-07-17T09:58:45.071Z</time>
      </trkpt>
      <trkpt lat="44.40111" lon="0.99686">
        <ele>173</ele>
        <time>2025-07-17T09:58:46.071Z</time>
      </trkpt>
      <trkpt lat="44.4011" lon="0.99686">
        <ele>173</ele>
        <time>2025-07-17T09:58:47.071Z</time>
      </trkpt>
      <trkpt lat="44.4011" lon="0.99686">
        <ele>173</ele>
        <time>2025-07-17T09:58:48.071Z</time>
      </trkpt>
      <trkpt lat="44.4011" lon="0.99686">
        <ele>173</ele>
        <time>2025-07-17T09:58:49.071Z</time>
      </trkpt>
      <trkpt lat="44.4011" lon="0.99686">
        <ele>173</ele>
        <time>2025-07-17T09:58:50.071Z</time>
      </trkpt>
      <trkpt lat="44.4011" lon="0.99686">
        <ele>173</ele>
        <time>2025-07-17T09:58:51.071Z</time>
      </trkpt>
      <trkpt lat="44.4011" lon="0.99685">
        <ele>172</ele>
        <time>2025-07-17T09:58:52.071Z</time>
      </trkpt>
      <trkpt lat="44.40111" lon="0.99684">
        <ele>172</ele>
        <time>2025-07-17T09:58:53.071Z</time>
      </trkpt>
      <trkpt lat="44.40112" lon="0.99684">
        <ele>173</ele>
        <time>2025-07-17T09:58:54.071Z</time>
      </trkpt>
      <trkpt lat="44.40113" lon="0.99683">
        <ele>173</ele>
        <time>2025-07-17T09:58:55.071Z</time>
      </trkpt>
      <trkpt lat="44.40114" lon="0.99683">
        <ele>173</ele>
        <time>2025-07-17T09:58:56.071Z</time>
      </trkpt>
      <trkpt lat="44.40114" lon="0.99682">
        <ele>173</ele>
        <time>2025-07-17T09:58:57.071Z</time>
      </trkpt>
      <trkpt lat="44.40116" lon="0.99681">
        <ele>173</ele>
        <time>2025-07-17T09:58:58.071Z</time>
      </trkpt>
      <trkpt lat="44.40117" lon="0.9968">
        <ele>173</ele>
        <time>2025-07-17T09:58:59.071Z</time>
      </trkpt>
      <trkpt lat="44.40118" lon="0.99679">
        <ele>172</ele>
        <time>2025-07-17T09:59:00.071Z</time>
      </trkpt>
      <trkpt lat="44.40119" lon="0.99678">
        <ele>173</ele>
        <time>2025-07-17T09:59:01.071Z</time>
      </trkpt>
      <trkpt lat="44.4012" lon="0.99677">
        <ele>173</ele>
        <time>2025-07-17T09:59:02.071Z</time>
      </trkpt>
      <trkpt lat="44.40121" lon="0.99676">
        <ele>172</ele>
        <time>2025-07-17T09:59:03.073Z</time>
      </trkpt>
      <trkpt lat="44.40123" lon="0.99676">
        <ele>172</ele>
        <time>2025-07-17T09:59:04.071Z</time>
      </trkpt>
      <trkpt lat="44.40123" lon="0.99675">
        <ele>172</ele>
        <time>2025-07-17T09:59:05.071Z</time>
      </trkpt>
      <trkpt lat="44.40124" lon="0.99674">
        <ele>172</ele>
        <time>2025-07-17T09:59:06.071Z</time>
      </trkpt>
      <trkpt lat="44.40125" lon="0.99673">
        <ele>172</ele>
        <time>2025-07-17T09:59:07.071Z</time>
      </trkpt>
      <trkpt lat="44.40126" lon="0.99673">
        <ele>172</ele>
        <time>2025-07-17T09:59:08.071Z</time>
      </trkpt>
      <trkpt lat="44.40127" lon="0.99672">
        <ele>172</ele>
        <time>2025-07-17T09:59:09.071Z</time>
      </trkpt>
      <trkpt lat="44.40128" lon="0.99671">
        <ele>172</ele>
        <time>2025-07-17T09:59:10.071Z</time>
      </trkpt>
      <trkpt lat="44.40129" lon="0.99671">
        <ele>172</ele>
        <time>2025-07-17T09:59:11.071Z</time>
      </trkpt>
      <trkpt lat="44.40131" lon="0.99671">
        <ele>172</ele>
        <time>2025-07-17T09:59:12.071Z</time>
      </trkpt>
      <trkpt lat="44.40132" lon="0.9967">
        <ele>172</ele>
        <time>2025-07-17T09:59:13.071Z</time>
      </trkpt>
      <trkpt lat="44.40133" lon="0.9967">
        <ele>172</ele>
        <time>2025-07-17T09:59:14.071Z</time>
      </trkpt>
      <trkpt lat="44.40135" lon="0.9967">
        <ele>172</ele>
        <time>2025-07-17T09:59:15.071Z</time>
      </trkpt>
      <trkpt lat="44.40136" lon="0.99669">
        <ele>172</ele>
        <time>2025-07-17T09:59:16.071Z</time>
      </trkpt>
      <trkpt lat="44.40137" lon="0.99669">
        <ele>173</ele>
        <time>2025-07-17T09:59:17.071Z</time>
      </trkpt>
      <trkpt lat="44.40138" lon="0.99669">
        <ele>173</ele>
        <time>2025-07-17T09:59:18.071Z</time>
      </trkpt>
      <trkpt lat="44.4014" lon="0.99669">
        <ele>173</ele>
        <time>2025-07-17T09:59:19.071Z</time>
      </trkpt>
      <trkpt lat="44.40141" lon="0.99668">
        <ele>173</ele>
        <time>2025-07-17T09:59:20.071Z</time>
      </trkpt>
      <trkpt lat="44.40142" lon="0.99668">
        <ele>173</ele>
        <time>2025-07-17T09:59:21.071Z</time>
      </trkpt>
      <trkpt lat="44.40143" lon="0.99668">
        <ele>173</ele>
        <time>2025-07-17T09:59:22.071Z</time>
      </trkpt>
      <trkpt lat="44.40144" lon="0.99668">
        <ele>173</ele>
        <time>2025-07-17T09:59:23.071Z</time>
      </trkpt>
      <trkpt lat="44.40145" lon="0.99668">
        <ele>173</ele>
        <time>2025-07-17T09:59:24.071Z</time>
      </trkpt>
      <trkpt lat="44.40147" lon="0.99669">
        <ele>173</ele>
        <time>2025-07-17T09:59:25.071Z</time>
      </trkpt>
      <trkpt lat="44.40148" lon="0.99669">
        <ele>172</ele>
        <time>2025-07-17T09:59:26.071Z</time>
      </trkpt>
      <trkpt lat="44.4015" lon="0.9967">
        <ele>172</ele>
        <time>2025-07-17T09:59:27.071Z</time>
      </trkpt>
      <trkpt lat="44.40151" lon="0.99671">
        <ele>171</ele>
        <time>2025-07-17T09:59:28.071Z</time>
      </trkpt>
      <trkpt lat="44.40152" lon="0.99671">
        <ele>171</ele>
        <time>2025-07-17T09:59:29.071Z</time>
      </trkpt>
      <trkpt lat="44.40153" lon="0.99672">
        <ele>171</ele>
        <time>2025-07-17T09:59:30.071Z</time>
      </trkpt>
      <trkpt lat="44.40154" lon="0.99673">
        <ele>171</ele>
        <time>2025-07-17T09:59:31.072Z</time>
      </trkpt>
      <trkpt lat="44.40156" lon="0.99674">
        <ele>171</ele>
        <time>2025-07-17T09:59:32.071Z</time>
      </trkpt>
      <trkpt lat="44.40157" lon="0.99675">
        <ele>171</ele>
        <time>2025-07-17T09:59:33.071Z</time>
      </trkpt>
      <trkpt lat="44.40158" lon="0.99676">
        <ele>171</ele>
        <time>2025-07-17T09:59:34.071Z</time>
      </trkpt>
      <trkpt lat="44.40159" lon="0.99677">
        <ele>172</ele>
        <time>2025-07-17T09:59:35.072Z</time>
      </trkpt>
      <trkpt lat="44.4016" lon="0.99678">
        <ele>172</ele>
        <time>2025-07-17T09:59:36.071Z</time>
      </trkpt>
      <trkpt lat="44.40161" lon="0.99679">
        <ele>172</ele>
        <time>2025-07-17T09:59:37.071Z</time>
      </trkpt>
      <trkpt lat="44.40162" lon="0.9968">
        <ele>172</ele>
        <time>2025-07-17T09:59:38.071Z</time>
      </trkpt>
      <trkpt lat="44.40163" lon="0.99681">
        <ele>172</ele>
        <time>2025-07-17T09:59:39.071Z</time>
      </trkpt>
      <trkpt lat="44.40164" lon="0.99682">
        <ele>172</ele>
        <time>2025-07-17T09:59:40.072Z</time>
      </trkpt>
      <trkpt lat="44.40165" lon="0.99683">
        <ele>172</ele>
        <time>2025-07-17T09:59:41.071Z</time>
      </trkpt>
      <trkpt lat="44.40166" lon="0.99684">
        <ele>173</ele>
        <time>2025-07-17T09:59:42.071Z</time>
      </trkpt>
      <trkpt lat="44.40167" lon="0.99685">
        <ele>172</ele>
        <time>2025-07-17T09:59:43.071Z</time>
      </trkpt>
      <trkpt lat="44.40168" lon="0.99687">
        <ele>172</ele>
        <time>2025-07-17T09:59:44.071Z</time>
      </trkpt>
      <trkpt lat="44.4017" lon="0.99688">
        <ele>172</ele>
        <time>2025-07-17T09:59:45.071Z</time>
      </trkpt>
      <trkpt lat="44.40171" lon="0.99689">
        <ele>171</ele>
        <time>2025-07-17T09:59:46.071Z</time>
      </trkpt>
      <trkpt lat="44.40172" lon="0.99691">
        <ele>171</ele>
        <time>2025-07-17T09:59:47.071Z</time>
      </trkpt>
      <trkpt lat="44.40173" lon="0.99692">
        <ele>171</ele>
        <time>2025-07-17T09:59:48.071Z</time>
      </trkpt>
      <trkpt lat="44.40174" lon="0.99693">
        <ele>171</ele>
        <time>2025-07-17T09:59:49.071Z</time>
      </trkpt>
      <trkpt lat="44.40175" lon="0.99694">
        <ele>170</ele>
        <time>2025-07-17T09:59:50.071Z</time>
      </trkpt>
      <trkpt lat="44.40176" lon="0.99695">
        <ele>170</ele>
        <time>2025-07-17T09:59:51.071Z</time>
      </trkpt>
      <trkpt lat="44.40177" lon="0.99697">
        <ele>170</ele>
        <time>2025-07-17T09:59:52.072Z</time>
      </trkpt>
      <trkpt lat="44.40178" lon="0.99698">
        <ele>170</ele>
        <time>2025-07-17T09:59:53.071Z</time>
      </trkpt>
      <trkpt lat="44.40178" lon="0.99699">
        <ele>170</ele>
        <time>2025-07-17T09:59:54.071Z</time>
      </trkpt>
      <trkpt lat="44.40179" lon="0.997">
        <ele>169</ele>
        <time>2025-07-17T09:59:55.071Z</time>
      </trkpt>
      <trkpt lat="44.4018" lon="0.99702">
        <ele>169</ele>
        <time>2025-07-17T09:59:56.071Z</time>
      </trkpt>
      <trkpt lat="44.4018" lon="0.99703">
        <ele>169</ele>
        <time>2025-07-17T09:59:57.071Z</time>
      </trkpt>
      <trkpt lat="44.4018" lon="0.99704">
        <ele>169</ele>
        <time>2025-07-17T09:59:58.071Z</time>
      </trkpt>
      <trkpt lat="44.40181" lon="0.99706">
        <ele>169</ele>
        <time>2025-07-17T09:59:59.072Z</time>
      </trkpt>
      <trkpt lat="44.40181" lon="0.99707">
        <ele>168</ele>
        <time>2025-07-17T10:00:00.071Z</time>
      </trkpt>
      <trkpt lat="44.40181" lon="0.99709">
        <ele>168</ele>
        <time>2025-07-17T10:00:01.071Z</time>
      </trkpt>
      <trkpt lat="44.40181" lon="0.99711">
        <ele>168</ele>
        <time>2025-07-17T10:00:02.071Z</time>
      </trkpt>
      <trkpt lat="44.40181" lon="0.99712">
        <ele>168</ele>
        <time>2025-07-17T10:00:03.071Z</time>
      </trkpt>
      <trkpt lat="44.40181" lon="0.99714">
        <ele>169</ele>
        <time>2025-07-17T10:00:04.071Z</time>
      </trkpt>
      <trkpt lat="44.4018" lon="0.99715">
        <ele>169</ele>
        <time>2025-07-17T10:00:05.071Z</time>
      </trkpt>
      <trkpt lat="44.4018" lon="0.99716">
        <ele>169</ele>
        <time>2025-07-17T10:00:06.072Z</time>
      </trkpt>
      <trkpt lat="44.4018" lon="0.99718">
        <ele>169</ele>
        <time>2025-07-17T10:00:07.071Z</time>
      </trkpt>
      <trkpt lat="44.4018" lon="0.99719">
        <ele>170</ele>
        <time>2025-07-17T10:00:08.071Z</time>
      </trkpt>
      <trkpt lat="44.40179" lon="0.99719">
        <ele>170</ele>
        <time>2025-07-17T10:00:09.071Z</time>
      </trkpt>
      <trkpt lat="44.40179" lon="0.9972">
        <ele>169</ele>
        <time>2025-07-17T10:00:10.071Z</time>
      </trkpt>
      <trkpt lat="44.40179" lon="0.9972">
        <ele>169</ele>
        <time>2025-07-17T10:00:11.072Z</time>
      </trkpt>
      <trkpt lat="44.40179" lon="0.99721">
        <ele>169</ele>
        <time>2025-07-17T10:00:12.072Z</time>
      </trkpt>
      <trkpt lat="44.40179" lon="0.99722">
        <ele>169</ele>
        <time>2025-07-17T10:00:13.071Z</time>
      </trkpt>
      <trkpt lat="44.40179" lon="0.99724">
        <ele>169</ele>
        <time>2025-07-17T10:00:14.072Z</time>
      </trkpt>
      <trkpt lat="44.40178" lon="0.99725">
        <ele>169</ele>
        <time>2025-07-17T10:00:15.071Z</time>
      </trkpt>
      <trkpt lat="44.40178" lon="0.99726">
        <ele>169</ele>
        <time>2025-07-17T10:00:16.071Z</time>
      </trkpt>
      <trkpt lat="44.40177" lon="0.99728">
        <ele>169</ele>
        <time>2025-07-17T10:00:17.071Z</time>
      </trkpt>
      <trkpt lat="44.40177" lon="0.99729">
        <ele>169</ele>
        <time>2025-07-17T10:00:18.071Z</time>
      </trkpt>
      <trkpt lat="44.40176" lon="0.9973">
        <ele>168</ele>
        <time>2025-07-17T10:00:19.071Z</time>
      </trkpt>
      <trkpt lat="44.40175" lon="0.9973">
        <ele>168</ele>
        <time>2025-07-17T10:00:20.071Z</time>
      </trkpt>
      <trkpt lat="44.40175" lon="0.9973">
        <ele>168</ele>
        <time>2025-07-17T10:00:21.071Z</time>
      </trkpt>
      <trkpt lat="44.40174" lon="0.99731">
        <ele>168</ele>
        <time>2025-07-17T10:00:22.072Z</time>
      </trkpt>
      <trkpt lat="44.40174" lon="0.99731">
        <ele>168</ele>
        <time>2025-07-17T10:00:23.071Z</time>
      </trkpt>
      <trkpt lat="44.40174" lon="0.99731">
        <ele>168</ele>
        <time>2025-07-17T10:00:24.071Z</time>
      </trkpt>
      <trkpt lat="44.40174" lon="0.99731">
        <ele>168</ele>
        <time>2025-07-17T10:00:25.072Z</time>
      </trkpt>
      <trkpt lat="44.40174" lon="0.99731">
        <ele>168</ele>
        <time>2025-07-17T10:00:26.071Z</time>
      </trkpt>
      <trkpt lat="44.40174" lon="0.99731">
        <ele>168</ele>
        <time>2025-07-17T10:00:27.071Z</time>
      </trkpt>
      <trkpt lat="44.40174" lon="0.99731">
        <ele>168</ele>
        <time>2025-07-17T10:00:28.071Z</time>
      </trkpt>
      <trkpt lat="44.40174" lon="0.9973">
        <ele>168</ele>
        <time>2025-07-17T10:00:29.071Z</time>
      </trkpt>
      <trkpt lat="44.40174" lon="0.9973">
        <ele>168</ele>
        <time>2025-07-17T10:00:30.071Z</time>
      </trkpt>
      <trkpt lat="44.40174" lon="0.9973">
        <ele>168</ele>
        <time>2025-07-17T10:00:31.071Z</time>
      </trkpt>
      <trkpt lat="44.40174" lon="0.9973">
        <ele>168</ele>
        <time>2025-07-17T10:00:32.071Z</time>
      </trkpt>
    </trkseg>
  </trk>
</gpx>